<?xml version="1.0" encoding="UTF-8" standalone="no" ?>
<gpx xmlns="http://www.topografix.com/GPX/1/1" xmlns:xsi="http://www.w3.org/2001/XMLSchema-instance" xsi:schemaLocation="http://www.topografix.com/GPX/1/1 http://www.topografix.com/GPX/1/1/gpx.xsd" version="1.1" creator="VisuGPX - https://www.visugpx.com">
  <metadata>
    <name>Zagreb - Mignavillers</name>
  </metadata>
  <trk>
    <name><![CDATA[7_Munich à Mignavillers_482km]]></name>
    <extensions>
      <line xmlns="http://www.topografix.com/GPX/gpx_style/0/2">
        <color>FF0000</color>
        <width>4</width>
      </line>
    </extensions>
    <trkseg>
      <trkpt lat="48.1371" lon="11.57627">
        <ele>522.803429</ele>
        <time>2022-09-13T10:49:10.603Z</time>
      </trkpt>
      <trkpt lat="48.13706" lon="11.57624">
        <ele>522.803429</ele>
        <time>2022-09-13T10:49:12.222Z</time>
      </trkpt>
      <trkpt lat="48.13705" lon="11.57589">
        <ele>522.803429</ele>
        <time>2022-09-13T10:49:20.688Z</time>
      </trkpt>
      <trkpt lat="48.13702" lon="11.57581">
        <ele>522.803429</ele>
        <time>2022-09-13T10:49:23.015Z</time>
      </trkpt>
      <trkpt lat="48.13674" lon="11.57554">
        <ele>522.803429</ele>
        <time>2022-09-13T10:49:35.187Z</time>
      </trkpt>
      <trkpt lat="48.13662" lon="11.57539">
        <ele>522.803429</ele>
        <time>2022-09-13T10:49:40.832Z</time>
      </trkpt>
      <trkpt lat="48.1365" lon="11.57523">
        <ele>522.787454</ele>
        <time>2022-09-13T10:49:46.573Z</time>
      </trkpt>
      <trkpt lat="48.1364" lon="11.57506">
        <ele>522.759248</ele>
        <time>2022-09-13T10:49:51.980Z</time>
      </trkpt>
      <trkpt lat="48.13628" lon="11.57479">
        <ele>522.718429</ele>
        <time>2022-09-13T10:49:59.873Z</time>
      </trkpt>
      <trkpt lat="48.13626" lon="11.57474">
        <ele>522.711281</ele>
        <time>2022-09-13T10:50:00.928Z</time>
      </trkpt>
      <trkpt lat="48.13625" lon="11.57472">
        <ele>522.707553</ele>
        <time>2022-09-13T10:50:01.462Z</time>
      </trkpt>
      <trkpt lat="48.13622" lon="11.57467">
        <ele>522.699675</ele>
        <time>2022-09-13T10:50:02.526Z</time>
      </trkpt>
      <trkpt lat="48.13616" lon="11.57452">
        <ele>522.678027</ele>
        <time>2022-09-13T10:50:05.539Z</time>
      </trkpt>
      <trkpt lat="48.13611" lon="11.5744">
        <ele>522.659891</ele>
        <time>2022-09-13T10:50:08.082Z</time>
      </trkpt>
      <trkpt lat="48.13608" lon="11.57431">
        <ele>522.647698</ele>
        <time>2022-09-13T10:50:09.860Z</time>
      </trkpt>
      <trkpt lat="48.1358" lon="11.57352">
        <ele>522.537046</ele>
        <time>2022-09-13T10:50:24.131Z</time>
      </trkpt>
      <trkpt lat="48.13577" lon="11.57345">
        <ele>522.525237</ele>
        <time>2022-09-13T10:50:25.720Z</time>
      </trkpt>
      <trkpt lat="48.13569" lon="11.57328">
        <ele>522.500053</ele>
        <time>2022-09-13T10:50:29.171Z</time>
      </trkpt>
      <trkpt lat="48.13549" lon="11.57287">
        <ele>522.585163</ele>
        <time>2022-09-13T10:50:37.796Z</time>
      </trkpt>
      <trkpt lat="48.1354" lon="11.57269">
        <ele>522.695571</ele>
        <time>2022-09-13T10:50:41.609Z</time>
      </trkpt>
      <trkpt lat="48.13537" lon="11.57262">
        <ele>522.734929</ele>
        <time>2022-09-13T10:50:43.062Z</time>
      </trkpt>
      <trkpt lat="48.13526" lon="11.57211">
        <ele>522.995692</ele>
        <time>2022-09-13T10:50:53.446Z</time>
      </trkpt>
      <trkpt lat="48.13513" lon="11.57166">
        <ele>523.231207</ele>
        <time>2022-09-13T10:51:03.682Z</time>
      </trkpt>
      <trkpt lat="48.13518" lon="11.5716">
        <ele>523.27401</ele>
        <time>2022-09-13T10:51:06.202Z</time>
      </trkpt>
      <trkpt lat="48.1356" lon="11.57115">
        <ele>523.647687</ele>
        <time>2022-09-13T10:51:27.834Z</time>
      </trkpt>
      <trkpt lat="48.13582" lon="11.57087">
        <ele>523.865463</ele>
        <time>2022-09-13T10:51:37.146Z</time>
      </trkpt>
      <trkpt lat="48.13594" lon="11.57059">
        <ele>524.048353</ele>
        <time>2022-09-13T10:51:44.535Z</time>
      </trkpt>
      <trkpt lat="48.13613" lon="11.57006">
        <ele>524.367823</ele>
        <time>2022-09-13T10:51:57.579Z</time>
      </trkpt>
      <trkpt lat="48.13625" lon="11.56965">
        <ele>524.610738</ele>
        <time>2022-09-13T10:52:07.637Z</time>
      </trkpt>
      <trkpt lat="48.13613" lon="11.56922">
        <ele>524.861555</ele>
        <time>2022-09-13T10:52:17.272Z</time>
      </trkpt>
      <trkpt lat="48.1363" lon="11.5684">
        <ele>525.13131</ele>
        <time>2022-09-13T10:52:32.580Z</time>
      </trkpt>
      <trkpt lat="48.13656" lon="11.56688">
        <ele>524.455569</ele>
        <time>2022-09-13T10:52:57.412Z</time>
      </trkpt>
      <trkpt lat="48.13656" lon="11.56669">
        <ele>524.370581</ele>
        <time>2022-09-13T10:53:00.303Z</time>
      </trkpt>
      <trkpt lat="48.13657" lon="11.56631">
        <ele>524.20787</ele>
        <time>2022-09-13T10:53:06.051Z</time>
      </trkpt>
      <trkpt lat="48.1366" lon="11.56594">
        <ele>524.054408</ele>
        <time>2022-09-13T10:53:11.953Z</time>
      </trkpt>
      <trkpt lat="48.13661" lon="11.5659">
        <ele>524.051538</ele>
        <time>2022-09-13T10:53:12.651Z</time>
      </trkpt>
      <trkpt lat="48.13663" lon="11.56579">
        <ele>524.042799</ele>
        <time>2022-09-13T10:53:14.625Z</time>
      </trkpt>
      <trkpt lat="48.13667" lon="11.56536">
        <ele>524.011356</ele>
        <time>2022-09-13T10:53:21.806Z</time>
      </trkpt>
      <trkpt lat="48.13674" lon="11.56528">
        <ele>524.0014</ele>
        <time>2022-09-13T10:53:24.127Z</time>
      </trkpt>
      <trkpt lat="48.13668" lon="11.56515">
        <ele>523.990064</ele>
        <time>2022-09-13T10:53:26.726Z</time>
      </trkpt>
      <trkpt lat="48.13642" lon="11.56461">
        <ele>523.941086</ele>
        <time>2022-09-13T10:53:38.344Z</time>
      </trkpt>
      <trkpt lat="48.13638" lon="11.56449">
        <ele>523.931836</ele>
        <time>2022-09-13T10:53:40.728Z</time>
      </trkpt>
      <trkpt lat="48.13633" lon="11.56443">
        <ele>523.924238</ele>
        <time>2022-09-13T10:53:42.623Z</time>
      </trkpt>
      <trkpt lat="48.13633" lon="11.5644">
        <ele>523.922196</ele>
        <time>2022-09-13T10:53:43.891Z</time>
      </trkpt>
      <trkpt lat="48.13633" lon="11.5642">
        <ele>523.907777</ele>
        <time>2022-09-13T10:53:47.649Z</time>
      </trkpt>
      <trkpt lat="48.13633" lon="11.56384">
        <ele>523.881268</ele>
        <time>2022-09-13T10:53:54.815Z</time>
      </trkpt>
      <trkpt lat="48.13633" lon="11.56317">
        <ele>523.9615</ele>
        <time>2022-09-13T10:54:07.244Z</time>
      </trkpt>
      <trkpt lat="48.13633" lon="11.563">
        <ele>524.009823</ele>
        <time>2022-09-13T10:54:10.385Z</time>
      </trkpt>
      <trkpt lat="48.13633" lon="11.56244">
        <ele>524.167063</ele>
        <time>2022-09-13T10:54:21.298Z</time>
      </trkpt>
      <trkpt lat="48.13633" lon="11.56236">
        <ele>524.189964</ele>
        <time>2022-09-13T10:54:22.954Z</time>
      </trkpt>
      <trkpt lat="48.13634" lon="11.56196">
        <ele>524.300841</ele>
        <time>2022-09-13T10:54:31.111Z</time>
      </trkpt>
      <trkpt lat="48.13634" lon="11.56094">
        <ele>524.586273</ele>
        <time>2022-09-13T10:54:50.586Z</time>
      </trkpt>
      <trkpt lat="48.13635" lon="11.55862">
        <ele>524.653168</ele>
        <time>2022-09-13T10:55:32.154Z</time>
      </trkpt>
      <trkpt lat="48.13744" lon="11.55864">
        <ele>524.516012</ele>
        <time>2022-09-13T10:56:00.904Z</time>
      </trkpt>
      <trkpt lat="48.13841" lon="11.55863">
        <ele>524.334843</ele>
        <time>2022-09-13T10:56:26.663Z</time>
      </trkpt>
      <trkpt lat="48.13882" lon="11.55862">
        <ele>524.333039</ele>
        <time>2022-09-13T10:56:37.348Z</time>
      </trkpt>
      <trkpt lat="48.13899" lon="11.55862">
        <ele>524.336333</ele>
        <time>2022-09-13T10:56:42.083Z</time>
      </trkpt>
      <trkpt lat="48.13911" lon="11.55862">
        <ele>524.33867</ele>
        <time>2022-09-13T10:56:45.448Z</time>
      </trkpt>
      <trkpt lat="48.13918" lon="11.55862">
        <ele>524.340106</ele>
        <time>2022-09-13T10:56:47.571Z</time>
      </trkpt>
      <trkpt lat="48.13935" lon="11.55864">
        <ele>524.34327</ele>
        <time>2022-09-13T10:56:52.157Z</time>
      </trkpt>
      <trkpt lat="48.1394" lon="11.55864">
        <ele>524.344287</ele>
        <time>2022-09-13T10:56:53.662Z</time>
      </trkpt>
      <trkpt lat="48.1394" lon="11.5585">
        <ele>524.346114</ele>
        <time>2022-09-13T10:56:56.293Z</time>
      </trkpt>
      <trkpt lat="48.13939" lon="11.5583">
        <ele>524.348665</ele>
        <time>2022-09-13T10:57:00.166Z</time>
      </trkpt>
      <trkpt lat="48.13934" lon="11.55796">
        <ele>524.35314</ele>
        <time>2022-09-13T10:57:06.660Z</time>
      </trkpt>
      <trkpt lat="48.13929" lon="11.55772">
        <ele>524.356274</ele>
        <time>2022-09-13T10:57:11.305Z</time>
      </trkpt>
      <trkpt lat="48.13926" lon="11.55605">
        <ele>524.352043</ele>
        <time>2022-09-13T10:57:40.039Z</time>
      </trkpt>
      <trkpt lat="48.13926" lon="11.55595">
        <ele>524.351386</ele>
        <time>2022-09-13T10:57:41.784Z</time>
      </trkpt>
      <trkpt lat="48.13926" lon="11.5558">
        <ele>524.350436</ele>
        <time>2022-09-13T10:57:44.285Z</time>
      </trkpt>
      <trkpt lat="48.13924" lon="11.55543">
        <ele>524.347989</ele>
        <time>2022-09-13T10:57:51.284Z</time>
      </trkpt>
      <trkpt lat="48.13923" lon="11.55514">
        <ele>524.346085</ele>
        <time>2022-09-13T10:57:56.730Z</time>
      </trkpt>
      <trkpt lat="48.13923" lon="11.5551">
        <ele>524.345831</ele>
        <time>2022-09-13T10:57:57.446Z</time>
      </trkpt>
      <trkpt lat="48.13922" lon="11.55505">
        <ele>524.345549</ele>
        <time>2022-09-13T10:57:58.256Z</time>
      </trkpt>
      <trkpt lat="48.13921" lon="11.55453">
        <ele>524.368776</ele>
        <time>2022-09-13T10:58:07.938Z</time>
      </trkpt>
      <trkpt lat="48.13919" lon="11.55395">
        <ele>524.468095</ele>
        <time>2022-09-13T10:58:18.362Z</time>
      </trkpt>
      <trkpt lat="48.13913" lon="11.55246">
        <ele>524.719425</ele>
        <time>2022-09-13T10:58:45.153Z</time>
      </trkpt>
      <trkpt lat="48.13912" lon="11.55231">
        <ele>524.74533</ele>
        <time>2022-09-13T10:58:47.999Z</time>
      </trkpt>
      <trkpt lat="48.13911" lon="11.55187">
        <ele>524.888316</ele>
        <time>2022-09-13T10:58:56.844Z</time>
      </trkpt>
      <trkpt lat="48.1391" lon="11.55181">
        <ele>524.938118</ele>
        <time>2022-09-13T10:58:58.149Z</time>
      </trkpt>
      <trkpt lat="48.1391" lon="11.55166">
        <ele>525.049591</ele>
        <time>2022-09-13T10:59:01.339Z</time>
      </trkpt>
      <trkpt lat="48.13909" lon="11.55151">
        <ele>525.157407</ele>
        <time>2022-09-13T10:59:04.494Z</time>
      </trkpt>
      <trkpt lat="48.13909" lon="11.55144">
        <ele>525.214682</ele>
        <time>2022-09-13T10:59:06.179Z</time>
      </trkpt>
      <trkpt lat="48.13908" lon="11.55103">
        <ele>525.517251</ele>
        <time>2022-09-13T10:59:14.760Z</time>
      </trkpt>
      <trkpt lat="48.13906" lon="11.55">
        <ele>526.279386</ele>
        <time>2022-09-13T10:59:36.697Z</time>
      </trkpt>
      <trkpt lat="48.13906" lon="11.54977">
        <ele>526.453892</ele>
        <time>2022-09-13T10:59:41.864Z</time>
      </trkpt>
      <trkpt lat="48.13907" lon="11.54915">
        <ele>526.939225</ele>
        <time>2022-09-13T10:59:56.142Z</time>
      </trkpt>
      <trkpt lat="48.13907" lon="11.54901">
        <ele>527.060865</ele>
        <time>2022-09-13T10:59:59.174Z</time>
      </trkpt>
      <trkpt lat="48.13932" lon="11.54729">
        <ele>528.635833</ele>
        <time>2022-09-13T11:00:38.840Z</time>
      </trkpt>
      <trkpt lat="48.13934" lon="11.54715">
        <ele>528.757587</ele>
        <time>2022-09-13T11:00:41.974Z</time>
      </trkpt>
      <trkpt lat="48.13937" lon="11.54698">
        <ele>528.919169</ele>
        <time>2022-09-13T11:00:46.105Z</time>
      </trkpt>
      <trkpt lat="48.1395" lon="11.54471">
        <ele>530.025405</ele>
        <time>2022-09-13T11:01:34.641Z</time>
      </trkpt>
      <trkpt lat="48.13951" lon="11.54457">
        <ele>530.082871</ele>
        <time>2022-09-13T11:01:37.160Z</time>
      </trkpt>
      <trkpt lat="48.13968" lon="11.54198">
        <ele>530.058021</ele>
        <time>2022-09-13T11:02:25.096Z</time>
      </trkpt>
      <trkpt lat="48.1397" lon="11.54154">
        <ele>529.996211</ele>
        <time>2022-09-13T11:02:32.865Z</time>
      </trkpt>
      <trkpt lat="48.13971" lon="11.54144">
        <ele>529.982801</ele>
        <time>2022-09-13T11:02:34.502Z</time>
      </trkpt>
      <trkpt lat="48.13972" lon="11.54126">
        <ele>529.943615</ele>
        <time>2022-09-13T11:02:37.514Z</time>
      </trkpt>
      <trkpt lat="48.13975" lon="11.54078">
        <ele>529.615103</ele>
        <time>2022-09-13T11:02:45.487Z</time>
      </trkpt>
      <trkpt lat="48.13981" lon="11.53989">
        <ele>529.017638</ele>
        <time>2022-09-13T11:02:59.490Z</time>
      </trkpt>
      <trkpt lat="48.13992" lon="11.53832">
        <ele>528.173193</ele>
        <time>2022-09-13T11:03:24.529Z</time>
      </trkpt>
      <trkpt lat="48.13992" lon="11.53826">
        <ele>528.178259</ele>
        <time>2022-09-13T11:03:25.427Z</time>
      </trkpt>
      <trkpt lat="48.13993" lon="11.53807">
        <ele>528.19571</ele>
        <time>2022-09-13T11:03:28.515Z</time>
      </trkpt>
      <trkpt lat="48.13994" lon="11.53801">
        <ele>528.200674</ele>
        <time>2022-09-13T11:03:29.397Z</time>
      </trkpt>
      <trkpt lat="48.14009" lon="11.53557">
        <ele>528.611335</ele>
        <time>2022-09-13T11:04:18.841Z</time>
      </trkpt>
      <trkpt lat="48.14016" lon="11.53488">
        <ele>529.054955</ele>
        <time>2022-09-13T11:04:35.696Z</time>
      </trkpt>
      <trkpt lat="48.14018" lon="11.53483">
        <ele>529.08796</ele>
        <time>2022-09-13T11:04:36.834Z</time>
      </trkpt>
      <trkpt lat="48.14018" lon="11.53472">
        <ele>529.155669</ele>
        <time>2022-09-13T11:04:39.224Z</time>
      </trkpt>
      <trkpt lat="48.14023" lon="11.53402">
        <ele>529.601598</ele>
        <time>2022-09-13T11:04:55.217Z</time>
      </trkpt>
      <trkpt lat="48.14024" lon="11.53389">
        <ele>529.685999</ele>
        <time>2022-09-13T11:04:58.319Z</time>
      </trkpt>
      <trkpt lat="48.14021" lon="11.53383">
        <ele>529.734864</ele>
        <time>2022-09-13T11:05:00.178Z</time>
      </trkpt>
      <trkpt lat="48.14022" lon="11.53348">
        <ele>529.95134</ele>
        <time>2022-09-13T11:05:07.447Z</time>
      </trkpt>
      <trkpt lat="48.14037" lon="11.53109">
        <ele>529.687788</ele>
        <time>2022-09-13T11:05:51.387Z</time>
      </trkpt>
      <trkpt lat="48.14038" lon="11.53091">
        <ele>529.655078</ele>
        <time>2022-09-13T11:05:54.212Z</time>
      </trkpt>
      <trkpt lat="48.14043" lon="11.53024">
        <ele>529.329449</ele>
        <time>2022-09-13T11:06:04.747Z</time>
      </trkpt>
      <trkpt lat="48.14062" lon="11.52729">
        <ele>527.088042</ele>
        <time>2022-09-13T11:06:51.569Z</time>
      </trkpt>
      <trkpt lat="48.14075" lon="11.52544">
        <ele>525.810245</ele>
        <time>2022-09-13T11:07:21.712Z</time>
      </trkpt>
      <trkpt lat="48.14077" lon="11.52511">
        <ele>525.62808</ele>
        <time>2022-09-13T11:07:27.101Z</time>
      </trkpt>
      <trkpt lat="48.14084" lon="11.5245">
        <ele>525.431035</ele>
        <time>2022-09-13T11:07:37.748Z</time>
      </trkpt>
      <trkpt lat="48.14086" lon="11.52428">
        <ele>525.361029</ele>
        <time>2022-09-13T11:07:41.601Z</time>
      </trkpt>
      <trkpt lat="48.14088" lon="11.52403">
        <ele>525.281695</ele>
        <time>2022-09-13T11:07:45.720Z</time>
      </trkpt>
      <trkpt lat="48.14093" lon="11.52337">
        <ele>525.073037</ele>
        <time>2022-09-13T11:07:56.945Z</time>
      </trkpt>
      <trkpt lat="48.14099" lon="11.52265">
        <ele>524.845704</ele>
        <time>2022-09-13T11:08:09.452Z</time>
      </trkpt>
      <trkpt lat="48.141" lon="11.52257">
        <ele>524.817945</ele>
        <time>2022-09-13T11:08:11.102Z</time>
      </trkpt>
      <trkpt lat="48.14104" lon="11.52218">
        <ele>524.945465</ele>
        <time>2022-09-13T11:08:18.907Z</time>
      </trkpt>
      <trkpt lat="48.14106" lon="11.522">
        <ele>525.009563</ele>
        <time>2022-09-13T11:08:22.731Z</time>
      </trkpt>
      <trkpt lat="48.14134" lon="11.51961">
        <ele>525.926088</ele>
        <time>2022-09-13T11:09:12.648Z</time>
      </trkpt>
      <trkpt lat="48.14147" lon="11.51896">
        <ele>526.286844</ele>
        <time>2022-09-13T11:09:27.715Z</time>
      </trkpt>
      <trkpt lat="48.14149" lon="11.51882">
        <ele>526.368685</ele>
        <time>2022-09-13T11:09:31.003Z</time>
      </trkpt>
      <trkpt lat="48.1415" lon="11.51876">
        <ele>526.397521</ele>
        <time>2022-09-13T11:09:32.111Z</time>
      </trkpt>
      <trkpt lat="48.14154" lon="11.51858">
        <ele>526.503025</ele>
        <time>2022-09-13T11:09:36.313Z</time>
      </trkpt>
      <trkpt lat="48.14161" lon="11.51792">
        <ele>526.857639</ele>
        <time>2022-09-13T11:09:49.864Z</time>
      </trkpt>
      <trkpt lat="48.14159" lon="11.51777">
        <ele>526.941552</ele>
        <time>2022-09-13T11:09:52.811Z</time>
      </trkpt>
      <trkpt lat="48.14161" lon="11.5177">
        <ele>526.983572</ele>
        <time>2022-09-13T11:09:54.289Z</time>
      </trkpt>
      <trkpt lat="48.14178" lon="11.51623">
        <ele>527.508645</ele>
        <time>2022-09-13T11:10:25.236Z</time>
      </trkpt>
      <trkpt lat="48.14179" lon="11.5161">
        <ele>527.546078</ele>
        <time>2022-09-13T11:10:28.037Z</time>
      </trkpt>
      <trkpt lat="48.14184" lon="11.51564">
        <ele>527.672273</ele>
        <time>2022-09-13T11:10:36.903Z</time>
      </trkpt>
      <trkpt lat="48.14192" lon="11.51504">
        <ele>527.842023</ele>
        <time>2022-09-13T11:10:47.428Z</time>
      </trkpt>
      <trkpt lat="48.14198" lon="11.51453">
        <ele>527.965458</ele>
        <time>2022-09-13T11:10:56.134Z</time>
      </trkpt>
      <trkpt lat="48.14208" lon="11.51359">
        <ele>528.035837</ele>
        <time>2022-09-13T11:11:13.088Z</time>
      </trkpt>
      <trkpt lat="48.14212" lon="11.51328">
        <ele>528.05931</ele>
        <time>2022-09-13T11:11:19.119Z</time>
      </trkpt>
      <trkpt lat="48.1422" lon="11.51256">
        <ele>528.113343</ele>
        <time>2022-09-13T11:11:33.321Z</time>
      </trkpt>
      <trkpt lat="48.14222" lon="11.5124">
        <ele>528.125334</ele>
        <time>2022-09-13T11:11:36.419Z</time>
      </trkpt>
      <trkpt lat="48.14223" lon="11.51226">
        <ele>528.135685</ele>
        <time>2022-09-13T11:11:38.815Z</time>
      </trkpt>
      <trkpt lat="48.14228" lon="11.51189">
        <ele>528.152242</ele>
        <time>2022-09-13T11:11:45.431Z</time>
      </trkpt>
      <trkpt lat="48.14249" lon="11.50997">
        <ele>527.992368</ele>
        <time>2022-09-13T11:12:20.368Z</time>
      </trkpt>
      <trkpt lat="48.14275" lon="11.50769">
        <ele>527.23372</ele>
        <time>2022-09-13T11:12:58.304Z</time>
      </trkpt>
      <trkpt lat="48.14276" lon="11.50764">
        <ele>527.21142</ele>
        <time>2022-09-13T11:12:59.077Z</time>
      </trkpt>
      <trkpt lat="48.14287" lon="11.50667">
        <ele>526.786477</ele>
        <time>2022-09-13T11:13:14.371Z</time>
      </trkpt>
      <trkpt lat="48.14293" lon="11.50654">
        <ele>526.720664</ele>
        <time>2022-09-13T11:13:16.825Z</time>
      </trkpt>
      <trkpt lat="48.14338" lon="11.50358">
        <ele>525.746899</ele>
        <time>2022-09-13T11:14:08.094Z</time>
      </trkpt>
      <trkpt lat="48.14336" lon="11.50338">
        <ele>525.801383</ele>
        <time>2022-09-13T11:14:11.972Z</time>
      </trkpt>
      <trkpt lat="48.14338" lon="11.50299">
        <ele>525.907387</ele>
        <time>2022-09-13T11:14:19.904Z</time>
      </trkpt>
      <trkpt lat="48.1434" lon="11.50285">
        <ele>525.946492</ele>
        <time>2022-09-13T11:14:22.686Z</time>
      </trkpt>
      <trkpt lat="48.14342" lon="11.50276">
        <ele>525.973805</ele>
        <time>2022-09-13T11:14:24.722Z</time>
      </trkpt>
      <trkpt lat="48.14344" lon="11.50264">
        <ele>526.005345</ele>
        <time>2022-09-13T11:14:27.095Z</time>
      </trkpt>
      <trkpt lat="48.14344" lon="11.50256">
        <ele>526.029093</ele>
        <time>2022-09-13T11:14:28.905Z</time>
      </trkpt>
      <trkpt lat="48.14344" lon="11.5018">
        <ele>526.235696</ele>
        <time>2022-09-13T11:14:44.324Z</time>
      </trkpt>
      <trkpt lat="48.14344" lon="11.50176">
        <ele>526.246075</ele>
        <time>2022-09-13T11:14:45.101Z</time>
      </trkpt>
      <trkpt lat="48.14345" lon="11.50167">
        <ele>526.27042</ele>
        <time>2022-09-13T11:14:46.991Z</time>
      </trkpt>
      <trkpt lat="48.14346" lon="11.50138">
        <ele>526.350513</ele>
        <time>2022-09-13T11:14:53.326Z</time>
      </trkpt>
      <trkpt lat="48.1436" lon="11.4996">
        <ele>527.671787</ele>
        <time>2022-09-13T11:15:34.164Z</time>
      </trkpt>
      <trkpt lat="48.14361" lon="11.49945">
        <ele>527.790061</ele>
        <time>2022-09-13T11:15:37.975Z</time>
      </trkpt>
      <trkpt lat="48.14365" lon="11.49904">
        <ele>528.091854</ele>
        <time>2022-09-13T11:15:46.999Z</time>
      </trkpt>
      <trkpt lat="48.14375" lon="11.49799">
        <ele>528.572021</ele>
        <time>2022-09-13T11:16:08.669Z</time>
      </trkpt>
      <trkpt lat="48.14383" lon="11.49715">
        <ele>528.836875</ele>
        <time>2022-09-13T11:16:26.156Z</time>
      </trkpt>
      <trkpt lat="48.14387" lon="11.49678">
        <ele>528.952296</ele>
        <time>2022-09-13T11:16:33.465Z</time>
      </trkpt>
      <trkpt lat="48.14391" lon="11.4963">
        <ele>529.102475</ele>
        <time>2022-09-13T11:16:42.822Z</time>
      </trkpt>
      <trkpt lat="48.14399" lon="11.4955">
        <ele>529.129623</ele>
        <time>2022-09-13T11:16:58.291Z</time>
      </trkpt>
      <trkpt lat="48.14431" lon="11.4923">
        <ele>528.566008</ele>
        <time>2022-09-13T11:17:55.741Z</time>
      </trkpt>
      <trkpt lat="48.14454" lon="11.48996">
        <ele>527.867385</ele>
        <time>2022-09-13T11:18:35.831Z</time>
      </trkpt>
      <trkpt lat="48.14456" lon="11.48973">
        <ele>527.803989</ele>
        <time>2022-09-13T11:18:39.663Z</time>
      </trkpt>
      <trkpt lat="48.14475" lon="11.48751">
        <ele>527.412846</ele>
        <time>2022-09-13T11:19:19.262Z</time>
      </trkpt>
      <trkpt lat="48.14493" lon="11.48541">
        <ele>527.709335</ele>
        <time>2022-09-13T11:20:00.228Z</time>
      </trkpt>
      <trkpt lat="48.14501" lon="11.4847">
        <ele>527.920552</ele>
        <time>2022-09-13T11:20:15.368Z</time>
      </trkpt>
      <trkpt lat="48.14502" lon="11.48463">
        <ele>527.943948</ele>
        <time>2022-09-13T11:20:16.837Z</time>
      </trkpt>
      <trkpt lat="48.14508" lon="11.48394">
        <ele>528.158226</ele>
        <time>2022-09-13T11:20:31.007Z</time>
      </trkpt>
      <trkpt lat="48.14515" lon="11.48309">
        <ele>528.422517</ele>
        <time>2022-09-13T11:20:48.341Z</time>
      </trkpt>
      <trkpt lat="48.14518" lon="11.4827">
        <ele>528.541914</ele>
        <time>2022-09-13T11:20:56.196Z</time>
      </trkpt>
      <trkpt lat="48.14519" lon="11.48252">
        <ele>528.556769</ele>
        <time>2022-09-13T11:20:59.792Z</time>
      </trkpt>
      <trkpt lat="48.1452" lon="11.48236">
        <ele>528.564665</ele>
        <time>2022-09-13T11:21:02.779Z</time>
      </trkpt>
      <trkpt lat="48.14527" lon="11.48046">
        <ele>528.659132</ele>
        <time>2022-09-13T11:21:37.675Z</time>
      </trkpt>
      <trkpt lat="48.14528" lon="11.48003">
        <ele>528.680741</ele>
        <time>2022-09-13T11:21:45.858Z</time>
      </trkpt>
      <trkpt lat="48.14528" lon="11.47995">
        <ele>528.687171</ele>
        <time>2022-09-13T11:21:47.490Z</time>
      </trkpt>
      <trkpt lat="48.14529" lon="11.4797">
        <ele>528.713394</ele>
        <time>2022-09-13T11:21:52.227Z</time>
      </trkpt>
      <trkpt lat="48.1453" lon="11.47953">
        <ele>528.732488</ele>
        <time>2022-09-13T11:21:55.546Z</time>
      </trkpt>
      <trkpt lat="48.14531" lon="11.4791">
        <ele>528.778021</ele>
        <time>2022-09-13T11:22:03.611Z</time>
      </trkpt>
      <trkpt lat="48.14532" lon="11.47877">
        <ele>528.814595</ele>
        <time>2022-09-13T11:22:10.103Z</time>
      </trkpt>
      <trkpt lat="48.14536" lon="11.47755">
        <ele>528.94561</ele>
        <time>2022-09-13T11:22:33.028Z</time>
      </trkpt>
      <trkpt lat="48.14537" lon="11.47736">
        <ele>528.965789</ele>
        <time>2022-09-13T11:22:36.416Z</time>
      </trkpt>
      <trkpt lat="48.14538" lon="11.4769">
        <ele>529.007357</ele>
        <time>2022-09-13T11:22:45.514Z</time>
      </trkpt>
      <trkpt lat="48.14538" lon="11.47677">
        <ele>529.018048</ele>
        <time>2022-09-13T11:22:47.841Z</time>
      </trkpt>
      <trkpt lat="48.14539" lon="11.47625">
        <ele>529.06261</ele>
        <time>2022-09-13T11:22:58.567Z</time>
      </trkpt>
      <trkpt lat="48.14543" lon="11.4754">
        <ele>529.135877</ele>
        <time>2022-09-13T11:23:16.107Z</time>
      </trkpt>
      <trkpt lat="48.14545" lon="11.47461">
        <ele>529.203118</ele>
        <time>2022-09-13T11:23:29.690Z</time>
      </trkpt>
      <trkpt lat="48.14548" lon="11.47368">
        <ele>528.925553</ele>
        <time>2022-09-13T11:23:45.505Z</time>
      </trkpt>
      <trkpt lat="48.14552" lon="11.47256">
        <ele>528.585789</ele>
        <time>2022-09-13T11:24:04.375Z</time>
      </trkpt>
      <trkpt lat="48.1456" lon="11.47217">
        <ele>528.465127</ele>
        <time>2022-09-13T11:24:11.702Z</time>
      </trkpt>
      <trkpt lat="48.14556" lon="11.47214">
        <ele>528.447417</ele>
        <time>2022-09-13T11:24:12.871Z</time>
      </trkpt>
      <trkpt lat="48.14552" lon="11.47209">
        <ele>528.42245</ele>
        <time>2022-09-13T11:24:14.378Z</time>
      </trkpt>
      <trkpt lat="48.14553" lon="11.47197">
        <ele>528.392443</ele>
        <time>2022-09-13T11:24:16.427Z</time>
      </trkpt>
      <trkpt lat="48.14554" lon="11.47187">
        <ele>528.398793</ele>
        <time>2022-09-13T11:24:18.280Z</time>
      </trkpt>
      <trkpt lat="48.14555" lon="11.47173">
        <ele>528.407347</ele>
        <time>2022-09-13T11:24:20.741Z</time>
      </trkpt>
      <trkpt lat="48.14556" lon="11.4716">
        <ele>528.414611</ele>
        <time>2022-09-13T11:24:22.972Z</time>
      </trkpt>
      <trkpt lat="48.14557" lon="11.47116">
        <ele>528.440787</ele>
        <time>2022-09-13T11:24:30.526Z</time>
      </trkpt>
      <trkpt lat="48.14559" lon="11.47027">
        <ele>528.493602</ele>
        <time>2022-09-13T11:24:47.261Z</time>
      </trkpt>
      <trkpt lat="48.14571" lon="11.46906">
        <ele>528.603059</ele>
        <time>2022-09-13T11:25:11.625Z</time>
      </trkpt>
      <trkpt lat="48.1458" lon="11.46844">
        <ele>528.731287</ele>
        <time>2022-09-13T11:25:24.456Z</time>
      </trkpt>
      <trkpt lat="48.1463" lon="11.46553">
        <ele>529.216068</ele>
        <time>2022-09-13T11:26:22.492Z</time>
      </trkpt>
      <trkpt lat="48.14632" lon="11.46546">
        <ele>529.222406</ele>
        <time>2022-09-13T11:26:23.803Z</time>
      </trkpt>
      <trkpt lat="48.14634" lon="11.4653">
        <ele>529.238332</ele>
        <time>2022-09-13T11:26:26.754Z</time>
      </trkpt>
      <trkpt lat="48.14635" lon="11.46511">
        <ele>529.256828</ele>
        <time>2022-09-13T11:26:30.004Z</time>
      </trkpt>
      <trkpt lat="48.14636" lon="11.46502">
        <ele>529.265489</ele>
        <time>2022-09-13T11:26:31.624Z</time>
      </trkpt>
      <trkpt lat="48.14639" lon="11.4648">
        <ele>529.287269</ele>
        <time>2022-09-13T11:26:35.936Z</time>
      </trkpt>
      <trkpt lat="48.14648" lon="11.46426">
        <ele>529.341133</ele>
        <time>2022-09-13T11:26:46.235Z</time>
      </trkpt>
      <trkpt lat="48.14663" lon="11.4633">
        <ele>529.584505</ele>
        <time>2022-09-13T11:27:05.196Z</time>
      </trkpt>
      <trkpt lat="48.14664" lon="11.46317">
        <ele>529.624733</ele>
        <time>2022-09-13T11:27:08.007Z</time>
      </trkpt>
      <trkpt lat="48.14666" lon="11.46294">
        <ele>529.689242</ele>
        <time>2022-09-13T11:27:12.438Z</time>
      </trkpt>
      <trkpt lat="48.14668" lon="11.46245">
        <ele>529.831654</ele>
        <time>2022-09-13T11:27:22.369Z</time>
      </trkpt>
      <trkpt lat="48.14668" lon="11.46241">
        <ele>529.84232</ele>
        <time>2022-09-13T11:27:23.099Z</time>
      </trkpt>
      <trkpt lat="48.14671" lon="11.46207">
        <ele>529.939787</ele>
        <time>2022-09-13T11:27:29.954Z</time>
      </trkpt>
      <trkpt lat="48.14674" lon="11.46166">
        <ele>530.057488</ele>
        <time>2022-09-13T11:27:38.454Z</time>
      </trkpt>
      <trkpt lat="48.14674" lon="11.46153">
        <ele>530.094443</ele>
        <time>2022-09-13T11:27:41.145Z</time>
      </trkpt>
      <trkpt lat="48.14674" lon="11.46133">
        <ele>530.153843</ele>
        <time>2022-09-13T11:27:45.450Z</time>
      </trkpt>
      <trkpt lat="48.14674" lon="11.4613">
        <ele>530.162654</ele>
        <time>2022-09-13T11:27:46.057Z</time>
      </trkpt>
      <trkpt lat="48.14672" lon="11.46121">
        <ele>530.191098</ele>
        <time>2022-09-13T11:27:48.002Z</time>
      </trkpt>
      <trkpt lat="48.14671" lon="11.46115">
        <ele>530.210409</ele>
        <time>2022-09-13T11:27:49.298Z</time>
      </trkpt>
      <trkpt lat="48.14663" lon="11.46118">
        <ele>530.251101</ele>
        <time>2022-09-13T11:27:52.693Z</time>
      </trkpt>
      <trkpt lat="48.14655" lon="11.46121">
        <ele>530.287578</ele>
        <time>2022-09-13T11:27:55.829Z</time>
      </trkpt>
      <trkpt lat="48.14655" lon="11.46068">
        <ele>530.449923</ele>
        <time>2022-09-13T11:28:07.068Z</time>
      </trkpt>
      <trkpt lat="48.14658" lon="11.46023">
        <ele>530.58604</ele>
        <time>2022-09-13T11:28:16.252Z</time>
      </trkpt>
      <trkpt lat="48.14659" lon="11.4601">
        <ele>530.624751</ele>
        <time>2022-09-13T11:28:18.931Z</time>
      </trkpt>
      <trkpt lat="48.14665" lon="11.45965">
        <ele>530.765193</ele>
        <time>2022-09-13T11:28:28.320Z</time>
      </trkpt>
      <trkpt lat="48.14668" lon="11.4596">
        <ele>530.785068</ele>
        <time>2022-09-13T11:28:29.967Z</time>
      </trkpt>
      <trkpt lat="48.1467" lon="11.45955">
        <ele>530.80299</ele>
        <time>2022-09-13T11:28:31.448Z</time>
      </trkpt>
      <trkpt lat="48.14682" lon="11.4591">
        <ele>530.949661</ele>
        <time>2022-09-13T11:28:43.289Z</time>
      </trkpt>
      <trkpt lat="48.1469" lon="11.45902">
        <ele>530.862964</ele>
        <time>2022-09-13T11:28:46.553Z</time>
      </trkpt>
      <trkpt lat="48.14693" lon="11.45888">
        <ele>530.778137</ele>
        <time>2022-09-13T11:28:49.760Z</time>
      </trkpt>
      <trkpt lat="48.147" lon="11.45842">
        <ele>530.498623</ele>
        <time>2022-09-13T11:28:57.265Z</time>
      </trkpt>
      <trkpt lat="48.14704" lon="11.45798">
        <ele>530.238016</ele>
        <time>2022-09-13T11:29:04.213Z</time>
      </trkpt>
      <trkpt lat="48.14709" lon="11.45706">
        <ele>529.68874</ele>
        <time>2022-09-13T11:29:18.167Z</time>
      </trkpt>
      <trkpt lat="48.14712" lon="11.4569">
        <ele>529.589207</ele>
        <time>2022-09-13T11:29:20.573Z</time>
      </trkpt>
      <trkpt lat="48.14713" lon="11.45663">
        <ele>529.43419</ele>
        <time>2022-09-13T11:29:24.500Z</time>
      </trkpt>
      <trkpt lat="48.14713" lon="11.45659">
        <ele>529.410492</ele>
        <time>2022-09-13T11:29:25.102Z</time>
      </trkpt>
      <trkpt lat="48.14713" lon="11.45656">
        <ele>529.387404</ele>
        <time>2022-09-13T11:29:25.703Z</time>
      </trkpt>
      <trkpt lat="48.14714" lon="11.45639">
        <ele>529.291229</ele>
        <time>2022-09-13T11:29:28.075Z</time>
      </trkpt>
      <trkpt lat="48.14714" lon="11.45628">
        <ele>529.229885</ele>
        <time>2022-09-13T11:29:29.628Z</time>
      </trkpt>
      <trkpt lat="48.14715" lon="11.45592">
        <ele>529.019425</ele>
        <time>2022-09-13T11:29:35.123Z</time>
      </trkpt>
      <trkpt lat="48.14708" lon="11.45384">
        <ele>527.815292</ele>
        <time>2022-09-13T11:30:07.770Z</time>
      </trkpt>
      <trkpt lat="48.14713" lon="11.45364">
        <ele>527.828051</ele>
        <time>2022-09-13T11:30:11.578Z</time>
      </trkpt>
      <trkpt lat="48.14709" lon="11.45357">
        <ele>527.844549</ele>
        <time>2022-09-13T11:30:13.247Z</time>
      </trkpt>
      <trkpt lat="48.14702" lon="11.45345">
        <ele>527.872581</ele>
        <time>2022-09-13T11:30:16.205Z</time>
      </trkpt>
      <trkpt lat="48.14701" lon="11.45331">
        <ele>527.897666</ele>
        <time>2022-09-13T11:30:18.875Z</time>
      </trkpt>
      <trkpt lat="48.14699" lon="11.45315">
        <ele>527.927315</ele>
        <time>2022-09-13T11:30:22.024Z</time>
      </trkpt>
      <trkpt lat="48.14703" lon="11.4531">
        <ele>527.940907</ele>
        <time>2022-09-13T11:30:23.456Z</time>
      </trkpt>
      <trkpt lat="48.14708" lon="11.45302">
        <ele>527.959459</ele>
        <time>2022-09-13T11:30:25.435Z</time>
      </trkpt>
      <trkpt lat="48.14693" lon="11.45267">
        <ele>528.03425</ele>
        <time>2022-09-13T11:30:33.546Z</time>
      </trkpt>
      <trkpt lat="48.14683" lon="11.45205">
        <ele>528.149755</ele>
        <time>2022-09-13T11:30:46.000Z</time>
      </trkpt>
      <trkpt lat="48.14677" lon="11.45169">
        <ele>528.216362</ele>
        <time>2022-09-13T11:30:53.262Z</time>
      </trkpt>
      <trkpt lat="48.14668" lon="11.45108">
        <ele>528.292514</ele>
        <time>2022-09-13T11:31:05.394Z</time>
      </trkpt>
      <trkpt lat="48.14664" lon="11.45079">
        <ele>528.305353</ele>
        <time>2022-09-13T11:31:11.074Z</time>
      </trkpt>
      <trkpt lat="48.14608" lon="11.44662">
        <ele>528.220713</ele>
        <time>2022-09-13T11:32:25.535Z</time>
      </trkpt>
      <trkpt lat="48.14607" lon="11.44654">
        <ele>528.213312</ele>
        <time>2022-09-13T11:32:27.028Z</time>
      </trkpt>
      <trkpt lat="48.14605" lon="11.44644">
        <ele>528.204897</ele>
        <time>2022-09-13T11:32:28.752Z</time>
      </trkpt>
      <trkpt lat="48.14599" lon="11.44598">
        <ele>528.168685</ele>
        <time>2022-09-13T11:32:36.853Z</time>
      </trkpt>
      <trkpt lat="48.14587" lon="11.44513">
        <ele>528.135426</ele>
        <time>2022-09-13T11:32:51.512Z</time>
      </trkpt>
      <trkpt lat="48.14579" lon="11.44453">
        <ele>528.11216</ele>
        <time>2022-09-13T11:33:02.040Z</time>
      </trkpt>
      <trkpt lat="48.14576" lon="11.4443">
        <ele>528.102974</ele>
        <time>2022-09-13T11:33:06.330Z</time>
      </trkpt>
      <trkpt lat="48.14564" lon="11.44344">
        <ele>528.069524</ele>
        <time>2022-09-13T11:33:22.485Z</time>
      </trkpt>
      <trkpt lat="48.14555" lon="11.44325">
        <ele>528.118526</ele>
        <time>2022-09-13T11:33:26.728Z</time>
      </trkpt>
      <trkpt lat="48.14556" lon="11.4431">
        <ele>528.155141</ele>
        <time>2022-09-13T11:33:29.435Z</time>
      </trkpt>
      <trkpt lat="48.14559" lon="11.44256">
        <ele>528.285994</ele>
        <time>2022-09-13T11:33:39.522Z</time>
      </trkpt>
      <trkpt lat="48.14562" lon="11.44194">
        <ele>528.435911</ele>
        <time>2022-09-13T11:33:51.130Z</time>
      </trkpt>
      <trkpt lat="48.14562" lon="11.4418">
        <ele>528.47064</ele>
        <time>2022-09-13T11:33:53.870Z</time>
      </trkpt>
      <trkpt lat="48.14565" lon="11.44124">
        <ele>528.605599</ele>
        <time>2022-09-13T11:34:04.499Z</time>
      </trkpt>
      <trkpt lat="48.14566" lon="11.44093">
        <ele>528.681533</ele>
        <time>2022-09-13T11:34:10.398Z</time>
      </trkpt>
      <trkpt lat="48.14565" lon="11.44071">
        <ele>528.748527</ele>
        <time>2022-09-13T11:34:14.877Z</time>
      </trkpt>
      <trkpt lat="48.14549" lon="11.44013">
        <ele>529.049925</ele>
        <time>2022-09-13T11:34:27.411Z</time>
      </trkpt>
      <trkpt lat="48.14511" lon="11.43937">
        <ele>529.508351</ele>
        <time>2022-09-13T11:34:46.919Z</time>
      </trkpt>
      <trkpt lat="48.14494" lon="11.43885">
        <ele>529.79091</ele>
        <time>2022-09-13T11:34:59.326Z</time>
      </trkpt>
      <trkpt lat="48.14488" lon="11.43852">
        <ele>529.954366</ele>
        <time>2022-09-13T11:35:06.416Z</time>
      </trkpt>
      <trkpt lat="48.14493" lon="11.43831">
        <ele>530.030778</ele>
        <time>2022-09-13T11:35:10.914Z</time>
      </trkpt>
      <trkpt lat="48.14473" lon="11.43689">
        <ele>530.191951</ele>
        <time>2022-09-13T11:35:37.647Z</time>
      </trkpt>
      <trkpt lat="48.1447" lon="11.43674">
        <ele>530.209814</ele>
        <time>2022-09-13T11:35:40.297Z</time>
      </trkpt>
      <trkpt lat="48.14469" lon="11.43664">
        <ele>530.221393</ele>
        <time>2022-09-13T11:35:42.249Z</time>
      </trkpt>
      <trkpt lat="48.14447" lon="11.43507">
        <ele>530.143466</ele>
        <time>2022-09-13T11:36:10.233Z</time>
      </trkpt>
      <trkpt lat="48.14445" lon="11.43489">
        <ele>530.094688</ele>
        <time>2022-09-13T11:36:13.369Z</time>
      </trkpt>
      <trkpt lat="48.14443" lon="11.43476">
        <ele>530.060237</ele>
        <time>2022-09-13T11:36:15.542Z</time>
      </trkpt>
      <trkpt lat="48.14443" lon="11.43474">
        <ele>530.055234</ele>
        <time>2022-09-13T11:36:15.853Z</time>
      </trkpt>
      <trkpt lat="48.14441" lon="11.4346">
        <ele>530.018623</ele>
        <time>2022-09-13T11:36:18.114Z</time>
      </trkpt>
      <trkpt lat="48.14439" lon="11.43448">
        <ele>529.988519</ele>
        <time>2022-09-13T11:36:20.044Z</time>
      </trkpt>
      <trkpt lat="48.1443" lon="11.43376">
        <ele>529.800792</ele>
        <time>2022-09-13T11:36:31.609Z</time>
      </trkpt>
      <trkpt lat="48.14412" lon="11.43249">
        <ele>529.729132</ele>
        <time>2022-09-13T11:36:53.578Z</time>
      </trkpt>
      <trkpt lat="48.14404" lon="11.43195">
        <ele>529.814492</ele>
        <time>2022-09-13T11:37:04.480Z</time>
      </trkpt>
      <trkpt lat="48.14402" lon="11.43178">
        <ele>529.841407</ele>
        <time>2022-09-13T11:37:07.762Z</time>
      </trkpt>
      <trkpt lat="48.14394" lon="11.43121">
        <ele>529.930535</ele>
        <time>2022-09-13T11:37:18.423Z</time>
      </trkpt>
      <trkpt lat="48.1438" lon="11.43026">
        <ele>530.184362</ele>
        <time>2022-09-13T11:37:37.293Z</time>
      </trkpt>
      <trkpt lat="48.14377" lon="11.43001">
        <ele>530.33826</ele>
        <time>2022-09-13T11:37:42.532Z</time>
      </trkpt>
      <trkpt lat="48.14361" lon="11.42884">
        <ele>531.065147</ele>
        <time>2022-09-13T11:38:07.818Z</time>
      </trkpt>
      <trkpt lat="48.14348" lon="11.42784">
        <ele>531.684276</ele>
        <time>2022-09-13T11:38:29.445Z</time>
      </trkpt>
      <trkpt lat="48.14338" lon="11.42709">
        <ele>532.022493</ele>
        <time>2022-09-13T11:38:45.054Z</time>
      </trkpt>
      <trkpt lat="48.14333" lon="11.42676">
        <ele>532.173678</ele>
        <time>2022-09-13T11:38:52.039Z</time>
      </trkpt>
      <trkpt lat="48.14321" lon="11.42591">
        <ele>532.558351</ele>
        <time>2022-09-13T11:39:09.720Z</time>
      </trkpt>
      <trkpt lat="48.1431" lon="11.42511">
        <ele>532.882591</ele>
        <time>2022-09-13T11:39:25.110Z</time>
      </trkpt>
      <trkpt lat="48.14298" lon="11.42424">
        <ele>532.883411</ele>
        <time>2022-09-13T11:39:40.700Z</time>
      </trkpt>
      <trkpt lat="48.14295" lon="11.42397">
        <ele>532.883664</ele>
        <time>2022-09-13T11:39:45.402Z</time>
      </trkpt>
      <trkpt lat="48.14293" lon="11.42387">
        <ele>532.883763</ele>
        <time>2022-09-13T11:39:47.258Z</time>
      </trkpt>
      <trkpt lat="48.14292" lon="11.42377">
        <ele>532.883855</ele>
        <time>2022-09-13T11:39:49.040Z</time>
      </trkpt>
      <trkpt lat="48.14291" lon="11.4237">
        <ele>532.883919</ele>
        <time>2022-09-13T11:39:50.307Z</time>
      </trkpt>
      <trkpt lat="48.14289" lon="11.42357">
        <ele>532.884041</ele>
        <time>2022-09-13T11:39:52.617Z</time>
      </trkpt>
      <trkpt lat="48.14275" lon="11.42263">
        <ele>532.884933</ele>
        <time>2022-09-13T11:40:10.044Z</time>
      </trkpt>
      <trkpt lat="48.1427" lon="11.42231">
        <ele>532.886501</ele>
        <time>2022-09-13T11:40:15.789Z</time>
      </trkpt>
      <trkpt lat="48.14263" lon="11.42177">
        <ele>532.889695</ele>
        <time>2022-09-13T11:40:25.327Z</time>
      </trkpt>
      <trkpt lat="48.14258" lon="11.42145">
        <ele>532.891587</ele>
        <time>2022-09-13T11:40:30.938Z</time>
      </trkpt>
      <trkpt lat="48.14247" lon="11.42062">
        <ele>532.896514</ele>
        <time>2022-09-13T11:40:45.511Z</time>
      </trkpt>
      <trkpt lat="48.14225" lon="11.41896">
        <ele>533.242711</ele>
        <time>2022-09-13T11:41:17.408Z</time>
      </trkpt>
      <trkpt lat="48.14216" lon="11.41831">
        <ele>533.474693</ele>
        <time>2022-09-13T11:41:30.628Z</time>
      </trkpt>
      <trkpt lat="48.14212" lon="11.41803">
        <ele>533.576121</ele>
        <time>2022-09-13T11:41:36.471Z</time>
      </trkpt>
      <trkpt lat="48.14193" lon="11.41666">
        <ele>533.760727</ele>
        <time>2022-09-13T11:42:04.433Z</time>
      </trkpt>
      <trkpt lat="48.14187" lon="11.41623">
        <ele>533.702876</ele>
        <time>2022-09-13T11:42:12.665Z</time>
      </trkpt>
      <trkpt lat="48.1418" lon="11.41574">
        <ele>533.637701</ele>
        <time>2022-09-13T11:42:21.395Z</time>
      </trkpt>
      <trkpt lat="48.14177" lon="11.41552">
        <ele>533.609006</ele>
        <time>2022-09-13T11:42:25.098Z</time>
      </trkpt>
      <trkpt lat="48.14174" lon="11.41527">
        <ele>533.575462</ele>
        <time>2022-09-13T11:42:29.228Z</time>
      </trkpt>
      <trkpt lat="48.14164" lon="11.41458">
        <ele>533.449111</ele>
        <time>2022-09-13T11:42:40.179Z</time>
      </trkpt>
      <trkpt lat="48.14162" lon="11.41441">
        <ele>533.332835</ele>
        <time>2022-09-13T11:42:42.806Z</time>
      </trkpt>
      <trkpt lat="48.14152" lon="11.41379">
        <ele>532.904778</ele>
        <time>2022-09-13T11:42:52.281Z</time>
      </trkpt>
      <trkpt lat="48.14146" lon="11.41343">
        <ele>532.655182</ele>
        <time>2022-09-13T11:42:57.839Z</time>
      </trkpt>
      <trkpt lat="48.14145" lon="11.41334">
        <ele>532.59541</ele>
        <time>2022-09-13T11:42:59.156Z</time>
      </trkpt>
      <trkpt lat="48.14144" lon="11.4133">
        <ele>532.571183</ele>
        <time>2022-09-13T11:42:59.682Z</time>
      </trkpt>
      <trkpt lat="48.14131" lon="11.41245">
        <ele>531.983042</ele>
        <time>2022-09-13T11:43:13.026Z</time>
      </trkpt>
      <trkpt lat="48.14127" lon="11.41174">
        <ele>531.760609</ele>
        <time>2022-09-13T11:43:24.594Z</time>
      </trkpt>
      <trkpt lat="48.14127" lon="11.41163">
        <ele>531.793523</ele>
        <time>2022-09-13T11:43:26.542Z</time>
      </trkpt>
      <trkpt lat="48.14124" lon="11.41141">
        <ele>531.855537</ele>
        <time>2022-09-13T11:43:30.309Z</time>
      </trkpt>
      <trkpt lat="48.14116" lon="11.41089">
        <ele>532.011674</ele>
        <time>2022-09-13T11:43:40.329Z</time>
      </trkpt>
      <trkpt lat="48.14095" lon="11.40933">
        <ele>532.468861</ele>
        <time>2022-09-13T11:44:13.716Z</time>
      </trkpt>
      <trkpt lat="48.14064" lon="11.40753">
        <ele>532.993012</ele>
        <time>2022-09-13T11:44:50.036Z</time>
      </trkpt>
      <trkpt lat="48.1406" lon="11.40732">
        <ele>533.053723</ele>
        <time>2022-09-13T11:44:54.092Z</time>
      </trkpt>
      <trkpt lat="48.14052" lon="11.4067">
        <ele>533.218564</ele>
        <time>2022-09-13T11:45:05.865Z</time>
      </trkpt>
      <trkpt lat="48.14014" lon="11.40403">
        <ele>533.175261</ele>
        <time>2022-09-13T11:45:53.197Z</time>
      </trkpt>
      <trkpt lat="48.14013" lon="11.40386">
        <ele>533.192109</ele>
        <time>2022-09-13T11:45:56.362Z</time>
      </trkpt>
      <trkpt lat="48.14012" lon="11.40376">
        <ele>533.202112</ele>
        <time>2022-09-13T11:45:58.248Z</time>
      </trkpt>
      <trkpt lat="48.13987" lon="11.40197">
        <ele>533.382459</ele>
        <time>2022-09-13T11:46:32.780Z</time>
      </trkpt>
      <trkpt lat="48.13947" lon="11.40044">
        <ele>533.477361</ele>
        <time>2022-09-13T11:47:01.339Z</time>
      </trkpt>
      <trkpt lat="48.13942" lon="11.40026">
        <ele>533.485123</ele>
        <time>2022-09-13T11:47:04.890Z</time>
      </trkpt>
      <trkpt lat="48.13941" lon="11.4002">
        <ele>533.487531</ele>
        <time>2022-09-13T11:47:05.920Z</time>
      </trkpt>
      <trkpt lat="48.13936" lon="11.4">
        <ele>533.495896</ele>
        <time>2022-09-13T11:47:09.653Z</time>
      </trkpt>
      <trkpt lat="48.13914" lon="11.39868">
        <ele>533.60092</ele>
        <time>2022-09-13T11:47:34.795Z</time>
      </trkpt>
      <trkpt lat="48.13908" lon="11.3985">
        <ele>533.64965</ele>
        <time>2022-09-13T11:47:38.357Z</time>
      </trkpt>
      <trkpt lat="48.13899" lon="11.39823">
        <ele>533.721631</ele>
        <time>2022-09-13T11:47:44.182Z</time>
      </trkpt>
      <trkpt lat="48.13862" lon="11.39765">
        <ele>533.912257</ele>
        <time>2022-09-13T11:47:58.731Z</time>
      </trkpt>
      <trkpt lat="48.13854" lon="11.39744">
        <ele>533.972432</ele>
        <time>2022-09-13T11:48:03.876Z</time>
      </trkpt>
      <trkpt lat="48.1383" lon="11.39665">
        <ele>534.178264</ele>
        <time>2022-09-13T11:48:20.709Z</time>
      </trkpt>
      <trkpt lat="48.13828" lon="11.39656">
        <ele>534.202911</ele>
        <time>2022-09-13T11:48:22.792Z</time>
      </trkpt>
      <trkpt lat="48.13807" lon="11.39552">
        <ele>534.480986</ele>
        <time>2022-09-13T11:48:43.717Z</time>
      </trkpt>
      <trkpt lat="48.13719" lon="11.39304">
        <ele>535.192314</ele>
        <time>2022-09-13T11:49:35.953Z</time>
      </trkpt>
      <trkpt lat="48.13698" lon="11.39249">
        <ele>535.352101</ele>
        <time>2022-09-13T11:49:48.289Z</time>
      </trkpt>
      <trkpt lat="48.13683" lon="11.39212">
        <ele>535.46296</ele>
        <time>2022-09-13T11:49:56.928Z</time>
      </trkpt>
      <trkpt lat="48.13659" lon="11.39134">
        <ele>535.72014</ele>
        <time>2022-09-13T11:50:13.728Z</time>
      </trkpt>
      <trkpt lat="48.13641" lon="11.3907">
        <ele>535.95341</ele>
        <time>2022-09-13T11:50:27.225Z</time>
      </trkpt>
      <trkpt lat="48.1363" lon="11.39042">
        <ele>536.063065</ele>
        <time>2022-09-13T11:50:33.512Z</time>
      </trkpt>
      <trkpt lat="48.13599" lon="11.38934">
        <ele>536.457276</ele>
        <time>2022-09-13T11:50:56.074Z</time>
      </trkpt>
      <trkpt lat="48.13594" lon="11.38895">
        <ele>536.631826</ele>
        <time>2022-09-13T11:51:03.717Z</time>
      </trkpt>
      <trkpt lat="48.1359" lon="11.38896">
        <ele>536.656631</ele>
        <time>2022-09-13T11:51:04.850Z</time>
      </trkpt>
      <trkpt lat="48.13586" lon="11.38896">
        <ele>536.682744</ele>
        <time>2022-09-13T11:51:06.035Z</time>
      </trkpt>
      <trkpt lat="48.13582" lon="11.38876">
        <ele>536.778657</ele>
        <time>2022-09-13T11:51:10.195Z</time>
      </trkpt>
      <trkpt lat="48.13573" lon="11.3885">
        <ele>536.904973</ele>
        <time>2022-09-13T11:51:15.896Z</time>
      </trkpt>
      <trkpt lat="48.13544" lon="11.38753">
        <ele>537.381631</ele>
        <time>2022-09-13T11:51:37.487Z</time>
      </trkpt>
      <trkpt lat="48.1352" lon="11.38673">
        <ele>537.742162</ele>
        <time>2022-09-13T11:51:55.156Z</time>
      </trkpt>
      <trkpt lat="48.13498" lon="11.38604">
        <ele>537.986354</ele>
        <time>2022-09-13T11:52:10.434Z</time>
      </trkpt>
      <trkpt lat="48.13492" lon="11.38584">
        <ele>538.057114</ele>
        <time>2022-09-13T11:52:14.829Z</time>
      </trkpt>
      <trkpt lat="48.13485" lon="11.38563">
        <ele>538.129149</ele>
        <time>2022-09-13T11:52:19.306Z</time>
      </trkpt>
      <trkpt lat="48.13408" lon="11.38313">
        <ele>538.722822</ele>
        <time>2022-09-13T11:53:10.475Z</time>
      </trkpt>
      <trkpt lat="48.1338" lon="11.38222">
        <ele>538.854127</ele>
        <time>2022-09-13T11:53:28.567Z</time>
      </trkpt>
      <trkpt lat="48.13354" lon="11.38125">
        <ele>539.107508</ele>
        <time>2022-09-13T11:53:47.887Z</time>
      </trkpt>
      <trkpt lat="48.1335" lon="11.38105">
        <ele>539.162831</ele>
        <time>2022-09-13T11:53:51.969Z</time>
      </trkpt>
      <trkpt lat="48.13349" lon="11.381">
        <ele>539.17575</ele>
        <time>2022-09-13T11:53:52.888Z</time>
      </trkpt>
      <trkpt lat="48.1334" lon="11.38059">
        <ele>539.290406</ele>
        <time>2022-09-13T11:54:01.427Z</time>
      </trkpt>
      <trkpt lat="48.13328" lon="11.37987">
        <ele>539.485045</ele>
        <time>2022-09-13T11:54:16.274Z</time>
      </trkpt>
      <trkpt lat="48.1332" lon="11.37921">
        <ele>539.563877</ele>
        <time>2022-09-13T11:54:29.345Z</time>
      </trkpt>
      <trkpt lat="48.13319" lon="11.37913">
        <ele>539.559497</ele>
        <time>2022-09-13T11:54:30.896Z</time>
      </trkpt>
      <trkpt lat="48.13318" lon="11.3779">
        <ele>539.489237</ele>
        <time>2022-09-13T11:54:53.056Z</time>
      </trkpt>
      <trkpt lat="48.13308" lon="11.37654">
        <ele>539.350974</ele>
        <time>2022-09-13T11:55:15.509Z</time>
      </trkpt>
      <trkpt lat="48.13306" lon="11.37583">
        <ele>539.163565</ele>
        <time>2022-09-13T11:55:26.804Z</time>
      </trkpt>
      <trkpt lat="48.13299" lon="11.37532">
        <ele>539.02514</ele>
        <time>2022-09-13T11:55:35.138Z</time>
      </trkpt>
      <trkpt lat="48.1329" lon="11.37485">
        <ele>538.895532</ele>
        <time>2022-09-13T11:55:43.115Z</time>
      </trkpt>
      <trkpt lat="48.13289" lon="11.3748">
        <ele>538.880653</ele>
        <time>2022-09-13T11:55:44.056Z</time>
      </trkpt>
      <trkpt lat="48.13228" lon="11.37221">
        <ele>539.034496</ele>
        <time>2022-09-13T11:56:34.243Z</time>
      </trkpt>
      <trkpt lat="48.13205" lon="11.37104">
        <ele>539.265688</ele>
        <time>2022-09-13T11:56:58.279Z</time>
      </trkpt>
      <trkpt lat="48.13204" lon="11.37098">
        <ele>539.279603</ele>
        <time>2022-09-13T11:56:59.505Z</time>
      </trkpt>
      <trkpt lat="48.132" lon="11.37079">
        <ele>539.323462</ele>
        <time>2022-09-13T11:57:03.338Z</time>
      </trkpt>
      <trkpt lat="48.13195" lon="11.37054">
        <ele>539.381964</ele>
        <time>2022-09-13T11:57:08.405Z</time>
      </trkpt>
      <trkpt lat="48.13189" lon="11.37027">
        <ele>539.443662</ele>
        <time>2022-09-13T11:57:13.720Z</time>
      </trkpt>
      <trkpt lat="48.1319" lon="11.3701">
        <ele>539.482711</ele>
        <time>2022-09-13T11:57:17.076Z</time>
      </trkpt>
      <trkpt lat="48.13178" lon="11.36947">
        <ele>539.628611</ele>
        <time>2022-09-13T11:57:29.415Z</time>
      </trkpt>
      <trkpt lat="48.13149" lon="11.36766">
        <ele>539.584104</ele>
        <time>2022-09-13T11:58:02.456Z</time>
      </trkpt>
      <trkpt lat="48.13141" lon="11.36714">
        <ele>539.531783</ele>
        <time>2022-09-13T11:58:11.486Z</time>
      </trkpt>
      <trkpt lat="48.13134" lon="11.36678">
        <ele>539.495429</ele>
        <time>2022-09-13T11:58:17.587Z</time>
      </trkpt>
      <trkpt lat="48.13115" lon="11.36563">
        <ele>539.464223</ele>
        <time>2022-09-13T11:58:37.756Z</time>
      </trkpt>
      <trkpt lat="48.1311" lon="11.36529">
        <ele>539.465535</ele>
        <time>2022-09-13T11:58:43.916Z</time>
      </trkpt>
      <trkpt lat="48.131" lon="11.36498">
        <ele>539.466801</ele>
        <time>2022-09-13T11:58:49.879Z</time>
      </trkpt>
      <trkpt lat="48.13098" lon="11.36486">
        <ele>539.467274</ele>
        <time>2022-09-13T11:58:52.154Z</time>
      </trkpt>
      <trkpt lat="48.13097" lon="11.36478">
        <ele>539.467579</ele>
        <time>2022-09-13T11:58:53.627Z</time>
      </trkpt>
      <trkpt lat="48.13095" lon="11.3647">
        <ele>539.467905</ele>
        <time>2022-09-13T11:58:55.160Z</time>
      </trkpt>
      <trkpt lat="48.13093" lon="11.36458">
        <ele>539.468384</ele>
        <time>2022-09-13T11:58:57.431Z</time>
      </trkpt>
      <trkpt lat="48.13093" lon="11.36423">
        <ele>539.46967</ele>
        <time>2022-09-13T11:59:03.866Z</time>
      </trkpt>
      <trkpt lat="48.13088" lon="11.36411">
        <ele>539.470217</ele>
        <time>2022-09-13T11:59:06.490Z</time>
      </trkpt>
      <trkpt lat="48.13086" lon="11.36397">
        <ele>539.470746</ele>
        <time>2022-09-13T11:59:09.161Z</time>
      </trkpt>
      <trkpt lat="48.13078" lon="11.36351">
        <ele>539.629195</ele>
        <time>2022-09-13T11:59:18.268Z</time>
      </trkpt>
      <trkpt lat="48.13058" lon="11.36276">
        <ele>539.986047</ele>
        <time>2022-09-13T11:59:33.834Z</time>
      </trkpt>
      <trkpt lat="48.13056" lon="11.3627">
        <ele>540.019171</ele>
        <time>2022-09-13T11:59:35.289Z</time>
      </trkpt>
      <trkpt lat="48.13007" lon="11.36126">
        <ele>540.741584</ele>
        <time>2022-09-13T12:00:08.522Z</time>
      </trkpt>
      <trkpt lat="48.1297" lon="11.36042">
        <ele>541.209377</ele>
        <time>2022-09-13T12:00:29.033Z</time>
      </trkpt>
      <trkpt lat="48.12966" lon="11.36034">
        <ele>541.254805</ele>
        <time>2022-09-13T12:00:31.034Z</time>
      </trkpt>
      <trkpt lat="48.12943" lon="11.35997">
        <ele>541.488343</ele>
        <time>2022-09-13T12:00:41.222Z</time>
      </trkpt>
      <trkpt lat="48.12927" lon="11.35971">
        <ele>541.655308</ele>
        <time>2022-09-13T12:00:48.596Z</time>
      </trkpt>
      <trkpt lat="48.12829" lon="11.35806">
        <ele>542.078635</ele>
        <time>2022-09-13T12:01:30.902Z</time>
      </trkpt>
      <trkpt lat="48.12805" lon="11.35746">
        <ele>542.143172</ele>
        <time>2022-09-13T12:01:42.762Z</time>
      </trkpt>
      <trkpt lat="48.12804" lon="11.35722">
        <ele>542.166398</ele>
        <time>2022-09-13T12:01:46.923Z</time>
      </trkpt>
      <trkpt lat="48.12794" lon="11.3571">
        <ele>542.162143</ele>
        <time>2022-09-13T12:01:50.288Z</time>
      </trkpt>
      <trkpt lat="48.12777" lon="11.35706">
        <ele>542.103275</ele>
        <time>2022-09-13T12:01:54.528Z</time>
      </trkpt>
      <trkpt lat="48.12761" lon="11.35687">
        <ele>542.030682</ele>
        <time>2022-09-13T12:01:59.680Z</time>
      </trkpt>
      <trkpt lat="48.12741" lon="11.3565">
        <ele>541.918969</ele>
        <time>2022-09-13T12:02:07.573Z</time>
      </trkpt>
      <trkpt lat="48.12668" lon="11.35482">
        <ele>541.541694</ele>
        <time>2022-09-13T12:02:41.268Z</time>
      </trkpt>
      <trkpt lat="48.12662" lon="11.35467">
        <ele>541.540855</ele>
        <time>2022-09-13T12:02:44.181Z</time>
      </trkpt>
      <trkpt lat="48.12642" lon="11.35419">
        <ele>541.538087</ele>
        <time>2022-09-13T12:02:54.097Z</time>
      </trkpt>
      <trkpt lat="48.12594" lon="11.35307">
        <ele>541.531532</ele>
        <time>2022-09-13T12:03:18.115Z</time>
      </trkpt>
      <trkpt lat="48.12509" lon="11.35102">
        <ele>542.19338</ele>
        <time>2022-09-13T12:04:04.520Z</time>
      </trkpt>
      <trkpt lat="48.12503" lon="11.35088">
        <ele>542.241929</ele>
        <time>2022-09-13T12:04:07.727Z</time>
      </trkpt>
      <trkpt lat="48.12401" lon="11.34842">
        <ele>543.380062</ele>
        <time>2022-09-13T12:05:05.417Z</time>
      </trkpt>
      <trkpt lat="48.12368" lon="11.3478">
        <ele>543.655859</ele>
        <time>2022-09-13T12:05:20.657Z</time>
      </trkpt>
      <trkpt lat="48.12352" lon="11.3475">
        <ele>543.791825</ele>
        <time>2022-09-13T12:05:28.262Z</time>
      </trkpt>
      <trkpt lat="48.12197" lon="11.34524">
        <ele>544.896404</ele>
        <time>2022-09-13T12:06:30.996Z</time>
      </trkpt>
      <trkpt lat="48.11909" lon="11.34157">
        <ele>546.915559</ele>
        <time>2022-09-13T12:08:20.917Z</time>
      </trkpt>
      <trkpt lat="48.11771" lon="11.33933">
        <ele>548.548368</ele>
        <time>2022-09-13T12:09:22.945Z</time>
      </trkpt>
      <trkpt lat="48.1169" lon="11.33812">
        <ele>550.054658</ele>
        <time>2022-09-13T12:10:00.334Z</time>
      </trkpt>
      <trkpt lat="48.11658" lon="11.3377">
        <ele>550.681878</ele>
        <time>2022-09-13T12:10:14.932Z</time>
      </trkpt>
      <trkpt lat="48.11515" lon="11.33612">
        <ele>554.083249</ele>
        <time>2022-09-13T12:11:17.584Z</time>
      </trkpt>
      <trkpt lat="48.11468" lon="11.33567">
        <ele>555.272575</ele>
        <time>2022-09-13T12:11:38.390Z</time>
      </trkpt>
      <trkpt lat="48.11293" lon="11.33336">
        <ele>564.817442</ele>
        <time>2022-09-13T12:13:22.215Z</time>
      </trkpt>
      <trkpt lat="48.11108" lon="11.33036">
        <ele>579.380452</ele>
        <time>2022-09-13T12:16:04.115Z</time>
      </trkpt>
      <trkpt lat="48.1098" lon="11.32828">
        <ele>579.142648</ele>
        <time>2022-09-13T12:16:47.510Z</time>
      </trkpt>
      <trkpt lat="48.1091" lon="11.32699">
        <ele>576.378346</ele>
        <time>2022-09-13T12:17:08.636Z</time>
      </trkpt>
      <trkpt lat="48.10896" lon="11.32669">
        <ele>575.686884</ele>
        <time>2022-09-13T12:17:13.383Z</time>
      </trkpt>
      <trkpt lat="48.10886" lon="11.32647">
        <ele>575.174988</ele>
        <time>2022-09-13T12:17:16.925Z</time>
      </trkpt>
      <trkpt lat="48.10884" lon="11.32642">
        <ele>575.068781</ele>
        <time>2022-09-13T12:17:17.662Z</time>
      </trkpt>
      <trkpt lat="48.10865" lon="11.32595">
        <ele>574.015933</ele>
        <time>2022-09-13T12:17:25.164Z</time>
      </trkpt>
      <trkpt lat="48.10863" lon="11.32591">
        <ele>573.91433</ele>
        <time>2022-09-13T12:17:25.902Z</time>
      </trkpt>
      <trkpt lat="48.108" lon="11.32401">
        <ele>572.176803</ele>
        <time>2022-09-13T12:17:59.011Z</time>
      </trkpt>
      <trkpt lat="48.10776" lon="11.32315">
        <ele>571.406484</ele>
        <time>2022-09-13T12:18:13.529Z</time>
      </trkpt>
      <trkpt lat="48.10775" lon="11.32305">
        <ele>571.30422</ele>
        <time>2022-09-13T12:18:15.027Z</time>
      </trkpt>
      <trkpt lat="48.107" lon="11.32089">
        <ele>568.769625</ele>
        <time>2022-09-13T12:18:50.424Z</time>
      </trkpt>
      <trkpt lat="48.10693" lon="11.32044">
        <ele>568.17173</ele>
        <time>2022-09-13T12:18:56.916Z</time>
      </trkpt>
      <trkpt lat="48.10692" lon="11.32031">
        <ele>567.998413</ele>
        <time>2022-09-13T12:18:58.799Z</time>
      </trkpt>
      <trkpt lat="48.1069" lon="11.32022">
        <ele>567.885629</ele>
        <time>2022-09-13T12:19:00.049Z</time>
      </trkpt>
      <trkpt lat="48.10715" lon="11.31881">
        <ele>566.003446</ele>
        <time>2022-09-13T12:19:20.604Z</time>
      </trkpt>
      <trkpt lat="48.10747" lon="11.31741">
        <ele>564.536511</ele>
        <time>2022-09-13T12:19:41.778Z</time>
      </trkpt>
      <trkpt lat="48.10787" lon="11.31509">
        <ele>562.740092</ele>
        <time>2022-09-13T12:20:18.826Z</time>
      </trkpt>
      <trkpt lat="48.10787" lon="11.31467">
        <ele>562.534297</ele>
        <time>2022-09-13T12:20:25.628Z</time>
      </trkpt>
      <trkpt lat="48.10773" lon="11.314">
        <ele>562.186686</ele>
        <time>2022-09-13T12:20:36.901Z</time>
      </trkpt>
      <trkpt lat="48.10782" lon="11.31266">
        <ele>561.649185</ele>
        <time>2022-09-13T12:20:58.786Z</time>
      </trkpt>
      <trkpt lat="48.10777" lon="11.31237">
        <ele>561.575442</ele>
        <time>2022-09-13T12:21:03.664Z</time>
      </trkpt>
      <trkpt lat="48.10774" lon="11.312">
        <ele>561.484742</ele>
        <time>2022-09-13T12:21:09.709Z</time>
      </trkpt>
      <trkpt lat="48.10734" lon="11.31085">
        <ele>561.169175</ele>
        <time>2022-09-13T12:21:31.461Z</time>
      </trkpt>
      <trkpt lat="48.10725" lon="11.31044">
        <ele>561.181797</ele>
        <time>2022-09-13T12:21:39.161Z</time>
      </trkpt>
      <trkpt lat="48.10715" lon="11.31009">
        <ele>561.313446</ele>
        <time>2022-09-13T12:21:46.132Z</time>
      </trkpt>
      <trkpt lat="48.10678" lon="11.30933">
        <ele>561.642532</ele>
        <time>2022-09-13T12:22:05.030Z</time>
      </trkpt>
      <trkpt lat="48.10625" lon="11.30829">
        <ele>562.096747</ele>
        <time>2022-09-13T12:22:31.187Z</time>
      </trkpt>
      <trkpt lat="48.10614" lon="11.30818">
        <ele>562.161983</ele>
        <time>2022-09-13T12:22:35.606Z</time>
      </trkpt>
      <trkpt lat="48.1061" lon="11.30807">
        <ele>562.200167</ele>
        <time>2022-09-13T12:22:38.001Z</time>
      </trkpt>
      <trkpt lat="48.10612" lon="11.30801">
        <ele>562.220823</ele>
        <time>2022-09-13T12:22:39.387Z</time>
      </trkpt>
      <trkpt lat="48.10594" lon="11.30776">
        <ele>562.338454</ele>
        <time>2022-09-13T12:22:47.290Z</time>
      </trkpt>
      <trkpt lat="48.1054" lon="11.30686">
        <ele>562.725057</ele>
        <time>2022-09-13T12:23:11.101Z</time>
      </trkpt>
      <trkpt lat="48.10525" lon="11.30652">
        <ele>562.85721</ele>
        <time>2022-09-13T12:23:18.680Z</time>
      </trkpt>
      <trkpt lat="48.10527" lon="11.30622">
        <ele>562.89659</ele>
        <time>2022-09-13T12:23:23.770Z</time>
      </trkpt>
      <trkpt lat="48.106" lon="11.30505">
        <ele>562.586669</ele>
        <time>2022-09-13T12:23:51.199Z</time>
      </trkpt>
      <trkpt lat="48.10615" lon="11.30489">
        <ele>562.53447</ele>
        <time>2022-09-13T12:23:55.726Z</time>
      </trkpt>
      <trkpt lat="48.1062" lon="11.30481">
        <ele>562.511721</ele>
        <time>2022-09-13T12:23:57.676Z</time>
      </trkpt>
      <trkpt lat="48.10628" lon="11.3047">
        <ele>562.481119</ele>
        <time>2022-09-13T12:24:00.363Z</time>
      </trkpt>
      <trkpt lat="48.10634" lon="11.30464">
        <ele>562.459741</ele>
        <time>2022-09-13T12:24:02.182Z</time>
      </trkpt>
      <trkpt lat="48.10648" lon="11.30444">
        <ele>562.404263</ele>
        <time>2022-09-13T12:24:06.832Z</time>
      </trkpt>
      <trkpt lat="48.10657" lon="11.30427">
        <ele>562.353908</ele>
        <time>2022-09-13T12:24:10.383Z</time>
      </trkpt>
      <trkpt lat="48.10651" lon="11.30419">
        <ele>562.324879</ele>
        <time>2022-09-13T12:24:12.316Z</time>
      </trkpt>
      <trkpt lat="48.10648" lon="11.30415">
        <ele>562.311351</ele>
        <time>2022-09-13T12:24:13.203Z</time>
      </trkpt>
      <trkpt lat="48.10652" lon="11.30401">
        <ele>562.275223</ele>
        <time>2022-09-13T12:24:15.633Z</time>
      </trkpt>
      <trkpt lat="48.10659" lon="11.3039">
        <ele>562.238472</ele>
        <time>2022-09-13T12:24:18.160Z</time>
      </trkpt>
      <trkpt lat="48.10665" lon="11.3038">
        <ele>562.205611</ele>
        <time>2022-09-13T12:24:20.388Z</time>
      </trkpt>
      <trkpt lat="48.10604" lon="11.30258">
        <ele>561.837307</ele>
        <time>2022-09-13T12:24:45.945Z</time>
      </trkpt>
      <trkpt lat="48.10557" lon="11.30159">
        <ele>561.900173</ele>
        <time>2022-09-13T12:25:07.575Z</time>
      </trkpt>
      <trkpt lat="48.10547" lon="11.30139">
        <ele>561.945851</ele>
        <time>2022-09-13T12:25:12.167Z</time>
      </trkpt>
      <trkpt lat="48.10487" lon="11.30018">
        <ele>562.214687</ele>
        <time>2022-09-13T12:25:41.029Z</time>
      </trkpt>
      <trkpt lat="48.10451" lon="11.29945">
        <ele>562.613165</ele>
        <time>2022-09-13T12:25:59.286Z</time>
      </trkpt>
      <trkpt lat="48.10395" lon="11.29835">
        <ele>563.268065</ele>
        <time>2022-09-13T12:26:27.524Z</time>
      </trkpt>
      <trkpt lat="48.10347" lon="11.29739">
        <ele>563.812392</ele>
        <time>2022-09-13T12:26:51.280Z</time>
      </trkpt>
      <trkpt lat="48.10304" lon="11.29655">
        <ele>564.283681</ele>
        <time>2022-09-13T12:27:12.209Z</time>
      </trkpt>
      <trkpt lat="48.103" lon="11.29649">
        <ele>564.324907</ele>
        <time>2022-09-13T12:27:14.048Z</time>
      </trkpt>
      <trkpt lat="48.10252" lon="11.29559">
        <ele>564.856342</ele>
        <time>2022-09-13T12:27:36.933Z</time>
      </trkpt>
      <trkpt lat="48.10238" lon="11.29533">
        <ele>565.029739</ele>
        <time>2022-09-13T12:27:43.751Z</time>
      </trkpt>
      <trkpt lat="48.10196" lon="11.29467">
        <ele>565.500715</ele>
        <time>2022-09-13T12:28:02.309Z</time>
      </trkpt>
      <trkpt lat="48.10192" lon="11.29458">
        <ele>565.556813</ele>
        <time>2022-09-13T12:28:04.506Z</time>
      </trkpt>
      <trkpt lat="48.10185" lon="11.29447">
        <ele>565.633457</ele>
        <time>2022-09-13T12:28:07.534Z</time>
      </trkpt>
      <trkpt lat="48.10178" lon="11.29434">
        <ele>565.722911</ele>
        <time>2022-09-13T12:28:11.092Z</time>
      </trkpt>
      <trkpt lat="48.10175" lon="11.29429">
        <ele>565.753673</ele>
        <time>2022-09-13T12:28:12.302Z</time>
      </trkpt>
      <trkpt lat="48.10072" lon="11.29265">
        <ele>566.812569</ele>
        <time>2022-09-13T12:28:58.292Z</time>
      </trkpt>
      <trkpt lat="48.10055" lon="11.29239">
        <ele>566.978124</ele>
        <time>2022-09-13T12:29:05.549Z</time>
      </trkpt>
      <trkpt lat="48.09944" lon="11.29062">
        <ele>567.795194</ele>
        <time>2022-09-13T12:29:52.073Z</time>
      </trkpt>
      <trkpt lat="48.09941" lon="11.29057">
        <ele>567.813474</ele>
        <time>2022-09-13T12:29:53.215Z</time>
      </trkpt>
      <trkpt lat="48.09916" lon="11.29016">
        <ele>567.971863</ele>
        <time>2022-09-13T12:30:03.829Z</time>
      </trkpt>
      <trkpt lat="48.0989" lon="11.28973">
        <ele>568.185558</ele>
        <time>2022-09-13T12:30:15.194Z</time>
      </trkpt>
      <trkpt lat="48.09874" lon="11.28947">
        <ele>568.355584</ele>
        <time>2022-09-13T12:30:21.979Z</time>
      </trkpt>
      <trkpt lat="48.09861" lon="11.28927">
        <ele>568.492662</ele>
        <time>2022-09-13T12:30:27.359Z</time>
      </trkpt>
      <trkpt lat="48.09857" lon="11.2892">
        <ele>568.539287</ele>
        <time>2022-09-13T12:30:29.274Z</time>
      </trkpt>
      <trkpt lat="48.0985" lon="11.28908">
        <ele>568.618617</ele>
        <time>2022-09-13T12:30:32.493Z</time>
      </trkpt>
      <trkpt lat="48.09823" lon="11.28866">
        <ele>568.905048</ele>
        <time>2022-09-13T12:30:44.356Z</time>
      </trkpt>
      <trkpt lat="48.09792" lon="11.28817">
        <ele>569.231202</ele>
        <time>2022-09-13T12:30:58.311Z</time>
      </trkpt>
      <trkpt lat="48.09763" lon="11.28783">
        <ele>569.475572</ele>
        <time>2022-09-13T12:31:09.991Z</time>
      </trkpt>
      <trkpt lat="48.09758" lon="11.28778">
        <ele>569.504113</ele>
        <time>2022-09-13T12:31:11.647Z</time>
      </trkpt>
      <trkpt lat="48.09742" lon="11.28761">
        <ele>569.61012</ele>
        <time>2022-09-13T12:31:17.843Z</time>
      </trkpt>
      <trkpt lat="48.09706" lon="11.28721">
        <ele>569.84179</ele>
        <time>2022-09-13T12:31:31.276Z</time>
      </trkpt>
      <trkpt lat="48.09664" lon="11.2868">
        <ele>570.104927</ele>
        <time>2022-09-13T12:31:45.742Z</time>
      </trkpt>
      <trkpt lat="48.0966" lon="11.28675">
        <ele>570.135565</ele>
        <time>2022-09-13T12:31:47.380Z</time>
      </trkpt>
      <trkpt lat="48.09636" lon="11.28648">
        <ele>570.292119</ele>
        <time>2022-09-13T12:31:55.703Z</time>
      </trkpt>
      <trkpt lat="48.09587" lon="11.28595">
        <ele>570.349307</ele>
        <time>2022-09-13T12:32:11.611Z</time>
      </trkpt>
      <trkpt lat="48.09558" lon="11.28561">
        <ele>570.355262</ele>
        <time>2022-09-13T12:32:21.439Z</time>
      </trkpt>
      <trkpt lat="48.09482" lon="11.28474">
        <ele>570.390286</ele>
        <time>2022-09-13T12:32:46.894Z</time>
      </trkpt>
      <trkpt lat="48.09464" lon="11.28481">
        <ele>570.498651</ele>
        <time>2022-09-13T12:32:51.733Z</time>
      </trkpt>
      <trkpt lat="48.09457" lon="11.28484">
        <ele>570.536505</ele>
        <time>2022-09-13T12:32:53.404Z</time>
      </trkpt>
      <trkpt lat="48.0945" lon="11.28479">
        <ele>570.580979</ele>
        <time>2022-09-13T12:32:55.455Z</time>
      </trkpt>
      <trkpt lat="48.09441" lon="11.28471">
        <ele>570.642053</ele>
        <time>2022-09-13T12:32:58.437Z</time>
      </trkpt>
      <trkpt lat="48.09429" lon="11.28454">
        <ele>570.737007</ele>
        <time>2022-09-13T12:33:02.776Z</time>
      </trkpt>
      <trkpt lat="48.09394" lon="11.2836">
        <ele>571.147775</ele>
        <time>2022-09-13T12:33:24.296Z</time>
      </trkpt>
      <trkpt lat="48.09369" lon="11.2831">
        <ele>571.384769</ele>
        <time>2022-09-13T12:33:37.708Z</time>
      </trkpt>
      <trkpt lat="48.09356" lon="11.28287">
        <ele>571.62297</ele>
        <time>2022-09-13T12:33:44.718Z</time>
      </trkpt>
      <trkpt lat="48.09309" lon="11.28197">
        <ele>572.576929</ele>
        <time>2022-09-13T12:34:10.023Z</time>
      </trkpt>
      <trkpt lat="48.09265" lon="11.28113">
        <ele>573.465708</ele>
        <time>2022-09-13T12:34:33.229Z</time>
      </trkpt>
      <trkpt lat="48.09234" lon="11.28063">
        <ele>573.909955</ele>
        <time>2022-09-13T12:34:48.039Z</time>
      </trkpt>
      <trkpt lat="48.0923" lon="11.2806">
        <ele>573.943266</ele>
        <time>2022-09-13T12:34:49.331Z</time>
      </trkpt>
      <trkpt lat="48.09222" lon="11.28051">
        <ele>574.027388</ele>
        <time>2022-09-13T12:34:52.591Z</time>
      </trkpt>
      <trkpt lat="48.0916" lon="11.27997">
        <ele>574.632546</ele>
        <time>2022-09-13T12:35:15.568Z</time>
      </trkpt>
      <trkpt lat="48.09157" lon="11.27995">
        <ele>574.659385</ele>
        <time>2022-09-13T12:35:16.496Z</time>
      </trkpt>
      <trkpt lat="48.09155" lon="11.27993">
        <ele>574.681948</ele>
        <time>2022-09-13T12:35:17.296Z</time>
      </trkpt>
      <trkpt lat="48.0912" lon="11.27971">
        <ele>575.000798</ele>
        <time>2022-09-13T12:35:28.556Z</time>
      </trkpt>
      <trkpt lat="48.09097" lon="11.27976">
        <ele>575.176233</ele>
        <time>2022-09-13T12:35:34.862Z</time>
      </trkpt>
      <trkpt lat="48.09061" lon="11.28002">
        <ele>575.346322</ele>
        <time>2022-09-13T12:35:45.391Z</time>
      </trkpt>
      <trkpt lat="48.09047" lon="11.28012">
        <ele>575.411188</ele>
        <time>2022-09-13T12:35:49.660Z</time>
      </trkpt>
      <trkpt lat="48.09031" lon="11.28039">
        <ele>575.515432</ele>
        <time>2022-09-13T12:35:56.250Z</time>
      </trkpt>
      <trkpt lat="48.09024" lon="11.28043">
        <ele>575.546806</ele>
        <time>2022-09-13T12:35:58.442Z</time>
      </trkpt>
      <trkpt lat="48.09018" lon="11.28034">
        <ele>575.580433</ele>
        <time>2022-09-13T12:36:00.743Z</time>
      </trkpt>
      <trkpt lat="48.09025" lon="11.28004">
        <ele>575.670271</ele>
        <time>2022-09-13T12:36:06.768Z</time>
      </trkpt>
      <trkpt lat="48.09026" lon="11.27996">
        <ele>575.692683</ele>
        <time>2022-09-13T12:36:08.435Z</time>
      </trkpt>
      <trkpt lat="48.09023" lon="11.27992">
        <ele>575.708726</ele>
        <time>2022-09-13T12:36:09.626Z</time>
      </trkpt>
      <trkpt lat="48.09016" lon="11.27987">
        <ele>575.742638</ele>
        <time>2022-09-13T12:36:11.995Z</time>
      </trkpt>
      <trkpt lat="48.09007" lon="11.27981">
        <ele>575.785235</ele>
        <time>2022-09-13T12:36:14.889Z</time>
      </trkpt>
      <trkpt lat="48.08965" lon="11.27953">
        <ele>576.060936</ele>
        <time>2022-09-13T12:36:28.730Z</time>
      </trkpt>
      <trkpt lat="48.08811" lon="11.27875">
        <ele>577.653363</ele>
        <time>2022-09-13T12:37:19.505Z</time>
      </trkpt>
      <trkpt lat="48.08778" lon="11.27851">
        <ele>578.170659</ele>
        <time>2022-09-13T12:37:32.285Z</time>
      </trkpt>
      <trkpt lat="48.08735" lon="11.27824">
        <ele>578.833282</ele>
        <time>2022-09-13T12:37:48.110Z</time>
      </trkpt>
      <trkpt lat="48.08652" lon="11.27758">
        <ele>580.16518</ele>
        <time>2022-09-13T12:38:19.237Z</time>
      </trkpt>
      <trkpt lat="48.08507" lon="11.27611">
        <ele>583.458521</ele>
        <time>2022-09-13T12:39:19.957Z</time>
      </trkpt>
      <trkpt lat="48.08505" lon="11.27609">
        <ele>583.504766</ele>
        <time>2022-09-13T12:39:20.918Z</time>
      </trkpt>
      <trkpt lat="48.08503" lon="11.27607">
        <ele>583.541908</ele>
        <time>2022-09-13T12:39:21.659Z</time>
      </trkpt>
      <trkpt lat="48.08501" lon="11.27606">
        <ele>583.57905</ele>
        <time>2022-09-13T12:39:22.399Z</time>
      </trkpt>
      <trkpt lat="48.08345" lon="11.27408">
        <ele>589.657468</ele>
        <time>2022-09-13T12:40:51.009Z</time>
      </trkpt>
      <trkpt lat="48.0831" lon="11.27349">
        <ele>590.469389</ele>
        <time>2022-09-13T12:41:10.813Z</time>
      </trkpt>
      <trkpt lat="48.083" lon="11.27314">
        <ele>590.862772</ele>
        <time>2022-09-13T12:41:19.937Z</time>
      </trkpt>
      <trkpt lat="48.08278" lon="11.27238">
        <ele>591.722463</ele>
        <time>2022-09-13T12:41:36.755Z</time>
      </trkpt>
      <trkpt lat="48.08253" lon="11.27079">
        <ele>591.962285</ele>
        <time>2022-09-13T12:42:03.836Z</time>
      </trkpt>
      <trkpt lat="48.08234" lon="11.26903">
        <ele>591.989665</ele>
        <time>2022-09-13T12:42:34.129Z</time>
      </trkpt>
      <trkpt lat="48.08202" lon="11.26667">
        <ele>593.511417</ele>
        <time>2022-09-13T12:43:26.361Z</time>
      </trkpt>
      <trkpt lat="48.08193" lon="11.26632">
        <ele>593.724134</ele>
        <time>2022-09-13T12:43:35.036Z</time>
      </trkpt>
      <trkpt lat="48.08178" lon="11.26612">
        <ele>593.891046</ele>
        <time>2022-09-13T12:43:41.665Z</time>
      </trkpt>
      <trkpt lat="48.08168" lon="11.26597">
        <ele>594.014442</ele>
        <time>2022-09-13T12:43:46.497Z</time>
      </trkpt>
      <trkpt lat="48.08167" lon="11.26588">
        <ele>594.06777</ele>
        <time>2022-09-13T12:43:48.602Z</time>
      </trkpt>
      <trkpt lat="48.08167" lon="11.2658">
        <ele>594.109608</ele>
        <time>2022-09-13T12:43:50.229Z</time>
      </trkpt>
      <trkpt lat="48.08165" lon="11.26571">
        <ele>594.167122</ele>
        <time>2022-09-13T12:43:52.367Z</time>
      </trkpt>
      <trkpt lat="48.0817" lon="11.2655">
        <ele>594.293418</ele>
        <time>2022-09-13T12:43:57.083Z</time>
      </trkpt>
      <trkpt lat="48.08166" lon="11.26521">
        <ele>594.457595</ele>
        <time>2022-09-13T12:44:03.083Z</time>
      </trkpt>
      <trkpt lat="48.08127" lon="11.26398">
        <ele>595.063538</ele>
        <time>2022-09-13T12:44:28.775Z</time>
      </trkpt>
      <trkpt lat="48.08101" lon="11.26351">
        <ele>595.169714</ele>
        <time>2022-09-13T12:44:40.051Z</time>
      </trkpt>
      <trkpt lat="48.08057" lon="11.26251">
        <ele>595.375381</ele>
        <time>2022-09-13T12:45:01.588Z</time>
      </trkpt>
      <trkpt lat="48.08038" lon="11.2618">
        <ele>595.567322</ele>
        <time>2022-09-13T12:45:16.427Z</time>
      </trkpt>
      <trkpt lat="48.0801" lon="11.26133">
        <ele>595.800869</ele>
        <time>2022-09-13T12:45:29.084Z</time>
      </trkpt>
      <trkpt lat="48.07982" lon="11.26049">
        <ele>596.152266</ele>
        <time>2022-09-13T12:45:47.788Z</time>
      </trkpt>
      <trkpt lat="48.07931" lon="11.25935">
        <ele>596.713702</ele>
        <time>2022-09-13T12:46:14.220Z</time>
      </trkpt>
      <trkpt lat="48.07868" lon="11.25794">
        <ele>597.489719</ele>
        <time>2022-09-13T12:46:48.791Z</time>
      </trkpt>
      <trkpt lat="48.07802" lon="11.25626">
        <ele>597.877039</ele>
        <time>2022-09-13T12:47:27.772Z</time>
      </trkpt>
      <trkpt lat="48.07781" lon="11.25563">
        <ele>597.958425</ele>
        <time>2022-09-13T12:47:40.450Z</time>
      </trkpt>
      <trkpt lat="48.07754" lon="11.25441">
        <ele>597.302446</ele>
        <time>2022-09-13T12:48:00.576Z</time>
      </trkpt>
      <trkpt lat="48.07738" lon="11.25368">
        <ele>596.604659</ele>
        <time>2022-09-13T12:48:11.770Z</time>
      </trkpt>
      <trkpt lat="48.07723" lon="11.25328">
        <ele>596.187463</ele>
        <time>2022-09-13T12:48:18.200Z</time>
      </trkpt>
      <trkpt lat="48.07726" lon="11.25325">
        <ele>596.125907</ele>
        <time>2022-09-13T12:48:19.923Z</time>
      </trkpt>
      <trkpt lat="48.07741" lon="11.25302">
        <ele>595.839605</ele>
        <time>2022-09-13T12:48:24.623Z</time>
      </trkpt>
      <trkpt lat="48.07742" lon="11.2529">
        <ele>595.728899</ele>
        <time>2022-09-13T12:48:26.397Z</time>
      </trkpt>
      <trkpt lat="48.07736" lon="11.25265">
        <ele>595.539738</ele>
        <time>2022-09-13T12:48:30.453Z</time>
      </trkpt>
      <trkpt lat="48.07697" lon="11.25085">
        <ele>594.93012</ele>
        <time>2022-09-13T12:49:02.324Z</time>
      </trkpt>
      <trkpt lat="48.07694" lon="11.25066">
        <ele>594.866298</ele>
        <time>2022-09-13T12:49:06.245Z</time>
      </trkpt>
      <trkpt lat="48.07692" lon="11.25054">
        <ele>594.824873</ele>
        <time>2022-09-13T12:49:08.849Z</time>
      </trkpt>
      <trkpt lat="48.07683" lon="11.25005">
        <ele>594.751634</ele>
        <time>2022-09-13T12:49:18.732Z</time>
      </trkpt>
      <trkpt lat="48.07672" lon="11.24962">
        <ele>594.939584</ele>
        <time>2022-09-13T12:49:27.756Z</time>
      </trkpt>
      <trkpt lat="48.07661" lon="11.24948">
        <ele>595.023269</ele>
        <time>2022-09-13T12:49:31.830Z</time>
      </trkpt>
      <trkpt lat="48.07632" lon="11.24941">
        <ele>595.205294</ele>
        <time>2022-09-13T12:49:40.663Z</time>
      </trkpt>
      <trkpt lat="48.0762" lon="11.2491">
        <ele>595.349935</ele>
        <time>2022-09-13T12:49:47.796Z</time>
      </trkpt>
      <trkpt lat="48.07602" lon="11.24882">
        <ele>595.507237</ele>
        <time>2022-09-13T12:49:55.671Z</time>
      </trkpt>
      <trkpt lat="48.07519" lon="11.24794">
        <ele>595.95176</ele>
        <time>2022-09-13T12:50:26.383Z</time>
      </trkpt>
      <trkpt lat="48.07481" lon="11.24753">
        <ele>596.082856</ele>
        <time>2022-09-13T12:50:38.872Z</time>
      </trkpt>
      <trkpt lat="48.07498" lon="11.24721">
        <ele>596.160441</ele>
        <time>2022-09-13T12:50:46.624Z</time>
      </trkpt>
      <trkpt lat="48.07532" lon="11.24641">
        <ele>596.286836</ele>
        <time>2022-09-13T12:51:04.533Z</time>
      </trkpt>
      <trkpt lat="48.07552" lon="11.24603">
        <ele>596.236439</ele>
        <time>2022-09-13T12:51:13.747Z</time>
      </trkpt>
      <trkpt lat="48.07584" lon="11.24539">
        <ele>596.151655</ele>
        <time>2022-09-13T12:51:28.864Z</time>
      </trkpt>
      <trkpt lat="48.0762" lon="11.24488">
        <ele>596.074272</ele>
        <time>2022-09-13T12:51:41.617Z</time>
      </trkpt>
      <trkpt lat="48.07625" lon="11.24483">
        <ele>596.064634</ele>
        <time>2022-09-13T12:51:43.074Z</time>
      </trkpt>
      <trkpt lat="48.07711" lon="11.24416">
        <ele>594.898534</ele>
        <time>2022-09-13T12:52:05.519Z</time>
      </trkpt>
      <trkpt lat="48.07735" lon="11.24371">
        <ele>594.289947</ele>
        <time>2022-09-13T12:52:13.731Z</time>
      </trkpt>
      <trkpt lat="48.07763" lon="11.24284">
        <ele>593.258118</ele>
        <time>2022-09-13T12:52:27.246Z</time>
      </trkpt>
      <trkpt lat="48.07766" lon="11.24273">
        <ele>593.113648</ele>
        <time>2022-09-13T12:52:28.950Z</time>
      </trkpt>
      <trkpt lat="48.07814" lon="11.24126">
        <ele>590.661947</ele>
        <time>2022-09-13T12:52:50.992Z</time>
      </trkpt>
      <trkpt lat="48.07844" lon="11.23937">
        <ele>588.695726</ele>
        <time>2022-09-13T12:53:18.738Z</time>
      </trkpt>
      <trkpt lat="48.07858" lon="11.23885">
        <ele>588.451283</ele>
        <time>2022-09-13T12:53:27.412Z</time>
      </trkpt>
      <trkpt lat="48.07881" lon="11.23826">
        <ele>588.152506</ele>
        <time>2022-09-13T12:53:38.526Z</time>
      </trkpt>
      <trkpt lat="48.07905" lon="11.23761">
        <ele>588.31903</ele>
        <time>2022-09-13T12:53:53.002Z</time>
      </trkpt>
      <trkpt lat="48.07946" lon="11.2362">
        <ele>591.523754</ele>
        <time>2022-09-13T12:54:35.288Z</time>
      </trkpt>
      <trkpt lat="48.07955" lon="11.2359">
        <ele>592.18983</ele>
        <time>2022-09-13T12:54:45.717Z</time>
      </trkpt>
      <trkpt lat="48.08007" lon="11.23419">
        <ele>596.093374</ele>
        <time>2022-09-13T12:55:46.057Z</time>
      </trkpt>
      <trkpt lat="48.08086" lon="11.23156">
        <ele>599.139757</ele>
        <time>2022-09-13T12:56:55.791Z</time>
      </trkpt>
      <trkpt lat="48.0813" lon="11.23043">
        <ele>599.031309</ele>
        <time>2022-09-13T12:57:14.553Z</time>
      </trkpt>
      <trkpt lat="48.08138" lon="11.2303">
        <ele>598.619058</ele>
        <time>2022-09-13T12:57:16.968Z</time>
      </trkpt>
      <trkpt lat="48.08172" lon="11.2297">
        <ele>596.766875</ele>
        <time>2022-09-13T12:57:27.067Z</time>
      </trkpt>
      <trkpt lat="48.08224" lon="11.22847">
        <ele>593.346094</ele>
        <time>2022-09-13T12:57:45.081Z</time>
      </trkpt>
      <trkpt lat="48.08261" lon="11.22717">
        <ele>591.601343</ele>
        <time>2022-09-13T12:58:03.677Z</time>
      </trkpt>
      <trkpt lat="48.08272" lon="11.22716">
        <ele>591.426894</ele>
        <time>2022-09-13T12:58:06.483Z</time>
      </trkpt>
      <trkpt lat="48.08286" lon="11.22684">
        <ele>591.031669</ele>
        <time>2022-09-13T12:58:12.342Z</time>
      </trkpt>
      <trkpt lat="48.08299" lon="11.22678">
        <ele>590.827598</ele>
        <time>2022-09-13T12:58:16.063Z</time>
      </trkpt>
      <trkpt lat="48.08382" lon="11.22667">
        <ele>589.769932</ele>
        <time>2022-09-13T12:58:40.747Z</time>
      </trkpt>
      <trkpt lat="48.08467" lon="11.22665">
        <ele>589.02407</ele>
        <time>2022-09-13T12:59:02.594Z</time>
      </trkpt>
      <trkpt lat="48.08481" lon="11.2267">
        <ele>588.895189</ele>
        <time>2022-09-13T12:59:05.460Z</time>
      </trkpt>
      <trkpt lat="48.08501" lon="11.22691">
        <ele>588.67847</ele>
        <time>2022-09-13T12:59:10.991Z</time>
      </trkpt>
      <trkpt lat="48.08504" lon="11.22704">
        <ele>588.598713</ele>
        <time>2022-09-13T12:59:12.655Z</time>
      </trkpt>
      <trkpt lat="48.08511" lon="11.22711">
        <ele>588.523755</ele>
        <time>2022-09-13T12:59:14.617Z</time>
      </trkpt>
      <trkpt lat="48.08621" lon="11.22721">
        <ele>585.05751</ele>
        <time>2022-09-13T12:59:36.262Z</time>
      </trkpt>
      <trkpt lat="48.08618" lon="11.22709">
        <ele>584.781881</ele>
        <time>2022-09-13T12:59:37.925Z</time>
      </trkpt>
      <trkpt lat="48.08614" lon="11.22674">
        <ele>584.005497</ele>
        <time>2022-09-13T12:59:42.369Z</time>
      </trkpt>
      <trkpt lat="48.08613" lon="11.22664">
        <ele>583.799333</ele>
        <time>2022-09-13T12:59:43.565Z</time>
      </trkpt>
      <trkpt lat="48.08637" lon="11.22656">
        <ele>582.996672</ele>
        <time>2022-09-13T12:59:48.310Z</time>
      </trkpt>
      <trkpt lat="48.08664" lon="11.22636">
        <ele>582.346348</ele>
        <time>2022-09-13T12:59:54.175Z</time>
      </trkpt>
      <trkpt lat="48.08674" lon="11.22612">
        <ele>582.023791</ele>
        <time>2022-09-13T12:59:57.976Z</time>
      </trkpt>
      <trkpt lat="48.08649" lon="11.22358">
        <ele>579.432159</ele>
        <time>2022-09-13T13:00:37.005Z</time>
      </trkpt>
      <trkpt lat="48.08643" lon="11.22254">
        <ele>579.013308</ele>
        <time>2022-09-13T13:00:53.766Z</time>
      </trkpt>
      <trkpt lat="48.0864" lon="11.21942">
        <ele>578.233813</ele>
        <time>2022-09-13T13:01:46.642Z</time>
      </trkpt>
      <trkpt lat="48.08643" lon="11.21764">
        <ele>578.183684</ele>
        <time>2022-09-13T13:02:18.436Z</time>
      </trkpt>
      <trkpt lat="48.08631" lon="11.21608">
        <ele>578.284933</ele>
        <time>2022-09-13T13:02:46.969Z</time>
      </trkpt>
      <trkpt lat="48.08633" lon="11.21556">
        <ele>578.328462</ele>
        <time>2022-09-13T13:02:56.474Z</time>
      </trkpt>
      <trkpt lat="48.08624" lon="11.21501">
        <ele>578.378947</ele>
        <time>2022-09-13T13:03:07.225Z</time>
      </trkpt>
      <trkpt lat="48.08613" lon="11.21352">
        <ele>578.510935</ele>
        <time>2022-09-13T13:03:35.236Z</time>
      </trkpt>
      <trkpt lat="48.08591" lon="11.21174">
        <ele>578.167524</ele>
        <time>2022-09-13T13:04:05.555Z</time>
      </trkpt>
      <trkpt lat="48.08548" lon="11.20906">
        <ele>578.158137</ele>
        <time>2022-09-13T13:04:51.537Z</time>
      </trkpt>
      <trkpt lat="48.08541" lon="11.20858">
        <ele>578.22709</ele>
        <time>2022-09-13T13:05:01.048Z</time>
      </trkpt>
      <trkpt lat="48.08492" lon="11.20577">
        <ele>580.775791</ele>
        <time>2022-09-13T13:06:07.963Z</time>
      </trkpt>
      <trkpt lat="48.08476" lon="11.20412">
        <ele>581.941483</ele>
        <time>2022-09-13T13:06:45.956Z</time>
      </trkpt>
      <trkpt lat="48.08481" lon="11.20377">
        <ele>582.162986</ele>
        <time>2022-09-13T13:06:53.352Z</time>
      </trkpt>
      <trkpt lat="48.08496" lon="11.20369">
        <ele>582.311285</ele>
        <time>2022-09-13T13:06:57.885Z</time>
      </trkpt>
      <trkpt lat="48.08487" lon="11.20125">
        <ele>582.484709</ele>
        <time>2022-09-13T13:07:41.456Z</time>
      </trkpt>
      <trkpt lat="48.08486" lon="11.20093">
        <ele>582.432147</ele>
        <time>2022-09-13T13:07:46.704Z</time>
      </trkpt>
      <trkpt lat="48.08484" lon="11.20083">
        <ele>582.413751</ele>
        <time>2022-09-13T13:07:48.435Z</time>
      </trkpt>
      <trkpt lat="48.08469" lon="11.19947">
        <ele>582.186428</ele>
        <time>2022-09-13T13:08:10.540Z</time>
      </trkpt>
      <trkpt lat="48.08465" lon="11.1993">
        <ele>582.157898</ele>
        <time>2022-09-13T13:08:13.293Z</time>
      </trkpt>
      <trkpt lat="48.08463" lon="11.19883">
        <ele>582.079957</ele>
        <time>2022-09-13T13:08:21.299Z</time>
      </trkpt>
      <trkpt lat="48.08463" lon="11.19862">
        <ele>582.045447</ele>
        <time>2022-09-13T13:08:24.821Z</time>
      </trkpt>
      <trkpt lat="48.0845" lon="11.19862">
        <ele>582.014209</ele>
        <time>2022-09-13T13:08:28.179Z</time>
      </trkpt>
      <trkpt lat="48.0845" lon="11.19843">
        <ele>581.983486</ele>
        <time>2022-09-13T13:08:31.352Z</time>
      </trkpt>
      <trkpt lat="48.08444" lon="11.19842">
        <ele>581.969107</ele>
        <time>2022-09-13T13:08:32.871Z</time>
      </trkpt>
      <trkpt lat="48.08432" lon="11.19842">
        <ele>581.937381</ele>
        <time>2022-09-13T13:08:36.494Z</time>
      </trkpt>
      <trkpt lat="48.08431" lon="11.19829">
        <ele>581.915353</ele>
        <time>2022-09-13T13:08:38.938Z</time>
      </trkpt>
      <trkpt lat="48.08431" lon="11.19807">
        <ele>581.879844</ele>
        <time>2022-09-13T13:08:42.854Z</time>
      </trkpt>
      <trkpt lat="48.08428" lon="11.19729">
        <ele>582.594314</ele>
        <time>2022-09-13T13:08:58.795Z</time>
      </trkpt>
      <trkpt lat="48.08421" lon="11.19665">
        <ele>583.185315</ele>
        <time>2022-09-13T13:09:12.726Z</time>
      </trkpt>
      <trkpt lat="48.08418" lon="11.19595">
        <ele>583.828458</ele>
        <time>2022-09-13T13:09:29.245Z</time>
      </trkpt>
      <trkpt lat="48.08425" lon="11.1951">
        <ele>584.679609</ele>
        <time>2022-09-13T13:09:50.843Z</time>
      </trkpt>
      <trkpt lat="48.0842" lon="11.19312">
        <ele>586.990131</ele>
        <time>2022-09-13T13:10:38.806Z</time>
      </trkpt>
      <trkpt lat="48.08429" lon="11.19195">
        <ele>587.526134</ele>
        <time>2022-09-13T13:11:03.387Z</time>
      </trkpt>
      <trkpt lat="48.08434" lon="11.18862">
        <ele>586.781914</ele>
        <time>2022-09-13T13:11:59.247Z</time>
      </trkpt>
      <trkpt lat="48.08431" lon="11.18768">
        <ele>586.201026</ele>
        <time>2022-09-13T13:12:13.707Z</time>
      </trkpt>
      <trkpt lat="48.08429" lon="11.18654">
        <ele>584.875974</ele>
        <time>2022-09-13T13:12:29.627Z</time>
      </trkpt>
      <trkpt lat="48.0842" lon="11.18612">
        <ele>584.269397</ele>
        <time>2022-09-13T13:12:35.640Z</time>
      </trkpt>
      <trkpt lat="48.08402" lon="11.18583">
        <ele>583.707255</ele>
        <time>2022-09-13T13:12:41.212Z</time>
      </trkpt>
      <trkpt lat="48.08383" lon="11.18583">
        <ele>583.316055</ele>
        <time>2022-09-13T13:12:44.916Z</time>
      </trkpt>
      <trkpt lat="48.08373" lon="11.18561">
        <ele>582.942035</ele>
        <time>2022-09-13T13:12:48.831Z</time>
      </trkpt>
      <trkpt lat="48.0838" lon="11.18533">
        <ele>582.524752</ele>
        <time>2022-09-13T13:12:52.760Z</time>
      </trkpt>
      <trkpt lat="48.08408" lon="11.18525">
        <ele>582.025726</ele>
        <time>2022-09-13T13:12:58.839Z</time>
      </trkpt>
      <trkpt lat="48.08416" lon="11.18512">
        <ele>581.86351</ele>
        <time>2022-09-13T13:13:01.383Z</time>
      </trkpt>
      <trkpt lat="48.08411" lon="11.18397">
        <ele>580.836728</ele>
        <time>2022-09-13T13:13:17.967Z</time>
      </trkpt>
      <trkpt lat="48.08399" lon="11.18259">
        <ele>579.87006</ele>
        <time>2022-09-13T13:13:39.945Z</time>
      </trkpt>
      <trkpt lat="48.08359" lon="11.18204">
        <ele>580.110899</ele>
        <time>2022-09-13T13:13:55.038Z</time>
      </trkpt>
      <trkpt lat="48.08335" lon="11.18143">
        <ele>580.319787</ele>
        <time>2022-09-13T13:14:08.565Z</time>
      </trkpt>
      <trkpt lat="48.08334" lon="11.18119">
        <ele>580.391114</ele>
        <time>2022-09-13T13:14:13.357Z</time>
      </trkpt>
      <trkpt lat="48.08348" lon="11.18078">
        <ele>580.526817</ele>
        <time>2022-09-13T13:14:23.463Z</time>
      </trkpt>
      <trkpt lat="48.08352" lon="11.18064">
        <ele>580.572937</ele>
        <time>2022-09-13T13:14:27.050Z</time>
      </trkpt>
      <trkpt lat="48.08351" lon="11.18043">
        <ele>580.717874</ele>
        <time>2022-09-13T13:14:31.819Z</time>
      </trkpt>
      <trkpt lat="48.08353" lon="11.18012">
        <ele>581.023346</ele>
        <time>2022-09-13T13:14:38.579Z</time>
      </trkpt>
      <trkpt lat="48.08348" lon="11.17963">
        <ele>581.521177</ele>
        <time>2022-09-13T13:14:49.454Z</time>
      </trkpt>
      <trkpt lat="48.08325" lon="11.17859">
        <ele>582.606711</ele>
        <time>2022-09-13T13:15:13.159Z</time>
      </trkpt>
      <trkpt lat="48.08325" lon="11.1783">
        <ele>582.899722</ele>
        <time>2022-09-13T13:15:19.383Z</time>
      </trkpt>
      <trkpt lat="48.08301" lon="11.17675">
        <ele>585.71265</ele>
        <time>2022-09-13T13:16:00.501Z</time>
      </trkpt>
      <trkpt lat="48.08277" lon="11.17636">
        <ele>586.798386</ele>
        <time>2022-09-13T13:16:15.009Z</time>
      </trkpt>
      <trkpt lat="48.08269" lon="11.17588">
        <ele>587.791781</ele>
        <time>2022-09-13T13:16:28.575Z</time>
      </trkpt>
      <trkpt lat="48.08268" lon="11.17525">
        <ele>589.266355</ele>
        <time>2022-09-13T13:16:48.224Z</time>
      </trkpt>
      <trkpt lat="48.08286" lon="11.17454">
        <ele>591.782948</ele>
        <time>2022-09-13T13:17:14.117Z</time>
      </trkpt>
      <trkpt lat="48.08296" lon="11.17387">
        <ele>594.053777</ele>
        <time>2022-09-13T13:17:39.144Z</time>
      </trkpt>
      <trkpt lat="48.08295" lon="11.17325">
        <ele>596.097598</ele>
        <time>2022-09-13T13:18:02.233Z</time>
      </trkpt>
      <trkpt lat="48.08264" lon="11.17079">
        <ele>600.680204</ele>
        <time>2022-09-13T13:19:18.520Z</time>
      </trkpt>
      <trkpt lat="48.08253" lon="11.16903">
        <ele>597.816248</ele>
        <time>2022-09-13T13:19:42.385Z</time>
      </trkpt>
      <trkpt lat="48.08242" lon="11.16871">
        <ele>596.585856</ele>
        <time>2022-09-13T13:19:46.610Z</time>
      </trkpt>
      <trkpt lat="48.08184" lon="11.16836">
        <ele>593.428646</ele>
        <time>2022-09-13T13:19:57.215Z</time>
      </trkpt>
      <trkpt lat="48.08146" lon="11.16806">
        <ele>590.834207</ele>
        <time>2022-09-13T13:20:04.460Z</time>
      </trkpt>
      <trkpt lat="48.08104" lon="11.16751">
        <ele>587.15076</ele>
        <time>2022-09-13T13:20:13.767Z</time>
      </trkpt>
      <trkpt lat="48.08082" lon="11.16648">
        <ele>582.320891</ele>
        <time>2022-09-13T13:20:26.290Z</time>
      </trkpt>
      <trkpt lat="48.0804" lon="11.16358">
        <ele>574.358733</ele>
        <time>2022-09-13T13:21:04.009Z</time>
      </trkpt>
      <trkpt lat="48.08031" lon="11.16296">
        <ele>573.253805</ele>
        <time>2022-09-13T13:21:13.312Z</time>
      </trkpt>
      <trkpt lat="48.08024" lon="11.16247">
        <ele>572.483467</ele>
        <time>2022-09-13T13:21:20.744Z</time>
      </trkpt>
      <trkpt lat="48.08022" lon="11.16068">
        <ele>569.764124</ele>
        <time>2022-09-13T13:21:44.890Z</time>
      </trkpt>
      <trkpt lat="48.08018" lon="11.16033">
        <ele>569.318223</ele>
        <time>2022-09-13T13:21:49.991Z</time>
      </trkpt>
      <trkpt lat="48.08009" lon="11.15974">
        <ele>568.551027</ele>
        <time>2022-09-13T13:21:59.176Z</time>
      </trkpt>
      <trkpt lat="48.07976" lon="11.15886">
        <ele>567.292624</ele>
        <time>2022-09-13T13:22:13.799Z</time>
      </trkpt>
      <trkpt lat="48.07966" lon="11.15817">
        <ele>566.351671</ele>
        <time>2022-09-13T13:22:23.628Z</time>
      </trkpt>
      <trkpt lat="48.07951" lon="11.15751">
        <ele>565.048926</ele>
        <time>2022-09-13T13:22:33.184Z</time>
      </trkpt>
      <trkpt lat="48.07922" lon="11.15694">
        <ele>563.719525</ele>
        <time>2022-09-13T13:22:42.975Z</time>
      </trkpt>
      <trkpt lat="48.07907" lon="11.15618">
        <ele>562.223945</ele>
        <time>2022-09-13T13:22:53.669Z</time>
      </trkpt>
      <trkpt lat="48.07884" lon="11.15485">
        <ele>559.167399</ele>
        <time>2022-09-13T13:23:11.760Z</time>
      </trkpt>
      <trkpt lat="48.07874" lon="11.15434">
        <ele>557.906326</ele>
        <time>2022-09-13T13:23:18.615Z</time>
      </trkpt>
      <trkpt lat="48.07868" lon="11.15327">
        <ele>555.360985</ele>
        <time>2022-09-13T13:23:32.999Z</time>
      </trkpt>
      <trkpt lat="48.07863" lon="11.15241">
        <ele>555.06482</ele>
        <time>2022-09-13T13:23:46.080Z</time>
      </trkpt>
      <trkpt lat="48.0786" lon="11.15221">
        <ele>555.056668</ele>
        <time>2022-09-13T13:23:49.338Z</time>
      </trkpt>
      <trkpt lat="48.07837" lon="11.15201">
        <ele>555.039999</ele>
        <time>2022-09-13T13:23:56.896Z</time>
      </trkpt>
      <trkpt lat="48.07808" lon="11.15189">
        <ele>555.021917</ele>
        <time>2022-09-13T13:24:05.643Z</time>
      </trkpt>
      <trkpt lat="48.07774" lon="11.15193">
        <ele>555.000683</ele>
        <time>2022-09-13T13:24:16.888Z</time>
      </trkpt>
      <trkpt lat="48.07771" lon="11.15124">
        <ele>555.485041</ele>
        <time>2022-09-13T13:24:33.556Z</time>
      </trkpt>
      <trkpt lat="48.0777" lon="11.15091">
        <ele>555.993826</ele>
        <time>2022-09-13T13:24:41.719Z</time>
      </trkpt>
      <trkpt lat="48.0776" lon="11.14964">
        <ele>558.000282</ele>
        <time>2022-09-13T13:25:15.133Z</time>
      </trkpt>
      <trkpt lat="48.07767" lon="11.14782">
        <ele>560.820266</ele>
        <time>2022-09-13T13:26:02.624Z</time>
      </trkpt>
      <trkpt lat="48.07761" lon="11.14696">
        <ele>562.150678</ele>
        <time>2022-09-13T13:26:24.351Z</time>
      </trkpt>
      <trkpt lat="48.07742" lon="11.14498">
        <ele>564.71874</ele>
        <time>2022-09-13T13:27:12.506Z</time>
      </trkpt>
      <trkpt lat="48.07742" lon="11.14455">
        <ele>565.199224</ele>
        <time>2022-09-13T13:27:23.113Z</time>
      </trkpt>
      <trkpt lat="48.07736" lon="11.14436">
        <ele>565.443357</ele>
        <time>2022-09-13T13:27:30.334Z</time>
      </trkpt>
      <trkpt lat="48.07731" lon="11.1439">
        <ele>565.973566</ele>
        <time>2022-09-13T13:27:43.684Z</time>
      </trkpt>
      <trkpt lat="48.07729" lon="11.14332">
        <ele>566.209549</ele>
        <time>2022-09-13T13:27:58.547Z</time>
      </trkpt>
      <trkpt lat="48.07735" lon="11.14293">
        <ele>565.924727</ele>
        <time>2022-09-13T13:28:07.519Z</time>
      </trkpt>
      <trkpt lat="48.07754" lon="11.1422">
        <ele>565.369208</ele>
        <time>2022-09-13T13:28:24.920Z</time>
      </trkpt>
      <trkpt lat="48.07785" lon="11.1415">
        <ele>564.772071</ele>
        <time>2022-09-13T13:28:46.849Z</time>
      </trkpt>
      <trkpt lat="48.07823" lon="11.14022">
        <ele>561.520285</ele>
        <time>2022-09-13T13:29:19.833Z</time>
      </trkpt>
      <trkpt lat="48.07821" lon="11.14004">
        <ele>560.971546</ele>
        <time>2022-09-13T13:29:22.026Z</time>
      </trkpt>
      <trkpt lat="48.07814" lon="11.13976">
        <ele>560.033268</ele>
        <time>2022-09-13T13:29:25.719Z</time>
      </trkpt>
      <trkpt lat="48.07796" lon="11.13939">
        <ele>558.630587</ele>
        <time>2022-09-13T13:29:31.185Z</time>
      </trkpt>
      <trkpt lat="48.07764" lon="11.13903">
        <ele>556.814525</ele>
        <time>2022-09-13T13:29:38.265Z</time>
      </trkpt>
      <trkpt lat="48.07692" lon="11.13871">
        <ele>552.456967</ele>
        <time>2022-09-13T13:29:51.527Z</time>
      </trkpt>
      <trkpt lat="48.07683" lon="11.13865">
        <ele>551.893575</ele>
        <time>2022-09-13T13:29:53.177Z</time>
      </trkpt>
      <trkpt lat="48.07666" lon="11.1385">
        <ele>550.73234</ele>
        <time>2022-09-13T13:29:56.553Z</time>
      </trkpt>
      <trkpt lat="48.0764" lon="11.13809">
        <ele>548.46197</ele>
        <time>2022-09-13T13:30:03.211Z</time>
      </trkpt>
      <trkpt lat="48.07623" lon="11.13755">
        <ele>546.046502</ele>
        <time>2022-09-13T13:30:10.282Z</time>
      </trkpt>
      <trkpt lat="48.07612" lon="11.13684">
        <ele>543.7749</ele>
        <time>2022-09-13T13:30:18.932Z</time>
      </trkpt>
      <trkpt lat="48.07607" lon="11.13586">
        <ele>540.969778</ele>
        <time>2022-09-13T13:30:30.749Z</time>
      </trkpt>
      <trkpt lat="48.07611" lon="11.13543">
        <ele>539.740123</ele>
        <time>2022-09-13T13:30:36.115Z</time>
      </trkpt>
      <trkpt lat="48.07619" lon="11.1352">
        <ele>538.98683</ele>
        <time>2022-09-13T13:30:39.565Z</time>
      </trkpt>
      <trkpt lat="48.07684" lon="11.13373">
        <ele>536.801275</ele>
        <time>2022-09-13T13:31:05.359Z</time>
      </trkpt>
      <trkpt lat="48.07688" lon="11.13361">
        <ele>536.711411</ele>
        <time>2022-09-13T13:31:07.415Z</time>
      </trkpt>
      <trkpt lat="48.07694" lon="11.13347">
        <ele>536.590834</ele>
        <time>2022-09-13T13:31:10.263Z</time>
      </trkpt>
      <trkpt lat="48.07705" lon="11.13314">
        <ele>536.342076</ele>
        <time>2022-09-13T13:31:15.830Z</time>
      </trkpt>
      <trkpt lat="48.07717" lon="11.13276">
        <ele>536.047501</ele>
        <time>2022-09-13T13:31:22.795Z</time>
      </trkpt>
      <trkpt lat="48.07723" lon="11.13258">
        <ele>535.906866</ele>
        <time>2022-09-13T13:31:26.426Z</time>
      </trkpt>
      <trkpt lat="48.07744" lon="11.13196">
        <ele>536.024189</ele>
        <time>2022-09-13T13:31:39.875Z</time>
      </trkpt>
      <trkpt lat="48.07749" lon="11.13185">
        <ele>536.06103</ele>
        <time>2022-09-13T13:31:42.356Z</time>
      </trkpt>
      <trkpt lat="48.07755" lon="11.13169">
        <ele>536.114966</ele>
        <time>2022-09-13T13:31:46.271Z</time>
      </trkpt>
      <trkpt lat="48.07774" lon="11.13123">
        <ele>536.272452</ele>
        <time>2022-09-13T13:31:57.937Z</time>
      </trkpt>
      <trkpt lat="48.07784" lon="11.13101">
        <ele>536.349017</ele>
        <time>2022-09-13T13:32:03.452Z</time>
      </trkpt>
      <trkpt lat="48.07787" lon="11.13094">
        <ele>536.372684</ele>
        <time>2022-09-13T13:32:05.086Z</time>
      </trkpt>
      <trkpt lat="48.07838" lon="11.12946">
        <ele>536.581669</ele>
        <time>2022-09-13T13:32:35.301Z</time>
      </trkpt>
      <trkpt lat="48.07834" lon="11.12822">
        <ele>536.512598</ele>
        <time>2022-09-13T13:32:57.172Z</time>
      </trkpt>
      <trkpt lat="48.07824" lon="11.12773">
        <ele>536.484344</ele>
        <time>2022-09-13T13:33:05.792Z</time>
      </trkpt>
      <trkpt lat="48.07798" lon="11.12274">
        <ele>535.783525</ele>
        <time>2022-09-13T13:34:31.305Z</time>
      </trkpt>
      <trkpt lat="48.07781" lon="11.12051">
        <ele>535.979925</ele>
        <time>2022-09-13T13:35:11.530Z</time>
      </trkpt>
      <trkpt lat="48.07753" lon="11.11821">
        <ele>536.863305</ele>
        <time>2022-09-13T13:35:58.071Z</time>
      </trkpt>
      <trkpt lat="48.07727" lon="11.11632">
        <ele>537.938686</ele>
        <time>2022-09-13T13:36:38.480Z</time>
      </trkpt>
      <trkpt lat="48.07737" lon="11.11625">
        <ele>538.03399</ele>
        <time>2022-09-13T13:36:41.676Z</time>
      </trkpt>
      <trkpt lat="48.0774" lon="11.11615">
        <ele>538.099835</ele>
        <time>2022-09-13T13:36:43.970Z</time>
      </trkpt>
      <trkpt lat="48.07736" lon="11.11532">
        <ele>538.596904</ele>
        <time>2022-09-13T13:37:01.428Z</time>
      </trkpt>
      <trkpt lat="48.07741" lon="11.11531">
        <ele>538.644058</ele>
        <time>2022-09-13T13:37:02.987Z</time>
      </trkpt>
      <trkpt lat="48.07747" lon="11.11529">
        <ele>538.69979</ele>
        <time>2022-09-13T13:37:04.901Z</time>
      </trkpt>
      <trkpt lat="48.07753" lon="11.11526">
        <ele>538.752676</ele>
        <time>2022-09-13T13:37:06.702Z</time>
      </trkpt>
      <trkpt lat="48.07762" lon="11.11501">
        <ele>538.925059</ele>
        <time>2022-09-13T13:37:12.761Z</time>
      </trkpt>
      <trkpt lat="48.07778" lon="11.1148">
        <ele>539.117004</ele>
        <time>2022-09-13T13:37:19.215Z</time>
      </trkpt>
      <trkpt lat="48.07777" lon="11.11475">
        <ele>539.148062</ele>
        <time>2022-09-13T13:37:20.325Z</time>
      </trkpt>
      <trkpt lat="48.07774" lon="11.11469">
        <ele>539.189928</ele>
        <time>2022-09-13T13:37:21.864Z</time>
      </trkpt>
      <trkpt lat="48.07785" lon="11.11463">
        <ele>539.27007</ele>
        <time>2022-09-13T13:37:25.174Z</time>
      </trkpt>
      <trkpt lat="48.0781" lon="11.11446">
        <ele>539.465834</ele>
        <time>2022-09-13T13:37:33.544Z</time>
      </trkpt>
      <trkpt lat="48.07833" lon="11.11442">
        <ele>539.634119</ele>
        <time>2022-09-13T13:37:40.596Z</time>
      </trkpt>
      <trkpt lat="48.07843" lon="11.11441">
        <ele>539.707285</ele>
        <time>2022-09-13T13:37:43.746Z</time>
      </trkpt>
      <trkpt lat="48.07855" lon="11.11438">
        <ele>539.78888</ele>
        <time>2022-09-13T13:37:47.010Z</time>
      </trkpt>
      <trkpt lat="48.07865" lon="11.11436">
        <ele>539.861522</ele>
        <time>2022-09-13T13:37:49.955Z</time>
      </trkpt>
      <trkpt lat="48.07893" lon="11.11436">
        <ele>540.063848</ele>
        <time>2022-09-13T13:38:03.258Z</time>
      </trkpt>
      <trkpt lat="48.07892" lon="11.1145">
        <ele>540.129236</ele>
        <time>2022-09-13T13:38:06.027Z</time>
      </trkpt>
      <trkpt lat="48.07968" lon="11.11449">
        <ele>540.928738</ele>
        <time>2022-09-13T13:38:29.373Z</time>
      </trkpt>
      <trkpt lat="48.08013" lon="11.11448">
        <ele>541.648261</ele>
        <time>2022-09-13T13:38:44.414Z</time>
      </trkpt>
      <trkpt lat="48.08031" lon="11.11448">
        <ele>541.925257</ele>
        <time>2022-09-13T13:38:50.017Z</time>
      </trkpt>
      <trkpt lat="48.08037" lon="11.11431">
        <ele>542.128964</ele>
        <time>2022-09-13T13:38:54.774Z</time>
      </trkpt>
      <trkpt lat="48.08039" lon="11.11398">
        <ele>542.484391</ele>
        <time>2022-09-13T13:39:02.390Z</time>
      </trkpt>
      <trkpt lat="48.08056" lon="11.11388">
        <ele>542.771908</ele>
        <time>2022-09-13T13:39:09.403Z</time>
      </trkpt>
      <trkpt lat="48.08071" lon="11.11368">
        <ele>543.097156</ele>
        <time>2022-09-13T13:39:16.701Z</time>
      </trkpt>
      <trkpt lat="48.08076" lon="11.11349">
        <ele>543.313181</ele>
        <time>2022-09-13T13:39:22.122Z</time>
      </trkpt>
      <trkpt lat="48.0815" lon="11.11311">
        <ele>545.198778</ele>
        <time>2022-09-13T13:39:51.397Z</time>
      </trkpt>
      <trkpt lat="48.08161" lon="11.11305">
        <ele>545.477019</ele>
        <time>2022-09-13T13:39:55.713Z</time>
      </trkpt>
      <trkpt lat="48.08188" lon="11.11293">
        <ele>546.149224</ele>
        <time>2022-09-13T13:40:06.579Z</time>
      </trkpt>
      <trkpt lat="48.08195" lon="11.1129">
        <ele>546.335789</ele>
        <time>2022-09-13T13:40:09.607Z</time>
      </trkpt>
      <trkpt lat="48.08193" lon="11.11259">
        <ele>546.84394</ele>
        <time>2022-09-13T13:40:18.069Z</time>
      </trkpt>
      <trkpt lat="48.08186" lon="11.11191">
        <ele>547.910678</ele>
        <time>2022-09-13T13:40:35.957Z</time>
      </trkpt>
      <trkpt lat="48.08179" lon="11.11141">
        <ele>548.618936</ele>
        <time>2022-09-13T13:40:49.404Z</time>
      </trkpt>
      <trkpt lat="48.08175" lon="11.11103">
        <ele>549.144135</ele>
        <time>2022-09-13T13:40:59.172Z</time>
      </trkpt>
      <trkpt lat="48.08173" lon="11.11062">
        <ele>549.705489</ele>
        <time>2022-09-13T13:41:09.143Z</time>
      </trkpt>
      <trkpt lat="48.08171" lon="11.10939">
        <ele>551.392857</ele>
        <time>2022-09-13T13:41:37.593Z</time>
      </trkpt>
      <trkpt lat="48.0817" lon="11.10862">
        <ele>551.95461</ele>
        <time>2022-09-13T13:41:55.404Z</time>
      </trkpt>
      <trkpt lat="48.08177" lon="11.10673">
        <ele>553.330429</ele>
        <time>2022-09-13T13:42:34.333Z</time>
      </trkpt>
      <trkpt lat="48.08175" lon="11.10572">
        <ele>554.452141</ele>
        <time>2022-09-13T13:42:55.118Z</time>
      </trkpt>
      <trkpt lat="48.08171" lon="11.10485">
        <ele>555.425312</ele>
        <time>2022-09-13T13:43:14.957Z</time>
      </trkpt>
      <trkpt lat="48.08163" lon="11.1033">
        <ele>557.77251</ele>
        <time>2022-09-13T13:43:56.102Z</time>
      </trkpt>
      <trkpt lat="48.08155" lon="11.10215">
        <ele>560.016934</ele>
        <time>2022-09-13T13:44:28.595Z</time>
      </trkpt>
      <trkpt lat="48.08149" lon="11.10137">
        <ele>561.552554</ele>
        <time>2022-09-13T13:44:50.594Z</time>
      </trkpt>
      <trkpt lat="48.08126" lon="11.1004">
        <ele>562.74075</ele>
        <time>2022-09-13T13:45:16.895Z</time>
      </trkpt>
      <trkpt lat="48.08077" lon="11.09922">
        <ele>564.338405</ele>
        <time>2022-09-13T13:45:47.616Z</time>
      </trkpt>
      <trkpt lat="48.08054" lon="11.09847">
        <ele>565.129923</ele>
        <time>2022-09-13T13:46:03.621Z</time>
      </trkpt>
      <trkpt lat="48.08041" lon="11.0982">
        <ele>565.413129</ele>
        <time>2022-09-13T13:46:10.253Z</time>
      </trkpt>
      <trkpt lat="48.07982" lon="11.09769">
        <ele>566.280975</ele>
        <time>2022-09-13T13:46:32.223Z</time>
      </trkpt>
      <trkpt lat="48.07961" lon="11.09737">
        <ele>566.659193</ele>
        <time>2022-09-13T13:46:42.335Z</time>
      </trkpt>
      <trkpt lat="48.07948" lon="11.09703">
        <ele>567.03002</ele>
        <time>2022-09-13T13:46:51.729Z</time>
      </trkpt>
      <trkpt lat="48.07941" lon="11.0967">
        <ele>567.737992</ele>
        <time>2022-09-13T13:47:00.472Z</time>
      </trkpt>
      <trkpt lat="48.07944" lon="11.09586">
        <ele>569.478577</ele>
        <time>2022-09-13T13:47:23.471Z</time>
      </trkpt>
      <trkpt lat="48.07964" lon="11.09348">
        <ele>575.004082</ele>
        <time>2022-09-13T13:48:33.692Z</time>
      </trkpt>
      <trkpt lat="48.0796" lon="11.09316">
        <ele>575.872493</ele>
        <time>2022-09-13T13:48:43.426Z</time>
      </trkpt>
      <trkpt lat="48.07934" lon="11.09216">
        <ele>578.790481</ele>
        <time>2022-09-13T13:49:18.224Z</time>
      </trkpt>
      <trkpt lat="48.07916" lon="11.09109">
        <ele>581.649147</ele>
        <time>2022-09-13T13:49:52.890Z</time>
      </trkpt>
      <trkpt lat="48.0792" lon="11.08943">
        <ele>585.866895</ele>
        <time>2022-09-13T13:50:44.137Z</time>
      </trkpt>
      <trkpt lat="48.0793" lon="11.08802">
        <ele>588.013563</ele>
        <time>2022-09-13T13:51:20.031Z</time>
      </trkpt>
      <trkpt lat="48.07926" lon="11.0868">
        <ele>589.544144</ele>
        <time>2022-09-13T13:51:47.446Z</time>
      </trkpt>
      <trkpt lat="48.07939" lon="11.08632">
        <ele>589.987465</ele>
        <time>2022-09-13T13:51:58.479Z</time>
      </trkpt>
      <trkpt lat="48.07926" lon="11.0855">
        <ele>590.045715</ele>
        <time>2022-09-13T13:52:16.204Z</time>
      </trkpt>
      <trkpt lat="48.07927" lon="11.08512">
        <ele>590.072081</ele>
        <time>2022-09-13T13:52:23.696Z</time>
      </trkpt>
      <trkpt lat="48.07963" lon="11.08391">
        <ele>590.120224</ele>
        <time>2022-09-13T13:52:45.523Z</time>
      </trkpt>
      <trkpt lat="48.08007" lon="11.08219">
        <ele>588.144553</ele>
        <time>2022-09-13T13:53:12.175Z</time>
      </trkpt>
      <trkpt lat="48.08009" lon="11.08194">
        <ele>587.869925</ele>
        <time>2022-09-13T13:53:15.584Z</time>
      </trkpt>
      <trkpt lat="48.08013" lon="11.08184">
        <ele>587.744563</ele>
        <time>2022-09-13T13:53:17.297Z</time>
      </trkpt>
      <trkpt lat="48.08015" lon="11.08182">
        <ele>587.707102</ele>
        <time>2022-09-13T13:53:17.836Z</time>
      </trkpt>
      <trkpt lat="48.08044" lon="11.08159">
        <ele>587.228544</ele>
        <time>2022-09-13T13:53:24.675Z</time>
      </trkpt>
      <trkpt lat="48.08057" lon="11.08137">
        <ele>587.090452</ele>
        <time>2022-09-13T13:53:28.893Z</time>
      </trkpt>
      <trkpt lat="48.08064" lon="11.08052">
        <ele>586.685597</ele>
        <time>2022-09-13T13:53:41.302Z</time>
      </trkpt>
      <trkpt lat="48.08101" lon="11.07844">
        <ele>586.809376</ele>
        <time>2022-09-13T13:54:20.399Z</time>
      </trkpt>
      <trkpt lat="48.08123" lon="11.07759">
        <ele>587.895572</ele>
        <time>2022-09-13T13:54:43.098Z</time>
      </trkpt>
      <trkpt lat="48.08124" lon="11.07716">
        <ele>588.411761</ele>
        <time>2022-09-13T13:54:54.514Z</time>
      </trkpt>
      <trkpt lat="48.08111" lon="11.07556">
        <ele>590.711125</ele>
        <time>2022-09-13T13:55:36.279Z</time>
      </trkpt>
      <trkpt lat="48.08113" lon="11.07488">
        <ele>591.800688</ele>
        <time>2022-09-13T13:55:54.424Z</time>
      </trkpt>
      <trkpt lat="48.08162" lon="11.07336">
        <ele>594.695392</ele>
        <time>2022-09-13T13:56:35.884Z</time>
      </trkpt>
      <trkpt lat="48.08167" lon="11.07303">
        <ele>595.361751</ele>
        <time>2022-09-13T13:56:43.897Z</time>
      </trkpt>
      <trkpt lat="48.08167" lon="11.07226">
        <ele>596.839768</ele>
        <time>2022-09-13T13:57:03.097Z</time>
      </trkpt>
      <trkpt lat="48.08196" lon="11.07089">
        <ele>600.17669</ele>
        <time>2022-09-13T13:57:47.579Z</time>
      </trkpt>
      <trkpt lat="48.08195" lon="11.06951">
        <ele>604.431433</ele>
        <time>2022-09-13T13:58:32.754Z</time>
      </trkpt>
      <trkpt lat="48.08195" lon="11.0694">
        <ele>604.791432</ele>
        <time>2022-09-13T13:58:36.796Z</time>
      </trkpt>
      <trkpt lat="48.08194" lon="11.06882">
        <ele>606.590566</ele>
        <time>2022-09-13T13:58:56.387Z</time>
      </trkpt>
      <trkpt lat="48.08213" lon="11.06834">
        <ele>608.135148</ele>
        <time>2022-09-13T13:59:15.781Z</time>
      </trkpt>
      <trkpt lat="48.08252" lon="11.06764">
        <ele>610.550764</ele>
        <time>2022-09-13T13:59:46.167Z</time>
      </trkpt>
      <trkpt lat="48.08274" lon="11.06659">
        <ele>613.455061</ele>
        <time>2022-09-13T14:00:18.646Z</time>
      </trkpt>
      <trkpt lat="48.08259" lon="11.0652">
        <ele>614.168084</ele>
        <time>2022-09-13T14:00:52.064Z</time>
      </trkpt>
      <trkpt lat="48.08264" lon="11.06381">
        <ele>614.154181</ele>
        <time>2022-09-13T14:01:13.632Z</time>
      </trkpt>
      <trkpt lat="48.08282" lon="11.0633">
        <ele>613.238239</ele>
        <time>2022-09-13T14:01:21.255Z</time>
      </trkpt>
      <trkpt lat="48.083" lon="11.06311">
        <ele>612.484599</ele>
        <time>2022-09-13T14:01:25.512Z</time>
      </trkpt>
      <trkpt lat="48.08359" lon="11.06252">
        <ele>610.104218</ele>
        <time>2022-09-13T14:01:38.902Z</time>
      </trkpt>
      <trkpt lat="48.0842" lon="11.06165">
        <ele>607.702912</ele>
        <time>2022-09-13T14:01:54.838Z</time>
      </trkpt>
      <trkpt lat="48.0853" lon="11.06002">
        <ele>605.06708</ele>
        <time>2022-09-13T14:02:28.997Z</time>
      </trkpt>
      <trkpt lat="48.08539" lon="11.05989">
        <ele>605.086035</ele>
        <time>2022-09-13T14:02:32.647Z</time>
      </trkpt>
      <trkpt lat="48.08551" lon="11.05973">
        <ele>605.109933</ele>
        <time>2022-09-13T14:02:37.322Z</time>
      </trkpt>
      <trkpt lat="48.08556" lon="11.05966">
        <ele>605.119987</ele>
        <time>2022-09-13T14:02:39.397Z</time>
      </trkpt>
      <trkpt lat="48.08571" lon="11.05949">
        <ele>605.148055</ele>
        <time>2022-09-13T14:02:45.066Z</time>
      </trkpt>
      <trkpt lat="48.0858" lon="11.05942">
        <ele>605.16326</ele>
        <time>2022-09-13T14:02:48.103Z</time>
      </trkpt>
      <trkpt lat="48.08587" lon="11.05938">
        <ele>605.174698</ele>
        <time>2022-09-13T14:02:50.479Z</time>
      </trkpt>
      <trkpt lat="48.08597" lon="11.05932">
        <ele>605.190663</ele>
        <time>2022-09-13T14:02:53.794Z</time>
      </trkpt>
      <trkpt lat="48.08607" lon="11.05926">
        <ele>605.206768</ele>
        <time>2022-09-13T14:02:56.916Z</time>
      </trkpt>
      <trkpt lat="48.08629" lon="11.05911">
        <ele>605.242823</ele>
        <time>2022-09-13T14:03:04.171Z</time>
      </trkpt>
      <trkpt lat="48.08636" lon="11.05907">
        <ele>605.254003</ele>
        <time>2022-09-13T14:03:06.192Z</time>
      </trkpt>
      <trkpt lat="48.08648" lon="11.059">
        <ele>605.273755</ele>
        <time>2022-09-13T14:03:09.912Z</time>
      </trkpt>
      <trkpt lat="48.0867" lon="11.05887">
        <ele>605.308135</ele>
        <time>2022-09-13T14:03:16.173Z</time>
      </trkpt>
      <trkpt lat="48.08696" lon="11.05877">
        <ele>605.129873</ele>
        <time>2022-09-13T14:03:23.415Z</time>
      </trkpt>
      <trkpt lat="48.08688" lon="11.05842">
        <ele>604.546056</ele>
        <time>2022-09-13T14:03:29.790Z</time>
      </trkpt>
      <trkpt lat="48.08676" lon="11.05789">
        <ele>603.668127</ele>
        <time>2022-09-13T14:03:38.946Z</time>
      </trkpt>
      <trkpt lat="48.08665" lon="11.05749">
        <ele>602.979368</ele>
        <time>2022-09-13T14:03:45.180Z</time>
      </trkpt>
      <trkpt lat="48.08662" lon="11.05719">
        <ele>602.490154</ele>
        <time>2022-09-13T14:03:49.359Z</time>
      </trkpt>
      <trkpt lat="48.08664" lon="11.05677">
        <ele>601.836249</ele>
        <time>2022-09-13T14:03:54.644Z</time>
      </trkpt>
      <trkpt lat="48.08676" lon="11.05658">
        <ele>601.417652</ele>
        <time>2022-09-13T14:03:57.887Z</time>
      </trkpt>
      <trkpt lat="48.08707" lon="11.05631">
        <ele>599.735653</ele>
        <time>2022-09-13T14:04:04.319Z</time>
      </trkpt>
      <trkpt lat="48.08704" lon="11.05622">
        <ele>599.324438</ele>
        <time>2022-09-13T14:04:05.483Z</time>
      </trkpt>
      <trkpt lat="48.08693" lon="11.05588">
        <ele>597.7515</ele>
        <time>2022-09-13T14:04:09.863Z</time>
      </trkpt>
      <trkpt lat="48.08677" lon="11.05545">
        <ele>595.733047</ele>
        <time>2022-09-13T14:04:15.520Z</time>
      </trkpt>
      <trkpt lat="48.08667" lon="11.05515">
        <ele>594.376741</ele>
        <time>2022-09-13T14:04:19.352Z</time>
      </trkpt>
      <trkpt lat="48.08658" lon="11.05486">
        <ele>593.019439</ele>
        <time>2022-09-13T14:04:23.201Z</time>
      </trkpt>
      <trkpt lat="48.08656" lon="11.05481">
        <ele>592.818401</ele>
        <time>2022-09-13T14:04:23.775Z</time>
      </trkpt>
      <trkpt lat="48.08651" lon="11.05464">
        <ele>592.011574</ele>
        <time>2022-09-13T14:04:26.079Z</time>
      </trkpt>
      <trkpt lat="48.08625" lon="11.05386">
        <ele>588.673165</ele>
        <time>2022-09-13T14:04:35.997Z</time>
      </trkpt>
      <trkpt lat="48.0865" lon="11.05364">
        <ele>587.151846</ele>
        <time>2022-09-13T14:04:41.029Z</time>
      </trkpt>
      <trkpt lat="48.08681" lon="11.05352">
        <ele>585.459721</ele>
        <time>2022-09-13T14:04:46.685Z</time>
      </trkpt>
      <trkpt lat="48.08693" lon="11.05336">
        <ele>584.586936</ele>
        <time>2022-09-13T14:04:49.653Z</time>
      </trkpt>
      <trkpt lat="48.08685" lon="11.0532">
        <ele>583.882757</ele>
        <time>2022-09-13T14:04:52.076Z</time>
      </trkpt>
      <trkpt lat="48.08677" lon="11.05301">
        <ele>583.085681</ele>
        <time>2022-09-13T14:04:54.787Z</time>
      </trkpt>
      <trkpt lat="48.08674" lon="11.05293">
        <ele>582.729933</ele>
        <time>2022-09-13T14:04:56.037Z</time>
      </trkpt>
      <trkpt lat="48.08646" lon="11.05087">
        <ele>577.047322</ele>
        <time>2022-09-13T14:05:22.629Z</time>
      </trkpt>
      <trkpt lat="48.08633" lon="11.04966">
        <ele>574.19151</ele>
        <time>2022-09-13T14:05:38.538Z</time>
      </trkpt>
      <trkpt lat="48.08632" lon="11.04889">
        <ele>573.281268</ele>
        <time>2022-09-13T14:05:48.875Z</time>
      </trkpt>
      <trkpt lat="48.08644" lon="11.04695">
        <ele>571.058825</ele>
        <time>2022-09-13T14:06:17.415Z</time>
      </trkpt>
      <trkpt lat="48.08646" lon="11.04674">
        <ele>571.138384</ele>
        <time>2022-09-13T14:06:20.958Z</time>
      </trkpt>
      <trkpt lat="48.08692" lon="11.04303">
        <ele>573.536545</ele>
        <time>2022-09-13T14:07:39.785Z</time>
      </trkpt>
      <trkpt lat="48.0871" lon="11.04161">
        <ele>575.198651</ele>
        <time>2022-09-13T14:08:16.357Z</time>
      </trkpt>
      <trkpt lat="48.08715" lon="11.04117">
        <ele>575.975307</ele>
        <time>2022-09-13T14:08:28.078Z</time>
      </trkpt>
      <trkpt lat="48.08744" lon="11.03902">
        <ele>579.812324</ele>
        <time>2022-09-13T14:09:25.568Z</time>
      </trkpt>
      <trkpt lat="48.08748" lon="11.03846">
        <ele>580.609394</ele>
        <time>2022-09-13T14:09:40.887Z</time>
      </trkpt>
      <trkpt lat="48.08749" lon="11.03783">
        <ele>581.49339</ele>
        <time>2022-09-13T14:09:56.884Z</time>
      </trkpt>
      <trkpt lat="48.0874" lon="11.03677">
        <ele>583.00657</ele>
        <time>2022-09-13T14:10:21.939Z</time>
      </trkpt>
      <trkpt lat="48.08713" lon="11.036">
        <ele>584.195298</ele>
        <time>2022-09-13T14:10:42.420Z</time>
      </trkpt>
      <trkpt lat="48.08672" lon="11.03525">
        <ele>585.449545</ele>
        <time>2022-09-13T14:11:04.984Z</time>
      </trkpt>
      <trkpt lat="48.08651" lon="11.03472">
        <ele>586.25738</ele>
        <time>2022-09-13T14:11:19.681Z</time>
      </trkpt>
      <trkpt lat="48.08646" lon="11.034">
        <ele>587.196319</ele>
        <time>2022-09-13T14:11:37.908Z</time>
      </trkpt>
      <trkpt lat="48.08652" lon="11.03331">
        <ele>587.998446</ele>
        <time>2022-09-13T14:11:56.326Z</time>
      </trkpt>
      <trkpt lat="48.08669" lon="11.03232">
        <ele>589.186694</ele>
        <time>2022-09-13T14:12:21.732Z</time>
      </trkpt>
      <trkpt lat="48.0867" lon="11.03224">
        <ele>589.282551</ele>
        <time>2022-09-13T14:12:23.381Z</time>
      </trkpt>
      <trkpt lat="48.08685" lon="11.03129">
        <ele>590.241405</ele>
        <time>2022-09-13T14:12:43.655Z</time>
      </trkpt>
      <trkpt lat="48.08694" lon="11.03069">
        <ele>590.183154</ele>
        <time>2022-09-13T14:12:55.368Z</time>
      </trkpt>
      <trkpt lat="48.08719" lon="11.02959">
        <ele>590.073404</ele>
        <time>2022-09-13T14:13:13.638Z</time>
      </trkpt>
      <trkpt lat="48.08729" lon="11.02885">
        <ele>590.001678</ele>
        <time>2022-09-13T14:13:25.897Z</time>
      </trkpt>
      <trkpt lat="48.08734" lon="11.0281">
        <ele>590.774707</ele>
        <time>2022-09-13T14:13:40.344Z</time>
      </trkpt>
      <trkpt lat="48.08736" lon="11.0278">
        <ele>591.102176</ele>
        <time>2022-09-13T14:13:47.299Z</time>
      </trkpt>
      <trkpt lat="48.08737" lon="11.02758">
        <ele>591.338828</ele>
        <time>2022-09-13T14:13:52.267Z</time>
      </trkpt>
      <trkpt lat="48.08739" lon="11.02739">
        <ele>591.540339</ele>
        <time>2022-09-13T14:13:56.952Z</time>
      </trkpt>
      <trkpt lat="48.08737" lon="11.02675">
        <ele>592.214419</ele>
        <time>2022-09-13T14:14:13.327Z</time>
      </trkpt>
      <trkpt lat="48.0874" lon="11.02631">
        <ele>592.687724</ele>
        <time>2022-09-13T14:14:24.914Z</time>
      </trkpt>
      <trkpt lat="48.08741" lon="11.02622">
        <ele>592.783229</ele>
        <time>2022-09-13T14:14:27.148Z</time>
      </trkpt>
      <trkpt lat="48.08739" lon="11.02568">
        <ele>593.711805</ele>
        <time>2022-09-13T14:14:41.092Z</time>
      </trkpt>
      <trkpt lat="48.08721" lon="11.02527">
        <ele>594.617539</ele>
        <time>2022-09-13T14:14:54.964Z</time>
      </trkpt>
      <trkpt lat="48.08718" lon="11.02523">
        <ele>594.715952</ele>
        <time>2022-09-13T14:14:56.491Z</time>
      </trkpt>
      <trkpt lat="48.08701" lon="11.02495">
        <ele>595.409527</ele>
        <time>2022-09-13T14:15:06.929Z</time>
      </trkpt>
      <trkpt lat="48.08696" lon="11.02483">
        <ele>595.667547</ele>
        <time>2022-09-13T14:15:10.864Z</time>
      </trkpt>
      <trkpt lat="48.08692" lon="11.02469">
        <ele>595.943997</ele>
        <time>2022-09-13T14:15:14.946Z</time>
      </trkpt>
      <trkpt lat="48.08681" lon="11.0245">
        <ele>596.412445</ele>
        <time>2022-09-13T14:15:21.801Z</time>
      </trkpt>
      <trkpt lat="48.08652" lon="11.02436">
        <ele>597.232891</ele>
        <time>2022-09-13T14:15:33.395Z</time>
      </trkpt>
      <trkpt lat="48.08646" lon="11.02405">
        <ele>597.820512</ele>
        <time>2022-09-13T14:15:45.916Z</time>
      </trkpt>
      <trkpt lat="48.08648" lon="11.02386">
        <ele>598.112741</ele>
        <time>2022-09-13T14:15:52.864Z</time>
      </trkpt>
      <trkpt lat="48.08651" lon="11.02385">
        <ele>598.16606</ele>
        <time>2022-09-13T14:15:53.692Z</time>
      </trkpt>
      <trkpt lat="48.08668" lon="11.02377">
        <ele>598.596667</ele>
        <time>2022-09-13T14:16:00.793Z</time>
      </trkpt>
      <trkpt lat="48.08685" lon="11.02366">
        <ele>599.015533</ele>
        <time>2022-09-13T14:16:07.296Z</time>
      </trkpt>
      <trkpt lat="48.08695" lon="11.02351">
        <ele>599.354807</ele>
        <time>2022-09-13T14:16:12.644Z</time>
      </trkpt>
      <trkpt lat="48.08696" lon="11.02294">
        <ele>600.236316</ele>
        <time>2022-09-13T14:16:26.539Z</time>
      </trkpt>
      <trkpt lat="48.08715" lon="11.02223">
        <ele>601.421757</ele>
        <time>2022-09-13T14:16:46.864Z</time>
      </trkpt>
      <trkpt lat="48.08707" lon="11.02224">
        <ele>601.60394</ele>
        <time>2022-09-13T14:16:49.947Z</time>
      </trkpt>
      <trkpt lat="48.08699" lon="11.02225">
        <ele>601.790555</ele>
        <time>2022-09-13T14:16:53.174Z</time>
      </trkpt>
      <trkpt lat="48.08657" lon="11.02232">
        <ele>602.32332</ele>
        <time>2022-09-13T14:17:08.792Z</time>
      </trkpt>
      <trkpt lat="48.08657" lon="11.02227">
        <ele>602.361867</ele>
        <time>2022-09-13T14:17:10.140Z</time>
      </trkpt>
      <trkpt lat="48.08653" lon="11.02181">
        <ele>602.691551</ele>
        <time>2022-09-13T14:17:20.272Z</time>
      </trkpt>
      <trkpt lat="48.08653" lon="11.02143">
        <ele>602.963285</ele>
        <time>2022-09-13T14:17:28.286Z</time>
      </trkpt>
      <trkpt lat="48.08654" lon="11.02132">
        <ele>603.03799</ele>
        <time>2022-09-13T14:17:30.291Z</time>
      </trkpt>
      <trkpt lat="48.08654" lon="11.02129">
        <ele>603.060213</ele>
        <time>2022-09-13T14:17:30.926Z</time>
      </trkpt>
      <trkpt lat="48.08655" lon="11.02117">
        <ele>603.1463</ele>
        <time>2022-09-13T14:17:33.439Z</time>
      </trkpt>
      <trkpt lat="48.08656" lon="11.02109">
        <ele>603.206499</ele>
        <time>2022-09-13T14:17:35.186Z</time>
      </trkpt>
      <trkpt lat="48.08657" lon="11.02099">
        <ele>603.276835</ele>
        <time>2022-09-13T14:17:37.100Z</time>
      </trkpt>
      <trkpt lat="48.08658" lon="11.02088">
        <ele>603.353643</ele>
        <time>2022-09-13T14:17:38.993Z</time>
      </trkpt>
      <trkpt lat="48.08662" lon="11.02048">
        <ele>603.643405</ele>
        <time>2022-09-13T14:17:46.709Z</time>
      </trkpt>
      <trkpt lat="48.08666" lon="11.02013">
        <ele>603.863103</ele>
        <time>2022-09-13T14:17:53.099Z</time>
      </trkpt>
      <trkpt lat="48.0867" lon="11.01974">
        <ele>603.838691</ele>
        <time>2022-09-13T14:18:00.482Z</time>
      </trkpt>
      <trkpt lat="48.08625" lon="11.01604">
        <ele>605.021553</ele>
        <time>2022-09-13T14:19:05.395Z</time>
      </trkpt>
      <trkpt lat="48.0862" lon="11.01546">
        <ele>605.53636</ele>
        <time>2022-09-13T14:19:18.886Z</time>
      </trkpt>
      <trkpt lat="48.08616" lon="11.01497">
        <ele>605.965218</ele>
        <time>2022-09-13T14:19:32.271Z</time>
      </trkpt>
      <trkpt lat="48.0861" lon="11.01418">
        <ele>609.581972</ele>
        <time>2022-09-13T14:19:59.292Z</time>
      </trkpt>
      <trkpt lat="48.08604" lon="11.01359">
        <ele>612.653279</ele>
        <time>2022-09-13T14:20:23.275Z</time>
      </trkpt>
      <trkpt lat="48.08596" lon="11.01274">
        <ele>617.052954</ele>
        <time>2022-09-13T14:21:02.765Z</time>
      </trkpt>
      <trkpt lat="48.08595" lon="11.01268">
        <ele>617.373961</ele>
        <time>2022-09-13T14:21:06.083Z</time>
      </trkpt>
      <trkpt lat="48.08467" lon="11.01003">
        <ele>639.666665</ele>
        <time>2022-09-13T14:24:02.874Z</time>
      </trkpt>
      <trkpt lat="48.08442" lon="11.00965">
        <ele>641.788829</ele>
        <time>2022-09-13T14:24:26.790Z</time>
      </trkpt>
      <trkpt lat="48.08433" lon="11.00951">
        <ele>642.571737</ele>
        <time>2022-09-13T14:24:34.829Z</time>
      </trkpt>
      <trkpt lat="48.08402" lon="11.00866">
        <ele>646.43679</ele>
        <time>2022-09-13T14:25:12.050Z</time>
      </trkpt>
      <trkpt lat="48.08368" lon="11.00807">
        <ele>649.599769</ele>
        <time>2022-09-13T14:25:35.817Z</time>
      </trkpt>
      <trkpt lat="48.08341" lon="11.00738">
        <ele>649.480023</ele>
        <time>2022-09-13T14:25:52.317Z</time>
      </trkpt>
      <trkpt lat="48.08316" lon="11.00621">
        <ele>648.342451</ele>
        <time>2022-09-13T14:26:10.030Z</time>
      </trkpt>
      <trkpt lat="48.08314" lon="11.00368">
        <ele>642.273436</ele>
        <time>2022-09-13T14:26:41.625Z</time>
      </trkpt>
      <trkpt lat="48.08361" lon="11.00232">
        <ele>637.444258</ele>
        <time>2022-09-13T14:26:59.914Z</time>
      </trkpt>
      <trkpt lat="48.08384" lon="11.00149">
        <ele>634.538804</ele>
        <time>2022-09-13T14:27:10.844Z</time>
      </trkpt>
      <trkpt lat="48.08384" lon="11.0014">
        <ele>634.239769</ele>
        <time>2022-09-13T14:27:12.893Z</time>
      </trkpt>
      <trkpt lat="48.08369" lon="11.00025">
        <ele>630.465633</ele>
        <time>2022-09-13T14:27:39.003Z</time>
      </trkpt>
      <trkpt lat="48.08339" lon="10.99971">
        <ele>628.569259</ele>
        <time>2022-09-13T14:27:54.787Z</time>
      </trkpt>
      <trkpt lat="48.08306" lon="10.99892">
        <ele>626.089421</ele>
        <time>2022-09-13T14:28:15.784Z</time>
      </trkpt>
      <trkpt lat="48.08297" lon="10.99858">
        <ele>625.100212</ele>
        <time>2022-09-13T14:28:24.460Z</time>
      </trkpt>
      <trkpt lat="48.08301" lon="10.99814">
        <ele>623.913403</ele>
        <time>2022-09-13T14:28:34.960Z</time>
      </trkpt>
      <trkpt lat="48.08362" lon="10.99494">
        <ele>617.078391</ele>
        <time>2022-09-13T14:29:53.134Z</time>
      </trkpt>
      <trkpt lat="48.08366" lon="10.99409">
        <ele>616.176269</ele>
        <time>2022-09-13T14:30:14.125Z</time>
      </trkpt>
      <trkpt lat="48.08277" lon="10.99049">
        <ele>615.552342</ele>
        <time>2022-09-13T14:32:03.360Z</time>
      </trkpt>
      <trkpt lat="48.08207" lon="10.98705">
        <ele>625.484242</ele>
        <time>2022-09-13T14:34:46.724Z</time>
      </trkpt>
      <trkpt lat="48.08183" lon="10.98658">
        <ele>627.129591</ele>
        <time>2022-09-13T14:35:13.985Z</time>
      </trkpt>
      <trkpt lat="48.08182" lon="10.98612">
        <ele>628.418722</ele>
        <time>2022-09-13T14:35:34.514Z</time>
      </trkpt>
      <trkpt lat="48.08201" lon="10.98561">
        <ele>630.027326</ele>
        <time>2022-09-13T14:35:58.712Z</time>
      </trkpt>
      <trkpt lat="48.08218" lon="10.98463">
        <ele>631.722956</ele>
        <time>2022-09-13T14:36:37.880Z</time>
      </trkpt>
      <trkpt lat="48.08231" lon="10.98434">
        <ele>632.026167</ele>
        <time>2022-09-13T14:36:50.065Z</time>
      </trkpt>
      <trkpt lat="48.08263" lon="10.9839">
        <ele>632.591842</ele>
        <time>2022-09-13T14:37:11.575Z</time>
      </trkpt>
      <trkpt lat="48.08291" lon="10.98327">
        <ele>633.255528</ele>
        <time>2022-09-13T14:37:35.669Z</time>
      </trkpt>
      <trkpt lat="48.08296" lon="10.9828">
        <ele>633.496067</ele>
        <time>2022-09-13T14:37:50.011Z</time>
      </trkpt>
      <trkpt lat="48.08308" lon="10.98157">
        <ele>632.925028</ele>
        <time>2022-09-13T14:38:25.466Z</time>
      </trkpt>
      <trkpt lat="48.08324" lon="10.98083">
        <ele>632.565641</ele>
        <time>2022-09-13T14:38:46.999Z</time>
      </trkpt>
      <trkpt lat="48.08338" lon="10.97906">
        <ele>630.381227</ele>
        <time>2022-09-13T14:39:32.755Z</time>
      </trkpt>
      <trkpt lat="48.08336" lon="10.9781">
        <ele>628.8715</ele>
        <time>2022-09-13T14:39:56.231Z</time>
      </trkpt>
      <trkpt lat="48.08286" lon="10.97551">
        <ele>623.319163</ele>
        <time>2022-09-13T14:40:59.818Z</time>
      </trkpt>
      <trkpt lat="48.0824" lon="10.97401">
        <ele>619.831532</ele>
        <time>2022-09-13T14:41:38.543Z</time>
      </trkpt>
      <trkpt lat="48.08232" lon="10.97361">
        <ele>618.964775</ele>
        <time>2022-09-13T14:41:48.289Z</time>
      </trkpt>
      <trkpt lat="48.08221" lon="10.97164">
        <ele>615.826957</ele>
        <time>2022-09-13T14:42:36.109Z</time>
      </trkpt>
      <trkpt lat="48.08215" lon="10.97128">
        <ele>615.477784</ele>
        <time>2022-09-13T14:42:45.368Z</time>
      </trkpt>
      <trkpt lat="48.08202" lon="10.97098">
        <ele>615.137561</ele>
        <time>2022-09-13T14:42:54.800Z</time>
      </trkpt>
      <trkpt lat="48.08199" lon="10.97091">
        <ele>615.056226</ele>
        <time>2022-09-13T14:42:56.096Z</time>
      </trkpt>
      <trkpt lat="48.08197" lon="10.97084">
        <ele>614.991017</ele>
        <time>2022-09-13T14:42:57.149Z</time>
      </trkpt>
      <trkpt lat="48.08196" lon="10.97077">
        <ele>614.92129</ele>
        <time>2022-09-13T14:42:58.329Z</time>
      </trkpt>
      <trkpt lat="48.08192" lon="10.97057">
        <ele>614.721081</ele>
        <time>2022-09-13T14:43:01.758Z</time>
      </trkpt>
      <trkpt lat="48.08191" lon="10.97041">
        <ele>614.57394</ele>
        <time>2022-09-13T14:43:04.331Z</time>
      </trkpt>
      <trkpt lat="48.08189" lon="10.96995">
        <ele>614.135353</ele>
        <time>2022-09-13T14:43:12.633Z</time>
      </trkpt>
      <trkpt lat="48.08187" lon="10.96949">
        <ele>614.395216</ele>
        <time>2022-09-13T14:43:21.382Z</time>
      </trkpt>
      <trkpt lat="48.08186" lon="10.96935">
        <ele>614.496429</ele>
        <time>2022-09-13T14:43:24.252Z</time>
      </trkpt>
      <trkpt lat="48.08185" lon="10.96925">
        <ele>614.566243</ele>
        <time>2022-09-13T14:43:26.232Z</time>
      </trkpt>
      <trkpt lat="48.08182" lon="10.96876">
        <ele>614.908779</ele>
        <time>2022-09-13T14:43:36.902Z</time>
      </trkpt>
      <trkpt lat="48.08182" lon="10.96871">
        <ele>614.943743</ele>
        <time>2022-09-13T14:43:38.036Z</time>
      </trkpt>
      <trkpt lat="48.0818" lon="10.96844">
        <ele>615.132145</ele>
        <time>2022-09-13T14:43:44.331Z</time>
      </trkpt>
      <trkpt lat="48.08175" lon="10.96808">
        <ele>615.38227</ele>
        <time>2022-09-13T14:43:52.758Z</time>
      </trkpt>
      <trkpt lat="48.08174" lon="10.96778">
        <ele>615.591357</ele>
        <time>2022-09-13T14:43:59.932Z</time>
      </trkpt>
      <trkpt lat="48.08178" lon="10.96737">
        <ele>615.882749</ele>
        <time>2022-09-13T14:44:09.758Z</time>
      </trkpt>
      <trkpt lat="48.08179" lon="10.96723">
        <ele>615.975897</ele>
        <time>2022-09-13T14:44:12.806Z</time>
      </trkpt>
      <trkpt lat="48.08181" lon="10.96708">
        <ele>616.083168</ele>
        <time>2022-09-13T14:44:16.238Z</time>
      </trkpt>
      <trkpt lat="48.08183" lon="10.96662">
        <ele>616.398032</ele>
        <time>2022-09-13T14:44:26.404Z</time>
      </trkpt>
      <trkpt lat="48.08184" lon="10.96643">
        <ele>616.535697</ele>
        <time>2022-09-13T14:44:30.740Z</time>
      </trkpt>
      <trkpt lat="48.08185" lon="10.96627">
        <ele>616.643082</ele>
        <time>2022-09-13T14:44:34.249Z</time>
      </trkpt>
      <trkpt lat="48.08183" lon="10.96569">
        <ele>617.042935</ele>
        <time>2022-09-13T14:44:45.813Z</time>
      </trkpt>
      <trkpt lat="48.08154" lon="10.96467">
        <ele>617.812585</ele>
        <time>2022-09-13T14:45:08.803Z</time>
      </trkpt>
      <trkpt lat="48.08146" lon="10.96448">
        <ele>618.12647</ele>
        <time>2022-09-13T14:45:13.267Z</time>
      </trkpt>
      <trkpt lat="48.08114" lon="10.96409">
        <ele>619.060679</ele>
        <time>2022-09-13T14:45:26.642Z</time>
      </trkpt>
      <trkpt lat="48.07944" lon="10.96235">
        <ele>624.389683</ele>
        <time>2022-09-13T14:46:49.929Z</time>
      </trkpt>
      <trkpt lat="48.07904" lon="10.96156">
        <ele>626.451278</ele>
        <time>2022-09-13T14:47:19.165Z</time>
      </trkpt>
      <trkpt lat="48.07889" lon="10.96107">
        <ele>627.516127</ele>
        <time>2022-09-13T14:47:34.148Z</time>
      </trkpt>
      <trkpt lat="48.07879" lon="10.96008">
        <ele>628.425317</ele>
        <time>2022-09-13T14:48:00.712Z</time>
      </trkpt>
      <trkpt lat="48.07878" lon="10.95946">
        <ele>628.988124</ele>
        <time>2022-09-13T14:48:15.126Z</time>
      </trkpt>
      <trkpt lat="48.07867" lon="10.95809">
        <ele>629.490572</ele>
        <time>2022-09-13T14:48:39.225Z</time>
      </trkpt>
      <trkpt lat="48.07858" lon="10.95771">
        <ele>628.98684</ele>
        <time>2022-09-13T14:48:44.955Z</time>
      </trkpt>
      <trkpt lat="48.07796" lon="10.95564">
        <ele>626.321414</ele>
        <time>2022-09-13T14:49:15.838Z</time>
      </trkpt>
      <trkpt lat="48.07772" lon="10.95425">
        <ele>625.313144</ele>
        <time>2022-09-13T14:49:38.223Z</time>
      </trkpt>
      <trkpt lat="48.07759" lon="10.95377">
        <ele>624.950765</ele>
        <time>2022-09-13T14:49:46.617Z</time>
      </trkpt>
      <trkpt lat="48.07749" lon="10.95344">
        <ele>624.700345</ele>
        <time>2022-09-13T14:49:52.559Z</time>
      </trkpt>
      <trkpt lat="48.0772" lon="10.953">
        <ele>623.989023</ele>
        <time>2022-09-13T14:50:03.629Z</time>
      </trkpt>
      <trkpt lat="48.07664" lon="10.95249">
        <ele>622.830548</ele>
        <time>2022-09-13T14:50:19.620Z</time>
      </trkpt>
      <trkpt lat="48.07566" lon="10.95133">
        <ele>619.091809</ele>
        <time>2022-09-13T14:50:43.863Z</time>
      </trkpt>
      <trkpt lat="48.07545" lon="10.95085">
        <ele>617.253343</ele>
        <time>2022-09-13T14:50:50.664Z</time>
      </trkpt>
      <trkpt lat="48.07502" lon="10.9494">
        <ele>612.290786</ele>
        <time>2022-09-13T14:51:09.413Z</time>
      </trkpt>
      <trkpt lat="48.07477" lon="10.94744">
        <ele>607.317258</ele>
        <time>2022-09-13T14:51:34.376Z</time>
      </trkpt>
      <trkpt lat="48.0745" lon="10.94537">
        <ele>605.297053</ele>
        <time>2022-09-13T14:52:06.937Z</time>
      </trkpt>
      <trkpt lat="48.07399" lon="10.94116">
        <ele>604.523358</ele>
        <time>2022-09-13T14:53:22.544Z</time>
      </trkpt>
      <trkpt lat="48.07366" lon="10.93554">
        <ele>603.746922</ele>
        <time>2022-09-13T14:54:58.483Z</time>
      </trkpt>
      <trkpt lat="48.07339" lon="10.9324">
        <ele>604.422205</ele>
        <time>2022-09-13T14:56:00.438Z</time>
      </trkpt>
      <trkpt lat="48.07333" lon="10.93171">
        <ele>604.700938</ele>
        <time>2022-09-13T14:56:15.120Z</time>
      </trkpt>
      <trkpt lat="48.0731" lon="10.93158">
        <ele>604.851358</ele>
        <time>2022-09-13T14:56:23.076Z</time>
      </trkpt>
      <trkpt lat="48.07287" lon="10.93149">
        <ele>604.989294</ele>
        <time>2022-09-13T14:56:30.390Z</time>
      </trkpt>
      <trkpt lat="48.07279" lon="10.93121">
        <ele>605.329138</ele>
        <time>2022-09-13T14:56:36.637Z</time>
      </trkpt>
      <trkpt lat="48.07276" lon="10.93112">
        <ele>605.457591</ele>
        <time>2022-09-13T14:56:38.722Z</time>
      </trkpt>
      <trkpt lat="48.0727" lon="10.9309">
        <ele>605.761549</ele>
        <time>2022-09-13T14:56:43.669Z</time>
      </trkpt>
      <trkpt lat="48.07261" lon="10.93058">
        <ele>606.192803</ele>
        <time>2022-09-13T14:56:50.977Z</time>
      </trkpt>
      <trkpt lat="48.07251" lon="10.93023">
        <ele>606.674158</ele>
        <time>2022-09-13T14:56:59.370Z</time>
      </trkpt>
      <trkpt lat="48.07244" lon="10.92985">
        <ele>607.169869</ele>
        <time>2022-09-13T14:57:08.544Z</time>
      </trkpt>
      <trkpt lat="48.07243" lon="10.92982">
        <ele>607.203835</ele>
        <time>2022-09-13T14:57:09.184Z</time>
      </trkpt>
      <trkpt lat="48.07241" lon="10.92974">
        <ele>607.317633</ele>
        <time>2022-09-13T14:57:11.361Z</time>
      </trkpt>
      <trkpt lat="48.07236" lon="10.92946">
        <ele>607.675749</ele>
        <time>2022-09-13T14:57:18.516Z</time>
      </trkpt>
      <trkpt lat="48.07234" lon="10.92933">
        <ele>607.849723</ele>
        <time>2022-09-13T14:57:22.118Z</time>
      </trkpt>
      <trkpt lat="48.0723" lon="10.92916">
        <ele>608.071973</ele>
        <time>2022-09-13T14:57:26.961Z</time>
      </trkpt>
      <trkpt lat="48.07229" lon="10.92908">
        <ele>608.17508</ele>
        <time>2022-09-13T14:57:29.230Z</time>
      </trkpt>
      <trkpt lat="48.07228" lon="10.92905">
        <ele>608.213193</ele>
        <time>2022-09-13T14:57:30.100Z</time>
      </trkpt>
      <trkpt lat="48.07221" lon="10.92872">
        <ele>609.000037</ele>
        <time>2022-09-13T14:57:40.336Z</time>
      </trkpt>
      <trkpt lat="48.07213" lon="10.92831">
        <ele>610.241888</ele>
        <time>2022-09-13T14:57:53.678Z</time>
      </trkpt>
      <trkpt lat="48.07207" lon="10.92805">
        <ele>611.061517</ele>
        <time>2022-09-13T14:58:02.839Z</time>
      </trkpt>
      <trkpt lat="48.07192" lon="10.92737">
        <ele>613.157017</ele>
        <time>2022-09-13T14:58:26.637Z</time>
      </trkpt>
      <trkpt lat="48.0719" lon="10.92729">
        <ele>613.388615</ele>
        <time>2022-09-13T14:58:29.259Z</time>
      </trkpt>
      <trkpt lat="48.07184" lon="10.92696">
        <ele>614.40566</ele>
        <time>2022-09-13T14:58:41.013Z</time>
      </trkpt>
      <trkpt lat="48.07183" lon="10.92689">
        <ele>614.612491</ele>
        <time>2022-09-13T14:58:43.389Z</time>
      </trkpt>
      <trkpt lat="48.07182" lon="10.92686">
        <ele>614.702908</ele>
        <time>2022-09-13T14:58:44.442Z</time>
      </trkpt>
      <trkpt lat="48.07176" lon="10.92654">
        <ele>615.666384</ele>
        <time>2022-09-13T14:58:55.532Z</time>
      </trkpt>
      <trkpt lat="48.07174" lon="10.92643">
        <ele>616.003741</ele>
        <time>2022-09-13T14:58:59.303Z</time>
      </trkpt>
      <trkpt lat="48.07168" lon="10.92604">
        <ele>616.821997</ele>
        <time>2022-09-13T14:59:12.274Z</time>
      </trkpt>
      <trkpt lat="48.07167" lon="10.92593">
        <ele>617.040774</ele>
        <time>2022-09-13T14:59:16.037Z</time>
      </trkpt>
      <trkpt lat="48.07161" lon="10.92558">
        <ele>617.696508</ele>
        <time>2022-09-13T14:59:27.279Z</time>
      </trkpt>
      <trkpt lat="48.07149" lon="10.92475">
        <ele>619.241011</ele>
        <time>2022-09-13T14:59:51.405Z</time>
      </trkpt>
      <trkpt lat="48.07148" lon="10.92469">
        <ele>619.353372</ele>
        <time>2022-09-13T14:59:53.028Z</time>
      </trkpt>
      <trkpt lat="48.07142" lon="10.92436">
        <ele>619.983247</ele>
        <time>2022-09-13T15:00:01.633Z</time>
      </trkpt>
      <trkpt lat="48.07152" lon="10.92427">
        <ele>620.303282</ele>
        <time>2022-09-13T15:00:05.536Z</time>
      </trkpt>
      <trkpt lat="48.07147" lon="10.92403">
        <ele>620.771201</ele>
        <time>2022-09-13T15:00:10.929Z</time>
      </trkpt>
      <trkpt lat="48.07126" lon="10.92397">
        <ele>621.127843</ele>
        <time>2022-09-13T15:00:16.723Z</time>
      </trkpt>
      <trkpt lat="48.07091" lon="10.92368">
        <ele>620.794516</ele>
        <time>2022-09-13T15:00:26.727Z</time>
      </trkpt>
      <trkpt lat="48.069" lon="10.92184">
        <ele>618.513016</ele>
        <time>2022-09-13T15:01:17.808Z</time>
      </trkpt>
      <trkpt lat="48.06855" lon="10.9214">
        <ele>617.83875</ele>
        <time>2022-09-13T15:01:29.644Z</time>
      </trkpt>
      <trkpt lat="48.06682" lon="10.91952">
        <ele>616.173496</ele>
        <time>2022-09-13T15:02:19.131Z</time>
      </trkpt>
      <trkpt lat="48.06527" lon="10.91824">
        <ele>618.560065</ele>
        <time>2022-09-13T15:03:19.189Z</time>
      </trkpt>
      <trkpt lat="48.06484" lon="10.91769">
        <ele>619.939811</ele>
        <time>2022-09-13T15:03:41.941Z</time>
      </trkpt>
      <trkpt lat="48.06351" lon="10.91565">
        <ele>624.198154</ele>
        <time>2022-09-13T15:04:55.879Z</time>
      </trkpt>
      <trkpt lat="48.06227" lon="10.91419">
        <ele>626.626018</ele>
        <time>2022-09-13T15:05:49.343Z</time>
      </trkpt>
      <trkpt lat="48.05958" lon="10.91086">
        <ele>628.304747</ele>
        <time>2022-09-13T15:07:29.782Z</time>
      </trkpt>
      <trkpt lat="48.05789" lon="10.90869">
        <ele>627.758633</ele>
        <time>2022-09-13T15:08:25.719Z</time>
      </trkpt>
      <trkpt lat="48.05753" lon="10.90794">
        <ele>627.556282</ele>
        <time>2022-09-13T15:08:41.194Z</time>
      </trkpt>
      <trkpt lat="48.05704" lon="10.90725">
        <ele>627.426314</ele>
        <time>2022-09-13T15:08:58.489Z</time>
      </trkpt>
      <trkpt lat="48.05688" lon="10.90715">
        <ele>627.432589</ele>
        <time>2022-09-13T15:09:02.956Z</time>
      </trkpt>
      <trkpt lat="48.05558" lon="10.90525">
        <ele>627.628547</ele>
        <time>2022-09-13T15:09:52.686Z</time>
      </trkpt>
      <trkpt lat="48.05515" lon="10.90458">
        <ele>627.834914</ele>
        <time>2022-09-13T15:10:11.131Z</time>
      </trkpt>
      <trkpt lat="48.05497" lon="10.90449">
        <ele>627.896509</ele>
        <time>2022-09-13T15:10:16.403Z</time>
      </trkpt>
      <trkpt lat="48.0549" lon="10.90446">
        <ele>627.919262</ele>
        <time>2022-09-13T15:10:18.393Z</time>
      </trkpt>
      <trkpt lat="48.05478" lon="10.90436">
        <ele>627.965461</ele>
        <time>2022-09-13T15:10:22.306Z</time>
      </trkpt>
      <trkpt lat="48.05475" lon="10.90421">
        <ele>627.999985</ele>
        <time>2022-09-13T15:10:25.226Z</time>
      </trkpt>
      <trkpt lat="48.05474" lon="10.90411">
        <ele>628.022644</ele>
        <time>2022-09-13T15:10:27.098Z</time>
      </trkpt>
      <trkpt lat="48.05467" lon="10.90397">
        <ele>628.060623</ele>
        <time>2022-09-13T15:10:30.387Z</time>
      </trkpt>
      <trkpt lat="48.05454" lon="10.90375">
        <ele>628.065409</ele>
        <time>2022-09-13T15:10:35.604Z</time>
      </trkpt>
      <trkpt lat="48.05449" lon="10.90347">
        <ele>628.050435</ele>
        <time>2022-09-13T15:10:40.817Z</time>
      </trkpt>
      <trkpt lat="48.05367" lon="10.90181">
        <ele>627.941853</ele>
        <time>2022-09-13T15:11:17.135Z</time>
      </trkpt>
      <trkpt lat="48.05301" lon="10.89987">
        <ele>627.803649</ele>
        <time>2022-09-13T15:11:53.856Z</time>
      </trkpt>
      <trkpt lat="48.05289" lon="10.89937">
        <ele>627.769943</ele>
        <time>2022-09-13T15:12:03.533Z</time>
      </trkpt>
      <trkpt lat="48.05277" lon="10.8991">
        <ele>627.928291</ele>
        <time>2022-09-13T15:12:09.864Z</time>
      </trkpt>
      <trkpt lat="48.0526" lon="10.89787">
        <ele>628.846208</ele>
        <time>2022-09-13T15:12:35.585Z</time>
      </trkpt>
      <trkpt lat="48.05253" lon="10.89774">
        <ele>628.96748</ele>
        <time>2022-09-13T15:12:39.212Z</time>
      </trkpt>
      <trkpt lat="48.05239" lon="10.89694">
        <ele>629.57779</ele>
        <time>2022-09-13T15:12:58.167Z</time>
      </trkpt>
      <trkpt lat="48.05176" lon="10.8944">
        <ele>632.559623</ele>
        <time>2022-09-13T15:14:03.265Z</time>
      </trkpt>
      <trkpt lat="48.05172" lon="10.89423">
        <ele>632.769989</ele>
        <time>2022-09-13T15:14:07.278Z</time>
      </trkpt>
      <trkpt lat="48.05137" lon="10.89291">
        <ele>633.068076</ele>
        <time>2022-09-13T15:14:35.302Z</time>
      </trkpt>
      <trkpt lat="48.05136" lon="10.89283">
        <ele>633.086558</ele>
        <time>2022-09-13T15:14:36.918Z</time>
      </trkpt>
      <trkpt lat="48.0514" lon="10.89278">
        <ele>633.103288</ele>
        <time>2022-09-13T15:14:38.349Z</time>
      </trkpt>
      <trkpt lat="48.05134" lon="10.89261">
        <ele>633.143349</ele>
        <time>2022-09-13T15:14:41.785Z</time>
      </trkpt>
      <trkpt lat="48.05128" lon="10.8924">
        <ele>633.189506</ele>
        <time>2022-09-13T15:14:45.881Z</time>
      </trkpt>
      <trkpt lat="48.05126" lon="10.89236">
        <ele>633.200675</ele>
        <time>2022-09-13T15:14:46.812Z</time>
      </trkpt>
      <trkpt lat="48.05125" lon="10.89231">
        <ele>633.210975</ele>
        <time>2022-09-13T15:14:47.655Z</time>
      </trkpt>
      <trkpt lat="48.0511" lon="10.89191">
        <ele>633.30563</ele>
        <time>2022-09-13T15:14:55.258Z</time>
      </trkpt>
      <trkpt lat="48.05105" lon="10.89178">
        <ele>633.330493</ele>
        <time>2022-09-13T15:14:57.519Z</time>
      </trkpt>
      <trkpt lat="48.051" lon="10.89166">
        <ele>633.313219</ele>
        <time>2022-09-13T15:14:59.834Z</time>
      </trkpt>
      <trkpt lat="48.05082" lon="10.89117">
        <ele>633.245257</ele>
        <time>2022-09-13T15:15:08.992Z</time>
      </trkpt>
      <trkpt lat="48.05055" lon="10.89046">
        <ele>633.147167</ele>
        <time>2022-09-13T15:15:22.481Z</time>
      </trkpt>
      <trkpt lat="48.05037" lon="10.88984">
        <ele>633.066334</ele>
        <time>2022-09-13T15:15:34.027Z</time>
      </trkpt>
      <trkpt lat="48.0501" lon="10.88835">
        <ele>633.720111</ele>
        <time>2022-09-13T15:16:05.092Z</time>
      </trkpt>
      <trkpt lat="48.04987" lon="10.88743">
        <ele>634.371645</ele>
        <time>2022-09-13T15:16:26.053Z</time>
      </trkpt>
      <trkpt lat="48.04982" lon="10.88724">
        <ele>634.510434</ele>
        <time>2022-09-13T15:16:30.716Z</time>
      </trkpt>
      <trkpt lat="48.0497" lon="10.88687">
        <ele>634.786511</ele>
        <time>2022-09-13T15:16:39.920Z</time>
      </trkpt>
      <trkpt lat="48.04968" lon="10.8868">
        <ele>634.8392</ele>
        <time>2022-09-13T15:16:41.586Z</time>
      </trkpt>
      <trkpt lat="48.0494" lon="10.88586">
        <ele>635.594403</ele>
        <time>2022-09-13T15:17:04.615Z</time>
      </trkpt>
      <trkpt lat="48.04931" lon="10.88553">
        <ele>635.857936</ele>
        <time>2022-09-13T15:17:12.472Z</time>
      </trkpt>
      <trkpt lat="48.04923" lon="10.8852">
        <ele>636.115737</ele>
        <time>2022-09-13T15:17:20.244Z</time>
      </trkpt>
      <trkpt lat="48.04915" lon="10.88491">
        <ele>636.348201</ele>
        <time>2022-09-13T15:17:27.054Z</time>
      </trkpt>
      <trkpt lat="48.04905" lon="10.88451">
        <ele>636.661959</ele>
        <time>2022-09-13T15:17:35.711Z</time>
      </trkpt>
      <trkpt lat="48.04904" lon="10.88446">
        <ele>636.698968</ele>
        <time>2022-09-13T15:17:36.775Z</time>
      </trkpt>
      <trkpt lat="48.04897" lon="10.88419">
        <ele>636.641141</ele>
        <time>2022-09-13T15:17:42.426Z</time>
      </trkpt>
      <trkpt lat="48.04897" lon="10.88416">
        <ele>636.612467</ele>
        <time>2022-09-13T15:17:43.071Z</time>
      </trkpt>
      <trkpt lat="48.04893" lon="10.88401">
        <ele>636.476361</ele>
        <time>2022-09-13T15:17:46.086Z</time>
      </trkpt>
      <trkpt lat="48.04889" lon="10.88382">
        <ele>636.305498</ele>
        <time>2022-09-13T15:17:49.829Z</time>
      </trkpt>
      <trkpt lat="48.04888" lon="10.88379">
        <ele>636.279645</ele>
        <time>2022-09-13T15:17:50.372Z</time>
      </trkpt>
      <trkpt lat="48.04885" lon="10.88365">
        <ele>636.153223</ele>
        <time>2022-09-13T15:17:52.863Z</time>
      </trkpt>
      <trkpt lat="48.04882" lon="10.88354">
        <ele>636.048412</ele>
        <time>2022-09-13T15:17:54.919Z</time>
      </trkpt>
      <trkpt lat="48.04869" lon="10.88301">
        <ele>635.57082</ele>
        <time>2022-09-13T15:18:03.867Z</time>
      </trkpt>
      <trkpt lat="48.04862" lon="10.88291">
        <ele>635.450536</ele>
        <time>2022-09-13T15:18:06.036Z</time>
      </trkpt>
      <trkpt lat="48.04875" lon="10.88277">
        <ele>635.253092</ele>
        <time>2022-09-13T15:18:09.390Z</time>
      </trkpt>
      <trkpt lat="48.04871" lon="10.88267">
        <ele>635.154499</ele>
        <time>2022-09-13T15:18:11.132Z</time>
      </trkpt>
      <trkpt lat="48.04865" lon="10.88246">
        <ele>634.953252</ele>
        <time>2022-09-13T15:18:14.624Z</time>
      </trkpt>
      <trkpt lat="48.04863" lon="10.8824">
        <ele>634.902949</ele>
        <time>2022-09-13T15:18:15.469Z</time>
      </trkpt>
      <trkpt lat="48.04863" lon="10.88235">
        <ele>634.858372</ele>
        <time>2022-09-13T15:18:16.205Z</time>
      </trkpt>
      <trkpt lat="48.04863" lon="10.88234">
        <ele>634.848918</ele>
        <time>2022-09-13T15:18:16.370Z</time>
      </trkpt>
      <trkpt lat="48.04862" lon="10.88227">
        <ele>634.78628</ele>
        <time>2022-09-13T15:18:17.404Z</time>
      </trkpt>
      <trkpt lat="48.04862" lon="10.88224">
        <ele>634.763146</ele>
        <time>2022-09-13T15:18:17.793Z</time>
      </trkpt>
      <trkpt lat="48.04861" lon="10.88219">
        <ele>634.72364</ele>
        <time>2022-09-13T15:18:18.447Z</time>
      </trkpt>
      <trkpt lat="48.04861" lon="10.88212">
        <ele>634.661146</ele>
        <time>2022-09-13T15:18:19.491Z</time>
      </trkpt>
      <trkpt lat="48.04859" lon="10.882">
        <ele>634.560525</ele>
        <time>2022-09-13T15:18:21.106Z</time>
      </trkpt>
      <trkpt lat="48.04858" lon="10.88176">
        <ele>633.819575</ele>
        <time>2022-09-13T15:18:24.433Z</time>
      </trkpt>
      <trkpt lat="48.04857" lon="10.88158">
        <ele>633.11033</ele>
        <time>2022-09-13T15:18:26.822Z</time>
      </trkpt>
      <trkpt lat="48.04855" lon="10.88148">
        <ele>632.700627</ele>
        <time>2022-09-13T15:18:28.169Z</time>
      </trkpt>
      <trkpt lat="48.04851" lon="10.88108">
        <ele>631.103081</ele>
        <time>2022-09-13T15:18:33.331Z</time>
      </trkpt>
      <trkpt lat="48.04848" lon="10.88078">
        <ele>629.920928</ele>
        <time>2022-09-13T15:18:37.090Z</time>
      </trkpt>
      <trkpt lat="48.04846" lon="10.8807">
        <ele>629.594804</ele>
        <time>2022-09-13T15:18:38.110Z</time>
      </trkpt>
      <trkpt lat="48.04844" lon="10.88052">
        <ele>628.888336</ele>
        <time>2022-09-13T15:18:40.321Z</time>
      </trkpt>
      <trkpt lat="48.04842" lon="10.88">
        <ele>626.825663</ele>
        <time>2022-09-13T15:18:46.629Z</time>
      </trkpt>
      <trkpt lat="48.04844" lon="10.87992">
        <ele>626.503191</ele>
        <time>2022-09-13T15:18:47.595Z</time>
      </trkpt>
      <trkpt lat="48.04851" lon="10.87967">
        <ele>625.427826</ele>
        <time>2022-09-13T15:18:50.821Z</time>
      </trkpt>
      <trkpt lat="48.04887" lon="10.87924">
        <ele>622.23028</ele>
        <time>2022-09-13T15:18:59.048Z</time>
      </trkpt>
      <trkpt lat="48.04909" lon="10.87899">
        <ele>619.960722</ele>
        <time>2022-09-13T15:19:03.960Z</time>
      </trkpt>
      <trkpt lat="48.04922" lon="10.87882">
        <ele>618.59796</ele>
        <time>2022-09-13T15:19:06.928Z</time>
      </trkpt>
      <trkpt lat="48.04927" lon="10.87874">
        <ele>617.985136</ele>
        <time>2022-09-13T15:19:08.231Z</time>
      </trkpt>
      <trkpt lat="48.04974" lon="10.87781">
        <ele>611.637645</ele>
        <time>2022-09-13T15:19:21.799Z</time>
      </trkpt>
      <trkpt lat="48.04953" lon="10.8778">
        <ele>609.970737</ele>
        <time>2022-09-13T15:19:25.383Z</time>
      </trkpt>
      <trkpt lat="48.04945" lon="10.87765">
        <ele>608.97816</ele>
        <time>2022-09-13T15:19:27.612Z</time>
      </trkpt>
      <trkpt lat="48.04958" lon="10.87758">
        <ele>608.130399</ele>
        <time>2022-09-13T15:19:29.876Z</time>
      </trkpt>
      <trkpt lat="48.04967" lon="10.87751">
        <ele>607.45448</ele>
        <time>2022-09-13T15:19:31.690Z</time>
      </trkpt>
      <trkpt lat="48.04968" lon="10.8775">
        <ele>607.433979</ele>
        <time>2022-09-13T15:19:31.748Z</time>
      </trkpt>
      <trkpt lat="48.04978" lon="10.87739">
        <ele>606.646641</ele>
        <time>2022-09-13T15:19:33.875Z</time>
      </trkpt>
      <trkpt lat="48.04981" lon="10.87723">
        <ele>605.945768</ele>
        <time>2022-09-13T15:19:35.840Z</time>
      </trkpt>
      <trkpt lat="48.04975" lon="10.87712">
        <ele>605.366998</ele>
        <time>2022-09-13T15:19:37.478Z</time>
      </trkpt>
      <trkpt lat="48.04927" lon="10.87669">
        <ele>601.828536</ele>
        <time>2022-09-13T15:19:47.626Z</time>
      </trkpt>
      <trkpt lat="48.04908" lon="10.8766">
        <ele>600.631199</ele>
        <time>2022-09-13T15:19:51.125Z</time>
      </trkpt>
      <trkpt lat="48.0487" lon="10.8765">
        <ele>598.191336</ele>
        <time>2022-09-13T15:19:58.030Z</time>
      </trkpt>
      <trkpt lat="48.04828" lon="10.87647">
        <ele>596.328166</ele>
        <time>2022-09-13T15:20:05.458Z</time>
      </trkpt>
      <trkpt lat="48.04809" lon="10.87646">
        <ele>595.49903</ele>
        <time>2022-09-13T15:20:09.042Z</time>
      </trkpt>
      <trkpt lat="48.04807" lon="10.87644">
        <ele>595.420914</ele>
        <time>2022-09-13T15:20:09.370Z</time>
      </trkpt>
      <trkpt lat="48.04805" lon="10.87642">
        <ele>595.316051</ele>
        <time>2022-09-13T15:20:09.795Z</time>
      </trkpt>
      <trkpt lat="48.04794" lon="10.87626">
        <ele>594.641721</ele>
        <time>2022-09-13T15:20:12.577Z</time>
      </trkpt>
      <trkpt lat="48.04782" lon="10.87609">
        <ele>593.93994</ele>
        <time>2022-09-13T15:20:15.758Z</time>
      </trkpt>
      <trkpt lat="48.0478" lon="10.87607">
        <ele>593.838586</ele>
        <time>2022-09-13T15:20:16.184Z</time>
      </trkpt>
      <trkpt lat="48.04775" lon="10.87596">
        <ele>593.466343</ele>
        <time>2022-09-13T15:20:17.743Z</time>
      </trkpt>
      <trkpt lat="48.04771" lon="10.87584">
        <ele>593.072091</ele>
        <time>2022-09-13T15:20:19.500Z</time>
      </trkpt>
      <trkpt lat="48.0477" lon="10.87582">
        <ele>593.009869</ele>
        <time>2022-09-13T15:20:19.779Z</time>
      </trkpt>
      <trkpt lat="48.04767" lon="10.87572">
        <ele>592.682975</ele>
        <time>2022-09-13T15:20:21.349Z</time>
      </trkpt>
      <trkpt lat="48.04726" lon="10.87429">
        <ele>589.639011</ele>
        <time>2022-09-13T15:20:42.537Z</time>
      </trkpt>
      <trkpt lat="48.04722" lon="10.87414">
        <ele>589.50181</ele>
        <time>2022-09-13T15:20:44.848Z</time>
      </trkpt>
      <trkpt lat="48.04717" lon="10.87399">
        <ele>589.35652</ele>
        <time>2022-09-13T15:20:47.212Z</time>
      </trkpt>
      <trkpt lat="48.0471" lon="10.87376">
        <ele>589.140943</ele>
        <time>2022-09-13T15:20:50.772Z</time>
      </trkpt>
      <trkpt lat="48.04699" lon="10.87341">
        <ele>588.812673</ele>
        <time>2022-09-13T15:20:56.730Z</time>
      </trkpt>
      <trkpt lat="48.04694" lon="10.87325">
        <ele>588.656116</ele>
        <time>2022-09-13T15:20:59.690Z</time>
      </trkpt>
      <trkpt lat="48.0469" lon="10.87312">
        <ele>588.529876</ele>
        <time>2022-09-13T15:21:02.242Z</time>
      </trkpt>
      <trkpt lat="48.04688" lon="10.87307">
        <ele>588.483622</ele>
        <time>2022-09-13T15:21:03.179Z</time>
      </trkpt>
      <trkpt lat="48.04677" lon="10.87273">
        <ele>588.163652</ele>
        <time>2022-09-13T15:21:10.102Z</time>
      </trkpt>
      <trkpt lat="48.04668" lon="10.87243">
        <ele>588.003365</ele>
        <time>2022-09-13T15:21:16.949Z</time>
      </trkpt>
      <trkpt lat="48.04659" lon="10.87215">
        <ele>588.324479</ele>
        <time>2022-09-13T15:21:23.689Z</time>
      </trkpt>
      <trkpt lat="48.04653" lon="10.87201">
        <ele>588.493002</ele>
        <time>2022-09-13T15:21:27.419Z</time>
      </trkpt>
      <trkpt lat="48.04643" lon="10.8718">
        <ele>588.772681</ele>
        <time>2022-09-13T15:21:33.524Z</time>
      </trkpt>
      <trkpt lat="48.04621" lon="10.87157">
        <ele>589.189418</ele>
        <time>2022-09-13T15:21:42.757Z</time>
      </trkpt>
      <trkpt lat="48.04583" lon="10.87132">
        <ele>589.837703</ele>
        <time>2022-09-13T15:21:57.255Z</time>
      </trkpt>
      <trkpt lat="48.04572" lon="10.87125">
        <ele>590.018841</ele>
        <time>2022-09-13T15:22:01.518Z</time>
      </trkpt>
      <trkpt lat="48.04564" lon="10.8712">
        <ele>590.162066</ele>
        <time>2022-09-13T15:22:04.845Z</time>
      </trkpt>
      <trkpt lat="48.04537" lon="10.87103">
        <ele>590.615112</ele>
        <time>2022-09-13T15:22:15.408Z</time>
      </trkpt>
      <trkpt lat="48.04535" lon="10.87102">
        <ele>590.650485</ele>
        <time>2022-09-13T15:22:16.206Z</time>
      </trkpt>
      <trkpt lat="48.04514" lon="10.87085">
        <ele>591.204947</ele>
        <time>2022-09-13T15:22:24.554Z</time>
      </trkpt>
      <trkpt lat="48.04496" lon="10.87067">
        <ele>591.782249</ele>
        <time>2022-09-13T15:22:32.637Z</time>
      </trkpt>
      <trkpt lat="48.04486" lon="10.87056">
        <ele>592.084295</ele>
        <time>2022-09-13T15:22:36.916Z</time>
      </trkpt>
      <trkpt lat="48.04459" lon="10.87022">
        <ele>593.01754</ele>
        <time>2022-09-13T15:22:50.701Z</time>
      </trkpt>
      <trkpt lat="48.0444" lon="10.86997">
        <ele>593.673763</ele>
        <time>2022-09-13T15:23:00.496Z</time>
      </trkpt>
      <trkpt lat="48.04406" lon="10.86945">
        <ele>594.94018</ele>
        <time>2022-09-13T15:23:20.143Z</time>
      </trkpt>
      <trkpt lat="48.04392" lon="10.86919">
        <ele>595.569162</ele>
        <time>2022-09-13T15:23:29.626Z</time>
      </trkpt>
      <trkpt lat="48.0439" lon="10.86915">
        <ele>595.677361</ele>
        <time>2022-09-13T15:23:30.969Z</time>
      </trkpt>
      <trkpt lat="48.04357" lon="10.86865">
        <ele>597.294207</ele>
        <time>2022-09-13T15:23:51.610Z</time>
      </trkpt>
      <trkpt lat="48.04318" lon="10.86815">
        <ele>599.069509</ele>
        <time>2022-09-13T15:24:15.650Z</time>
      </trkpt>
      <trkpt lat="48.04303" lon="10.86776">
        <ele>600.106611</ele>
        <time>2022-09-13T15:24:29.397Z</time>
      </trkpt>
      <trkpt lat="48.04292" lon="10.86744">
        <ele>600.938383</ele>
        <time>2022-09-13T15:24:39.889Z</time>
      </trkpt>
      <trkpt lat="48.04288" lon="10.86733">
        <ele>601.242155</ele>
        <time>2022-09-13T15:24:43.569Z</time>
      </trkpt>
      <trkpt lat="48.04284" lon="10.86721">
        <ele>601.556262</ele>
        <time>2022-09-13T15:24:47.239Z</time>
      </trkpt>
      <trkpt lat="48.04257" lon="10.8662">
        <ele>602.721202</ele>
        <time>2022-09-13T15:25:13.724Z</time>
      </trkpt>
      <trkpt lat="48.04246" lon="10.86569">
        <ele>603.265759</ele>
        <time>2022-09-13T15:25:25.636Z</time>
      </trkpt>
      <trkpt lat="48.04239" lon="10.86535">
        <ele>603.628765</ele>
        <time>2022-09-13T15:25:33.100Z</time>
      </trkpt>
      <trkpt lat="48.04234" lon="10.86513">
        <ele>603.866852</ele>
        <time>2022-09-13T15:25:38.112Z</time>
      </trkpt>
      <trkpt lat="48.04226" lon="10.86475">
        <ele>604.280265</ele>
        <time>2022-09-13T15:25:46.561Z</time>
      </trkpt>
      <trkpt lat="48.04218" lon="10.86455">
        <ele>604.4592</ele>
        <time>2022-09-13T15:25:51.168Z</time>
      </trkpt>
      <trkpt lat="48.04218" lon="10.86441">
        <ele>604.52836</ele>
        <time>2022-09-13T15:25:53.872Z</time>
      </trkpt>
      <trkpt lat="48.04225" lon="10.86385">
        <ele>604.801126</ele>
        <time>2022-09-13T15:26:04.431Z</time>
      </trkpt>
      <trkpt lat="48.04227" lon="10.86377">
        <ele>604.843767</ele>
        <time>2022-09-13T15:26:06.067Z</time>
      </trkpt>
      <trkpt lat="48.04231" lon="10.86361">
        <ele>604.92791</ele>
        <time>2022-09-13T15:26:09.343Z</time>
      </trkpt>
      <trkpt lat="48.04229" lon="10.86356">
        <ele>604.952845</ele>
        <time>2022-09-13T15:26:10.295Z</time>
      </trkpt>
      <trkpt lat="48.04228" lon="10.86346">
        <ele>605.002434</ele>
        <time>2022-09-13T15:26:12.167Z</time>
      </trkpt>
      <trkpt lat="48.04227" lon="10.86335">
        <ele>605.058599</ele>
        <time>2022-09-13T15:26:14.307Z</time>
      </trkpt>
      <trkpt lat="48.04244" lon="10.8633">
        <ele>605.188747</ele>
        <time>2022-09-13T15:26:19.461Z</time>
      </trkpt>
      <trkpt lat="48.0425" lon="10.86326">
        <ele>605.236645</ele>
        <time>2022-09-13T15:26:21.347Z</time>
      </trkpt>
      <trkpt lat="48.04245" lon="10.86314">
        <ele>605.30337</ele>
        <time>2022-09-13T15:26:24.022Z</time>
      </trkpt>
      <trkpt lat="48.0422" lon="10.86262">
        <ele>605.615426</ele>
        <time>2022-09-13T15:26:37.559Z</time>
      </trkpt>
      <trkpt lat="48.04213" lon="10.86248">
        <ele>605.69834</ele>
        <time>2022-09-13T15:26:41.521Z</time>
      </trkpt>
      <trkpt lat="48.04207" lon="10.86236">
        <ele>605.86064</ele>
        <time>2022-09-13T15:26:45.076Z</time>
      </trkpt>
      <trkpt lat="48.04206" lon="10.86234">
        <ele>605.886724</ele>
        <time>2022-09-13T15:26:45.578Z</time>
      </trkpt>
      <trkpt lat="48.0419" lon="10.86203">
        <ele>606.337623</ele>
        <time>2022-09-13T15:26:54.733Z</time>
      </trkpt>
      <trkpt lat="48.04175" lon="10.86172">
        <ele>606.784605</ele>
        <time>2022-09-13T15:27:03.982Z</time>
      </trkpt>
      <trkpt lat="48.04154" lon="10.86126">
        <ele>607.427214</ele>
        <time>2022-09-13T15:27:17.457Z</time>
      </trkpt>
      <trkpt lat="48.04139" lon="10.86069">
        <ele>608.149079</ele>
        <time>2022-09-13T15:27:32.418Z</time>
      </trkpt>
      <trkpt lat="48.04125" lon="10.86014">
        <ele>608.821998</ele>
        <time>2022-09-13T15:27:46.262Z</time>
      </trkpt>
      <trkpt lat="48.04119" lon="10.85992">
        <ele>608.966357</ele>
        <time>2022-09-13T15:27:51.747Z</time>
      </trkpt>
      <trkpt lat="48.04106" lon="10.85942">
        <ele>609.286787</ele>
        <time>2022-09-13T15:28:03.801Z</time>
      </trkpt>
      <trkpt lat="48.04099" lon="10.85916">
        <ele>609.455956</ele>
        <time>2022-09-13T15:28:09.774Z</time>
      </trkpt>
      <trkpt lat="48.04091" lon="10.85879">
        <ele>609.685734</ele>
        <time>2022-09-13T15:28:17.807Z</time>
      </trkpt>
      <trkpt lat="48.04075" lon="10.85834">
        <ele>609.989124</ele>
        <time>2022-09-13T15:28:27.842Z</time>
      </trkpt>
      <trkpt lat="48.04097" lon="10.85817">
        <ele>610.213333</ele>
        <time>2022-09-13T15:28:35.054Z</time>
      </trkpt>
      <trkpt lat="48.04124" lon="10.85805">
        <ele>610.428853</ele>
        <time>2022-09-13T15:28:42.767Z</time>
      </trkpt>
      <trkpt lat="48.04162" lon="10.85786">
        <ele>610.387301</ele>
        <time>2022-09-13T15:28:53.492Z</time>
      </trkpt>
      <trkpt lat="48.0418" lon="10.85777">
        <ele>610.366574</ele>
        <time>2022-09-13T15:28:58.796Z</time>
      </trkpt>
      <trkpt lat="48.04185" lon="10.85775">
        <ele>610.3617</ele>
        <time>2022-09-13T15:29:00.065Z</time>
      </trkpt>
      <trkpt lat="48.04209" lon="10.8576">
        <ele>610.334214</ele>
        <time>2022-09-13T15:29:07.180Z</time>
      </trkpt>
      <trkpt lat="48.04233" lon="10.85747">
        <ele>610.307348</ele>
        <time>2022-09-13T15:29:13.722Z</time>
      </trkpt>
      <trkpt lat="48.04247" lon="10.8574">
        <ele>610.29226</ele>
        <time>2022-09-13T15:29:17.220Z</time>
      </trkpt>
      <trkpt lat="48.04269" lon="10.85729">
        <ele>610.267468</ele>
        <time>2022-09-13T15:29:23.160Z</time>
      </trkpt>
      <trkpt lat="48.04304" lon="10.85711">
        <ele>610.217798</ele>
        <time>2022-09-13T15:29:32.392Z</time>
      </trkpt>
      <trkpt lat="48.04304" lon="10.85659">
        <ele>610.156297</ele>
        <time>2022-09-13T15:29:41.191Z</time>
      </trkpt>
      <trkpt lat="48.04303" lon="10.85574">
        <ele>610.05605</ele>
        <time>2022-09-13T15:29:56.220Z</time>
      </trkpt>
      <trkpt lat="48.04287" lon="10.85492">
        <ele>609.955219</ele>
        <time>2022-09-13T15:30:11.325Z</time>
      </trkpt>
      <trkpt lat="48.04284" lon="10.85462">
        <ele>609.92601</ele>
        <time>2022-09-13T15:30:16.469Z</time>
      </trkpt>
      <trkpt lat="48.04291" lon="10.85424">
        <ele>609.924911</ele>
        <time>2022-09-13T15:30:23.201Z</time>
      </trkpt>
      <trkpt lat="48.04298" lon="10.85359">
        <ele>609.923118</ele>
        <time>2022-09-13T15:30:34.722Z</time>
      </trkpt>
      <trkpt lat="48.04286" lon="10.8513">
        <ele>609.87569</ele>
        <time>2022-09-13T15:31:16.462Z</time>
      </trkpt>
      <trkpt lat="48.04285" lon="10.85015">
        <ele>609.805855</ele>
        <time>2022-09-13T15:31:36.097Z</time>
      </trkpt>
      <trkpt lat="48.04276" lon="10.84924">
        <ele>609.774574</ele>
        <time>2022-09-13T15:31:52.114Z</time>
      </trkpt>
      <trkpt lat="48.04278" lon="10.84843">
        <ele>609.946126</ele>
        <time>2022-09-13T15:32:06.589Z</time>
      </trkpt>
      <trkpt lat="48.04268" lon="10.84675">
        <ele>610.301203</ele>
        <time>2022-09-13T15:32:39.068Z</time>
      </trkpt>
      <trkpt lat="48.04252" lon="10.84597">
        <ele>610.777752</ele>
        <time>2022-09-13T15:32:55.593Z</time>
      </trkpt>
      <trkpt lat="48.04253" lon="10.84555">
        <ele>611.047864</ele>
        <time>2022-09-13T15:33:04.289Z</time>
      </trkpt>
      <trkpt lat="48.04242" lon="10.84465">
        <ele>611.633864</ele>
        <time>2022-09-13T15:33:23.685Z</time>
      </trkpt>
      <trkpt lat="48.0425" lon="10.84368">
        <ele>612.223665</ele>
        <time>2022-09-13T15:33:44.952Z</time>
      </trkpt>
      <trkpt lat="48.04245" lon="10.84287">
        <ele>612.659064</ele>
        <time>2022-09-13T15:34:02.944Z</time>
      </trkpt>
      <trkpt lat="48.04239" lon="10.84211">
        <ele>613.064924</ele>
        <time>2022-09-13T15:34:18.592Z</time>
      </trkpt>
      <trkpt lat="48.04237" lon="10.84195">
        <ele>613.149906</ele>
        <time>2022-09-13T15:34:21.730Z</time>
      </trkpt>
      <trkpt lat="48.04234" lon="10.8415">
        <ele>613.391926</ele>
        <time>2022-09-13T15:34:30.641Z</time>
      </trkpt>
      <trkpt lat="48.04229" lon="10.84122">
        <ele>613.442567</ele>
        <time>2022-09-13T15:34:36.005Z</time>
      </trkpt>
      <trkpt lat="48.04204" lon="10.84049">
        <ele>613.224202</ele>
        <time>2022-09-13T15:34:50.986Z</time>
      </trkpt>
      <trkpt lat="48.04198" lon="10.84028">
        <ele>613.163822</ele>
        <time>2022-09-13T15:34:54.921Z</time>
      </trkpt>
      <trkpt lat="48.04199" lon="10.84004">
        <ele>613.098938</ele>
        <time>2022-09-13T15:34:59.157Z</time>
      </trkpt>
      <trkpt lat="48.04225" lon="10.83901">
        <ele>612.805455</ele>
        <time>2022-09-13T15:35:17.520Z</time>
      </trkpt>
      <trkpt lat="48.04235" lon="10.83844">
        <ele>612.593288</ele>
        <time>2022-09-13T15:35:27.219Z</time>
      </trkpt>
      <trkpt lat="48.04238" lon="10.83693">
        <ele>611.993282</ele>
        <time>2022-09-13T15:35:52.398Z</time>
      </trkpt>
      <trkpt lat="48.04245" lon="10.83657">
        <ele>611.842867</ele>
        <time>2022-09-13T15:35:59.112Z</time>
      </trkpt>
      <trkpt lat="48.04248" lon="10.8361">
        <ele>611.684814</ele>
        <time>2022-09-13T15:36:07.589Z</time>
      </trkpt>
      <trkpt lat="48.04201" lon="10.83408">
        <ele>611.612015</ele>
        <time>2022-09-13T15:36:46.814Z</time>
      </trkpt>
      <trkpt lat="48.04184" lon="10.83269">
        <ele>611.743811</ele>
        <time>2022-09-13T15:37:14.045Z</time>
      </trkpt>
      <trkpt lat="48.04167" lon="10.8318">
        <ele>611.88866</ele>
        <time>2022-09-13T15:37:32.063Z</time>
      </trkpt>
      <trkpt lat="48.04154" lon="10.83136">
        <ele>611.965156</ele>
        <time>2022-09-13T15:37:41.676Z</time>
      </trkpt>
      <trkpt lat="48.04095" lon="10.82877">
        <ele>612.12519</ele>
        <time>2022-09-13T15:38:33.775Z</time>
      </trkpt>
      <trkpt lat="48.04047" lon="10.82673">
        <ele>611.626411</ele>
        <time>2022-09-13T15:39:09.988Z</time>
      </trkpt>
      <trkpt lat="48.04027" lon="10.82618">
        <ele>611.452679</ele>
        <time>2022-09-13T15:39:19.931Z</time>
      </trkpt>
      <trkpt lat="48.03974" lon="10.82385">
        <ele>611.081983</ele>
        <time>2022-09-13T15:40:01.241Z</time>
      </trkpt>
      <trkpt lat="48.03932" lon="10.82205">
        <ele>611.490205</ele>
        <time>2022-09-13T15:40:37.974Z</time>
      </trkpt>
      <trkpt lat="48.04027" lon="10.82168">
        <ele>611.879186</ele>
        <time>2022-09-13T15:41:07.582Z</time>
      </trkpt>
      <trkpt lat="48.04152" lon="10.82108">
        <ele>611.915137</ele>
        <time>2022-09-13T15:41:42.790Z</time>
      </trkpt>
      <trkpt lat="48.04245" lon="10.82076">
        <ele>611.537805</ele>
        <time>2022-09-13T15:42:06.491Z</time>
      </trkpt>
      <trkpt lat="48.04318" lon="10.82036">
        <ele>611.071177</ele>
        <time>2022-09-13T15:42:25.139Z</time>
      </trkpt>
      <trkpt lat="48.04312" lon="10.82025">
        <ele>611.018006</ele>
        <time>2022-09-13T15:42:27.175Z</time>
      </trkpt>
      <trkpt lat="48.04383" lon="10.81979">
        <ele>610.593469</ele>
        <time>2022-09-13T15:42:45.467Z</time>
      </trkpt>
      <trkpt lat="48.04386" lon="10.81992">
        <ele>610.543141</ele>
        <time>2022-09-13T15:42:47.868Z</time>
      </trkpt>
      <trkpt lat="48.0442" lon="10.81974">
        <ele>610.357742</ele>
        <time>2022-09-13T15:42:56.455Z</time>
      </trkpt>
      <trkpt lat="48.04543" lon="10.81926">
        <ele>609.858633</ele>
        <time>2022-09-13T15:43:29.172Z</time>
      </trkpt>
      <trkpt lat="48.04554" lon="10.81922">
        <ele>609.844022</ele>
        <time>2022-09-13T15:43:32.042Z</time>
      </trkpt>
      <trkpt lat="48.04626" lon="10.81896">
        <ele>609.746955</ele>
        <time>2022-09-13T15:43:51.699Z</time>
      </trkpt>
      <trkpt lat="48.04647" lon="10.81889">
        <ele>609.718229</ele>
        <time>2022-09-13T15:43:57.617Z</time>
      </trkpt>
      <trkpt lat="48.04746" lon="10.81853">
        <ele>609.371007</ele>
        <time>2022-09-13T15:44:23.438Z</time>
      </trkpt>
      <trkpt lat="48.04769" lon="10.8185">
        <ele>609.271136</ele>
        <time>2022-09-13T15:44:29.004Z</time>
      </trkpt>
      <trkpt lat="48.04778" lon="10.81856">
        <ele>609.226448</ele>
        <time>2022-09-13T15:44:31.488Z</time>
      </trkpt>
      <trkpt lat="48.04782" lon="10.81859">
        <ele>609.207845</ele>
        <time>2022-09-13T15:44:32.552Z</time>
      </trkpt>
      <trkpt lat="48.04786" lon="10.8186">
        <ele>609.188968</ele>
        <time>2022-09-13T15:44:33.601Z</time>
      </trkpt>
      <trkpt lat="48.04799" lon="10.81853">
        <ele>609.130618</ele>
        <time>2022-09-13T15:44:36.767Z</time>
      </trkpt>
      <trkpt lat="48.04801" lon="10.81846">
        <ele>609.107694</ele>
        <time>2022-09-13T15:44:38.015Z</time>
      </trkpt>
      <trkpt lat="48.04801" lon="10.81829">
        <ele>609.056373</ele>
        <time>2022-09-13T15:44:40.839Z</time>
      </trkpt>
      <trkpt lat="48.04796" lon="10.8182">
        <ele>609.021145</ele>
        <time>2022-09-13T15:44:42.757Z</time>
      </trkpt>
      <trkpt lat="48.04794" lon="10.81817">
        <ele>609.007367</ele>
        <time>2022-09-13T15:44:43.521Z</time>
      </trkpt>
      <trkpt lat="48.04772" lon="10.81767">
        <ele>608.842973</ele>
        <time>2022-09-13T15:44:53.840Z</time>
      </trkpt>
      <trkpt lat="48.04757" lon="10.81714">
        <ele>608.713231</ele>
        <time>2022-09-13T15:45:03.750Z</time>
      </trkpt>
      <trkpt lat="48.04709" lon="10.81446">
        <ele>608.553689</ele>
        <time>2022-09-13T15:45:53.165Z</time>
      </trkpt>
      <trkpt lat="48.0469" lon="10.813">
        <ele>609.048832</ele>
        <time>2022-09-13T15:46:22.491Z</time>
      </trkpt>
      <trkpt lat="48.04669" lon="10.811">
        <ele>613.033184</ele>
        <time>2022-09-13T15:47:13.403Z</time>
      </trkpt>
      <trkpt lat="48.0467" lon="10.80982">
        <ele>616.20691</ele>
        <time>2022-09-13T15:47:55.847Z</time>
      </trkpt>
      <trkpt lat="48.04686" lon="10.80821">
        <ele>624.579196</ele>
        <time>2022-09-13T15:49:07.237Z</time>
      </trkpt>
      <trkpt lat="48.04698" lon="10.8069">
        <ele>630.841258</ele>
        <time>2022-09-13T15:50:09.433Z</time>
      </trkpt>
      <trkpt lat="48.047" lon="10.80569">
        <ele>635.511108</ele>
        <time>2022-09-13T15:50:57.790Z</time>
      </trkpt>
      <trkpt lat="48.04709" lon="10.80408">
        <ele>639.884402</ele>
        <time>2022-09-13T15:51:46.580Z</time>
      </trkpt>
      <trkpt lat="48.04716" lon="10.80333">
        <ele>640.255145</ele>
        <time>2022-09-13T15:52:02.554Z</time>
      </trkpt>
      <trkpt lat="48.04711" lon="10.80227">
        <ele>640.774787</ele>
        <time>2022-09-13T15:52:20.944Z</time>
      </trkpt>
      <trkpt lat="48.04697" lon="10.80109">
        <ele>640.32149</ele>
        <time>2022-09-13T15:52:40.444Z</time>
      </trkpt>
      <trkpt lat="48.04671" lon="10.80005">
        <ele>639.562879</ele>
        <time>2022-09-13T15:52:58.064Z</time>
      </trkpt>
      <trkpt lat="48.04644" lon="10.79934">
        <ele>638.94878</ele>
        <time>2022-09-13T15:53:11.200Z</time>
      </trkpt>
      <trkpt lat="48.04637" lon="10.799">
        <ele>638.519517</ele>
        <time>2022-09-13T15:53:16.926Z</time>
      </trkpt>
      <trkpt lat="48.04644" lon="10.79867">
        <ele>638.117314</ele>
        <time>2022-09-13T15:53:22.441Z</time>
      </trkpt>
      <trkpt lat="48.04676" lon="10.79801">
        <ele>637.156966</ele>
        <time>2022-09-13T15:53:35.553Z</time>
      </trkpt>
      <trkpt lat="48.04743" lon="10.79625">
        <ele>632.602869</ele>
        <time>2022-09-13T15:54:04.178Z</time>
      </trkpt>
      <trkpt lat="48.04775" lon="10.79556">
        <ele>629.757931</ele>
        <time>2022-09-13T15:54:14.611Z</time>
      </trkpt>
      <trkpt lat="48.04813" lon="10.795">
        <ele>627.062818</ele>
        <time>2022-09-13T15:54:24.192Z</time>
      </trkpt>
      <trkpt lat="48.04794" lon="10.79406">
        <ele>623.129023</ele>
        <time>2022-09-13T15:54:35.841Z</time>
      </trkpt>
      <trkpt lat="48.04734" lon="10.79227">
        <ele>615.574741</ele>
        <time>2022-09-13T15:55:00.500Z</time>
      </trkpt>
      <trkpt lat="48.04681" lon="10.79099">
        <ele>613.881237</ele>
        <time>2022-09-13T15:55:23.047Z</time>
      </trkpt>
      <trkpt lat="48.04663" lon="10.79037">
        <ele>613.122709</ele>
        <time>2022-09-13T15:55:35.632Z</time>
      </trkpt>
      <trkpt lat="48.04634" lon="10.78902">
        <ele>612.914937</ele>
        <time>2022-09-13T15:56:06.640Z</time>
      </trkpt>
      <trkpt lat="48.04624" lon="10.78857">
        <ele>612.969551</ele>
        <time>2022-09-13T15:56:16.515Z</time>
      </trkpt>
      <trkpt lat="48.04622" lon="10.78847">
        <ele>612.981518</ele>
        <time>2022-09-13T15:56:18.575Z</time>
      </trkpt>
      <trkpt lat="48.04601" lon="10.78743">
        <ele>612.988914</ele>
        <time>2022-09-13T15:56:37.098Z</time>
      </trkpt>
      <trkpt lat="48.04602" lon="10.78697">
        <ele>612.422892</ele>
        <time>2022-09-13T15:56:44.296Z</time>
      </trkpt>
      <trkpt lat="48.0461" lon="10.78663">
        <ele>611.990689</ele>
        <time>2022-09-13T15:56:49.715Z</time>
      </trkpt>
      <trkpt lat="48.04635" lon="10.78601">
        <ele>611.104829</ele>
        <time>2022-09-13T15:57:00.542Z</time>
      </trkpt>
      <trkpt lat="48.04687" lon="10.78542">
        <ele>609.922244</ele>
        <time>2022-09-13T15:57:14.497Z</time>
      </trkpt>
      <trkpt lat="48.04723" lon="10.78506">
        <ele>609.530937</ele>
        <time>2022-09-13T15:57:23.997Z</time>
      </trkpt>
      <trkpt lat="48.04755" lon="10.78469">
        <ele>609.21481</ele>
        <time>2022-09-13T15:57:33.513Z</time>
      </trkpt>
      <trkpt lat="48.04768" lon="10.78453">
        <ele>609.082425</ele>
        <time>2022-09-13T15:57:37.748Z</time>
      </trkpt>
      <trkpt lat="48.04782" lon="10.7842">
        <ele>608.878251</ele>
        <time>2022-09-13T15:57:44.548Z</time>
      </trkpt>
      <trkpt lat="48.04785" lon="10.78411">
        <ele>608.820213</ele>
        <time>2022-09-13T15:57:46.531Z</time>
      </trkpt>
      <trkpt lat="48.0479" lon="10.78394">
        <ele>608.7223</ele>
        <time>2022-09-13T15:57:49.969Z</time>
      </trkpt>
      <trkpt lat="48.04811" lon="10.78336">
        <ele>608.459933</ele>
        <time>2022-09-13T15:58:02.668Z</time>
      </trkpt>
      <trkpt lat="48.04799" lon="10.78297">
        <ele>608.696804</ele>
        <time>2022-09-13T15:58:11.108Z</time>
      </trkpt>
      <trkpt lat="48.04795" lon="10.78271">
        <ele>608.843892</ele>
        <time>2022-09-13T15:58:16.428Z</time>
      </trkpt>
      <trkpt lat="48.04794" lon="10.78261">
        <ele>608.896367</ele>
        <time>2022-09-13T15:58:18.399Z</time>
      </trkpt>
      <trkpt lat="48.04791" lon="10.78227">
        <ele>609.087097</ele>
        <time>2022-09-13T15:58:25.507Z</time>
      </trkpt>
      <trkpt lat="48.04787" lon="10.78195">
        <ele>609.267767</ele>
        <time>2022-09-13T15:58:32.361Z</time>
      </trkpt>
      <trkpt lat="48.04783" lon="10.78162">
        <ele>609.454442</ele>
        <time>2022-09-13T15:58:39.392Z</time>
      </trkpt>
      <trkpt lat="48.0478" lon="10.78142">
        <ele>609.566229</ele>
        <time>2022-09-13T15:58:43.663Z</time>
      </trkpt>
      <trkpt lat="48.04779" lon="10.78135">
        <ele>609.60607</ele>
        <time>2022-09-13T15:58:45.155Z</time>
      </trkpt>
      <trkpt lat="48.04776" lon="10.78118">
        <ele>609.702263</ele>
        <time>2022-09-13T15:58:48.784Z</time>
      </trkpt>
      <trkpt lat="48.04763" lon="10.7804">
        <ele>610.27377</ele>
        <time>2022-09-13T15:59:06.269Z</time>
      </trkpt>
      <trkpt lat="48.04761" lon="10.78028">
        <ele>610.37872</ele>
        <time>2022-09-13T15:59:09.033Z</time>
      </trkpt>
      <trkpt lat="48.04753" lon="10.77986">
        <ele>610.739994</ele>
        <time>2022-09-13T15:59:18.775Z</time>
      </trkpt>
      <trkpt lat="48.04749" lon="10.77963">
        <ele>610.935814</ele>
        <time>2022-09-13T15:59:23.880Z</time>
      </trkpt>
      <trkpt lat="48.04738" lon="10.77906">
        <ele>611.43219</ele>
        <time>2022-09-13T15:59:36.968Z</time>
      </trkpt>
      <trkpt lat="48.04735" lon="10.77888">
        <ele>611.586072</ele>
        <time>2022-09-13T15:59:41.121Z</time>
      </trkpt>
      <trkpt lat="48.04734" lon="10.77879">
        <ele>611.667115</ele>
        <time>2022-09-13T15:59:43.177Z</time>
      </trkpt>
      <trkpt lat="48.04732" lon="10.77869">
        <ele>611.748967</ele>
        <time>2022-09-13T15:59:45.294Z</time>
      </trkpt>
      <trkpt lat="48.04727" lon="10.77838">
        <ele>612.018431</ele>
        <time>2022-09-13T15:59:52.351Z</time>
      </trkpt>
      <trkpt lat="48.04724" lon="10.77822">
        <ele>612.153678</ele>
        <time>2022-09-13T15:59:55.821Z</time>
      </trkpt>
      <trkpt lat="48.04718" lon="10.77786">
        <ele>612.40221</ele>
        <time>2022-09-13T16:00:03.906Z</time>
      </trkpt>
      <trkpt lat="48.04716" lon="10.77774">
        <ele>612.489424</ele>
        <time>2022-09-13T16:00:06.694Z</time>
      </trkpt>
      <trkpt lat="48.04714" lon="10.77763">
        <ele>612.565484</ele>
        <time>2022-09-13T16:00:09.158Z</time>
      </trkpt>
      <trkpt lat="48.04712" lon="10.77746">
        <ele>612.678268</ele>
        <time>2022-09-13T16:00:12.876Z</time>
      </trkpt>
      <trkpt lat="48.04707" lon="10.7772">
        <ele>612.858154</ele>
        <time>2022-09-13T16:00:18.696Z</time>
      </trkpt>
      <trkpt lat="48.04696" lon="10.77664">
        <ele>613.255319</ele>
        <time>2022-09-13T16:00:31.283Z</time>
      </trkpt>
      <trkpt lat="48.04701" lon="10.7763">
        <ele>613.482834</ele>
        <time>2022-09-13T16:00:38.743Z</time>
      </trkpt>
      <trkpt lat="48.04701" lon="10.77597">
        <ele>613.707165</ele>
        <time>2022-09-13T16:00:45.890Z</time>
      </trkpt>
      <trkpt lat="48.0469" lon="10.77558">
        <ele>613.971709</ele>
        <time>2022-09-13T16:00:54.538Z</time>
      </trkpt>
      <trkpt lat="48.04684" lon="10.7754">
        <ele>614.026302</ele>
        <time>2022-09-13T16:00:58.625Z</time>
      </trkpt>
      <trkpt lat="48.04676" lon="10.77519">
        <ele>614.093024</ele>
        <time>2022-09-13T16:01:03.467Z</time>
      </trkpt>
      <trkpt lat="48.04653" lon="10.77472">
        <ele>614.251393</ele>
        <time>2022-09-13T16:01:15.258Z</time>
      </trkpt>
      <trkpt lat="48.04662" lon="10.77435">
        <ele>614.357858</ele>
        <time>2022-09-13T16:01:23.085Z</time>
      </trkpt>
      <trkpt lat="48.04663" lon="10.77402">
        <ele>614.448218</ele>
        <time>2022-09-13T16:01:29.793Z</time>
      </trkpt>
      <trkpt lat="48.04653" lon="10.77325">
        <ele>614.659733</ele>
        <time>2022-09-13T16:01:44.643Z</time>
      </trkpt>
      <trkpt lat="48.04653" lon="10.77323">
        <ele>614.665935</ele>
        <time>2022-09-13T16:01:45.065Z</time>
      </trkpt>
      <trkpt lat="48.04651" lon="10.77316">
        <ele>614.686191</ele>
        <time>2022-09-13T16:01:46.373Z</time>
      </trkpt>
      <trkpt lat="48.04629" lon="10.77226">
        <ele>614.726619</ele>
        <time>2022-09-13T16:02:03.992Z</time>
      </trkpt>
      <trkpt lat="48.04593" lon="10.77112">
        <ele>614.776082</ele>
        <time>2022-09-13T16:02:26.552Z</time>
      </trkpt>
      <trkpt lat="48.04574" lon="10.77029">
        <ele>614.785567</ele>
        <time>2022-09-13T16:02:42.206Z</time>
      </trkpt>
      <trkpt lat="48.04571" lon="10.76691">
        <ele>614.616542</ele>
        <time>2022-09-13T16:03:42.242Z</time>
      </trkpt>
      <trkpt lat="48.04567" lon="10.76372">
        <ele>614.264692</ele>
        <time>2022-09-13T16:04:36.550Z</time>
      </trkpt>
      <trkpt lat="48.04571" lon="10.76031">
        <ele>614.083951</ele>
        <time>2022-09-13T16:05:36.540Z</time>
      </trkpt>
      <trkpt lat="48.04578" lon="10.7602">
        <ele>614.080356</ele>
        <time>2022-09-13T16:05:39.750Z</time>
      </trkpt>
      <trkpt lat="48.046" lon="10.76009">
        <ele>614.085591</ele>
        <time>2022-09-13T16:05:45.806Z</time>
      </trkpt>
      <trkpt lat="48.04629" lon="10.76009">
        <ele>614.125559</ele>
        <time>2022-09-13T16:05:53.753Z</time>
      </trkpt>
      <trkpt lat="48.04645" lon="10.75998">
        <ele>614.149868</ele>
        <time>2022-09-13T16:05:58.801Z</time>
      </trkpt>
      <trkpt lat="48.04653" lon="10.75977">
        <ele>614.172341</ele>
        <time>2022-09-13T16:06:03.118Z</time>
      </trkpt>
      <trkpt lat="48.04656" lon="10.75906">
        <ele>614.239354</ele>
        <time>2022-09-13T16:06:16.467Z</time>
      </trkpt>
      <trkpt lat="48.04656" lon="10.75588">
        <ele>614.480064</ele>
        <time>2022-09-13T16:07:13.800Z</time>
      </trkpt>
      <trkpt lat="48.04659" lon="10.75511">
        <ele>614.609251</ele>
        <time>2022-09-13T16:07:28.166Z</time>
      </trkpt>
      <trkpt lat="48.04656" lon="10.75269">
        <ele>615.341282</ele>
        <time>2022-09-13T16:08:14.909Z</time>
      </trkpt>
      <trkpt lat="48.0462" lon="10.74957">
        <ele>616.876531</ele>
        <time>2022-09-13T16:09:17.962Z</time>
      </trkpt>
      <trkpt lat="48.04551" lon="10.74572">
        <ele>619.514326</ele>
        <time>2022-09-13T16:10:44.314Z</time>
      </trkpt>
      <trkpt lat="48.04483" lon="10.74199">
        <ele>620.87243</ele>
        <time>2022-09-13T16:11:58.622Z</time>
      </trkpt>
      <trkpt lat="48.04428" lon="10.73885">
        <ele>620.969337</ele>
        <time>2022-09-13T16:12:57.418Z</time>
      </trkpt>
      <trkpt lat="48.0438" lon="10.7362">
        <ele>620.672432</ele>
        <time>2022-09-13T16:13:44.363Z</time>
      </trkpt>
      <trkpt lat="48.04355" lon="10.73473">
        <ele>620.512923</ele>
        <time>2022-09-13T16:14:10.026Z</time>
      </trkpt>
      <trkpt lat="48.04338" lon="10.73403">
        <ele>620.799376</ele>
        <time>2022-09-13T16:14:23.350Z</time>
      </trkpt>
      <trkpt lat="48.04334" lon="10.73398">
        <ele>620.846252</ele>
        <time>2022-09-13T16:14:24.844Z</time>
      </trkpt>
      <trkpt lat="48.04332" lon="10.73396">
        <ele>620.868175</ele>
        <time>2022-09-13T16:14:25.535Z</time>
      </trkpt>
      <trkpt lat="48.04279" lon="10.73358">
        <ele>621.424232</ele>
        <time>2022-09-13T16:14:43.577Z</time>
      </trkpt>
      <trkpt lat="48.04273" lon="10.73354">
        <ele>621.480284</ele>
        <time>2022-09-13T16:14:45.520Z</time>
      </trkpt>
      <trkpt lat="48.04262" lon="10.73347">
        <ele>621.596591</ele>
        <time>2022-09-13T16:14:49.691Z</time>
      </trkpt>
      <trkpt lat="48.04254" lon="10.73337">
        <ele>621.693248</ele>
        <time>2022-09-13T16:14:53.143Z</time>
      </trkpt>
      <trkpt lat="48.04239" lon="10.7332">
        <ele>621.872701</ele>
        <time>2022-09-13T16:14:59.776Z</time>
      </trkpt>
      <trkpt lat="48.04237" lon="10.73316">
        <ele>621.903749</ele>
        <time>2022-09-13T16:15:00.951Z</time>
      </trkpt>
      <trkpt lat="48.04221" lon="10.73291">
        <ele>622.120882</ele>
        <time>2022-09-13T16:15:09.118Z</time>
      </trkpt>
      <trkpt lat="48.04211" lon="10.73276">
        <ele>622.2274</ele>
        <time>2022-09-13T16:15:14.208Z</time>
      </trkpt>
      <trkpt lat="48.04183" lon="10.7323">
        <ele>622.485058</ele>
        <time>2022-09-13T16:15:28.880Z</time>
      </trkpt>
      <trkpt lat="48.04167" lon="10.73197">
        <ele>622.656037</ele>
        <time>2022-09-13T16:15:38.063Z</time>
      </trkpt>
      <trkpt lat="48.04142" lon="10.73138">
        <ele>622.94394</ele>
        <time>2022-09-13T16:15:52.414Z</time>
      </trkpt>
      <trkpt lat="48.04137" lon="10.73117">
        <ele>623.034705</ele>
        <time>2022-09-13T16:15:56.519Z</time>
      </trkpt>
      <trkpt lat="48.04135" lon="10.73109">
        <ele>623.072704</ele>
        <time>2022-09-13T16:15:58.217Z</time>
      </trkpt>
      <trkpt lat="48.04134" lon="10.73048">
        <ele>623.149346</ele>
        <time>2022-09-13T16:16:08.144Z</time>
      </trkpt>
      <trkpt lat="48.04134" lon="10.73042">
        <ele>623.049214</ele>
        <time>2022-09-13T16:16:08.954Z</time>
      </trkpt>
      <trkpt lat="48.04134" lon="10.73036">
        <ele>622.929055</ele>
        <time>2022-09-13T16:16:09.927Z</time>
      </trkpt>
      <trkpt lat="48.04133" lon="10.73014">
        <ele>622.540326</ele>
        <time>2022-09-13T16:16:13.001Z</time>
      </trkpt>
      <trkpt lat="48.04116" lon="10.72916">
        <ele>620.686982</ele>
        <time>2022-09-13T16:16:26.586Z</time>
      </trkpt>
      <trkpt lat="48.04109" lon="10.72862">
        <ele>619.680537</ele>
        <time>2022-09-13T16:16:33.686Z</time>
      </trkpt>
      <trkpt lat="48.04105" lon="10.72843">
        <ele>619.323819</ele>
        <time>2022-09-13T16:16:36.178Z</time>
      </trkpt>
      <trkpt lat="48.04103" lon="10.72828">
        <ele>619.061954</ele>
        <time>2022-09-13T16:16:37.991Z</time>
      </trkpt>
      <trkpt lat="48.04096" lon="10.72774">
        <ele>618.132732</ele>
        <time>2022-09-13T16:16:45.062Z</time>
      </trkpt>
      <trkpt lat="48.04083" lon="10.72694">
        <ele>616.985384</ele>
        <time>2022-09-13T16:16:55.873Z</time>
      </trkpt>
      <trkpt lat="48.04079" lon="10.72668">
        <ele>616.608552</ele>
        <time>2022-09-13T16:16:59.472Z</time>
      </trkpt>
      <trkpt lat="48.04074" lon="10.72632">
        <ele>616.103995</ele>
        <time>2022-09-13T16:17:04.493Z</time>
      </trkpt>
      <trkpt lat="48.04069" lon="10.72598">
        <ele>615.621087</ele>
        <time>2022-09-13T16:17:09.519Z</time>
      </trkpt>
      <trkpt lat="48.04066" lon="10.72598">
        <ele>615.556482</ele>
        <time>2022-09-13T16:17:10.234Z</time>
      </trkpt>
      <trkpt lat="48.04043" lon="10.72596">
        <ele>615.062073</ele>
        <time>2022-09-13T16:17:15.979Z</time>
      </trkpt>
      <trkpt lat="48.04008" lon="10.72597">
        <ele>614.676473</ele>
        <time>2022-09-13T16:17:25.341Z</time>
      </trkpt>
      <trkpt lat="48.03997" lon="10.72531">
        <ele>614.755357</ele>
        <time>2022-09-13T16:17:38.680Z</time>
      </trkpt>
      <trkpt lat="48.03988" lon="10.72483">
        <ele>614.812097</ele>
        <time>2022-09-13T16:17:50.874Z</time>
      </trkpt>
      <trkpt lat="48.03984" lon="10.72474">
        <ele>614.824956</ele>
        <time>2022-09-13T16:17:53.652Z</time>
      </trkpt>
      <trkpt lat="48.03971" lon="10.72449">
        <ele>614.861441</ele>
        <time>2022-09-13T16:18:01.512Z</time>
      </trkpt>
      <trkpt lat="48.03965" lon="10.72446">
        <ele>614.872775</ele>
        <time>2022-09-13T16:18:03.460Z</time>
      </trkpt>
      <trkpt lat="48.03964" lon="10.72439">
        <ele>614.880243</ele>
        <time>2022-09-13T16:18:05.041Z</time>
      </trkpt>
      <trkpt lat="48.03963" lon="10.72426">
        <ele>614.895379</ele>
        <time>2022-09-13T16:18:09.183Z</time>
      </trkpt>
      <trkpt lat="48.0396" lon="10.72381">
        <ele>614.947018</ele>
        <time>2022-09-13T16:18:20.090Z</time>
      </trkpt>
      <trkpt lat="48.03953" lon="10.72251">
        <ele>614.988919</ele>
        <time>2022-09-13T16:18:51.048Z</time>
      </trkpt>
      <trkpt lat="48.03957" lon="10.72251">
        <ele>614.990528</ele>
        <time>2022-09-13T16:18:52.542Z</time>
      </trkpt>
      <trkpt lat="48.03956" lon="10.72211">
        <ele>615.000175</ele>
        <time>2022-09-13T16:19:01.865Z</time>
      </trkpt>
      <trkpt lat="48.03947" lon="10.72204">
        <ele>615.003662</ele>
        <time>2022-09-13T16:19:05.068Z</time>
      </trkpt>
      <trkpt lat="48.03953" lon="10.72175">
        <ele>615.011165</ele>
        <time>2022-09-13T16:19:10.931Z</time>
      </trkpt>
      <trkpt lat="48.03947" lon="10.72162">
        <ele>615.014902</ele>
        <time>2022-09-13T16:19:13.700Z</time>
      </trkpt>
      <trkpt lat="48.03939" lon="10.72155">
        <ele>615.018351</ele>
        <time>2022-09-13T16:19:16.389Z</time>
      </trkpt>
      <trkpt lat="48.03925" lon="10.72138">
        <ele>615.024875</ele>
        <time>2022-09-13T16:19:21.513Z</time>
      </trkpt>
      <trkpt lat="48.03907" lon="10.72119">
        <ele>615.053289</ele>
        <time>2022-09-13T16:19:27.520Z</time>
      </trkpt>
      <trkpt lat="48.03887" lon="10.72094">
        <ele>615.088695</ele>
        <time>2022-09-13T16:19:34.618Z</time>
      </trkpt>
      <trkpt lat="48.03861" lon="10.72067">
        <ele>615.131119</ele>
        <time>2022-09-13T16:19:43.332Z</time>
      </trkpt>
      <trkpt lat="48.0385" lon="10.72058">
        <ele>615.148228</ele>
        <time>2022-09-13T16:19:46.835Z</time>
      </trkpt>
      <trkpt lat="48.03816" lon="10.72029">
        <ele>615.200909</ele>
        <time>2022-09-13T16:19:57.968Z</time>
      </trkpt>
      <trkpt lat="48.03806" lon="10.72021">
        <ele>615.217009</ele>
        <time>2022-09-13T16:20:01.397Z</time>
      </trkpt>
      <trkpt lat="48.03799" lon="10.72017">
        <ele>615.226707</ele>
        <time>2022-09-13T16:20:03.556Z</time>
      </trkpt>
      <trkpt lat="48.03762" lon="10.7199">
        <ele>615.278831</ele>
        <time>2022-09-13T16:20:15.832Z</time>
      </trkpt>
      <trkpt lat="48.03744" lon="10.71977">
        <ele>615.301067</ele>
        <time>2022-09-13T16:20:22.158Z</time>
      </trkpt>
      <trkpt lat="48.03752" lon="10.7192">
        <ele>615.343364</ele>
        <time>2022-09-13T16:20:33.449Z</time>
      </trkpt>
      <trkpt lat="48.03768" lon="10.71867">
        <ele>615.384824</ele>
        <time>2022-09-13T16:20:43.707Z</time>
      </trkpt>
      <trkpt lat="48.03774" lon="10.71856">
        <ele>615.394635</ele>
        <time>2022-09-13T16:20:45.994Z</time>
      </trkpt>
      <trkpt lat="48.03777" lon="10.71849">
        <ele>615.400846</ele>
        <time>2022-09-13T16:20:47.471Z</time>
      </trkpt>
      <trkpt lat="48.03781" lon="10.71841">
        <ele>615.408369</ele>
        <time>2022-09-13T16:20:49.258Z</time>
      </trkpt>
      <trkpt lat="48.03782" lon="10.71837">
        <ele>615.411451</ele>
        <time>2022-09-13T16:20:49.979Z</time>
      </trkpt>
      <trkpt lat="48.03777" lon="10.71809">
        <ele>615.432242</ele>
        <time>2022-09-13T16:20:54.930Z</time>
      </trkpt>
      <trkpt lat="48.03771" lon="10.71805">
        <ele>615.439706</ele>
        <time>2022-09-13T16:20:56.852Z</time>
      </trkpt>
      <trkpt lat="48.03773" lon="10.71794">
        <ele>615.447983</ele>
        <time>2022-09-13T16:20:58.948Z</time>
      </trkpt>
      <trkpt lat="48.03783" lon="10.71729">
        <ele>615.278125</ele>
        <time>2022-09-13T16:21:10.820Z</time>
      </trkpt>
      <trkpt lat="48.03789" lon="10.71676">
        <ele>615.075502</ele>
        <time>2022-09-13T16:21:19.963Z</time>
      </trkpt>
      <trkpt lat="48.03792" lon="10.71653">
        <ele>614.988346</ele>
        <time>2022-09-13T16:21:23.742Z</time>
      </trkpt>
      <trkpt lat="48.03795" lon="10.7162">
        <ele>614.863689</ele>
        <time>2022-09-13T16:21:29.056Z</time>
      </trkpt>
      <trkpt lat="48.03799" lon="10.71581">
        <ele>614.714296</ele>
        <time>2022-09-13T16:21:35.395Z</time>
      </trkpt>
      <trkpt lat="48.03801" lon="10.71567">
        <ele>614.659024</ele>
        <time>2022-09-13T16:21:37.677Z</time>
      </trkpt>
      <trkpt lat="48.03804" lon="10.71544">
        <ele>614.574006</ele>
        <time>2022-09-13T16:21:41.228Z</time>
      </trkpt>
      <trkpt lat="48.03805" lon="10.71527">
        <ele>614.508476</ele>
        <time>2022-09-13T16:21:43.938Z</time>
      </trkpt>
      <trkpt lat="48.03808" lon="10.71507">
        <ele>614.431308</ele>
        <time>2022-09-13T16:21:47.031Z</time>
      </trkpt>
      <trkpt lat="48.03809" lon="10.71491">
        <ele>614.363565</ele>
        <time>2022-09-13T16:21:49.589Z</time>
      </trkpt>
      <trkpt lat="48.03816" lon="10.71432">
        <ele>614.112792</ele>
        <time>2022-09-13T16:21:58.924Z</time>
      </trkpt>
      <trkpt lat="48.03818" lon="10.71419">
        <ele>614.060998</ele>
        <time>2022-09-13T16:22:00.884Z</time>
      </trkpt>
      <trkpt lat="48.03826" lon="10.71384">
        <ele>613.905272</ele>
        <time>2022-09-13T16:22:06.881Z</time>
      </trkpt>
      <trkpt lat="48.0382" lon="10.71373">
        <ele>613.84237</ele>
        <time>2022-09-13T16:22:09.441Z</time>
      </trkpt>
      <trkpt lat="48.03823" lon="10.71322">
        <ele>613.630361</ele>
        <time>2022-09-13T16:22:18.052Z</time>
      </trkpt>
      <trkpt lat="48.03826" lon="10.71266">
        <ele>613.396603</ele>
        <time>2022-09-13T16:22:27.830Z</time>
      </trkpt>
      <trkpt lat="48.03827" lon="10.7124">
        <ele>613.32535</ele>
        <time>2022-09-13T16:22:32.470Z</time>
      </trkpt>
      <trkpt lat="48.03828" lon="10.7123">
        <ele>613.319765</ele>
        <time>2022-09-13T16:22:34.350Z</time>
      </trkpt>
      <trkpt lat="48.03832" lon="10.7116">
        <ele>613.281724</ele>
        <time>2022-09-13T16:22:47.775Z</time>
      </trkpt>
      <trkpt lat="48.03832" lon="10.7115">
        <ele>613.276139</ele>
        <time>2022-09-13T16:22:49.766Z</time>
      </trkpt>
      <trkpt lat="48.03832" lon="10.71104">
        <ele>613.25145</ele>
        <time>2022-09-13T16:22:58.620Z</time>
      </trkpt>
      <trkpt lat="48.03832" lon="10.71057">
        <ele>613.226321</ele>
        <time>2022-09-13T16:23:07.304Z</time>
      </trkpt>
      <trkpt lat="48.03827" lon="10.71011">
        <ele>613.200904</ele>
        <time>2022-09-13T16:23:15.661Z</time>
      </trkpt>
      <trkpt lat="48.03826" lon="10.71002">
        <ele>613.196014</ele>
        <time>2022-09-13T16:23:17.244Z</time>
      </trkpt>
      <trkpt lat="48.0382" lon="10.7096">
        <ele>613.127097</ele>
        <time>2022-09-13T16:23:24.805Z</time>
      </trkpt>
      <trkpt lat="48.03817" lon="10.70929">
        <ele>613.048008</ele>
        <time>2022-09-13T16:23:30.194Z</time>
      </trkpt>
      <trkpt lat="48.03814" lon="10.70905">
        <ele>612.987357</ele>
        <time>2022-09-13T16:23:34.469Z</time>
      </trkpt>
      <trkpt lat="48.03813" lon="10.70894">
        <ele>612.959549</ele>
        <time>2022-09-13T16:23:36.437Z</time>
      </trkpt>
      <trkpt lat="48.03809" lon="10.70859">
        <ele>612.871344</ele>
        <time>2022-09-13T16:23:42.727Z</time>
      </trkpt>
      <trkpt lat="48.03808" lon="10.70847">
        <ele>612.8395</ele>
        <time>2022-09-13T16:23:44.969Z</time>
      </trkpt>
      <trkpt lat="48.03803" lon="10.70813">
        <ele>612.751285</ele>
        <time>2022-09-13T16:23:51.148Z</time>
      </trkpt>
      <trkpt lat="48.038" lon="10.70793">
        <ele>612.702045</ele>
        <time>2022-09-13T16:23:54.554Z</time>
      </trkpt>
      <trkpt lat="48.03795" lon="10.70758">
        <ele>612.61129</ele>
        <time>2022-09-13T16:24:00.813Z</time>
      </trkpt>
      <trkpt lat="48.03792" lon="10.70729">
        <ele>612.536406</ele>
        <time>2022-09-13T16:24:05.931Z</time>
      </trkpt>
      <trkpt lat="48.03788" lon="10.70704">
        <ele>612.479458</ele>
        <time>2022-09-13T16:24:10.280Z</time>
      </trkpt>
      <trkpt lat="48.03786" lon="10.70688">
        <ele>612.445307</ele>
        <time>2022-09-13T16:24:13.156Z</time>
      </trkpt>
      <trkpt lat="48.03782" lon="10.7065">
        <ele>612.366643</ele>
        <time>2022-09-13T16:24:19.831Z</time>
      </trkpt>
      <trkpt lat="48.03775" lon="10.70645">
        <ele>612.341497</ele>
        <time>2022-09-13T16:24:23.289Z</time>
      </trkpt>
      <trkpt lat="48.03781" lon="10.70644">
        <ele>612.32101</ele>
        <time>2022-09-13T16:24:24.963Z</time>
      </trkpt>
      <trkpt lat="48.0378" lon="10.70634">
        <ele>612.300403</ele>
        <time>2022-09-13T16:24:26.800Z</time>
      </trkpt>
      <trkpt lat="48.03779" lon="10.70619">
        <ele>612.269648</ele>
        <time>2022-09-13T16:24:29.318Z</time>
      </trkpt>
      <trkpt lat="48.03741" lon="10.70243">
        <ele>611.455891</ele>
        <time>2022-09-13T16:25:34.478Z</time>
      </trkpt>
      <trkpt lat="48.03711" lon="10.6985">
        <ele>609.935533</ele>
        <time>2022-09-13T16:26:38.258Z</time>
      </trkpt>
      <trkpt lat="48.03965" lon="10.6991">
        <ele>609.086324</ele>
        <time>2022-09-13T16:27:43.141Z</time>
      </trkpt>
      <trkpt lat="48.0396" lon="10.69488">
        <ele>609.112433</ele>
        <time>2022-09-13T16:29:00.293Z</time>
      </trkpt>
      <trkpt lat="48.03952" lon="10.69061">
        <ele>608.49033</ele>
        <time>2022-09-13T16:30:12.673Z</time>
      </trkpt>
      <trkpt lat="48.0395" lon="10.68861">
        <ele>608.578643</ele>
        <time>2022-09-13T16:30:48.423Z</time>
      </trkpt>
      <trkpt lat="48.03943" lon="10.68627">
        <ele>609.073521</ele>
        <time>2022-09-13T16:31:33.074Z</time>
      </trkpt>
      <trkpt lat="48.03916" lon="10.68353">
        <ele>610.157816</ele>
        <time>2022-09-13T16:32:27.412Z</time>
      </trkpt>
      <trkpt lat="48.03914" lon="10.68331">
        <ele>610.259231</ele>
        <time>2022-09-13T16:32:31.949Z</time>
      </trkpt>
      <trkpt lat="48.03902" lon="10.68218">
        <ele>610.766126</ele>
        <time>2022-09-13T16:32:55.778Z</time>
      </trkpt>
      <trkpt lat="48.039" lon="10.68199">
        <ele>610.822896</ele>
        <time>2022-09-13T16:32:59.893Z</time>
      </trkpt>
      <trkpt lat="48.03892" lon="10.68137">
        <ele>611.000327</ele>
        <time>2022-09-13T16:33:12.755Z</time>
      </trkpt>
      <trkpt lat="48.03884" lon="10.68071">
        <ele>611.189483</ele>
        <time>2022-09-13T16:33:25.995Z</time>
      </trkpt>
      <trkpt lat="48.03879" lon="10.68031">
        <ele>611.30507</ele>
        <time>2022-09-13T16:33:33.884Z</time>
      </trkpt>
      <trkpt lat="48.03876" lon="10.68007">
        <ele>611.374675</ele>
        <time>2022-09-13T16:33:38.640Z</time>
      </trkpt>
      <trkpt lat="48.03875" lon="10.67998">
        <ele>611.39941</ele>
        <time>2022-09-13T16:33:40.256Z</time>
      </trkpt>
      <trkpt lat="48.03873" lon="10.67987">
        <ele>611.430131</ele>
        <time>2022-09-13T16:33:42.283Z</time>
      </trkpt>
      <trkpt lat="48.03871" lon="10.67973">
        <ele>611.46985</ele>
        <time>2022-09-13T16:33:44.960Z</time>
      </trkpt>
      <trkpt lat="48.03867" lon="10.67938">
        <ele>611.514904</ele>
        <time>2022-09-13T16:33:51.680Z</time>
      </trkpt>
      <trkpt lat="48.03863" lon="10.67902">
        <ele>611.55195</ele>
        <time>2022-09-13T16:33:58.592Z</time>
      </trkpt>
      <trkpt lat="48.0386" lon="10.67874">
        <ele>611.581772</ele>
        <time>2022-09-13T16:34:04.281Z</time>
      </trkpt>
      <trkpt lat="48.03854" lon="10.6782">
        <ele>611.636938</ele>
        <time>2022-09-13T16:34:14.559Z</time>
      </trkpt>
      <trkpt lat="48.03853" lon="10.67807">
        <ele>611.651032</ele>
        <time>2022-09-13T16:34:17.177Z</time>
      </trkpt>
      <trkpt lat="48.03869" lon="10.67775">
        <ele>611.692014</ele>
        <time>2022-09-13T16:34:24.700Z</time>
      </trkpt>
      <trkpt lat="48.03889" lon="10.6774">
        <ele>611.738633</ele>
        <time>2022-09-13T16:34:33.538Z</time>
      </trkpt>
      <trkpt lat="48.03891" lon="10.67736">
        <ele>611.744428</ele>
        <time>2022-09-13T16:34:34.645Z</time>
      </trkpt>
      <trkpt lat="48.03903" lon="10.67713">
        <ele>611.777688</ele>
        <time>2022-09-13T16:34:40.283Z</time>
      </trkpt>
      <trkpt lat="48.03928" lon="10.67672">
        <ele>611.848989</ele>
        <time>2022-09-13T16:34:51.172Z</time>
      </trkpt>
      <trkpt lat="48.03934" lon="10.6766">
        <ele>611.867811</ele>
        <time>2022-09-13T16:34:54.038Z</time>
      </trkpt>
      <trkpt lat="48.03953" lon="10.67621">
        <ele>611.930035</ele>
        <time>2022-09-13T16:35:03.357Z</time>
      </trkpt>
      <trkpt lat="48.03981" lon="10.6759">
        <ele>611.996428</ele>
        <time>2022-09-13T16:35:13.232Z</time>
      </trkpt>
      <trkpt lat="48.03983" lon="10.67588">
        <ele>612.000717</ele>
        <time>2022-09-13T16:35:13.891Z</time>
      </trkpt>
      <trkpt lat="48.03988" lon="10.67583">
        <ele>612.011744</ele>
        <time>2022-09-13T16:35:15.472Z</time>
      </trkpt>
      <trkpt lat="48.04001" lon="10.67568">
        <ele>612.042988</ele>
        <time>2022-09-13T16:35:20.161Z</time>
      </trkpt>
      <trkpt lat="48.04046" lon="10.67581">
        <ele>612.093851</ele>
        <time>2022-09-13T16:35:33.434Z</time>
      </trkpt>
      <trkpt lat="48.04064" lon="10.67575">
        <ele>612.084029</ele>
        <time>2022-09-13T16:35:38.807Z</time>
      </trkpt>
      <trkpt lat="48.04069" lon="10.67571">
        <ele>612.081328</ele>
        <time>2022-09-13T16:35:40.311Z</time>
      </trkpt>
      <trkpt lat="48.04094" lon="10.67554">
        <ele>612.067357</ele>
        <time>2022-09-13T16:35:47.652Z</time>
      </trkpt>
      <trkpt lat="48.04093" lon="10.67498">
        <ele>612.04836</ele>
        <time>2022-09-13T16:35:57.269Z</time>
      </trkpt>
      <trkpt lat="48.04093" lon="10.6749">
        <ele>612.045378</ele>
        <time>2022-09-13T16:35:58.864Z</time>
      </trkpt>
      <trkpt lat="48.04092" lon="10.67484">
        <ele>612.043362</ele>
        <time>2022-09-13T16:35:59.934Z</time>
      </trkpt>
      <trkpt lat="48.04089" lon="10.67468">
        <ele>612.037585</ele>
        <time>2022-09-13T16:36:02.786Z</time>
      </trkpt>
      <trkpt lat="48.04083" lon="10.67437">
        <ele>612.026668</ele>
        <time>2022-09-13T16:36:08.462Z</time>
      </trkpt>
      <trkpt lat="48.04064" lon="10.67328">
        <ele>612.050483</ele>
        <time>2022-09-13T16:36:30.907Z</time>
      </trkpt>
      <trkpt lat="48.04047" lon="10.67309">
        <ele>612.07054</ele>
        <time>2022-09-13T16:36:37.003Z</time>
      </trkpt>
      <trkpt lat="48.04038" lon="10.67223">
        <ele>612.125819</ele>
        <time>2022-09-13T16:36:54.466Z</time>
      </trkpt>
      <trkpt lat="48.04036" lon="10.67206">
        <ele>612.137352</ele>
        <time>2022-09-13T16:36:57.710Z</time>
      </trkpt>
      <trkpt lat="48.04029" lon="10.67162">
        <ele>612.165955</ele>
        <time>2022-09-13T16:37:05.641Z</time>
      </trkpt>
      <trkpt lat="48.04017" lon="10.67133">
        <ele>612.112809</ele>
        <time>2022-09-13T16:37:11.532Z</time>
      </trkpt>
      <trkpt lat="48.04009" lon="10.6712">
        <ele>611.977638</ele>
        <time>2022-09-13T16:37:14.425Z</time>
      </trkpt>
      <trkpt lat="48.03999" lon="10.67109">
        <ele>611.833584</ele>
        <time>2022-09-13T16:37:17.454Z</time>
      </trkpt>
      <trkpt lat="48.03982" lon="10.67094">
        <ele>611.612146</ele>
        <time>2022-09-13T16:37:22.210Z</time>
      </trkpt>
      <trkpt lat="48.03973" lon="10.67079">
        <ele>611.45524</ele>
        <time>2022-09-13T16:37:25.595Z</time>
      </trkpt>
      <trkpt lat="48.03982" lon="10.67054">
        <ele>611.233432</ele>
        <time>2022-09-13T16:37:30.053Z</time>
      </trkpt>
      <trkpt lat="48.03993" lon="10.67016">
        <ele>610.918771</ele>
        <time>2022-09-13T16:37:36.357Z</time>
      </trkpt>
      <trkpt lat="48.03997" lon="10.6699">
        <ele>610.715171</ele>
        <time>2022-09-13T16:37:40.325Z</time>
      </trkpt>
      <trkpt lat="48.03997" lon="10.66986">
        <ele>610.68116</ele>
        <time>2022-09-13T16:37:40.998Z</time>
      </trkpt>
      <trkpt lat="48.04002" lon="10.66939">
        <ele>610.318512</ele>
        <time>2022-09-13T16:37:47.802Z</time>
      </trkpt>
      <trkpt lat="48.04004" lon="10.66923">
        <ele>610.19384</ele>
        <time>2022-09-13T16:37:50.112Z</time>
      </trkpt>
      <trkpt lat="48.04007" lon="10.66886">
        <ele>609.888152</ele>
        <time>2022-09-13T16:37:55.254Z</time>
      </trkpt>
      <trkpt lat="48.04" lon="10.66886">
        <ele>609.809076</ele>
        <time>2022-09-13T16:37:56.669Z</time>
      </trkpt>
      <trkpt lat="48.04017" lon="10.66618">
        <ele>607.731255</ele>
        <time>2022-09-13T16:38:37.549Z</time>
      </trkpt>
      <trkpt lat="48.04038" lon="10.66272">
        <ele>607.058446</ele>
        <time>2022-09-13T16:39:37.610Z</time>
      </trkpt>
      <trkpt lat="48.04058" lon="10.65905">
        <ele>606.914349</ele>
        <time>2022-09-13T16:40:42.768Z</time>
      </trkpt>
      <trkpt lat="48.04075" lon="10.65673">
        <ele>606.988798</ele>
        <time>2022-09-13T16:41:24.306Z</time>
      </trkpt>
      <trkpt lat="48.04077" lon="10.65634">
        <ele>607.007737</ele>
        <time>2022-09-13T16:41:31.519Z</time>
      </trkpt>
      <trkpt lat="48.04132" lon="10.64674">
        <ele>608.816247</ele>
        <time>2022-09-13T16:44:32.887Z</time>
      </trkpt>
      <trkpt lat="48.04124" lon="10.6463">
        <ele>608.877041</ele>
        <time>2022-09-13T16:44:41.199Z</time>
      </trkpt>
      <trkpt lat="48.04136" lon="10.64575">
        <ele>608.952086</ele>
        <time>2022-09-13T16:44:51.265Z</time>
      </trkpt>
      <trkpt lat="48.0414" lon="10.64564">
        <ele>608.969817</ele>
        <time>2022-09-13T16:44:53.718Z</time>
      </trkpt>
      <trkpt lat="48.04149" lon="10.64468">
        <ele>609.032511</ele>
        <time>2022-09-13T16:45:11.919Z</time>
      </trkpt>
      <trkpt lat="48.04154" lon="10.64387">
        <ele>609.035227</ele>
        <time>2022-09-13T16:45:27.990Z</time>
      </trkpt>
      <trkpt lat="48.04157" lon="10.6433">
        <ele>609.037163</ele>
        <time>2022-09-13T16:45:38.746Z</time>
      </trkpt>
      <trkpt lat="48.04173" lon="10.64166">
        <ele>608.729715</ele>
        <time>2022-09-13T16:46:07.633Z</time>
      </trkpt>
      <trkpt lat="48.04211" lon="10.63972">
        <ele>607.941885</ele>
        <time>2022-09-13T16:46:42.269Z</time>
      </trkpt>
      <trkpt lat="48.04273" lon="10.63722">
        <ele>606.255834</ele>
        <time>2022-09-13T16:47:24.944Z</time>
      </trkpt>
      <trkpt lat="48.04281" lon="10.63724">
        <ele>606.220438</ele>
        <time>2022-09-13T16:47:26.778Z</time>
      </trkpt>
      <trkpt lat="48.04314" lon="10.63714">
        <ele>606.068463</ele>
        <time>2022-09-13T16:47:35.372Z</time>
      </trkpt>
      <trkpt lat="48.04313" lon="10.63708">
        <ele>606.050268</ele>
        <time>2022-09-13T16:47:36.409Z</time>
      </trkpt>
      <trkpt lat="48.04319" lon="10.63507">
        <ele>605.486349</ele>
        <time>2022-09-13T16:48:14.491Z</time>
      </trkpt>
      <trkpt lat="48.04343" lon="10.62991">
        <ele>605.463652</ele>
        <time>2022-09-13T16:49:47.479Z</time>
      </trkpt>
      <trkpt lat="48.04343" lon="10.62752">
        <ele>605.246327</ele>
        <time>2022-09-13T16:50:29.114Z</time>
      </trkpt>
      <trkpt lat="48.04348" lon="10.62697">
        <ele>605.173088</ele>
        <time>2022-09-13T16:50:38.645Z</time>
      </trkpt>
      <trkpt lat="48.04426" lon="10.62375">
        <ele>604.747469</ele>
        <time>2022-09-13T16:51:36.415Z</time>
      </trkpt>
      <trkpt lat="48.0444" lon="10.62351">
        <ele>604.767189</ele>
        <time>2022-09-13T16:51:42.137Z</time>
      </trkpt>
      <trkpt lat="48.04488" lon="10.62306">
        <ele>604.81786</ele>
        <time>2022-09-13T16:51:57.702Z</time>
      </trkpt>
      <trkpt lat="48.045" lon="10.62286">
        <ele>604.834055</ele>
        <time>2022-09-13T16:52:02.972Z</time>
      </trkpt>
      <trkpt lat="48.04513" lon="10.62247">
        <ele>604.910511</ele>
        <time>2022-09-13T16:52:11.654Z</time>
      </trkpt>
      <trkpt lat="48.04515" lon="10.62231">
        <ele>604.989323</ele>
        <time>2022-09-13T16:52:15.017Z</time>
      </trkpt>
      <trkpt lat="48.04462" lon="10.62218">
        <ele>605.369035</ele>
        <time>2022-09-13T16:52:31.291Z</time>
      </trkpt>
      <trkpt lat="48.04435" lon="10.62201">
        <ele>605.581671</ele>
        <time>2022-09-13T16:52:40.797Z</time>
      </trkpt>
      <trkpt lat="48.04395" lon="10.6216">
        <ele>605.922058</ele>
        <time>2022-09-13T16:52:56.167Z</time>
      </trkpt>
      <trkpt lat="48.044" lon="10.62146">
        <ele>605.992937</ele>
        <time>2022-09-13T16:52:59.963Z</time>
      </trkpt>
      <trkpt lat="48.04342" lon="10.62092">
        <ele>606.208651</ele>
        <time>2022-09-13T16:53:21.308Z</time>
      </trkpt>
      <trkpt lat="48.04342" lon="10.62084">
        <ele>606.217915</ele>
        <time>2022-09-13T16:53:22.968Z</time>
      </trkpt>
      <trkpt lat="48.04341" lon="10.61994">
        <ele>606.319803</ele>
        <time>2022-09-13T16:53:40.099Z</time>
      </trkpt>
      <trkpt lat="48.04341" lon="10.61926">
        <ele>606.395711</ele>
        <time>2022-09-13T16:53:51.948Z</time>
      </trkpt>
      <trkpt lat="48.04336" lon="10.61563">
        <ele>605.813356</ele>
        <time>2022-09-13T16:54:56.479Z</time>
      </trkpt>
      <trkpt lat="48.04325" lon="10.61554">
        <ele>605.779014</ele>
        <time>2022-09-13T16:54:59.955Z</time>
      </trkpt>
      <trkpt lat="48.04323" lon="10.61376">
        <ele>605.449133</ele>
        <time>2022-09-13T16:55:30.603Z</time>
      </trkpt>
      <trkpt lat="48.04318" lon="10.61117">
        <ele>604.767256</ele>
        <time>2022-09-13T16:56:13.442Z</time>
      </trkpt>
      <trkpt lat="48.04317" lon="10.61067">
        <ele>604.768674</ele>
        <time>2022-09-13T16:56:21.626Z</time>
      </trkpt>
      <trkpt lat="48.04302" lon="10.60293">
        <ele>605.895525</ele>
        <time>2022-09-13T16:58:46.653Z</time>
      </trkpt>
      <trkpt lat="48.04302" lon="10.60278">
        <ele>605.868704</ele>
        <time>2022-09-13T16:58:49.472Z</time>
      </trkpt>
      <trkpt lat="48.04301" lon="10.60265">
        <ele>605.846976</ele>
        <time>2022-09-13T16:58:51.727Z</time>
      </trkpt>
      <trkpt lat="48.04299" lon="10.60158">
        <ele>605.66121</ele>
        <time>2022-09-13T16:59:10.274Z</time>
      </trkpt>
      <trkpt lat="48.043" lon="10.59944">
        <ele>605.268366</ele>
        <time>2022-09-13T16:59:45.916Z</time>
      </trkpt>
      <trkpt lat="48.04293" lon="10.59944">
        <ele>605.249948</ele>
        <time>2022-09-13T16:59:47.446Z</time>
      </trkpt>
      <trkpt lat="48.04292" lon="10.59833">
        <ele>605.026067</ele>
        <time>2022-09-13T17:00:05.990Z</time>
      </trkpt>
      <trkpt lat="48.04261" lon="10.5939">
        <ele>604.683947</ele>
        <time>2022-09-13T17:01:24.180Z</time>
      </trkpt>
      <trkpt lat="48.04254" lon="10.59103">
        <ele>604.443573</ele>
        <time>2022-09-13T17:02:14.654Z</time>
      </trkpt>
      <trkpt lat="48.04259" lon="10.591">
        <ele>604.43524</ele>
        <time>2022-09-13T17:02:16.026Z</time>
      </trkpt>
      <trkpt lat="48.04272" lon="10.59091">
        <ele>604.410892</ele>
        <time>2022-09-13T17:02:19.601Z</time>
      </trkpt>
      <trkpt lat="48.04281" lon="10.59054">
        <ele>604.36539</ele>
        <time>2022-09-13T17:02:26.428Z</time>
      </trkpt>
      <trkpt lat="48.04282" lon="10.59051">
        <ele>604.361634</ele>
        <time>2022-09-13T17:02:26.995Z</time>
      </trkpt>
      <trkpt lat="48.04286" lon="10.59033">
        <ele>604.339562</ele>
        <time>2022-09-13T17:02:30.242Z</time>
      </trkpt>
      <trkpt lat="48.04286" lon="10.59029">
        <ele>604.334876</ele>
        <time>2022-09-13T17:02:30.916Z</time>
      </trkpt>
      <trkpt lat="48.04277" lon="10.58997">
        <ele>604.295691</ele>
        <time>2022-09-13T17:02:36.906Z</time>
      </trkpt>
      <trkpt lat="48.0427" lon="10.58975">
        <ele>604.29616</ele>
        <time>2022-09-13T17:02:41.107Z</time>
      </trkpt>
      <trkpt lat="48.04266" lon="10.58932">
        <ele>604.357926</ele>
        <time>2022-09-13T17:02:48.757Z</time>
      </trkpt>
      <trkpt lat="48.04272" lon="10.58823">
        <ele>604.513061</ele>
        <time>2022-09-13T17:03:08.037Z</time>
      </trkpt>
      <trkpt lat="48.04294" lon="10.5827">
        <ele>606.946015</ele>
        <time>2022-09-13T17:04:58.457Z</time>
      </trkpt>
      <trkpt lat="48.04302" lon="10.57825">
        <ele>611.486546</ele>
        <time>2022-09-13T17:06:39.078Z</time>
      </trkpt>
      <trkpt lat="48.04298" lon="10.577">
        <ele>613.391787</ele>
        <time>2022-09-13T17:07:11.451Z</time>
      </trkpt>
      <trkpt lat="48.04302" lon="10.57675">
        <ele>613.790547</ele>
        <time>2022-09-13T17:07:18.261Z</time>
      </trkpt>
      <trkpt lat="48.04297" lon="10.57644">
        <ele>614.266787</ele>
        <time>2022-09-13T17:07:26.894Z</time>
      </trkpt>
      <trkpt lat="48.04292" lon="10.57519">
        <ele>616.871167</ele>
        <time>2022-09-13T17:08:01.761Z</time>
      </trkpt>
      <trkpt lat="48.04299" lon="10.57502">
        <ele>617.287661</ele>
        <time>2022-09-13T17:08:07.227Z</time>
      </trkpt>
      <trkpt lat="48.04291" lon="10.57488">
        <ele>617.66457</ele>
        <time>2022-09-13T17:08:12.124Z</time>
      </trkpt>
      <trkpt lat="48.04261" lon="10.5714">
        <ele>625.564575</ele>
        <time>2022-09-13T17:09:52.221Z</time>
      </trkpt>
      <trkpt lat="48.04266" lon="10.57108">
        <ele>626.38999</ele>
        <time>2022-09-13T17:10:02.312Z</time>
      </trkpt>
      <trkpt lat="48.04256" lon="10.57071">
        <ele>627.497499</ele>
        <time>2022-09-13T17:10:15.172Z</time>
      </trkpt>
      <trkpt lat="48.04243" lon="10.56933">
        <ele>631.366428</ele>
        <time>2022-09-13T17:10:59.436Z</time>
      </trkpt>
      <trkpt lat="48.0424" lon="10.56801">
        <ele>635.311713</ele>
        <time>2022-09-13T17:11:40.354Z</time>
      </trkpt>
      <trkpt lat="48.04246" lon="10.56674">
        <ele>639.490543</ele>
        <time>2022-09-13T17:12:20.656Z</time>
      </trkpt>
      <trkpt lat="48.04269" lon="10.56535">
        <ele>644.731679</ele>
        <time>2022-09-13T17:13:14.295Z</time>
      </trkpt>
      <trkpt lat="48.04316" lon="10.56341">
        <ele>653.615829</ele>
        <time>2022-09-13T17:14:35.653Z</time>
      </trkpt>
      <trkpt lat="48.04327" lon="10.56176">
        <ele>658.858962</ele>
        <time>2022-09-13T17:15:36.765Z</time>
      </trkpt>
      <trkpt lat="48.04327" lon="10.56123">
        <ele>660.509425</ele>
        <time>2022-09-13T17:15:52.207Z</time>
      </trkpt>
      <trkpt lat="48.04349" lon="10.56044">
        <ele>662.679936</ele>
        <time>2022-09-13T17:16:13.439Z</time>
      </trkpt>
      <trkpt lat="48.04351" lon="10.56016">
        <ele>663.051612</ele>
        <time>2022-09-13T17:16:20.318Z</time>
      </trkpt>
      <trkpt lat="48.04344" lon="10.5593">
        <ele>664.186703</ele>
        <time>2022-09-13T17:16:42.093Z</time>
      </trkpt>
      <trkpt lat="48.04365" lon="10.55792">
        <ele>666.005997</ele>
        <time>2022-09-13T17:17:14.505Z</time>
      </trkpt>
      <trkpt lat="48.04359" lon="10.55756">
        <ele>666.407717</ele>
        <time>2022-09-13T17:17:23.038Z</time>
      </trkpt>
      <trkpt lat="48.04342" lon="10.55728">
        <ele>666.811361</ele>
        <time>2022-09-13T17:17:31.720Z</time>
      </trkpt>
      <trkpt lat="48.043" lon="10.55695">
        <ele>667.574202</ele>
        <time>2022-09-13T17:17:48.272Z</time>
      </trkpt>
      <trkpt lat="48.04274" lon="10.55345">
        <ele>670.637285</ele>
        <time>2022-09-13T17:19:08.500Z</time>
      </trkpt>
      <trkpt lat="48.04255" lon="10.54942">
        <ele>667.832288</ele>
        <time>2022-09-13T17:20:13.212Z</time>
      </trkpt>
      <trkpt lat="48.04256" lon="10.54828">
        <ele>665.680154</ele>
        <time>2022-09-13T17:20:27.553Z</time>
      </trkpt>
      <trkpt lat="48.04274" lon="10.54775">
        <ele>664.592342</ele>
        <time>2022-09-13T17:20:34.774Z</time>
      </trkpt>
      <trkpt lat="48.04278" lon="10.54738">
        <ele>663.958609</ele>
        <time>2022-09-13T17:20:39.493Z</time>
      </trkpt>
      <trkpt lat="48.04275" lon="10.54725">
        <ele>663.720459</ele>
        <time>2022-09-13T17:20:41.078Z</time>
      </trkpt>
      <trkpt lat="48.04259" lon="10.54698">
        <ele>663.106538</ele>
        <time>2022-09-13T17:20:45.748Z</time>
      </trkpt>
      <trkpt lat="48.0425" lon="10.5467">
        <ele>662.592691</ele>
        <time>2022-09-13T17:20:49.434Z</time>
      </trkpt>
      <trkpt lat="48.04249" lon="10.54656">
        <ele>662.355755</ele>
        <time>2022-09-13T17:20:51.408Z</time>
      </trkpt>
      <trkpt lat="48.04256" lon="10.5464">
        <ele>662.040785</ele>
        <time>2022-09-13T17:20:54.157Z</time>
      </trkpt>
      <trkpt lat="48.04283" lon="10.54604">
        <ele>661.122045</ele>
        <time>2022-09-13T17:21:02.229Z</time>
      </trkpt>
      <trkpt lat="48.04295" lon="10.54575">
        <ele>660.553518</ele>
        <time>2022-09-13T17:21:07.489Z</time>
      </trkpt>
      <trkpt lat="48.04315" lon="10.54531">
        <ele>661.028018</ele>
        <time>2022-09-13T17:21:17.400Z</time>
      </trkpt>
      <trkpt lat="48.04321" lon="10.54518">
        <ele>661.372717</ele>
        <time>2022-09-13T17:21:22.177Z</time>
      </trkpt>
      <trkpt lat="48.04379" lon="10.54382">
        <ele>664.740262</ele>
        <time>2022-09-13T17:22:09.210Z</time>
      </trkpt>
      <trkpt lat="48.04418" lon="10.54246">
        <ele>667.857795</ele>
        <time>2022-09-13T17:23:00.082Z</time>
      </trkpt>
      <trkpt lat="48.04429" lon="10.54223">
        <ele>668.468976</ele>
        <time>2022-09-13T17:23:08.759Z</time>
      </trkpt>
      <trkpt lat="48.04461" lon="10.54091">
        <ele>671.433619</ele>
        <time>2022-09-13T17:23:44.159Z</time>
      </trkpt>
      <trkpt lat="48.04512" lon="10.53918">
        <ele>671.96394</ele>
        <time>2022-09-13T17:24:21.783Z</time>
      </trkpt>
      <trkpt lat="48.04527" lon="10.53828">
        <ele>672.086448</ele>
        <time>2022-09-13T17:24:37.030Z</time>
      </trkpt>
      <trkpt lat="48.04539" lon="10.53808">
        <ele>671.760788</ele>
        <time>2022-09-13T17:24:41.258Z</time>
      </trkpt>
      <trkpt lat="48.04548" lon="10.53725">
        <ele>670.781287</ele>
        <time>2022-09-13T17:24:53.556Z</time>
      </trkpt>
      <trkpt lat="48.04568" lon="10.53471">
        <ele>667.854522</ele>
        <time>2022-09-13T17:25:28.848Z</time>
      </trkpt>
      <trkpt lat="48.0459" lon="10.53196">
        <ele>665.884624</ele>
        <time>2022-09-13T17:26:10.871Z</time>
      </trkpt>
      <trkpt lat="48.0462" lon="10.52812">
        <ele>664.287998</ele>
        <time>2022-09-13T17:27:26.151Z</time>
      </trkpt>
      <trkpt lat="48.04651" lon="10.52514">
        <ele>652.608762</ele>
        <time>2022-09-13T17:28:01.500Z</time>
      </trkpt>
      <trkpt lat="48.04666" lon="10.52295">
        <ele>638.155169</ele>
        <time>2022-09-13T17:28:25.174Z</time>
      </trkpt>
      <trkpt lat="48.04676" lon="10.51985">
        <ele>620.434694</ele>
        <time>2022-09-13T17:28:59.621Z</time>
      </trkpt>
      <trkpt lat="48.04682" lon="10.51925">
        <ele>618.166681</ele>
        <time>2022-09-13T17:29:06.945Z</time>
      </trkpt>
      <trkpt lat="48.04691" lon="10.51762">
        <ele>613.198876</ele>
        <time>2022-09-13T17:29:27.139Z</time>
      </trkpt>
      <trkpt lat="48.047" lon="10.51692">
        <ele>611.223474</ele>
        <time>2022-09-13T17:29:36.515Z</time>
      </trkpt>
      <trkpt lat="48.04755" lon="10.51439">
        <ele>607.772312</ele>
        <time>2022-09-13T17:30:14.498Z</time>
      </trkpt>
      <trkpt lat="48.04781" lon="10.5129">
        <ele>606.957279</ele>
        <time>2022-09-13T17:30:38.859Z</time>
      </trkpt>
      <trkpt lat="48.04819" lon="10.51021">
        <ele>605.973248</ele>
        <time>2022-09-13T17:31:24.595Z</time>
      </trkpt>
      <trkpt lat="48.04821" lon="10.50952">
        <ele>605.800057</ele>
        <time>2022-09-13T17:31:36.121Z</time>
      </trkpt>
      <trkpt lat="48.04813" lon="10.50816">
        <ele>605.884644</ele>
        <time>2022-09-13T17:31:59.816Z</time>
      </trkpt>
      <trkpt lat="48.04812" lon="10.50795">
        <ele>605.919274</ele>
        <time>2022-09-13T17:32:03.943Z</time>
      </trkpt>
      <trkpt lat="48.04815" lon="10.50656">
        <ele>606.137817</ele>
        <time>2022-09-13T17:32:31.231Z</time>
      </trkpt>
      <trkpt lat="48.0481" lon="10.50606">
        <ele>606.166192</ele>
        <time>2022-09-13T17:32:41.044Z</time>
      </trkpt>
      <trkpt lat="48.04799" lon="10.50569">
        <ele>606.184379</ele>
        <time>2022-09-13T17:32:48.657Z</time>
      </trkpt>
      <trkpt lat="48.04798" lon="10.50545">
        <ele>606.195199</ele>
        <time>2022-09-13T17:32:53.274Z</time>
      </trkpt>
      <trkpt lat="48.04804" lon="10.50495">
        <ele>606.218166</ele>
        <time>2022-09-13T17:33:02.527Z</time>
      </trkpt>
      <trkpt lat="48.04807" lon="10.50462">
        <ele>606.23324</ele>
        <time>2022-09-13T17:33:08.659Z</time>
      </trkpt>
      <trkpt lat="48.04804" lon="10.50282">
        <ele>605.804419</ele>
        <time>2022-09-13T17:33:59.943Z</time>
      </trkpt>
      <trkpt lat="48.0481" lon="10.50282">
        <ele>605.76719</ele>
        <time>2022-09-13T17:34:01.342Z</time>
      </trkpt>
      <trkpt lat="48.04816" lon="10.50222">
        <ele>605.503462</ele>
        <time>2022-09-13T17:34:10.771Z</time>
      </trkpt>
      <trkpt lat="48.04824" lon="10.50161">
        <ele>605.231681</ele>
        <time>2022-09-13T17:34:20.445Z</time>
      </trkpt>
      <trkpt lat="48.04827" lon="10.50142">
        <ele>605.14758</ele>
        <time>2022-09-13T17:34:23.509Z</time>
      </trkpt>
      <trkpt lat="48.04833" lon="10.50094">
        <ele>605.00409</ele>
        <time>2022-09-13T17:34:31.281Z</time>
      </trkpt>
      <trkpt lat="48.04834" lon="10.50091">
        <ele>604.995314</ele>
        <time>2022-09-13T17:34:31.866Z</time>
      </trkpt>
      <trkpt lat="48.04834" lon="10.50085">
        <ele>604.979832</ele>
        <time>2022-09-13T17:34:32.886Z</time>
      </trkpt>
      <trkpt lat="48.04835" lon="10.50078">
        <ele>604.964036</ele>
        <time>2022-09-13T17:34:33.945Z</time>
      </trkpt>
      <trkpt lat="48.04836" lon="10.5005">
        <ele>604.893795</ele>
        <time>2022-09-13T17:34:38.755Z</time>
      </trkpt>
      <trkpt lat="48.04837" lon="10.50033">
        <ele>604.853278</ele>
        <time>2022-09-13T17:34:41.565Z</time>
      </trkpt>
      <trkpt lat="48.04836" lon="10.50003">
        <ele>604.778953</ele>
        <time>2022-09-13T17:34:46.687Z</time>
      </trkpt>
      <trkpt lat="48.04834" lon="10.49969">
        <ele>604.696518</ele>
        <time>2022-09-13T17:34:52.387Z</time>
      </trkpt>
      <trkpt lat="48.04833" lon="10.49956">
        <ele>604.662835</ele>
        <time>2022-09-13T17:34:54.649Z</time>
      </trkpt>
      <trkpt lat="48.04831" lon="10.49944">
        <ele>604.633313</ele>
        <time>2022-09-13T17:34:56.657Z</time>
      </trkpt>
      <trkpt lat="48.0483" lon="10.49936">
        <ele>604.613449</ele>
        <time>2022-09-13T17:34:58.001Z</time>
      </trkpt>
      <trkpt lat="48.04827" lon="10.49921">
        <ele>604.575393</ele>
        <time>2022-09-13T17:35:00.559Z</time>
      </trkpt>
      <trkpt lat="48.0482" lon="10.49876">
        <ele>604.461309</ele>
        <time>2022-09-13T17:35:08.505Z</time>
      </trkpt>
      <trkpt lat="48.04819" lon="10.49871">
        <ele>604.447987</ele>
        <time>2022-09-13T17:35:09.467Z</time>
      </trkpt>
      <trkpt lat="48.04809" lon="10.49808">
        <ele>604.556493</ele>
        <time>2022-09-13T17:35:21.265Z</time>
      </trkpt>
      <trkpt lat="48.04798" lon="10.49745">
        <ele>604.695663</ele>
        <time>2022-09-13T17:35:33.893Z</time>
      </trkpt>
      <trkpt lat="48.04789" lon="10.49694">
        <ele>604.810233</ele>
        <time>2022-09-13T17:35:44.577Z</time>
      </trkpt>
      <trkpt lat="48.04786" lon="10.49678">
        <ele>604.84511</ele>
        <time>2022-09-13T17:35:47.861Z</time>
      </trkpt>
      <trkpt lat="48.04782" lon="10.49657">
        <ele>604.891993</ele>
        <time>2022-09-13T17:35:52.115Z</time>
      </trkpt>
      <trkpt lat="48.04775" lon="10.49624">
        <ele>604.966392</ele>
        <time>2022-09-13T17:35:58.689Z</time>
      </trkpt>
      <trkpt lat="48.04764" lon="10.49574">
        <ele>605.036021</ele>
        <time>2022-09-13T17:36:08.199Z</time>
      </trkpt>
      <trkpt lat="48.04758" lon="10.49545">
        <ele>605.060747</ele>
        <time>2022-09-13T17:36:13.593Z</time>
      </trkpt>
      <trkpt lat="48.04755" lon="10.49529">
        <ele>605.074024</ele>
        <time>2022-09-13T17:36:16.610Z</time>
      </trkpt>
      <trkpt lat="48.04744" lon="10.49468">
        <ele>605.126066</ele>
        <time>2022-09-13T17:36:28.745Z</time>
      </trkpt>
      <trkpt lat="48.04738" lon="10.49439">
        <ele>605.150356</ele>
        <time>2022-09-13T17:36:34.438Z</time>
      </trkpt>
      <trkpt lat="48.0473" lon="10.49388">
        <ele>605.19394</ele>
        <time>2022-09-13T17:36:44.679Z</time>
      </trkpt>
      <trkpt lat="48.04726" lon="10.49361">
        <ele>605.215962</ele>
        <time>2022-09-13T17:36:49.658Z</time>
      </trkpt>
      <trkpt lat="48.04718" lon="10.49303">
        <ele>605.143766</ele>
        <time>2022-09-13T17:37:00.056Z</time>
      </trkpt>
      <trkpt lat="48.04711" lon="10.4925">
        <ele>605.036637</ele>
        <time>2022-09-13T17:37:09.194Z</time>
      </trkpt>
      <trkpt lat="48.04708" lon="10.49221">
        <ele>604.978656</ele>
        <time>2022-09-13T17:37:14.228Z</time>
      </trkpt>
      <trkpt lat="48.04707" lon="10.49203">
        <ele>604.942097</ele>
        <time>2022-09-13T17:37:17.378Z</time>
      </trkpt>
      <trkpt lat="48.04705" lon="10.49188">
        <ele>604.912135</ele>
        <time>2022-09-13T17:37:20.083Z</time>
      </trkpt>
      <trkpt lat="48.04704" lon="10.49176">
        <ele>604.887553</ele>
        <time>2022-09-13T17:37:22.348Z</time>
      </trkpt>
      <trkpt lat="48.04703" lon="10.49166">
        <ele>604.867958</ele>
        <time>2022-09-13T17:37:24.116Z</time>
      </trkpt>
      <trkpt lat="48.04701" lon="10.4914">
        <ele>604.817026</ele>
        <time>2022-09-13T17:37:28.742Z</time>
      </trkpt>
      <trkpt lat="48.047" lon="10.49127">
        <ele>604.790441</ele>
        <time>2022-09-13T17:37:31.261Z</time>
      </trkpt>
      <trkpt lat="48.04699" lon="10.49123">
        <ele>604.782821</ele>
        <time>2022-09-13T17:37:31.966Z</time>
      </trkpt>
      <trkpt lat="48.04696" lon="10.49106">
        <ele>604.747609</ele>
        <time>2022-09-13T17:37:35.161Z</time>
      </trkpt>
      <trkpt lat="48.04693" lon="10.49085">
        <ele>604.704704</ele>
        <time>2022-09-13T17:37:39.056Z</time>
      </trkpt>
      <trkpt lat="48.0468" lon="10.49024">
        <ele>604.564358</ele>
        <time>2022-09-13T17:37:50.529Z</time>
      </trkpt>
      <trkpt lat="48.04665" lon="10.48958">
        <ele>604.408933</ele>
        <time>2022-09-13T17:38:06.365Z</time>
      </trkpt>
      <trkpt lat="48.04657" lon="10.48927">
        <ele>604.335697</ele>
        <time>2022-09-13T17:38:13.722Z</time>
      </trkpt>
      <trkpt lat="48.04643" lon="10.48869">
        <ele>604.198664</ele>
        <time>2022-09-13T17:38:27.398Z</time>
      </trkpt>
      <trkpt lat="48.04627" lon="10.48804">
        <ele>603.992289</ele>
        <time>2022-09-13T17:38:43.189Z</time>
      </trkpt>
      <trkpt lat="48.04587" lon="10.4865">
        <ele>603.272788</ele>
        <time>2022-09-13T17:39:19.092Z</time>
      </trkpt>
      <trkpt lat="48.04575" lon="10.48586">
        <ele>602.983209</ele>
        <time>2022-09-13T17:39:33.118Z</time>
      </trkpt>
      <trkpt lat="48.04577" lon="10.48577">
        <ele>602.942323</ele>
        <time>2022-09-13T17:39:35.114Z</time>
      </trkpt>
      <trkpt lat="48.0458" lon="10.48563">
        <ele>602.9957</ele>
        <time>2022-09-13T17:39:38.156Z</time>
      </trkpt>
      <trkpt lat="48.04581" lon="10.48547">
        <ele>603.093643</ele>
        <time>2022-09-13T17:39:41.633Z</time>
      </trkpt>
      <trkpt lat="48.04582" lon="10.48532">
        <ele>603.181875</ele>
        <time>2022-09-13T17:39:44.762Z</time>
      </trkpt>
      <trkpt lat="48.04582" lon="10.48521">
        <ele>603.248434</ele>
        <time>2022-09-13T17:39:47.135Z</time>
      </trkpt>
      <trkpt lat="48.04579" lon="10.48485">
        <ele>603.465673</ele>
        <time>2022-09-13T17:39:55.182Z</time>
      </trkpt>
      <trkpt lat="48.04578" lon="10.48467">
        <ele>603.574284</ele>
        <time>2022-09-13T17:39:58.218Z</time>
      </trkpt>
      <trkpt lat="48.04577" lon="10.48461">
        <ele>603.60826</ele>
        <time>2022-09-13T17:39:59.249Z</time>
      </trkpt>
      <trkpt lat="48.04577" lon="10.48454">
        <ele>603.650196</ele>
        <time>2022-09-13T17:40:00.490Z</time>
      </trkpt>
      <trkpt lat="48.04575" lon="10.48442">
        <ele>603.720674</ele>
        <time>2022-09-13T17:40:02.570Z</time>
      </trkpt>
      <trkpt lat="48.04574" lon="10.48428">
        <ele>603.804928</ele>
        <time>2022-09-13T17:40:05.072Z</time>
      </trkpt>
      <trkpt lat="48.04573" lon="10.48421">
        <ele>603.851232</ele>
        <time>2022-09-13T17:40:06.443Z</time>
      </trkpt>
      <trkpt lat="48.04571" lon="10.48406">
        <ele>603.940746</ele>
        <time>2022-09-13T17:40:09.537Z</time>
      </trkpt>
      <trkpt lat="48.04567" lon="10.48385">
        <ele>604.069794</ele>
        <time>2022-09-13T17:40:14.201Z</time>
      </trkpt>
      <trkpt lat="48.04566" lon="10.48378">
        <ele>604.112965</ele>
        <time>2022-09-13T17:40:15.775Z</time>
      </trkpt>
      <trkpt lat="48.04555" lon="10.48318">
        <ele>604.482567</ele>
        <time>2022-09-13T17:40:31.673Z</time>
      </trkpt>
      <trkpt lat="48.04559" lon="10.48317">
        <ele>604.521561</ele>
        <time>2022-09-13T17:40:33.520Z</time>
      </trkpt>
      <trkpt lat="48.0454" lon="10.48216">
        <ele>608.500072</ele>
        <time>2022-09-13T17:41:10.445Z</time>
      </trkpt>
      <trkpt lat="48.04535" lon="10.48174">
        <ele>610.111457</ele>
        <time>2022-09-13T17:41:27.060Z</time>
      </trkpt>
      <trkpt lat="48.0453" lon="10.48117">
        <ele>612.304682</ele>
        <time>2022-09-13T17:41:49.550Z</time>
      </trkpt>
      <trkpt lat="48.04525" lon="10.48119">
        <ele>612.613047</ele>
        <time>2022-09-13T17:41:52.316Z</time>
      </trkpt>
      <trkpt lat="48.04524" lon="10.48107">
        <ele>613.06497</ele>
        <time>2022-09-13T17:41:57.136Z</time>
      </trkpt>
      <trkpt lat="48.04523" lon="10.48096">
        <ele>613.493186</ele>
        <time>2022-09-13T17:42:01.758Z</time>
      </trkpt>
      <trkpt lat="48.04522" lon="10.48075">
        <ele>614.284922</ele>
        <time>2022-09-13T17:42:10.141Z</time>
      </trkpt>
      <trkpt lat="48.04522" lon="10.48028">
        <ele>616.614782</ele>
        <time>2022-09-13T17:42:29.059Z</time>
      </trkpt>
      <trkpt lat="48.04523" lon="10.48022">
        <ele>616.952195</ele>
        <time>2022-09-13T17:42:31.601Z</time>
      </trkpt>
      <trkpt lat="48.04531" lon="10.47993">
        <ele>618.658168</ele>
        <time>2022-09-13T17:42:44.311Z</time>
      </trkpt>
      <trkpt lat="48.04559" lon="10.47965">
        <ele>621.362739</ele>
        <time>2022-09-13T17:43:06.934Z</time>
      </trkpt>
      <trkpt lat="48.04604" lon="10.47942">
        <ele>625.19445</ele>
        <time>2022-09-13T17:43:40.604Z</time>
      </trkpt>
      <trkpt lat="48.04669" lon="10.47888">
        <ele>631.695669</ele>
        <time>2022-09-13T17:44:27.931Z</time>
      </trkpt>
      <trkpt lat="48.0467" lon="10.4786">
        <ele>633.633265</ele>
        <time>2022-09-13T17:44:40.653Z</time>
      </trkpt>
      <trkpt lat="48.04655" lon="10.47841">
        <ele>635.598708</ele>
        <time>2022-09-13T17:44:55.374Z</time>
      </trkpt>
      <trkpt lat="48.04553" lon="10.47807">
        <ele>646.381487</ele>
        <time>2022-09-13T17:46:21.386Z</time>
      </trkpt>
      <trkpt lat="48.04544" lon="10.47802">
        <ele>647.338473</ele>
        <time>2022-09-13T17:46:29.308Z</time>
      </trkpt>
      <trkpt lat="48.04516" lon="10.4778">
        <ele>649.79371</ele>
        <time>2022-09-13T17:46:55.043Z</time>
      </trkpt>
      <trkpt lat="48.04508" lon="10.47772">
        <ele>650.479517</ele>
        <time>2022-09-13T17:47:01.342Z</time>
      </trkpt>
      <trkpt lat="48.04505" lon="10.47766">
        <ele>650.864514</ele>
        <time>2022-09-13T17:47:04.908Z</time>
      </trkpt>
      <trkpt lat="48.045" lon="10.47731">
        <ele>652.614867</ele>
        <time>2022-09-13T17:47:19.960Z</time>
      </trkpt>
      <trkpt lat="48.04495" lon="10.47685">
        <ele>654.895977</ele>
        <time>2022-09-13T17:47:39.278Z</time>
      </trkpt>
      <trkpt lat="48.04494" lon="10.47676">
        <ele>655.384248</ele>
        <time>2022-09-13T17:47:43.275Z</time>
      </trkpt>
      <trkpt lat="48.04492" lon="10.47596">
        <ele>659.287885</ele>
        <time>2022-09-13T17:48:14.581Z</time>
      </trkpt>
      <trkpt lat="48.045" lon="10.4749">
        <ele>660.769269</ele>
        <time>2022-09-13T17:48:46.101Z</time>
      </trkpt>
      <trkpt lat="48.04475" lon="10.4742">
        <ele>660.511062</ele>
        <time>2022-09-13T17:49:01.443Z</time>
      </trkpt>
      <trkpt lat="48.04444" lon="10.47335">
        <ele>660.199441</ele>
        <time>2022-09-13T17:49:14.426Z</time>
      </trkpt>
      <trkpt lat="48.04425" lon="10.47287">
        <ele>657.886858</ele>
        <time>2022-09-13T17:49:21.031Z</time>
      </trkpt>
      <trkpt lat="48.0439" lon="10.47227">
        <ele>652.788307</ele>
        <time>2022-09-13T17:49:29.986Z</time>
      </trkpt>
      <trkpt lat="48.04358" lon="10.47154">
        <ele>647.24055</ele>
        <time>2022-09-13T17:49:39.415Z</time>
      </trkpt>
      <trkpt lat="48.04334" lon="10.4707">
        <ele>640.951594</ele>
        <time>2022-09-13T17:49:49.049Z</time>
      </trkpt>
      <trkpt lat="48.04212" lon="10.46745">
        <ele>613.021227</ele>
        <time>2022-09-13T17:50:28.619Z</time>
      </trkpt>
      <trkpt lat="48.042" lon="10.46707">
        <ele>610.470094</ele>
        <time>2022-09-13T17:50:33.438Z</time>
      </trkpt>
      <trkpt lat="48.04184" lon="10.46614">
        <ele>604.759464</ele>
        <time>2022-09-13T17:50:44.595Z</time>
      </trkpt>
      <trkpt lat="48.04255" lon="10.46423">
        <ele>600.41766</ele>
        <time>2022-09-13T17:51:15.098Z</time>
      </trkpt>
      <trkpt lat="48.04268" lon="10.4641">
        <ele>599.976489</ele>
        <time>2022-09-13T17:51:18.651Z</time>
      </trkpt>
      <trkpt lat="48.04311" lon="10.46394">
        <ele>599.167704</ele>
        <time>2022-09-13T17:51:29.115Z</time>
      </trkpt>
      <trkpt lat="48.04401" lon="10.46313">
        <ele>598.241937</ele>
        <time>2022-09-13T17:51:54.481Z</time>
      </trkpt>
      <trkpt lat="48.04402" lon="10.46307">
        <ele>598.209325</ele>
        <time>2022-09-13T17:51:55.389Z</time>
      </trkpt>
      <trkpt lat="48.04402" lon="10.46292">
        <ele>598.122649</ele>
        <time>2022-09-13T17:51:57.835Z</time>
      </trkpt>
      <trkpt lat="48.04575" lon="10.45798">
        <ele>598.713957</ele>
        <time>2022-09-13T17:53:42.367Z</time>
      </trkpt>
      <trkpt lat="48.04582" lon="10.45779">
        <ele>598.801503</ele>
        <time>2022-09-13T17:53:47.803Z</time>
      </trkpt>
      <trkpt lat="48.04605" lon="10.45704">
        <ele>600.509626</ele>
        <time>2022-09-13T17:54:09.859Z</time>
      </trkpt>
      <trkpt lat="48.04637" lon="10.45553">
        <ele>604.325177</ele>
        <time>2022-09-13T17:55:01.181Z</time>
      </trkpt>
      <trkpt lat="48.04643" lon="10.4554">
        <ele>604.678916</ele>
        <time>2022-09-13T17:55:06.347Z</time>
      </trkpt>
      <trkpt lat="48.04611" lon="10.45499">
        <ele>606.120458</ele>
        <time>2022-09-13T17:55:26.204Z</time>
      </trkpt>
      <trkpt lat="48.04598" lon="10.45491">
        <ele>606.603473</ele>
        <time>2022-09-13T17:55:32.965Z</time>
      </trkpt>
      <trkpt lat="48.04594" lon="10.4547">
        <ele>607.083397</ele>
        <time>2022-09-13T17:55:40.125Z</time>
      </trkpt>
      <trkpt lat="48.04595" lon="10.45455">
        <ele>607.425303</ele>
        <time>2022-09-13T17:55:44.493Z</time>
      </trkpt>
      <trkpt lat="48.04633" lon="10.45253">
        <ele>611.44459</ele>
        <time>2022-09-13T17:56:42.084Z</time>
      </trkpt>
      <trkpt lat="48.04645" lon="10.45142">
        <ele>611.941167</ele>
        <time>2022-09-13T17:57:04.234Z</time>
      </trkpt>
      <trkpt lat="48.04645" lon="10.45138">
        <ele>611.956576</ele>
        <time>2022-09-13T17:57:04.904Z</time>
      </trkpt>
      <trkpt lat="48.04656" lon="10.44969">
        <ele>612.355961</ele>
        <time>2022-09-13T17:57:33.968Z</time>
      </trkpt>
      <trkpt lat="48.04662" lon="10.44755">
        <ele>611.886365</ele>
        <time>2022-09-13T17:58:09.367Z</time>
      </trkpt>
      <trkpt lat="48.04653" lon="10.44388">
        <ele>612.377111</ele>
        <time>2022-09-13T17:59:18.836Z</time>
      </trkpt>
      <trkpt lat="48.04642" lon="10.43981">
        <ele>612.553362</ele>
        <time>2022-09-13T18:00:31.599Z</time>
      </trkpt>
      <trkpt lat="48.04642" lon="10.43587">
        <ele>612.196376</ele>
        <time>2022-09-13T18:01:40.916Z</time>
      </trkpt>
      <trkpt lat="48.04641" lon="10.43215">
        <ele>611.51376</ele>
        <time>2022-09-13T18:02:43.130Z</time>
      </trkpt>
      <trkpt lat="48.04628" lon="10.42809">
        <ele>611.227139</ele>
        <time>2022-09-13T18:03:54.917Z</time>
      </trkpt>
      <trkpt lat="48.0459" lon="10.42469">
        <ele>611.255816</ele>
        <time>2022-09-13T18:04:56.142Z</time>
      </trkpt>
      <trkpt lat="48.04587" lon="10.42439">
        <ele>611.268232</ele>
        <time>2022-09-13T18:05:01.452Z</time>
      </trkpt>
      <trkpt lat="48.04581" lon="10.42441">
        <ele>611.271859</ele>
        <time>2022-09-13T18:05:02.989Z</time>
      </trkpt>
      <trkpt lat="48.04575" lon="10.42409">
        <ele>611.285225</ele>
        <time>2022-09-13T18:05:08.982Z</time>
      </trkpt>
      <trkpt lat="48.04559" lon="10.42279">
        <ele>611.571493</ele>
        <time>2022-09-13T18:05:34.416Z</time>
      </trkpt>
      <trkpt lat="48.04542" lon="10.42171">
        <ele>611.970633</ele>
        <time>2022-09-13T18:05:55.010Z</time>
      </trkpt>
      <trkpt lat="48.04537" lon="10.42137">
        <ele>612.095606</ele>
        <time>2022-09-13T18:06:02.095Z</time>
      </trkpt>
      <trkpt lat="48.04537" lon="10.42134">
        <ele>612.107076</ele>
        <time>2022-09-13T18:06:02.797Z</time>
      </trkpt>
      <trkpt lat="48.04519" lon="10.42025">
        <ele>612.526775</ele>
        <time>2022-09-13T18:06:26.720Z</time>
      </trkpt>
      <trkpt lat="48.04515" lon="10.41994">
        <ele>612.64871</ele>
        <time>2022-09-13T18:06:33.361Z</time>
      </trkpt>
      <trkpt lat="48.04514" lon="10.41985">
        <ele>612.682453</ele>
        <time>2022-09-13T18:06:35.222Z</time>
      </trkpt>
      <trkpt lat="48.04505" lon="10.41986">
        <ele>612.736653</ele>
        <time>2022-09-13T18:06:38.437Z</time>
      </trkpt>
      <trkpt lat="48.04485" lon="10.4199">
        <ele>612.849736</ele>
        <time>2022-09-13T18:06:44.524Z</time>
      </trkpt>
      <trkpt lat="48.04463" lon="10.41994">
        <ele>612.978232</ele>
        <time>2022-09-13T18:06:51.257Z</time>
      </trkpt>
      <trkpt lat="48.04436" lon="10.41999">
        <ele>613.134437</ele>
        <time>2022-09-13T18:06:58.698Z</time>
      </trkpt>
      <trkpt lat="48.04404" lon="10.42001">
        <ele>613.307795</ele>
        <time>2022-09-13T18:07:07.438Z</time>
      </trkpt>
      <trkpt lat="48.0438" lon="10.42002">
        <ele>613.30225</ele>
        <time>2022-09-13T18:07:14.167Z</time>
      </trkpt>
      <trkpt lat="48.04355" lon="10.42002">
        <ele>613.296291</ele>
        <time>2022-09-13T18:07:21.570Z</time>
      </trkpt>
      <trkpt lat="48.04341" lon="10.41995">
        <ele>613.293004</ele>
        <time>2022-09-13T18:07:25.671Z</time>
      </trkpt>
      <trkpt lat="48.04336" lon="10.41982">
        <ele>613.290686</ele>
        <time>2022-09-13T18:07:28.574Z</time>
      </trkpt>
      <trkpt lat="48.04328" lon="10.41959">
        <ele>613.286711</ele>
        <time>2022-09-13T18:07:33.553Z</time>
      </trkpt>
      <trkpt lat="48.04326" lon="10.41951">
        <ele>613.28538</ele>
        <time>2022-09-13T18:07:35.165Z</time>
      </trkpt>
      <trkpt lat="48.0432" lon="10.41931">
        <ele>613.281892</ele>
        <time>2022-09-13T18:07:39.381Z</time>
      </trkpt>
      <trkpt lat="48.04306" lon="10.41902">
        <ele>613.276344</ele>
        <time>2022-09-13T18:07:45.986Z</time>
      </trkpt>
      <trkpt lat="48.04294" lon="10.41893">
        <ele>613.273226</ele>
        <time>2022-09-13T18:07:49.639Z</time>
      </trkpt>
      <trkpt lat="48.04231" lon="10.41865">
        <ele>612.782281</ele>
        <time>2022-09-13T18:08:06.918Z</time>
      </trkpt>
      <trkpt lat="48.04202" lon="10.41864">
        <ele>612.388538</ele>
        <time>2022-09-13T18:08:14.043Z</time>
      </trkpt>
      <trkpt lat="48.04097" lon="10.41806">
        <ele>610.88143</ele>
        <time>2022-09-13T18:08:40.111Z</time>
      </trkpt>
      <trkpt lat="48.04052" lon="10.4176">
        <ele>609.331054</ele>
        <time>2022-09-13T18:08:51.038Z</time>
      </trkpt>
      <trkpt lat="48.04033" lon="10.41717">
        <ele>608.325365</ele>
        <time>2022-09-13T18:08:57.935Z</time>
      </trkpt>
      <trkpt lat="48.04029" lon="10.41685">
        <ele>607.677032</ele>
        <time>2022-09-13T18:09:02.536Z</time>
      </trkpt>
      <trkpt lat="48.04034" lon="10.41604">
        <ele>606.082411</ele>
        <time>2022-09-13T18:09:13.529Z</time>
      </trkpt>
      <trkpt lat="48.04033" lon="10.41586">
        <ele>605.716821</ele>
        <time>2022-09-13T18:09:16.200Z</time>
      </trkpt>
      <trkpt lat="48.04032" lon="10.41579">
        <ele>605.588615</ele>
        <time>2022-09-13T18:09:17.128Z</time>
      </trkpt>
      <trkpt lat="48.0403" lon="10.41562">
        <ele>605.406017</ele>
        <time>2022-09-13T18:09:19.534Z</time>
      </trkpt>
      <trkpt lat="48.04027" lon="10.4154">
        <ele>605.208844</ele>
        <time>2022-09-13T18:09:22.810Z</time>
      </trkpt>
      <trkpt lat="48.03976" lon="10.41419">
        <ele>603.948714</ele>
        <time>2022-09-13T18:09:44.167Z</time>
      </trkpt>
      <trkpt lat="48.03928" lon="10.4118">
        <ele>603.450049</ele>
        <time>2022-09-13T18:10:33.505Z</time>
      </trkpt>
      <trkpt lat="48.039" lon="10.41182">
        <ele>603.520595</ele>
        <time>2022-09-13T18:10:41.417Z</time>
      </trkpt>
      <trkpt lat="48.03814" lon="10.4123">
        <ele>603.709665</ele>
        <time>2022-09-13T18:11:07.738Z</time>
      </trkpt>
      <trkpt lat="48.03625" lon="10.41309">
        <ele>604.226751</ele>
        <time>2022-09-13T18:12:03.716Z</time>
      </trkpt>
      <trkpt lat="48.03615" lon="10.41311">
        <ele>604.277293</ele>
        <time>2022-09-13T18:12:06.815Z</time>
      </trkpt>
      <trkpt lat="48.03549" lon="10.41316">
        <ele>604.601063</ele>
        <time>2022-09-13T18:12:26.815Z</time>
      </trkpt>
      <trkpt lat="48.03449" lon="10.4131">
        <ele>605.454658</ele>
        <time>2022-09-13T18:12:58.504Z</time>
      </trkpt>
      <trkpt lat="48.03397" lon="10.41304">
        <ele>606.033583</ele>
        <time>2022-09-13T18:13:16.229Z</time>
      </trkpt>
      <trkpt lat="48.03273" lon="10.4128">
        <ele>607.515752</ele>
        <time>2022-09-13T18:13:58.649Z</time>
      </trkpt>
      <trkpt lat="48.03273" lon="10.41263">
        <ele>607.664104</ele>
        <time>2022-09-13T18:14:02.614Z</time>
      </trkpt>
      <trkpt lat="48.03275" lon="10.41185">
        <ele>608.344433</ele>
        <time>2022-09-13T18:14:20.273Z</time>
      </trkpt>
      <trkpt lat="48.03268" lon="10.4115">
        <ele>608.661102</ele>
        <time>2022-09-13T18:14:28.479Z</time>
      </trkpt>
      <trkpt lat="48.03137" lon="10.40915">
        <ele>611.64388</ele>
        <time>2022-09-13T18:15:38.987Z</time>
      </trkpt>
      <trkpt lat="48.03101" lon="10.40781">
        <ele>613.748452</ele>
        <time>2022-09-13T18:16:15.343Z</time>
      </trkpt>
      <trkpt lat="48.03075" lon="10.40726">
        <ele>614.766614</ele>
        <time>2022-09-13T18:16:32.490Z</time>
      </trkpt>
      <trkpt lat="48.03052" lon="10.40692">
        <ele>615.498837</ele>
        <time>2022-09-13T18:16:45.504Z</time>
      </trkpt>
      <trkpt lat="48.03009" lon="10.40663">
        <ele>617.120157</ele>
        <time>2022-09-13T18:17:05.488Z</time>
      </trkpt>
      <trkpt lat="48.02993" lon="10.40627">
        <ele>618.264375</ele>
        <time>2022-09-13T18:17:18.288Z</time>
      </trkpt>
      <trkpt lat="48.02987" lon="10.40588">
        <ele>619.336735</ele>
        <time>2022-09-13T18:17:30.768Z</time>
      </trkpt>
      <trkpt lat="48.02983" lon="10.40453">
        <ele>622.95944</ele>
        <time>2022-09-13T18:18:15.939Z</time>
      </trkpt>
      <trkpt lat="48.02977" lon="10.40326">
        <ele>626.310991</ele>
        <time>2022-09-13T18:18:59.541Z</time>
      </trkpt>
      <trkpt lat="48.02962" lon="10.40186">
        <ele>630.065886</ele>
        <time>2022-09-13T18:19:43.533Z</time>
      </trkpt>
      <trkpt lat="48.0296" lon="10.40106">
        <ele>630.055533</ele>
        <time>2022-09-13T18:20:02.370Z</time>
      </trkpt>
      <trkpt lat="48.02954" lon="10.40073">
        <ele>630.013667</ele>
        <time>2022-09-13T18:20:08.740Z</time>
      </trkpt>
      <trkpt lat="48.02952" lon="10.40062">
        <ele>629.998536</ele>
        <time>2022-09-13T18:20:10.775Z</time>
      </trkpt>
      <trkpt lat="48.02951" lon="10.40057">
        <ele>629.992298</ele>
        <time>2022-09-13T18:20:11.616Z</time>
      </trkpt>
      <trkpt lat="48.02938" lon="10.39991">
        <ele>629.907404</ele>
        <time>2022-09-13T18:20:22.488Z</time>
      </trkpt>
      <trkpt lat="48.02904" lon="10.39901">
        <ele>629.488758</ele>
        <time>2022-09-13T18:20:37.753Z</time>
      </trkpt>
      <trkpt lat="48.02885" lon="10.3983">
        <ele>628.685697</ele>
        <time>2022-09-13T18:20:48.744Z</time>
      </trkpt>
      <trkpt lat="48.02855" lon="10.39746">
        <ele>627.698912</ele>
        <time>2022-09-13T18:21:02.729Z</time>
      </trkpt>
      <trkpt lat="48.02849" lon="10.39715">
        <ele>627.35499</ele>
        <time>2022-09-13T18:21:08.038Z</time>
      </trkpt>
      <trkpt lat="48.02846" lon="10.39671">
        <ele>627.110534</ele>
        <time>2022-09-13T18:21:15.572Z</time>
      </trkpt>
      <trkpt lat="48.02854" lon="10.39594">
        <ele>627.924053</ele>
        <time>2022-09-13T18:21:31.656Z</time>
      </trkpt>
      <trkpt lat="48.02843" lon="10.39389">
        <ele>630.341594</ele>
        <time>2022-09-13T18:22:24.794Z</time>
      </trkpt>
      <trkpt lat="48.02875" lon="10.39304">
        <ele>632.372685</ele>
        <time>2022-09-13T18:22:53.836Z</time>
      </trkpt>
      <trkpt lat="48.02887" lon="10.39289">
        <ele>632.861752</ele>
        <time>2022-09-13T18:22:59.996Z</time>
      </trkpt>
      <trkpt lat="48.02955" lon="10.39257">
        <ele>635.102868</ele>
        <time>2022-09-13T18:23:31.888Z</time>
      </trkpt>
      <trkpt lat="48.02961" lon="10.39244">
        <ele>635.42014</ele>
        <time>2022-09-13T18:23:37.174Z</time>
      </trkpt>
      <trkpt lat="48.02976" lon="10.39148">
        <ele>636.756587</ele>
        <time>2022-09-13T18:24:03.889Z</time>
      </trkpt>
      <trkpt lat="48.02985" lon="10.39135">
        <ele>637.014125</ele>
        <time>2022-09-13T18:24:08.918Z</time>
      </trkpt>
      <trkpt lat="48.03036" lon="10.39121">
        <ele>638.067317</ele>
        <time>2022-09-13T18:24:28.055Z</time>
      </trkpt>
      <trkpt lat="48.03227" lon="10.39085">
        <ele>640.25206</ele>
        <time>2022-09-13T18:25:29.157Z</time>
      </trkpt>
      <trkpt lat="48.03331" lon="10.39022">
        <ele>641.59098</ele>
        <time>2022-09-13T18:26:04.285Z</time>
      </trkpt>
      <trkpt lat="48.03466" lon="10.38973">
        <ele>644.166145</ele>
        <time>2022-09-13T18:26:54.395Z</time>
      </trkpt>
      <trkpt lat="48.03488" lon="10.38942">
        <ele>645.196763</ele>
        <time>2022-09-13T18:27:07.034Z</time>
      </trkpt>
      <trkpt lat="48.03539" lon="10.38815">
        <ele>648.516435</ele>
        <time>2022-09-13T18:27:51.928Z</time>
      </trkpt>
      <trkpt lat="48.03569" lon="10.38716">
        <ele>652.965737</ele>
        <time>2022-09-13T18:28:29.140Z</time>
      </trkpt>
      <trkpt lat="48.03589" lon="10.38666">
        <ele>655.678926</ele>
        <time>2022-09-13T18:28:52.298Z</time>
      </trkpt>
      <trkpt lat="48.03591" lon="10.38643">
        <ele>656.795339</ele>
        <time>2022-09-13T18:29:02.541Z</time>
      </trkpt>
      <trkpt lat="48.03584" lon="10.38582">
        <ele>659.685568</ele>
        <time>2022-09-13T18:29:32.343Z</time>
      </trkpt>
      <trkpt lat="48.03567" lon="10.38539">
        <ele>661.975959</ele>
        <time>2022-09-13T18:29:56.453Z</time>
      </trkpt>
      <trkpt lat="48.03559" lon="10.38502">
        <ele>663.776761</ele>
        <time>2022-09-13T18:30:15.053Z</time>
      </trkpt>
      <trkpt lat="48.03532" lon="10.38356">
        <ele>670.69826</ele>
        <time>2022-09-13T18:31:22.549Z</time>
      </trkpt>
      <trkpt lat="48.0341" lon="10.38269">
        <ele>673.367342</ele>
        <time>2022-09-13T18:32:19.627Z</time>
      </trkpt>
      <trkpt lat="48.03385" lon="10.38249">
        <ele>673.181559</ele>
        <time>2022-09-13T18:32:25.560Z</time>
      </trkpt>
      <trkpt lat="48.03315" lon="10.38183">
        <ele>671.797492</ele>
        <time>2022-09-13T18:32:41.484Z</time>
      </trkpt>
      <trkpt lat="48.03262" lon="10.38115">
        <ele>668.356839</ele>
        <time>2022-09-13T18:32:54.423Z</time>
      </trkpt>
      <trkpt lat="48.03231" lon="10.38039">
        <ele>665.435783</ele>
        <time>2022-09-13T18:33:05.652Z</time>
      </trkpt>
      <trkpt lat="48.03206" lon="10.37944">
        <ele>662.890397</ele>
        <time>2022-09-13T18:33:19.217Z</time>
      </trkpt>
      <trkpt lat="48.03152" lon="10.37685">
        <ele>656.876823</ele>
        <time>2022-09-13T18:33:58.615Z</time>
      </trkpt>
      <trkpt lat="48.0314" lon="10.37572">
        <ele>652.903198</ele>
        <time>2022-09-13T18:34:13.307Z</time>
      </trkpt>
      <trkpt lat="48.03144" lon="10.37469">
        <ele>649.224681</ele>
        <time>2022-09-13T18:34:25.651Z</time>
      </trkpt>
      <trkpt lat="48.03144" lon="10.37306">
        <ele>641.22894</ele>
        <time>2022-09-13T18:34:44.748Z</time>
      </trkpt>
      <trkpt lat="48.03125" lon="10.37045">
        <ele>630.913917</ele>
        <time>2022-09-13T18:35:16.987Z</time>
      </trkpt>
      <trkpt lat="48.03114" lon="10.3697">
        <ele>628.359682</ele>
        <time>2022-09-13T18:35:27.505Z</time>
      </trkpt>
      <trkpt lat="48.03053" lon="10.36727">
        <ele>622.641123</ele>
        <time>2022-09-13T18:36:03.150Z</time>
      </trkpt>
      <trkpt lat="48.03034" lon="10.36683">
        <ele>621.740481</ele>
        <time>2022-09-13T18:36:10.486Z</time>
      </trkpt>
      <trkpt lat="48.02998" lon="10.36652">
        <ele>621.264196</ele>
        <time>2022-09-13T18:36:19.386Z</time>
      </trkpt>
      <trkpt lat="48.02947" lon="10.36635">
        <ele>620.672164</ele>
        <time>2022-09-13T18:36:31.253Z</time>
      </trkpt>
      <trkpt lat="48.02925" lon="10.36633">
        <ele>620.411466</ele>
        <time>2022-09-13T18:36:36.799Z</time>
      </trkpt>
      <trkpt lat="48.02865" lon="10.36649">
        <ele>619.915407</ele>
        <time>2022-09-13T18:36:54.162Z</time>
      </trkpt>
      <trkpt lat="48.02844" lon="10.36645">
        <ele>620.294428</ele>
        <time>2022-09-13T18:37:01.745Z</time>
      </trkpt>
      <trkpt lat="48.0283" lon="10.36638">
        <ele>620.548757</ele>
        <time>2022-09-13T18:37:06.864Z</time>
      </trkpt>
      <trkpt lat="48.0281" lon="10.36612">
        <ele>621.035794</ele>
        <time>2022-09-13T18:37:17.426Z</time>
      </trkpt>
      <trkpt lat="48.02816" lon="10.36329">
        <ele>622.948664</ele>
        <time>2022-09-13T18:38:29.387Z</time>
      </trkpt>
      <trkpt lat="48.0281" lon="10.36269">
        <ele>622.90497</ele>
        <time>2022-09-13T18:38:39.497Z</time>
      </trkpt>
      <trkpt lat="48.02797" lon="10.36231">
        <ele>622.874096</ele>
        <time>2022-09-13T18:38:45.980Z</time>
      </trkpt>
      <trkpt lat="48.02722" lon="10.36044">
        <ele>620.101807</ele>
        <time>2022-09-13T18:39:16.287Z</time>
      </trkpt>
      <trkpt lat="48.0266" lon="10.35919">
        <ele>618.590629</ele>
        <time>2022-09-13T18:39:39.162Z</time>
      </trkpt>
      <trkpt lat="48.02656" lon="10.35893">
        <ele>618.641507</ele>
        <time>2022-09-13T18:39:44.281Z</time>
      </trkpt>
      <trkpt lat="48.0266" lon="10.35823">
        <ele>618.773078</ele>
        <time>2022-09-13T18:39:58.802Z</time>
      </trkpt>
      <trkpt lat="48.02656" lon="10.35668">
        <ele>619.332479</ele>
        <time>2022-09-13T18:40:35.049Z</time>
      </trkpt>
      <trkpt lat="48.02648" lon="10.35618">
        <ele>619.779835</ele>
        <time>2022-09-13T18:40:47.388Z</time>
      </trkpt>
      <trkpt lat="48.02617" lon="10.35502">
        <ele>620.868959</ele>
        <time>2022-09-13T18:41:16.700Z</time>
      </trkpt>
      <trkpt lat="48.02615" lon="10.3548">
        <ele>621.061252</ele>
        <time>2022-09-13T18:41:21.330Z</time>
      </trkpt>
      <trkpt lat="48.02603" lon="10.35356">
        <ele>621.470858</ele>
        <time>2022-09-13T18:41:46.675Z</time>
      </trkpt>
      <trkpt lat="48.02557" lon="10.35197">
        <ele>621.735049</ele>
        <time>2022-09-13T18:42:19.280Z</time>
      </trkpt>
      <trkpt lat="48.02522" lon="10.35094">
        <ele>621.205323</ele>
        <time>2022-09-13T18:42:39.672Z</time>
      </trkpt>
      <trkpt lat="48.02505" lon="10.34999">
        <ele>620.75092</ele>
        <time>2022-09-13T18:42:55.547Z</time>
      </trkpt>
      <trkpt lat="48.02483" lon="10.35005">
        <ele>620.596058</ele>
        <time>2022-09-13T18:43:00.931Z</time>
      </trkpt>
      <trkpt lat="48.02463" lon="10.34999">
        <ele>620.392829</ele>
        <time>2022-09-13T18:43:05.777Z</time>
      </trkpt>
      <trkpt lat="48.02432" lon="10.34969">
        <ele>619.64071</ele>
        <time>2022-09-13T18:43:14.675Z</time>
      </trkpt>
      <trkpt lat="48.02406" lon="10.34871">
        <ele>618.199668</ele>
        <time>2022-09-13T18:43:31.147Z</time>
      </trkpt>
      <trkpt lat="48.02402" lon="10.34856">
        <ele>617.974433</ele>
        <time>2022-09-13T18:43:33.663Z</time>
      </trkpt>
      <trkpt lat="48.02364" lon="10.34749">
        <ele>615.860254</ele>
        <time>2022-09-13T18:43:50.046Z</time>
      </trkpt>
      <trkpt lat="48.02332" lon="10.34661">
        <ele>613.232491</ele>
        <time>2022-09-13T18:44:03.276Z</time>
      </trkpt>
      <trkpt lat="48.02322" lon="10.34648">
        <ele>612.689126</ele>
        <time>2022-09-13T18:44:05.876Z</time>
      </trkpt>
      <trkpt lat="48.02299" lon="10.34641">
        <ele>611.802023</ele>
        <time>2022-09-13T18:44:10.493Z</time>
      </trkpt>
      <trkpt lat="48.02288" lon="10.34639">
        <ele>611.353427</ele>
        <time>2022-09-13T18:44:12.642Z</time>
      </trkpt>
      <trkpt lat="48.02278" lon="10.34627">
        <ele>610.855248</ele>
        <time>2022-09-13T18:44:15.205Z</time>
      </trkpt>
      <trkpt lat="48.02271" lon="10.34609">
        <ele>610.310057</ele>
        <time>2022-09-13T18:44:17.953Z</time>
      </trkpt>
      <trkpt lat="48.02268" lon="10.3458">
        <ele>609.626597</ele>
        <time>2022-09-13T18:44:21.731Z</time>
      </trkpt>
      <trkpt lat="48.02253" lon="10.34529">
        <ele>608.737146</ele>
        <time>2022-09-13T18:44:29.070Z</time>
      </trkpt>
      <trkpt lat="48.02186" lon="10.34355">
        <ele>605.55018</ele>
        <time>2022-09-13T18:44:58.509Z</time>
      </trkpt>
      <trkpt lat="48.02185" lon="10.34351">
        <ele>605.480822</ele>
        <time>2022-09-13T18:44:59.368Z</time>
      </trkpt>
      <trkpt lat="48.02179" lon="10.34336">
        <ele>605.479779</ele>
        <time>2022-09-13T18:45:02.505Z</time>
      </trkpt>
      <trkpt lat="48.02173" lon="10.34324">
        <ele>605.478896</ele>
        <time>2022-09-13T18:45:05.184Z</time>
      </trkpt>
      <trkpt lat="48.02099" lon="10.34116">
        <ele>605.464839</ele>
        <time>2022-09-13T18:45:51.421Z</time>
      </trkpt>
      <trkpt lat="48.0209" lon="10.34038">
        <ele>605.41496</ele>
        <time>2022-09-13T18:46:06.824Z</time>
      </trkpt>
      <trkpt lat="48.02081" lon="10.3401">
        <ele>605.395767</ele>
        <time>2022-09-13T18:46:12.704Z</time>
      </trkpt>
      <trkpt lat="48.02051" lon="10.34033">
        <ele>605.363843</ele>
        <time>2022-09-13T18:46:22.020Z</time>
      </trkpt>
      <trkpt lat="48.02043" lon="10.34009">
        <ele>605.346538</ele>
        <time>2022-09-13T18:46:26.762Z</time>
      </trkpt>
      <trkpt lat="48.02033" lon="10.3398">
        <ele>605.326</ele>
        <time>2022-09-13T18:46:32.592Z</time>
      </trkpt>
      <trkpt lat="48.01906" lon="10.3373">
        <ele>604.646135</ele>
        <time>2022-09-13T18:47:26.610Z</time>
      </trkpt>
      <trkpt lat="48.01892" lon="10.33698">
        <ele>604.763966</ele>
        <time>2022-09-13T18:47:34.065Z</time>
      </trkpt>
      <trkpt lat="48.01897" lon="10.33687">
        <ele>604.817134</ele>
        <time>2022-09-13T18:47:36.914Z</time>
      </trkpt>
      <trkpt lat="48.01898" lon="10.33673">
        <ele>604.870411</ele>
        <time>2022-09-13T18:47:39.822Z</time>
      </trkpt>
      <trkpt lat="48.01896" lon="10.33667">
        <ele>604.897395</ele>
        <time>2022-09-13T18:47:41.186Z</time>
      </trkpt>
      <trkpt lat="48.01888" lon="10.33658">
        <ele>604.950615</ele>
        <time>2022-09-13T18:47:43.811Z</time>
      </trkpt>
      <trkpt lat="48.01874" lon="10.33662">
        <ele>605.028115</ele>
        <time>2022-09-13T18:47:47.954Z</time>
      </trkpt>
      <trkpt lat="48.01863" lon="10.3364">
        <ele>605.132991</ele>
        <time>2022-09-13T18:47:53.715Z</time>
      </trkpt>
      <trkpt lat="48.01837" lon="10.33585">
        <ele>605.383134</ele>
        <time>2022-09-13T18:48:07.562Z</time>
      </trkpt>
      <trkpt lat="48.01836" lon="10.33563">
        <ele>605.466988</ele>
        <time>2022-09-13T18:48:12.554Z</time>
      </trkpt>
      <trkpt lat="48.01844" lon="10.33547">
        <ele>605.540932</ele>
        <time>2022-09-13T18:48:16.627Z</time>
      </trkpt>
      <trkpt lat="48.01904" lon="10.33495">
        <ele>605.917221</ele>
        <time>2022-09-13T18:48:39.061Z</time>
      </trkpt>
      <trkpt lat="48.01914" lon="10.3347">
        <ele>606.020096</ele>
        <time>2022-09-13T18:48:45.201Z</time>
      </trkpt>
      <trkpt lat="48.01916" lon="10.33441">
        <ele>606.126287</ele>
        <time>2022-09-13T18:48:51.403Z</time>
      </trkpt>
      <trkpt lat="48.01877" lon="10.33311">
        <ele>606.618809</ele>
        <time>2022-09-13T18:49:18.695Z</time>
      </trkpt>
      <trkpt lat="48.01859" lon="10.331">
        <ele>607.034875</ele>
        <time>2022-09-13T18:50:00.417Z</time>
      </trkpt>
      <trkpt lat="48.01842" lon="10.33043">
        <ele>607.13921</ele>
        <time>2022-09-13T18:50:12.717Z</time>
      </trkpt>
      <trkpt lat="48.0182" lon="10.33009">
        <ele>607.168969</ele>
        <time>2022-09-13T18:50:21.914Z</time>
      </trkpt>
      <trkpt lat="48.01808" lon="10.33005">
        <ele>607.180648</ele>
        <time>2022-09-13T18:50:25.299Z</time>
      </trkpt>
      <trkpt lat="48.01756" lon="10.33001">
        <ele>607.230295</ele>
        <time>2022-09-13T18:50:40.431Z</time>
      </trkpt>
      <trkpt lat="48.01526" lon="10.32961">
        <ele>607.039957</ele>
        <time>2022-09-13T18:51:43.540Z</time>
      </trkpt>
      <trkpt lat="48.01533" lon="10.32777">
        <ele>606.568546</ele>
        <time>2022-09-13T18:52:14.785Z</time>
      </trkpt>
      <trkpt lat="48.01548" lon="10.32696">
        <ele>606.327031</ele>
        <time>2022-09-13T18:52:28.676Z</time>
      </trkpt>
      <trkpt lat="48.01564" lon="10.32646">
        <ele>606.120955</ele>
        <time>2022-09-13T18:52:37.666Z</time>
      </trkpt>
      <trkpt lat="48.01643" lon="10.32444">
        <ele>604.935514</ele>
        <time>2022-09-13T18:53:14.621Z</time>
      </trkpt>
      <trkpt lat="48.01661" lon="10.32356">
        <ele>604.593143</ele>
        <time>2022-09-13T18:53:29.471Z</time>
      </trkpt>
      <trkpt lat="48.01664" lon="10.32326">
        <ele>604.487893</ele>
        <time>2022-09-13T18:53:34.364Z</time>
      </trkpt>
      <trkpt lat="48.01655" lon="10.32134">
        <ele>603.91345</ele>
        <time>2022-09-13T18:54:06.515Z</time>
      </trkpt>
      <trkpt lat="48.01659" lon="10.32077">
        <ele>603.87556</ele>
        <time>2022-09-13T18:54:16.708Z</time>
      </trkpt>
      <trkpt lat="48.01687" lon="10.31985">
        <ele>603.808869</ele>
        <time>2022-09-13T18:54:34.839Z</time>
      </trkpt>
      <trkpt lat="48.01722" lon="10.31871">
        <ele>603.643887</ele>
        <time>2022-09-13T18:54:57.222Z</time>
      </trkpt>
      <trkpt lat="48.01563" lon="10.31699">
        <ele>602.986812</ele>
        <time>2022-09-13T18:55:45.958Z</time>
      </trkpt>
      <trkpt lat="48.0155" lon="10.3169">
        <ele>602.948436</ele>
        <time>2022-09-13T18:55:49.468Z</time>
      </trkpt>
      <trkpt lat="48.01474" lon="10.31644">
        <ele>602.721802</ele>
        <time>2022-09-13T18:56:10.512Z</time>
      </trkpt>
      <trkpt lat="48.01452" lon="10.31612">
        <ele>602.637767</ele>
        <time>2022-09-13T18:56:18.462Z</time>
      </trkpt>
      <trkpt lat="48.0144" lon="10.31573">
        <ele>602.741407</ele>
        <time>2022-09-13T18:56:25.997Z</time>
      </trkpt>
      <trkpt lat="48.01438" lon="10.31563">
        <ele>602.774318</ele>
        <time>2022-09-13T18:56:27.904Z</time>
      </trkpt>
      <trkpt lat="48.01418" lon="10.31514">
        <ele>602.950996</ele>
        <time>2022-09-13T18:56:38.275Z</time>
      </trkpt>
      <trkpt lat="48.01414" lon="10.31504">
        <ele>602.988172</ele>
        <time>2022-09-13T18:56:40.578Z</time>
      </trkpt>
      <trkpt lat="48.01411" lon="10.31498">
        <ele>603.011664</ele>
        <time>2022-09-13T18:56:42.008Z</time>
      </trkpt>
      <trkpt lat="48.0139" lon="10.31452">
        <ele>603.183303</ele>
        <time>2022-09-13T18:56:52.877Z</time>
      </trkpt>
      <trkpt lat="48.01287" lon="10.3113">
        <ele>605.334668</ele>
        <time>2022-09-13T18:58:07.185Z</time>
      </trkpt>
      <trkpt lat="48.01264" lon="10.31075">
        <ele>606.157978</ele>
        <time>2022-09-13T18:58:22.934Z</time>
      </trkpt>
      <trkpt lat="48.01249" lon="10.31006">
        <ele>607.07825</ele>
        <time>2022-09-13T18:58:41.140Z</time>
      </trkpt>
      <trkpt lat="48.01245" lon="10.30971">
        <ele>607.524782</ele>
        <time>2022-09-13T18:58:49.845Z</time>
      </trkpt>
      <trkpt lat="48.01242" lon="10.30938">
        <ele>607.942516</ele>
        <time>2022-09-13T18:58:58.379Z</time>
      </trkpt>
      <trkpt lat="48.01232" lon="10.30825">
        <ele>608.799147</ele>
        <time>2022-09-13T18:59:27.273Z</time>
      </trkpt>
      <trkpt lat="48.01232" lon="10.30726">
        <ele>608.871753</ele>
        <time>2022-09-13T18:59:47.826Z</time>
      </trkpt>
      <trkpt lat="48.01211" lon="10.30643">
        <ele>608.935519</ele>
        <time>2022-09-13T19:00:02.600Z</time>
      </trkpt>
      <trkpt lat="48.01196" lon="10.30517">
        <ele>607.527678</ele>
        <time>2022-09-13T19:00:21.416Z</time>
      </trkpt>
      <trkpt lat="48.01196" lon="10.30507">
        <ele>607.380989</ele>
        <time>2022-09-13T19:00:22.842Z</time>
      </trkpt>
      <trkpt lat="48.01195" lon="10.30477">
        <ele>606.943772</ele>
        <time>2022-09-13T19:00:27.134Z</time>
      </trkpt>
      <trkpt lat="48.01187" lon="10.30394">
        <ele>605.702525</ele>
        <time>2022-09-13T19:00:38.942Z</time>
      </trkpt>
      <trkpt lat="48.01213" lon="10.30382">
        <ele>605.101974</ele>
        <time>2022-09-13T19:00:44.718Z</time>
      </trkpt>
      <trkpt lat="48.01235" lon="10.30373">
        <ele>604.762909</ele>
        <time>2022-09-13T19:00:49.592Z</time>
      </trkpt>
      <trkpt lat="48.01267" lon="10.3036">
        <ele>604.334896</ele>
        <time>2022-09-13T19:00:57.151Z</time>
      </trkpt>
      <trkpt lat="48.01275" lon="10.3036">
        <ele>604.232865</ele>
        <time>2022-09-13T19:00:59.019Z</time>
      </trkpt>
      <trkpt lat="48.0132" lon="10.30337">
        <ele>603.621851</ele>
        <time>2022-09-13T19:01:10.411Z</time>
      </trkpt>
      <trkpt lat="48.01363" lon="10.3029">
        <ele>602.945669</ele>
        <time>2022-09-13T19:01:23.661Z</time>
      </trkpt>
      <trkpt lat="48.01398" lon="10.30262">
        <ele>602.578898</ele>
        <time>2022-09-13T19:01:33.595Z</time>
      </trkpt>
      <trkpt lat="48.01399" lon="10.30261">
        <ele>602.571558</ele>
        <time>2022-09-13T19:01:33.935Z</time>
      </trkpt>
      <trkpt lat="48.01455" lon="10.3023">
        <ele>602.238906</ele>
        <time>2022-09-13T19:01:49.273Z</time>
      </trkpt>
      <trkpt lat="48.01472" lon="10.30221">
        <ele>602.13912</ele>
        <time>2022-09-13T19:01:53.914Z</time>
      </trkpt>
      <trkpt lat="48.01506" lon="10.3021">
        <ele>601.948636</ele>
        <time>2022-09-13T19:02:02.830Z</time>
      </trkpt>
      <trkpt lat="48.01527" lon="10.30215">
        <ele>601.828743</ele>
        <time>2022-09-13T19:02:08.447Z</time>
      </trkpt>
      <trkpt lat="48.01526" lon="10.30203">
        <ele>601.782033</ele>
        <time>2022-09-13T19:02:10.663Z</time>
      </trkpt>
      <trkpt lat="48.01525" lon="10.30194">
        <ele>601.749801</ele>
        <time>2022-09-13T19:02:12.171Z</time>
      </trkpt>
      <trkpt lat="48.01517" lon="10.30168">
        <ele>601.660655</ele>
        <time>2022-09-13T19:02:17.039Z</time>
      </trkpt>
      <trkpt lat="48.01503" lon="10.30128">
        <ele>601.554449</ele>
        <time>2022-09-13T19:02:24.893Z</time>
      </trkpt>
      <trkpt lat="48.01483" lon="10.30094">
        <ele>601.452086</ele>
        <time>2022-09-13T19:02:32.387Z</time>
      </trkpt>
      <trkpt lat="48.01465" lon="10.30078">
        <ele>601.377926</ele>
        <time>2022-09-13T19:02:37.782Z</time>
      </trkpt>
      <trkpt lat="48.01442" lon="10.29998">
        <ele>601.17684</ele>
        <time>2022-09-13T19:02:52.719Z</time>
      </trkpt>
      <trkpt lat="48.01441" lon="10.29992">
        <ele>601.162331</ele>
        <time>2022-09-13T19:02:53.877Z</time>
      </trkpt>
      <trkpt lat="48.01438" lon="10.29972">
        <ele>601.117042</ele>
        <time>2022-09-13T19:02:57.409Z</time>
      </trkpt>
      <trkpt lat="48.01437" lon="10.29963">
        <ele>601.09419</ele>
        <time>2022-09-13T19:02:59.173Z</time>
      </trkpt>
      <trkpt lat="48.0143" lon="10.29786">
        <ele>602.391632</ele>
        <time>2022-09-13T19:03:35.730Z</time>
      </trkpt>
      <trkpt lat="48.01424" lon="10.29709">
        <ele>603.014961</ele>
        <time>2022-09-13T19:03:55.337Z</time>
      </trkpt>
      <trkpt lat="48.01421" lon="10.29692">
        <ele>603.155039</ele>
        <time>2022-09-13T19:03:59.667Z</time>
      </trkpt>
      <trkpt lat="48.01415" lon="10.2967">
        <ele>603.557001</ele>
        <time>2022-09-13T19:04:06.322Z</time>
      </trkpt>
      <trkpt lat="48.01414" lon="10.29659">
        <ele>603.784641</ele>
        <time>2022-09-13T19:04:09.168Z</time>
      </trkpt>
      <trkpt lat="48.01414" lon="10.29643">
        <ele>604.141668</ele>
        <time>2022-09-13T19:04:13.460Z</time>
      </trkpt>
      <trkpt lat="48.01421" lon="10.29611">
        <ele>604.866666</ele>
        <time>2022-09-13T19:04:23.144Z</time>
      </trkpt>
      <trkpt lat="48.01421" lon="10.29582">
        <ele>605.49247</ele>
        <time>2022-09-13T19:04:31.448Z</time>
      </trkpt>
      <trkpt lat="48.01397" lon="10.29527">
        <ele>606.902729</ele>
        <time>2022-09-13T19:04:51.376Z</time>
      </trkpt>
      <trkpt lat="48.01343" lon="10.2944">
        <ele>609.526433</ele>
        <time>2022-09-13T19:05:27.062Z</time>
      </trkpt>
      <trkpt lat="48.01317" lon="10.29412">
        <ele>610.748754</ele>
        <time>2022-09-13T19:05:41.158Z</time>
      </trkpt>
      <trkpt lat="48.01269" lon="10.29388">
        <ele>612.67352</ele>
        <time>2022-09-13T19:06:03.966Z</time>
      </trkpt>
      <trkpt lat="48.01221" lon="10.29321">
        <ele>615.179431</ele>
        <time>2022-09-13T19:06:34.702Z</time>
      </trkpt>
      <trkpt lat="48.01132" lon="10.29243">
        <ele>619.135692</ele>
        <time>2022-09-13T19:07:25.438Z</time>
      </trkpt>
      <trkpt lat="48.01076" lon="10.29204">
        <ele>621.473472</ele>
        <time>2022-09-13T19:07:50.876Z</time>
      </trkpt>
      <trkpt lat="48.01056" lon="10.29174">
        <ele>622.558477</ele>
        <time>2022-09-13T19:08:03.603Z</time>
      </trkpt>
      <trkpt lat="48.01051" lon="10.29156">
        <ele>623.124247</ele>
        <time>2022-09-13T19:08:09.015Z</time>
      </trkpt>
      <trkpt lat="48.01017" lon="10.29022">
        <ele>627.520139</ele>
        <time>2022-09-13T19:09:12.671Z</time>
      </trkpt>
      <trkpt lat="48.00996" lon="10.28951">
        <ele>629.891148</ele>
        <time>2022-09-13T19:09:47.543Z</time>
      </trkpt>
      <trkpt lat="48.00972" lon="10.28814">
        <ele>634.77433</ele>
        <time>2022-09-13T19:10:55.008Z</time>
      </trkpt>
      <trkpt lat="48.00947" lon="10.28456">
        <ele>645.955809</ele>
        <time>2022-09-13T19:13:43.533Z</time>
      </trkpt>
      <trkpt lat="48.00959" lon="10.28388">
        <ele>647.878928</ele>
        <time>2022-09-13T19:14:09.293Z</time>
      </trkpt>
      <trkpt lat="48.00964" lon="10.28353">
        <ele>647.82451</ele>
        <time>2022-09-13T19:14:20.353Z</time>
      </trkpt>
      <trkpt lat="48.00988" lon="10.2796">
        <ele>645.861725</ele>
        <time>2022-09-13T19:16:08.165Z</time>
      </trkpt>
      <trkpt lat="48.00992" lon="10.27861">
        <ele>644.985254</ele>
        <time>2022-09-13T19:16:35.408Z</time>
      </trkpt>
      <trkpt lat="48.01015" lon="10.2748">
        <ele>633.664204</ele>
        <time>2022-09-13T19:18:03.729Z</time>
      </trkpt>
      <trkpt lat="48.01018" lon="10.27426">
        <ele>631.109254</ele>
        <time>2022-09-13T19:18:14.484Z</time>
      </trkpt>
      <trkpt lat="48.01019" lon="10.2741">
        <ele>630.37226</ele>
        <time>2022-09-13T19:18:17.591Z</time>
      </trkpt>
      <trkpt lat="48.01021" lon="10.27369">
        <ele>628.450424</ele>
        <time>2022-09-13T19:18:25.723Z</time>
      </trkpt>
      <trkpt lat="48.01016" lon="10.27327">
        <ele>626.429421</ele>
        <time>2022-09-13T19:18:30.462Z</time>
      </trkpt>
      <trkpt lat="48.01007" lon="10.27209">
        <ele>621.278557</ele>
        <time>2022-09-13T19:18:43.717Z</time>
      </trkpt>
      <trkpt lat="48.00948" lon="10.27205">
        <ele>617.526103</ele>
        <time>2022-09-13T19:18:54.307Z</time>
      </trkpt>
      <trkpt lat="48.00897" lon="10.27204">
        <ele>614.402363</ele>
        <time>2022-09-13T19:19:04.731Z</time>
      </trkpt>
      <trkpt lat="48.00894" lon="10.27203">
        <ele>614.388447</ele>
        <time>2022-09-13T19:19:05.440Z</time>
      </trkpt>
      <trkpt lat="48.00876" lon="10.27196">
        <ele>614.30375</ele>
        <time>2022-09-13T19:19:09.737Z</time>
      </trkpt>
      <trkpt lat="48.00868" lon="10.27189">
        <ele>614.264451</ele>
        <time>2022-09-13T19:19:11.711Z</time>
      </trkpt>
      <trkpt lat="48.00847" lon="10.27172">
        <ele>614.155415</ele>
        <time>2022-09-13T19:19:18.090Z</time>
      </trkpt>
      <trkpt lat="48.0079" lon="10.27095">
        <ele>613.808825</ele>
        <time>2022-09-13T19:19:39.922Z</time>
      </trkpt>
      <trkpt lat="48.00766" lon="10.27075">
        <ele>613.685133</ele>
        <time>2022-09-13T19:19:48.071Z</time>
      </trkpt>
      <trkpt lat="48.00716" lon="10.26807">
        <ele>614.892344</ele>
        <time>2022-09-13T19:20:49.745Z</time>
      </trkpt>
      <trkpt lat="48.00709" lon="10.26752">
        <ele>614.78673</ele>
        <time>2022-09-13T19:20:59.856Z</time>
      </trkpt>
      <trkpt lat="48.00704" lon="10.26707">
        <ele>614.569473</ele>
        <time>2022-09-13T19:21:07.247Z</time>
      </trkpt>
      <trkpt lat="48.00692" lon="10.26675">
        <ele>614.39192</ele>
        <time>2022-09-13T19:21:13.129Z</time>
      </trkpt>
      <trkpt lat="48.00716" lon="10.26616">
        <ele>614.058939</ele>
        <time>2022-09-13T19:21:23.756Z</time>
      </trkpt>
      <trkpt lat="48.00744" lon="10.26546">
        <ele>613.677662</ele>
        <time>2022-09-13T19:21:36.203Z</time>
      </trkpt>
      <trkpt lat="48.00747" lon="10.26543">
        <ele>613.67593</ele>
        <time>2022-09-13T19:21:36.993Z</time>
      </trkpt>
      <trkpt lat="48.00751" lon="10.26536">
        <ele>613.67296</ele>
        <time>2022-09-13T19:21:38.420Z</time>
      </trkpt>
      <trkpt lat="48.00761" lon="10.26513">
        <ele>613.663417</ele>
        <time>2022-09-13T19:21:42.949Z</time>
      </trkpt>
      <trkpt lat="48.0076" lon="10.26488">
        <ele>613.65481</ele>
        <time>2022-09-13T19:21:47.121Z</time>
      </trkpt>
      <trkpt lat="48.00749" lon="10.26452">
        <ele>613.641565</ele>
        <time>2022-09-13T19:21:53.579Z</time>
      </trkpt>
      <trkpt lat="48.00724" lon="10.26411">
        <ele>613.622759</ele>
        <time>2022-09-13T19:22:03.257Z</time>
      </trkpt>
      <trkpt lat="48.00711" lon="10.26208">
        <ele>614.228287</ele>
        <time>2022-09-13T19:22:47.761Z</time>
      </trkpt>
      <trkpt lat="48.00689" lon="10.26095">
        <ele>614.984495</ele>
        <time>2022-09-13T19:23:14.157Z</time>
      </trkpt>
      <trkpt lat="48.00622" lon="10.25801">
        <ele>616.122471</ele>
        <time>2022-09-13T19:24:15.189Z</time>
      </trkpt>
      <trkpt lat="48.00568" lon="10.25544">
        <ele>616.095762</ele>
        <time>2022-09-13T19:25:01.829Z</time>
      </trkpt>
      <trkpt lat="48.00516" lon="10.25304">
        <ele>616.484516</ele>
        <time>2022-09-13T19:25:48.486Z</time>
      </trkpt>
      <trkpt lat="48.00443" lon="10.24964">
        <ele>617.650546</ele>
        <time>2022-09-13T19:26:58.488Z</time>
      </trkpt>
      <trkpt lat="48.00376" lon="10.24652">
        <ele>618.523954</ele>
        <time>2022-09-13T19:28:03.644Z</time>
      </trkpt>
      <trkpt lat="48.0036" lon="10.24408">
        <ele>618.284478</ele>
        <time>2022-09-13T19:28:44.405Z</time>
      </trkpt>
      <trkpt lat="48.00347" lon="10.24203">
        <ele>617.803744</ele>
        <time>2022-09-13T19:29:18.211Z</time>
      </trkpt>
      <trkpt lat="48.00343" lon="10.24187">
        <ele>617.819656</ele>
        <time>2022-09-13T19:29:21.193Z</time>
      </trkpt>
      <trkpt lat="48.00207" lon="10.24182">
        <ele>618.010671</ele>
        <time>2022-09-13T19:29:59.136Z</time>
      </trkpt>
      <trkpt lat="48.00127" lon="10.2385">
        <ele>619.256448</ele>
        <time>2022-09-13T19:31:09.067Z</time>
      </trkpt>
      <trkpt lat="48.00058" lon="10.2357">
        <ele>620.272686</ele>
        <time>2022-09-13T19:32:04.696Z</time>
      </trkpt>
      <trkpt lat="47.99961" lon="10.23286">
        <ele>622.074121</ele>
        <time>2022-09-13T19:33:13.541Z</time>
      </trkpt>
      <trkpt lat="47.99858" lon="10.22983">
        <ele>623.397864</ele>
        <time>2022-09-13T19:34:20.824Z</time>
      </trkpt>
      <trkpt lat="47.99775" lon="10.22667">
        <ele>623.184502</ele>
        <time>2022-09-13T19:35:18.709Z</time>
      </trkpt>
      <trkpt lat="47.99683" lon="10.22322">
        <ele>623.36635</ele>
        <time>2022-09-13T19:36:25.740Z</time>
      </trkpt>
      <trkpt lat="47.99637" lon="10.22144">
        <ele>623.74829</ele>
        <time>2022-09-13T19:37:02.162Z</time>
      </trkpt>
      <trkpt lat="47.99638" lon="10.22125">
        <ele>623.808817</ele>
        <time>2022-09-13T19:37:06.077Z</time>
      </trkpt>
      <trkpt lat="47.9964" lon="10.22116">
        <ele>623.838565</ele>
        <time>2022-09-13T19:37:07.728Z</time>
      </trkpt>
      <trkpt lat="47.99575" lon="10.22048">
        <ele>624.223726</ele>
        <time>2022-09-13T19:37:30.985Z</time>
      </trkpt>
      <trkpt lat="47.99528" lon="10.22009">
        <ele>624.477541</ele>
        <time>2022-09-13T19:37:46.585Z</time>
      </trkpt>
      <trkpt lat="47.99413" lon="10.21954">
        <ele>624.798597</ele>
        <time>2022-09-13T19:38:20.531Z</time>
      </trkpt>
      <trkpt lat="47.9937" lon="10.21924">
        <ele>624.924374</ele>
        <time>2022-09-13T19:38:34.151Z</time>
      </trkpt>
      <trkpt lat="47.99329" lon="10.21887">
        <ele>624.854275</ele>
        <time>2022-09-13T19:38:46.849Z</time>
      </trkpt>
      <trkpt lat="47.99266" lon="10.21814">
        <ele>624.666212</ele>
        <time>2022-09-13T19:39:06.100Z</time>
      </trkpt>
      <trkpt lat="47.99189" lon="10.21725">
        <ele>624.380288</ele>
        <time>2022-09-13T19:39:31.511Z</time>
      </trkpt>
      <trkpt lat="47.9917" lon="10.21703">
        <ele>624.290341</ele>
        <time>2022-09-13T19:39:38.559Z</time>
      </trkpt>
      <trkpt lat="47.99151" lon="10.21682">
        <ele>624.198869</ele>
        <time>2022-09-13T19:39:44.784Z</time>
      </trkpt>
      <trkpt lat="47.99141" lon="10.21679">
        <ele>624.161541</ele>
        <time>2022-09-13T19:39:47.021Z</time>
      </trkpt>
      <trkpt lat="47.99117" lon="10.21691">
        <ele>624.063284</ele>
        <time>2022-09-13T19:39:53.356Z</time>
      </trkpt>
      <trkpt lat="47.99098" lon="10.21664">
        <ele>623.962523</ele>
        <time>2022-09-13T19:39:59.723Z</time>
      </trkpt>
      <trkpt lat="47.9909" lon="10.21672">
        <ele>623.926801</ele>
        <time>2022-09-13T19:40:02.429Z</time>
      </trkpt>
      <trkpt lat="47.99073" lon="10.21636">
        <ele>623.774027</ele>
        <time>2022-09-13T19:40:09.323Z</time>
      </trkpt>
      <trkpt lat="47.99061" lon="10.21649">
        <ele>623.594306</ele>
        <time>2022-09-13T19:40:13.170Z</time>
      </trkpt>
      <trkpt lat="47.9905" lon="10.21595">
        <ele>623.136111</ele>
        <time>2022-09-13T19:40:22.205Z</time>
      </trkpt>
      <trkpt lat="47.99034" lon="10.21561">
        <ele>622.812971</ele>
        <time>2022-09-13T19:40:28.675Z</time>
      </trkpt>
      <trkpt lat="47.99032" lon="10.21528">
        <ele>622.545378</ele>
        <time>2022-09-13T19:40:33.558Z</time>
      </trkpt>
      <trkpt lat="47.99026" lon="10.21517">
        <ele>622.429454</ele>
        <time>2022-09-13T19:40:36.017Z</time>
      </trkpt>
      <trkpt lat="47.99026" lon="10.21506">
        <ele>622.341806</ele>
        <time>2022-09-13T19:40:37.570Z</time>
      </trkpt>
      <trkpt lat="47.99021" lon="10.21506">
        <ele>622.287008</ele>
        <time>2022-09-13T19:40:38.566Z</time>
      </trkpt>
      <trkpt lat="47.99019" lon="10.21491">
        <ele>622.167031</ele>
        <time>2022-09-13T19:40:40.761Z</time>
      </trkpt>
      <trkpt lat="47.99003" lon="10.21466">
        <ele>621.891175</ele>
        <time>2022-09-13T19:40:45.852Z</time>
      </trkpt>
      <trkpt lat="47.98965" lon="10.21412">
        <ele>620.916651</ele>
        <time>2022-09-13T19:40:56.944Z</time>
      </trkpt>
      <trkpt lat="47.98922" lon="10.21352">
        <ele>619.637308</ele>
        <time>2022-09-13T19:41:09.277Z</time>
      </trkpt>
      <trkpt lat="47.98912" lon="10.21333">
        <ele>619.276665</ele>
        <time>2022-09-13T19:41:12.711Z</time>
      </trkpt>
      <trkpt lat="47.98897" lon="10.21282">
        <ele>618.473944</ele>
        <time>2022-09-13T19:41:20.323Z</time>
      </trkpt>
      <trkpt lat="47.98891" lon="10.21257">
        <ele>618.076114</ele>
        <time>2022-09-13T19:41:24.125Z</time>
      </trkpt>
      <trkpt lat="47.98867" lon="10.21152">
        <ele>615.536139</ele>
        <time>2022-09-13T19:41:38.961Z</time>
      </trkpt>
      <trkpt lat="47.98834" lon="10.21051">
        <ele>612.761972</ele>
        <time>2022-09-13T19:41:52.995Z</time>
      </trkpt>
      <trkpt lat="47.98824" lon="10.21025">
        <ele>612.020989</ele>
        <time>2022-09-13T19:41:56.632Z</time>
      </trkpt>
      <trkpt lat="47.9882" lon="10.21014">
        <ele>611.692049</ele>
        <time>2022-09-13T19:41:58.245Z</time>
      </trkpt>
      <trkpt lat="47.98756" lon="10.20846">
        <ele>606.811907</ele>
        <time>2022-09-13T19:42:22.308Z</time>
      </trkpt>
      <trkpt lat="47.98754" lon="10.2084">
        <ele>606.634807</ele>
        <time>2022-09-13T19:42:23.274Z</time>
      </trkpt>
      <trkpt lat="47.98713" lon="10.20751">
        <ele>604.047089</ele>
        <time>2022-09-13T19:42:38.139Z</time>
      </trkpt>
      <trkpt lat="47.98693" lon="10.20767">
        <ele>603.526011</ele>
        <time>2022-09-13T19:42:42.721Z</time>
      </trkpt>
      <trkpt lat="47.9868" lon="10.20765">
        <ele>603.227908</ele>
        <time>2022-09-13T19:42:45.389Z</time>
      </trkpt>
      <trkpt lat="47.98631" lon="10.20692">
        <ele>601.648619</ele>
        <time>2022-09-13T19:42:59.870Z</time>
      </trkpt>
      <trkpt lat="47.98624" lon="10.20674">
        <ele>601.330186</ele>
        <time>2022-09-13T19:43:02.821Z</time>
      </trkpt>
      <trkpt lat="47.98622" lon="10.20645">
        <ele>600.894395</ele>
        <time>2022-09-13T19:43:06.822Z</time>
      </trkpt>
      <trkpt lat="47.9862" lon="10.20631">
        <ele>600.667945</ele>
        <time>2022-09-13T19:43:08.857Z</time>
      </trkpt>
      <trkpt lat="47.98598" lon="10.20597">
        <ele>600.033235</ele>
        <time>2022-09-13T19:43:15.510Z</time>
      </trkpt>
      <trkpt lat="47.9859" lon="10.20571">
        <ele>599.748847</ele>
        <time>2022-09-13T19:43:19.744Z</time>
      </trkpt>
      <trkpt lat="47.98582" lon="10.20472">
        <ele>598.77429</ele>
        <time>2022-09-13T19:43:34.341Z</time>
      </trkpt>
      <trkpt lat="47.98578" lon="10.20412">
        <ele>598.193028</ele>
        <time>2022-09-13T19:43:43.263Z</time>
      </trkpt>
      <trkpt lat="47.98578" lon="10.20402">
        <ele>598.091631</ele>
        <time>2022-09-13T19:43:44.864Z</time>
      </trkpt>
      <trkpt lat="47.98578" lon="10.20395">
        <ele>598.025297</ele>
        <time>2022-09-13T19:43:45.907Z</time>
      </trkpt>
      <trkpt lat="47.98587" lon="10.20336">
        <ele>597.517487</ele>
        <time>2022-09-13T19:43:55.125Z</time>
      </trkpt>
      <trkpt lat="47.98579" lon="10.20273">
        <ele>597.331788</ele>
        <time>2022-09-13T19:44:05.007Z</time>
      </trkpt>
      <trkpt lat="47.98578" lon="10.20264">
        <ele>597.304068</ele>
        <time>2022-09-13T19:44:06.518Z</time>
      </trkpt>
      <trkpt lat="47.98569" lon="10.20223">
        <ele>597.179377</ele>
        <time>2022-09-13T19:44:13.656Z</time>
      </trkpt>
      <trkpt lat="47.98567" lon="10.20202">
        <ele>597.115556</ele>
        <time>2022-09-13T19:44:17.537Z</time>
      </trkpt>
      <trkpt lat="47.98552" lon="10.20099">
        <ele>596.809964</ele>
        <time>2022-09-13T19:44:37.295Z</time>
      </trkpt>
      <trkpt lat="47.98535" lon="10.19968">
        <ele>597.038986</ele>
        <time>2022-09-13T19:45:01.753Z</time>
      </trkpt>
      <trkpt lat="47.98517" lon="10.19891">
        <ele>597.221754</ele>
        <time>2022-09-13T19:45:17.698Z</time>
      </trkpt>
      <trkpt lat="47.9851" lon="10.19848">
        <ele>597.320812</ele>
        <time>2022-09-13T19:45:27.600Z</time>
      </trkpt>
      <trkpt lat="47.98512" lon="10.19796">
        <ele>597.423511</ele>
        <time>2022-09-13T19:45:39.300Z</time>
      </trkpt>
      <trkpt lat="47.98525" lon="10.19718">
        <ele>597.566816</ele>
        <time>2022-09-13T19:45:56.065Z</time>
      </trkpt>
      <trkpt lat="47.98529" lon="10.19692">
        <ele>597.613368</ele>
        <time>2022-09-13T19:46:00.752Z</time>
      </trkpt>
      <trkpt lat="47.98537" lon="10.19624">
        <ele>597.735636</ele>
        <time>2022-09-13T19:46:13.177Z</time>
      </trkpt>
      <trkpt lat="47.98543" lon="10.19563">
        <ele>597.84418</ele>
        <time>2022-09-13T19:46:24.286Z</time>
      </trkpt>
      <trkpt lat="47.98557" lon="10.19462">
        <ele>597.658019</ele>
        <time>2022-09-13T19:46:43.273Z</time>
      </trkpt>
      <trkpt lat="47.98524" lon="10.19428">
        <ele>597.545305</ele>
        <time>2022-09-13T19:46:53.730Z</time>
      </trkpt>
      <trkpt lat="47.98557" lon="10.19345">
        <ele>597.364144</ele>
        <time>2022-09-13T19:47:09.240Z</time>
      </trkpt>
      <trkpt lat="47.9858" lon="10.1925">
        <ele>597.331428</ele>
        <time>2022-09-13T19:47:26.597Z</time>
      </trkpt>
      <trkpt lat="47.98634" lon="10.19186">
        <ele>597.320099</ele>
        <time>2022-09-13T19:47:44.917Z</time>
      </trkpt>
      <trkpt lat="47.98693" lon="10.19123">
        <ele>597.408732</ele>
        <time>2022-09-13T19:48:05.423Z</time>
      </trkpt>
      <trkpt lat="47.98698" lon="10.19117">
        <ele>597.439575</ele>
        <time>2022-09-13T19:48:07.277Z</time>
      </trkpt>
      <trkpt lat="47.98706" lon="10.19111">
        <ele>597.481998</ele>
        <time>2022-09-13T19:48:09.793Z</time>
      </trkpt>
      <trkpt lat="47.9872" lon="10.191">
        <ele>597.55335</ele>
        <time>2022-09-13T19:48:14.181Z</time>
      </trkpt>
      <trkpt lat="47.98726" lon="10.19095">
        <ele>597.583981</ele>
        <time>2022-09-13T19:48:16.055Z</time>
      </trkpt>
      <trkpt lat="47.98772" lon="10.19063">
        <ele>597.822614</ele>
        <time>2022-09-13T19:48:30.790Z</time>
      </trkpt>
      <trkpt lat="47.98782" lon="10.19058">
        <ele>597.869255</ele>
        <time>2022-09-13T19:48:33.744Z</time>
      </trkpt>
      <trkpt lat="47.98779" lon="10.19045">
        <ele>597.910855</ele>
        <time>2022-09-13T19:48:36.394Z</time>
      </trkpt>
      <trkpt lat="47.98765" lon="10.18973">
        <ele>598.143709</ele>
        <time>2022-09-13T19:48:51.492Z</time>
      </trkpt>
      <trkpt lat="47.98752" lon="10.18911">
        <ele>598.386604</ele>
        <time>2022-09-13T19:49:04.450Z</time>
      </trkpt>
      <trkpt lat="47.98743" lon="10.18866">
        <ele>598.562256</ele>
        <time>2022-09-13T19:49:13.501Z</time>
      </trkpt>
      <trkpt lat="47.98732" lon="10.18814">
        <ele>598.769214</ele>
        <time>2022-09-13T19:49:23.988Z</time>
      </trkpt>
      <trkpt lat="47.98733" lon="10.18805">
        <ele>598.803278</ele>
        <time>2022-09-13T19:49:25.830Z</time>
      </trkpt>
      <trkpt lat="47.98733" lon="10.18797">
        <ele>598.832935</ele>
        <time>2022-09-13T19:49:27.289Z</time>
      </trkpt>
      <trkpt lat="47.98726" lon="10.18766">
        <ele>598.953867</ele>
        <time>2022-09-13T19:49:33.487Z</time>
      </trkpt>
      <trkpt lat="47.98729" lon="10.1874">
        <ele>599.055202</ele>
        <time>2022-09-13T19:49:38.895Z</time>
      </trkpt>
      <trkpt lat="47.98717" lon="10.18723">
        <ele>599.14917</ele>
        <time>2022-09-13T19:49:43.970Z</time>
      </trkpt>
      <trkpt lat="47.98712" lon="10.18686">
        <ele>599.276467</ele>
        <time>2022-09-13T19:49:51.864Z</time>
      </trkpt>
      <trkpt lat="47.98712" lon="10.18684">
        <ele>599.284025</ele>
        <time>2022-09-13T19:49:52.316Z</time>
      </trkpt>
      <trkpt lat="47.98713" lon="10.18674">
        <ele>599.317972</ele>
        <time>2022-09-13T19:49:54.408Z</time>
      </trkpt>
      <trkpt lat="47.98703" lon="10.18657">
        <ele>599.395889</ele>
        <time>2022-09-13T19:49:59.246Z</time>
      </trkpt>
      <trkpt lat="47.98704" lon="10.18639">
        <ele>599.457988</ele>
        <time>2022-09-13T19:50:02.639Z</time>
      </trkpt>
      <trkpt lat="47.98703" lon="10.18635">
        <ele>599.46928</ele>
        <time>2022-09-13T19:50:03.674Z</time>
      </trkpt>
      <trkpt lat="47.987" lon="10.18623">
        <ele>599.514478</ele>
        <time>2022-09-13T19:50:07.891Z</time>
      </trkpt>
      <trkpt lat="47.98696" lon="10.18606">
        <ele>599.575518</ele>
        <time>2022-09-13T19:50:13.620Z</time>
      </trkpt>
      <trkpt lat="47.98692" lon="10.18611">
        <ele>599.601251</ele>
        <time>2022-09-13T19:50:15.268Z</time>
      </trkpt>
      <trkpt lat="47.98675" lon="10.18507">
        <ele>599.965437</ele>
        <time>2022-09-13T19:50:40.619Z</time>
      </trkpt>
      <trkpt lat="47.98671" lon="10.1848">
        <ele>600.061014</ele>
        <time>2022-09-13T19:50:47.965Z</time>
      </trkpt>
      <trkpt lat="47.98659" lon="10.18415">
        <ele>600.385205</ele>
        <time>2022-09-13T19:51:06.199Z</time>
      </trkpt>
      <trkpt lat="47.98656" lon="10.18396">
        <ele>600.48034</ele>
        <time>2022-09-13T19:51:11.416Z</time>
      </trkpt>
      <trkpt lat="47.9865" lon="10.18367">
        <ele>600.626539</ele>
        <time>2022-09-13T19:51:18.344Z</time>
      </trkpt>
      <trkpt lat="47.98648" lon="10.18356">
        <ele>600.681918</ele>
        <time>2022-09-13T19:51:21.416Z</time>
      </trkpt>
      <trkpt lat="47.98643" lon="10.18335">
        <ele>600.788437</ele>
        <time>2022-09-13T19:51:27.333Z</time>
      </trkpt>
      <trkpt lat="47.98638" lon="10.18302">
        <ele>600.953209</ele>
        <time>2022-09-13T19:51:35.947Z</time>
      </trkpt>
      <trkpt lat="47.98628" lon="10.18249">
        <ele>601.219415</ele>
        <time>2022-09-13T19:51:49.043Z</time>
      </trkpt>
      <trkpt lat="47.98617" lon="10.18208">
        <ele>601.364363</ele>
        <time>2022-09-13T19:52:00.179Z</time>
      </trkpt>
      <trkpt lat="47.98623" lon="10.18135">
        <ele>601.362649</ele>
        <time>2022-09-13T19:52:19.223Z</time>
      </trkpt>
      <trkpt lat="47.98626" lon="10.18082">
        <ele>601.36144</ele>
        <time>2022-09-13T19:52:31.958Z</time>
      </trkpt>
      <trkpt lat="47.98626" lon="10.18065">
        <ele>601.361045</ele>
        <time>2022-09-13T19:52:36.306Z</time>
      </trkpt>
      <trkpt lat="47.98626" lon="10.18062">
        <ele>601.360961</ele>
        <time>2022-09-13T19:52:37.232Z</time>
      </trkpt>
      <trkpt lat="47.98625" lon="10.18058">
        <ele>601.360858</ele>
        <time>2022-09-13T19:52:38.217Z</time>
      </trkpt>
      <trkpt lat="47.98622" lon="10.18038">
        <ele>601.360406</ele>
        <time>2022-09-13T19:52:42.416Z</time>
      </trkpt>
      <trkpt lat="47.98613" lon="10.17999">
        <ele>601.359435</ele>
        <time>2022-09-13T19:52:51.971Z</time>
      </trkpt>
      <trkpt lat="47.98602" lon="10.1796">
        <ele>601.358472</ele>
        <time>2022-09-13T19:53:00.951Z</time>
      </trkpt>
      <trkpt lat="47.98591" lon="10.17974">
        <ele>601.303953</ele>
        <time>2022-09-13T19:53:03.976Z</time>
      </trkpt>
      <trkpt lat="47.98575" lon="10.17982">
        <ele>601.236367</ele>
        <time>2022-09-13T19:53:08.104Z</time>
      </trkpt>
      <trkpt lat="47.98553" lon="10.17988">
        <ele>601.148478</ele>
        <time>2022-09-13T19:53:13.106Z</time>
      </trkpt>
      <trkpt lat="47.98519" lon="10.17998">
        <ele>601.010228</ele>
        <time>2022-09-13T19:53:21.499Z</time>
      </trkpt>
      <trkpt lat="47.98502" lon="10.18">
        <ele>600.941111</ele>
        <time>2022-09-13T19:53:26.241Z</time>
      </trkpt>
      <trkpt lat="47.98485" lon="10.18">
        <ele>600.875725</ele>
        <time>2022-09-13T19:53:30.129Z</time>
      </trkpt>
      <trkpt lat="47.98472" lon="10.17999">
        <ele>600.824562</ele>
        <time>2022-09-13T19:53:33.320Z</time>
      </trkpt>
      <trkpt lat="47.98457" lon="10.17996">
        <ele>600.764984</ele>
        <time>2022-09-13T19:53:36.977Z</time>
      </trkpt>
      <trkpt lat="47.98449" lon="10.17992">
        <ele>600.728753</ele>
        <time>2022-09-13T19:53:39.174Z</time>
      </trkpt>
      <trkpt lat="47.98443" lon="10.17987">
        <ele>600.700959</ele>
        <time>2022-09-13T19:53:41.549Z</time>
      </trkpt>
      <trkpt lat="47.9844" lon="10.17985">
        <ele>600.688772</ele>
        <time>2022-09-13T19:53:42.603Z</time>
      </trkpt>
      <trkpt lat="47.98384" lon="10.17947">
        <ele>601.359805</ele>
        <time>2022-09-13T19:54:01.735Z</time>
      </trkpt>
      <trkpt lat="47.98365" lon="10.17946">
        <ele>601.630944</ele>
        <time>2022-09-13T19:54:08.411Z</time>
      </trkpt>
      <trkpt lat="47.98325" lon="10.17949">
        <ele>602.20205</ele>
        <time>2022-09-13T19:54:22.663Z</time>
      </trkpt>
      <trkpt lat="47.98311" lon="10.17941">
        <ele>602.409734</ele>
        <time>2022-09-13T19:54:28.102Z</time>
      </trkpt>
      <trkpt lat="47.98296" lon="10.17914">
        <ele>602.750758</ele>
        <time>2022-09-13T19:54:36.777Z</time>
      </trkpt>
      <trkpt lat="47.98292" lon="10.17908">
        <ele>602.82468</ele>
        <time>2022-09-13T19:54:38.699Z</time>
      </trkpt>
      <trkpt lat="47.98286" lon="10.17893">
        <ele>602.985983</ele>
        <time>2022-09-13T19:54:42.857Z</time>
      </trkpt>
      <trkpt lat="47.98283" lon="10.17885">
        <ele>603.080819</ele>
        <time>2022-09-13T19:54:45.337Z</time>
      </trkpt>
      <trkpt lat="47.98248" lon="10.17834">
        <ele>603.59268</ele>
        <time>2022-09-13T19:55:01.860Z</time>
      </trkpt>
      <trkpt lat="47.98239" lon="10.17823">
        <ele>603.710406</ele>
        <time>2022-09-13T19:55:05.972Z</time>
      </trkpt>
      <trkpt lat="47.98211" lon="10.17786">
        <ele>604.072012</ele>
        <time>2022-09-13T19:55:18.174Z</time>
      </trkpt>
      <trkpt lat="47.98205" lon="10.17773">
        <ele>604.178214</ele>
        <time>2022-09-13T19:55:21.857Z</time>
      </trkpt>
      <trkpt lat="47.98175" lon="10.177">
        <ele>604.740028</ele>
        <time>2022-09-13T19:55:38.806Z</time>
      </trkpt>
      <trkpt lat="47.98148" lon="10.17653">
        <ele>604.884306</ele>
        <time>2022-09-13T19:55:49.728Z</time>
      </trkpt>
      <trkpt lat="47.98106" lon="10.17594">
        <ele>604.661849</ele>
        <time>2022-09-13T19:56:04.156Z</time>
      </trkpt>
      <trkpt lat="47.9808" lon="10.17529">
        <ele>604.466074</ele>
        <time>2022-09-13T19:56:16.715Z</time>
      </trkpt>
      <trkpt lat="47.98081" lon="10.17515">
        <ele>604.430772</ele>
        <time>2022-09-13T19:56:18.978Z</time>
      </trkpt>
      <trkpt lat="47.98036" lon="10.17366">
        <ele>603.947582</ele>
        <time>2022-09-13T19:56:45.645Z</time>
      </trkpt>
      <trkpt lat="47.98039" lon="10.17355">
        <ele>603.912646</ele>
        <time>2022-09-13T19:56:47.417Z</time>
      </trkpt>
      <trkpt lat="47.98036" lon="10.17343">
        <ele>603.871328</ele>
        <time>2022-09-13T19:56:49.520Z</time>
      </trkpt>
      <trkpt lat="47.98034" lon="10.17332">
        <ele>603.833047</ele>
        <time>2022-09-13T19:56:51.475Z</time>
      </trkpt>
      <trkpt lat="47.98028" lon="10.17324">
        <ele>603.795839</ele>
        <time>2022-09-13T19:56:53.311Z</time>
      </trkpt>
      <trkpt lat="47.98006" lon="10.1724">
        <ele>603.506316</ele>
        <time>2022-09-13T19:57:08.300Z</time>
      </trkpt>
      <trkpt lat="47.97976" lon="10.17137">
        <ele>603.262844</ele>
        <time>2022-09-13T19:57:28.088Z</time>
      </trkpt>
      <trkpt lat="47.97935" lon="10.17001">
        <ele>602.998993</ele>
        <time>2022-09-13T19:57:52.637Z</time>
      </trkpt>
      <trkpt lat="47.97935" lon="10.16979">
        <ele>602.961113</ele>
        <time>2022-09-13T19:57:56.299Z</time>
      </trkpt>
      <trkpt lat="47.97927" lon="10.16947">
        <ele>603.093778</ele>
        <time>2022-09-13T19:58:02.556Z</time>
      </trkpt>
      <trkpt lat="47.97926" lon="10.16942">
        <ele>603.141677</ele>
        <time>2022-09-13T19:58:03.461Z</time>
      </trkpt>
      <trkpt lat="47.97912" lon="10.16908">
        <ele>603.519565</ele>
        <time>2022-09-13T19:58:10.920Z</time>
      </trkpt>
      <trkpt lat="47.97897" lon="10.16862">
        <ele>604.006665</ele>
        <time>2022-09-13T19:58:20.963Z</time>
      </trkpt>
      <trkpt lat="47.9789" lon="10.16822">
        <ele>604.400002</ele>
        <time>2022-09-13T19:58:29.713Z</time>
      </trkpt>
      <trkpt lat="47.97875" lon="10.16792">
        <ele>604.755451</ele>
        <time>2022-09-13T19:58:38.112Z</time>
      </trkpt>
      <trkpt lat="47.97845" lon="10.16638">
        <ele>607.665844</ele>
        <time>2022-09-13T19:59:23.486Z</time>
      </trkpt>
      <trkpt lat="47.97816" lon="10.1646">
        <ele>612.417661</ele>
        <time>2022-09-13T20:00:22.546Z</time>
      </trkpt>
      <trkpt lat="47.97811" lon="10.16435">
        <ele>612.815275</ele>
        <time>2022-09-13T20:00:30.776Z</time>
      </trkpt>
      <trkpt lat="47.97782" lon="10.16312">
        <ele>614.636832</ele>
        <time>2022-09-13T20:01:05.917Z</time>
      </trkpt>
      <trkpt lat="47.97738" lon="10.16173">
        <ele>616.175467</ele>
        <time>2022-09-13T20:01:36.198Z</time>
      </trkpt>
      <trkpt lat="47.97735" lon="10.16156">
        <ele>616.151378</ele>
        <time>2022-09-13T20:01:39.211Z</time>
      </trkpt>
      <trkpt lat="47.97732" lon="10.1614">
        <ele>616.12769</ele>
        <time>2022-09-13T20:01:42.114Z</time>
      </trkpt>
      <trkpt lat="47.97723" lon="10.16141">
        <ele>616.107369</ele>
        <time>2022-09-13T20:01:44.577Z</time>
      </trkpt>
      <trkpt lat="47.9768" lon="10.16045">
        <ele>615.948144</ele>
        <time>2022-09-13T20:02:04.240Z</time>
      </trkpt>
      <trkpt lat="47.97667" lon="10.16016">
        <ele>615.899328</ele>
        <time>2022-09-13T20:02:10.326Z</time>
      </trkpt>
      <trkpt lat="47.97629" lon="10.15931">
        <ele>614.859991</ele>
        <time>2022-09-13T20:02:26.501Z</time>
      </trkpt>
      <trkpt lat="47.97604" lon="10.15867">
        <ele>613.828963</ele>
        <time>2022-09-13T20:02:37.424Z</time>
      </trkpt>
      <trkpt lat="47.97602" lon="10.15835">
        <ele>613.383898</ele>
        <time>2022-09-13T20:02:41.963Z</time>
      </trkpt>
      <trkpt lat="47.97538" lon="10.15619">
        <ele>608.382972</ele>
        <time>2022-09-13T20:03:12.069Z</time>
      </trkpt>
      <trkpt lat="47.97518" lon="10.1557">
        <ele>606.887575</ele>
        <time>2022-09-13T20:03:19.151Z</time>
      </trkpt>
      <trkpt lat="47.975" lon="10.15538">
        <ele>605.802217</ele>
        <time>2022-09-13T20:03:24.336Z</time>
      </trkpt>
      <trkpt lat="47.9749" lon="10.15548">
        <ele>605.366458</ele>
        <time>2022-09-13T20:03:26.567Z</time>
      </trkpt>
      <trkpt lat="47.97483" lon="10.15556">
        <ele>605.12763</ele>
        <time>2022-09-13T20:03:28.244Z</time>
      </trkpt>
      <trkpt lat="47.97475" lon="10.15534">
        <ele>604.910128</ele>
        <time>2022-09-13T20:03:31.414Z</time>
      </trkpt>
      <trkpt lat="47.97427" lon="10.1544">
        <ele>603.882584</ele>
        <time>2022-09-13T20:03:47.649Z</time>
      </trkpt>
      <trkpt lat="47.97416" lon="10.15417">
        <ele>603.63193</ele>
        <time>2022-09-13T20:03:51.868Z</time>
      </trkpt>
      <trkpt lat="47.97375" lon="10.15317">
        <ele>603.355622</ele>
        <time>2022-09-13T20:04:16.018Z</time>
      </trkpt>
      <trkpt lat="47.97367" lon="10.15311">
        <ele>603.634006</ele>
        <time>2022-09-13T20:04:19.431Z</time>
      </trkpt>
      <trkpt lat="47.97286" lon="10.15101">
        <ele>608.435195</ele>
        <time>2022-09-13T20:05:30.005Z</time>
      </trkpt>
      <trkpt lat="47.97242" lon="10.15008">
        <ele>610.606014</ele>
        <time>2022-09-13T20:06:03.258Z</time>
      </trkpt>
      <trkpt lat="47.97104" lon="10.14778">
        <ele>615.447361</ele>
        <time>2022-09-13T20:07:20.138Z</time>
      </trkpt>
      <trkpt lat="47.97088" lon="10.14745">
        <ele>615.989406</ele>
        <time>2022-09-13T20:07:29.410Z</time>
      </trkpt>
      <trkpt lat="47.97085" lon="10.14726">
        <ele>616.250927</ele>
        <time>2022-09-13T20:07:34.653Z</time>
      </trkpt>
      <trkpt lat="47.97076" lon="10.14699">
        <ele>616.638586</ele>
        <time>2022-09-13T20:07:41.018Z</time>
      </trkpt>
      <trkpt lat="47.97058" lon="10.14666">
        <ele>617.070665</ele>
        <time>2022-09-13T20:07:51.162Z</time>
      </trkpt>
      <trkpt lat="47.96776" lon="10.14205">
        <ele>622.127957</ele>
        <time>2022-09-13T20:10:07.909Z</time>
      </trkpt>
      <trkpt lat="47.96604" lon="10.13924">
        <ele>623.619757</ele>
        <time>2022-09-13T20:11:21.245Z</time>
      </trkpt>
      <trkpt lat="47.96551" lon="10.13838">
        <ele>623.887652</ele>
        <time>2022-09-13T20:11:44.323Z</time>
      </trkpt>
      <trkpt lat="47.9648" lon="10.13723">
        <ele>624.187652</ele>
        <time>2022-09-13T20:12:13.907Z</time>
      </trkpt>
      <trkpt lat="47.96386" lon="10.13564">
        <ele>623.963532</ele>
        <time>2022-09-13T20:12:50.262Z</time>
      </trkpt>
      <trkpt lat="47.96374" lon="10.13545">
        <ele>623.921137</ele>
        <time>2022-09-13T20:12:54.679Z</time>
      </trkpt>
      <trkpt lat="47.96294" lon="10.13386">
        <ele>623.688631</ele>
        <time>2022-09-13T20:13:28.568Z</time>
      </trkpt>
      <trkpt lat="47.96156" lon="10.13115">
        <ele>623.535338</ele>
        <time>2022-09-13T20:14:29.013Z</time>
      </trkpt>
      <trkpt lat="47.96143" lon="10.13078">
        <ele>623.530152</ele>
        <time>2022-09-13T20:14:36.569Z</time>
      </trkpt>
      <trkpt lat="47.96078" lon="10.1293">
        <ele>623.704497</ele>
        <time>2022-09-13T20:15:08.853Z</time>
      </trkpt>
      <trkpt lat="47.95997" lon="10.12718">
        <ele>624.044299</ele>
        <time>2022-09-13T20:15:54.902Z</time>
      </trkpt>
      <trkpt lat="47.95946" lon="10.12523">
        <ele>624.098543</ele>
        <time>2022-09-13T20:16:33.599Z</time>
      </trkpt>
      <trkpt lat="47.95912" lon="10.12331">
        <ele>623.628362</ele>
        <time>2022-09-13T20:17:06.549Z</time>
      </trkpt>
      <trkpt lat="47.95833" lon="10.11996">
        <ele>621.037438</ele>
        <time>2022-09-13T20:18:00.547Z</time>
      </trkpt>
      <trkpt lat="47.95822" lon="10.11962">
        <ele>620.747788</ele>
        <time>2022-09-13T20:18:06.468Z</time>
      </trkpt>
      <trkpt lat="47.9579" lon="10.11935">
        <ele>620.341185</ele>
        <time>2022-09-13T20:18:14.745Z</time>
      </trkpt>
      <trkpt lat="47.95732" lon="10.11919">
        <ele>619.67022</ele>
        <time>2022-09-13T20:18:28.447Z</time>
      </trkpt>
      <trkpt lat="47.95642" lon="10.119">
        <ele>617.80981</ele>
        <time>2022-09-13T20:18:49.003Z</time>
      </trkpt>
      <trkpt lat="47.95579" lon="10.11855">
        <ele>616.369448</ele>
        <time>2022-09-13T20:19:03.271Z</time>
      </trkpt>
      <trkpt lat="47.95569" lon="10.11831">
        <ele>615.98011</ele>
        <time>2022-09-13T20:19:06.764Z</time>
      </trkpt>
      <trkpt lat="47.95543" lon="10.11702">
        <ele>613.803175</ele>
        <time>2022-09-13T20:19:24.006Z</time>
      </trkpt>
      <trkpt lat="47.95543" lon="10.11669">
        <ele>613.253277</ele>
        <time>2022-09-13T20:19:28.447Z</time>
      </trkpt>
      <trkpt lat="47.95543" lon="10.11663">
        <ele>613.15595</ele>
        <time>2022-09-13T20:19:29.302Z</time>
      </trkpt>
      <trkpt lat="47.95541" lon="10.11631">
        <ele>612.643567</ele>
        <time>2022-09-13T20:19:33.548Z</time>
      </trkpt>
      <trkpt lat="47.95526" lon="10.11633">
        <ele>612.283627</ele>
        <time>2022-09-13T20:19:37.130Z</time>
      </trkpt>
      <trkpt lat="47.95514" lon="10.11625">
        <ele>611.963759</ele>
        <time>2022-09-13T20:19:40.078Z</time>
      </trkpt>
      <trkpt lat="47.95502" lon="10.11607">
        <ele>611.739676</ele>
        <time>2022-09-13T20:19:44.528Z</time>
      </trkpt>
      <trkpt lat="47.95485" lon="10.11579">
        <ele>612.278495</ele>
        <time>2022-09-13T20:19:51.961Z</time>
      </trkpt>
      <trkpt lat="47.95477" lon="10.11572">
        <ele>612.459219</ele>
        <time>2022-09-13T20:19:55.239Z</time>
      </trkpt>
      <trkpt lat="47.95453" lon="10.1157">
        <ele>612.950197</ele>
        <time>2022-09-13T20:20:03.102Z</time>
      </trkpt>
      <trkpt lat="47.95449" lon="10.11576">
        <ele>613.075784</ele>
        <time>2022-09-13T20:20:05.324Z</time>
      </trkpt>
      <trkpt lat="47.95414" lon="10.11615">
        <ele>613.96802</ele>
        <time>2022-09-13T20:20:22.365Z</time>
      </trkpt>
      <trkpt lat="47.95392" lon="10.11626">
        <ele>614.444155</ele>
        <time>2022-09-13T20:20:32.131Z</time>
      </trkpt>
      <trkpt lat="47.9537" lon="10.11646">
        <ele>614.978899</ele>
        <time>2022-09-13T20:20:43.506Z</time>
      </trkpt>
      <trkpt lat="47.95357" lon="10.11656">
        <ele>615.284375</ele>
        <time>2022-09-13T20:20:49.882Z</time>
      </trkpt>
      <trkpt lat="47.95341" lon="10.11658">
        <ele>615.48844</ele>
        <time>2022-09-13T20:20:57.233Z</time>
      </trkpt>
      <trkpt lat="47.9532" lon="10.11659">
        <ele>615.69928</ele>
        <time>2022-09-13T20:21:06.667Z</time>
      </trkpt>
      <trkpt lat="47.95282" lon="10.11649">
        <ele>616.084555</ele>
        <time>2022-09-13T20:21:23.221Z</time>
      </trkpt>
      <trkpt lat="47.95276" lon="10.11647">
        <ele>616.145722</ele>
        <time>2022-09-13T20:21:25.262Z</time>
      </trkpt>
      <trkpt lat="47.95167" lon="10.11621">
        <ele>617.08232</ele>
        <time>2022-09-13T20:21:52.663Z</time>
      </trkpt>
      <trkpt lat="47.95141" lon="10.11623">
        <ele>616.805746</ele>
        <time>2022-09-13T20:21:58.062Z</time>
      </trkpt>
      <trkpt lat="47.95107" lon="10.11626">
        <ele>616.448632</ele>
        <time>2022-09-13T20:22:04.873Z</time>
      </trkpt>
      <trkpt lat="47.95082" lon="10.11636">
        <ele>616.171845</ele>
        <time>2022-09-13T20:22:10.211Z</time>
      </trkpt>
      <trkpt lat="47.94987" lon="10.11686">
        <ele>615.627253</ele>
        <time>2022-09-13T20:22:35.042Z</time>
      </trkpt>
      <trkpt lat="47.94961" lon="10.11685">
        <ele>616.239854</ele>
        <time>2022-09-13T20:22:43.302Z</time>
      </trkpt>
      <trkpt lat="47.94925" lon="10.11659">
        <ele>617.166708</ele>
        <time>2022-09-13T20:22:57.833Z</time>
      </trkpt>
      <trkpt lat="47.94919" lon="10.11651">
        <ele>617.371739</ele>
        <time>2022-09-13T20:23:01.159Z</time>
      </trkpt>
      <trkpt lat="47.949" lon="10.11617">
        <ele>618.057569</ele>
        <time>2022-09-13T20:23:13.210Z</time>
      </trkpt>
      <trkpt lat="47.94884" lon="10.11603">
        <ele>618.478528</ele>
        <time>2022-09-13T20:23:20.642Z</time>
      </trkpt>
      <trkpt lat="47.94754" lon="10.11522">
        <ele>623.424656</ele>
        <time>2022-09-13T20:24:27.499Z</time>
      </trkpt>
      <trkpt lat="47.94643" lon="10.11489">
        <ele>627.645726</ele>
        <time>2022-09-13T20:25:17.927Z</time>
      </trkpt>
      <trkpt lat="47.94523" lon="10.1148">
        <ele>631.424664</ele>
        <time>2022-09-13T20:26:09.673Z</time>
      </trkpt>
      <trkpt lat="47.94509" lon="10.11477">
        <ele>631.869129</ele>
        <time>2022-09-13T20:26:15.577Z</time>
      </trkpt>
      <trkpt lat="47.94493" lon="10.11464">
        <ele>632.328013</ele>
        <time>2022-09-13T20:26:21.683Z</time>
      </trkpt>
      <trkpt lat="47.94472" lon="10.11427">
        <ele>632.572788</ele>
        <time>2022-09-13T20:26:32.672Z</time>
      </trkpt>
      <trkpt lat="47.94431" lon="10.11338">
        <ele>633.131365</ele>
        <time>2022-09-13T20:26:55.216Z</time>
      </trkpt>
      <trkpt lat="47.94386" lon="10.11183">
        <ele>633.25505</ele>
        <time>2022-09-13T20:27:24.290Z</time>
      </trkpt>
      <trkpt lat="47.94343" lon="10.11086">
        <ele>632.502619</ele>
        <time>2022-09-13T20:27:44.543Z</time>
      </trkpt>
      <trkpt lat="47.94275" lon="10.10977">
        <ele>629.439002</ele>
        <time>2022-09-13T20:28:05.428Z</time>
      </trkpt>
      <trkpt lat="47.94271" lon="10.10973">
        <ele>629.173677</ele>
        <time>2022-09-13T20:28:06.298Z</time>
      </trkpt>
      <trkpt lat="47.94233" lon="10.10928">
        <ele>626.188621</ele>
        <time>2022-09-13T20:28:15.321Z</time>
      </trkpt>
      <trkpt lat="47.94215" lon="10.10911">
        <ele>624.850629</ele>
        <time>2022-09-13T20:28:19.390Z</time>
      </trkpt>
      <trkpt lat="47.9412" lon="10.10834">
        <ele>616.790882</ele>
        <time>2022-09-13T20:28:37.983Z</time>
      </trkpt>
      <trkpt lat="47.94125" lon="10.10819">
        <ele>615.729477</ele>
        <time>2022-09-13T20:28:39.736Z</time>
      </trkpt>
      <trkpt lat="47.94109" lon="10.10811">
        <ele>614.092062</ele>
        <time>2022-09-13T20:28:42.521Z</time>
      </trkpt>
      <trkpt lat="47.94086" lon="10.10797">
        <ele>611.695739</ele>
        <time>2022-09-13T20:28:46.531Z</time>
      </trkpt>
      <trkpt lat="47.94049" lon="10.10775">
        <ele>607.924496</ele>
        <time>2022-09-13T20:28:52.952Z</time>
      </trkpt>
      <trkpt lat="47.94004" lon="10.10734">
        <ele>603.359064</ele>
        <time>2022-09-13T20:29:01.808Z</time>
      </trkpt>
      <trkpt lat="47.93973" lon="10.10699">
        <ele>601.683021</ele>
        <time>2022-09-13T20:29:08.680Z</time>
      </trkpt>
      <trkpt lat="47.93944" lon="10.10668">
        <ele>600.133175</ele>
        <time>2022-09-13T20:29:15.245Z</time>
      </trkpt>
      <trkpt lat="47.93939" lon="10.10664">
        <ele>599.924869</ele>
        <time>2022-09-13T20:29:16.214Z</time>
      </trkpt>
      <trkpt lat="47.93896" lon="10.10631">
        <ele>597.799286</ele>
        <time>2022-09-13T20:29:25.467Z</time>
      </trkpt>
      <trkpt lat="47.93873" lon="10.10622">
        <ele>596.777253</ele>
        <time>2022-09-13T20:29:30.387Z</time>
      </trkpt>
      <trkpt lat="47.939" lon="10.10534">
        <ele>595.660034</ele>
        <time>2022-09-13T20:29:46.772Z</time>
      </trkpt>
      <trkpt lat="47.93927" lon="10.10447">
        <ele>595.202778</ele>
        <time>2022-09-13T20:30:04.764Z</time>
      </trkpt>
      <trkpt lat="47.93942" lon="10.10385">
        <ele>594.887211</ele>
        <time>2022-09-13T20:30:15.760Z</time>
      </trkpt>
      <trkpt lat="47.93966" lon="10.10306">
        <ele>594.559317</ele>
        <time>2022-09-13T20:30:29.952Z</time>
      </trkpt>
      <trkpt lat="47.93999" lon="10.10301">
        <ele>594.411859</ele>
        <time>2022-09-13T20:30:37.960Z</time>
      </trkpt>
      <trkpt lat="47.94012" lon="10.10284">
        <ele>594.331706</ele>
        <time>2022-09-13T20:30:42.311Z</time>
      </trkpt>
      <trkpt lat="47.94015" lon="10.10269">
        <ele>594.286587</ele>
        <time>2022-09-13T20:30:44.859Z</time>
      </trkpt>
      <trkpt lat="47.94043" lon="10.10018">
        <ele>593.66481</ele>
        <time>2022-09-13T20:31:32.267Z</time>
      </trkpt>
      <trkpt lat="47.9405" lon="10.09951">
        <ele>593.539758</ele>
        <time>2022-09-13T20:31:43.752Z</time>
      </trkpt>
      <trkpt lat="47.94048" lon="10.09916">
        <ele>593.475179</ele>
        <time>2022-09-13T20:31:50.054Z</time>
      </trkpt>
      <trkpt lat="47.94039" lon="10.09791">
        <ele>593.042597</ele>
        <time>2022-09-13T20:32:11.806Z</time>
      </trkpt>
      <trkpt lat="47.94028" lon="10.09586">
        <ele>592.305021</ele>
        <time>2022-09-13T20:32:45.886Z</time>
      </trkpt>
      <trkpt lat="47.94007" lon="10.09484">
        <ele>592.355951</ele>
        <time>2022-09-13T20:33:06.575Z</time>
      </trkpt>
      <trkpt lat="47.93989" lon="10.09403">
        <ele>592.397039</ele>
        <time>2022-09-13T20:33:23.145Z</time>
      </trkpt>
      <trkpt lat="47.93977" lon="10.09337">
        <ele>592.473784</ele>
        <time>2022-09-13T20:33:36.452Z</time>
      </trkpt>
      <trkpt lat="47.93975" lon="10.0929">
        <ele>592.621586</ele>
        <time>2022-09-13T20:33:45.695Z</time>
      </trkpt>
      <trkpt lat="47.93984" lon="10.09258">
        <ele>592.73159</ele>
        <time>2022-09-13T20:33:52.564Z</time>
      </trkpt>
      <trkpt lat="47.93995" lon="10.09239">
        <ele>592.811125</ele>
        <time>2022-09-13T20:33:57.473Z</time>
      </trkpt>
      <trkpt lat="47.93966" lon="10.09192">
        <ele>593.015331</ele>
        <time>2022-09-13T20:34:10.619Z</time>
      </trkpt>
      <trkpt lat="47.93924" lon="10.09151">
        <ele>593.250908</ele>
        <time>2022-09-13T20:34:26.058Z</time>
      </trkpt>
      <trkpt lat="47.93927" lon="10.09121">
        <ele>593.384038</ele>
        <time>2022-09-13T20:34:31.840Z</time>
      </trkpt>
      <trkpt lat="47.93922" lon="10.09066">
        <ele>593.648936</ele>
        <time>2022-09-13T20:34:42.861Z</time>
      </trkpt>
      <trkpt lat="47.93922" lon="10.09047">
        <ele>593.739327</ele>
        <time>2022-09-13T20:34:46.926Z</time>
      </trkpt>
      <trkpt lat="47.93929" lon="10.08973">
        <ele>594.097087</ele>
        <time>2022-09-13T20:35:02.017Z</time>
      </trkpt>
      <trkpt lat="47.93892" lon="10.08945">
        <ele>594.392151</ele>
        <time>2022-09-13T20:35:14.150Z</time>
      </trkpt>
      <trkpt lat="47.93874" lon="10.08922">
        <ele>594.577448</ele>
        <time>2022-09-13T20:35:21.215Z</time>
      </trkpt>
      <trkpt lat="47.93854" lon="10.08879">
        <ele>595.196831</ele>
        <time>2022-09-13T20:35:31.983Z</time>
      </trkpt>
      <trkpt lat="47.93807" lon="10.0877">
        <ele>596.73129</ele>
        <time>2022-09-13T20:36:02.686Z</time>
      </trkpt>
      <trkpt lat="47.93791" lon="10.08733">
        <ele>597.249565</ele>
        <time>2022-09-13T20:36:13.056Z</time>
      </trkpt>
      <trkpt lat="47.93769" lon="10.08692">
        <ele>597.969507</ele>
        <time>2022-09-13T20:36:26.533Z</time>
      </trkpt>
      <trkpt lat="47.93743" lon="10.08688">
        <ele>598.741872</ele>
        <time>2022-09-13T20:36:37.860Z</time>
      </trkpt>
      <trkpt lat="47.93695" lon="10.08665">
        <ele>600.252222</ele>
        <time>2022-09-13T20:36:59.068Z</time>
      </trkpt>
      <trkpt lat="47.93676" lon="10.08649">
        <ele>600.908095</ele>
        <time>2022-09-13T20:37:08.941Z</time>
      </trkpt>
      <trkpt lat="47.93651" lon="10.08618">
        <ele>601.870814</ele>
        <time>2022-09-13T20:37:23.237Z</time>
      </trkpt>
      <trkpt lat="47.93625" lon="10.08581">
        <ele>602.951994</ele>
        <time>2022-09-13T20:37:38.735Z</time>
      </trkpt>
      <trkpt lat="47.93547" lon="10.0843">
        <ele>604.720387</ele>
        <time>2022-09-13T20:38:22.065Z</time>
      </trkpt>
      <trkpt lat="47.93526" lon="10.08386">
        <ele>605.194054</ele>
        <time>2022-09-13T20:38:32.379Z</time>
      </trkpt>
      <trkpt lat="47.93518" lon="10.08372">
        <ele>605.365267</ele>
        <time>2022-09-13T20:38:36.001Z</time>
      </trkpt>
      <trkpt lat="47.93509" lon="10.08368">
        <ele>605.484678</ele>
        <time>2022-09-13T20:38:38.231Z</time>
      </trkpt>
      <trkpt lat="47.93496" lon="10.08374">
        <ele>605.598145</ele>
        <time>2022-09-13T20:38:42.247Z</time>
      </trkpt>
      <trkpt lat="47.93466" lon="10.08412">
        <ele>605.921284</ele>
        <time>2022-09-13T20:38:53.208Z</time>
      </trkpt>
      <trkpt lat="47.93435" lon="10.08435">
        <ele>606.201498</ele>
        <time>2022-09-13T20:39:02.949Z</time>
      </trkpt>
      <trkpt lat="47.93183" lon="10.08608">
        <ele>609.112869</ele>
        <time>2022-09-13T20:40:33.821Z</time>
      </trkpt>
      <trkpt lat="47.9307" lon="10.08661">
        <ele>609.837839</ele>
        <time>2022-09-13T20:41:08.628Z</time>
      </trkpt>
      <trkpt lat="47.93011" lon="10.08677">
        <ele>610.188344</ele>
        <time>2022-09-13T20:41:25.785Z</time>
      </trkpt>
      <trkpt lat="47.92987" lon="10.08677">
        <ele>610.26543</ele>
        <time>2022-09-13T20:41:32.789Z</time>
      </trkpt>
      <trkpt lat="47.92966" lon="10.08668">
        <ele>610.334679</ele>
        <time>2022-09-13T20:41:39.196Z</time>
      </trkpt>
      <trkpt lat="47.92944" lon="10.08644">
        <ele>610.422337</ele>
        <time>2022-09-13T20:41:47.108Z</time>
      </trkpt>
      <trkpt lat="47.92943" lon="10.0864">
        <ele>610.432164</ele>
        <time>2022-09-13T20:41:48.092Z</time>
      </trkpt>
      <trkpt lat="47.92937" lon="10.08589">
        <ele>610.543617</ele>
        <time>2022-09-13T20:41:57.959Z</time>
      </trkpt>
      <trkpt lat="47.92925" lon="10.08556">
        <ele>610.625027</ele>
        <time>2022-09-13T20:42:04.971Z</time>
      </trkpt>
      <trkpt lat="47.92875" lon="10.08516">
        <ele>610.684908</ele>
        <time>2022-09-13T20:42:20.425Z</time>
      </trkpt>
      <trkpt lat="47.92753" lon="10.08439">
        <ele>610.151436</ele>
        <time>2022-09-13T20:42:53.030Z</time>
      </trkpt>
      <trkpt lat="47.92611" lon="10.08394">
        <ele>609.749291</ele>
        <time>2022-09-13T20:43:28.568Z</time>
      </trkpt>
      <trkpt lat="47.9252" lon="10.08377">
        <ele>609.683772</ele>
        <time>2022-09-13T20:43:54.045Z</time>
      </trkpt>
      <trkpt lat="47.92423" lon="10.08361">
        <ele>610.041556</ele>
        <time>2022-09-13T20:44:22.428Z</time>
      </trkpt>
      <trkpt lat="47.92402" lon="10.08358">
        <ele>610.115394</ele>
        <time>2022-09-13T20:44:28.195Z</time>
      </trkpt>
      <trkpt lat="47.92294" lon="10.08353">
        <ele>610.454413</ele>
        <time>2022-09-13T20:44:59.003Z</time>
      </trkpt>
      <trkpt lat="47.92218" lon="10.08357">
        <ele>610.670771</ele>
        <time>2022-09-13T20:45:20.599Z</time>
      </trkpt>
      <trkpt lat="47.92203" lon="10.0835">
        <ele>610.716994</ele>
        <time>2022-09-13T20:45:25.040Z</time>
      </trkpt>
      <trkpt lat="47.9217" lon="10.08317">
        <ele>610.665392</ele>
        <time>2022-09-13T20:45:35.879Z</time>
      </trkpt>
      <trkpt lat="47.92123" lon="10.08299">
        <ele>610.4848</ele>
        <time>2022-09-13T20:45:48.074Z</time>
      </trkpt>
      <trkpt lat="47.92038" lon="10.08267">
        <ele>610.157552</ele>
        <time>2022-09-13T20:46:09.504Z</time>
      </trkpt>
      <trkpt lat="47.91974" lon="10.08227">
        <ele>609.853188</ele>
        <time>2022-09-13T20:46:26.330Z</time>
      </trkpt>
      <trkpt lat="47.91867" lon="10.08216">
        <ele>609.352646</ele>
        <time>2022-09-13T20:46:52.476Z</time>
      </trkpt>
      <trkpt lat="47.91809" lon="10.08222">
        <ele>609.286923</ele>
        <time>2022-09-13T20:47:08.286Z</time>
      </trkpt>
      <trkpt lat="47.91776" lon="10.08217">
        <ele>609.317486</ele>
        <time>2022-09-13T20:47:17.403Z</time>
      </trkpt>
      <trkpt lat="47.91713" lon="10.08154">
        <ele>609.389151</ele>
        <time>2022-09-13T20:47:38.297Z</time>
      </trkpt>
      <trkpt lat="47.91588" lon="10.08095">
        <ele>609.474255</ele>
        <time>2022-09-13T20:48:13.460Z</time>
      </trkpt>
      <trkpt lat="47.91513" lon="10.08004">
        <ele>609.542853</ele>
        <time>2022-09-13T20:48:39.479Z</time>
      </trkpt>
      <trkpt lat="47.9149" lon="10.07993">
        <ele>609.583726</ele>
        <time>2022-09-13T20:48:45.983Z</time>
      </trkpt>
      <trkpt lat="47.91453" lon="10.08003">
        <ele>609.648924</ele>
        <time>2022-09-13T20:48:56.417Z</time>
      </trkpt>
      <trkpt lat="47.91355" lon="10.08061">
        <ele>609.830008</ele>
        <time>2022-09-13T20:49:25.845Z</time>
      </trkpt>
      <trkpt lat="47.913" lon="10.08101">
        <ele>609.924603</ele>
        <time>2022-09-13T20:49:42.841Z</time>
      </trkpt>
      <trkpt lat="47.9127" lon="10.08111">
        <ele>609.97247</ele>
        <time>2022-09-13T20:49:51.359Z</time>
      </trkpt>
      <trkpt lat="47.91241" lon="10.08105">
        <ele>610.017847</ele>
        <time>2022-09-13T20:49:59.336Z</time>
      </trkpt>
      <trkpt lat="47.91171" lon="10.08052">
        <ele>610.121056</ele>
        <time>2022-09-13T20:50:20.508Z</time>
      </trkpt>
      <trkpt lat="47.9101" lon="10.07983">
        <ele>610.25194</ele>
        <time>2022-09-13T20:51:05.422Z</time>
      </trkpt>
      <trkpt lat="47.90988" lon="10.07965">
        <ele>610.343773</ele>
        <time>2022-09-13T20:51:12.509Z</time>
      </trkpt>
      <trkpt lat="47.9096" lon="10.0787">
        <ele>610.592449</ele>
        <time>2022-09-13T20:51:32.067Z</time>
      </trkpt>
      <trkpt lat="47.90886" lon="10.07769">
        <ele>610.958119</ele>
        <time>2022-09-13T20:52:01.363Z</time>
      </trkpt>
      <trkpt lat="47.9073" lon="10.07623">
        <ele>611.569175</ele>
        <time>2022-09-13T20:52:53.888Z</time>
      </trkpt>
      <trkpt lat="47.90691" lon="10.07594">
        <ele>611.59408</ele>
        <time>2022-09-13T20:53:05.747Z</time>
      </trkpt>
      <trkpt lat="47.90682" lon="10.07588">
        <ele>611.599537</ele>
        <time>2022-09-13T20:53:08.253Z</time>
      </trkpt>
      <trkpt lat="47.90665" lon="10.07585">
        <ele>611.609485</ele>
        <time>2022-09-13T20:53:12.845Z</time>
      </trkpt>
      <trkpt lat="47.90629" lon="10.07548">
        <ele>611.634334</ele>
        <time>2022-09-13T20:53:24.384Z</time>
      </trkpt>
      <trkpt lat="47.9061" lon="10.07546">
        <ele>611.645247</ele>
        <time>2022-09-13T20:53:29.348Z</time>
      </trkpt>
      <trkpt lat="47.90551" lon="10.07568">
        <ele>611.656275</ele>
        <time>2022-09-13T20:53:45.188Z</time>
      </trkpt>
      <trkpt lat="47.90511" lon="10.07574">
        <ele>611.65629</ele>
        <time>2022-09-13T20:53:55.770Z</time>
      </trkpt>
      <trkpt lat="47.9034" lon="10.07637">
        <ele>611.803013</ele>
        <time>2022-09-13T20:54:43.295Z</time>
      </trkpt>
      <trkpt lat="47.90239" lon="10.07702">
        <ele>612.034316</ele>
        <time>2022-09-13T20:55:14.099Z</time>
      </trkpt>
      <trkpt lat="47.90204" lon="10.07706">
        <ele>612.206283</ele>
        <time>2022-09-13T20:55:24.237Z</time>
      </trkpt>
      <trkpt lat="47.90148" lon="10.077">
        <ele>612.47872</ele>
        <time>2022-09-13T20:55:40.616Z</time>
      </trkpt>
      <trkpt lat="47.90027" lon="10.07713">
        <ele>613.106142</ele>
        <time>2022-09-13T20:56:16.190Z</time>
      </trkpt>
      <trkpt lat="47.89979" lon="10.07723">
        <ele>613.387815</ele>
        <time>2022-09-13T20:56:30.499Z</time>
      </trkpt>
      <trkpt lat="47.8993" lon="10.0773">
        <ele>613.679241</ele>
        <time>2022-09-13T20:56:45.257Z</time>
      </trkpt>
      <trkpt lat="47.89765" lon="10.07746">
        <ele>614.579341</ele>
        <time>2022-09-13T20:57:33.641Z</time>
      </trkpt>
      <trkpt lat="47.89737" lon="10.0776">
        <ele>614.739133</ele>
        <time>2022-09-13T20:57:42.257Z</time>
      </trkpt>
      <trkpt lat="47.89692" lon="10.07848">
        <ele>615.053733</ele>
        <time>2022-09-13T20:58:03.736Z</time>
      </trkpt>
      <trkpt lat="47.89666" lon="10.07832">
        <ele>615.156613</ele>
        <time>2022-09-13T20:58:12.136Z</time>
      </trkpt>
      <trkpt lat="47.89622" lon="10.07828">
        <ele>615.317163</ele>
        <time>2022-09-13T20:58:25.023Z</time>
      </trkpt>
      <trkpt lat="47.896" lon="10.07799">
        <ele>615.425583</ele>
        <time>2022-09-13T20:58:33.671Z</time>
      </trkpt>
      <trkpt lat="47.89561" lon="10.07727">
        <ele>615.495102</ele>
        <time>2022-09-13T20:58:51.608Z</time>
      </trkpt>
      <trkpt lat="47.89534" lon="10.077">
        <ele>615.45286</ele>
        <time>2022-09-13T20:59:01.008Z</time>
      </trkpt>
      <trkpt lat="47.8952" lon="10.07689">
        <ele>615.432686</ele>
        <time>2022-09-13T20:59:05.430Z</time>
      </trkpt>
      <trkpt lat="47.89498" lon="10.07676">
        <ele>615.401904</ele>
        <time>2022-09-13T20:59:12.059Z</time>
      </trkpt>
      <trkpt lat="47.89474" lon="10.07669">
        <ele>615.370842</ele>
        <time>2022-09-13T20:59:18.493Z</time>
      </trkpt>
      <trkpt lat="47.89437" lon="10.07644">
        <ele>615.317335</ele>
        <time>2022-09-13T20:59:29.050Z</time>
      </trkpt>
      <trkpt lat="47.89456" lon="10.07592">
        <ele>615.149055</ele>
        <time>2022-09-13T20:59:38.584Z</time>
      </trkpt>
      <trkpt lat="47.89467" lon="10.07563">
        <ele>615.029688</ele>
        <time>2022-09-13T20:59:43.878Z</time>
      </trkpt>
      <trkpt lat="47.89403" lon="10.07464">
        <ele>614.541008</ele>
        <time>2022-09-13T21:00:05.995Z</time>
      </trkpt>
      <trkpt lat="47.89373" lon="10.07372">
        <ele>614.703918</ele>
        <time>2022-09-13T21:00:23.175Z</time>
      </trkpt>
      <trkpt lat="47.89325" lon="10.07105">
        <ele>617.334511</ele>
        <time>2022-09-13T21:01:25.773Z</time>
      </trkpt>
      <trkpt lat="47.89305" lon="10.07035">
        <ele>618.679377</ele>
        <time>2022-09-13T21:01:46.682Z</time>
      </trkpt>
      <trkpt lat="47.89278" lon="10.06953">
        <ele>620.305776</ele>
        <time>2022-09-13T21:02:12.522Z</time>
      </trkpt>
      <trkpt lat="47.89265" lon="10.06897">
        <ele>621.284089</ele>
        <time>2022-09-13T21:02:29.428Z</time>
      </trkpt>
      <trkpt lat="47.89255" lon="10.06709">
        <ele>623.793615</ele>
        <time>2022-09-13T21:03:16.865Z</time>
      </trkpt>
      <trkpt lat="47.89257" lon="10.06685">
        <ele>624.122958</ele>
        <time>2022-09-13T21:03:22.257Z</time>
      </trkpt>
      <trkpt lat="47.89303" lon="10.06495">
        <ele>625.05793</ele>
        <time>2022-09-13T21:04:02.467Z</time>
      </trkpt>
      <trkpt lat="47.89346" lon="10.06251">
        <ele>624.94592</ele>
        <time>2022-09-13T21:04:45.981Z</time>
      </trkpt>
      <trkpt lat="47.89362" lon="10.06153">
        <ele>624.685676</ele>
        <time>2022-09-13T21:05:03.381Z</time>
      </trkpt>
      <trkpt lat="47.89396" lon="10.05964">
        <ele>623.185593</ele>
        <time>2022-09-13T21:05:34.208Z</time>
      </trkpt>
      <trkpt lat="47.89379" lon="10.05933">
        <ele>622.854828</ele>
        <time>2022-09-13T21:05:40.323Z</time>
      </trkpt>
      <trkpt lat="47.89296" lon="10.05864">
        <ele>621.579371</ele>
        <time>2022-09-13T21:06:02.690Z</time>
      </trkpt>
      <trkpt lat="47.89273" lon="10.05744">
        <ele>620.42091</ele>
        <time>2022-09-13T21:06:21.624Z</time>
      </trkpt>
      <trkpt lat="47.89224" lon="10.05606">
        <ele>619.33923</ele>
        <time>2022-09-13T21:06:47.259Z</time>
      </trkpt>
      <trkpt lat="47.89219" lon="10.05539">
        <ele>618.962583</ele>
        <time>2022-09-13T21:06:58.495Z</time>
      </trkpt>
      <trkpt lat="47.89196" lon="10.05482">
        <ele>618.598743</ele>
        <time>2022-09-13T21:07:09.468Z</time>
      </trkpt>
      <trkpt lat="47.89153" lon="10.05427">
        <ele>618.307649</ele>
        <time>2022-09-13T21:07:24.129Z</time>
      </trkpt>
      <trkpt lat="47.89097" lon="10.05378">
        <ele>618.121952</ele>
        <time>2022-09-13T21:07:40.906Z</time>
      </trkpt>
      <trkpt lat="47.88995" lon="10.05315">
        <ele>617.996101</ele>
        <time>2022-09-13T21:08:10.844Z</time>
      </trkpt>
      <trkpt lat="47.8883" lon="10.05133">
        <ele>619.249382</ele>
        <time>2022-09-13T21:09:13.204Z</time>
      </trkpt>
      <trkpt lat="47.88796" lon="10.05067">
        <ele>619.93229</ele>
        <time>2022-09-13T21:09:31.994Z</time>
      </trkpt>
      <trkpt lat="47.88767" lon="10.05086">
        <ele>620.334315</ele>
        <time>2022-09-13T21:09:42.729Z</time>
      </trkpt>
      <trkpt lat="47.88719" lon="10.04946">
        <ele>621.955552</ele>
        <time>2022-09-13T21:10:20.642Z</time>
      </trkpt>
      <trkpt lat="47.88736" lon="10.04924">
        <ele>622.347495</ele>
        <time>2022-09-13T21:10:28.795Z</time>
      </trkpt>
      <trkpt lat="47.88752" lon="10.04879">
        <ele>622.928661</ele>
        <time>2022-09-13T21:10:40.842Z</time>
      </trkpt>
      <trkpt lat="47.88753" lon="10.04873">
        <ele>623.001418</ele>
        <time>2022-09-13T21:10:42.343Z</time>
      </trkpt>
      <trkpt lat="47.88756" lon="10.04804">
        <ele>623.790741</ele>
        <time>2022-09-13T21:10:58.456Z</time>
      </trkpt>
      <trkpt lat="47.88748" lon="10.04765">
        <ele>624.058316</ele>
        <time>2022-09-13T21:11:07.365Z</time>
      </trkpt>
      <trkpt lat="47.88733" lon="10.0474">
        <ele>624.24503</ele>
        <time>2022-09-13T21:11:14.468Z</time>
      </trkpt>
      <trkpt lat="47.88672" lon="10.04664">
        <ele>624.90563</ele>
        <time>2022-09-13T21:11:38.985Z</time>
      </trkpt>
      <trkpt lat="47.88641" lon="10.04637">
        <ele>625.202087</ele>
        <time>2022-09-13T21:11:49.605Z</time>
      </trkpt>
      <trkpt lat="47.88611" lon="10.04614">
        <ele>625.385043</ele>
        <time>2022-09-13T21:11:58.936Z</time>
      </trkpt>
      <trkpt lat="47.88566" lon="10.04577">
        <ele>625.466359</ele>
        <time>2022-09-13T21:12:12.637Z</time>
      </trkpt>
      <trkpt lat="47.88526" lon="10.04538">
        <ele>625.541066</ele>
        <time>2022-09-13T21:12:25.356Z</time>
      </trkpt>
      <trkpt lat="47.88472" lon="10.04449">
        <ele>625.738008</ele>
        <time>2022-09-13T21:12:47.593Z</time>
      </trkpt>
      <trkpt lat="47.88434" lon="10.04379">
        <ele>626.134955</ele>
        <time>2022-09-13T21:13:04.848Z</time>
      </trkpt>
      <trkpt lat="47.8836" lon="10.04244">
        <ele>626.96753</ele>
        <time>2022-09-13T21:13:40.660Z</time>
      </trkpt>
      <trkpt lat="47.88328" lon="10.04204">
        <ele>627.489613</ele>
        <time>2022-09-13T21:13:54.547Z</time>
      </trkpt>
      <trkpt lat="47.88291" lon="10.04171">
        <ele>628.030756</ele>
        <time>2022-09-13T21:14:08.929Z</time>
      </trkpt>
      <trkpt lat="47.88257" lon="10.04145">
        <ele>628.507858</ele>
        <time>2022-09-13T21:14:21.653Z</time>
      </trkpt>
      <trkpt lat="47.88208" lon="10.04109">
        <ele>629.120687</ele>
        <time>2022-09-13T21:14:39.754Z</time>
      </trkpt>
      <trkpt lat="47.88181" lon="10.0408">
        <ele>629.304379</ele>
        <time>2022-09-13T21:14:50.543Z</time>
      </trkpt>
      <trkpt lat="47.88144" lon="10.04023">
        <ele>629.59611</ele>
        <time>2022-09-13T21:15:06.248Z</time>
      </trkpt>
      <trkpt lat="47.88094" lon="10.03936">
        <ele>630.012013</ele>
        <time>2022-09-13T21:15:27.259Z</time>
      </trkpt>
      <trkpt lat="47.88082" lon="10.03917">
        <ele>630.062246</ele>
        <time>2022-09-13T21:15:31.860Z</time>
      </trkpt>
      <trkpt lat="47.88053" lon="10.03871">
        <ele>630.111942</ele>
        <time>2022-09-13T21:15:43.072Z</time>
      </trkpt>
      <trkpt lat="47.88019" lon="10.03827">
        <ele>630.165075</ele>
        <time>2022-09-13T21:15:55.239Z</time>
      </trkpt>
      <trkpt lat="47.87953" lon="10.03762">
        <ele>630.25839</ele>
        <time>2022-09-13T21:16:16.703Z</time>
      </trkpt>
      <trkpt lat="47.87856" lon="10.0369">
        <ele>630.481683</ele>
        <time>2022-09-13T21:16:47.887Z</time>
      </trkpt>
      <trkpt lat="47.87834" lon="10.03677">
        <ele>630.531271</ele>
        <time>2022-09-13T21:16:54.379Z</time>
      </trkpt>
      <trkpt lat="47.87834" lon="10.0366">
        <ele>630.554985</ele>
        <time>2022-09-13T21:16:57.613Z</time>
      </trkpt>
      <trkpt lat="47.87819" lon="10.03621">
        <ele>630.617128</ele>
        <time>2022-09-13T21:17:05.685Z</time>
      </trkpt>
      <trkpt lat="47.87786" lon="10.03587">
        <ele>630.533084</ele>
        <time>2022-09-13T21:17:16.444Z</time>
      </trkpt>
      <trkpt lat="47.87443" lon="10.03225">
        <ele>629.130859</ele>
        <time>2022-09-13T21:19:02.086Z</time>
      </trkpt>
      <trkpt lat="47.87339" lon="10.03107">
        <ele>628.6733</ele>
        <time>2022-09-13T21:19:35.182Z</time>
      </trkpt>
      <trkpt lat="47.87201" lon="10.02927">
        <ele>628.05708</ele>
        <time>2022-09-13T21:20:21.122Z</time>
      </trkpt>
      <trkpt lat="47.87084" lon="10.0277">
        <ele>627.747074</ele>
        <time>2022-09-13T21:21:01.168Z</time>
      </trkpt>
      <trkpt lat="47.87022" lon="10.02673">
        <ele>627.952233</ele>
        <time>2022-09-13T21:21:25.510Z</time>
      </trkpt>
      <trkpt lat="47.86991" lon="10.02618">
        <ele>628.062294</ele>
        <time>2022-09-13T21:21:39.632Z</time>
      </trkpt>
      <trkpt lat="47.86958" lon="10.02543">
        <ele>628.456835</ele>
        <time>2022-09-13T21:21:58.093Z</time>
      </trkpt>
      <trkpt lat="47.86914" lon="10.02419">
        <ele>629.245645</ele>
        <time>2022-09-13T21:22:27.994Z</time>
      </trkpt>
      <trkpt lat="47.86875" lon="10.02284">
        <ele>629.53852</ele>
        <time>2022-09-13T21:22:56.924Z</time>
      </trkpt>
      <trkpt lat="47.86845" lon="10.02222">
        <ele>629.471321</ele>
        <time>2022-09-13T21:23:10.252Z</time>
      </trkpt>
      <trkpt lat="47.86813" lon="10.0218">
        <ele>629.416579</ele>
        <time>2022-09-13T21:23:20.464Z</time>
      </trkpt>
      <trkpt lat="47.86779" lon="10.02139">
        <ele>629.347791</ele>
        <time>2022-09-13T21:23:31.077Z</time>
      </trkpt>
      <trkpt lat="47.86757" lon="10.02096">
        <ele>629.269564</ele>
        <time>2022-09-13T21:23:39.688Z</time>
      </trkpt>
      <trkpt lat="47.86741" lon="10.02046">
        <ele>629.190063</ele>
        <time>2022-09-13T21:23:48.575Z</time>
      </trkpt>
      <trkpt lat="47.8664" lon="10.01786">
        <ele>629.512231</ele>
        <time>2022-09-13T21:24:46.542Z</time>
      </trkpt>
      <trkpt lat="47.86602" lon="10.01653">
        <ele>630.146122</ele>
        <time>2022-09-13T21:25:17.332Z</time>
      </trkpt>
      <trkpt lat="47.86559" lon="10.01553">
        <ele>631.040559</ele>
        <time>2022-09-13T21:25:44.894Z</time>
      </trkpt>
      <trkpt lat="47.86545" lon="10.01488">
        <ele>631.557011</ele>
        <time>2022-09-13T21:26:00.514Z</time>
      </trkpt>
      <trkpt lat="47.86538" lon="10.01365">
        <ele>632.032346</ele>
        <time>2022-09-13T21:26:27.026Z</time>
      </trkpt>
      <trkpt lat="47.86522" lon="10.01304">
        <ele>632.152959</ele>
        <time>2022-09-13T21:26:40.091Z</time>
      </trkpt>
      <trkpt lat="47.86429" lon="10.01123">
        <ele>632.047546</ele>
        <time>2022-09-13T21:27:20.715Z</time>
      </trkpt>
      <trkpt lat="47.86414" lon="10.01077">
        <ele>631.881673</ele>
        <time>2022-09-13T21:27:29.491Z</time>
      </trkpt>
      <trkpt lat="47.86407" lon="10.01039">
        <ele>631.757348</ele>
        <time>2022-09-13T21:27:36.082Z</time>
      </trkpt>
      <trkpt lat="47.86406" lon="10.00953">
        <ele>631.483939</ele>
        <time>2022-09-13T21:27:50.727Z</time>
      </trkpt>
      <trkpt lat="47.86412" lon="10.00903">
        <ele>631.323528</ele>
        <time>2022-09-13T21:27:59.438Z</time>
      </trkpt>
      <trkpt lat="47.86425" lon="10.00775">
        <ele>630.912473</ele>
        <time>2022-09-13T21:28:22.153Z</time>
      </trkpt>
      <trkpt lat="47.86416" lon="10.00666">
        <ele>630.572817</ele>
        <time>2022-09-13T21:28:41.264Z</time>
      </trkpt>
      <trkpt lat="47.86402" lon="10.00597">
        <ele>630.368432</ele>
        <time>2022-09-13T21:28:53.627Z</time>
      </trkpt>
      <trkpt lat="47.86381" lon="10.00535">
        <ele>630.170161</ele>
        <time>2022-09-13T21:29:05.771Z</time>
      </trkpt>
      <trkpt lat="47.86284" lon="10.00348">
        <ele>629.879977</ele>
        <time>2022-09-13T21:29:47.743Z</time>
      </trkpt>
      <trkpt lat="47.86254" lon="10.00269">
        <ele>629.861805</ele>
        <time>2022-09-13T21:30:05.117Z</time>
      </trkpt>
      <trkpt lat="47.86242" lon="10.0021">
        <ele>629.966172</ele>
        <time>2022-09-13T21:30:17.480Z</time>
      </trkpt>
      <trkpt lat="47.8625" lon="10.00173">
        <ele>630.114824</ele>
        <time>2022-09-13T21:30:25.314Z</time>
      </trkpt>
      <trkpt lat="47.86254" lon="10.00163">
        <ele>630.157751</ele>
        <time>2022-09-13T21:30:27.682Z</time>
      </trkpt>
      <trkpt lat="47.86272" lon="10.00176">
        <ele>630.270593</ele>
        <time>2022-09-13T21:30:33.732Z</time>
      </trkpt>
      <trkpt lat="47.86254" lon="10.0012">
        <ele>630.506309</ele>
        <time>2022-09-13T21:30:46.402Z</time>
      </trkpt>
      <trkpt lat="47.86186" lon="10.00031">
        <ele>630.951533</ele>
        <time>2022-09-13T21:31:13.211Z</time>
      </trkpt>
      <trkpt lat="47.86165" lon="9.99987">
        <ele>631.064667</ele>
        <time>2022-09-13T21:31:23.372Z</time>
      </trkpt>
      <trkpt lat="47.86163" lon="9.99982">
        <ele>631.076395</ele>
        <time>2022-09-13T21:31:24.376Z</time>
      </trkpt>
      <trkpt lat="47.86155" lon="9.99942">
        <ele>631.163494</ele>
        <time>2022-09-13T21:31:31.708Z</time>
      </trkpt>
      <trkpt lat="47.86122" lon="9.99673">
        <ele>632.468827</ele>
        <time>2022-09-13T21:32:23.591Z</time>
      </trkpt>
      <trkpt lat="47.86088" lon="9.99441">
        <ele>634.527885</ele>
        <time>2022-09-13T21:33:20.834Z</time>
      </trkpt>
      <trkpt lat="47.86037" lon="9.99211">
        <ele>636.32224</ele>
        <time>2022-09-13T21:34:14.053Z</time>
      </trkpt>
      <trkpt lat="47.86031" lon="9.99215">
        <ele>636.345112</ele>
        <time>2022-09-13T21:34:15.863Z</time>
      </trkpt>
      <trkpt lat="47.86014" lon="9.99147">
        <ele>636.525549</ele>
        <time>2022-09-13T21:34:29.965Z</time>
      </trkpt>
      <trkpt lat="47.86" lon="9.99101">
        <ele>636.652892</ele>
        <time>2022-09-13T21:34:39.381Z</time>
      </trkpt>
      <trkpt lat="47.85964" lon="9.99004">
        <ele>636.460651</ele>
        <time>2022-09-13T21:34:58.530Z</time>
      </trkpt>
      <trkpt lat="47.85948" lon="9.98962">
        <ele>636.221732</ele>
        <time>2022-09-13T21:35:06.761Z</time>
      </trkpt>
      <trkpt lat="47.85889" lon="9.98847">
        <ele>635.513687</ele>
        <time>2022-09-13T21:35:30.716Z</time>
      </trkpt>
      <trkpt lat="47.85858" lon="9.98789">
        <ele>635.162152</ele>
        <time>2022-09-13T21:35:42.500Z</time>
      </trkpt>
      <trkpt lat="47.85804" lon="9.98674">
        <ele>634.497368</ele>
        <time>2022-09-13T21:36:05.779Z</time>
      </trkpt>
      <trkpt lat="47.85593" lon="9.98157">
        <ele>633.759205</ele>
        <time>2022-09-13T21:37:56.224Z</time>
      </trkpt>
      <trkpt lat="47.85487" lon="9.97974">
        <ele>633.957414</ele>
        <time>2022-09-13T21:38:42.420Z</time>
      </trkpt>
      <trkpt lat="47.85299" lon="9.97713">
        <ele>634.785558</ele>
        <time>2022-09-13T21:39:57.406Z</time>
      </trkpt>
      <trkpt lat="47.85179" lon="9.97565">
        <ele>635.503394</ele>
        <time>2022-09-13T21:40:44.687Z</time>
      </trkpt>
      <trkpt lat="47.84951" lon="9.97307">
        <ele>636.937891</ele>
        <time>2022-09-13T21:42:11.578Z</time>
      </trkpt>
      <trkpt lat="47.84809" lon="9.97093">
        <ele>637.831158</ele>
        <time>2022-09-13T21:43:10.977Z</time>
      </trkpt>
      <trkpt lat="47.84818" lon="9.97078">
        <ele>637.890524</ele>
        <time>2022-09-13T21:43:15.326Z</time>
      </trkpt>
      <trkpt lat="47.84812" lon="9.97054">
        <ele>637.999174</ele>
        <time>2022-09-13T21:43:20.468Z</time>
      </trkpt>
      <trkpt lat="47.8481" lon="9.96999">
        <ele>638.22866</ele>
        <time>2022-09-13T21:43:32.206Z</time>
      </trkpt>
      <trkpt lat="47.84835" lon="9.96831">
        <ele>638.950942</ele>
        <time>2022-09-13T21:44:07.185Z</time>
      </trkpt>
      <trkpt lat="47.84834" lon="9.96794">
        <ele>638.982148</ele>
        <time>2022-09-13T21:44:13.830Z</time>
      </trkpt>
      <trkpt lat="47.84833" lon="9.96785">
        <ele>638.971039</ele>
        <time>2022-09-13T21:44:15.508Z</time>
      </trkpt>
      <trkpt lat="47.84815" lon="9.96672">
        <ele>638.830127</ele>
        <time>2022-09-13T21:44:35.069Z</time>
      </trkpt>
      <trkpt lat="47.84807" lon="9.96672">
        <ele>638.815867</ele>
        <time>2022-09-13T21:44:37.031Z</time>
      </trkpt>
      <trkpt lat="47.84796" lon="9.96672">
        <ele>638.795833</ele>
        <time>2022-09-13T21:44:39.774Z</time>
      </trkpt>
      <trkpt lat="47.84783" lon="9.96674">
        <ele>638.772615</ele>
        <time>2022-09-13T21:44:43.108Z</time>
      </trkpt>
      <trkpt lat="47.8478" lon="9.96633">
        <ele>638.722402</ele>
        <time>2022-09-13T21:44:50.085Z</time>
      </trkpt>
      <trkpt lat="47.84782" lon="9.96463">
        <ele>638.851015</ele>
        <time>2022-09-13T21:45:19.786Z</time>
      </trkpt>
      <trkpt lat="47.84777" lon="9.96371">
        <ele>638.960296</ele>
        <time>2022-09-13T21:45:37.833Z</time>
      </trkpt>
      <trkpt lat="47.84764" lon="9.96229">
        <ele>639.344691</ele>
        <time>2022-09-13T21:46:06.532Z</time>
      </trkpt>
      <trkpt lat="47.84757" lon="9.96151">
        <ele>639.595479</ele>
        <time>2022-09-13T21:46:21.876Z</time>
      </trkpt>
      <trkpt lat="47.84768" lon="9.96142">
        <ele>639.653094</ele>
        <time>2022-09-13T21:46:25.261Z</time>
      </trkpt>
      <trkpt lat="47.84779" lon="9.96097">
        <ele>639.807386</ele>
        <time>2022-09-13T21:46:34.311Z</time>
      </trkpt>
      <trkpt lat="47.84783" lon="9.96058">
        <ele>639.851685</ele>
        <time>2022-09-13T21:46:41.547Z</time>
      </trkpt>
      <trkpt lat="47.84778" lon="9.95995">
        <ele>639.828178</ele>
        <time>2022-09-13T21:46:53.220Z</time>
      </trkpt>
      <trkpt lat="47.84767" lon="9.95955">
        <ele>639.811897</ele>
        <time>2022-09-13T21:47:01.173Z</time>
      </trkpt>
      <trkpt lat="47.84741" lon="9.95893">
        <ele>639.785008</ele>
        <time>2022-09-13T21:47:14.017Z</time>
      </trkpt>
      <trkpt lat="47.84722" lon="9.95827">
        <ele>639.743006</ele>
        <time>2022-09-13T21:47:26.194Z</time>
      </trkpt>
      <trkpt lat="47.84705" lon="9.95726">
        <ele>639.422282</ele>
        <time>2022-09-13T21:47:43.111Z</time>
      </trkpt>
      <trkpt lat="47.84698" lon="9.95639">
        <ele>639.153421</ele>
        <time>2022-09-13T21:47:57.641Z</time>
      </trkpt>
      <trkpt lat="47.84677" lon="9.95573">
        <ele>638.940205</ele>
        <time>2022-09-13T21:48:09.870Z</time>
      </trkpt>
      <trkpt lat="47.84646" lon="9.95509">
        <ele>638.974492</ele>
        <time>2022-09-13T21:48:24.129Z</time>
      </trkpt>
      <trkpt lat="47.8459" lon="9.95359">
        <ele>639.049064</ele>
        <time>2022-09-13T21:48:56.876Z</time>
      </trkpt>
      <trkpt lat="47.84574" lon="9.95297">
        <ele>639.285024</ele>
        <time>2022-09-13T21:49:10.585Z</time>
      </trkpt>
      <trkpt lat="47.84539" lon="9.95046">
        <ele>640.46012</ele>
        <time>2022-09-13T21:50:04.185Z</time>
      </trkpt>
      <trkpt lat="47.84493" lon="9.94871">
        <ele>641.529731</ele>
        <time>2022-09-13T21:50:44.788Z</time>
      </trkpt>
      <trkpt lat="47.84492" lon="9.94816">
        <ele>641.851738</ele>
        <time>2022-09-13T21:50:56.963Z</time>
      </trkpt>
      <trkpt lat="47.84511" lon="9.94752">
        <ele>642.2901</ele>
        <time>2022-09-13T21:51:11.897Z</time>
      </trkpt>
      <trkpt lat="47.84554" lon="9.94635">
        <ele>643.120344</ele>
        <time>2022-09-13T21:51:38.267Z</time>
      </trkpt>
      <trkpt lat="47.84552" lon="9.94611">
        <ele>643.274834</ele>
        <time>2022-09-13T21:51:43.336Z</time>
      </trkpt>
      <trkpt lat="47.84527" lon="9.94617">
        <ele>643.777347</ele>
        <time>2022-09-13T21:51:51.807Z</time>
      </trkpt>
      <trkpt lat="47.84503" lon="9.94613">
        <ele>644.792874</ele>
        <time>2022-09-13T21:52:01.211Z</time>
      </trkpt>
      <trkpt lat="47.84491" lon="9.94607">
        <ele>645.339456</ele>
        <time>2022-09-13T21:52:06.906Z</time>
      </trkpt>
      <trkpt lat="47.84452" lon="9.94557">
        <ele>647.508092</ele>
        <time>2022-09-13T21:52:30.399Z</time>
      </trkpt>
      <trkpt lat="47.84425" lon="9.94532">
        <ele>648.833013</ele>
        <time>2022-09-13T21:52:45.635Z</time>
      </trkpt>
      <trkpt lat="47.84412" lon="9.94521">
        <ele>649.475529</ele>
        <time>2022-09-13T21:52:52.896Z</time>
      </trkpt>
      <trkpt lat="47.84404" lon="9.94515">
        <ele>649.844453</ele>
        <time>2022-09-13T21:52:57.947Z</time>
      </trkpt>
      <trkpt lat="47.84402" lon="9.94513">
        <ele>649.933472</ele>
        <time>2022-09-13T21:52:59.244Z</time>
      </trkpt>
      <trkpt lat="47.84379" lon="9.94496">
        <ele>651.025823</ele>
        <time>2022-09-13T21:53:13.471Z</time>
      </trkpt>
      <trkpt lat="47.84362" lon="9.94483">
        <ele>652.420223</ele>
        <time>2022-09-13T21:53:25.873Z</time>
      </trkpt>
      <trkpt lat="47.84402" lon="9.94361">
        <ele>658.943234</ele>
        <time>2022-09-13T21:54:22.615Z</time>
      </trkpt>
      <trkpt lat="47.84398" lon="9.94354">
        <ele>659.392355</ele>
        <time>2022-09-13T21:54:27.103Z</time>
      </trkpt>
      <trkpt lat="47.84394" lon="9.94334">
        <ele>660.382257</ele>
        <time>2022-09-13T21:54:37.028Z</time>
      </trkpt>
      <trkpt lat="47.84394" lon="9.9426">
        <ele>663.937526</ele>
        <time>2022-09-13T21:55:07.703Z</time>
      </trkpt>
      <trkpt lat="47.84429" lon="9.94136">
        <ele>668.824813</ele>
        <time>2022-09-13T21:56:00.177Z</time>
      </trkpt>
      <trkpt lat="47.84455" lon="9.94049">
        <ele>672.269834</ele>
        <time>2022-09-13T21:56:31.870Z</time>
      </trkpt>
      <trkpt lat="47.84461" lon="9.93973">
        <ele>673.984695</ele>
        <time>2022-09-13T21:56:55.927Z</time>
      </trkpt>
      <trkpt lat="47.84454" lon="9.93914">
        <ele>674.50284</ele>
        <time>2022-09-13T21:57:13.764Z</time>
      </trkpt>
      <trkpt lat="47.84467" lon="9.93877">
        <ele>674.865956</ele>
        <time>2022-09-13T21:57:25.132Z</time>
      </trkpt>
      <trkpt lat="47.84469" lon="9.93856">
        <ele>675.044751</ele>
        <time>2022-09-13T21:57:29.654Z</time>
      </trkpt>
      <trkpt lat="47.84442" lon="9.93781">
        <ele>675.777457</ele>
        <time>2022-09-13T21:57:44.315Z</time>
      </trkpt>
      <trkpt lat="47.84419" lon="9.9375">
        <ele>675.324142</ele>
        <time>2022-09-13T21:57:51.128Z</time>
      </trkpt>
      <trkpt lat="47.84404" lon="9.93759">
        <ele>674.711536</ele>
        <time>2022-09-13T21:57:54.241Z</time>
      </trkpt>
      <trkpt lat="47.84389" lon="9.93792">
        <ele>673.710355</ele>
        <time>2022-09-13T21:57:59.694Z</time>
      </trkpt>
      <trkpt lat="47.84302" lon="9.93878">
        <ele>669.733154</ele>
        <time>2022-09-13T21:58:20.255Z</time>
      </trkpt>
      <trkpt lat="47.84293" lon="9.93871">
        <ele>669.354146</ele>
        <time>2022-09-13T21:58:22.023Z</time>
      </trkpt>
      <trkpt lat="47.84273" lon="9.93834">
        <ele>667.882481</ele>
        <time>2022-09-13T21:58:28.172Z</time>
      </trkpt>
      <trkpt lat="47.84263" lon="9.93768">
        <ele>665.705286</ele>
        <time>2022-09-13T21:58:36.756Z</time>
      </trkpt>
      <trkpt lat="47.8424" lon="9.93699">
        <ele>663.238653</ele>
        <time>2022-09-13T21:58:46.749Z</time>
      </trkpt>
      <trkpt lat="47.84227" lon="9.93629">
        <ele>660.92956</ele>
        <time>2022-09-13T21:58:56.183Z</time>
      </trkpt>
      <trkpt lat="47.84217" lon="9.93612">
        <ele>660.227839</ele>
        <time>2022-09-13T21:58:59.131Z</time>
      </trkpt>
      <trkpt lat="47.8401" lon="9.93432">
        <ele>650.797008</ele>
        <time>2022-09-13T21:59:45.309Z</time>
      </trkpt>
      <trkpt lat="47.83993" lon="9.93409">
        <ele>650.300589</ele>
        <time>2022-09-13T21:59:49.961Z</time>
      </trkpt>
      <trkpt lat="47.83976" lon="9.93365">
        <ele>649.557375</ele>
        <time>2022-09-13T21:59:57.031Z</time>
      </trkpt>
      <trkpt lat="47.84079" lon="9.93208">
        <ele>651.664248</ele>
        <time>2022-09-13T22:01:14.276Z</time>
      </trkpt>
      <trkpt lat="47.84086" lon="9.93183">
        <ele>652.311054</ele>
        <time>2022-09-13T22:01:26.532Z</time>
      </trkpt>
      <trkpt lat="47.84112" lon="9.93099">
        <ele>654.551694</ele>
        <time>2022-09-13T22:02:11.299Z</time>
      </trkpt>
      <trkpt lat="47.84085" lon="9.93068">
        <ele>656.408479</ele>
        <time>2022-09-13T22:02:37.204Z</time>
      </trkpt>
      <trkpt lat="47.84071" lon="9.93041">
        <ele>657.758748</ele>
        <time>2022-09-13T22:02:54.499Z</time>
      </trkpt>
      <trkpt lat="47.84043" lon="9.93015">
        <ele>659.658565</ele>
        <time>2022-09-13T22:03:19.401Z</time>
      </trkpt>
      <trkpt lat="47.84009" lon="9.92932">
        <ele>663.483983</ele>
        <time>2022-09-13T22:04:08.636Z</time>
      </trkpt>
      <trkpt lat="47.84005" lon="9.92799">
        <ele>667.224108</ele>
        <time>2022-09-13T22:05:06.916Z</time>
      </trkpt>
      <trkpt lat="47.83922" lon="9.92579">
        <ele>671.276572</ele>
        <time>2022-09-13T22:06:42.845Z</time>
      </trkpt>
      <trkpt lat="47.83909" lon="9.92454">
        <ele>671.591526</ele>
        <time>2022-09-13T22:07:21.791Z</time>
      </trkpt>
      <trkpt lat="47.83903" lon="9.92411">
        <ele>671.698771</ele>
        <time>2022-09-13T22:07:33.814Z</time>
      </trkpt>
      <trkpt lat="47.83895" lon="9.92389">
        <ele>671.761886</ele>
        <time>2022-09-13T22:07:40.787Z</time>
      </trkpt>
      <trkpt lat="47.83873" lon="9.92363">
        <ele>671.105101</ele>
        <time>2022-09-13T22:07:51.314Z</time>
      </trkpt>
      <trkpt lat="47.83812" lon="9.92332">
        <ele>669.456</ele>
        <time>2022-09-13T22:08:14.411Z</time>
      </trkpt>
      <trkpt lat="47.83799" lon="9.92313">
        <ele>668.976945</ele>
        <time>2022-09-13T22:08:21.281Z</time>
      </trkpt>
      <trkpt lat="47.83531" lon="9.91859">
        <ele>656.801991</ele>
        <time>2022-09-13T22:10:44.197Z</time>
      </trkpt>
      <trkpt lat="47.83541" lon="9.9172">
        <ele>656.503026</ele>
        <time>2022-09-13T22:11:06.676Z</time>
      </trkpt>
      <trkpt lat="47.83534" lon="9.91629">
        <ele>656.898928</ele>
        <time>2022-09-13T22:11:25.416Z</time>
      </trkpt>
      <trkpt lat="47.83513" lon="9.91511">
        <ele>658.516162</ele>
        <time>2022-09-13T22:12:01.314Z</time>
      </trkpt>
      <trkpt lat="47.83521" lon="9.91488">
        <ele>659.221242</ele>
        <time>2022-09-13T22:12:09.758Z</time>
      </trkpt>
      <trkpt lat="47.83505" lon="9.91432">
        <ele>660.904372</ele>
        <time>2022-09-13T22:12:29.865Z</time>
      </trkpt>
      <trkpt lat="47.83512" lon="9.9135">
        <ele>663.158749</ele>
        <time>2022-09-13T22:12:57.323Z</time>
      </trkpt>
      <trkpt lat="47.83495" lon="9.91288">
        <ele>664.932013</ele>
        <time>2022-09-13T22:13:19.718Z</time>
      </trkpt>
      <trkpt lat="47.8344" lon="9.91086">
        <ele>669.846983</ele>
        <time>2022-09-13T22:14:27.268Z</time>
      </trkpt>
      <trkpt lat="47.83423" lon="9.9099">
        <ele>670.628176</ele>
        <time>2022-09-13T22:14:48.712Z</time>
      </trkpt>
      <trkpt lat="47.83381" lon="9.90911">
        <ele>670.622818</ele>
        <time>2022-09-13T22:15:09.414Z</time>
      </trkpt>
      <trkpt lat="47.83365" lon="9.90831">
        <ele>670.618326</ele>
        <time>2022-09-13T22:15:23.973Z</time>
      </trkpt>
      <trkpt lat="47.83332" lon="9.90733">
        <ele>668.426813</ele>
        <time>2022-09-13T22:15:39.054Z</time>
      </trkpt>
      <trkpt lat="47.8332" lon="9.90658">
        <ele>666.587369</ele>
        <time>2022-09-13T22:15:49.372Z</time>
      </trkpt>
      <trkpt lat="47.83314" lon="9.90647">
        <ele>666.245764</ele>
        <time>2022-09-13T22:15:51.154Z</time>
      </trkpt>
      <trkpt lat="47.83317" lon="9.9059">
        <ele>664.888476</ele>
        <time>2022-09-13T22:15:58.522Z</time>
      </trkpt>
      <trkpt lat="47.83326" lon="9.90541">
        <ele>663.744722</ele>
        <time>2022-09-13T22:16:05.039Z</time>
      </trkpt>
      <trkpt lat="47.83327" lon="9.9045">
        <ele>661.86316</ele>
        <time>2022-09-13T22:16:17.020Z</time>
      </trkpt>
      <trkpt lat="47.83338" lon="9.90313">
        <ele>659.038551</ele>
        <time>2022-09-13T22:16:36.391Z</time>
      </trkpt>
      <trkpt lat="47.83385" lon="9.90214">
        <ele>658.989428</ele>
        <time>2022-09-13T22:16:57.918Z</time>
      </trkpt>
      <trkpt lat="47.83385" lon="9.90108">
        <ele>659.320683</ele>
        <time>2022-09-13T22:17:21.419Z</time>
      </trkpt>
      <trkpt lat="47.83393" lon="9.90038">
        <ele>659.683493</ele>
        <time>2022-09-13T22:17:38.916Z</time>
      </trkpt>
      <trkpt lat="47.83395" lon="9.90033">
        <ele>659.758948</ele>
        <time>2022-09-13T22:17:40.195Z</time>
      </trkpt>
      <trkpt lat="47.83412" lon="9.90012">
        <ele>660.22696</ele>
        <time>2022-09-13T22:17:48.335Z</time>
      </trkpt>
      <trkpt lat="47.83442" lon="9.89917">
        <ele>661.687168</ele>
        <time>2022-09-13T22:18:14.430Z</time>
      </trkpt>
      <trkpt lat="47.83443" lon="9.89915">
        <ele>661.727462</ele>
        <time>2022-09-13T22:18:15.214Z</time>
      </trkpt>
      <trkpt lat="47.83481" lon="9.89828">
        <ele>663.169061</ele>
        <time>2022-09-13T22:18:42.757Z</time>
      </trkpt>
      <trkpt lat="47.83489" lon="9.89811">
        <ele>663.552527</ele>
        <time>2022-09-13T22:18:48.117Z</time>
      </trkpt>
      <trkpt lat="47.83513" lon="9.89788">
        <ele>664.387268</ele>
        <time>2022-09-13T22:18:59.309Z</time>
      </trkpt>
      <trkpt lat="47.83535" lon="9.89727">
        <ele>665.725418</ele>
        <time>2022-09-13T22:19:17.212Z</time>
      </trkpt>
      <trkpt lat="47.83545" lon="9.89679">
        <ele>666.706656</ele>
        <time>2022-09-13T22:19:30.693Z</time>
      </trkpt>
      <trkpt lat="47.83567" lon="9.89489">
        <ele>671.435927</ele>
        <time>2022-09-13T22:20:30.796Z</time>
      </trkpt>
      <trkpt lat="47.83566" lon="9.89443">
        <ele>672.759002</ele>
        <time>2022-09-13T22:20:46.175Z</time>
      </trkpt>
      <trkpt lat="47.83555" lon="9.89362">
        <ele>675.125161</ele>
        <time>2022-09-13T22:21:14.663Z</time>
      </trkpt>
      <trkpt lat="47.83523" lon="9.89162">
        <ele>679.720167</ele>
        <time>2022-09-13T22:22:21.145Z</time>
      </trkpt>
      <trkpt lat="47.83546" lon="9.89029">
        <ele>681.504459</ele>
        <time>2022-09-13T22:22:54.261Z</time>
      </trkpt>
      <trkpt lat="47.83579" lon="9.88915">
        <ele>680.596888</ele>
        <time>2022-09-13T22:23:13.529Z</time>
      </trkpt>
      <trkpt lat="47.83574" lon="9.8882">
        <ele>679.899437</ele>
        <time>2022-09-13T22:23:27.279Z</time>
      </trkpt>
      <trkpt lat="47.8356" lon="9.88765">
        <ele>679.528963</ele>
        <time>2022-09-13T22:23:36.073Z</time>
      </trkpt>
      <trkpt lat="47.83531" lon="9.88686">
        <ele>679.001246</ele>
        <time>2022-09-13T22:23:49.880Z</time>
      </trkpt>
      <trkpt lat="47.83484" lon="9.88474">
        <ele>678.452197</ele>
        <time>2022-09-13T22:24:32.573Z</time>
      </trkpt>
      <trkpt lat="47.8348" lon="9.88403">
        <ele>678.61589</ele>
        <time>2022-09-13T22:24:48.877Z</time>
      </trkpt>
      <trkpt lat="47.83486" lon="9.88268">
        <ele>678.624168</ele>
        <time>2022-09-13T22:25:14.191Z</time>
      </trkpt>
      <trkpt lat="47.83479" lon="9.88212">
        <ele>678.234303</ele>
        <time>2022-09-13T22:25:23.944Z</time>
      </trkpt>
      <trkpt lat="47.83482" lon="9.88173">
        <ele>677.964508</ele>
        <time>2022-09-13T22:25:30.396Z</time>
      </trkpt>
      <trkpt lat="47.83487" lon="9.88146">
        <ele>677.771356</ele>
        <time>2022-09-13T22:25:34.819Z</time>
      </trkpt>
      <trkpt lat="47.83491" lon="9.88067">
        <ele>677.237478</ele>
        <time>2022-09-13T22:25:46.881Z</time>
      </trkpt>
      <trkpt lat="47.8351" lon="9.87959">
        <ele>676.645608</ele>
        <time>2022-09-13T22:26:03.925Z</time>
      </trkpt>
      <trkpt lat="47.8351" lon="9.87913">
        <ele>676.42542</ele>
        <time>2022-09-13T22:26:11.188Z</time>
      </trkpt>
      <trkpt lat="47.83485" lon="9.87796">
        <ele>675.847399</ele>
        <time>2022-09-13T22:26:33.318Z</time>
      </trkpt>
      <trkpt lat="47.83476" lon="9.87775">
        <ele>675.802265</ele>
        <time>2022-09-13T22:26:37.840Z</time>
      </trkpt>
      <trkpt lat="47.83444" lon="9.8769">
        <ele>676.406145</ele>
        <time>2022-09-13T22:26:59.509Z</time>
      </trkpt>
      <trkpt lat="47.83444" lon="9.87609">
        <ele>676.912754</ele>
        <time>2022-09-13T22:27:18.155Z</time>
      </trkpt>
      <trkpt lat="47.83446" lon="9.87607">
        <ele>676.929878</ele>
        <time>2022-09-13T22:27:18.816Z</time>
      </trkpt>
      <trkpt lat="47.83456" lon="9.87593">
        <ele>677.061466</ele>
        <time>2022-09-13T22:27:23.642Z</time>
      </trkpt>
      <trkpt lat="47.83449" lon="9.87581">
        <ele>677.163671</ele>
        <time>2022-09-13T22:27:26.837Z</time>
      </trkpt>
      <trkpt lat="47.83485" lon="9.87517">
        <ele>677.487369</ele>
        <time>2022-09-13T22:27:45.408Z</time>
      </trkpt>
      <trkpt lat="47.83497" lon="9.87497">
        <ele>677.527193</ele>
        <time>2022-09-13T22:27:50.816Z</time>
      </trkpt>
      <trkpt lat="47.83471" lon="9.87446">
        <ele>677.622357</ele>
        <time>2022-09-13T22:28:03.195Z</time>
      </trkpt>
      <trkpt lat="47.8343" lon="9.87393">
        <ele>677.74237</ele>
        <time>2022-09-13T22:28:18.304Z</time>
      </trkpt>
      <trkpt lat="47.83481" lon="9.87296">
        <ele>677.901229</ele>
        <time>2022-09-13T22:28:39.763Z</time>
      </trkpt>
      <trkpt lat="47.83549" lon="9.87144">
        <ele>678.109831</ele>
        <time>2022-09-13T22:29:14.958Z</time>
      </trkpt>
      <trkpt lat="47.83572" lon="9.87083">
        <ele>678.807736</ele>
        <time>2022-09-13T22:29:30.113Z</time>
      </trkpt>
      <trkpt lat="47.83593" lon="9.86961">
        <ele>680.432481</ele>
        <time>2022-09-13T22:29:58.575Z</time>
      </trkpt>
      <trkpt lat="47.83616" lon="9.86913">
        <ele>681.186154</ele>
        <time>2022-09-13T22:30:13.881Z</time>
      </trkpt>
      <trkpt lat="47.83625" lon="9.869">
        <ele>681.432164</ele>
        <time>2022-09-13T22:30:19.430Z</time>
      </trkpt>
      <trkpt lat="47.83657" lon="9.86845">
        <ele>683.625431</ele>
        <time>2022-09-13T22:30:44.349Z</time>
      </trkpt>
      <trkpt lat="47.83683" lon="9.8675">
        <ele>687.051556</ele>
        <time>2022-09-13T22:31:25.070Z</time>
      </trkpt>
      <trkpt lat="47.83704" lon="9.86661">
        <ele>690.194586</ele>
        <time>2022-09-13T22:31:58.617Z</time>
      </trkpt>
      <trkpt lat="47.83735" lon="9.86568">
        <ele>691.246129</ele>
        <time>2022-09-13T22:32:27.817Z</time>
      </trkpt>
      <trkpt lat="47.83749" lon="9.8652">
        <ele>691.646384</ele>
        <time>2022-09-13T22:32:40.301Z</time>
      </trkpt>
      <trkpt lat="47.83745" lon="9.86445">
        <ele>692.223741</ele>
        <time>2022-09-13T22:32:54.413Z</time>
      </trkpt>
      <trkpt lat="47.83749" lon="9.86408">
        <ele>692.512195</ele>
        <time>2022-09-13T22:33:00.285Z</time>
      </trkpt>
      <trkpt lat="47.83771" lon="9.8637">
        <ele>692.325268</ele>
        <time>2022-09-13T22:33:07.540Z</time>
      </trkpt>
      <trkpt lat="47.83787" lon="9.8634">
        <ele>692.09771</ele>
        <time>2022-09-13T22:33:12.799Z</time>
      </trkpt>
      <trkpt lat="47.83799" lon="9.86302">
        <ele>691.845978</ele>
        <time>2022-09-13T22:33:19.017Z</time>
      </trkpt>
      <trkpt lat="47.83811" lon="9.8623">
        <ele>691.405036</ele>
        <time>2022-09-13T22:33:30.896Z</time>
      </trkpt>
      <trkpt lat="47.83885" lon="9.86153">
        <ele>691.827776</ele>
        <time>2022-09-13T22:34:00.731Z</time>
      </trkpt>
      <trkpt lat="47.83914" lon="9.86141">
        <ele>692.423765</ele>
        <time>2022-09-13T22:34:11.294Z</time>
      </trkpt>
      <trkpt lat="47.83967" lon="9.86138">
        <ele>693.489838</ele>
        <time>2022-09-13T22:34:29.554Z</time>
      </trkpt>
      <trkpt lat="47.84017" lon="9.8616">
        <ele>694.536152</ele>
        <time>2022-09-13T22:34:48.559Z</time>
      </trkpt>
      <trkpt lat="47.84031" lon="9.86159">
        <ele>695.532457</ele>
        <time>2022-09-13T22:34:55.627Z</time>
      </trkpt>
      <trkpt lat="47.84044" lon="9.86149">
        <ele>696.724076</ele>
        <time>2022-09-13T22:35:02.669Z</time>
      </trkpt>
      <trkpt lat="47.8406" lon="9.86121">
        <ele>698.768965</ele>
        <time>2022-09-13T22:35:18.167Z</time>
      </trkpt>
      <trkpt lat="47.84062" lon="9.86043">
        <ele>703.092101</ele>
        <time>2022-09-13T22:35:58.605Z</time>
      </trkpt>
      <trkpt lat="47.84081" lon="9.86001">
        <ele>705.843934</ele>
        <time>2022-09-13T22:36:24.507Z</time>
      </trkpt>
      <trkpt lat="47.84083" lon="9.85999">
        <ele>706.019407</ele>
        <time>2022-09-13T22:36:25.755Z</time>
      </trkpt>
      <trkpt lat="47.84087" lon="9.85991">
        <ele>706.583562</ele>
        <time>2022-09-13T22:36:30.250Z</time>
      </trkpt>
      <trkpt lat="47.84111" lon="9.85935">
        <ele>709.968644</ele>
        <time>2022-09-13T22:37:03.946Z</time>
      </trkpt>
      <trkpt lat="47.84119" lon="9.85913">
        <ele>710.884015</ele>
        <time>2022-09-13T22:37:19.390Z</time>
      </trkpt>
      <trkpt lat="47.84119" lon="9.8584">
        <ele>713.51407</ele>
        <time>2022-09-13T22:37:55.175Z</time>
      </trkpt>
      <trkpt lat="47.84093" lon="9.85498">
        <ele>719.175996</ele>
        <time>2022-09-13T22:39:27.747Z</time>
      </trkpt>
      <trkpt lat="47.84069" lon="9.85393">
        <ele>718.351702</ele>
        <time>2022-09-13T22:39:42.130Z</time>
      </trkpt>
      <trkpt lat="47.84066" lon="9.85353">
        <ele>717.285848</ele>
        <time>2022-09-13T22:39:47.361Z</time>
      </trkpt>
      <trkpt lat="47.84073" lon="9.85314">
        <ele>716.255614</ele>
        <time>2022-09-13T22:39:52.469Z</time>
      </trkpt>
      <trkpt lat="47.841" lon="9.85239">
        <ele>714.027384</ele>
        <time>2022-09-13T22:40:03.522Z</time>
      </trkpt>
      <trkpt lat="47.84162" lon="9.85107">
        <ele>711.996157</ele>
        <time>2022-09-13T22:40:26.605Z</time>
      </trkpt>
      <trkpt lat="47.84243" lon="9.84981">
        <ele>711.569532</ele>
        <time>2022-09-13T22:41:03.004Z</time>
      </trkpt>
      <trkpt lat="47.84271" lon="9.8495">
        <ele>712.198859</ele>
        <time>2022-09-13T22:41:15.507Z</time>
      </trkpt>
      <trkpt lat="47.84306" lon="9.84923">
        <ele>712.960105</ele>
        <time>2022-09-13T22:41:29.697Z</time>
      </trkpt>
      <trkpt lat="47.84306" lon="9.84905">
        <ele>713.197586</ele>
        <time>2022-09-13T22:41:34.893Z</time>
      </trkpt>
      <trkpt lat="47.84321" lon="9.8485">
        <ele>713.958879</ele>
        <time>2022-09-13T22:41:49.584Z</time>
      </trkpt>
      <trkpt lat="47.84344" lon="9.84793">
        <ele>714.817221</ele>
        <time>2022-09-13T22:42:06.651Z</time>
      </trkpt>
      <trkpt lat="47.84348" lon="9.84755">
        <ele>715.346354</ele>
        <time>2022-09-13T22:42:16.549Z</time>
      </trkpt>
      <trkpt lat="47.84342" lon="9.84713">
        <ele>715.971899</ele>
        <time>2022-09-13T22:42:28.532Z</time>
      </trkpt>
      <trkpt lat="47.8431" lon="9.84645">
        <ele>717.184443</ele>
        <time>2022-09-13T22:42:51.637Z</time>
      </trkpt>
      <trkpt lat="47.84305" lon="9.84623">
        <ele>717.524885</ele>
        <time>2022-09-13T22:42:58.293Z</time>
      </trkpt>
      <trkpt lat="47.84312" lon="9.8454">
        <ele>718.746135</ele>
        <time>2022-09-13T22:43:18.148Z</time>
      </trkpt>
      <trkpt lat="47.84323" lon="9.84501">
        <ele>718.917208</ele>
        <time>2022-09-13T22:43:28.262Z</time>
      </trkpt>
      <trkpt lat="47.84357" lon="9.84418">
        <ele>718.897737</ele>
        <time>2022-09-13T22:43:47.500Z</time>
      </trkpt>
      <trkpt lat="47.84358" lon="9.8439">
        <ele>718.89211</ele>
        <time>2022-09-13T22:43:52.166Z</time>
      </trkpt>
      <trkpt lat="47.84342" lon="9.84329">
        <ele>718.878769</ele>
        <time>2022-09-13T22:44:04.305Z</time>
      </trkpt>
      <trkpt lat="47.844" lon="9.84233">
        <ele>718.316033</ele>
        <time>2022-09-13T22:44:23.331Z</time>
      </trkpt>
      <trkpt lat="47.84437" lon="9.84125">
        <ele>717.509053</ele>
        <time>2022-09-13T22:44:41.107Z</time>
      </trkpt>
      <trkpt lat="47.845" lon="9.84018">
        <ele>717.408511</ele>
        <time>2022-09-13T22:45:07.113Z</time>
      </trkpt>
      <trkpt lat="47.84535" lon="9.83908">
        <ele>717.925502</ele>
        <time>2022-09-13T22:45:33.447Z</time>
      </trkpt>
      <trkpt lat="47.84546" lon="9.83884">
        <ele>718.047844</ele>
        <time>2022-09-13T22:45:39.871Z</time>
      </trkpt>
      <trkpt lat="47.84559" lon="9.83872">
        <ele>718.141238</ele>
        <time>2022-09-13T22:45:44.319Z</time>
      </trkpt>
      <trkpt lat="47.84607" lon="9.83844">
        <ele>718.523103</ele>
        <time>2022-09-13T22:45:59.150Z</time>
      </trkpt>
      <trkpt lat="47.84681" lon="9.83828">
        <ele>719.094854</ele>
        <time>2022-09-13T22:46:20.432Z</time>
      </trkpt>
      <trkpt lat="47.84707" lon="9.83824">
        <ele>719.295586</ele>
        <time>2022-09-13T22:46:29.160Z</time>
      </trkpt>
      <trkpt lat="47.84712" lon="9.83823">
        <ele>719.334086</ele>
        <time>2022-09-13T22:46:30.834Z</time>
      </trkpt>
      <trkpt lat="47.84723" lon="9.8382">
        <ele>719.417715</ele>
        <time>2022-09-13T22:46:34.267Z</time>
      </trkpt>
      <trkpt lat="47.84754" lon="9.83805">
        <ele>719.665142</ele>
        <time>2022-09-13T22:46:45.468Z</time>
      </trkpt>
      <trkpt lat="47.8479" lon="9.83758">
        <ele>720.029917</ele>
        <time>2022-09-13T22:47:00.319Z</time>
      </trkpt>
      <trkpt lat="47.84781" lon="9.83698">
        <ele>720.348526</ele>
        <time>2022-09-13T22:47:13.149Z</time>
      </trkpt>
      <trkpt lat="47.84777" lon="9.83662">
        <ele>720.532244</ele>
        <time>2022-09-13T22:47:20.131Z</time>
      </trkpt>
      <trkpt lat="47.84772" lon="9.83618">
        <ele>720.764738</ele>
        <time>2022-09-13T22:47:29.206Z</time>
      </trkpt>
      <trkpt lat="47.84762" lon="9.83521">
        <ele>720.271326</ele>
        <time>2022-09-13T22:47:48.461Z</time>
      </trkpt>
      <trkpt lat="47.84761" lon="9.8349">
        <ele>719.912693</ele>
        <time>2022-09-13T22:47:53.692Z</time>
      </trkpt>
      <trkpt lat="47.8476" lon="9.83442">
        <ele>719.354034</ele>
        <time>2022-09-13T22:48:00.881Z</time>
      </trkpt>
      <trkpt lat="47.84748" lon="9.83322">
        <ele>717.929461</ele>
        <time>2022-09-13T22:48:16.981Z</time>
      </trkpt>
      <trkpt lat="47.84715" lon="9.83182">
        <ele>713.96392</ele>
        <time>2022-09-13T22:48:35.511Z</time>
      </trkpt>
      <trkpt lat="47.84679" lon="9.8308">
        <ele>710.773106</ele>
        <time>2022-09-13T22:48:50.005Z</time>
      </trkpt>
      <trkpt lat="47.84656" lon="9.83017">
        <ele>708.584851</ele>
        <time>2022-09-13T22:48:58.909Z</time>
      </trkpt>
      <trkpt lat="47.84653" lon="9.83011">
        <ele>708.374278</ele>
        <time>2022-09-13T22:48:59.664Z</time>
      </trkpt>
      <trkpt lat="47.84641" lon="9.82912">
        <ele>705.217283</ele>
        <time>2022-09-13T22:49:12.196Z</time>
      </trkpt>
      <trkpt lat="47.84615" lon="9.82829">
        <ele>702.394552</ele>
        <time>2022-09-13T22:49:23.390Z</time>
      </trkpt>
      <trkpt lat="47.84615" lon="9.82804">
        <ele>701.55277</ele>
        <time>2022-09-13T22:49:26.432Z</time>
      </trkpt>
      <trkpt lat="47.84614" lon="9.82792">
        <ele>701.117033</ele>
        <time>2022-09-13T22:49:27.945Z</time>
      </trkpt>
      <trkpt lat="47.8462" lon="9.8277">
        <ele>700.267513</ele>
        <time>2022-09-13T22:49:30.928Z</time>
      </trkpt>
      <trkpt lat="47.84625" lon="9.82738">
        <ele>699.114593</ele>
        <time>2022-09-13T22:49:34.809Z</time>
      </trkpt>
      <trkpt lat="47.84627" lon="9.82731">
        <ele>698.826544</ele>
        <time>2022-09-13T22:49:35.741Z</time>
      </trkpt>
      <trkpt lat="47.84633" lon="9.82704">
        <ele>697.807253</ele>
        <time>2022-09-13T22:49:39.188Z</time>
      </trkpt>
      <trkpt lat="47.84644" lon="9.82672">
        <ele>696.53278</ele>
        <time>2022-09-13T22:49:43.363Z</time>
      </trkpt>
      <trkpt lat="47.84671" lon="9.82608">
        <ele>693.834843</ele>
        <time>2022-09-13T22:49:52.512Z</time>
      </trkpt>
      <trkpt lat="47.84686" lon="9.82591">
        <ele>692.815033</ele>
        <time>2022-09-13T22:49:55.894Z</time>
      </trkpt>
      <trkpt lat="47.84682" lon="9.82565">
        <ele>691.898519</ele>
        <time>2022-09-13T22:49:59.231Z</time>
      </trkpt>
      <trkpt lat="47.84684" lon="9.82536">
        <ele>690.905751</ele>
        <time>2022-09-13T22:50:02.674Z</time>
      </trkpt>
      <trkpt lat="47.847" lon="9.82481">
        <ele>688.897897</ele>
        <time>2022-09-13T22:50:09.801Z</time>
      </trkpt>
      <trkpt lat="47.84758" lon="9.82392">
        <ele>684.682478</ele>
        <time>2022-09-13T22:50:24.792Z</time>
      </trkpt>
      <trkpt lat="47.84827" lon="9.8234">
        <ele>681.871336</ele>
        <time>2022-09-13T22:50:39.284Z</time>
      </trkpt>
      <trkpt lat="47.84885" lon="9.82174">
        <ele>678.068341</ele>
        <time>2022-09-13T22:51:04.592Z</time>
      </trkpt>
      <trkpt lat="47.84934" lon="9.82098">
        <ele>677.625823</ele>
        <time>2022-09-13T22:51:20.430Z</time>
      </trkpt>
      <trkpt lat="47.85046" lon="9.82038">
        <ele>677.110945</ele>
        <time>2022-09-13T22:51:51.277Z</time>
      </trkpt>
      <trkpt lat="47.85071" lon="9.81718">
        <ele>680.609966</ele>
        <time>2022-09-13T22:53:08.191Z</time>
      </trkpt>
      <trkpt lat="47.85071" lon="9.81612">
        <ele>681.90911</ele>
        <time>2022-09-13T22:53:34.770Z</time>
      </trkpt>
      <trkpt lat="47.851" lon="9.8145">
        <ele>683.857299</ele>
        <time>2022-09-13T22:54:12.493Z</time>
      </trkpt>
      <trkpt lat="47.85133" lon="9.81344">
        <ele>685.126701</ele>
        <time>2022-09-13T22:54:37.280Z</time>
      </trkpt>
      <trkpt lat="47.85129" lon="9.8128">
        <ele>685.817028</ele>
        <time>2022-09-13T22:54:51.866Z</time>
      </trkpt>
      <trkpt lat="47.85117" lon="9.8123">
        <ele>686.988974</ele>
        <time>2022-09-13T22:55:13.066Z</time>
      </trkpt>
      <trkpt lat="47.85068" lon="9.81111">
        <ele>690.627998</ele>
        <time>2022-09-13T22:56:13.711Z</time>
      </trkpt>
      <trkpt lat="47.85049" lon="9.81051">
        <ele>692.365396</ele>
        <time>2022-09-13T22:56:45.381Z</time>
      </trkpt>
      <trkpt lat="47.85033" lon="9.81">
        <ele>692.971756</ele>
        <time>2022-09-13T22:57:09.650Z</time>
      </trkpt>
      <trkpt lat="47.85003" lon="9.80938">
        <ele>692.882025</ele>
        <time>2022-09-13T22:57:38.336Z</time>
      </trkpt>
      <trkpt lat="47.84984" lon="9.80867">
        <ele>692.792959</ele>
        <time>2022-09-13T22:58:02.820Z</time>
      </trkpt>
      <trkpt lat="47.8515" lon="9.8066">
        <ele>683.976618</ele>
        <time>2022-09-13T22:59:13.233Z</time>
      </trkpt>
      <trkpt lat="47.85177" lon="9.80604">
        <ele>681.734306</ele>
        <time>2022-09-13T22:59:27.771Z</time>
      </trkpt>
      <trkpt lat="47.85246" lon="9.80415">
        <ele>675.538118</ele>
        <time>2022-09-13T23:00:15.879Z</time>
      </trkpt>
      <trkpt lat="47.85249" lon="9.80342">
        <ele>676.37802</ele>
        <time>2022-09-13T23:00:36.904Z</time>
      </trkpt>
      <trkpt lat="47.8526" lon="9.80299">
        <ele>677.283663</ele>
        <time>2022-09-13T23:00:52.403Z</time>
      </trkpt>
      <trkpt lat="47.85262" lon="9.80265">
        <ele>677.968026</ele>
        <time>2022-09-13T23:01:05.340Z</time>
      </trkpt>
      <trkpt lat="47.85259" lon="9.80051">
        <ele>682.062694</ele>
        <time>2022-09-13T23:02:54.373Z</time>
      </trkpt>
      <trkpt lat="47.85232" lon="9.79909">
        <ele>684.662983</ele>
        <time>2022-09-13T23:03:49.466Z</time>
      </trkpt>
      <trkpt lat="47.85215" lon="9.79884">
        <ele>685.247703</ele>
        <time>2022-09-13T23:03:54.474Z</time>
      </trkpt>
      <trkpt lat="47.85205" lon="9.7983">
        <ele>683.0863</ele>
        <time>2022-09-13T23:04:01.786Z</time>
      </trkpt>
      <trkpt lat="47.85204" lon="9.79766">
        <ele>680.62726</ele>
        <time>2022-09-13T23:04:09.435Z</time>
      </trkpt>
      <trkpt lat="47.8519" lon="9.79703">
        <ele>678.068147</ele>
        <time>2022-09-13T23:04:17.130Z</time>
      </trkpt>
      <trkpt lat="47.85188" lon="9.79668">
        <ele>676.706869</ele>
        <time>2022-09-13T23:04:21.016Z</time>
      </trkpt>
      <trkpt lat="47.85173" lon="9.79582">
        <ele>673.264782</ele>
        <time>2022-09-13T23:04:30.959Z</time>
      </trkpt>
      <trkpt lat="47.85169" lon="9.79494">
        <ele>669.84368</ele>
        <time>2022-09-13T23:04:41.450Z</time>
      </trkpt>
      <trkpt lat="47.85171" lon="9.79424">
        <ele>667.150815</ele>
        <time>2022-09-13T23:04:49.808Z</time>
      </trkpt>
      <trkpt lat="47.85177" lon="9.79409">
        <ele>666.469715</ele>
        <time>2022-09-13T23:04:52.057Z</time>
      </trkpt>
      <trkpt lat="47.85175" lon="9.79381">
        <ele>665.391089</ele>
        <time>2022-09-13T23:04:55.547Z</time>
      </trkpt>
      <trkpt lat="47.85168" lon="9.79379">
        <ele>664.954786</ele>
        <time>2022-09-13T23:04:56.981Z</time>
      </trkpt>
      <trkpt lat="47.85165" lon="9.79379">
        <ele>664.792192</ele>
        <time>2022-09-13T23:04:57.524Z</time>
      </trkpt>
      <trkpt lat="47.85146" lon="9.79375">
        <ele>664.115289</ele>
        <time>2022-09-13T23:05:01.195Z</time>
      </trkpt>
      <trkpt lat="47.8514" lon="9.79374">
        <ele>663.92053</ele>
        <time>2022-09-13T23:05:02.427Z</time>
      </trkpt>
      <trkpt lat="47.85139" lon="9.79363">
        <ele>663.692291</ele>
        <time>2022-09-13T23:05:03.898Z</time>
      </trkpt>
      <trkpt lat="47.85132" lon="9.79213">
        <ele>660.648064</ele>
        <time>2022-09-13T23:05:23.814Z</time>
      </trkpt>
      <trkpt lat="47.85006" lon="9.7921">
        <ele>657.832606</ele>
        <time>2022-09-13T23:05:49.835Z</time>
      </trkpt>
      <trkpt lat="47.84932" lon="9.79197">
        <ele>656.551025</ele>
        <time>2022-09-13T23:06:06.269Z</time>
      </trkpt>
      <trkpt lat="47.84847" lon="9.79176">
        <ele>655.847388</ele>
        <time>2022-09-13T23:06:26.251Z</time>
      </trkpt>
      <trkpt lat="47.84797" lon="9.79155">
        <ele>655.65747</ele>
        <time>2022-09-13T23:06:39.386Z</time>
      </trkpt>
      <trkpt lat="47.84702" lon="9.79103">
        <ele>655.245266</ele>
        <time>2022-09-13T23:07:07.422Z</time>
      </trkpt>
      <trkpt lat="47.84634" lon="9.79032">
        <ele>654.82571</ele>
        <time>2022-09-13T23:07:28.928Z</time>
      </trkpt>
      <trkpt lat="47.84594" lon="9.78986">
        <ele>654.566125</ele>
        <time>2022-09-13T23:07:40.958Z</time>
      </trkpt>
      <trkpt lat="47.84608" lon="9.78928">
        <ele>653.846438</ele>
        <time>2022-09-13T23:07:50.471Z</time>
      </trkpt>
      <trkpt lat="47.84594" lon="9.78858">
        <ele>652.625556</ele>
        <time>2022-09-13T23:08:01.308Z</time>
      </trkpt>
      <trkpt lat="47.84546" lon="9.78737">
        <ele>650.275893</ele>
        <time>2022-09-13T23:08:20.581Z</time>
      </trkpt>
      <trkpt lat="47.8451" lon="9.78661">
        <ele>648.491147</ele>
        <time>2022-09-13T23:08:33.667Z</time>
      </trkpt>
      <trkpt lat="47.84492" lon="9.78663">
        <ele>647.95255</ele>
        <time>2022-09-13T23:08:37.344Z</time>
      </trkpt>
      <trkpt lat="47.84487" lon="9.78616">
        <ele>647.013915</ele>
        <time>2022-09-13T23:08:43.553Z</time>
      </trkpt>
      <trkpt lat="47.84458" lon="9.78486">
        <ele>644.628124</ele>
        <time>2022-09-13T23:09:01.938Z</time>
      </trkpt>
      <trkpt lat="47.84453" lon="9.78432">
        <ele>644.379939</ele>
        <time>2022-09-13T23:09:09.643Z</time>
      </trkpt>
      <trkpt lat="47.84455" lon="9.78382">
        <ele>644.151151</ele>
        <time>2022-09-13T23:09:17.512Z</time>
      </trkpt>
      <trkpt lat="47.84467" lon="9.78309">
        <ele>643.806702</ele>
        <time>2022-09-13T23:09:30.705Z</time>
      </trkpt>
      <trkpt lat="47.84488" lon="9.78242">
        <ele>643.566091</ele>
        <time>2022-09-13T23:09:44.624Z</time>
      </trkpt>
      <trkpt lat="47.84507" lon="9.78206">
        <ele>644.049927</ele>
        <time>2022-09-13T23:09:54.562Z</time>
      </trkpt>
      <trkpt lat="47.84604" lon="9.78082">
        <ele>646.042501</ele>
        <time>2022-09-13T23:10:42.349Z</time>
      </trkpt>
      <trkpt lat="47.84684" lon="9.78012">
        <ele>645.740336</ele>
        <time>2022-09-13T23:11:10.233Z</time>
      </trkpt>
      <trkpt lat="47.84699" lon="9.77992">
        <ele>645.592911</ele>
        <time>2022-09-13T23:11:15.004Z</time>
      </trkpt>
      <trkpt lat="47.84805" lon="9.77794">
        <ele>642.802969</ele>
        <time>2022-09-13T23:11:50.112Z</time>
      </trkpt>
      <trkpt lat="47.84815" lon="9.77764">
        <ele>642.23297</ele>
        <time>2022-09-13T23:11:54.542Z</time>
      </trkpt>
      <trkpt lat="47.8484" lon="9.77623">
        <ele>640.042596</ele>
        <time>2022-09-13T23:12:14.087Z</time>
      </trkpt>
      <trkpt lat="47.84839" lon="9.77362">
        <ele>637.966749</ele>
        <time>2022-09-13T23:12:53.363Z</time>
      </trkpt>
      <trkpt lat="47.84839" lon="9.77336">
        <ele>638.118571</ele>
        <time>2022-09-13T23:12:58.210Z</time>
      </trkpt>
      <trkpt lat="47.84837" lon="9.77185">
        <ele>639.011907</ele>
        <time>2022-09-13T23:13:31.129Z</time>
      </trkpt>
      <trkpt lat="47.84833" lon="9.77134">
        <ele>639.312735</ele>
        <time>2022-09-13T23:13:43.744Z</time>
      </trkpt>
      <trkpt lat="47.84783" lon="9.76731">
        <ele>643.334314</ele>
        <time>2022-09-13T23:15:23.969Z</time>
      </trkpt>
      <trkpt lat="47.84741" lon="9.76683">
        <ele>643.557266</ele>
        <time>2022-09-13T23:15:37.351Z</time>
      </trkpt>
      <trkpt lat="47.84699" lon="9.76588">
        <ele>642.349925</ele>
        <time>2022-09-13T23:15:53.693Z</time>
      </trkpt>
      <trkpt lat="47.84659" lon="9.76514">
        <ele>640.210921</ele>
        <time>2022-09-13T23:16:05.956Z</time>
      </trkpt>
      <trkpt lat="47.84636" lon="9.76462">
        <ele>638.801588</ele>
        <time>2022-09-13T23:16:13.798Z</time>
      </trkpt>
      <trkpt lat="47.8456" lon="9.7624">
        <ele>631.449179</ele>
        <time>2022-09-13T23:16:44.508Z</time>
      </trkpt>
      <trkpt lat="47.84553" lon="9.76225">
        <ele>630.869765</ele>
        <time>2022-09-13T23:16:46.768Z</time>
      </trkpt>
      <trkpt lat="47.84544" lon="9.76206">
        <ele>630.144826</ele>
        <time>2022-09-13T23:16:49.606Z</time>
      </trkpt>
      <trkpt lat="47.84519" lon="9.76174">
        <ele>628.553873</ele>
        <time>2022-09-13T23:16:55.562Z</time>
      </trkpt>
      <trkpt lat="47.8448" lon="9.76144">
        <ele>626.305691</ele>
        <time>2022-09-13T23:17:03.587Z</time>
      </trkpt>
      <trkpt lat="47.84456" lon="9.76102">
        <ele>624.385762</ele>
        <time>2022-09-13T23:17:10.462Z</time>
      </trkpt>
      <trkpt lat="47.8445" lon="9.76082">
        <ele>623.648789</ele>
        <time>2022-09-13T23:17:13.006Z</time>
      </trkpt>
      <trkpt lat="47.84468" lon="9.76062">
        <ele>622.483843</ele>
        <time>2022-09-13T23:17:17.080Z</time>
      </trkpt>
      <trkpt lat="47.84501" lon="9.76014">
        <ele>620.12296</ele>
        <time>2022-09-13T23:17:25.265Z</time>
      </trkpt>
      <trkpt lat="47.84528" lon="9.75955">
        <ele>617.363724</ele>
        <time>2022-09-13T23:17:33.791Z</time>
      </trkpt>
      <trkpt lat="47.84551" lon="9.75868">
        <ele>613.74323</ele>
        <time>2022-09-13T23:17:44.635Z</time>
      </trkpt>
      <trkpt lat="47.84569" lon="9.75792">
        <ele>610.599216</ele>
        <time>2022-09-13T23:17:54.273Z</time>
      </trkpt>
      <trkpt lat="47.84574" lon="9.7573">
        <ele>609.022031</ele>
        <time>2022-09-13T23:18:01.772Z</time>
      </trkpt>
      <trkpt lat="47.84578" lon="9.75678">
        <ele>608.142402</ele>
        <time>2022-09-13T23:18:08.490Z</time>
      </trkpt>
      <trkpt lat="47.84572" lon="9.75605">
        <ele>606.935123</ele>
        <time>2022-09-13T23:18:18.708Z</time>
      </trkpt>
      <trkpt lat="47.84571" lon="9.75563">
        <ele>606.235074</ele>
        <time>2022-09-13T23:18:25.044Z</time>
      </trkpt>
      <trkpt lat="47.84574" lon="9.7554">
        <ele>605.835614</ele>
        <time>2022-09-13T23:18:28.670Z</time>
      </trkpt>
      <trkpt lat="47.84623" lon="9.75453">
        <ele>605.386677</ele>
        <time>2022-09-13T23:18:48.324Z</time>
      </trkpt>
      <trkpt lat="47.8464" lon="9.75389">
        <ele>605.565037</ele>
        <time>2022-09-13T23:19:02.603Z</time>
      </trkpt>
      <trkpt lat="47.84654" lon="9.7534">
        <ele>605.701531</ele>
        <time>2022-09-13T23:19:14.087Z</time>
      </trkpt>
      <trkpt lat="47.84692" lon="9.75255">
        <ele>605.800739</ele>
        <time>2022-09-13T23:19:34.737Z</time>
      </trkpt>
      <trkpt lat="47.84715" lon="9.75175">
        <ele>605.57027</ele>
        <time>2022-09-13T23:19:49.507Z</time>
      </trkpt>
      <trkpt lat="47.84753" lon="9.75034">
        <ele>605.158255</ele>
        <time>2022-09-13T23:20:13.826Z</time>
      </trkpt>
      <trkpt lat="47.8477" lon="9.75022">
        <ele>604.950064</ele>
        <time>2022-09-13T23:20:18.147Z</time>
      </trkpt>
      <trkpt lat="47.84783" lon="9.75022">
        <ele>604.810481</ele>
        <time>2022-09-13T23:20:20.914Z</time>
      </trkpt>
      <trkpt lat="47.84785" lon="9.74998">
        <ele>604.633322</ele>
        <time>2022-09-13T23:20:24.626Z</time>
      </trkpt>
      <trkpt lat="47.848" lon="9.7497">
        <ele>604.370511</ele>
        <time>2022-09-13T23:20:30.016Z</time>
      </trkpt>
      <trkpt lat="47.84815" lon="9.74955">
        <ele>604.178563</ele>
        <time>2022-09-13T23:20:34.090Z</time>
      </trkpt>
      <trkpt lat="47.8485" lon="9.74906">
        <ele>603.64993</ele>
        <time>2022-09-13T23:20:45.214Z</time>
      </trkpt>
      <trkpt lat="47.8486" lon="9.74891">
        <ele>603.493569</ele>
        <time>2022-09-13T23:20:48.548Z</time>
      </trkpt>
      <trkpt lat="47.8487" lon="9.74875">
        <ele>603.33227</ele>
        <time>2022-09-13T23:20:51.888Z</time>
      </trkpt>
      <trkpt lat="47.84903" lon="9.74841">
        <ele>602.845344</ele>
        <time>2022-09-13T23:21:01.031Z</time>
      </trkpt>
      <trkpt lat="47.8492" lon="9.74829">
        <ele>602.614185</ele>
        <time>2022-09-13T23:21:05.148Z</time>
      </trkpt>
      <trkpt lat="47.84944" lon="9.74811">
        <ele>602.278723</ele>
        <time>2022-09-13T23:21:10.991Z</time>
      </trkpt>
      <trkpt lat="47.84961" lon="9.74795">
        <ele>602.030535</ele>
        <time>2022-09-13T23:21:15.274Z</time>
      </trkpt>
      <trkpt lat="47.84966" lon="9.74789">
        <ele>601.9453</ele>
        <time>2022-09-13T23:21:16.751Z</time>
      </trkpt>
      <trkpt lat="47.84983" lon="9.74765">
        <ele>601.65861</ele>
        <time>2022-09-13T23:21:21.858Z</time>
      </trkpt>
      <trkpt lat="47.85016" lon="9.74695">
        <ele>600.949518</ele>
        <time>2022-09-13T23:21:35.330Z</time>
      </trkpt>
      <trkpt lat="47.85056" lon="9.74604">
        <ele>600.865114</ele>
        <time>2022-09-13T23:21:52.413Z</time>
      </trkpt>
      <trkpt lat="47.85117" lon="9.74466">
        <ele>600.870764</ele>
        <time>2022-09-13T23:22:22.105Z</time>
      </trkpt>
      <trkpt lat="47.85103" lon="9.74423">
        <ele>601.699729</ele>
        <time>2022-09-13T23:22:33.439Z</time>
      </trkpt>
      <trkpt lat="47.85083" lon="9.7435">
        <ele>603.058481</ele>
        <time>2022-09-13T23:22:55.246Z</time>
      </trkpt>
      <trkpt lat="47.85074" lon="9.74308">
        <ele>603.822745</ele>
        <time>2022-09-13T23:23:08.302Z</time>
      </trkpt>
      <trkpt lat="47.85062" lon="9.7424">
        <ele>605.050746</ele>
        <time>2022-09-13T23:23:29.267Z</time>
      </trkpt>
      <trkpt lat="47.85056" lon="9.742">
        <ele>605.42251</ele>
        <time>2022-09-13T23:23:40.856Z</time>
      </trkpt>
      <trkpt lat="47.85053" lon="9.74133">
        <ele>605.54359</ele>
        <time>2022-09-13T23:23:57.591Z</time>
      </trkpt>
      <trkpt lat="47.85048" lon="9.74049">
        <ele>605.695377</ele>
        <time>2022-09-13T23:24:13.549Z</time>
      </trkpt>
      <trkpt lat="47.8504" lon="9.7397">
        <ele>605.838008</ele>
        <time>2022-09-13T23:24:25.453Z</time>
      </trkpt>
      <trkpt lat="47.85039" lon="9.73952">
        <ele>605.78794</ele>
        <time>2022-09-13T23:24:27.881Z</time>
      </trkpt>
      <trkpt lat="47.8504" lon="9.73931">
        <ele>605.180514</ele>
        <time>2022-09-13T23:24:30.867Z</time>
      </trkpt>
      <trkpt lat="47.85045" lon="9.73877">
        <ele>603.632989</ele>
        <time>2022-09-13T23:24:38.199Z</time>
      </trkpt>
      <trkpt lat="47.85045" lon="9.73846">
        <ele>602.752899</ele>
        <time>2022-09-13T23:24:42.171Z</time>
      </trkpt>
      <trkpt lat="47.85038" lon="9.73781">
        <ele>600.879863</ele>
        <time>2022-09-13T23:24:50.481Z</time>
      </trkpt>
      <trkpt lat="47.85039" lon="9.73744">
        <ele>599.822534</ele>
        <time>2022-09-13T23:24:55.152Z</time>
      </trkpt>
      <trkpt lat="47.85048" lon="9.7369">
        <ele>598.265092</ele>
        <time>2022-09-13T23:25:02.134Z</time>
      </trkpt>
      <trkpt lat="47.85076" lon="9.73585">
        <ele>595.878149</ele>
        <time>2022-09-13T23:25:17.319Z</time>
      </trkpt>
      <trkpt lat="47.85101" lon="9.73453">
        <ele>592.962679</ele>
        <time>2022-09-13T23:25:36.891Z</time>
      </trkpt>
      <trkpt lat="47.851" lon="9.73377">
        <ele>591.922349</ele>
        <time>2022-09-13T23:25:48.138Z</time>
      </trkpt>
      <trkpt lat="47.85082" lon="9.73288">
        <ele>590.854673</ele>
        <time>2022-09-13T23:26:02.879Z</time>
      </trkpt>
      <trkpt lat="47.85055" lon="9.73193">
        <ele>589.656606</ele>
        <time>2022-09-13T23:26:19.840Z</time>
      </trkpt>
      <trkpt lat="47.85012" lon="9.7307">
        <ele>584.36229</ele>
        <time>2022-09-13T23:26:38.831Z</time>
      </trkpt>
      <trkpt lat="47.85004" lon="9.73033">
        <ele>582.794248</ele>
        <time>2022-09-13T23:26:43.425Z</time>
      </trkpt>
      <trkpt lat="47.85004" lon="9.73008">
        <ele>581.776845</ele>
        <time>2022-09-13T23:26:46.315Z</time>
      </trkpt>
      <trkpt lat="47.84995" lon="9.72979">
        <ele>580.430061</ele>
        <time>2022-09-13T23:26:50.215Z</time>
      </trkpt>
      <trkpt lat="47.84942" lon="9.72897">
        <ele>573.182742</ele>
        <time>2022-09-13T23:27:03.213Z</time>
      </trkpt>
      <trkpt lat="47.84922" lon="9.72837">
        <ele>567.852848</ele>
        <time>2022-09-13T23:27:10.684Z</time>
      </trkpt>
      <trkpt lat="47.84908" lon="9.72812">
        <ele>565.28894</ele>
        <time>2022-09-13T23:27:14.303Z</time>
      </trkpt>
      <trkpt lat="47.84892" lon="9.72741">
        <ele>559.358584</ele>
        <time>2022-09-13T23:27:22.491Z</time>
      </trkpt>
      <trkpt lat="47.84867" lon="9.72675">
        <ele>554.288395</ele>
        <time>2022-09-13T23:27:31.078Z</time>
      </trkpt>
      <trkpt lat="47.84853" lon="9.72588">
        <ele>549.016136</ele>
        <time>2022-09-13T23:27:41.564Z</time>
      </trkpt>
      <trkpt lat="47.84853" lon="9.72549">
        <ele>546.771481</ele>
        <time>2022-09-13T23:27:46.358Z</time>
      </trkpt>
      <trkpt lat="47.84859" lon="9.72537">
        <ele>545.893025</ele>
        <time>2022-09-13T23:27:48.029Z</time>
      </trkpt>
      <trkpt lat="47.84908" lon="9.72473">
        <ele>540.597995</ele>
        <time>2022-09-13T23:27:59.919Z</time>
      </trkpt>
      <trkpt lat="47.84916" lon="9.7246">
        <ele>539.928892</ele>
        <time>2022-09-13T23:28:01.917Z</time>
      </trkpt>
      <trkpt lat="47.84921" lon="9.72433">
        <ele>538.825055</ele>
        <time>2022-09-13T23:28:05.531Z</time>
      </trkpt>
      <trkpt lat="47.84922" lon="9.72427">
        <ele>538.569842</ele>
        <time>2022-09-13T23:28:06.296Z</time>
      </trkpt>
      <trkpt lat="47.84929" lon="9.72319">
        <ele>534.321108</ele>
        <time>2022-09-13T23:28:19.804Z</time>
      </trkpt>
      <trkpt lat="47.84936" lon="9.72293">
        <ele>533.243899</ele>
        <time>2022-09-13T23:28:23.487Z</time>
      </trkpt>
      <trkpt lat="47.84952" lon="9.72265">
        <ele>531.808029</ele>
        <time>2022-09-13T23:28:28.109Z</time>
      </trkpt>
      <trkpt lat="47.84915" lon="9.72193">
        <ele>529.345894</ele>
        <time>2022-09-13T23:28:39.206Z</time>
      </trkpt>
      <trkpt lat="47.84899" lon="9.72148">
        <ele>528.148277</ele>
        <time>2022-09-13T23:28:45.564Z</time>
      </trkpt>
      <trkpt lat="47.84896" lon="9.72142">
        <ele>527.9842</ele>
        <time>2022-09-13T23:28:46.408Z</time>
      </trkpt>
      <trkpt lat="47.84867" lon="9.72036">
        <ele>525.315462</ele>
        <time>2022-09-13T23:29:01.681Z</time>
      </trkpt>
      <trkpt lat="47.84803" lon="9.71763">
        <ele>522.027248</ele>
        <time>2022-09-13T23:29:45.176Z</time>
      </trkpt>
      <trkpt lat="47.8477" lon="9.71674">
        <ele>520.714159</ele>
        <time>2022-09-13T23:29:59.751Z</time>
      </trkpt>
      <trkpt lat="47.84741" lon="9.71619">
        <ele>519.80411</ele>
        <time>2022-09-13T23:30:09.732Z</time>
      </trkpt>
      <trkpt lat="47.84709" lon="9.71575">
        <ele>518.957326</ele>
        <time>2022-09-13T23:30:18.881Z</time>
      </trkpt>
      <trkpt lat="47.84666" lon="9.71533">
        <ele>518.165821</ele>
        <time>2022-09-13T23:30:29.472Z</time>
      </trkpt>
      <trkpt lat="47.84615" lon="9.71497">
        <ele>517.481882</ele>
        <time>2022-09-13T23:30:41.491Z</time>
      </trkpt>
      <trkpt lat="47.84568" lon="9.71479">
        <ele>516.891754</ele>
        <time>2022-09-13T23:30:52.746Z</time>
      </trkpt>
      <trkpt lat="47.84507" lon="9.71465">
        <ele>516.402694</ele>
        <time>2022-09-13T23:31:08.485Z</time>
      </trkpt>
      <trkpt lat="47.8441" lon="9.71454">
        <ele>517.007201</ele>
        <time>2022-09-13T23:31:36.631Z</time>
      </trkpt>
      <trkpt lat="47.84238" lon="9.7141">
        <ele>518.137047</ele>
        <time>2022-09-13T23:32:33.162Z</time>
      </trkpt>
      <trkpt lat="47.84136" lon="9.71409">
        <ele>518.470272</ele>
        <time>2022-09-13T23:33:00.299Z</time>
      </trkpt>
      <trkpt lat="47.84086" lon="9.71401">
        <ele>518.188648</ele>
        <time>2022-09-13T23:33:12.607Z</time>
      </trkpt>
      <trkpt lat="47.84046" lon="9.71384">
        <ele>517.957005</ele>
        <time>2022-09-13T23:33:22.508Z</time>
      </trkpt>
      <trkpt lat="47.84001" lon="9.71352">
        <ele>517.674978</ele>
        <time>2022-09-13T23:33:34.712Z</time>
      </trkpt>
      <trkpt lat="47.83941" lon="9.71281">
        <ele>516.97114</ele>
        <time>2022-09-13T23:33:52.705Z</time>
      </trkpt>
      <trkpt lat="47.83897" lon="9.71194">
        <ele>516.253194</ele>
        <time>2022-09-13T23:34:09.876Z</time>
      </trkpt>
      <trkpt lat="47.83871" lon="9.71125">
        <ele>515.684979</ele>
        <time>2022-09-13T23:34:21.735Z</time>
      </trkpt>
      <trkpt lat="47.83829" lon="9.70987">
        <ele>514.275288</ele>
        <time>2022-09-13T23:34:44.075Z</time>
      </trkpt>
      <trkpt lat="47.83797" lon="9.70841">
        <ele>513.112861</ele>
        <time>2022-09-13T23:35:06.982Z</time>
      </trkpt>
      <trkpt lat="47.83766" lon="9.7059">
        <ele>511.968558</ele>
        <time>2022-09-13T23:35:49.397Z</time>
      </trkpt>
      <trkpt lat="47.83751" lon="9.70491">
        <ele>511.684364</ele>
        <time>2022-09-13T23:36:06.687Z</time>
      </trkpt>
      <trkpt lat="47.837" lon="9.70304">
        <ele>510.515527</ele>
        <time>2022-09-13T23:36:40.223Z</time>
      </trkpt>
      <trkpt lat="47.83683" lon="9.70211">
        <ele>509.525898</ele>
        <time>2022-09-13T23:36:54.383Z</time>
      </trkpt>
      <trkpt lat="47.8368" lon="9.70127">
        <ele>508.664139</ele>
        <time>2022-09-13T23:37:06.194Z</time>
      </trkpt>
      <trkpt lat="47.83693" lon="9.70024">
        <ele>506.615179</ele>
        <time>2022-09-13T23:37:20.213Z</time>
      </trkpt>
      <trkpt lat="47.83714" lon="9.69874">
        <ele>503.489596</ele>
        <time>2022-09-13T23:37:40.060Z</time>
      </trkpt>
      <trkpt lat="47.83712" lon="9.69746">
        <ele>501.818753</ele>
        <time>2022-09-13T23:37:57.362Z</time>
      </trkpt>
      <trkpt lat="47.8369" lon="9.69612">
        <ele>500.179526</ele>
        <time>2022-09-13T23:38:18.227Z</time>
      </trkpt>
      <trkpt lat="47.83659" lon="9.69413">
        <ele>499.446384</ele>
        <time>2022-09-13T23:38:52.243Z</time>
      </trkpt>
      <trkpt lat="47.83648" lon="9.69223">
        <ele>499.501383</ele>
        <time>2022-09-13T23:39:26.018Z</time>
      </trkpt>
      <trkpt lat="47.83655" lon="9.68933">
        <ele>499.992588</ele>
        <time>2022-09-13T23:40:24.436Z</time>
      </trkpt>
      <trkpt lat="47.83649" lon="9.68837">
        <ele>500.046151</ele>
        <time>2022-09-13T23:40:42.517Z</time>
      </trkpt>
      <trkpt lat="47.83639" lon="9.68769">
        <ele>499.539669</ele>
        <time>2022-09-13T23:40:54.176Z</time>
      </trkpt>
      <trkpt lat="47.83581" lon="9.68517">
        <ele>494.104467</ele>
        <time>2022-09-13T23:41:29.166Z</time>
      </trkpt>
      <trkpt lat="47.83551" lon="9.68358">
        <ele>488.477376</ele>
        <time>2022-09-13T23:41:48.864Z</time>
      </trkpt>
      <trkpt lat="47.83545" lon="9.68282">
        <ele>485.844925</ele>
        <time>2022-09-13T23:41:57.952Z</time>
      </trkpt>
      <trkpt lat="47.83544" lon="9.68159">
        <ele>482.943429</ele>
        <time>2022-09-13T23:42:13.028Z</time>
      </trkpt>
      <trkpt lat="47.83549" lon="9.68053">
        <ele>480.440088</ele>
        <time>2022-09-13T23:42:27.412Z</time>
      </trkpt>
      <trkpt lat="47.83552" lon="9.67902">
        <ele>478.874695</ele>
        <time>2022-09-13T23:42:50.199Z</time>
      </trkpt>
      <trkpt lat="47.83549" lon="9.67821">
        <ele>478.40143</ele>
        <time>2022-09-13T23:43:03.755Z</time>
      </trkpt>
      <trkpt lat="47.8353" lon="9.67683">
        <ele>477.66314</ele>
        <time>2022-09-13T23:43:27.524Z</time>
      </trkpt>
      <trkpt lat="47.8347" lon="9.67371">
        <ele>476.095731</ele>
        <time>2022-09-13T23:44:19.116Z</time>
      </trkpt>
      <trkpt lat="47.83366" lon="9.66825">
        <ele>473.077549</ele>
        <time>2022-09-13T23:45:49.684Z</time>
      </trkpt>
      <trkpt lat="47.83336" lon="9.66725">
        <ele>472.485885</ele>
        <time>2022-09-13T23:46:06.891Z</time>
      </trkpt>
      <trkpt lat="47.83278" lon="9.6656">
        <ele>471.693156</ele>
        <time>2022-09-13T23:46:36.553Z</time>
      </trkpt>
      <trkpt lat="47.8324" lon="9.66378">
        <ele>471.229984</ele>
        <time>2022-09-13T23:47:09.717Z</time>
      </trkpt>
      <trkpt lat="47.83234" lon="9.6635">
        <ele>471.201035</ele>
        <time>2022-09-13T23:47:14.960Z</time>
      </trkpt>
      <trkpt lat="47.83313" lon="9.6628">
        <ele>471.056605</ele>
        <time>2022-09-13T23:47:40.617Z</time>
      </trkpt>
      <trkpt lat="47.83227" lon="9.66071">
        <ele>470.056825</ele>
        <time>2022-09-13T23:48:22.174Z</time>
      </trkpt>
      <trkpt lat="47.83167" lon="9.65985">
        <ele>469.334375</ele>
        <time>2022-09-13T23:48:42.057Z</time>
      </trkpt>
      <trkpt lat="47.83154" lon="9.65957">
        <ele>469.130016</ele>
        <time>2022-09-13T23:48:47.199Z</time>
      </trkpt>
      <trkpt lat="47.83154" lon="9.65884">
        <ele>468.67969</ele>
        <time>2022-09-13T23:48:58.728Z</time>
      </trkpt>
      <trkpt lat="47.83165" lon="9.65818">
        <ele>468.278633</ele>
        <time>2022-09-13T23:49:09.608Z</time>
      </trkpt>
      <trkpt lat="47.83231" lon="9.65679">
        <ele>467.543748</ele>
        <time>2022-09-13T23:49:37.501Z</time>
      </trkpt>
      <trkpt lat="47.83274" lon="9.65566">
        <ele>466.999605</ele>
        <time>2022-09-13T23:49:58.543Z</time>
      </trkpt>
      <trkpt lat="47.83278" lon="9.65552">
        <ele>466.942955</ele>
        <time>2022-09-13T23:50:00.824Z</time>
      </trkpt>
      <trkpt lat="47.83276" lon="9.65547">
        <ele>466.924009</ele>
        <time>2022-09-13T23:50:01.588Z</time>
      </trkpt>
      <trkpt lat="47.83304" lon="9.65409">
        <ele>466.365751</ele>
        <time>2022-09-13T23:50:24.944Z</time>
      </trkpt>
      <trkpt lat="47.83309" lon="9.65395">
        <ele>466.304289</ele>
        <time>2022-09-13T23:50:27.548Z</time>
      </trkpt>
      <trkpt lat="47.8333" lon="9.65381">
        <ele>466.171625</ele>
        <time>2022-09-13T23:50:33.393Z</time>
      </trkpt>
      <trkpt lat="47.83335" lon="9.65354">
        <ele>466.096109</ele>
        <time>2022-09-13T23:50:38.257Z</time>
      </trkpt>
      <trkpt lat="47.83336" lon="9.65339">
        <ele>466.0668</ele>
        <time>2022-09-13T23:50:40.959Z</time>
      </trkpt>
      <trkpt lat="47.83313" lon="9.6534">
        <ele>465.999981</ele>
        <time>2022-09-13T23:50:47.282Z</time>
      </trkpt>
      <trkpt lat="47.83288" lon="9.65332">
        <ele>465.928834</ele>
        <time>2022-09-13T23:50:53.913Z</time>
      </trkpt>
      <trkpt lat="47.8318" lon="9.65296">
        <ele>465.603418</ele>
        <time>2022-09-13T23:51:22.341Z</time>
      </trkpt>
      <trkpt lat="47.8308" lon="9.65246">
        <ele>464.721098</ele>
        <time>2022-09-13T23:51:47.528Z</time>
      </trkpt>
      <trkpt lat="47.83033" lon="9.65241">
        <ele>464.328001</ele>
        <time>2022-09-13T23:51:58.128Z</time>
      </trkpt>
      <trkpt lat="47.82979" lon="9.65226">
        <ele>463.871211</ele>
        <time>2022-09-13T23:52:10.786Z</time>
      </trkpt>
      <trkpt lat="47.82916" lon="9.65188">
        <ele>463.329617</ele>
        <time>2022-09-13T23:52:26.505Z</time>
      </trkpt>
      <trkpt lat="47.82891" lon="9.65172">
        <ele>463.112621</ele>
        <time>2022-09-13T23:52:33.044Z</time>
      </trkpt>
      <trkpt lat="47.8289" lon="9.65177">
        <ele>463.083323</ele>
        <time>2022-09-13T23:52:34.011Z</time>
      </trkpt>
      <trkpt lat="47.82884" lon="9.65173">
        <ele>463.035045</ele>
        <time>2022-09-13T23:52:35.523Z</time>
      </trkpt>
      <trkpt lat="47.82838" lon="9.65154">
        <ele>462.656414</ele>
        <time>2022-09-13T23:52:47.517Z</time>
      </trkpt>
      <trkpt lat="47.82811" lon="9.65155">
        <ele>462.507856</ele>
        <time>2022-09-13T23:52:54.106Z</time>
      </trkpt>
      <trkpt lat="47.82771" lon="9.65176">
        <ele>462.271841</ele>
        <time>2022-09-13T23:53:04.708Z</time>
      </trkpt>
      <trkpt lat="47.82748" lon="9.6518">
        <ele>462.139127</ele>
        <time>2022-09-13T23:53:10.701Z</time>
      </trkpt>
      <trkpt lat="47.8274" lon="9.65179">
        <ele>462.094301</ele>
        <time>2022-09-13T23:53:12.694Z</time>
      </trkpt>
      <trkpt lat="47.8273" lon="9.65176">
        <ele>462.038572</ele>
        <time>2022-09-13T23:53:15.155Z</time>
      </trkpt>
      <trkpt lat="47.827" lon="9.65151">
        <ele>461.848269</ele>
        <time>2022-09-13T23:53:23.341Z</time>
      </trkpt>
      <trkpt lat="47.82661" lon="9.65132">
        <ele>461.566024</ele>
        <time>2022-09-13T23:53:33.033Z</time>
      </trkpt>
      <trkpt lat="47.82626" lon="9.65131">
        <ele>461.170445</ele>
        <time>2022-09-13T23:53:41.363Z</time>
      </trkpt>
      <trkpt lat="47.82606" lon="9.65115">
        <ele>460.919691</ele>
        <time>2022-09-13T23:53:46.507Z</time>
      </trkpt>
      <trkpt lat="47.82595" lon="9.65099">
        <ele>460.746692</ele>
        <time>2022-09-13T23:53:50.071Z</time>
      </trkpt>
      <trkpt lat="47.82592" lon="9.65095">
        <ele>460.70083</ele>
        <time>2022-09-13T23:53:51.002Z</time>
      </trkpt>
      <trkpt lat="47.82587" lon="9.65087">
        <ele>460.61128</ele>
        <time>2022-09-13T23:53:52.729Z</time>
      </trkpt>
      <trkpt lat="47.82565" lon="9.65052">
        <ele>460.250627</ele>
        <time>2022-09-13T23:53:59.803Z</time>
      </trkpt>
      <trkpt lat="47.82563" lon="9.6505">
        <ele>460.230893</ele>
        <time>2022-09-13T23:54:00.176Z</time>
      </trkpt>
      <trkpt lat="47.82556" lon="9.65033">
        <ele>460.076318</ele>
        <time>2022-09-13T23:54:03.208Z</time>
      </trkpt>
      <trkpt lat="47.82553" lon="9.65019">
        <ele>459.961886</ele>
        <time>2022-09-13T23:54:05.534Z</time>
      </trkpt>
      <trkpt lat="47.82549" lon="9.65002">
        <ele>459.827758</ele>
        <time>2022-09-13T23:54:08.151Z</time>
      </trkpt>
      <trkpt lat="47.82545" lon="9.64984">
        <ele>459.68672</ele>
        <time>2022-09-13T23:54:10.973Z</time>
      </trkpt>
      <trkpt lat="47.82543" lon="9.64974">
        <ele>459.600674</ele>
        <time>2022-09-13T23:54:12.736Z</time>
      </trkpt>
      <trkpt lat="47.82539" lon="9.64958">
        <ele>459.470019</ele>
        <time>2022-09-13T23:54:15.316Z</time>
      </trkpt>
      <trkpt lat="47.82532" lon="9.64943">
        <ele>459.326547</ele>
        <time>2022-09-13T23:54:18.035Z</time>
      </trkpt>
      <trkpt lat="47.82526" lon="9.6493">
        <ele>459.202339</ele>
        <time>2022-09-13T23:54:20.519Z</time>
      </trkpt>
      <trkpt lat="47.82516" lon="9.64917">
        <ele>459.049335</ele>
        <time>2022-09-13T23:54:23.572Z</time>
      </trkpt>
      <trkpt lat="47.82481" lon="9.64876">
        <ele>458.53352</ele>
        <time>2022-09-13T23:54:33.577Z</time>
      </trkpt>
      <trkpt lat="47.82454" lon="9.64844">
        <ele>458.12893</ele>
        <time>2022-09-13T23:54:41.535Z</time>
      </trkpt>
      <trkpt lat="47.82426" lon="9.64817">
        <ele>457.743371</ele>
        <time>2022-09-13T23:54:49.084Z</time>
      </trkpt>
      <trkpt lat="47.8241" lon="9.64798">
        <ele>457.519593</ele>
        <time>2022-09-13T23:54:53.597Z</time>
      </trkpt>
      <trkpt lat="47.82408" lon="9.64787">
        <ele>457.455061</ele>
        <time>2022-09-13T23:54:55.415Z</time>
      </trkpt>
      <trkpt lat="47.824" lon="9.64779">
        <ele>457.37668</ele>
        <time>2022-09-13T23:54:57.527Z</time>
      </trkpt>
      <trkpt lat="47.8239" lon="9.64781">
        <ele>457.29381</ele>
        <time>2022-09-13T23:54:59.794Z</time>
      </trkpt>
      <trkpt lat="47.8237" lon="9.64769">
        <ele>457.112899</ele>
        <time>2022-09-13T23:55:05.078Z</time>
      </trkpt>
      <trkpt lat="47.82364" lon="9.64753">
        <ele>457.012083</ele>
        <time>2022-09-13T23:55:07.819Z</time>
      </trkpt>
      <trkpt lat="47.82325" lon="9.64709">
        <ele>456.60421</ele>
        <time>2022-09-13T23:55:19.830Z</time>
      </trkpt>
      <trkpt lat="47.82268" lon="9.64629">
        <ele>455.990107</ele>
        <time>2022-09-13T23:55:38.287Z</time>
      </trkpt>
      <trkpt lat="47.82231" lon="9.64581">
        <ele>455.723043</ele>
        <time>2022-09-13T23:55:50.230Z</time>
      </trkpt>
      <trkpt lat="47.82097" lon="9.64446">
        <ele>454.79767</ele>
        <time>2022-09-13T23:56:30.486Z</time>
      </trkpt>
      <trkpt lat="47.82088" lon="9.64426">
        <ele>454.697108</ele>
        <time>2022-09-13T23:56:34.393Z</time>
      </trkpt>
      <trkpt lat="47.82078" lon="9.64416">
        <ele>454.615687</ele>
        <time>2022-09-13T23:56:37.364Z</time>
      </trkpt>
      <trkpt lat="47.82069" lon="9.64409">
        <ele>454.550719</ele>
        <time>2022-09-13T23:56:39.852Z</time>
      </trkpt>
      <trkpt lat="47.82059" lon="9.64416">
        <ele>454.477364</ele>
        <time>2022-09-13T23:56:42.660Z</time>
      </trkpt>
      <trkpt lat="47.81893" lon="9.64273">
        <ele>453.148903</ele>
        <time>2022-09-13T23:57:28.240Z</time>
      </trkpt>
      <trkpt lat="47.81797" lon="9.64182">
        <ele>452.547852</ele>
        <time>2022-09-13T23:57:55.330Z</time>
      </trkpt>
      <trkpt lat="47.81774" lon="9.64147">
        <ele>452.505186</ele>
        <time>2022-09-13T23:58:03.679Z</time>
      </trkpt>
      <trkpt lat="47.81769" lon="9.64148">
        <ele>452.498935</ele>
        <time>2022-09-13T23:58:04.929Z</time>
      </trkpt>
      <trkpt lat="47.81757" lon="9.64144">
        <ele>452.483627</ele>
        <time>2022-09-13T23:58:07.999Z</time>
      </trkpt>
      <trkpt lat="47.81748" lon="9.64134">
        <ele>452.469172</ele>
        <time>2022-09-13T23:58:10.983Z</time>
      </trkpt>
      <trkpt lat="47.81731" lon="9.64123">
        <ele>452.444992</ele>
        <time>2022-09-13T23:58:16.035Z</time>
      </trkpt>
      <trkpt lat="47.81726" lon="9.64115">
        <ele>452.435608</ele>
        <time>2022-09-13T23:58:18.007Z</time>
      </trkpt>
      <trkpt lat="47.81703" lon="9.64106">
        <ele>452.404872</ele>
        <time>2022-09-13T23:58:24.660Z</time>
      </trkpt>
      <trkpt lat="47.81561" lon="9.63983">
        <ele>452.928672</ele>
        <time>2022-09-13T23:59:12.495Z</time>
      </trkpt>
      <trkpt lat="47.81546" lon="9.63951">
        <ele>453.036295</ele>
        <time>2022-09-13T23:59:20.046Z</time>
      </trkpt>
      <trkpt lat="47.81539" lon="9.6395">
        <ele>453.067385</ele>
        <time>2022-09-13T23:59:22.316Z</time>
      </trkpt>
      <trkpt lat="47.81528" lon="9.6395">
        <ele>453.11117</ele>
        <time>2022-09-13T23:59:24.899Z</time>
      </trkpt>
      <trkpt lat="47.81471" lon="9.63905">
        <ele>453.297809</ele>
        <time>2022-09-13T23:59:43.105Z</time>
      </trkpt>
      <trkpt lat="47.81289" lon="9.63742">
        <ele>454.53945</ele>
        <time>2022-09-14T00:00:42.361Z</time>
      </trkpt>
      <trkpt lat="47.81285" lon="9.63731">
        <ele>454.623326</ele>
        <time>2022-09-14T00:00:45.124Z</time>
      </trkpt>
      <trkpt lat="47.81281" lon="9.63732">
        <ele>454.654982</ele>
        <time>2022-09-14T00:00:46.263Z</time>
      </trkpt>
      <trkpt lat="47.81268" lon="9.63723">
        <ele>454.795426</ele>
        <time>2022-09-14T00:00:51.197Z</time>
      </trkpt>
      <trkpt lat="47.81258" lon="9.63718">
        <ele>454.889588</ele>
        <time>2022-09-14T00:00:54.528Z</time>
      </trkpt>
      <trkpt lat="47.81256" lon="9.63716">
        <ele>454.91757</ele>
        <time>2022-09-14T00:00:55.506Z</time>
      </trkpt>
      <trkpt lat="47.8125" lon="9.6371">
        <ele>454.981014</ele>
        <time>2022-09-14T00:00:57.751Z</time>
      </trkpt>
      <trkpt lat="47.81163" lon="9.63689">
        <ele>456.459225</ele>
        <time>2022-09-14T00:01:29.980Z</time>
      </trkpt>
      <trkpt lat="47.81087" lon="9.6369">
        <ele>458.136721</ele>
        <time>2022-09-14T00:01:59.090Z</time>
      </trkpt>
      <trkpt lat="47.81059" lon="9.63691">
        <ele>458.755564</ele>
        <time>2022-09-14T00:02:09.658Z</time>
      </trkpt>
      <trkpt lat="47.80941" lon="9.63697">
        <ele>460.692347</ele>
        <time>2022-09-14T00:02:53.132Z</time>
      </trkpt>
      <trkpt lat="47.80931" lon="9.63698">
        <ele>460.830053</ele>
        <time>2022-09-14T00:02:56.312Z</time>
      </trkpt>
      <trkpt lat="47.80922" lon="9.63699">
        <ele>460.968887</ele>
        <time>2022-09-14T00:02:59.523Z</time>
      </trkpt>
      <trkpt lat="47.80904" lon="9.637">
        <ele>461.230012</ele>
        <time>2022-09-14T00:03:05.411Z</time>
      </trkpt>
      <trkpt lat="47.80896" lon="9.637">
        <ele>461.346399</ele>
        <time>2022-09-14T00:03:07.794Z</time>
      </trkpt>
      <trkpt lat="47.80819" lon="9.63704">
        <ele>461.839652</ele>
        <time>2022-09-14T00:03:30.216Z</time>
      </trkpt>
      <trkpt lat="47.80795" lon="9.63705">
        <ele>461.754349</ele>
        <time>2022-09-14T00:03:36.572Z</time>
      </trkpt>
      <trkpt lat="47.80785" lon="9.63703">
        <ele>461.719595</ele>
        <time>2022-09-14T00:03:38.995Z</time>
      </trkpt>
      <trkpt lat="47.8074" lon="9.63703">
        <ele>461.555548</ele>
        <time>2022-09-14T00:03:50.362Z</time>
      </trkpt>
      <trkpt lat="47.80693" lon="9.63696">
        <ele>461.386954</ele>
        <time>2022-09-14T00:04:01.601Z</time>
      </trkpt>
      <trkpt lat="47.80673" lon="9.63692">
        <ele>461.297351</ele>
        <time>2022-09-14T00:04:06.154Z</time>
      </trkpt>
      <trkpt lat="47.80657" lon="9.63689">
        <ele>461.085062</ele>
        <time>2022-09-14T00:04:09.834Z</time>
      </trkpt>
      <trkpt lat="47.80641" lon="9.63687">
        <ele>460.872062</ele>
        <time>2022-09-14T00:04:13.441Z</time>
      </trkpt>
      <trkpt lat="47.80476" lon="9.63662">
        <ele>458.68299</ele>
        <time>2022-09-14T00:04:50.245Z</time>
      </trkpt>
      <trkpt lat="47.8045" lon="9.63649">
        <ele>458.305763</ele>
        <time>2022-09-14T00:04:56.445Z</time>
      </trkpt>
      <trkpt lat="47.80415" lon="9.63645">
        <ele>457.803916</ele>
        <time>2022-09-14T00:05:04.629Z</time>
      </trkpt>
      <trkpt lat="47.80399" lon="9.63641">
        <ele>457.574833</ele>
        <time>2022-09-14T00:05:08.268Z</time>
      </trkpt>
      <trkpt lat="47.80375" lon="9.63621">
        <ele>457.190052</ele>
        <time>2022-09-14T00:05:14.337Z</time>
      </trkpt>
      <trkpt lat="47.80362" lon="9.63596">
        <ele>456.894058</ele>
        <time>2022-09-14T00:05:19.033Z</time>
      </trkpt>
      <trkpt lat="47.80334" lon="9.63502">
        <ele>455.706301</ele>
        <time>2022-09-14T00:05:33.726Z</time>
      </trkpt>
      <trkpt lat="47.80319" lon="9.63464">
        <ele>455.118458</ele>
        <time>2022-09-14T00:05:39.937Z</time>
      </trkpt>
      <trkpt lat="47.80297" lon="9.63435">
        <ele>454.525107</ele>
        <time>2022-09-14T00:05:46.259Z</time>
      </trkpt>
      <trkpt lat="47.80278" lon="9.6342">
        <ele>454.103146</ele>
        <time>2022-09-14T00:05:50.781Z</time>
      </trkpt>
      <trkpt lat="47.80222" lon="9.63383">
        <ele>452.884148</ele>
        <time>2022-09-14T00:06:03.390Z</time>
      </trkpt>
      <trkpt lat="47.80201" lon="9.6336">
        <ele>452.772279</ele>
        <time>2022-09-14T00:06:08.752Z</time>
      </trkpt>
      <trkpt lat="47.80182" lon="9.63332">
        <ele>452.686061</ele>
        <time>2022-09-14T00:06:14.548Z</time>
      </trkpt>
      <trkpt lat="47.80141" lon="9.63248">
        <ele>452.462134</ele>
        <time>2022-09-14T00:06:31.161Z</time>
      </trkpt>
      <trkpt lat="47.80108" lon="9.63203">
        <ele>452.319827</ele>
        <time>2022-09-14T00:06:45.686Z</time>
      </trkpt>
      <trkpt lat="47.80093" lon="9.63182">
        <ele>452.398896</ele>
        <time>2022-09-14T00:06:53.279Z</time>
      </trkpt>
      <trkpt lat="47.80053" lon="9.63156">
        <ele>453.256818</ele>
        <time>2022-09-14T00:07:09.467Z</time>
      </trkpt>
      <trkpt lat="47.80027" lon="9.63152">
        <ele>453.780294</ele>
        <time>2022-09-14T00:07:20.142Z</time>
      </trkpt>
      <trkpt lat="47.79963" lon="9.6312">
        <ele>455.109499</ele>
        <time>2022-09-14T00:07:46.254Z</time>
      </trkpt>
      <trkpt lat="47.79897" lon="9.63047">
        <ele>455.093354</ele>
        <time>2022-09-14T00:08:13.935Z</time>
      </trkpt>
      <trkpt lat="47.79795" lon="9.62887">
        <ele>452.396288</ele>
        <time>2022-09-14T00:08:43.964Z</time>
      </trkpt>
      <trkpt lat="47.79708" lon="9.62747">
        <ele>447.480431</ele>
        <time>2022-09-14T00:09:07.404Z</time>
      </trkpt>
      <trkpt lat="47.79627" lon="9.62597">
        <ele>444.692261</ele>
        <time>2022-09-14T00:09:33.529Z</time>
      </trkpt>
      <trkpt lat="47.79621" lon="9.62577">
        <ele>444.477499</ele>
        <time>2022-09-14T00:09:36.810Z</time>
      </trkpt>
      <trkpt lat="47.79612" lon="9.62574">
        <ele>444.341266</ele>
        <time>2022-09-14T00:09:39.369Z</time>
      </trkpt>
      <trkpt lat="47.796" lon="9.62574">
        <ele>444.162922</ele>
        <time>2022-09-14T00:09:42.814Z</time>
      </trkpt>
      <trkpt lat="47.79591" lon="9.62563">
        <ele>443.988156</ele>
        <time>2022-09-14T00:09:45.785Z</time>
      </trkpt>
      <trkpt lat="47.79583" lon="9.62555">
        <ele>443.853901</ele>
        <time>2022-09-14T00:09:48.291Z</time>
      </trkpt>
      <trkpt lat="47.79578" lon="9.62549">
        <ele>443.76479</ele>
        <time>2022-09-14T00:09:50.076Z</time>
      </trkpt>
      <trkpt lat="47.79562" lon="9.62532">
        <ele>443.472688</ele>
        <time>2022-09-14T00:09:55.515Z</time>
      </trkpt>
      <trkpt lat="47.79555" lon="9.62522">
        <ele>443.448279</ele>
        <time>2022-09-14T00:09:58.502Z</time>
      </trkpt>
      <trkpt lat="47.79496" lon="9.62481">
        <ele>443.899828</ele>
        <time>2022-09-14T00:10:17.565Z</time>
      </trkpt>
      <trkpt lat="47.7934" lon="9.62395">
        <ele>444.91891</ele>
        <time>2022-09-14T00:11:08.858Z</time>
      </trkpt>
      <trkpt lat="47.7932" lon="9.62379">
        <ele>445.022824</ele>
        <time>2022-09-14T00:11:14.907Z</time>
      </trkpt>
      <trkpt lat="47.79305" lon="9.62357">
        <ele>445.120154</ele>
        <time>2022-09-14T00:11:21.175Z</time>
      </trkpt>
      <trkpt lat="47.79292" lon="9.62346">
        <ele>445.18601</ele>
        <time>2022-09-14T00:11:24.985Z</time>
      </trkpt>
      <trkpt lat="47.79284" lon="9.62343">
        <ele>445.22367</ele>
        <time>2022-09-14T00:11:27.793Z</time>
      </trkpt>
      <trkpt lat="47.79255" lon="9.62301">
        <ele>445.408303</ele>
        <time>2022-09-14T00:11:39.102Z</time>
      </trkpt>
      <trkpt lat="47.79163" lon="9.62207">
        <ele>444.721507</ele>
        <time>2022-09-14T00:12:09.373Z</time>
      </trkpt>
      <trkpt lat="47.79133" lon="9.6218">
        <ele>444.44224</ele>
        <time>2022-09-14T00:12:17.289Z</time>
      </trkpt>
      <trkpt lat="47.79072" lon="9.62119">
        <ele>443.468388</ele>
        <time>2022-09-14T00:12:32.816Z</time>
      </trkpt>
      <trkpt lat="47.79068" lon="9.62117">
        <ele>443.377471</ele>
        <time>2022-09-14T00:12:33.694Z</time>
      </trkpt>
      <trkpt lat="47.79067" lon="9.62104">
        <ele>443.18247</ele>
        <time>2022-09-14T00:12:35.373Z</time>
      </trkpt>
      <trkpt lat="47.79069" lon="9.62076">
        <ele>442.738553</ele>
        <time>2022-09-14T00:12:39.207Z</time>
      </trkpt>
      <trkpt lat="47.79031" lon="9.61966">
        <ele>440.778643</ele>
        <time>2022-09-14T00:12:57.115Z</time>
      </trkpt>
      <trkpt lat="47.78989" lon="9.61881">
        <ele>439.326131</ele>
        <time>2022-09-14T00:13:11.178Z</time>
      </trkpt>
      <trkpt lat="47.78981" lon="9.61864">
        <ele>439.086477</ele>
        <time>2022-09-14T00:13:14.177Z</time>
      </trkpt>
      <trkpt lat="47.78946" lon="9.61796">
        <ele>438.132289</ele>
        <time>2022-09-14T00:13:26.699Z</time>
      </trkpt>
      <trkpt lat="47.7893" lon="9.61757">
        <ele>437.609051</ele>
        <time>2022-09-14T00:13:34.076Z</time>
      </trkpt>
      <trkpt lat="47.78924" lon="9.61736">
        <ele>437.360592</ele>
        <time>2022-09-14T00:13:37.445Z</time>
      </trkpt>
      <trkpt lat="47.78916" lon="9.61716">
        <ele>437.094139</ele>
        <time>2022-09-14T00:13:41.142Z</time>
      </trkpt>
      <trkpt lat="47.78847" lon="9.61599">
        <ele>435.967393</ele>
        <time>2022-09-14T00:14:04.702Z</time>
      </trkpt>
      <trkpt lat="47.78843" lon="9.61586">
        <ele>435.879686</ele>
        <time>2022-09-14T00:14:06.799Z</time>
      </trkpt>
      <trkpt lat="47.78846" lon="9.61514">
        <ele>435.410901</ele>
        <time>2022-09-14T00:14:18.295Z</time>
      </trkpt>
      <trkpt lat="47.78847" lon="9.61499">
        <ele>435.31436</ele>
        <time>2022-09-14T00:14:20.728Z</time>
      </trkpt>
      <trkpt lat="47.78847" lon="9.61486">
        <ele>435.225759</ele>
        <time>2022-09-14T00:14:22.957Z</time>
      </trkpt>
      <trkpt lat="47.7882" lon="9.61367">
        <ele>435.094862</ele>
        <time>2022-09-14T00:14:43.456Z</time>
      </trkpt>
      <trkpt lat="47.78807" lon="9.61333">
        <ele>435.097946</ele>
        <time>2022-09-14T00:14:49.962Z</time>
      </trkpt>
      <trkpt lat="47.78799" lon="9.61311">
        <ele>435.099948</ele>
        <time>2022-09-14T00:14:54.521Z</time>
      </trkpt>
      <trkpt lat="47.78796" lon="9.61303">
        <ele>435.100679</ele>
        <time>2022-09-14T00:14:56.232Z</time>
      </trkpt>
      <trkpt lat="47.78791" lon="9.6129">
        <ele>435.101875</ele>
        <time>2022-09-14T00:14:58.997Z</time>
      </trkpt>
      <trkpt lat="47.78789" lon="9.61284">
        <ele>435.102433</ele>
        <time>2022-09-14T00:15:00.386Z</time>
      </trkpt>
      <trkpt lat="47.7875" lon="9.61183">
        <ele>435.389199</ele>
        <time>2022-09-14T00:15:24.634Z</time>
      </trkpt>
      <trkpt lat="47.78739" lon="9.61158">
        <ele>435.568558</ele>
        <time>2022-09-14T00:15:31.286Z</time>
      </trkpt>
      <trkpt lat="47.78726" lon="9.61144">
        <ele>435.713229</ele>
        <time>2022-09-14T00:15:36.518Z</time>
      </trkpt>
      <trkpt lat="47.7868" lon="9.61115">
        <ele>436.152226</ele>
        <time>2022-09-14T00:15:52.647Z</time>
      </trkpt>
      <trkpt lat="47.78632" lon="9.61089">
        <ele>436.604775</ele>
        <time>2022-09-14T00:16:08.025Z</time>
      </trkpt>
      <trkpt lat="47.78575" lon="9.61056">
        <ele>436.650908</ele>
        <time>2022-09-14T00:16:25.622Z</time>
      </trkpt>
      <trkpt lat="47.78567" lon="9.61047">
        <ele>436.640689</ele>
        <time>2022-09-14T00:16:28.305Z</time>
      </trkpt>
      <trkpt lat="47.78555" lon="9.6105">
        <ele>436.629211</ele>
        <time>2022-09-14T00:16:31.366Z</time>
      </trkpt>
      <trkpt lat="47.78547" lon="9.61048">
        <ele>436.621107</ele>
        <time>2022-09-14T00:16:33.583Z</time>
      </trkpt>
      <trkpt lat="47.78546" lon="9.61036">
        <ele>436.612756</ele>
        <time>2022-09-14T00:16:35.600Z</time>
      </trkpt>
      <trkpt lat="47.7854" lon="9.61019">
        <ele>436.599923</ele>
        <time>2022-09-14T00:16:38.708Z</time>
      </trkpt>
      <trkpt lat="47.78525" lon="9.6093">
        <ele>436.538373</ele>
        <time>2022-09-14T00:16:55.082Z</time>
      </trkpt>
      <trkpt lat="47.78512" lon="9.60834">
        <ele>436.310904</ele>
        <time>2022-09-14T00:17:11.676Z</time>
      </trkpt>
      <trkpt lat="47.78507" lon="9.60805">
        <ele>436.224094</ele>
        <time>2022-09-14T00:17:16.366Z</time>
      </trkpt>
      <trkpt lat="47.78498" lon="9.60798">
        <ele>436.179919</ele>
        <time>2022-09-14T00:17:18.869Z</time>
      </trkpt>
      <trkpt lat="47.78476" lon="9.60783">
        <ele>436.076315</ele>
        <time>2022-09-14T00:17:24.695Z</time>
      </trkpt>
      <trkpt lat="47.78476" lon="9.60791">
        <ele>436.052525</ele>
        <time>2022-09-14T00:17:26.102Z</time>
      </trkpt>
      <trkpt lat="47.78397" lon="9.60742">
        <ele>435.74979</ele>
        <time>2022-09-14T00:17:48.797Z</time>
      </trkpt>
      <trkpt lat="47.78372" lon="9.6073">
        <ele>435.757894</ele>
        <time>2022-09-14T00:17:56.640Z</time>
      </trkpt>
      <trkpt lat="47.78353" lon="9.60723">
        <ele>435.763932</ele>
        <time>2022-09-14T00:18:02.664Z</time>
      </trkpt>
      <trkpt lat="47.78327" lon="9.60712">
        <ele>435.772428</ele>
        <time>2022-09-14T00:18:10.846Z</time>
      </trkpt>
      <trkpt lat="47.78286" lon="9.60695">
        <ele>435.785562</ele>
        <time>2022-09-14T00:18:22.410Z</time>
      </trkpt>
      <trkpt lat="47.78248" lon="9.6068">
        <ele>435.7978</ele>
        <time>2022-09-14T00:18:32.157Z</time>
      </trkpt>
      <trkpt lat="47.78239" lon="9.6068">
        <ele>435.800553</ele>
        <time>2022-09-14T00:18:34.281Z</time>
      </trkpt>
      <trkpt lat="47.78223" lon="9.60681">
        <ele>435.648284</ele>
        <time>2022-09-14T00:18:38.107Z</time>
      </trkpt>
      <trkpt lat="47.78206" lon="9.60678">
        <ele>435.446035</ele>
        <time>2022-09-14T00:18:43.010Z</time>
      </trkpt>
      <trkpt lat="47.7817" lon="9.60659">
        <ele>435.01682</ele>
        <time>2022-09-14T00:18:52.976Z</time>
      </trkpt>
      <trkpt lat="47.78176" lon="9.60638">
        <ele>434.838656</ele>
        <time>2022-09-14T00:18:56.460Z</time>
      </trkpt>
      <trkpt lat="47.78184" lon="9.60618">
        <ele>434.661199</ele>
        <time>2022-09-14T00:19:00.144Z</time>
      </trkpt>
      <trkpt lat="47.78205" lon="9.60561">
        <ele>434.174167</ele>
        <time>2022-09-14T00:19:09.899Z</time>
      </trkpt>
      <trkpt lat="47.78207" lon="9.60547">
        <ele>434.0583</ele>
        <time>2022-09-14T00:19:12.103Z</time>
      </trkpt>
      <trkpt lat="47.78209" lon="9.60534">
        <ele>433.955498</ele>
        <time>2022-09-14T00:19:14.152Z</time>
      </trkpt>
      <trkpt lat="47.78249" lon="9.60413">
        <ele>432.553005</ele>
        <time>2022-09-14T00:19:33.554Z</time>
      </trkpt>
      <trkpt lat="47.78261" lon="9.60383">
        <ele>432.155506</ele>
        <time>2022-09-14T00:19:38.640Z</time>
      </trkpt>
      <trkpt lat="47.78267" lon="9.60356">
        <ele>431.839011</ele>
        <time>2022-09-14T00:19:42.706Z</time>
      </trkpt>
      <trkpt lat="47.78263" lon="9.60302">
        <ele>431.228232</ele>
        <time>2022-09-14T00:19:50.735Z</time>
      </trkpt>
      <trkpt lat="47.78253" lon="9.60248">
        <ele>430.580108</ele>
        <time>2022-09-14T00:19:59.004Z</time>
      </trkpt>
      <trkpt lat="47.78254" lon="9.60219">
        <ele>430.208693</ele>
        <time>2022-09-14T00:20:03.246Z</time>
      </trkpt>
      <trkpt lat="47.78257" lon="9.602">
        <ele>429.953709</ele>
        <time>2022-09-14T00:20:06.175Z</time>
      </trkpt>
      <trkpt lat="47.78257" lon="9.60196">
        <ele>429.910141</ele>
        <time>2022-09-14T00:20:06.693Z</time>
      </trkpt>
      <trkpt lat="47.78265" lon="9.60153">
        <ele>429.329253</ele>
        <time>2022-09-14T00:20:13.242Z</time>
      </trkpt>
      <trkpt lat="47.78275" lon="9.60094">
        <ele>428.552118</ele>
        <time>2022-09-14T00:20:21.598Z</time>
      </trkpt>
      <trkpt lat="47.78276" lon="9.60048">
        <ele>427.961729</ele>
        <time>2022-09-14T00:20:27.836Z</time>
      </trkpt>
      <trkpt lat="47.78271" lon="9.60003">
        <ele>427.372658</ele>
        <time>2022-09-14T00:20:34.138Z</time>
      </trkpt>
      <trkpt lat="47.78269" lon="9.59979">
        <ele>427.508028</ele>
        <time>2022-09-14T00:20:45.717Z</time>
      </trkpt>
      <trkpt lat="47.78268" lon="9.59955">
        <ele>427.696441</ele>
        <time>2022-09-14T00:20:49.110Z</time>
      </trkpt>
      <trkpt lat="47.78262" lon="9.59932">
        <ele>427.896445</ele>
        <time>2022-09-14T00:20:53.217Z</time>
      </trkpt>
      <trkpt lat="47.78246" lon="9.59907">
        <ele>428.16748</ele>
        <time>2022-09-14T00:20:59.067Z</time>
      </trkpt>
      <trkpt lat="47.78228" lon="9.5984">
        <ele>428.738878</ele>
        <time>2022-09-14T00:21:15.082Z</time>
      </trkpt>
      <trkpt lat="47.78224" lon="9.59804">
        <ele>429.029616</ele>
        <time>2022-09-14T00:21:24.358Z</time>
      </trkpt>
      <trkpt lat="47.78211" lon="9.59774">
        <ele>429.318641</ele>
        <time>2022-09-14T00:21:34.761Z</time>
      </trkpt>
      <trkpt lat="47.78206" lon="9.59768">
        <ele>429.398423</ele>
        <time>2022-09-14T00:21:37.959Z</time>
      </trkpt>
      <trkpt lat="47.78156" lon="9.59639">
        <ele>435.831009</ele>
        <time>2022-09-14T00:22:31.214Z</time>
      </trkpt>
      <trkpt lat="47.78124" lon="9.59534">
        <ele>441.068757</ele>
        <time>2022-09-14T00:23:24.020Z</time>
      </trkpt>
      <trkpt lat="47.78107" lon="9.5944">
        <ele>445.77292</ele>
        <time>2022-09-14T00:24:09.621Z</time>
      </trkpt>
      <trkpt lat="47.781" lon="9.59353">
        <ele>449.993797</ele>
        <time>2022-09-14T00:24:46.768Z</time>
      </trkpt>
      <trkpt lat="47.78097" lon="9.59299">
        <ele>452.614839</ele>
        <time>2022-09-14T00:25:06.906Z</time>
      </trkpt>
      <trkpt lat="47.78103" lon="9.59279">
        <ele>453.686342</ele>
        <time>2022-09-14T00:25:14.500Z</time>
      </trkpt>
      <trkpt lat="47.78141" lon="9.59231">
        <ele>455.779029</ele>
        <time>2022-09-14T00:25:39.922Z</time>
      </trkpt>
      <trkpt lat="47.78144" lon="9.59221">
        <ele>456.023827</ele>
        <time>2022-09-14T00:25:43.926Z</time>
      </trkpt>
      <trkpt lat="47.78123" lon="9.59158">
        <ele>457.538427</ele>
        <time>2022-09-14T00:26:05.272Z</time>
      </trkpt>
      <trkpt lat="47.78098" lon="9.59057">
        <ele>459.90779</ele>
        <time>2022-09-14T00:26:32.171Z</time>
      </trkpt>
      <trkpt lat="47.7809" lon="9.59025">
        <ele>460.485002</ele>
        <time>2022-09-14T00:26:39.433Z</time>
      </trkpt>
      <trkpt lat="47.78071" lon="9.58929">
        <ele>460.876253</ele>
        <time>2022-09-14T00:26:59.965Z</time>
      </trkpt>
      <trkpt lat="47.7807" lon="9.58905">
        <ele>460.970367</ele>
        <time>2022-09-14T00:27:05.096Z</time>
      </trkpt>
      <trkpt lat="47.78071" lon="9.58891">
        <ele>461.022504</ele>
        <time>2022-09-14T00:27:07.755Z</time>
      </trkpt>
      <trkpt lat="47.78072" lon="9.58876">
        <ele>461.08336</ele>
        <time>2022-09-14T00:27:10.800Z</time>
      </trkpt>
      <trkpt lat="47.78072" lon="9.58853">
        <ele>461.171135</ele>
        <time>2022-09-14T00:27:15.477Z</time>
      </trkpt>
      <trkpt lat="47.78064" lon="9.58812">
        <ele>461.339058</ele>
        <time>2022-09-14T00:27:23.797Z</time>
      </trkpt>
      <trkpt lat="47.78054" lon="9.58776">
        <ele>461.492342</ele>
        <time>2022-09-14T00:27:30.806Z</time>
      </trkpt>
      <trkpt lat="47.78042" lon="9.58746">
        <ele>461.339234</ele>
        <time>2022-09-14T00:27:36.929Z</time>
      </trkpt>
      <trkpt lat="47.78018" lon="9.58708">
        <ele>461.107195</ele>
        <time>2022-09-14T00:27:45.528Z</time>
      </trkpt>
      <trkpt lat="47.78006" lon="9.58695">
        <ele>461.007042</ele>
        <time>2022-09-14T00:27:48.992Z</time>
      </trkpt>
      <trkpt lat="47.77987" lon="9.58711">
        <ele>460.857252</ele>
        <time>2022-09-14T00:27:54.328Z</time>
      </trkpt>
      <trkpt lat="47.77987" lon="9.58706">
        <ele>460.833037</ele>
        <time>2022-09-14T00:27:55.147Z</time>
      </trkpt>
      <trkpt lat="47.77977" lon="9.58697">
        <ele>460.756081</ele>
        <time>2022-09-14T00:27:57.709Z</time>
      </trkpt>
      <trkpt lat="47.77952" lon="9.5861">
        <ele>460.332648</ele>
        <time>2022-09-14T00:28:13.268Z</time>
      </trkpt>
      <trkpt lat="47.77951" lon="9.58604">
        <ele>460.300861</ele>
        <time>2022-09-14T00:28:14.387Z</time>
      </trkpt>
      <trkpt lat="47.77937" lon="9.58555">
        <ele>460.269694</ele>
        <time>2022-09-14T00:28:23.013Z</time>
      </trkpt>
      <trkpt lat="47.77914" lon="9.58475">
        <ele>460.229985</ele>
        <time>2022-09-14T00:28:37.133Z</time>
      </trkpt>
      <trkpt lat="47.77844" lon="9.5822">
        <ele>461.517462</ele>
        <time>2022-09-14T00:29:31.420Z</time>
      </trkpt>
      <trkpt lat="47.77839" lon="9.58218">
        <ele>461.592598</ele>
        <time>2022-09-14T00:29:33.288Z</time>
      </trkpt>
      <trkpt lat="47.77828" lon="9.58189">
        <ele>461.903647</ele>
        <time>2022-09-14T00:29:41.292Z</time>
      </trkpt>
      <trkpt lat="47.77817" lon="9.58151">
        <ele>462.280147</ele>
        <time>2022-09-14T00:29:51.433Z</time>
      </trkpt>
      <trkpt lat="47.77779" lon="9.57994">
        <ele>465.166835</ele>
        <time>2022-09-14T00:30:36.641Z</time>
      </trkpt>
      <trkpt lat="47.77767" lon="9.57944">
        <ele>466.217925</ele>
        <time>2022-09-14T00:30:51.925Z</time>
      </trkpt>
      <trkpt lat="47.77748" lon="9.57868">
        <ele>467.803387</ele>
        <time>2022-09-14T00:31:14.706Z</time>
      </trkpt>
      <trkpt lat="47.77725" lon="9.57768">
        <ele>468.926985</ele>
        <time>2022-09-14T00:31:43.091Z</time>
      </trkpt>
      <trkpt lat="47.7772" lon="9.57746">
        <ele>469.156509</ele>
        <time>2022-09-14T00:31:48.672Z</time>
      </trkpt>
      <trkpt lat="47.77728" lon="9.5774">
        <ele>469.298857</ele>
        <time>2022-09-14T00:31:52.125Z</time>
      </trkpt>
      <trkpt lat="47.77684" lon="9.57573">
        <ele>470.392798</ele>
        <time>2022-09-14T00:32:26.854Z</time>
      </trkpt>
      <trkpt lat="47.77622" lon="9.57353">
        <ele>469.472214</ele>
        <time>2022-09-14T00:33:04.092Z</time>
      </trkpt>
      <trkpt lat="47.77612" lon="9.57359">
        <ele>469.478849</ele>
        <time>2022-09-14T00:33:06.333Z</time>
      </trkpt>
      <trkpt lat="47.77583" lon="9.57237">
        <ele>469.53583</ele>
        <time>2022-09-14T00:33:27.570Z</time>
      </trkpt>
      <trkpt lat="47.77581" lon="9.57185">
        <ele>469.558551</ele>
        <time>2022-09-14T00:33:38.135Z</time>
      </trkpt>
      <trkpt lat="47.77559" lon="9.57181">
        <ele>469.572814</ele>
        <time>2022-09-14T00:33:45.143Z</time>
      </trkpt>
      <trkpt lat="47.77531" lon="9.57144">
        <ele>470.226005</ele>
        <time>2022-09-14T00:33:58.336Z</time>
      </trkpt>
      <trkpt lat="47.77492" lon="9.57041">
        <ele>472.307746</ele>
        <time>2022-09-14T00:34:30.703Z</time>
      </trkpt>
      <trkpt lat="47.77475" lon="9.57033">
        <ele>472.768564</ele>
        <time>2022-09-14T00:34:38.211Z</time>
      </trkpt>
      <trkpt lat="47.77429" lon="9.57055">
        <ele>474.014621</ele>
        <time>2022-09-14T00:34:58.360Z</time>
      </trkpt>
      <trkpt lat="47.77396" lon="9.57025">
        <ele>475.289699</ele>
        <time>2022-09-14T00:35:15.588Z</time>
      </trkpt>
      <trkpt lat="47.77387" lon="9.57017">
        <ele>475.651266</ele>
        <time>2022-09-14T00:35:20.192Z</time>
      </trkpt>
      <trkpt lat="47.77376" lon="9.57013">
        <ele>476.060554</ele>
        <time>2022-09-14T00:35:25.332Z</time>
      </trkpt>
      <trkpt lat="47.77388" lon="9.56977">
        <ele>477.022728</ele>
        <time>2022-09-14T00:35:37.518Z</time>
      </trkpt>
      <trkpt lat="47.77399" lon="9.56911">
        <ele>478.632906</ele>
        <time>2022-09-14T00:35:57.965Z</time>
      </trkpt>
      <trkpt lat="47.77402" lon="9.5687">
        <ele>479.605257</ele>
        <time>2022-09-14T00:36:10.371Z</time>
      </trkpt>
      <trkpt lat="47.77396" lon="9.56811">
        <ele>480.921757</ele>
        <time>2022-09-14T00:36:28.334Z</time>
      </trkpt>
      <trkpt lat="47.77383" lon="9.56723">
        <ele>482.6271</ele>
        <time>2022-09-14T00:36:53.496Z</time>
      </trkpt>
      <trkpt lat="47.77361" lon="9.56673">
        <ele>483.739254</ele>
        <time>2022-09-14T00:37:09.516Z</time>
      </trkpt>
      <trkpt lat="47.77336" lon="9.5661">
        <ele>485.108668</ele>
        <time>2022-09-14T00:37:29.011Z</time>
      </trkpt>
      <trkpt lat="47.77233" lon="9.56338">
        <ele>488.772239</ele>
        <time>2022-09-14T00:38:41.577Z</time>
      </trkpt>
      <trkpt lat="47.77229" lon="9.56319">
        <ele>488.908564</ele>
        <time>2022-09-14T00:38:46.514Z</time>
      </trkpt>
      <trkpt lat="47.77138" lon="9.56058">
        <ele>490.508866</ele>
        <time>2022-09-14T00:39:47.171Z</time>
      </trkpt>
      <trkpt lat="47.77115" lon="9.56007">
        <ele>490.552339</ele>
        <time>2022-09-14T00:39:58.165Z</time>
      </trkpt>
      <trkpt lat="47.77092" lon="9.55918">
        <ele>490.618859</ele>
        <time>2022-09-14T00:40:14.507Z</time>
      </trkpt>
      <trkpt lat="47.77032" lon="9.55747">
        <ele>491.126906</ele>
        <time>2022-09-14T00:40:48.296Z</time>
      </trkpt>
      <trkpt lat="47.77026" lon="9.55747">
        <ele>491.154557</ele>
        <time>2022-09-14T00:40:49.963Z</time>
      </trkpt>
      <trkpt lat="47.76989" lon="9.55644">
        <ele>491.575187</ele>
        <time>2022-09-14T00:41:15.183Z</time>
      </trkpt>
      <trkpt lat="47.76873" lon="9.55373">
        <ele>495.243924</ele>
        <time>2022-09-14T00:42:31.792Z</time>
      </trkpt>
      <trkpt lat="47.7686" lon="9.55358">
        <ele>495.486065</ele>
        <time>2022-09-14T00:42:37.590Z</time>
      </trkpt>
      <trkpt lat="47.76834" lon="9.55365">
        <ele>495.87959</ele>
        <time>2022-09-14T00:42:46.712Z</time>
      </trkpt>
      <trkpt lat="47.76824" lon="9.55333">
        <ele>496.231432</ele>
        <time>2022-09-14T00:42:55.102Z</time>
      </trkpt>
      <trkpt lat="47.76824" lon="9.55307">
        <ele>496.490775</ele>
        <time>2022-09-14T00:43:01.217Z</time>
      </trkpt>
      <trkpt lat="47.76814" lon="9.55263">
        <ele>496.950494</ele>
        <time>2022-09-14T00:43:11.767Z</time>
      </trkpt>
      <trkpt lat="47.76725" lon="9.55109">
        <ele>498.261118</ele>
        <time>2022-09-14T00:43:56.324Z</time>
      </trkpt>
      <trkpt lat="47.76503" lon="9.54725">
        <ele>500.321476</ele>
        <time>2022-09-14T00:45:39.289Z</time>
      </trkpt>
      <trkpt lat="47.76301" lon="9.54423">
        <ele>502.417541</ele>
        <time>2022-09-14T00:47:06.378Z</time>
      </trkpt>
      <trkpt lat="47.76264" lon="9.54353">
        <ele>502.750247</ele>
        <time>2022-09-14T00:47:25.330Z</time>
      </trkpt>
      <trkpt lat="47.76239" lon="9.54311">
        <ele>502.960749</ele>
        <time>2022-09-14T00:47:36.740Z</time>
      </trkpt>
      <trkpt lat="47.76227" lon="9.54279">
        <ele>503.101339</ele>
        <time>2022-09-14T00:47:44.138Z</time>
      </trkpt>
      <trkpt lat="47.76217" lon="9.5426">
        <ele>503.190006</ele>
        <time>2022-09-14T00:47:48.684Z</time>
      </trkpt>
      <trkpt lat="47.76156" lon="9.54157">
        <ele>502.898687</ele>
        <time>2022-09-14T00:48:11.726Z</time>
      </trkpt>
      <trkpt lat="47.76149" lon="9.54153">
        <ele>502.852218</ele>
        <time>2022-09-14T00:48:13.499Z</time>
      </trkpt>
      <trkpt lat="47.76141" lon="9.54158">
        <ele>502.802045</ele>
        <time>2022-09-14T00:48:15.443Z</time>
      </trkpt>
      <trkpt lat="47.76137" lon="9.5415">
        <ele>502.761755</ele>
        <time>2022-09-14T00:48:16.869Z</time>
      </trkpt>
      <trkpt lat="47.76133" lon="9.54141">
        <ele>502.71808</ele>
        <time>2022-09-14T00:48:18.507Z</time>
      </trkpt>
      <trkpt lat="47.76134" lon="9.54125">
        <ele>502.651831</ele>
        <time>2022-09-14T00:48:21.097Z</time>
      </trkpt>
      <trkpt lat="47.76101" lon="9.54076">
        <ele>502.36787</ele>
        <time>2022-09-14T00:48:31.751Z</time>
      </trkpt>
      <trkpt lat="47.76063" lon="9.54036">
        <ele>502.356604</ele>
        <time>2022-09-14T00:48:43.116Z</time>
      </trkpt>
      <trkpt lat="47.7603" lon="9.54007">
        <ele>502.575969</ele>
        <time>2022-09-14T00:48:52.989Z</time>
      </trkpt>
      <trkpt lat="47.76001" lon="9.53977">
        <ele>502.78347</ele>
        <time>2022-09-14T00:49:02.743Z</time>
      </trkpt>
      <trkpt lat="47.75994" lon="9.53969">
        <ele>502.836314</ele>
        <time>2022-09-14T00:49:05.476Z</time>
      </trkpt>
      <trkpt lat="47.75971" lon="9.53941">
        <ele>503.008743</ele>
        <time>2022-09-14T00:49:14.442Z</time>
      </trkpt>
      <trkpt lat="47.75941" lon="9.53852">
        <ele>503.784273</ele>
        <time>2022-09-14T00:49:38.994Z</time>
      </trkpt>
      <trkpt lat="47.75932" lon="9.53795">
        <ele>504.675933</ele>
        <time>2022-09-14T00:49:54.127Z</time>
      </trkpt>
      <trkpt lat="47.75932" lon="9.53734">
        <ele>505.622599</ele>
        <time>2022-09-14T00:50:10.092Z</time>
      </trkpt>
      <trkpt lat="47.75932" lon="9.53658">
        <ele>506.794735</ele>
        <time>2022-09-14T00:50:29.553Z</time>
      </trkpt>
      <trkpt lat="47.75924" lon="9.53592">
        <ele>507.779838</ele>
        <time>2022-09-14T00:50:46.374Z</time>
      </trkpt>
      <trkpt lat="47.7589" lon="9.53401">
        <ele>510.42999</ele>
        <time>2022-09-14T00:51:35.990Z</time>
      </trkpt>
      <trkpt lat="47.75875" lon="9.53293">
        <ele>511.18066</ele>
        <time>2022-09-14T00:52:00.281Z</time>
      </trkpt>
      <trkpt lat="47.75863" lon="9.53196">
        <ele>511.440417</ele>
        <time>2022-09-14T00:52:19.684Z</time>
      </trkpt>
      <trkpt lat="47.75857" lon="9.53152">
        <ele>511.557132</ele>
        <time>2022-09-14T00:52:27.658Z</time>
      </trkpt>
      <trkpt lat="47.75836" lon="9.52995">
        <ele>510.805433</ele>
        <time>2022-09-14T00:52:53.029Z</time>
      </trkpt>
      <trkpt lat="47.75825" lon="9.52913">
        <ele>510.088171</ele>
        <time>2022-09-14T00:53:05.073Z</time>
      </trkpt>
      <trkpt lat="47.75813" lon="9.52819">
        <ele>509.315338</ele>
        <time>2022-09-14T00:53:19.080Z</time>
      </trkpt>
      <trkpt lat="47.75798" lon="9.52708">
        <ele>508.706677</ele>
        <time>2022-09-14T00:53:36.578Z</time>
      </trkpt>
      <trkpt lat="47.75779" lon="9.52589">
        <ele>508.053361</ele>
        <time>2022-09-14T00:53:56.978Z</time>
      </trkpt>
      <trkpt lat="47.75725" lon="9.52371">
        <ele>507.640246</ele>
        <time>2022-09-14T00:54:37.858Z</time>
      </trkpt>
      <trkpt lat="47.75698" lon="9.52309">
        <ele>507.473187</ele>
        <time>2022-09-14T00:54:50.273Z</time>
      </trkpt>
      <trkpt lat="47.7567" lon="9.52253">
        <ele>507.191966</ele>
        <time>2022-09-14T00:55:01.505Z</time>
      </trkpt>
      <trkpt lat="47.75583" lon="9.5211">
        <ele>506.492797</ele>
        <time>2022-09-14T00:55:32.192Z</time>
      </trkpt>
      <trkpt lat="47.75515" lon="9.51982">
        <ele>506.581953</ele>
        <time>2022-09-14T00:56:03.474Z</time>
      </trkpt>
      <trkpt lat="47.75447" lon="9.51856">
        <ele>506.448793</ele>
        <time>2022-09-14T00:56:33.160Z</time>
      </trkpt>
      <trkpt lat="47.75408" lon="9.51773">
        <ele>506.203169</ele>
        <time>2022-09-14T00:56:50.360Z</time>
      </trkpt>
      <trkpt lat="47.75317" lon="9.51581">
        <ele>505.76381</ele>
        <time>2022-09-14T00:57:27.794Z</time>
      </trkpt>
      <trkpt lat="47.75288" lon="9.51529">
        <ele>505.661299</ele>
        <time>2022-09-14T00:57:39.546Z</time>
      </trkpt>
      <trkpt lat="47.75211" lon="9.51412">
        <ele>506.056388</ele>
        <time>2022-09-14T00:58:13.423Z</time>
      </trkpt>
      <trkpt lat="47.75196" lon="9.51393">
        <ele>506.188536</ele>
        <time>2022-09-14T00:58:19.695Z</time>
      </trkpt>
      <trkpt lat="47.75175" lon="9.51369">
        <ele>506.365654</ele>
        <time>2022-09-14T00:58:27.754Z</time>
      </trkpt>
      <trkpt lat="47.75102" lon="9.51286">
        <ele>506.700831</ele>
        <time>2022-09-14T00:58:54.492Z</time>
      </trkpt>
      <trkpt lat="47.75059" lon="9.51243">
        <ele>506.570292</ele>
        <time>2022-09-14T00:59:08.360Z</time>
      </trkpt>
      <trkpt lat="47.75032" lon="9.51217">
        <ele>506.490954</ele>
        <time>2022-09-14T00:59:16.730Z</time>
      </trkpt>
      <trkpt lat="47.74953" lon="9.5113">
        <ele>505.937455</ele>
        <time>2022-09-14T00:59:39.957Z</time>
      </trkpt>
      <trkpt lat="47.74904" lon="9.51056">
        <ele>505.097291</ele>
        <time>2022-09-14T00:59:55.765Z</time>
      </trkpt>
      <trkpt lat="47.74866" lon="9.50993">
        <ele>504.420378</ele>
        <time>2022-09-14T01:00:08.227Z</time>
      </trkpt>
      <trkpt lat="47.74824" lon="9.50911">
        <ele>503.71859</ele>
        <time>2022-09-14T01:00:23.600Z</time>
      </trkpt>
      <trkpt lat="47.74823" lon="9.50907">
        <ele>503.687192</ele>
        <time>2022-09-14T01:00:24.341Z</time>
      </trkpt>
      <trkpt lat="47.74792" lon="9.50834">
        <ele>503.146496</ele>
        <time>2022-09-14T01:00:37.853Z</time>
      </trkpt>
      <trkpt lat="47.74764" lon="9.50749">
        <ele>502.547273</ele>
        <time>2022-09-14T01:00:53.311Z</time>
      </trkpt>
      <trkpt lat="47.74752" lon="9.5071">
        <ele>502.275789</ele>
        <time>2022-09-14T01:01:00.375Z</time>
      </trkpt>
      <trkpt lat="47.74743" lon="9.50697">
        <ele>502.159658</ele>
        <time>2022-09-14T01:01:03.410Z</time>
      </trkpt>
      <trkpt lat="47.74741" lon="9.50672">
        <ele>501.99672</ele>
        <time>2022-09-14T01:01:07.782Z</time>
      </trkpt>
      <trkpt lat="47.74723" lon="9.50585">
        <ele>501.417523</ele>
        <time>2022-09-14T01:01:22.780Z</time>
      </trkpt>
      <trkpt lat="47.74695" lon="9.50411">
        <ele>499.529349</ele>
        <time>2022-09-14T01:01:49.002Z</time>
      </trkpt>
      <trkpt lat="47.7467" lon="9.5012">
        <ele>495.588406</ele>
        <time>2022-09-14T01:02:28.746Z</time>
      </trkpt>
      <trkpt lat="47.74651" lon="9.50041">
        <ele>494.821037</ele>
        <time>2022-09-14T01:02:41.476Z</time>
      </trkpt>
      <trkpt lat="47.74595" lon="9.49915">
        <ele>494.423165</ele>
        <time>2022-09-14T01:03:09.238Z</time>
      </trkpt>
      <trkpt lat="47.74579" lon="9.49856">
        <ele>494.701069</ele>
        <time>2022-09-14T01:03:22.935Z</time>
      </trkpt>
      <trkpt lat="47.74577" lon="9.49711">
        <ele>495.354626</ele>
        <time>2022-09-14T01:03:53.081Z</time>
      </trkpt>
      <trkpt lat="47.74566" lon="9.49653">
        <ele>495.698234</ele>
        <time>2022-09-14T01:04:04.866Z</time>
      </trkpt>
      <trkpt lat="47.74572" lon="9.49611">
        <ele>495.947328</ele>
        <time>2022-09-14T01:04:13.263Z</time>
      </trkpt>
      <trkpt lat="47.74569" lon="9.49545">
        <ele>496.324596</ele>
        <time>2022-09-14T01:04:26.573Z</time>
      </trkpt>
      <trkpt lat="47.74562" lon="9.49514">
        <ele>496.517516</ele>
        <time>2022-09-14T01:04:33.205Z</time>
      </trkpt>
      <trkpt lat="47.74539" lon="9.4949">
        <ele>496.759802</ele>
        <time>2022-09-14T01:04:42.381Z</time>
      </trkpt>
      <trkpt lat="47.74534" lon="9.49478">
        <ele>496.868735</ele>
        <time>2022-09-14T01:04:45.260Z</time>
      </trkpt>
      <trkpt lat="47.7444" lon="9.49073">
        <ele>501.018422</ele>
        <time>2022-09-14T01:06:33.250Z</time>
      </trkpt>
      <trkpt lat="47.74388" lon="9.48878">
        <ele>499.107711</ele>
        <time>2022-09-14T01:07:06.913Z</time>
      </trkpt>
      <trkpt lat="47.74285" lon="9.48649">
        <ele>491.865803</ele>
        <time>2022-09-14T01:07:42.346Z</time>
      </trkpt>
      <trkpt lat="47.7428" lon="9.48638">
        <ele>491.479737</ele>
        <time>2022-09-14T01:07:43.934Z</time>
      </trkpt>
      <trkpt lat="47.74227" lon="9.48527">
        <ele>487.24093</ele>
        <time>2022-09-14T01:08:00.796Z</time>
      </trkpt>
      <trkpt lat="47.74184" lon="9.48441">
        <ele>484.753976</ele>
        <time>2022-09-14T01:08:14.782Z</time>
      </trkpt>
      <trkpt lat="47.74158" lon="9.48371">
        <ele>482.902856</ele>
        <time>2022-09-14T01:08:25.384Z</time>
      </trkpt>
      <trkpt lat="47.74159" lon="9.48353">
        <ele>482.471131</ele>
        <time>2022-09-14T01:08:27.838Z</time>
      </trkpt>
      <trkpt lat="47.74135" lon="9.48334">
        <ele>481.533154</ele>
        <time>2022-09-14T01:08:33.378Z</time>
      </trkpt>
      <trkpt lat="47.74108" lon="9.483">
        <ele>480.240851</ele>
        <time>2022-09-14T01:08:40.355Z</time>
      </trkpt>
      <trkpt lat="47.74102" lon="9.48285">
        <ele>479.783236</ele>
        <time>2022-09-14T01:08:42.539Z</time>
      </trkpt>
      <trkpt lat="47.74107" lon="9.48282">
        <ele>479.590163</ele>
        <time>2022-09-14T01:08:43.461Z</time>
      </trkpt>
      <trkpt lat="47.74092" lon="9.48246">
        <ele>478.476632</ele>
        <time>2022-09-14T01:08:53.139Z</time>
      </trkpt>
      <trkpt lat="47.74063" lon="9.48156">
        <ele>475.832503</ele>
        <time>2022-09-14T01:09:16.141Z</time>
      </trkpt>
      <trkpt lat="47.7405" lon="9.4807">
        <ele>473.494656</ele>
        <time>2022-09-14T01:09:36.210Z</time>
      </trkpt>
      <trkpt lat="47.74045" lon="9.48031">
        <ele>472.423019</ele>
        <time>2022-09-14T01:09:45.297Z</time>
      </trkpt>
      <trkpt lat="47.74039" lon="9.48021">
        <ele>472.063875</ele>
        <time>2022-09-14T01:09:48.273Z</time>
      </trkpt>
      <trkpt lat="47.73923" lon="9.47754">
        <ele>464.308724</ele>
        <time>2022-09-14T01:11:01.802Z</time>
      </trkpt>
      <trkpt lat="47.73879" lon="9.47651">
        <ele>461.857329</ele>
        <time>2022-09-14T01:11:31.763Z</time>
      </trkpt>
      <trkpt lat="47.73863" lon="9.47572">
        <ele>460.840938</ele>
        <time>2022-09-14T01:11:52.756Z</time>
      </trkpt>
      <trkpt lat="47.73854" lon="9.47476">
        <ele>460.012617</ele>
        <time>2022-09-14T01:12:18.460Z</time>
      </trkpt>
      <trkpt lat="47.73853" lon="9.47396">
        <ele>459.329469</ele>
        <time>2022-09-14T01:12:40.416Z</time>
      </trkpt>
      <trkpt lat="47.73853" lon="9.47383">
        <ele>459.210652</ele>
        <time>2022-09-14T01:12:44.348Z</time>
      </trkpt>
      <trkpt lat="47.73852" lon="9.47352">
        <ele>458.991496</ele>
        <time>2022-09-14T01:12:53.046Z</time>
      </trkpt>
      <trkpt lat="47.73846" lon="9.47284">
        <ele>458.744677</ele>
        <time>2022-09-14T01:13:12.500Z</time>
      </trkpt>
      <trkpt lat="47.73825" lon="9.47223">
        <ele>458.492868</ele>
        <time>2022-09-14T01:13:32.451Z</time>
      </trkpt>
      <trkpt lat="47.73798" lon="9.47185">
        <ele>458.295043</ele>
        <time>2022-09-14T01:13:48.002Z</time>
      </trkpt>
      <trkpt lat="47.73778" lon="9.47161">
        <ele>458.153549</ele>
        <time>2022-09-14T01:13:58.996Z</time>
      </trkpt>
      <trkpt lat="47.73768" lon="9.4716">
        <ele>458.100567</ele>
        <time>2022-09-14T01:14:03.132Z</time>
      </trkpt>
      <trkpt lat="47.73753" lon="9.47145">
        <ele>457.979008</ele>
        <time>2022-09-14T01:14:10.593Z</time>
      </trkpt>
      <trkpt lat="47.73711" lon="9.47084">
        <ele>457.496523</ele>
        <time>2022-09-14T01:14:34.967Z</time>
      </trkpt>
      <trkpt lat="47.73629" lon="9.46959">
        <ele>456.529595</ele>
        <time>2022-09-14T01:15:02.448Z</time>
      </trkpt>
      <trkpt lat="47.73481" lon="9.46742">
        <ele>454.962403</ele>
        <time>2022-09-14T01:15:51.495Z</time>
      </trkpt>
      <trkpt lat="47.73436" lon="9.46668">
        <ele>454.645607</ele>
        <time>2022-09-14T01:16:08.365Z</time>
      </trkpt>
      <trkpt lat="47.73383" lon="9.46541">
        <ele>454.171977</ele>
        <time>2022-09-14T01:16:33.532Z</time>
      </trkpt>
      <trkpt lat="47.73381" lon="9.46501">
        <ele>454.043513</ele>
        <time>2022-09-14T01:16:40.372Z</time>
      </trkpt>
      <trkpt lat="47.73378" lon="9.46491">
        <ele>454.007252</ele>
        <time>2022-09-14T01:16:42.225Z</time>
      </trkpt>
      <trkpt lat="47.73355" lon="9.46479">
        <ele>453.893502</ele>
        <time>2022-09-14T01:16:48.288Z</time>
      </trkpt>
      <trkpt lat="47.73348" lon="9.46455">
        <ele>453.811685</ele>
        <time>2022-09-14T01:16:52.580Z</time>
      </trkpt>
      <trkpt lat="47.73342" lon="9.4645">
        <ele>453.779606</ele>
        <time>2022-09-14T01:16:54.236Z</time>
      </trkpt>
      <trkpt lat="47.7332" lon="9.46459">
        <ele>453.673828</ele>
        <time>2022-09-14T01:17:00.034Z</time>
      </trkpt>
      <trkpt lat="47.73314" lon="9.46465">
        <ele>453.641581</ele>
        <time>2022-09-14T01:17:01.724Z</time>
      </trkpt>
      <trkpt lat="47.73291" lon="9.46384">
        <ele>453.392462</ele>
        <time>2022-09-14T01:17:16.824Z</time>
      </trkpt>
      <trkpt lat="47.73158" lon="9.46088">
        <ele>453.347679</ele>
        <time>2022-09-14T01:18:18.390Z</time>
      </trkpt>
      <trkpt lat="47.73047" lon="9.45839">
        <ele>455.079046</ele>
        <time>2022-09-14T01:19:22.127Z</time>
      </trkpt>
      <trkpt lat="47.73032" lon="9.45798">
        <ele>455.466283</ele>
        <time>2022-09-14T01:19:32.028Z</time>
      </trkpt>
      <trkpt lat="47.73001" lon="9.45676">
        <ele>456.870252</ele>
        <time>2022-09-14T01:20:01.928Z</time>
      </trkpt>
      <trkpt lat="47.7299" lon="9.45598">
        <ele>458.072955</ele>
        <time>2022-09-14T01:20:22.329Z</time>
      </trkpt>
      <trkpt lat="47.72971" lon="9.45335">
        <ele>461.919417</ele>
        <time>2022-09-14T01:21:34.325Z</time>
      </trkpt>
      <trkpt lat="47.72956" lon="9.45184">
        <ele>463.993299</ele>
        <time>2022-09-14T01:22:11.090Z</time>
      </trkpt>
      <trkpt lat="47.72953" lon="9.45168">
        <ele>464.166859</ele>
        <time>2022-09-14T01:22:14.883Z</time>
      </trkpt>
      <trkpt lat="47.72888" lon="9.45036">
        <ele>465.824228</ele>
        <time>2022-09-14T01:22:51.967Z</time>
      </trkpt>
      <trkpt lat="47.72871" lon="9.44973">
        <ele>466.506534</ele>
        <time>2022-09-14T01:23:09.034Z</time>
      </trkpt>
      <trkpt lat="47.72871" lon="9.44944">
        <ele>466.644616</ele>
        <time>2022-09-14T01:23:16.569Z</time>
      </trkpt>
      <trkpt lat="47.72863" lon="9.44938">
        <ele>466.685346</ele>
        <time>2022-09-14T01:23:20.102Z</time>
      </trkpt>
      <trkpt lat="47.72832" lon="9.44883">
        <ele>466.886578</ele>
        <time>2022-09-14T01:23:35.442Z</time>
      </trkpt>
      <trkpt lat="47.72837" lon="9.44868">
        <ele>466.935489</ele>
        <time>2022-09-14T01:23:39.607Z</time>
      </trkpt>
      <trkpt lat="47.7285" lon="9.44866">
        <ele>466.987847</ele>
        <time>2022-09-14T01:23:43.697Z</time>
      </trkpt>
      <trkpt lat="47.72855" lon="9.44866">
        <ele>467.010659</ele>
        <time>2022-09-14T01:23:44.974Z</time>
      </trkpt>
      <trkpt lat="47.72847" lon="9.44853">
        <ele>467.060492</ele>
        <time>2022-09-14T01:23:47.766Z</time>
      </trkpt>
      <trkpt lat="47.72846" lon="9.44821">
        <ele>467.150574</ele>
        <time>2022-09-14T01:23:54.450Z</time>
      </trkpt>
      <trkpt lat="47.72837" lon="9.44825">
        <ele>467.189797</ele>
        <time>2022-09-14T01:23:56.350Z</time>
      </trkpt>
      <trkpt lat="47.72793" lon="9.4477">
        <ele>466.828446</ele>
        <time>2022-09-14T01:24:11.058Z</time>
      </trkpt>
      <trkpt lat="47.72779" lon="9.44752">
        <ele>466.413666</ele>
        <time>2022-09-14T01:24:14.472Z</time>
      </trkpt>
      <trkpt lat="47.7265" lon="9.44641">
        <ele>462.9371</ele>
        <time>2022-09-14T01:24:44.251Z</time>
      </trkpt>
      <trkpt lat="47.72587" lon="9.44573">
        <ele>461.661302</ele>
        <time>2022-09-14T01:25:00.555Z</time>
      </trkpt>
      <trkpt lat="47.72504" lon="9.44442">
        <ele>460.025374</ele>
        <time>2022-09-14T01:25:28.694Z</time>
      </trkpt>
      <trkpt lat="47.72449" lon="9.44329">
        <ele>459.649057</ele>
        <time>2022-09-14T01:25:51.778Z</time>
      </trkpt>
      <trkpt lat="47.72395" lon="9.44167">
        <ele>459.433271</ele>
        <time>2022-09-14T01:26:24.353Z</time>
      </trkpt>
      <trkpt lat="47.72379" lon="9.44101">
        <ele>459.445987</ele>
        <time>2022-09-14T01:26:37.489Z</time>
      </trkpt>
      <trkpt lat="47.72353" lon="9.44018">
        <ele>459.46241</ele>
        <time>2022-09-14T01:26:54.392Z</time>
      </trkpt>
      <trkpt lat="47.7223" lon="9.43729">
        <ele>458.410936</ele>
        <time>2022-09-14T01:27:52.053Z</time>
      </trkpt>
      <trkpt lat="47.72179" lon="9.43595">
        <ele>457.410878</ele>
        <time>2022-09-14T01:28:15.760Z</time>
      </trkpt>
      <trkpt lat="47.72107" lon="9.43416">
        <ele>455.992809</ele>
        <time>2022-09-14T01:28:47.442Z</time>
      </trkpt>
      <trkpt lat="47.72086" lon="9.43434">
        <ele>455.747651</ele>
        <time>2022-09-14T01:28:52.985Z</time>
      </trkpt>
      <trkpt lat="47.72046" lon="9.43334">
        <ele>454.961621</ele>
        <time>2022-09-14T01:29:11.896Z</time>
      </trkpt>
      <trkpt lat="47.72044" lon="9.43319">
        <ele>454.867662</ele>
        <time>2022-09-14T01:29:14.361Z</time>
      </trkpt>
      <trkpt lat="47.72033" lon="9.43293">
        <ele>454.665055</ele>
        <time>2022-09-14T01:29:19.334Z</time>
      </trkpt>
      <trkpt lat="47.71985" lon="9.43214">
        <ele>453.976898</ele>
        <time>2022-09-14T01:29:36.316Z</time>
      </trkpt>
      <trkpt lat="47.71973" lon="9.43178">
        <ele>453.717708</ele>
        <time>2022-09-14T01:29:42.472Z</time>
      </trkpt>
      <trkpt lat="47.71949" lon="9.4314">
        <ele>453.224548</ele>
        <time>2022-09-14T01:29:50.170Z</time>
      </trkpt>
      <trkpt lat="47.71939" lon="9.43126">
        <ele>452.925193</ele>
        <time>2022-09-14T01:29:53.216Z</time>
      </trkpt>
      <trkpt lat="47.71926" lon="9.43121">
        <ele>452.635088</ele>
        <time>2022-09-14T01:29:56.144Z</time>
      </trkpt>
      <trkpt lat="47.71911" lon="9.43099">
        <ele>452.189552</ele>
        <time>2022-09-14T01:30:00.519Z</time>
      </trkpt>
      <trkpt lat="47.71898" lon="9.4307">
        <ele>451.687695</ele>
        <time>2022-09-14T01:30:05.408Z</time>
      </trkpt>
      <trkpt lat="47.71863" lon="9.43028">
        <ele>450.721293</ele>
        <time>2022-09-14T01:30:14.700Z</time>
      </trkpt>
      <trkpt lat="47.7181" lon="9.42965">
        <ele>449.164388</ele>
        <time>2022-09-14T01:30:28.435Z</time>
      </trkpt>
      <trkpt lat="47.71721" lon="9.42795">
        <ele>445.209739</ele>
        <time>2022-09-14T01:30:57.468Z</time>
      </trkpt>
      <trkpt lat="47.71712" lon="9.42776">
        <ele>444.804115</ele>
        <time>2022-09-14T01:31:00.499Z</time>
      </trkpt>
      <trkpt lat="47.71703" lon="9.42754">
        <ele>444.370189</ele>
        <time>2022-09-14T01:31:04.001Z</time>
      </trkpt>
      <trkpt lat="47.71666" lon="9.42668">
        <ele>442.677106</ele>
        <time>2022-09-14T01:31:17.847Z</time>
      </trkpt>
      <trkpt lat="47.7166" lon="9.42661">
        <ele>442.486882</ele>
        <time>2022-09-14T01:31:19.291Z</time>
      </trkpt>
      <trkpt lat="47.71634" lon="9.4258">
        <ele>440.999332</ele>
        <time>2022-09-14T01:31:31.782Z</time>
      </trkpt>
      <trkpt lat="47.71602" lon="9.42436">
        <ele>439.35234</ele>
        <time>2022-09-14T01:31:53.502Z</time>
      </trkpt>
      <trkpt lat="47.71594" lon="9.42313">
        <ele>438.257</ele>
        <time>2022-09-14T01:32:12.918Z</time>
      </trkpt>
      <trkpt lat="47.71597" lon="9.42296">
        <ele>438.093154</ele>
        <time>2022-09-14T01:32:15.708Z</time>
      </trkpt>
      <trkpt lat="47.71588" lon="9.42222">
        <ele>437.85694</ele>
        <time>2022-09-14T01:32:27.685Z</time>
      </trkpt>
      <trkpt lat="47.7154" lon="9.41973">
        <ele>437.922547</ele>
        <time>2022-09-14T01:33:13.102Z</time>
      </trkpt>
      <trkpt lat="47.71531" lon="9.41908">
        <ele>438.487271</ele>
        <time>2022-09-14T01:33:27.246Z</time>
      </trkpt>
      <trkpt lat="47.71538" lon="9.41898">
        <ele>438.611276</ele>
        <time>2022-09-14T01:33:30.283Z</time>
      </trkpt>
      <trkpt lat="47.7153" lon="9.41751">
        <ele>439.940135</ele>
        <time>2022-09-14T01:34:05.753Z</time>
      </trkpt>
      <trkpt lat="47.7153" lon="9.4173">
        <ele>440.232292</ele>
        <time>2022-09-14T01:34:11.264Z</time>
      </trkpt>
      <trkpt lat="47.71533" lon="9.41666">
        <ele>441.119221</ele>
        <time>2022-09-14T01:34:28.900Z</time>
      </trkpt>
      <trkpt lat="47.71529" lon="9.41664">
        <ele>441.210349</ele>
        <time>2022-09-14T01:34:32.037Z</time>
      </trkpt>
      <trkpt lat="47.71556" lon="9.41449">
        <ele>443.727718</ele>
        <time>2022-09-14T01:35:24.163Z</time>
      </trkpt>
      <trkpt lat="47.7156" lon="9.41426">
        <ele>443.849066</ele>
        <time>2022-09-14T01:35:29.407Z</time>
      </trkpt>
      <trkpt lat="47.71565" lon="9.41374">
        <ele>444.118458</ele>
        <time>2022-09-14T01:35:40.550Z</time>
      </trkpt>
      <trkpt lat="47.71561" lon="9.41359">
        <ele>444.198756</ele>
        <time>2022-09-14T01:35:43.573Z</time>
      </trkpt>
      <trkpt lat="47.71577" lon="9.40981">
        <ele>444.807902</ele>
        <time>2022-09-14T01:36:51.822Z</time>
      </trkpt>
      <trkpt lat="47.71577" lon="9.40969">
        <ele>444.767899</ele>
        <time>2022-09-14T01:36:54.072Z</time>
      </trkpt>
      <trkpt lat="47.71577" lon="9.40961">
        <ele>444.711293</ele>
        <time>2022-09-14T01:36:55.590Z</time>
      </trkpt>
      <trkpt lat="47.71582" lon="9.40943">
        <ele>444.573154</ele>
        <time>2022-09-14T01:36:59.225Z</time>
      </trkpt>
      <trkpt lat="47.71589" lon="9.40872">
        <ele>444.054826</ele>
        <time>2022-09-14T01:37:11.644Z</time>
      </trkpt>
      <trkpt lat="47.71599" lon="9.40721">
        <ele>442.967928</ele>
        <time>2022-09-14T01:37:34.431Z</time>
      </trkpt>
      <trkpt lat="47.71611" lon="9.40565">
        <ele>440.041506</ele>
        <time>2022-09-14T01:37:55.374Z</time>
      </trkpt>
      <trkpt lat="47.71626" lon="9.40452">
        <ele>437.787155</ele>
        <time>2022-09-14T01:38:10.370Z</time>
      </trkpt>
      <trkpt lat="47.7166" lon="9.40277">
        <ele>435.438618</ele>
        <time>2022-09-14T01:38:35.138Z</time>
      </trkpt>
      <trkpt lat="47.71653" lon="9.40259">
        <ele>435.171731</ele>
        <time>2022-09-14T01:38:38.721Z</time>
      </trkpt>
      <trkpt lat="47.7164" lon="9.40251">
        <ele>434.9117</ele>
        <time>2022-09-14T01:38:41.658Z</time>
      </trkpt>
      <trkpt lat="47.71636" lon="9.4024">
        <ele>434.748952</ele>
        <time>2022-09-14T01:38:44.191Z</time>
      </trkpt>
      <trkpt lat="47.71641" lon="9.40224">
        <ele>434.525544</ele>
        <time>2022-09-14T01:38:47.734Z</time>
      </trkpt>
      <trkpt lat="47.71649" lon="9.40208">
        <ele>434.284488</ele>
        <time>2022-09-14T01:38:50.824Z</time>
      </trkpt>
      <trkpt lat="47.71671" lon="9.40213">
        <ele>434.28686</ele>
        <time>2022-09-14T01:38:57.427Z</time>
      </trkpt>
      <trkpt lat="47.71679" lon="9.40202">
        <ele>434.28816</ele>
        <time>2022-09-14T01:39:00.307Z</time>
      </trkpt>
      <trkpt lat="47.71733" lon="9.40019">
        <ele>434.302962</ele>
        <time>2022-09-14T01:39:39.143Z</time>
      </trkpt>
      <trkpt lat="47.71784" lon="9.39892">
        <ele>434.306435</ele>
        <time>2022-09-14T01:40:05.674Z</time>
      </trkpt>
      <trkpt lat="47.71759" lon="9.39867">
        <ele>434.307205</ele>
        <time>2022-09-14T01:40:13.778Z</time>
      </trkpt>
      <trkpt lat="47.71759" lon="9.39859">
        <ele>434.307349</ele>
        <time>2022-09-14T01:40:15.244Z</time>
      </trkpt>
      <trkpt lat="47.71773" lon="9.39831">
        <ele>434.307955</ele>
        <time>2022-09-14T01:40:21.730Z</time>
      </trkpt>
      <trkpt lat="47.71808" lon="9.39772">
        <ele>434.424921</ele>
        <time>2022-09-14T01:40:36.269Z</time>
      </trkpt>
      <trkpt lat="47.71842" lon="9.39718">
        <ele>434.710657</ele>
        <time>2022-09-14T01:40:50.561Z</time>
      </trkpt>
      <trkpt lat="47.71873" lon="9.39646">
        <ele>435.039531</ele>
        <time>2022-09-14T01:41:07.138Z</time>
      </trkpt>
      <trkpt lat="47.71909" lon="9.39542">
        <ele>435.625641</ele>
        <time>2022-09-14T01:41:32.086Z</time>
      </trkpt>
      <trkpt lat="47.71915" lon="9.39544">
        <ele>435.690882</ele>
        <time>2022-09-14T01:41:34.073Z</time>
      </trkpt>
      <trkpt lat="47.71916" lon="9.39526">
        <ele>435.826517</ele>
        <time>2022-09-14T01:41:37.894Z</time>
      </trkpt>
      <trkpt lat="47.71914" lon="9.39521">
        <ele>435.866142</ele>
        <time>2022-09-14T01:41:39.035Z</time>
      </trkpt>
      <trkpt lat="47.71929" lon="9.39494">
        <ele>436.120359</ele>
        <time>2022-09-14T01:41:46.481Z</time>
      </trkpt>
      <trkpt lat="47.71941" lon="9.3944">
        <ele>436.535231</ele>
        <time>2022-09-14T01:41:58.365Z</time>
      </trkpt>
      <trkpt lat="47.71949" lon="9.39401">
        <ele>436.826707</ele>
        <time>2022-09-14T01:42:06.980Z</time>
      </trkpt>
      <trkpt lat="47.71952" lon="9.39402">
        <ele>436.863014</ele>
        <time>2022-09-14T01:42:08.093Z</time>
      </trkpt>
      <trkpt lat="47.7197" lon="9.39246">
        <ele>438.622141</ele>
        <time>2022-09-14T01:42:43.823Z</time>
      </trkpt>
      <trkpt lat="47.71978" lon="9.39144">
        <ele>439.993484</ele>
        <time>2022-09-14T01:43:09.513Z</time>
      </trkpt>
      <trkpt lat="47.71979" lon="9.39136">
        <ele>440.107177</ele>
        <time>2022-09-14T01:43:11.601Z</time>
      </trkpt>
      <trkpt lat="47.71979" lon="9.39127">
        <ele>440.228216</ele>
        <time>2022-09-14T01:43:13.904Z</time>
      </trkpt>
      <trkpt lat="47.71981" lon="9.39116">
        <ele>440.368262</ele>
        <time>2022-09-14T01:43:16.442Z</time>
      </trkpt>
      <trkpt lat="47.7199" lon="9.39036">
        <ele>441.472556</ele>
        <time>2022-09-14T01:43:37.844Z</time>
      </trkpt>
      <trkpt lat="47.71991" lon="9.3903">
        <ele>441.568159</ele>
        <time>2022-09-14T01:43:39.847Z</time>
      </trkpt>
      <trkpt lat="47.72" lon="9.38989">
        <ele>442.166647</ele>
        <time>2022-09-14T01:43:52.353Z</time>
      </trkpt>
      <trkpt lat="47.72003" lon="9.38977">
        <ele>442.342098</ele>
        <time>2022-09-14T01:43:55.622Z</time>
      </trkpt>
      <trkpt lat="47.72005" lon="9.38971">
        <ele>442.428132</ele>
        <time>2022-09-14T01:43:57.237Z</time>
      </trkpt>
      <trkpt lat="47.72022" lon="9.38909">
        <ele>443.354953</ele>
        <time>2022-09-14T01:44:13.474Z</time>
      </trkpt>
      <trkpt lat="47.72034" lon="9.38914">
        <ele>443.609024</ele>
        <time>2022-09-14T01:44:17.990Z</time>
      </trkpt>
      <trkpt lat="47.72054" lon="9.38919">
        <ele>444.03032</ele>
        <time>2022-09-14T01:44:24.532Z</time>
      </trkpt>
      <trkpt lat="47.72061" lon="9.38921">
        <ele>444.172641</ele>
        <time>2022-09-14T01:44:26.795Z</time>
      </trkpt>
      <trkpt lat="47.72092" lon="9.38934">
        <ele>444.551532</ele>
        <time>2022-09-14T01:44:37.099Z</time>
      </trkpt>
      <trkpt lat="47.72102" lon="9.38942">
        <ele>444.562461</ele>
        <time>2022-09-14T01:44:40.948Z</time>
      </trkpt>
      <trkpt lat="47.72107" lon="9.38921">
        <ele>444.577408</ele>
        <time>2022-09-14T01:44:45.497Z</time>
      </trkpt>
      <trkpt lat="47.7211" lon="9.38892">
        <ele>444.596698</ele>
        <time>2022-09-14T01:44:51.347Z</time>
      </trkpt>
      <trkpt lat="47.72114" lon="9.38826">
        <ele>444.640139</ele>
        <time>2022-09-14T01:45:03.709Z</time>
      </trkpt>
      <trkpt lat="47.72114" lon="9.38818">
        <ele>444.645036</ele>
        <time>2022-09-14T01:45:05.043Z</time>
      </trkpt>
      <trkpt lat="47.72117" lon="9.38769">
        <ele>444.677434</ele>
        <time>2022-09-14T01:45:13.670Z</time>
      </trkpt>
      <trkpt lat="47.72118" lon="9.38746">
        <ele>444.69276</ele>
        <time>2022-09-14T01:45:17.442Z</time>
      </trkpt>
      <trkpt lat="47.72125" lon="9.38718">
        <ele>444.711925</ele>
        <time>2022-09-14T01:45:22.150Z</time>
      </trkpt>
      <trkpt lat="47.72138" lon="9.38682">
        <ele>444.452758</ele>
        <time>2022-09-14T01:45:27.956Z</time>
      </trkpt>
      <trkpt lat="47.72146" lon="9.38661">
        <ele>444.294915</ele>
        <time>2022-09-14T01:45:31.664Z</time>
      </trkpt>
      <trkpt lat="47.72176" lon="9.38595">
        <ele>443.772828</ele>
        <time>2022-09-14T01:45:44.128Z</time>
      </trkpt>
      <trkpt lat="47.72182" lon="9.38562">
        <ele>443.554347</ele>
        <time>2022-09-14T01:45:49.498Z</time>
      </trkpt>
      <trkpt lat="47.72181" lon="9.38529">
        <ele>443.341182</ele>
        <time>2022-09-14T01:45:54.771Z</time>
      </trkpt>
      <trkpt lat="47.72186" lon="9.3852">
        <ele>443.264484</ele>
        <time>2022-09-14T01:45:56.664Z</time>
      </trkpt>
      <trkpt lat="47.72183" lon="9.38507">
        <ele>443.17461</ele>
        <time>2022-09-14T01:45:58.825Z</time>
      </trkpt>
      <trkpt lat="47.72192" lon="9.38467">
        <ele>442.900054</ele>
        <time>2022-09-14T01:46:05.344Z</time>
      </trkpt>
      <trkpt lat="47.72196" lon="9.38437">
        <ele>442.689228</ele>
        <time>2022-09-14T01:46:10.157Z</time>
      </trkpt>
      <trkpt lat="47.72201" lon="9.38404">
        <ele>442.456813</ele>
        <time>2022-09-14T01:46:15.534Z</time>
      </trkpt>
      <trkpt lat="47.72204" lon="9.3839">
        <ele>442.353982</ele>
        <time>2022-09-14T01:46:17.905Z</time>
      </trkpt>
      <trkpt lat="47.72206" lon="9.38383">
        <ele>442.30531</ele>
        <time>2022-09-14T01:46:19.052Z</time>
      </trkpt>
      <trkpt lat="47.7221" lon="9.38363">
        <ele>442.161255</ele>
        <time>2022-09-14T01:46:22.422Z</time>
      </trkpt>
      <trkpt lat="47.7222" lon="9.38315">
        <ele>441.819947</ele>
        <time>2022-09-14T01:46:30.251Z</time>
      </trkpt>
      <trkpt lat="47.72221" lon="9.38309">
        <ele>441.775132</ele>
        <time>2022-09-14T01:46:31.228Z</time>
      </trkpt>
      <trkpt lat="47.72226" lon="9.38282">
        <ele>441.579232</ele>
        <time>2022-09-14T01:46:35.561Z</time>
      </trkpt>
      <trkpt lat="47.72232" lon="9.38248">
        <ele>441.342359</ele>
        <time>2022-09-14T01:46:40.868Z</time>
      </trkpt>
      <trkpt lat="47.72238" lon="9.38165">
        <ele>440.639145</ele>
        <time>2022-09-14T01:46:53.523Z</time>
      </trkpt>
      <trkpt lat="47.72232" lon="9.38147">
        <ele>440.448547</ele>
        <time>2022-09-14T01:46:56.588Z</time>
      </trkpt>
      <trkpt lat="47.7223" lon="9.3811">
        <ele>440.112377</ele>
        <time>2022-09-14T01:47:02.057Z</time>
      </trkpt>
      <trkpt lat="47.7222" lon="9.38071">
        <ele>439.719165</ele>
        <time>2022-09-14T01:47:08.233Z</time>
      </trkpt>
      <trkpt lat="47.72216" lon="9.38029">
        <ele>439.32974</ele>
        <time>2022-09-14T01:47:14.332Z</time>
      </trkpt>
      <trkpt lat="47.72225" lon="9.37978">
        <ele>438.84348</ele>
        <time>2022-09-14T01:47:22.131Z</time>
      </trkpt>
      <trkpt lat="47.72265" lon="9.37819">
        <ele>438.007909</ele>
        <time>2022-09-14T01:47:48.730Z</time>
      </trkpt>
      <trkpt lat="47.723" lon="9.37715">
        <ele>437.497847</ele>
        <time>2022-09-14T01:48:08.802Z</time>
      </trkpt>
      <trkpt lat="47.72321" lon="9.37634">
        <ele>437.547263</ele>
        <time>2022-09-14T01:48:24.657Z</time>
      </trkpt>
      <trkpt lat="47.72361" lon="9.37279">
        <ele>438.210115</ele>
        <time>2022-09-14T01:49:30.883Z</time>
      </trkpt>
      <trkpt lat="47.72374" lon="9.37225">
        <ele>438.389957</ele>
        <time>2022-09-14T01:49:42.706Z</time>
      </trkpt>
      <trkpt lat="47.72376" lon="9.37212">
        <ele>438.432413</ele>
        <time>2022-09-14T01:49:45.536Z</time>
      </trkpt>
      <trkpt lat="47.72383" lon="9.37182">
        <ele>438.675768</ele>
        <time>2022-09-14T01:49:52.189Z</time>
      </trkpt>
      <trkpt lat="47.72406" lon="9.371">
        <ele>439.857428</ele>
        <time>2022-09-14T01:50:13.024Z</time>
      </trkpt>
      <trkpt lat="47.72465" lon="9.37">
        <ele>441.632021</ele>
        <time>2022-09-14T01:50:48.322Z</time>
      </trkpt>
      <trkpt lat="47.72562" lon="9.36883">
        <ele>442.874535</ele>
        <time>2022-09-14T01:51:32.118Z</time>
      </trkpt>
      <trkpt lat="47.7259" lon="9.3685">
        <ele>443.158881</ele>
        <time>2022-09-14T01:51:42.051Z</time>
      </trkpt>
      <trkpt lat="47.72665" lon="9.36758">
        <ele>442.757272</ele>
        <time>2022-09-14T01:52:04.421Z</time>
      </trkpt>
      <trkpt lat="47.72714" lon="9.36685">
        <ele>441.8896</ele>
        <time>2022-09-14T01:52:18.872Z</time>
      </trkpt>
      <trkpt lat="47.72786" lon="9.36561">
        <ele>441.543853</ele>
        <time>2022-09-14T01:52:45.190Z</time>
      </trkpt>
      <trkpt lat="47.72856" lon="9.36388">
        <ele>442.294483</ele>
        <time>2022-09-14T01:53:29.575Z</time>
      </trkpt>
      <trkpt lat="47.72911" lon="9.36223">
        <ele>443.026799</ele>
        <time>2022-09-14T01:54:09.318Z</time>
      </trkpt>
      <trkpt lat="47.72922" lon="9.36125">
        <ele>442.902203</ele>
        <time>2022-09-14T01:54:25.881Z</time>
      </trkpt>
      <trkpt lat="47.72917" lon="9.35796">
        <ele>439.437786</ele>
        <time>2022-09-14T01:55:12.837Z</time>
      </trkpt>
      <trkpt lat="47.72975" lon="9.35452">
        <ele>436.834521</ele>
        <time>2022-09-14T01:56:06.131Z</time>
      </trkpt>
      <trkpt lat="47.72966" lon="9.3535">
        <ele>436.53067</ele>
        <time>2022-09-14T01:56:26.166Z</time>
      </trkpt>
      <trkpt lat="47.72951" lon="9.35287">
        <ele>436.77988</ele>
        <time>2022-09-14T01:56:40.630Z</time>
      </trkpt>
      <trkpt lat="47.72937" lon="9.35218">
        <ele>437.049115</ele>
        <time>2022-09-14T01:56:55.514Z</time>
      </trkpt>
      <trkpt lat="47.72936" lon="9.35209">
        <ele>437.081616</ele>
        <time>2022-09-14T01:56:57.138Z</time>
      </trkpt>
      <trkpt lat="47.7294" lon="9.35184">
        <ele>437.179133</ele>
        <time>2022-09-14T01:57:02.302Z</time>
      </trkpt>
      <trkpt lat="47.72911" lon="9.35142">
        <ele>437.402358</ele>
        <time>2022-09-14T01:57:13.710Z</time>
      </trkpt>
      <trkpt lat="47.72927" lon="9.35075">
        <ele>437.238016</ele>
        <time>2022-09-14T01:57:26.836Z</time>
      </trkpt>
      <trkpt lat="47.72955" lon="9.34986">
        <ele>436.86676</ele>
        <time>2022-09-14T01:57:43.674Z</time>
      </trkpt>
      <trkpt lat="47.72967" lon="9.3493">
        <ele>436.647803</ele>
        <time>2022-09-14T01:57:52.597Z</time>
      </trkpt>
      <trkpt lat="47.72969" lon="9.34923">
        <ele>436.619474</ele>
        <time>2022-09-14T01:57:53.741Z</time>
      </trkpt>
      <trkpt lat="47.72983" lon="9.34876">
        <ele>436.407568</ele>
        <time>2022-09-14T01:58:01.522Z</time>
      </trkpt>
      <trkpt lat="47.72985" lon="9.34874">
        <ele>436.383129</ele>
        <time>2022-09-14T01:58:02.050Z</time>
      </trkpt>
      <trkpt lat="47.72992" lon="9.34871">
        <ele>436.304988</ele>
        <time>2022-09-14T01:58:05.101Z</time>
      </trkpt>
      <trkpt lat="47.73004" lon="9.34877">
        <ele>436.174995</ele>
        <time>2022-09-14T01:58:08.028Z</time>
      </trkpt>
      <trkpt lat="47.73013" lon="9.34874">
        <ele>436.081901</ele>
        <time>2022-09-14T01:58:10.139Z</time>
      </trkpt>
      <trkpt lat="47.73041" lon="9.34847">
        <ele>435.742289</ele>
        <time>2022-09-14T01:58:17.807Z</time>
      </trkpt>
      <trkpt lat="47.73021" lon="9.34806">
        <ele>435.388171</ele>
        <time>2022-09-14T01:58:26.049Z</time>
      </trkpt>
      <trkpt lat="47.73038" lon="9.34786">
        <ele>435.165614</ele>
        <time>2022-09-14T01:58:31.110Z</time>
      </trkpt>
      <trkpt lat="47.73069" lon="9.34743">
        <ele>434.734428</ele>
        <time>2022-09-14T01:58:40.999Z</time>
      </trkpt>
      <trkpt lat="47.73065" lon="9.34723">
        <ele>434.605519</ele>
        <time>2022-09-14T01:58:44.369Z</time>
      </trkpt>
      <trkpt lat="47.73059" lon="9.34704">
        <ele>434.53107</ele>
        <time>2022-09-14T01:58:47.653Z</time>
      </trkpt>
      <trkpt lat="47.73046" lon="9.34689">
        <ele>434.443748</ele>
        <time>2022-09-14T01:58:51.571Z</time>
      </trkpt>
      <trkpt lat="47.73036" lon="9.34678">
        <ele>434.382085</ele>
        <time>2022-09-14T01:58:54.305Z</time>
      </trkpt>
      <trkpt lat="47.73018" lon="9.34653">
        <ele>434.250185</ele>
        <time>2022-09-14T01:59:00.513Z</time>
      </trkpt>
      <trkpt lat="47.73016" lon="9.34637">
        <ele>434.19375</ele>
        <time>2022-09-14T01:59:03.162Z</time>
      </trkpt>
      <trkpt lat="47.73013" lon="9.3463">
        <ele>434.16383</ele>
        <time>2022-09-14T01:59:04.657Z</time>
      </trkpt>
      <trkpt lat="47.73018" lon="9.34616">
        <ele>434.106342</ele>
        <time>2022-09-14T01:59:07.516Z</time>
      </trkpt>
      <trkpt lat="47.73052" lon="9.34537">
        <ele>433.776922</ele>
        <time>2022-09-14T01:59:22.780Z</time>
      </trkpt>
      <trkpt lat="47.73058" lon="9.34525">
        <ele>433.722739</ele>
        <time>2022-09-14T01:59:25.415Z</time>
      </trkpt>
      <trkpt lat="47.73088" lon="9.3448">
        <ele>433.551718</ele>
        <time>2022-09-14T01:59:36.854Z</time>
      </trkpt>
      <trkpt lat="47.73094" lon="9.34473">
        <ele>433.522954</ele>
        <time>2022-09-14T01:59:38.799Z</time>
      </trkpt>
      <trkpt lat="47.73157" lon="9.34396">
        <ele>433.213434</ele>
        <time>2022-09-14T02:00:00.516Z</time>
      </trkpt>
      <trkpt lat="47.73179" lon="9.34384">
        <ele>433.126386</ele>
        <time>2022-09-14T02:00:06.279Z</time>
      </trkpt>
      <trkpt lat="47.73205" lon="9.34392">
        <ele>433.024733</ele>
        <time>2022-09-14T02:00:12.683Z</time>
      </trkpt>
      <trkpt lat="47.73212" lon="9.34357">
        <ele>432.654593</ele>
        <time>2022-09-14T02:00:18.249Z</time>
      </trkpt>
      <trkpt lat="47.73228" lon="9.34332">
        <ele>432.217854</ele>
        <time>2022-09-14T02:00:23.671Z</time>
      </trkpt>
      <trkpt lat="47.73233" lon="9.34306">
        <ele>431.888994</ele>
        <time>2022-09-14T02:00:27.589Z</time>
      </trkpt>
      <trkpt lat="47.7323" lon="9.34295">
        <ele>431.739806</ele>
        <time>2022-09-14T02:00:29.401Z</time>
      </trkpt>
      <trkpt lat="47.73224" lon="9.34276">
        <ele>431.473117</ele>
        <time>2022-09-14T02:00:32.462Z</time>
      </trkpt>
      <trkpt lat="47.7322" lon="9.34268">
        <ele>431.352873</ele>
        <time>2022-09-14T02:00:33.820Z</time>
      </trkpt>
      <trkpt lat="47.73222" lon="9.34237">
        <ele>430.964309</ele>
        <time>2022-09-14T02:00:38.388Z</time>
      </trkpt>
      <trkpt lat="47.73269" lon="9.34157">
        <ele>429.645776</ele>
        <time>2022-09-14T02:00:52.713Z</time>
      </trkpt>
      <trkpt lat="47.73338" lon="9.34048">
        <ele>427.085249</ele>
        <time>2022-09-14T02:01:12.792Z</time>
      </trkpt>
      <trkpt lat="47.73351" lon="9.34027">
        <ele>426.603446</ele>
        <time>2022-09-14T02:01:16.628Z</time>
      </trkpt>
      <trkpt lat="47.73371" lon="9.33996">
        <ele>425.856372</ele>
        <time>2022-09-14T02:01:22.651Z</time>
      </trkpt>
      <trkpt lat="47.73399" lon="9.33951">
        <ele>425.030195</ele>
        <time>2022-09-14T02:01:31.187Z</time>
      </trkpt>
      <trkpt lat="47.7341" lon="9.3393">
        <ele>424.915625</ele>
        <time>2022-09-14T02:01:34.934Z</time>
      </trkpt>
      <trkpt lat="47.73458" lon="9.33891">
        <ele>424.559856</ele>
        <time>2022-09-14T02:01:47.292Z</time>
      </trkpt>
      <trkpt lat="47.73545" lon="9.33848">
        <ele>423.956167</ele>
        <time>2022-09-14T02:02:11.700Z</time>
      </trkpt>
      <trkpt lat="47.73637" lon="9.33802">
        <ele>424.612206</ele>
        <time>2022-09-14T02:02:42.362Z</time>
      </trkpt>
      <trkpt lat="47.73652" lon="9.33815">
        <ele>424.740984</ele>
        <time>2022-09-14T02:02:47.665Z</time>
      </trkpt>
      <trkpt lat="47.73695" lon="9.33887">
        <ele>425.213286</ele>
        <time>2022-09-14T02:03:07.324Z</time>
      </trkpt>
      <trkpt lat="47.73777" lon="9.33771">
        <ele>425.490518</ele>
        <time>2022-09-14T02:03:39.782Z</time>
      </trkpt>
      <trkpt lat="47.74011" lon="9.33501">
        <ele>425.37002</ele>
        <time>2022-09-14T02:04:56.366Z</time>
      </trkpt>
      <trkpt lat="47.74065" lon="9.33436">
        <ele>425.46171</ele>
        <time>2022-09-14T02:05:14.879Z</time>
      </trkpt>
      <trkpt lat="47.74138" lon="9.33313">
        <ele>425.72534</ele>
        <time>2022-09-14T02:05:46.536Z</time>
      </trkpt>
      <trkpt lat="47.74152" lon="9.333">
        <ele>425.791195</ele>
        <time>2022-09-14T02:05:51.432Z</time>
      </trkpt>
      <trkpt lat="47.74182" lon="9.33291">
        <ele>425.911849</ele>
        <time>2022-09-14T02:06:00.417Z</time>
      </trkpt>
      <trkpt lat="47.74257" lon="9.3314">
        <ele>426.21094</ele>
        <time>2022-09-14T02:06:36.687Z</time>
      </trkpt>
      <trkpt lat="47.74478" lon="9.32707">
        <ele>425.240292</ele>
        <time>2022-09-14T02:08:09.114Z</time>
      </trkpt>
      <trkpt lat="47.74521" lon="9.32616">
        <ele>424.912761</ele>
        <time>2022-09-14T02:08:27.304Z</time>
      </trkpt>
      <trkpt lat="47.74516" lon="9.32601">
        <ele>424.862941</ele>
        <time>2022-09-14T02:08:29.877Z</time>
      </trkpt>
      <trkpt lat="47.74519" lon="9.32574">
        <ele>424.782983</ele>
        <time>2022-09-14T02:08:34.576Z</time>
      </trkpt>
      <trkpt lat="47.74539" lon="9.32472">
        <ele>424.69189</ele>
        <time>2022-09-14T02:08:52.833Z</time>
      </trkpt>
      <trkpt lat="47.74522" lon="9.32372">
        <ele>424.773327</ele>
        <time>2022-09-14T02:09:11.176Z</time>
      </trkpt>
      <trkpt lat="47.74528" lon="9.32271">
        <ele>424.853135</ele>
        <time>2022-09-14T02:09:31.096Z</time>
      </trkpt>
      <trkpt lat="47.74527" lon="9.32262">
        <ele>424.880719</ele>
        <time>2022-09-14T02:09:32.820Z</time>
      </trkpt>
      <trkpt lat="47.74526" lon="9.32257">
        <ele>424.904928</ele>
        <time>2022-09-14T02:09:33.891Z</time>
      </trkpt>
      <trkpt lat="47.74752" lon="9.32137">
        <ele>426.545588</ele>
        <time>2022-09-14T02:10:45.817Z</time>
      </trkpt>
      <trkpt lat="47.74847" lon="9.31975">
        <ele>427.674259</ele>
        <time>2022-09-14T02:11:29.667Z</time>
      </trkpt>
      <trkpt lat="47.74841" lon="9.31961">
        <ele>427.782796</ele>
        <time>2022-09-14T02:11:33.292Z</time>
      </trkpt>
      <trkpt lat="47.74891" lon="9.31918">
        <ele>428.32624</ele>
        <time>2022-09-14T02:11:51.657Z</time>
      </trkpt>
      <trkpt lat="47.7505" lon="9.31745">
        <ele>429.95857</ele>
        <time>2022-09-14T02:12:53.580Z</time>
      </trkpt>
      <trkpt lat="47.75158" lon="9.31645">
        <ele>430.494764</ele>
        <time>2022-09-14T02:13:29.866Z</time>
      </trkpt>
      <trkpt lat="47.75538" lon="9.31266">
        <ele>430.910566</ele>
        <time>2022-09-14T02:15:32.601Z</time>
      </trkpt>
      <trkpt lat="47.75641" lon="9.31165">
        <ele>431.242457</ele>
        <time>2022-09-14T02:16:06.170Z</time>
      </trkpt>
      <trkpt lat="47.75664" lon="9.31136">
        <ele>431.333459</ele>
        <time>2022-09-14T02:16:14.952Z</time>
      </trkpt>
      <trkpt lat="47.7568" lon="9.31102">
        <ele>431.417165</ele>
        <time>2022-09-14T02:16:23.129Z</time>
      </trkpt>
      <trkpt lat="47.75697" lon="9.31093">
        <ele>431.492838</ele>
        <time>2022-09-14T02:16:28.509Z</time>
      </trkpt>
      <trkpt lat="47.75704" lon="9.31101">
        <ele>431.570568</ele>
        <time>2022-09-14T02:16:31.198Z</time>
      </trkpt>
      <trkpt lat="47.75713" lon="9.31119">
        <ele>431.69899</ele>
        <time>2022-09-14T02:16:35.607Z</time>
      </trkpt>
      <trkpt lat="47.75753" lon="9.31201">
        <ele>432.285798</ele>
        <time>2022-09-14T02:16:56.701Z</time>
      </trkpt>
      <trkpt lat="47.75771" lon="9.31202">
        <ele>432.439228</ele>
        <time>2022-09-14T02:17:02.422Z</time>
      </trkpt>
      <trkpt lat="47.75827" lon="9.31187">
        <ele>432.929452</ele>
        <time>2022-09-14T02:17:20.432Z</time>
      </trkpt>
      <trkpt lat="47.75886" lon="9.31182">
        <ele>433.192654</ele>
        <time>2022-09-14T02:17:38.709Z</time>
      </trkpt>
      <trkpt lat="47.75886" lon="9.31165">
        <ele>433.233834</ele>
        <time>2022-09-14T02:17:42.008Z</time>
      </trkpt>
      <trkpt lat="47.75886" lon="9.3112">
        <ele>433.345964</ele>
        <time>2022-09-14T02:17:50.595Z</time>
      </trkpt>
      <trkpt lat="47.75879" lon="9.30953">
        <ele>433.712091</ele>
        <time>2022-09-14T02:18:21.100Z</time>
      </trkpt>
      <trkpt lat="47.7588" lon="9.30927">
        <ele>433.743937</ele>
        <time>2022-09-14T02:18:25.684Z</time>
      </trkpt>
      <trkpt lat="47.75894" lon="9.30869">
        <ele>433.819836</ele>
        <time>2022-09-14T02:18:36.908Z</time>
      </trkpt>
      <trkpt lat="47.75935" lon="9.30678">
        <ele>434.092719</ele>
        <time>2022-09-14T02:19:14.531Z</time>
      </trkpt>
      <trkpt lat="47.76005" lon="9.30663">
        <ele>434.273463</ele>
        <time>2022-09-14T02:19:35.051Z</time>
      </trkpt>
      <trkpt lat="47.76007" lon="9.30627">
        <ele>434.335554</ele>
        <time>2022-09-14T02:19:41.622Z</time>
      </trkpt>
      <trkpt lat="47.76006" lon="9.30578">
        <ele>434.419979</ele>
        <time>2022-09-14T02:19:50.709Z</time>
      </trkpt>
      <trkpt lat="47.76" lon="9.30548">
        <ele>434.435659</ele>
        <time>2022-09-14T02:19:56.420Z</time>
      </trkpt>
      <trkpt lat="47.75984" lon="9.30531">
        <ele>434.396461</ele>
        <time>2022-09-14T02:20:01.542Z</time>
      </trkpt>
      <trkpt lat="47.75978" lon="9.30513">
        <ele>434.369106</ele>
        <time>2022-09-14T02:20:05.349Z</time>
      </trkpt>
      <trkpt lat="47.75985" lon="9.30489">
        <ele>434.33381</ele>
        <time>2022-09-14T02:20:09.801Z</time>
      </trkpt>
      <trkpt lat="47.75991" lon="9.30476">
        <ele>434.313024</ele>
        <time>2022-09-14T02:20:12.524Z</time>
      </trkpt>
      <trkpt lat="47.75995" lon="9.30473">
        <ele>434.303638</ele>
        <time>2022-09-14T02:20:13.866Z</time>
      </trkpt>
      <trkpt lat="47.75995" lon="9.30455">
        <ele>434.279009</ele>
        <time>2022-09-14T02:20:16.895Z</time>
      </trkpt>
      <trkpt lat="47.75978" lon="9.30443">
        <ele>434.242338</ele>
        <time>2022-09-14T02:20:21.430Z</time>
      </trkpt>
      <trkpt lat="47.75945" lon="9.30428">
        <ele>434.172329</ele>
        <time>2022-09-14T02:20:30.406Z</time>
      </trkpt>
      <trkpt lat="47.75924" lon="9.30398">
        <ele>434.113557</ele>
        <time>2022-09-14T02:20:37.937Z</time>
      </trkpt>
      <trkpt lat="47.7591" lon="9.30365">
        <ele>434.022214</ele>
        <time>2022-09-14T02:20:44.590Z</time>
      </trkpt>
      <trkpt lat="47.75857" lon="9.30056">
        <ele>432.979706</ele>
        <time>2022-09-14T02:21:37.256Z</time>
      </trkpt>
      <trkpt lat="47.75827" lon="9.29873">
        <ele>432.303604</ele>
        <time>2022-09-14T02:22:07.725Z</time>
      </trkpt>
      <trkpt lat="47.75814" lon="9.29789">
        <ele>432.347432</ele>
        <time>2022-09-14T02:22:23.676Z</time>
      </trkpt>
      <trkpt lat="47.758" lon="9.29693">
        <ele>432.427686</ele>
        <time>2022-09-14T02:22:41.338Z</time>
      </trkpt>
      <trkpt lat="47.75802" lon="9.2967">
        <ele>432.446341</ele>
        <time>2022-09-14T02:22:45.795Z</time>
      </trkpt>
      <trkpt lat="47.75816" lon="9.29631">
        <ele>432.482736</ele>
        <time>2022-09-14T02:22:54.348Z</time>
      </trkpt>
      <trkpt lat="47.75822" lon="9.29613">
        <ele>432.498827</ele>
        <time>2022-09-14T02:22:58.083Z</time>
      </trkpt>
      <trkpt lat="47.7585" lon="9.29573">
        <ele>432.65473</ele>
        <time>2022-09-14T02:23:09.495Z</time>
      </trkpt>
      <trkpt lat="47.7588" lon="9.29533">
        <ele>432.816584</ele>
        <time>2022-09-14T02:23:21.265Z</time>
      </trkpt>
      <trkpt lat="47.7593" lon="9.29467">
        <ele>433.086192</ele>
        <time>2022-09-14T02:23:40.339Z</time>
      </trkpt>
      <trkpt lat="47.76016" lon="9.29356">
        <ele>433.650257</ele>
        <time>2022-09-14T02:24:12.569Z</time>
      </trkpt>
      <trkpt lat="47.76062" lon="9.29298">
        <ele>433.966253</ele>
        <time>2022-09-14T02:24:31.024Z</time>
      </trkpt>
      <trkpt lat="47.76098" lon="9.29244">
        <ele>434.21554</ele>
        <time>2022-09-14T02:24:46.050Z</time>
      </trkpt>
      <trkpt lat="47.76103" lon="9.29201">
        <ele>434.312659</ele>
        <time>2022-09-14T02:24:54.569Z</time>
      </trkpt>
      <trkpt lat="47.76098" lon="9.29179">
        <ele>434.362427</ele>
        <time>2022-09-14T02:24:58.956Z</time>
      </trkpt>
      <trkpt lat="47.76091" lon="9.2916">
        <ele>434.410384</ele>
        <time>2022-09-14T02:25:03.010Z</time>
      </trkpt>
      <trkpt lat="47.76081" lon="9.29122">
        <ele>434.498897</ele>
        <time>2022-09-14T02:25:10.376Z</time>
      </trkpt>
      <trkpt lat="47.76078" lon="9.291">
        <ele>434.548168</ele>
        <time>2022-09-14T02:25:14.320Z</time>
      </trkpt>
      <trkpt lat="47.76081" lon="9.29058">
        <ele>434.6419</ele>
        <time>2022-09-14T02:25:22.263Z</time>
      </trkpt>
      <trkpt lat="47.76096" lon="9.28919">
        <ele>434.895782</ele>
        <time>2022-09-14T02:25:49.251Z</time>
      </trkpt>
      <trkpt lat="47.76107" lon="9.28828">
        <ele>435.038061</ele>
        <time>2022-09-14T02:26:06.176Z</time>
      </trkpt>
      <trkpt lat="47.76115" lon="9.28797">
        <ele>435.08861</ele>
        <time>2022-09-14T02:26:12.413Z</time>
      </trkpt>
      <trkpt lat="47.76087" lon="9.28755">
        <ele>435.178011</ele>
        <time>2022-09-14T02:26:23.570Z</time>
      </trkpt>
      <trkpt lat="47.76056" lon="9.28742">
        <ele>435.150449</ele>
        <time>2022-09-14T02:26:32.763Z</time>
      </trkpt>
      <trkpt lat="47.7605" lon="9.28738">
        <ele>435.144869</ele>
        <time>2022-09-14T02:26:34.534Z</time>
      </trkpt>
      <trkpt lat="47.76022" lon="9.28706">
        <ele>435.115481</ele>
        <time>2022-09-14T02:26:44.074Z</time>
      </trkpt>
      <trkpt lat="47.75986" lon="9.28629">
        <ele>435.062047</ele>
        <time>2022-09-14T02:27:00.312Z</time>
      </trkpt>
      <trkpt lat="47.75951" lon="9.28627">
        <ele>435.03233</ele>
        <time>2022-09-14T02:27:09.123Z</time>
      </trkpt>
      <trkpt lat="47.75927" lon="9.28645">
        <ele>434.976086</ele>
        <time>2022-09-14T02:27:15.688Z</time>
      </trkpt>
      <trkpt lat="47.75912" lon="9.28607">
        <ele>434.898189</ele>
        <time>2022-09-14T02:27:23.185Z</time>
      </trkpt>
      <trkpt lat="47.75872" lon="9.28602">
        <ele>434.793348</ele>
        <time>2022-09-14T02:27:33.647Z</time>
      </trkpt>
      <trkpt lat="47.75807" lon="9.28564">
        <ele>434.611334</ele>
        <time>2022-09-14T02:27:51.748Z</time>
      </trkpt>
      <trkpt lat="47.75812" lon="9.28557">
        <ele>434.592698</ele>
        <time>2022-09-14T02:27:53.702Z</time>
      </trkpt>
      <trkpt lat="47.75816" lon="9.28545">
        <ele>434.569833</ele>
        <time>2022-09-14T02:27:56.016Z</time>
      </trkpt>
      <trkpt lat="47.75783" lon="9.28523">
        <ele>434.787626</ele>
        <time>2022-09-14T02:28:06.174Z</time>
      </trkpt>
      <trkpt lat="47.75727" lon="9.28468">
        <ele>435.279569</ele>
        <time>2022-09-14T02:28:26.244Z</time>
      </trkpt>
      <trkpt lat="47.75583" lon="9.28262">
        <ele>436.944248</ele>
        <time>2022-09-14T02:29:31.202Z</time>
      </trkpt>
      <trkpt lat="47.75475" lon="9.28127">
        <ele>437.409871</ele>
        <time>2022-09-14T02:30:10.976Z</time>
      </trkpt>
      <trkpt lat="47.75412" lon="9.28064">
        <ele>437.327239</ele>
        <time>2022-09-14T02:30:29.569Z</time>
      </trkpt>
      <trkpt lat="47.75289" lon="9.27965">
        <ele>437.455953</ele>
        <time>2022-09-14T02:31:05.189Z</time>
      </trkpt>
      <trkpt lat="47.75207" lon="9.27906">
        <ele>437.981685</ele>
        <time>2022-09-14T02:31:32.793Z</time>
      </trkpt>
      <trkpt lat="47.75148" lon="9.27878">
        <ele>438.977835</ele>
        <time>2022-09-14T02:31:54.089Z</time>
      </trkpt>
      <trkpt lat="47.74941" lon="9.27781">
        <ele>442.241497</ele>
        <time>2022-09-14T02:33:12.798Z</time>
      </trkpt>
      <trkpt lat="47.74841" lon="9.27673">
        <ele>442.720703</ele>
        <time>2022-09-14T02:33:46.483Z</time>
      </trkpt>
      <trkpt lat="47.74785" lon="9.27563">
        <ele>442.339158</ele>
        <time>2022-09-14T02:34:08.230Z</time>
      </trkpt>
      <trkpt lat="47.74746" lon="9.27409">
        <ele>442.254365</ele>
        <time>2022-09-14T02:34:35.288Z</time>
      </trkpt>
      <trkpt lat="47.74701" lon="9.2724">
        <ele>442.112385</ele>
        <time>2022-09-14T02:35:11.766Z</time>
      </trkpt>
      <trkpt lat="47.74669" lon="9.27123">
        <ele>441.793966</ele>
        <time>2022-09-14T02:35:35.948Z</time>
      </trkpt>
      <trkpt lat="47.74606" lon="9.26965">
        <ele>439.025322</ele>
        <time>2022-09-14T02:36:02.164Z</time>
      </trkpt>
      <trkpt lat="47.74456" lon="9.26724">
        <ele>429.535576</ele>
        <time>2022-09-14T02:36:41.897Z</time>
      </trkpt>
      <trkpt lat="47.74394" lon="9.26616">
        <ele>425.50479</ele>
        <time>2022-09-14T02:36:59.963Z</time>
      </trkpt>
      <trkpt lat="47.74369" lon="9.26561">
        <ele>424.351311</ele>
        <time>2022-09-14T02:37:08.615Z</time>
      </trkpt>
      <trkpt lat="47.74355" lon="9.26506">
        <ele>423.308616</ele>
        <time>2022-09-14T02:37:16.696Z</time>
      </trkpt>
      <trkpt lat="47.74348" lon="9.26499">
        <ele>423.09732</ele>
        <time>2022-09-14T02:37:18.395Z</time>
      </trkpt>
      <trkpt lat="47.74289" lon="9.26341">
        <ele>420.260443</ele>
        <time>2022-09-14T02:37:45.813Z</time>
      </trkpt>
      <trkpt lat="47.74239" lon="9.26232">
        <ele>418.510215</ele>
        <time>2022-09-14T02:38:05.216Z</time>
      </trkpt>
      <trkpt lat="47.74221" lon="9.26209">
        <ele>418.049221</ele>
        <time>2022-09-14T02:38:10.242Z</time>
      </trkpt>
      <trkpt lat="47.74215" lon="9.26216">
        <ele>417.895492</ele>
        <time>2022-09-14T02:38:12.263Z</time>
      </trkpt>
      <trkpt lat="47.74179" lon="9.26194">
        <ele>417.219413</ele>
        <time>2022-09-14T02:38:20.456Z</time>
      </trkpt>
      <trkpt lat="47.74145" lon="9.26184">
        <ele>416.633297</ele>
        <time>2022-09-14T02:38:27.898Z</time>
      </trkpt>
      <trkpt lat="47.74147" lon="9.26172">
        <ele>416.483789</ele>
        <time>2022-09-14T02:38:29.576Z</time>
      </trkpt>
      <trkpt lat="47.74138" lon="9.26152">
        <ele>416.217381</ele>
        <time>2022-09-14T02:38:33.214Z</time>
      </trkpt>
      <trkpt lat="47.74052" lon="9.26108">
        <ele>414.698299</ele>
        <time>2022-09-14T02:38:53.645Z</time>
      </trkpt>
      <trkpt lat="47.74005" lon="9.2606">
        <ele>414.466675</ele>
        <time>2022-09-14T02:39:09.342Z</time>
      </trkpt>
      <trkpt lat="47.73969" lon="9.26066">
        <ele>414.31965</ele>
        <time>2022-09-14T02:39:20.091Z</time>
      </trkpt>
      <trkpt lat="47.73965" lon="9.26031">
        <ele>414.221756</ele>
        <time>2022-09-14T02:39:26.960Z</time>
      </trkpt>
      <trkpt lat="47.7397" lon="9.25951">
        <ele>413.999997</ele>
        <time>2022-09-14T02:39:40.754Z</time>
      </trkpt>
      <trkpt lat="47.73974" lon="9.25908">
        <ele>413.701607</ele>
        <time>2022-09-14T02:39:47.630Z</time>
      </trkpt>
      <trkpt lat="47.73869" lon="9.25808">
        <ele>412.241343</ele>
        <time>2022-09-14T02:40:15.956Z</time>
      </trkpt>
      <trkpt lat="47.7386" lon="9.25811">
        <ele>412.141714</ele>
        <time>2022-09-14T02:40:17.946Z</time>
      </trkpt>
      <trkpt lat="47.73853" lon="9.25798">
        <ele>412.009242</ele>
        <time>2022-09-14T02:40:20.384Z</time>
      </trkpt>
      <trkpt lat="47.73835" lon="9.25812">
        <ele>411.854454</ele>
        <time>2022-09-14T02:40:24.706Z</time>
      </trkpt>
      <trkpt lat="47.73815" lon="9.25803">
        <ele>411.808423</ele>
        <time>2022-09-14T02:40:29.275Z</time>
      </trkpt>
      <trkpt lat="47.73802" lon="9.25786">
        <ele>411.770936</ele>
        <time>2022-09-14T02:40:33.231Z</time>
      </trkpt>
      <trkpt lat="47.73784" lon="9.25794">
        <ele>411.730724</ele>
        <time>2022-09-14T02:40:37.457Z</time>
      </trkpt>
      <trkpt lat="47.73722" lon="9.25678">
        <ele>411.5147</ele>
        <time>2022-09-14T02:41:05.623Z</time>
      </trkpt>
      <trkpt lat="47.73554" lon="9.25394">
        <ele>413.980975</ele>
        <time>2022-09-14T02:42:26.821Z</time>
      </trkpt>
      <trkpt lat="47.73546" lon="9.2535">
        <ele>414.312785</ele>
        <time>2022-09-14T02:42:36.615Z</time>
      </trkpt>
      <trkpt lat="47.73547" lon="9.25318">
        <ele>414.541397</ele>
        <time>2022-09-14T02:42:43.374Z</time>
      </trkpt>
      <trkpt lat="47.73559" lon="9.25271">
        <ele>414.903363</ele>
        <time>2022-09-14T02:42:54.235Z</time>
      </trkpt>
      <trkpt lat="47.73556" lon="9.25269">
        <ele>414.942358</ele>
        <time>2022-09-14T02:42:55.305Z</time>
      </trkpt>
      <trkpt lat="47.7359" lon="9.25159">
        <ele>415.532146</ele>
        <time>2022-09-14T02:43:21.486Z</time>
      </trkpt>
      <trkpt lat="47.73594" lon="9.25148">
        <ele>415.577166</ele>
        <time>2022-09-14T02:43:24.343Z</time>
      </trkpt>
      <trkpt lat="47.73642" lon="9.24898">
        <ele>415.223004</ele>
        <time>2022-09-14T02:44:13.135Z</time>
      </trkpt>
      <trkpt lat="47.73644" lon="9.24825">
        <ele>414.336125</ele>
        <time>2022-09-14T02:44:23.510Z</time>
      </trkpt>
      <trkpt lat="47.73637" lon="9.24781">
        <ele>413.799883</ele>
        <time>2022-09-14T02:44:29.574Z</time>
      </trkpt>
      <trkpt lat="47.73642" lon="9.24779">
        <ele>413.703366</ele>
        <time>2022-09-14T02:44:30.652Z</time>
      </trkpt>
      <trkpt lat="47.73625" lon="9.2471">
        <ele>412.681029</ele>
        <time>2022-09-14T02:44:40.248Z</time>
      </trkpt>
      <trkpt lat="47.7357" lon="9.24583">
        <ele>409.424901</ele>
        <time>2022-09-14T02:44:59.360Z</time>
      </trkpt>
      <trkpt lat="47.73554" lon="9.24548">
        <ele>408.518931</ele>
        <time>2022-09-14T02:45:04.865Z</time>
      </trkpt>
      <trkpt lat="47.73533" lon="9.24477">
        <ele>407.139173</ele>
        <time>2022-09-14T02:45:16.014Z</time>
      </trkpt>
      <trkpt lat="47.73526" lon="9.24443">
        <ele>407.007164</ele>
        <time>2022-09-14T02:45:21.471Z</time>
      </trkpt>
      <trkpt lat="47.73522" lon="9.2442">
        <ele>406.920472</ele>
        <time>2022-09-14T02:45:25.050Z</time>
      </trkpt>
      <trkpt lat="47.73521" lon="9.24354">
        <ele>406.674101</ele>
        <time>2022-09-14T02:45:35.679Z</time>
      </trkpt>
      <trkpt lat="47.73523" lon="9.24322">
        <ele>406.55298</ele>
        <time>2022-09-14T02:45:41.287Z</time>
      </trkpt>
      <trkpt lat="47.73525" lon="9.24307">
        <ele>406.495272</ele>
        <time>2022-09-14T02:45:43.998Z</time>
      </trkpt>
      <trkpt lat="47.73524" lon="9.24293">
        <ele>406.44334</ele>
        <time>2022-09-14T02:45:46.593Z</time>
      </trkpt>
      <trkpt lat="47.73529" lon="9.24281">
        <ele>406.391459</ele>
        <time>2022-09-14T02:45:49.279Z</time>
      </trkpt>
      <trkpt lat="47.73526" lon="9.24268">
        <ele>406.343139</ele>
        <time>2022-09-14T02:45:51.630Z</time>
      </trkpt>
      <trkpt lat="47.73527" lon="9.24254">
        <ele>406.29157</ele>
        <time>2022-09-14T02:45:54.290Z</time>
      </trkpt>
      <trkpt lat="47.73528" lon="9.24237">
        <ele>406.226843</ele>
        <time>2022-09-14T02:45:57.781Z</time>
      </trkpt>
      <trkpt lat="47.73531" lon="9.24222">
        <ele>406.207893</ele>
        <time>2022-09-14T02:46:00.979Z</time>
      </trkpt>
      <trkpt lat="47.73537" lon="9.24174">
        <ele>406.224297</ele>
        <time>2022-09-14T02:46:11.052Z</time>
      </trkpt>
      <trkpt lat="47.73538" lon="9.24164">
        <ele>406.227644</ele>
        <time>2022-09-14T02:46:13.015Z</time>
      </trkpt>
      <trkpt lat="47.73539" lon="9.24143">
        <ele>406.234608</ele>
        <time>2022-09-14T02:46:17.172Z</time>
      </trkpt>
      <trkpt lat="47.73546" lon="9.24106">
        <ele>406.247311</ele>
        <time>2022-09-14T02:46:24.905Z</time>
      </trkpt>
      <trkpt lat="47.73561" lon="9.24085">
        <ele>406.257688</ele>
        <time>2022-09-14T02:46:31.013Z</time>
      </trkpt>
      <trkpt lat="47.73619" lon="9.24075">
        <ele>406.286229</ele>
        <time>2022-09-14T02:46:45.327Z</time>
      </trkpt>
      <trkpt lat="47.73641" lon="9.24065">
        <ele>406.211119</ele>
        <time>2022-09-14T02:46:50.722Z</time>
      </trkpt>
      <trkpt lat="47.73656" lon="9.24045">
        <ele>406.016393</ele>
        <time>2022-09-14T02:46:55.385Z</time>
      </trkpt>
      <trkpt lat="47.73664" lon="9.24021">
        <ele>405.847073</ele>
        <time>2022-09-14T02:46:59.343Z</time>
      </trkpt>
      <trkpt lat="47.7367" lon="9.23973">
        <ele>405.531525</ele>
        <time>2022-09-14T02:47:07.117Z</time>
      </trkpt>
      <trkpt lat="47.73667" lon="9.23898">
        <ele>405.05196</ele>
        <time>2022-09-14T02:47:18.941Z</time>
      </trkpt>
      <trkpt lat="47.73659" lon="9.23861">
        <ele>404.799086</ele>
        <time>2022-09-14T02:47:25.313Z</time>
      </trkpt>
      <trkpt lat="47.7366" lon="9.23837">
        <ele>404.640848</ele>
        <time>2022-09-14T02:47:29.472Z</time>
      </trkpt>
      <trkpt lat="47.73652" lon="9.2383">
        <ele>404.552166</ele>
        <time>2022-09-14T02:47:31.484Z</time>
      </trkpt>
      <trkpt lat="47.73671" lon="9.23786">
        <ele>404.155996</ele>
        <time>2022-09-14T02:47:39.378Z</time>
      </trkpt>
      <trkpt lat="47.73721" lon="9.23661">
        <ele>403.039534</ele>
        <time>2022-09-14T02:48:01.528Z</time>
      </trkpt>
      <trkpt lat="47.73804" lon="9.23459">
        <ele>401.875962</ele>
        <time>2022-09-14T02:48:38.774Z</time>
      </trkpt>
      <trkpt lat="47.74032" lon="9.22897">
        <ele>401.362974</ele>
        <time>2022-09-14T02:50:36.067Z</time>
      </trkpt>
      <trkpt lat="47.74079" lon="9.22782">
        <ele>401.304418</ele>
        <time>2022-09-14T02:50:59.367Z</time>
      </trkpt>
      <trkpt lat="47.74129" lon="9.22663">
        <ele>401.327309</ele>
        <time>2022-09-14T02:51:24.572Z</time>
      </trkpt>
      <trkpt lat="47.74265" lon="9.22327">
        <ele>401.898857</ele>
        <time>2022-09-14T02:52:40.267Z</time>
      </trkpt>
      <trkpt lat="47.74318" lon="9.2219">
        <ele>401.79972</ele>
        <time>2022-09-14T02:53:06.097Z</time>
      </trkpt>
      <trkpt lat="47.74327" lon="9.22182">
        <ele>401.758725</ele>
        <time>2022-09-14T02:53:09.047Z</time>
      </trkpt>
      <trkpt lat="47.74327" lon="9.22162">
        <ele>401.704906</ele>
        <time>2022-09-14T02:53:12.526Z</time>
      </trkpt>
      <trkpt lat="47.74361" lon="9.22039">
        <ele>401.349425</ele>
        <time>2022-09-14T02:53:36.644Z</time>
      </trkpt>
      <trkpt lat="47.74389" lon="9.22012">
        <ele>401.215124</ele>
        <time>2022-09-14T02:53:44.498Z</time>
      </trkpt>
      <trkpt lat="47.74419" lon="9.21993">
        <ele>401.004009</ele>
        <time>2022-09-14T02:53:51.533Z</time>
      </trkpt>
      <trkpt lat="47.74425" lon="9.21989">
        <ele>400.956601</ele>
        <time>2022-09-14T02:53:52.996Z</time>
      </trkpt>
      <trkpt lat="47.74449" lon="9.21936">
        <ele>400.671352</ele>
        <time>2022-09-14T02:54:02.902Z</time>
      </trkpt>
      <trkpt lat="47.74454" lon="9.21907">
        <ele>400.533641</ele>
        <time>2022-09-14T02:54:08.260Z</time>
      </trkpt>
      <trkpt lat="47.74452" lon="9.21882">
        <ele>400.420564</ele>
        <time>2022-09-14T02:54:12.190Z</time>
      </trkpt>
      <trkpt lat="47.74457" lon="9.21817">
        <ele>400.121727</ele>
        <time>2022-09-14T02:54:23.409Z</time>
      </trkpt>
      <trkpt lat="47.74453" lon="9.21807">
        <ele>400.069179</ele>
        <time>2022-09-14T02:54:25.244Z</time>
      </trkpt>
      <trkpt lat="47.74459" lon="9.21793">
        <ele>399.998618</ele>
        <time>2022-09-14T02:54:27.830Z</time>
      </trkpt>
      <trkpt lat="47.74632" lon="9.21396">
        <ele>399.942069</ele>
        <time>2022-09-14T02:55:53.629Z</time>
      </trkpt>
      <trkpt lat="47.74641" lon="9.21375">
        <ele>399.945684</ele>
        <time>2022-09-14T02:55:58.461Z</time>
      </trkpt>
      <trkpt lat="47.74686" lon="9.21248">
        <ele>399.718311</ele>
        <time>2022-09-14T02:56:22.884Z</time>
      </trkpt>
      <trkpt lat="47.7476" lon="9.21026">
        <ele>399.504694</ele>
        <time>2022-09-14T02:57:04.477Z</time>
      </trkpt>
      <trkpt lat="47.74842" lon="9.20784">
        <ele>400.273297</ele>
        <time>2022-09-14T02:57:57.692Z</time>
      </trkpt>
      <trkpt lat="47.74878" lon="9.20511">
        <ele>401.758323</ele>
        <time>2022-09-14T02:58:56.209Z</time>
      </trkpt>
      <trkpt lat="47.74896" lon="9.20413">
        <ele>402.276894</ele>
        <time>2022-09-14T02:59:16.886Z</time>
      </trkpt>
      <trkpt lat="47.74946" lon="9.20256">
        <ele>402.747688</ele>
        <time>2022-09-14T02:59:51.011Z</time>
      </trkpt>
      <trkpt lat="47.75028" lon="9.20101">
        <ele>402.855805</ele>
        <time>2022-09-14T03:00:26.509Z</time>
      </trkpt>
      <trkpt lat="47.75044" lon="9.20065">
        <ele>402.749067</ele>
        <time>2022-09-14T03:00:33.615Z</time>
      </trkpt>
      <trkpt lat="47.75055" lon="9.2001">
        <ele>402.603996</ele>
        <time>2022-09-14T03:00:43.255Z</time>
      </trkpt>
      <trkpt lat="47.75072" lon="9.19952">
        <ele>402.445066</ele>
        <time>2022-09-14T03:00:53.882Z</time>
      </trkpt>
      <trkpt lat="47.75088" lon="9.19936">
        <ele>402.37328</ele>
        <time>2022-09-14T03:00:58.890Z</time>
      </trkpt>
      <trkpt lat="47.75088" lon="9.19928">
        <ele>402.353171</ele>
        <time>2022-09-14T03:01:00.239Z</time>
      </trkpt>
      <trkpt lat="47.75094" lon="9.19902">
        <ele>402.281174</ele>
        <time>2022-09-14T03:01:04.997Z</time>
      </trkpt>
      <trkpt lat="47.75111" lon="9.19849">
        <ele>401.938447</ele>
        <time>2022-09-14T03:01:14.292Z</time>
      </trkpt>
      <trkpt lat="47.75154" lon="9.19705">
        <ele>401.009816</ele>
        <time>2022-09-14T03:01:38.885Z</time>
      </trkpt>
      <trkpt lat="47.75116" lon="9.19658">
        <ele>400.579497</ele>
        <time>2022-09-14T03:01:50.584Z</time>
      </trkpt>
      <trkpt lat="47.75115" lon="9.19652">
        <ele>400.546118</ele>
        <time>2022-09-14T03:01:51.467Z</time>
      </trkpt>
      <trkpt lat="47.75128" lon="9.1959">
        <ele>400.169703</ele>
        <time>2022-09-14T03:02:01.429Z</time>
      </trkpt>
      <trkpt lat="47.75142" lon="9.19415">
        <ele>399.162272</ele>
        <time>2022-09-14T03:02:28.632Z</time>
      </trkpt>
      <trkpt lat="47.75142" lon="9.19393">
        <ele>399.192752</ele>
        <time>2022-09-14T03:02:32.645Z</time>
      </trkpt>
      <trkpt lat="47.75142" lon="9.19379">
        <ele>399.212391</ele>
        <time>2022-09-14T03:02:35.289Z</time>
      </trkpt>
      <trkpt lat="47.75141" lon="9.19367">
        <ele>399.229457</ele>
        <time>2022-09-14T03:02:37.747Z</time>
      </trkpt>
      <trkpt lat="47.75142" lon="9.19337">
        <ele>399.269828</ele>
        <time>2022-09-14T03:02:43.072Z</time>
      </trkpt>
      <trkpt lat="47.75146" lon="9.19329">
        <ele>399.2843</ele>
        <time>2022-09-14T03:02:44.972Z</time>
      </trkpt>
      <trkpt lat="47.75161" lon="9.1932">
        <ele>399.317311</ele>
        <time>2022-09-14T03:02:49.635Z</time>
      </trkpt>
      <trkpt lat="47.75175" lon="9.19324">
        <ele>399.347621</ele>
        <time>2022-09-14T03:02:53.706Z</time>
      </trkpt>
      <trkpt lat="47.75196" lon="9.19337">
        <ele>399.392613</ele>
        <time>2022-09-14T03:03:00.099Z</time>
      </trkpt>
      <trkpt lat="47.75205" lon="9.19343">
        <ele>399.412693</ele>
        <time>2022-09-14T03:03:02.856Z</time>
      </trkpt>
      <trkpt lat="47.75236" lon="9.19366">
        <ele>399.484032</ele>
        <time>2022-09-14T03:03:13.076Z</time>
      </trkpt>
      <trkpt lat="47.75241" lon="9.1937">
        <ele>399.495922</ele>
        <time>2022-09-14T03:03:14.779Z</time>
      </trkpt>
      <trkpt lat="47.75255" lon="9.19381">
        <ele>399.527295</ele>
        <time>2022-09-14T03:03:19.516Z</time>
      </trkpt>
      <trkpt lat="47.75262" lon="9.19329">
        <ele>399.552104</ele>
        <time>2022-09-14T03:03:30.374Z</time>
      </trkpt>
      <trkpt lat="47.75291" lon="9.19184">
        <ele>399.623855</ele>
        <time>2022-09-14T03:03:59.048Z</time>
      </trkpt>
      <trkpt lat="47.75293" lon="9.19156">
        <ele>399.637294</ele>
        <time>2022-09-14T03:04:03.764Z</time>
      </trkpt>
      <trkpt lat="47.75292" lon="9.19144">
        <ele>399.642828</ele>
        <time>2022-09-14T03:04:05.637Z</time>
      </trkpt>
      <trkpt lat="47.75346" lon="9.18929">
        <ele>398.454108</ele>
        <time>2022-09-14T03:04:40.831Z</time>
      </trkpt>
      <trkpt lat="47.75359" lon="9.18886">
        <ele>398.184372</ele>
        <time>2022-09-14T03:04:48.551Z</time>
      </trkpt>
      <trkpt lat="47.75363" lon="9.18865">
        <ele>398.126098</ele>
        <time>2022-09-14T03:04:52.156Z</time>
      </trkpt>
      <trkpt lat="47.75372" lon="9.18833">
        <ele>398.222631</ele>
        <time>2022-09-14T03:04:58.233Z</time>
      </trkpt>
      <trkpt lat="47.75399" lon="9.1878">
        <ele>398.409338</ele>
        <time>2022-09-14T03:05:10.238Z</time>
      </trkpt>
      <trkpt lat="47.75423" lon="9.18744">
        <ele>398.551285</ele>
        <time>2022-09-14T03:05:19.961Z</time>
      </trkpt>
      <trkpt lat="47.75446" lon="9.18713">
        <ele>398.679513</ele>
        <time>2022-09-14T03:05:29.276Z</time>
      </trkpt>
      <trkpt lat="47.75566" lon="9.18615">
        <ele>399.445036</ele>
        <time>2022-09-14T03:06:14.198Z</time>
      </trkpt>
      <trkpt lat="47.75729" lon="9.18359">
        <ele>399.461575</ele>
        <time>2022-09-14T03:07:16.932Z</time>
      </trkpt>
      <trkpt lat="47.75737" lon="9.18349">
        <ele>399.426379</ele>
        <time>2022-09-14T03:07:19.542Z</time>
      </trkpt>
      <trkpt lat="47.75754" lon="9.18316">
        <ele>399.237871</ele>
        <time>2022-09-14T03:07:26.338Z</time>
      </trkpt>
      <trkpt lat="47.75786" lon="9.18221">
        <ele>398.373921</ele>
        <time>2022-09-14T03:07:44.063Z</time>
      </trkpt>
      <trkpt lat="47.75799" lon="9.18164">
        <ele>397.885013</ele>
        <time>2022-09-14T03:07:54.111Z</time>
      </trkpt>
      <trkpt lat="47.7583" lon="9.18064">
        <ele>397.226867</ele>
        <time>2022-09-14T03:08:12.935Z</time>
      </trkpt>
      <trkpt lat="47.75834" lon="9.18049">
        <ele>397.240035</ele>
        <time>2022-09-14T03:08:15.975Z</time>
      </trkpt>
      <trkpt lat="47.75903" lon="9.17796">
        <ele>397.660695</ele>
        <time>2022-09-14T03:09:08.368Z</time>
      </trkpt>
      <trkpt lat="47.75906" lon="9.17783">
        <ele>397.729917</ele>
        <time>2022-09-14T03:09:11.293Z</time>
      </trkpt>
      <trkpt lat="47.75948" lon="9.17646">
        <ele>398.509701</ele>
        <time>2022-09-14T03:09:43.124Z</time>
      </trkpt>
      <trkpt lat="47.75972" lon="9.17544">
        <ele>398.90926</ele>
        <time>2022-09-14T03:10:05.014Z</time>
      </trkpt>
      <trkpt lat="47.75975" lon="9.1753">
        <ele>398.94041</ele>
        <time>2022-09-14T03:10:07.715Z</time>
      </trkpt>
      <trkpt lat="47.75984" lon="9.17498">
        <ele>399.015642</ele>
        <time>2022-09-14T03:10:14.277Z</time>
      </trkpt>
      <trkpt lat="47.76005" lon="9.17439">
        <ele>399.161833</ele>
        <time>2022-09-14T03:10:26.417Z</time>
      </trkpt>
      <trkpt lat="47.76008" lon="9.17429">
        <ele>399.186748</ele>
        <time>2022-09-14T03:10:28.371Z</time>
      </trkpt>
      <trkpt lat="47.76068" lon="9.1728">
        <ele>399.783022</ele>
        <time>2022-09-14T03:11:00.947Z</time>
      </trkpt>
      <trkpt lat="47.7613" lon="9.17166">
        <ele>400.477138</ele>
        <time>2022-09-14T03:11:31.356Z</time>
      </trkpt>
      <trkpt lat="47.76249" lon="9.16982">
        <ele>402.212457</ele>
        <time>2022-09-14T03:12:25.468Z</time>
      </trkpt>
      <trkpt lat="47.76263" lon="9.16961">
        <ele>402.421817</ele>
        <time>2022-09-14T03:12:31.893Z</time>
      </trkpt>
      <trkpt lat="47.76267" lon="9.16944">
        <ele>402.55231</ele>
        <time>2022-09-14T03:12:36.012Z</time>
      </trkpt>
      <trkpt lat="47.76313" lon="9.16864">
        <ele>403.336458</ele>
        <time>2022-09-14T03:12:59.959Z</time>
      </trkpt>
      <trkpt lat="47.76393" lon="9.16774">
        <ele>404.444907</ele>
        <time>2022-09-14T03:13:31.461Z</time>
      </trkpt>
      <trkpt lat="47.76395" lon="9.16772">
        <ele>404.463242</ele>
        <time>2022-09-14T03:13:32.024Z</time>
      </trkpt>
      <trkpt lat="47.76423" lon="9.16706">
        <ele>404.575107</ele>
        <time>2022-09-14T03:13:48.103Z</time>
      </trkpt>
      <trkpt lat="47.76442" lon="9.1665">
        <ele>404.607175</ele>
        <time>2022-09-14T03:14:00.072Z</time>
      </trkpt>
      <trkpt lat="47.76501" lon="9.16435">
        <ele>404.339293</ele>
        <time>2022-09-14T03:14:38.867Z</time>
      </trkpt>
      <trkpt lat="47.76509" lon="9.16413">
        <ele>404.250857</ele>
        <time>2022-09-14T03:14:42.649Z</time>
      </trkpt>
      <trkpt lat="47.76531" lon="9.16381">
        <ele>404.088065</ele>
        <time>2022-09-14T03:14:50.122Z</time>
      </trkpt>
      <trkpt lat="47.76547" lon="9.16352">
        <ele>403.959032</ele>
        <time>2022-09-14T03:14:56.320Z</time>
      </trkpt>
      <trkpt lat="47.76538" lon="9.16346">
        <ele>403.906552</ele>
        <time>2022-09-14T03:14:58.448Z</time>
      </trkpt>
      <trkpt lat="47.76542" lon="9.16338">
        <ele>403.869607</ele>
        <time>2022-09-14T03:15:03.363Z</time>
      </trkpt>
      <trkpt lat="47.76554" lon="9.16326">
        <ele>403.791576</ele>
        <time>2022-09-14T03:15:07.746Z</time>
      </trkpt>
      <trkpt lat="47.76573" lon="9.16305">
        <ele>403.718631</ele>
        <time>2022-09-14T03:15:13.067Z</time>
      </trkpt>
      <trkpt lat="47.76574" lon="9.16319">
        <ele>403.706588</ele>
        <time>2022-09-14T03:15:16.206Z</time>
      </trkpt>
      <trkpt lat="47.76584" lon="9.16302">
        <ele>403.686226</ele>
        <time>2022-09-14T03:15:21.096Z</time>
      </trkpt>
      <trkpt lat="47.76608" lon="9.16259">
        <ele>403.636228</ele>
        <time>2022-09-14T03:15:34.612Z</time>
      </trkpt>
      <trkpt lat="47.76627" lon="9.16209">
        <ele>403.585195</ele>
        <time>2022-09-14T03:15:47.913Z</time>
      </trkpt>
      <trkpt lat="47.76634" lon="9.16189">
        <ele>403.56524</ele>
        <time>2022-09-14T03:15:53.706Z</time>
      </trkpt>
      <trkpt lat="47.76664" lon="9.16083">
        <ele>403.410114</ele>
        <time>2022-09-14T03:16:19.628Z</time>
      </trkpt>
      <trkpt lat="47.76671" lon="9.16055">
        <ele>403.342074</ele>
        <time>2022-09-14T03:16:26.610Z</time>
      </trkpt>
      <trkpt lat="47.76685" lon="9.16008">
        <ele>403.227023</ele>
        <time>2022-09-14T03:16:38.699Z</time>
      </trkpt>
      <trkpt lat="47.76688" lon="9.15992">
        <ele>403.187651</ele>
        <time>2022-09-14T03:16:42.967Z</time>
      </trkpt>
      <trkpt lat="47.76691" lon="9.15973">
        <ele>403.144795</ele>
        <time>2022-09-14T03:16:47.362Z</time>
      </trkpt>
      <trkpt lat="47.76696" lon="9.15913">
        <ele>403.005343</ele>
        <time>2022-09-14T03:17:01.494Z</time>
      </trkpt>
      <trkpt lat="47.76701" lon="9.15874">
        <ele>402.916562</ele>
        <time>2022-09-14T03:17:07.732Z</time>
      </trkpt>
      <trkpt lat="47.76739" lon="9.15808">
        <ele>402.462294</ele>
        <time>2022-09-14T03:17:21.047Z</time>
      </trkpt>
      <trkpt lat="47.76774" lon="9.15739">
        <ele>401.966707</ele>
        <time>2022-09-14T03:17:34.773Z</time>
      </trkpt>
      <trkpt lat="47.76795" lon="9.15643">
        <ele>401.392884</ele>
        <time>2022-09-14T03:17:51.157Z</time>
      </trkpt>
      <trkpt lat="47.76796" lon="9.15634">
        <ele>401.347704</ele>
        <time>2022-09-14T03:17:52.585Z</time>
      </trkpt>
      <trkpt lat="47.76797" lon="9.15601">
        <ele>401.233617</ele>
        <time>2022-09-14T03:17:57.553Z</time>
      </trkpt>
      <trkpt lat="47.76806" lon="9.15577">
        <ele>401.13533</ele>
        <time>2022-09-14T03:18:01.865Z</time>
      </trkpt>
      <trkpt lat="47.76831" lon="9.15502">
        <ele>400.842174</ele>
        <time>2022-09-14T03:18:14.918Z</time>
      </trkpt>
      <trkpt lat="47.76834" lon="9.15491">
        <ele>400.800245</ele>
        <time>2022-09-14T03:18:16.838Z</time>
      </trkpt>
      <trkpt lat="47.76838" lon="9.15474">
        <ele>400.737075</ele>
        <time>2022-09-14T03:18:19.856Z</time>
      </trkpt>
      <trkpt lat="47.7684" lon="9.15465">
        <ele>400.704345</ele>
        <time>2022-09-14T03:18:21.416Z</time>
      </trkpt>
      <trkpt lat="47.76844" lon="9.15431">
        <ele>400.582364</ele>
        <time>2022-09-14T03:18:27.697Z</time>
      </trkpt>
      <trkpt lat="47.76846" lon="9.15407">
        <ele>400.495877</ele>
        <time>2022-09-14T03:18:32.291Z</time>
      </trkpt>
      <trkpt lat="47.76855" lon="9.15313">
        <ele>400.521151</ele>
        <time>2022-09-14T03:18:49.873Z</time>
      </trkpt>
      <trkpt lat="47.76855" lon="9.15303">
        <ele>400.534567</ele>
        <time>2022-09-14T03:18:51.598Z</time>
      </trkpt>
      <trkpt lat="47.76856" lon="9.15295">
        <ele>400.545771</ele>
        <time>2022-09-14T03:18:53.075Z</time>
      </trkpt>
      <trkpt lat="47.7686" lon="9.15246">
        <ele>400.615054</ele>
        <time>2022-09-14T03:19:01.823Z</time>
      </trkpt>
      <trkpt lat="47.76863" lon="9.15226">
        <ele>400.644818</ele>
        <time>2022-09-14T03:19:05.647Z</time>
      </trkpt>
      <trkpt lat="47.76868" lon="9.15205">
        <ele>400.676205</ele>
        <time>2022-09-14T03:19:09.712Z</time>
      </trkpt>
      <trkpt lat="47.76869" lon="9.15202">
        <ele>400.679274</ele>
        <time>2022-09-14T03:19:10.135Z</time>
      </trkpt>
      <trkpt lat="47.76895" lon="9.1508">
        <ele>400.769448</ele>
        <time>2022-09-14T03:19:35.523Z</time>
      </trkpt>
      <trkpt lat="47.76898" lon="9.15068">
        <ele>400.762854</ele>
        <time>2022-09-14T03:19:37.816Z</time>
      </trkpt>
      <trkpt lat="47.76909" lon="9.14983">
        <ele>400.716124</ele>
        <time>2022-09-14T03:19:54.011Z</time>
      </trkpt>
      <trkpt lat="47.76909" lon="9.14952">
        <ele>400.699753</ele>
        <time>2022-09-14T03:19:59.279Z</time>
      </trkpt>
      <trkpt lat="47.76909" lon="9.14942">
        <ele>400.694492</ele>
        <time>2022-09-14T03:20:00.916Z</time>
      </trkpt>
      <trkpt lat="47.76909" lon="9.14935">
        <ele>400.690839</ele>
        <time>2022-09-14T03:20:02.060Z</time>
      </trkpt>
      <trkpt lat="47.76904" lon="9.14849">
        <ele>400.589584</ele>
        <time>2022-09-14T03:20:16.368Z</time>
      </trkpt>
      <trkpt lat="47.76901" lon="9.14777">
        <ele>400.251486</ele>
        <time>2022-09-14T03:20:27.642Z</time>
      </trkpt>
      <trkpt lat="47.76899" lon="9.14747">
        <ele>400.111311</ele>
        <time>2022-09-14T03:20:32.390Z</time>
      </trkpt>
      <trkpt lat="47.76892" lon="9.1457">
        <ele>399.394654</ele>
        <time>2022-09-14T03:21:00.835Z</time>
      </trkpt>
      <trkpt lat="47.76894" lon="9.14518">
        <ele>399.402318</ele>
        <time>2022-09-14T03:21:09.874Z</time>
      </trkpt>
      <trkpt lat="47.76899" lon="9.14483">
        <ele>399.407629</ele>
        <time>2022-09-14T03:21:16.109Z</time>
      </trkpt>
      <trkpt lat="47.7692" lon="9.14457">
        <ele>399.413561</ele>
        <time>2022-09-14T03:21:23.357Z</time>
      </trkpt>
      <trkpt lat="47.76932" lon="9.14444">
        <ele>399.416804</ele>
        <time>2022-09-14T03:21:27.525Z</time>
      </trkpt>
      <trkpt lat="47.76939" lon="9.14427">
        <ele>399.419736</ele>
        <time>2022-09-14T03:21:31.203Z</time>
      </trkpt>
      <trkpt lat="47.77032" lon="9.1396">
        <ele>401.525271</ele>
        <time>2022-09-14T03:23:08.777Z</time>
      </trkpt>
      <trkpt lat="47.77082" lon="9.13837">
        <ele>402.474179</ele>
        <time>2022-09-14T03:23:41.029Z</time>
      </trkpt>
      <trkpt lat="47.77096" lon="9.13811">
        <ele>402.694147</ele>
        <time>2022-09-14T03:23:48.340Z</time>
      </trkpt>
      <trkpt lat="47.77104" lon="9.1381">
        <ele>402.773444</ele>
        <time>2022-09-14T03:23:50.977Z</time>
      </trkpt>
      <trkpt lat="47.77119" lon="9.13804">
        <ele>402.930696</ele>
        <time>2022-09-14T03:23:55.871Z</time>
      </trkpt>
      <trkpt lat="47.77129" lon="9.13792">
        <ele>403.063499</ele>
        <time>2022-09-14T03:24:00.592Z</time>
      </trkpt>
      <trkpt lat="47.77209" lon="9.13604">
        <ele>403.782935</ele>
        <time>2022-09-14T03:24:46.563Z</time>
      </trkpt>
      <trkpt lat="47.7726" lon="9.13513">
        <ele>403.17695</ele>
        <time>2022-09-14T03:25:04.254Z</time>
      </trkpt>
      <trkpt lat="47.77318" lon="9.13423">
        <ele>402.603017</ele>
        <time>2022-09-14T03:25:22.720Z</time>
      </trkpt>
      <trkpt lat="47.77356" lon="9.13371">
        <ele>402.335571</ele>
        <time>2022-09-14T03:25:34.345Z</time>
      </trkpt>
      <trkpt lat="47.77364" lon="9.13362">
        <ele>402.284011</ele>
        <time>2022-09-14T03:25:36.809Z</time>
      </trkpt>
      <trkpt lat="47.7743" lon="9.13292">
        <ele>401.865417</ele>
        <time>2022-09-14T03:25:58.010Z</time>
      </trkpt>
      <trkpt lat="47.77444" lon="9.13278">
        <ele>401.881032</ele>
        <time>2022-09-14T03:26:03.341Z</time>
      </trkpt>
      <trkpt lat="47.77643" lon="9.1309">
        <ele>403.127285</ele>
        <time>2022-09-14T03:27:18.211Z</time>
      </trkpt>
      <trkpt lat="47.77712" lon="9.13037">
        <ele>402.779765</ele>
        <time>2022-09-14T03:27:35.923Z</time>
      </trkpt>
      <trkpt lat="47.77724" lon="9.13028">
        <ele>402.721899</ele>
        <time>2022-09-14T03:27:38.750Z</time>
      </trkpt>
      <trkpt lat="47.77759" lon="9.13007">
        <ele>402.56204</ele>
        <time>2022-09-14T03:27:47.150Z</time>
      </trkpt>
      <trkpt lat="47.77791" lon="9.12991">
        <ele>402.440757</ele>
        <time>2022-09-14T03:27:54.277Z</time>
      </trkpt>
      <trkpt lat="47.77802" lon="9.12975">
        <ele>402.38638</ele>
        <time>2022-09-14T03:27:57.603Z</time>
      </trkpt>
      <trkpt lat="47.77907" lon="9.12914">
        <ele>401.975834</ele>
        <time>2022-09-14T03:28:27.723Z</time>
      </trkpt>
      <trkpt lat="47.78017" lon="9.12834">
        <ele>402.941751</ele>
        <time>2022-09-14T03:29:07.141Z</time>
      </trkpt>
      <trkpt lat="47.78161" lon="9.12664">
        <ele>403.675266</ele>
        <time>2022-09-14T03:30:02.773Z</time>
      </trkpt>
      <trkpt lat="47.78258" lon="9.12528">
        <ele>402.811534</ele>
        <time>2022-09-14T03:30:33.823Z</time>
      </trkpt>
      <trkpt lat="47.78329" lon="9.12384">
        <ele>401.35165</ele>
        <time>2022-09-14T03:30:59.565Z</time>
      </trkpt>
      <trkpt lat="47.78462" lon="9.12078">
        <ele>400.184237</ele>
        <time>2022-09-14T03:31:59.920Z</time>
      </trkpt>
      <trkpt lat="47.78485" lon="9.12053">
        <ele>400.182136</ele>
        <time>2022-09-14T03:32:07.700Z</time>
      </trkpt>
      <trkpt lat="47.78492" lon="9.12036">
        <ele>400.181179</ele>
        <time>2022-09-14T03:32:11.909Z</time>
      </trkpt>
      <trkpt lat="47.78503" lon="9.1201">
        <ele>400.179617</ele>
        <time>2022-09-14T03:32:17.342Z</time>
      </trkpt>
      <trkpt lat="47.78529" lon="9.11983">
        <ele>400.177268</ele>
        <time>2022-09-14T03:32:26.570Z</time>
      </trkpt>
      <trkpt lat="47.78555" lon="9.11988">
        <ele>400.212166</ele>
        <time>2022-09-14T03:32:34.668Z</time>
      </trkpt>
      <trkpt lat="47.78591" lon="9.11955">
        <ele>400.284977</ele>
        <time>2022-09-14T03:32:46.517Z</time>
      </trkpt>
      <trkpt lat="47.7861" lon="9.11948">
        <ele>400.319898</ele>
        <time>2022-09-14T03:32:52.307Z</time>
      </trkpt>
      <trkpt lat="47.78673" lon="9.11821">
        <ele>400.532095</ele>
        <time>2022-09-14T03:33:19.547Z</time>
      </trkpt>
      <trkpt lat="47.78814" lon="9.11475">
        <ele>402.922499</ele>
        <time>2022-09-14T03:34:39.967Z</time>
      </trkpt>
      <trkpt lat="47.78822" lon="9.11464">
        <ele>403.08418</ele>
        <time>2022-09-14T03:34:44.606Z</time>
      </trkpt>
      <trkpt lat="47.78845" lon="9.1146">
        <ele>403.449603</ele>
        <time>2022-09-14T03:34:53.476Z</time>
      </trkpt>
      <trkpt lat="47.78863" lon="9.1147">
        <ele>403.746911</ele>
        <time>2022-09-14T03:35:02.191Z</time>
      </trkpt>
      <trkpt lat="47.78885" lon="9.1147">
        <ele>404.083114</ele>
        <time>2022-09-14T03:35:09.495Z</time>
      </trkpt>
      <trkpt lat="47.78903" lon="9.11462">
        <ele>404.353423</ele>
        <time>2022-09-14T03:35:18.219Z</time>
      </trkpt>
      <trkpt lat="47.78969" lon="9.11365">
        <ele>405.650252</ele>
        <time>2022-09-14T03:35:52.444Z</time>
      </trkpt>
      <trkpt lat="47.79009" lon="9.11323">
        <ele>406.337054</ele>
        <time>2022-09-14T03:36:08.929Z</time>
      </trkpt>
      <trkpt lat="47.79036" lon="9.1123">
        <ele>405.877815</ele>
        <time>2022-09-14T03:36:24.194Z</time>
      </trkpt>
      <trkpt lat="47.79082" lon="9.11131">
        <ele>404.400349</ele>
        <time>2022-09-14T03:36:40.595Z</time>
      </trkpt>
      <trkpt lat="47.79115" lon="9.11034">
        <ele>403.1733</ele>
        <time>2022-09-14T03:36:55.924Z</time>
      </trkpt>
      <trkpt lat="47.79123" lon="9.10998">
        <ele>402.87445</ele>
        <time>2022-09-14T03:37:01.351Z</time>
      </trkpt>
      <trkpt lat="47.79121" lon="9.10991">
        <ele>402.812367</ele>
        <time>2022-09-14T03:37:02.466Z</time>
      </trkpt>
      <trkpt lat="47.79133" lon="9.10971">
        <ele>402.599675</ele>
        <time>2022-09-14T03:37:06.526Z</time>
      </trkpt>
      <trkpt lat="47.79221" lon="9.10784">
        <ele>401.106841</ele>
        <time>2022-09-14T03:37:42.901Z</time>
      </trkpt>
      <trkpt lat="47.79292" lon="9.10626">
        <ele>400.610466</ele>
        <time>2022-09-14T03:38:16.768Z</time>
      </trkpt>
      <trkpt lat="47.79327" lon="9.10549">
        <ele>400.104888</ele>
        <time>2022-09-14T03:38:31.459Z</time>
      </trkpt>
      <trkpt lat="47.79355" lon="9.10472">
        <ele>399.570307</ele>
        <time>2022-09-14T03:38:44.805Z</time>
      </trkpt>
      <trkpt lat="47.79417" lon="9.10242">
        <ele>398.226647</ele>
        <time>2022-09-14T03:39:23.593Z</time>
      </trkpt>
      <trkpt lat="47.79464" lon="9.10064">
        <ele>397.559187</ele>
        <time>2022-09-14T03:39:55.155Z</time>
      </trkpt>
      <trkpt lat="47.79484" lon="9.09956">
        <ele>397.456716</ele>
        <time>2022-09-14T03:40:14.492Z</time>
      </trkpt>
      <trkpt lat="47.79498" lon="9.09775">
        <ele>397.99938</ele>
        <time>2022-09-14T03:40:48.478Z</time>
      </trkpt>
      <trkpt lat="47.79508" lon="9.09728">
        <ele>398.337769</ele>
        <time>2022-09-14T03:40:59.009Z</time>
      </trkpt>
      <trkpt lat="47.79517" lon="9.09692">
        <ele>398.5981</ele>
        <time>2022-09-14T03:41:07.485Z</time>
      </trkpt>
      <trkpt lat="47.79542" lon="9.09643">
        <ele>399.016349</ele>
        <time>2022-09-14T03:41:21.311Z</time>
      </trkpt>
      <trkpt lat="47.79553" lon="9.09629">
        <ele>399.162346</ele>
        <time>2022-09-14T03:41:26.407Z</time>
      </trkpt>
      <trkpt lat="47.79556" lon="9.09633">
        <ele>399.215467</ele>
        <time>2022-09-14T03:41:28.246Z</time>
      </trkpt>
      <trkpt lat="47.79582" lon="9.09596">
        <ele>399.726018</ele>
        <time>2022-09-14T03:41:41.771Z</time>
      </trkpt>
      <trkpt lat="47.79626" lon="9.09471">
        <ele>401.079004</ele>
        <time>2022-09-14T03:42:14.631Z</time>
      </trkpt>
      <trkpt lat="47.79649" lon="9.09422">
        <ele>401.659403</ele>
        <time>2022-09-14T03:42:27.626Z</time>
      </trkpt>
      <trkpt lat="47.79713" lon="9.09277">
        <ele>401.946961</ele>
        <time>2022-09-14T03:43:00.417Z</time>
      </trkpt>
      <trkpt lat="47.79745" lon="9.09106">
        <ele>402.041826</ele>
        <time>2022-09-14T03:43:30.602Z</time>
      </trkpt>
      <trkpt lat="47.79764" lon="9.09043">
        <ele>402.02365</ele>
        <time>2022-09-14T03:43:42.462Z</time>
      </trkpt>
      <trkpt lat="47.79774" lon="9.0904">
        <ele>402.019658</ele>
        <time>2022-09-14T03:43:45.211Z</time>
      </trkpt>
      <trkpt lat="47.79782" lon="9.09045">
        <ele>402.016112</ele>
        <time>2022-09-14T03:43:47.715Z</time>
      </trkpt>
      <trkpt lat="47.79786" lon="9.09035">
        <ele>402.013014</ele>
        <time>2022-09-14T03:43:49.819Z</time>
      </trkpt>
      <trkpt lat="47.79791" lon="9.09018">
        <ele>402.008075</ele>
        <time>2022-09-14T03:43:53.055Z</time>
      </trkpt>
      <trkpt lat="47.79794" lon="9.09001">
        <ele>402.00359</ele>
        <time>2022-09-14T03:43:56.217Z</time>
      </trkpt>
      <trkpt lat="47.79796" lon="9.08983">
        <ele>401.998483</ele>
        <time>2022-09-14T03:43:59.794Z</time>
      </trkpt>
      <trkpt lat="47.79799" lon="9.08972">
        <ele>401.995329</ele>
        <time>2022-09-14T03:44:01.893Z</time>
      </trkpt>
      <trkpt lat="47.79802" lon="9.08962">
        <ele>401.992597</ele>
        <time>2022-09-14T03:44:03.810Z</time>
      </trkpt>
      <trkpt lat="47.79841" lon="9.08854">
        <ele>402.160471</ele>
        <time>2022-09-14T03:44:28.020Z</time>
      </trkpt>
      <trkpt lat="47.79864" lon="9.08813">
        <ele>402.241069</ele>
        <time>2022-09-14T03:44:37.502Z</time>
      </trkpt>
      <trkpt lat="47.79913" lon="9.08748">
        <ele>402.389985</ele>
        <time>2022-09-14T03:44:55.205Z</time>
      </trkpt>
      <trkpt lat="47.79923" lon="9.08744">
        <ele>402.410636</ele>
        <time>2022-09-14T03:44:58.583Z</time>
      </trkpt>
      <trkpt lat="47.79952" lon="9.08682">
        <ele>402.513639</ele>
        <time>2022-09-14T03:45:11.879Z</time>
      </trkpt>
      <trkpt lat="47.79999" lon="9.08631">
        <ele>402.63009</ele>
        <time>2022-09-14T03:45:27.910Z</time>
      </trkpt>
      <trkpt lat="47.80039" lon="9.08562">
        <ele>402.753634</ele>
        <time>2022-09-14T03:45:43.785Z</time>
      </trkpt>
      <trkpt lat="47.80068" lon="9.08485">
        <ele>403.933342</ele>
        <time>2022-09-14T03:46:01.948Z</time>
      </trkpt>
      <trkpt lat="47.80091" lon="9.08395">
        <ele>405.286494</ele>
        <time>2022-09-14T03:46:25.280Z</time>
      </trkpt>
      <trkpt lat="47.80252" lon="9.08086">
        <ele>413.615019</ele>
        <time>2022-09-14T03:48:23.595Z</time>
      </trkpt>
      <trkpt lat="47.80304" lon="9.07998">
        <ele>414.812147</ele>
        <time>2022-09-14T03:48:55.391Z</time>
      </trkpt>
      <trkpt lat="47.80335" lon="9.07962">
        <ele>415.412863</ele>
        <time>2022-09-14T03:49:07.177Z</time>
      </trkpt>
      <trkpt lat="47.80365" lon="9.07905">
        <ele>415.701963</ele>
        <time>2022-09-14T03:49:18.600Z</time>
      </trkpt>
      <trkpt lat="47.80456" lon="9.07707">
        <ele>411.644991</ele>
        <time>2022-09-14T03:49:50.948Z</time>
      </trkpt>
      <trkpt lat="47.80494" lon="9.07658">
        <ele>409.967894</ele>
        <time>2022-09-14T03:50:00.366Z</time>
      </trkpt>
      <trkpt lat="47.80576" lon="9.0758">
        <ele>406.548312</ele>
        <time>2022-09-14T03:50:18.917Z</time>
      </trkpt>
      <trkpt lat="47.80598" lon="9.07544">
        <ele>405.390532</ele>
        <time>2022-09-14T03:50:25.488Z</time>
      </trkpt>
      <trkpt lat="47.80635" lon="9.07476">
        <ele>403.978018</ele>
        <time>2022-09-14T03:50:37.097Z</time>
      </trkpt>
      <trkpt lat="47.80656" lon="9.07412">
        <ele>402.884081</ele>
        <time>2022-09-14T03:50:46.667Z</time>
      </trkpt>
      <trkpt lat="47.80709" lon="9.07263">
        <ele>400.928689</ele>
        <time>2022-09-14T03:51:11.082Z</time>
      </trkpt>
      <trkpt lat="47.8082" lon="9.07079">
        <ele>400.468263</ele>
        <time>2022-09-14T03:51:55.814Z</time>
      </trkpt>
      <trkpt lat="47.80854" lon="9.07024">
        <ele>400.632138</ele>
        <time>2022-09-14T03:52:10.000Z</time>
      </trkpt>
      <trkpt lat="47.80854" lon="9.06995">
        <ele>400.695786</ele>
        <time>2022-09-14T03:52:15.146Z</time>
      </trkpt>
      <trkpt lat="47.80929" lon="9.06902">
        <ele>401.043207</ele>
        <time>2022-09-14T03:52:43.379Z</time>
      </trkpt>
      <trkpt lat="47.80959" lon="9.06873">
        <ele>401.317086</ele>
        <time>2022-09-14T03:52:54.090Z</time>
      </trkpt>
      <trkpt lat="47.81221" lon="9.06671">
        <ele>403.359289</ele>
        <time>2022-09-14T03:54:24.478Z</time>
      </trkpt>
      <trkpt lat="47.81291" lon="9.06601">
        <ele>403.323664</ele>
        <time>2022-09-14T03:54:46.369Z</time>
      </trkpt>
      <trkpt lat="47.81342" lon="9.06538">
        <ele>403.125808</ele>
        <time>2022-09-14T03:55:02.670Z</time>
      </trkpt>
      <trkpt lat="47.81492" lon="9.06284">
        <ele>402.137526</ele>
        <time>2022-09-14T03:55:59.224Z</time>
      </trkpt>
      <trkpt lat="47.81512" lon="9.0625">
        <ele>401.866787</ele>
        <time>2022-09-14T03:56:06.578Z</time>
      </trkpt>
      <trkpt lat="47.8153" lon="9.06217">
        <ele>401.586758</ele>
        <time>2022-09-14T03:56:13.401Z</time>
      </trkpt>
      <trkpt lat="47.81556" lon="9.06118">
        <ele>400.890949</ele>
        <time>2022-09-14T03:56:30.144Z</time>
      </trkpt>
      <trkpt lat="47.81566" lon="9.06064">
        <ele>400.53088</ele>
        <time>2022-09-14T03:56:38.572Z</time>
      </trkpt>
      <trkpt lat="47.81569" lon="9.05966">
        <ele>399.742668</ele>
        <time>2022-09-14T03:56:52.896Z</time>
      </trkpt>
      <trkpt lat="47.81566" lon="9.05912">
        <ele>399.278361</ele>
        <time>2022-09-14T03:57:00.893Z</time>
      </trkpt>
      <trkpt lat="47.81544" lon="9.05905">
        <ele>399.003277</ele>
        <time>2022-09-14T03:57:05.677Z</time>
      </trkpt>
      <trkpt lat="47.81533" lon="9.0578">
        <ele>398.012069</ele>
        <time>2022-09-14T03:57:25.778Z</time>
      </trkpt>
      <trkpt lat="47.81526" lon="9.05692">
        <ele>397.680849</ele>
        <time>2022-09-14T03:57:39.325Z</time>
      </trkpt>
      <trkpt lat="47.81521" lon="9.05625">
        <ele>397.427497</ele>
        <time>2022-09-14T03:57:50.214Z</time>
      </trkpt>
      <trkpt lat="47.81514" lon="9.05588">
        <ele>397.282632</ele>
        <time>2022-09-14T03:57:57.064Z</time>
      </trkpt>
      <trkpt lat="47.81513" lon="9.05566">
        <ele>397.200989</ele>
        <time>2022-09-14T03:58:00.698Z</time>
      </trkpt>
      <trkpt lat="47.81512" lon="9.05528">
        <ele>397.066997</ele>
        <time>2022-09-14T03:58:07.646Z</time>
      </trkpt>
      <trkpt lat="47.81491" lon="9.05508">
        <ele>397.010883</ele>
        <time>2022-09-14T03:58:14.560Z</time>
      </trkpt>
      <trkpt lat="47.81485" lon="9.05492">
        <ele>396.981469</ele>
        <time>2022-09-14T03:58:17.826Z</time>
      </trkpt>
      <trkpt lat="47.81492" lon="9.05477">
        <ele>396.953804</ele>
        <time>2022-09-14T03:58:21.043Z</time>
      </trkpt>
      <trkpt lat="47.81499" lon="9.05474">
        <ele>396.936053</ele>
        <time>2022-09-14T03:58:23.442Z</time>
      </trkpt>
      <trkpt lat="47.81526" lon="9.05485">
        <ele>396.873305</ele>
        <time>2022-09-14T03:58:30.269Z</time>
      </trkpt>
      <trkpt lat="47.81529" lon="9.05487">
        <ele>396.864925</ele>
        <time>2022-09-14T03:58:31.291Z</time>
      </trkpt>
      <trkpt lat="47.81542" lon="9.05493">
        <ele>396.835036</ele>
        <time>2022-09-14T03:58:34.678Z</time>
      </trkpt>
      <trkpt lat="47.81547" lon="9.05457">
        <ele>396.77994</ele>
        <time>2022-09-14T03:58:40.690Z</time>
      </trkpt>
      <trkpt lat="47.81555" lon="9.05419">
        <ele>396.719229</ele>
        <time>2022-09-14T03:58:47.339Z</time>
      </trkpt>
      <trkpt lat="47.81559" lon="9.05393">
        <ele>396.677184</ele>
        <time>2022-09-14T03:58:52.483Z</time>
      </trkpt>
      <trkpt lat="47.81569" lon="9.0538">
        <ele>396.685988</ele>
        <time>2022-09-14T03:58:55.710Z</time>
      </trkpt>
      <trkpt lat="47.81574" lon="9.05351">
        <ele>396.744768</ele>
        <time>2022-09-14T03:59:01.604Z</time>
      </trkpt>
      <trkpt lat="47.81581" lon="9.05301">
        <ele>396.843578</ele>
        <time>2022-09-14T03:59:11.280Z</time>
      </trkpt>
      <trkpt lat="47.81575" lon="9.05286">
        <ele>396.877534</ele>
        <time>2022-09-14T03:59:16.596Z</time>
      </trkpt>
      <trkpt lat="47.81573" lon="9.05273">
        <ele>396.904962</ele>
        <time>2022-09-14T03:59:19.140Z</time>
      </trkpt>
      <trkpt lat="47.81581" lon="9.05215">
        <ele>397.02068</ele>
        <time>2022-09-14T03:59:30.897Z</time>
      </trkpt>
      <trkpt lat="47.81585" lon="9.05191">
        <ele>397.068504</ele>
        <time>2022-09-14T03:59:38.593Z</time>
      </trkpt>
      <trkpt lat="47.81592" lon="9.05144">
        <ele>397.160917</ele>
        <time>2022-09-14T03:59:48.166Z</time>
      </trkpt>
      <trkpt lat="47.81602" lon="9.0507">
        <ele>397.74016</ele>
        <time>2022-09-14T04:00:04.414Z</time>
      </trkpt>
      <trkpt lat="47.81615" lon="9.05044">
        <ele>398.015882</ele>
        <time>2022-09-14T04:00:11.232Z</time>
      </trkpt>
      <trkpt lat="47.81619" lon="9.05033">
        <ele>398.128832</ele>
        <time>2022-09-14T04:00:14.440Z</time>
      </trkpt>
      <trkpt lat="47.81619" lon="9.04979">
        <ele>398.598153</ele>
        <time>2022-09-14T04:00:26.965Z</time>
      </trkpt>
      <trkpt lat="47.81624" lon="9.04955">
        <ele>398.817393</ele>
        <time>2022-09-14T04:00:32.968Z</time>
      </trkpt>
      <trkpt lat="47.81724" lon="9.04529">
        <ele>402.433477</ele>
        <time>2022-09-14T04:02:13.271Z</time>
      </trkpt>
      <trkpt lat="47.81739" lon="9.04488">
        <ele>402.65139</ele>
        <time>2022-09-14T04:02:22.734Z</time>
      </trkpt>
      <trkpt lat="47.81766" lon="9.04383">
        <ele>403.173341</ele>
        <time>2022-09-14T04:02:43.963Z</time>
      </trkpt>
      <trkpt lat="47.81788" lon="9.04225">
        <ele>402.875091</ele>
        <time>2022-09-14T04:03:11.721Z</time>
      </trkpt>
      <trkpt lat="47.81836" lon="9.03763">
        <ele>401.226819</ele>
        <time>2022-09-14T04:04:27.972Z</time>
      </trkpt>
      <trkpt lat="47.81855" lon="9.03556">
        <ele>400.487497</ele>
        <time>2022-09-14T04:05:02.106Z</time>
      </trkpt>
      <trkpt lat="47.81879" lon="9.03306">
        <ele>399.988681</ele>
        <time>2022-09-14T04:05:45.443Z</time>
      </trkpt>
      <trkpt lat="47.81879" lon="9.03247">
        <ele>400.009583</ele>
        <time>2022-09-14T04:05:56.197Z</time>
      </trkpt>
      <trkpt lat="47.81869" lon="9.03104">
        <ele>400.060125</ele>
        <time>2022-09-14T04:06:22.349Z</time>
      </trkpt>
      <trkpt lat="47.81843" lon="9.02885">
        <ele>400.129651</ele>
        <time>2022-09-14T04:07:03.464Z</time>
      </trkpt>
      <trkpt lat="47.81809" lon="9.02598">
        <ele>399.606421</ele>
        <time>2022-09-14T04:07:53.789Z</time>
      </trkpt>
      <trkpt lat="47.818" lon="9.02583">
        <ele>399.551603</ele>
        <time>2022-09-14T04:07:56.837Z</time>
      </trkpt>
      <trkpt lat="47.81782" lon="9.02575">
        <ele>399.471022</ele>
        <time>2022-09-14T04:08:01.346Z</time>
      </trkpt>
      <trkpt lat="47.81698" lon="9.02554">
        <ele>398.84255</ele>
        <time>2022-09-14T04:08:21.083Z</time>
      </trkpt>
      <trkpt lat="47.81513" lon="9.02484">
        <ele>397.615259</ele>
        <time>2022-09-14T04:09:06.628Z</time>
      </trkpt>
      <trkpt lat="47.81411" lon="9.02439">
        <ele>397.222116</ele>
        <time>2022-09-14T04:09:34.730Z</time>
      </trkpt>
      <trkpt lat="47.81343" lon="9.02372">
        <ele>397.198067</ele>
        <time>2022-09-14T04:09:56.299Z</time>
      </trkpt>
      <trkpt lat="47.8133" lon="9.02349">
        <ele>397.192003</ele>
        <time>2022-09-14T04:10:01.804Z</time>
      </trkpt>
      <trkpt lat="47.81306" lon="9.02275">
        <ele>397.175515</ele>
        <time>2022-09-14T04:10:16.503Z</time>
      </trkpt>
      <trkpt lat="47.81297" lon="9.02263">
        <ele>397.171773</ele>
        <time>2022-09-14T04:10:19.900Z</time>
      </trkpt>
      <trkpt lat="47.81213" lon="9.02262">
        <ele>397.076113</ele>
        <time>2022-09-14T04:10:41.686Z</time>
      </trkpt>
      <trkpt lat="47.81153" lon="9.0228">
        <ele>397.001453</ele>
        <time>2022-09-14T04:10:57.786Z</time>
      </trkpt>
      <trkpt lat="47.81149" lon="9.02283">
        <ele>396.996265</ele>
        <time>2022-09-14T04:10:58.882Z</time>
      </trkpt>
      <trkpt lat="47.81123" lon="9.02308">
        <ele>396.958842</ele>
        <time>2022-09-14T04:11:06.926Z</time>
      </trkpt>
      <trkpt lat="47.81087" lon="9.02357">
        <ele>396.936409</ele>
        <time>2022-09-14T04:11:19.253Z</time>
      </trkpt>
      <trkpt lat="47.81083" lon="9.02364">
        <ele>396.934004</ele>
        <time>2022-09-14T04:11:20.834Z</time>
      </trkpt>
      <trkpt lat="47.81079" lon="9.02369">
        <ele>396.932105</ele>
        <time>2022-09-14T04:11:22.099Z</time>
      </trkpt>
      <trkpt lat="47.80977" lon="9.02521">
        <ele>396.926799</ele>
        <time>2022-09-14T04:12:00.920Z</time>
      </trkpt>
      <trkpt lat="47.80947" lon="9.02558">
        <ele>397.010472</ele>
        <time>2022-09-14T04:12:11.545Z</time>
      </trkpt>
      <trkpt lat="47.80888" lon="9.02609">
        <ele>397.156683</ele>
        <time>2022-09-14T04:12:30.581Z</time>
      </trkpt>
      <trkpt lat="47.80835" lon="9.0264">
        <ele>397.288857</ele>
        <time>2022-09-14T04:12:46.911Z</time>
      </trkpt>
      <trkpt lat="47.80804" lon="9.02644">
        <ele>397.450699</ele>
        <time>2022-09-14T04:12:55.733Z</time>
      </trkpt>
      <trkpt lat="47.80744" lon="9.0265">
        <ele>397.764919</ele>
        <time>2022-09-14T04:13:12.267Z</time>
      </trkpt>
      <trkpt lat="47.8071" lon="9.02646">
        <ele>397.944304</ele>
        <time>2022-09-14T04:13:21.997Z</time>
      </trkpt>
      <trkpt lat="47.80657" lon="9.02627">
        <ele>398.286918</ele>
        <time>2022-09-14T04:13:38.638Z</time>
      </trkpt>
      <trkpt lat="47.80607" lon="9.02596">
        <ele>399.325645</ele>
        <time>2022-09-14T04:13:56.658Z</time>
      </trkpt>
      <trkpt lat="47.80609" lon="9.02589">
        <ele>399.424581</ele>
        <time>2022-09-14T04:13:58.428Z</time>
      </trkpt>
      <trkpt lat="47.80612" lon="9.02581">
        <ele>399.532121</ele>
        <time>2022-09-14T04:14:00.361Z</time>
      </trkpt>
      <trkpt lat="47.80604" lon="9.02546">
        <ele>400.011328</ele>
        <time>2022-09-14T04:14:09.408Z</time>
      </trkpt>
      <trkpt lat="47.80598" lon="9.02539">
        <ele>400.154798</ele>
        <time>2022-09-14T04:14:12.099Z</time>
      </trkpt>
      <trkpt lat="47.8057" lon="9.02543">
        <ele>400.702469</ele>
        <time>2022-09-14T04:14:22.925Z</time>
      </trkpt>
      <trkpt lat="47.80405" lon="9.02457">
        <ele>404.597881</ele>
        <time>2022-09-14T04:15:32.139Z</time>
      </trkpt>
      <trkpt lat="47.80376" lon="9.02417">
        <ele>405.542629</ele>
        <time>2022-09-14T04:15:46.800Z</time>
      </trkpt>
      <trkpt lat="47.80366" lon="9.02393">
        <ele>405.920837</ele>
        <time>2022-09-14T04:15:53.075Z</time>
      </trkpt>
      <trkpt lat="47.8036" lon="9.02349">
        <ele>406.148722</ele>
        <time>2022-09-14T04:16:03.470Z</time>
      </trkpt>
      <trkpt lat="47.80365" lon="9.02279">
        <ele>406.503544</ele>
        <time>2022-09-14T04:16:18.061Z</time>
      </trkpt>
      <trkpt lat="47.80389" lon="9.02159">
        <ele>407.13501</ele>
        <time>2022-09-14T04:16:42.078Z</time>
      </trkpt>
      <trkpt lat="47.80396" lon="9.02092">
        <ele>407.174694</ele>
        <time>2022-09-14T04:16:53.906Z</time>
      </trkpt>
      <trkpt lat="47.80438" lon="9.0173">
        <ele>406.546428</ele>
        <time>2022-09-14T04:17:56.158Z</time>
      </trkpt>
      <trkpt lat="47.80488" lon="9.0131">
        <ele>406.291915</ele>
        <time>2022-09-14T04:19:11.528Z</time>
      </trkpt>
      <trkpt lat="47.80488" lon="9.01224">
        <ele>406.550506</ele>
        <time>2022-09-14T04:19:27.698Z</time>
      </trkpt>
      <trkpt lat="47.80472" lon="9.00995">
        <ele>407.371232</ele>
        <time>2022-09-14T04:20:14.330Z</time>
      </trkpt>
      <trkpt lat="47.80477" lon="9.0088">
        <ele>407.887464</ele>
        <time>2022-09-14T04:20:37.304Z</time>
      </trkpt>
      <trkpt lat="47.80509" lon="9.00698">
        <ele>409.141505</ele>
        <time>2022-09-14T04:21:14.906Z</time>
      </trkpt>
      <trkpt lat="47.80512" lon="9.0053">
        <ele>410.689282</ele>
        <time>2022-09-14T04:21:52.890Z</time>
      </trkpt>
      <trkpt lat="47.80518" lon="9.00412">
        <ele>412.918238</ele>
        <time>2022-09-14T04:22:24.009Z</time>
      </trkpt>
      <trkpt lat="47.80521" lon="9.00267">
        <ele>415.719492</ele>
        <time>2022-09-14T04:23:05.831Z</time>
      </trkpt>
      <trkpt lat="47.80499" lon="9.00137">
        <ele>418.690756</ele>
        <time>2022-09-14T04:23:45.192Z</time>
      </trkpt>
      <trkpt lat="47.8046" lon="8.99887">
        <ele>423.429349</ele>
        <time>2022-09-14T04:24:56.104Z</time>
      </trkpt>
      <trkpt lat="47.8044" lon="8.99781">
        <ele>425.143493</ele>
        <time>2022-09-14T04:25:22.665Z</time>
      </trkpt>
      <trkpt lat="47.80412" lon="8.9968">
        <ele>425.456641</ele>
        <time>2022-09-14T04:25:45.686Z</time>
      </trkpt>
      <trkpt lat="47.80296" lon="8.99389">
        <ele>424.79381</ele>
        <time>2022-09-14T04:26:41.023Z</time>
      </trkpt>
      <trkpt lat="47.80303" lon="8.99368">
        <ele>424.688943</ele>
        <time>2022-09-14T04:26:44.410Z</time>
      </trkpt>
      <trkpt lat="47.80291" lon="8.99334">
        <ele>424.517007</ele>
        <time>2022-09-14T04:26:50.342Z</time>
      </trkpt>
      <trkpt lat="47.80291" lon="8.99319">
        <ele>424.446693</ele>
        <time>2022-09-14T04:26:52.751Z</time>
      </trkpt>
      <trkpt lat="47.80295" lon="8.99303">
        <ele>424.368877</ele>
        <time>2022-09-14T04:26:55.909Z</time>
      </trkpt>
      <trkpt lat="47.80317" lon="8.99281">
        <ele>424.465609</ele>
        <time>2022-09-14T04:27:02.007Z</time>
      </trkpt>
      <trkpt lat="47.80316" lon="8.9926">
        <ele>424.582036</ele>
        <time>2022-09-14T04:27:05.796Z</time>
      </trkpt>
      <trkpt lat="47.80317" lon="8.99237">
        <ele>424.712506</ele>
        <time>2022-09-14T04:27:09.438Z</time>
      </trkpt>
      <trkpt lat="47.80315" lon="8.99222">
        <ele>424.79919</ele>
        <time>2022-09-14T04:27:12.806Z</time>
      </trkpt>
      <trkpt lat="47.80309" lon="8.9921">
        <ele>424.887041</ele>
        <time>2022-09-14T04:27:15.719Z</time>
      </trkpt>
      <trkpt lat="47.80273" lon="8.99196">
        <ele>425.193769</ele>
        <time>2022-09-14T04:27:27.204Z</time>
      </trkpt>
      <trkpt lat="47.80234" lon="8.99158">
        <ele>425.588343</ele>
        <time>2022-09-14T04:27:43.188Z</time>
      </trkpt>
      <trkpt lat="47.80194" lon="8.99095">
        <ele>426.310029</ele>
        <time>2022-09-14T04:28:05.065Z</time>
      </trkpt>
      <trkpt lat="47.80158" lon="8.99025">
        <ele>427.245408</ele>
        <time>2022-09-14T04:28:27.182Z</time>
      </trkpt>
      <trkpt lat="47.80113" lon="8.98923">
        <ele>428.565667</ele>
        <time>2022-09-14T04:28:55.128Z</time>
      </trkpt>
      <trkpt lat="47.80048" lon="8.98823">
        <ele>428.473759</ele>
        <time>2022-09-14T04:29:19.410Z</time>
      </trkpt>
      <trkpt lat="47.79861" lon="8.98644">
        <ele>428.261257</ele>
        <time>2022-09-14T04:30:12.831Z</time>
      </trkpt>
      <trkpt lat="47.79775" lon="8.98539">
        <ele>429.962314</ele>
        <time>2022-09-14T04:30:51.137Z</time>
      </trkpt>
      <trkpt lat="47.79732" lon="8.98472">
        <ele>431.741274</ele>
        <time>2022-09-14T04:31:16.608Z</time>
      </trkpt>
      <trkpt lat="47.79628" lon="8.98293">
        <ele>436.958854</ele>
        <time>2022-09-14T04:32:30.304Z</time>
      </trkpt>
      <trkpt lat="47.79573" lon="8.98218">
        <ele>439.574782</ele>
        <time>2022-09-14T04:33:01.359Z</time>
      </trkpt>
      <trkpt lat="47.79525" lon="8.9816">
        <ele>440.453131</ele>
        <time>2022-09-14T04:33:25.007Z</time>
      </trkpt>
      <trkpt lat="47.79469" lon="8.98085">
        <ele>441.385542</ele>
        <time>2022-09-14T04:33:49.503Z</time>
      </trkpt>
      <trkpt lat="47.7945" lon="8.9806">
        <ele>441.70031</ele>
        <time>2022-09-14T04:33:56.296Z</time>
      </trkpt>
      <trkpt lat="47.7944" lon="8.98057">
        <ele>441.835525</ele>
        <time>2022-09-14T04:33:59.124Z</time>
      </trkpt>
      <trkpt lat="47.79429" lon="8.98058">
        <ele>441.971152</ele>
        <time>2022-09-14T04:34:02.147Z</time>
      </trkpt>
      <trkpt lat="47.79386" lon="8.98004">
        <ele>441.747846</ele>
        <time>2022-09-14T04:34:15.433Z</time>
      </trkpt>
      <trkpt lat="47.7935" lon="8.97971">
        <ele>441.563126</ele>
        <time>2022-09-14T04:34:25.936Z</time>
      </trkpt>
      <trkpt lat="47.7932" lon="8.97953">
        <ele>441.423572</ele>
        <time>2022-09-14T04:34:33.925Z</time>
      </trkpt>
      <trkpt lat="47.79283" lon="8.9793">
        <ele>441.248963</ele>
        <time>2022-09-14T04:34:43.982Z</time>
      </trkpt>
      <trkpt lat="47.79253" lon="8.97904">
        <ele>441.005693</ele>
        <time>2022-09-14T04:34:52.609Z</time>
      </trkpt>
      <trkpt lat="47.79197" lon="8.97859">
        <ele>440.488285</ele>
        <time>2022-09-14T04:35:07.318Z</time>
      </trkpt>
      <trkpt lat="47.79179" lon="8.97844">
        <ele>440.322908</ele>
        <time>2022-09-14T04:35:12.029Z</time>
      </trkpt>
      <trkpt lat="47.79134" lon="8.97804">
        <ele>439.905419</ele>
        <time>2022-09-14T04:35:24.332Z</time>
      </trkpt>
      <trkpt lat="47.7912" lon="8.9778">
        <ele>439.741521</ele>
        <time>2022-09-14T04:35:29.645Z</time>
      </trkpt>
      <trkpt lat="47.79113" lon="8.97741">
        <ele>439.650965</ele>
        <time>2022-09-14T04:35:36.135Z</time>
      </trkpt>
      <trkpt lat="47.79119" lon="8.97691">
        <ele>439.539866</ele>
        <time>2022-09-14T04:35:44.393Z</time>
      </trkpt>
      <trkpt lat="47.7912" lon="8.97686">
        <ele>439.526809</ele>
        <time>2022-09-14T04:35:45.457Z</time>
      </trkpt>
      <trkpt lat="47.7912" lon="8.97659">
        <ele>439.467628</ele>
        <time>2022-09-14T04:35:50.013Z</time>
      </trkpt>
      <trkpt lat="47.79104" lon="8.97618">
        <ele>439.362682</ele>
        <time>2022-09-14T04:35:57.775Z</time>
      </trkpt>
      <trkpt lat="47.79087" lon="8.97611">
        <ele>439.303257</ele>
        <time>2022-09-14T04:36:01.964Z</time>
      </trkpt>
      <trkpt lat="47.78996" lon="8.97629">
        <ele>439.461632</ele>
        <time>2022-09-14T04:36:27.436Z</time>
      </trkpt>
      <trkpt lat="47.78968" lon="8.97614">
        <ele>439.662834</ele>
        <time>2022-09-14T04:36:37.373Z</time>
      </trkpt>
      <trkpt lat="47.78961" lon="8.97598">
        <ele>439.744696</ele>
        <time>2022-09-14T04:36:41.447Z</time>
      </trkpt>
      <trkpt lat="47.78962" lon="8.97578">
        <ele>439.834154</ele>
        <time>2022-09-14T04:36:45.614Z</time>
      </trkpt>
      <trkpt lat="47.78936" lon="8.97578">
        <ele>440.007049</ele>
        <time>2022-09-14T04:36:53.776Z</time>
      </trkpt>
      <trkpt lat="47.78878" lon="8.97561">
        <ele>440.352759</ele>
        <time>2022-09-14T04:37:11.805Z</time>
      </trkpt>
      <trkpt lat="47.78833" lon="8.97531">
        <ele>440.432535</ele>
        <time>2022-09-14T04:37:25.923Z</time>
      </trkpt>
      <trkpt lat="47.78754" lon="8.97457">
        <ele>440.584816</ele>
        <time>2022-09-14T04:37:50.836Z</time>
      </trkpt>
      <trkpt lat="47.78748" lon="8.97452">
        <ele>440.596963</ele>
        <time>2022-09-14T04:37:52.821Z</time>
      </trkpt>
      <trkpt lat="47.78711" lon="8.9742">
        <ele>440.553876</ele>
        <time>2022-09-14T04:38:03.936Z</time>
      </trkpt>
      <trkpt lat="47.78694" lon="8.97404">
        <ele>440.480701</ele>
        <time>2022-09-14T04:38:08.938Z</time>
      </trkpt>
      <trkpt lat="47.78679" lon="8.97388">
        <ele>440.412935</ele>
        <time>2022-09-14T04:38:13.448Z</time>
      </trkpt>
      <trkpt lat="47.78648" lon="8.97349">
        <ele>440.260379</ele>
        <time>2022-09-14T04:38:23.690Z</time>
      </trkpt>
      <trkpt lat="47.78605" lon="8.97319">
        <ele>440.084236</ele>
        <time>2022-09-14T04:38:35.383Z</time>
      </trkpt>
      <trkpt lat="47.78595" lon="8.97315">
        <ele>440.04894</ele>
        <time>2022-09-14T04:38:37.720Z</time>
      </trkpt>
      <trkpt lat="47.7857" lon="8.9731">
        <ele>439.939872</ele>
        <time>2022-09-14T04:38:44.157Z</time>
      </trkpt>
      <trkpt lat="47.78551" lon="8.97307">
        <ele>439.80887</ele>
        <time>2022-09-14T04:38:48.802Z</time>
      </trkpt>
      <trkpt lat="47.7851" lon="8.97292">
        <ele>439.512581</ele>
        <time>2022-09-14T04:38:59.760Z</time>
      </trkpt>
      <trkpt lat="47.78478" lon="8.9727">
        <ele>439.260836</ele>
        <time>2022-09-14T04:39:08.585Z</time>
      </trkpt>
      <trkpt lat="47.78363" lon="8.97211">
        <ele>437.987118</ele>
        <time>2022-09-14T04:39:36.532Z</time>
      </trkpt>
      <trkpt lat="47.78352" lon="8.97213">
        <ele>437.810664</ele>
        <time>2022-09-14T04:39:38.763Z</time>
      </trkpt>
      <trkpt lat="47.78342" lon="8.97196">
        <ele>437.543657</ele>
        <time>2022-09-14T04:39:42.250Z</time>
      </trkpt>
      <trkpt lat="47.78331" lon="8.97191">
        <ele>437.353497</ele>
        <time>2022-09-14T04:39:44.665Z</time>
      </trkpt>
      <trkpt lat="47.78248" lon="8.97151">
        <ele>435.896092</ele>
        <time>2022-09-14T04:40:02.981Z</time>
      </trkpt>
      <trkpt lat="47.78195" lon="8.97122">
        <ele>435.21699</ele>
        <time>2022-09-14T04:40:15.046Z</time>
      </trkpt>
      <trkpt lat="47.7818" lon="8.97108">
        <ele>435.029095</ele>
        <time>2022-09-14T04:40:18.994Z</time>
      </trkpt>
      <trkpt lat="47.78162" lon="8.97083">
        <ele>434.776438</ele>
        <time>2022-09-14T04:40:24.369Z</time>
      </trkpt>
      <trkpt lat="47.78078" lon="8.96978">
        <ele>433.765992</ele>
        <time>2022-09-14T04:40:51.278Z</time>
      </trkpt>
      <trkpt lat="47.7803" lon="8.96916">
        <ele>433.657104</ele>
        <time>2022-09-14T04:41:08.914Z</time>
      </trkpt>
      <trkpt lat="47.77938" lon="8.96767">
        <ele>433.001454</ele>
        <time>2022-09-14T04:41:44.857Z</time>
      </trkpt>
      <trkpt lat="47.77737" lon="8.96538">
        <ele>429.539253</ele>
        <time>2022-09-14T04:42:39.199Z</time>
      </trkpt>
      <trkpt lat="47.77629" lon="8.96447">
        <ele>430.29182</ele>
        <time>2022-09-14T04:43:08.159Z</time>
      </trkpt>
      <trkpt lat="47.77617" lon="8.96438">
        <ele>430.729927</ele>
        <time>2022-09-14T04:43:12.455Z</time>
      </trkpt>
      <trkpt lat="47.77593" lon="8.96401">
        <ele>431.875752</ele>
        <time>2022-09-14T04:43:25.035Z</time>
      </trkpt>
      <trkpt lat="47.77542" lon="8.96296">
        <ele>435.225143</ele>
        <time>2022-09-14T04:44:14.309Z</time>
      </trkpt>
      <trkpt lat="47.77499" lon="8.96292">
        <ele>439.207476</ele>
        <time>2022-09-14T04:44:46.239Z</time>
      </trkpt>
      <trkpt lat="47.77434" lon="8.96303">
        <ele>445.406034</ele>
        <time>2022-09-14T04:45:36.734Z</time>
      </trkpt>
      <trkpt lat="47.77381" lon="8.96301">
        <ele>450.449193</ele>
        <time>2022-09-14T04:46:19.788Z</time>
      </trkpt>
      <trkpt lat="47.77338" lon="8.96273">
        <ele>452.989667</ele>
        <time>2022-09-14T04:46:50.760Z</time>
      </trkpt>
      <trkpt lat="47.7727" lon="8.96173">
        <ele>457.097186</ele>
        <time>2022-09-14T04:47:36.809Z</time>
      </trkpt>
      <trkpt lat="47.77227" lon="8.96125">
        <ele>459.034398</ele>
        <time>2022-09-14T04:47:51.352Z</time>
      </trkpt>
      <trkpt lat="47.7719" lon="8.96068">
        <ele>457.900182</ele>
        <time>2022-09-14T04:48:05.066Z</time>
      </trkpt>
      <trkpt lat="47.77143" lon="8.95947">
        <ele>455.867162</ele>
        <time>2022-09-14T04:48:23.689Z</time>
      </trkpt>
      <trkpt lat="47.77124" lon="8.9591">
        <ele>454.961038</ele>
        <time>2022-09-14T04:48:29.742Z</time>
      </trkpt>
      <trkpt lat="47.77102" lon="8.95885">
        <ele>453.090017</ele>
        <time>2022-09-14T04:48:34.860Z</time>
      </trkpt>
      <trkpt lat="47.77087" lon="8.95871">
        <ele>451.90928</ele>
        <time>2022-09-14T04:48:38.071Z</time>
      </trkpt>
      <trkpt lat="47.77083" lon="8.95868">
        <ele>451.595895</ele>
        <time>2022-09-14T04:48:38.921Z</time>
      </trkpt>
      <trkpt lat="47.77032" lon="8.95851">
        <ele>448.049913</ele>
        <time>2022-09-14T04:48:47.991Z</time>
      </trkpt>
      <trkpt lat="47.76992" lon="8.95857">
        <ele>445.33607</ele>
        <time>2022-09-14T04:48:54.725Z</time>
      </trkpt>
      <trkpt lat="47.76939" lon="8.95879">
        <ele>441.122094</ele>
        <time>2022-09-14T04:49:03.736Z</time>
      </trkpt>
      <trkpt lat="47.76893" lon="8.95906">
        <ele>436.657954</ele>
        <time>2022-09-14T04:49:11.823Z</time>
      </trkpt>
      <trkpt lat="47.76873" lon="8.95934">
        <ele>434.187053</ele>
        <time>2022-09-14T04:49:16.280Z</time>
      </trkpt>
      <trkpt lat="47.76855" lon="8.96006">
        <ele>429.533692</ele>
        <time>2022-09-14T04:49:24.937Z</time>
      </trkpt>
      <trkpt lat="47.76845" lon="8.96026">
        <ele>428.03002</ele>
        <time>2022-09-14T04:49:27.664Z</time>
      </trkpt>
      <trkpt lat="47.76817" lon="8.9604">
        <ele>426.013109</ele>
        <time>2022-09-14T04:49:32.683Z</time>
      </trkpt>
      <trkpt lat="47.76798" lon="8.96031">
        <ele>424.965027</ele>
        <time>2022-09-14T04:49:36.181Z</time>
      </trkpt>
      <trkpt lat="47.76775" lon="8.96009">
        <ele>423.570875</ele>
        <time>2022-09-14T04:49:40.770Z</time>
      </trkpt>
      <trkpt lat="47.7672" lon="8.95956">
        <ele>420.151509</ele>
        <time>2022-09-14T04:49:52.527Z</time>
      </trkpt>
      <trkpt lat="47.76684" lon="8.95922">
        <ele>417.909397</ele>
        <time>2022-09-14T04:50:01.035Z</time>
      </trkpt>
      <trkpt lat="47.76639" lon="8.95876">
        <ele>417.223172</ele>
        <time>2022-09-14T04:50:13.152Z</time>
      </trkpt>
      <trkpt lat="47.76601" lon="8.9584">
        <ele>416.917829</ele>
        <time>2022-09-14T04:50:24.145Z</time>
      </trkpt>
      <trkpt lat="47.76575" lon="8.95826">
        <ele>416.728109</ele>
        <time>2022-09-14T04:50:31.246Z</time>
      </trkpt>
      <trkpt lat="47.76541" lon="8.95823">
        <ele>416.496382</ele>
        <time>2022-09-14T04:50:40.402Z</time>
      </trkpt>
      <trkpt lat="47.76513" lon="8.95828">
        <ele>416.323771</ele>
        <time>2022-09-14T04:50:48.575Z</time>
      </trkpt>
      <trkpt lat="47.76464" lon="8.95834">
        <ele>416.456946</ele>
        <time>2022-09-14T04:51:02.451Z</time>
      </trkpt>
      <trkpt lat="47.76407" lon="8.95829">
        <ele>416.614299</ele>
        <time>2022-09-14T04:51:18.623Z</time>
      </trkpt>
      <trkpt lat="47.76269" lon="8.95787">
        <ele>416.90142</ele>
        <time>2022-09-14T04:51:58.291Z</time>
      </trkpt>
      <trkpt lat="47.76263" lon="8.95785">
        <ele>416.908727</ele>
        <time>2022-09-14T04:51:59.817Z</time>
      </trkpt>
      <trkpt lat="47.76195" lon="8.95759">
        <ele>417.001437</ele>
        <time>2022-09-14T04:52:18.746Z</time>
      </trkpt>
      <trkpt lat="47.76168" lon="8.95736">
        <ele>417.042907</ele>
        <time>2022-09-14T04:52:27.086Z</time>
      </trkpt>
      <trkpt lat="47.76117" lon="8.957">
        <ele>416.810374</ele>
        <time>2022-09-14T04:52:41.805Z</time>
      </trkpt>
      <trkpt lat="47.76042" lon="8.95661">
        <ele>416.463137</ele>
        <time>2022-09-14T04:53:01.355Z</time>
      </trkpt>
      <trkpt lat="47.76002" lon="8.95627">
        <ele>416.261445</ele>
        <time>2022-09-14T04:53:12.487Z</time>
      </trkpt>
      <trkpt lat="47.7593" lon="8.95549">
        <ele>415.105832</ele>
        <time>2022-09-14T04:53:33.671Z</time>
      </trkpt>
      <trkpt lat="47.75834" lon="8.95431">
        <ele>413.517756</ele>
        <time>2022-09-14T04:54:00.308Z</time>
      </trkpt>
      <trkpt lat="47.75794" lon="8.95383">
        <ele>412.882599</ele>
        <time>2022-09-14T04:54:11.331Z</time>
      </trkpt>
      <trkpt lat="47.75737" lon="8.95232">
        <ele>411.870069</ele>
        <time>2022-09-14T04:54:38.395Z</time>
      </trkpt>
      <trkpt lat="47.75696" lon="8.95143">
        <ele>412.396231</ele>
        <time>2022-09-14T04:55:00.335Z</time>
      </trkpt>
      <trkpt lat="47.75688" lon="8.95128">
        <ele>412.491212</ele>
        <time>2022-09-14T04:55:04.747Z</time>
      </trkpt>
      <trkpt lat="47.75679" lon="8.95095">
        <ele>412.664078</ele>
        <time>2022-09-14T04:55:12.432Z</time>
      </trkpt>
      <trkpt lat="47.75675" lon="8.9508">
        <ele>412.744871</ele>
        <time>2022-09-14T04:55:16.245Z</time>
      </trkpt>
      <trkpt lat="47.75665" lon="8.95074">
        <ele>412.825064</ele>
        <time>2022-09-14T04:55:19.834Z</time>
      </trkpt>
      <trkpt lat="47.75644" lon="8.95059">
        <ele>412.991705</ele>
        <time>2022-09-14T04:55:27.582Z</time>
      </trkpt>
      <trkpt lat="47.75593" lon="8.94993">
        <ele>413.696385</ele>
        <time>2022-09-14T04:55:50.399Z</time>
      </trkpt>
      <trkpt lat="47.75598" lon="8.94952">
        <ele>413.988946</ele>
        <time>2022-09-14T04:55:59.580Z</time>
      </trkpt>
      <trkpt lat="47.75667" lon="8.94819">
        <ele>414.962598</ele>
        <time>2022-09-14T04:56:33.980Z</time>
      </trkpt>
      <trkpt lat="47.75705" lon="8.94758">
        <ele>415.032322</ele>
        <time>2022-09-14T04:56:49.552Z</time>
      </trkpt>
      <trkpt lat="47.75739" lon="8.94717">
        <ele>415.087255</ele>
        <time>2022-09-14T04:57:01.275Z</time>
      </trkpt>
      <trkpt lat="47.75827" lon="8.94642">
        <ele>414.828702</ele>
        <time>2022-09-14T04:57:27.113Z</time>
      </trkpt>
      <trkpt lat="47.75823" lon="8.94635">
        <ele>414.784068</ele>
        <time>2022-09-14T04:57:28.678Z</time>
      </trkpt>
      <trkpt lat="47.75783" lon="8.94571">
        <ele>414.355918</ele>
        <time>2022-09-14T04:57:43.368Z</time>
      </trkpt>
      <trkpt lat="47.75741" lon="8.94446">
        <ele>413.446481</ele>
        <time>2022-09-14T04:58:04.482Z</time>
      </trkpt>
      <trkpt lat="47.75739" lon="8.94436">
        <ele>413.337395</ele>
        <time>2022-09-14T04:58:05.936Z</time>
      </trkpt>
      <trkpt lat="47.75726" lon="8.9437">
        <ele>412.559409</ele>
        <time>2022-09-14T04:58:16.045Z</time>
      </trkpt>
      <trkpt lat="47.75697" lon="8.94321">
        <ele>411.828961</ele>
        <time>2022-09-14T04:58:25.384Z</time>
      </trkpt>
      <trkpt lat="47.7566" lon="8.94278">
        <ele>411.052023</ele>
        <time>2022-09-14T04:58:35.252Z</time>
      </trkpt>
      <trkpt lat="47.75628" lon="8.94227">
        <ele>410.492495</ele>
        <time>2022-09-14T04:58:45.432Z</time>
      </trkpt>
      <trkpt lat="47.75593" lon="8.94138">
        <ele>409.77476</ele>
        <time>2022-09-14T04:59:00.790Z</time>
      </trkpt>
      <trkpt lat="47.75585" lon="8.94108">
        <ele>409.545002</ele>
        <time>2022-09-14T04:59:06.083Z</time>
      </trkpt>
      <trkpt lat="47.75557" lon="8.94016">
        <ele>408.929201</ele>
        <time>2022-09-14T04:59:23.639Z</time>
      </trkpt>
      <trkpt lat="47.75542" lon="8.93964">
        <ele>408.75877</ele>
        <time>2022-09-14T04:59:33.351Z</time>
      </trkpt>
      <trkpt lat="47.75535" lon="8.93942">
        <ele>408.687462</ele>
        <time>2022-09-14T04:59:37.359Z</time>
      </trkpt>
      <trkpt lat="47.75525" lon="8.93918">
        <ele>408.604631</ele>
        <time>2022-09-14T04:59:42.091Z</time>
      </trkpt>
      <trkpt lat="47.75498" lon="8.93884">
        <ele>408.4474</ele>
        <time>2022-09-14T04:59:50.947Z</time>
      </trkpt>
      <trkpt lat="47.75483" lon="8.93875">
        <ele>408.37379</ele>
        <time>2022-09-14T04:59:55.022Z</time>
      </trkpt>
      <trkpt lat="47.75458" lon="8.93861">
        <ele>408.256472</ele>
        <time>2022-09-14T05:00:01.474Z</time>
      </trkpt>
      <trkpt lat="47.75389" lon="8.9382">
        <ele>407.783551</ele>
        <time>2022-09-14T05:00:19.340Z</time>
      </trkpt>
      <trkpt lat="47.75388" lon="8.9375">
        <ele>407.462811</ele>
        <time>2022-09-14T05:00:30.422Z</time>
      </trkpt>
      <trkpt lat="47.75379" lon="8.93669">
        <ele>407.083712</ele>
        <time>2022-09-14T05:00:43.509Z</time>
      </trkpt>
      <trkpt lat="47.75364" lon="8.9358">
        <ele>407.016279</ele>
        <time>2022-09-14T05:00:59.028Z</time>
      </trkpt>
      <trkpt lat="47.75354" lon="8.93554">
        <ele>407.038753</ele>
        <time>2022-09-14T05:01:04.567Z</time>
      </trkpt>
      <trkpt lat="47.75336" lon="8.93534">
        <ele>407.063045</ele>
        <time>2022-09-14T05:01:10.731Z</time>
      </trkpt>
      <trkpt lat="47.75308" lon="8.93517">
        <ele>407.096667</ele>
        <time>2022-09-14T05:01:19.523Z</time>
      </trkpt>
      <trkpt lat="47.75293" lon="8.93508">
        <ele>407.11423</ele>
        <time>2022-09-14T05:01:24.226Z</time>
      </trkpt>
      <trkpt lat="47.7528" lon="8.93481">
        <ele>407.138333</ele>
        <time>2022-09-14T05:01:30.729Z</time>
      </trkpt>
      <trkpt lat="47.75282" lon="8.93276">
        <ele>407.163442</ele>
        <time>2022-09-14T05:02:08.930Z</time>
      </trkpt>
      <trkpt lat="47.75281" lon="8.93247">
        <ele>407.163154</ele>
        <time>2022-09-14T05:02:14.053Z</time>
      </trkpt>
      <trkpt lat="47.7528" lon="8.93182">
        <ele>407.16252</ele>
        <time>2022-09-14T05:02:25.153Z</time>
      </trkpt>
      <trkpt lat="47.75273" lon="8.93134">
        <ele>406.903144</ele>
        <time>2022-09-14T05:02:33.275Z</time>
      </trkpt>
      <trkpt lat="47.75268" lon="8.93049">
        <ele>406.406025</ele>
        <time>2022-09-14T05:02:46.835Z</time>
      </trkpt>
      <trkpt lat="47.75257" lon="8.92848">
        <ele>405.317507</ele>
        <time>2022-09-14T05:03:17.812Z</time>
      </trkpt>
      <trkpt lat="47.75254" lon="8.92774">
        <ele>404.980833</ele>
        <time>2022-09-14T05:03:29.906Z</time>
      </trkpt>
      <trkpt lat="47.75247" lon="8.92598">
        <ele>404.496677</ele>
        <time>2022-09-14T05:03:58.934Z</time>
      </trkpt>
      <trkpt lat="47.75246" lon="8.92482">
        <ele>404.744818</ele>
        <time>2022-09-14T05:04:19.394Z</time>
      </trkpt>
      <trkpt lat="47.75254" lon="8.92305">
        <ele>406.06569</ele>
        <time>2022-09-14T05:04:57.649Z</time>
      </trkpt>
      <trkpt lat="47.75265" lon="8.92283">
        <ele>406.484391</ele>
        <time>2022-09-14T05:05:05.065Z</time>
      </trkpt>
      <trkpt lat="47.75266" lon="8.9227">
        <ele>406.687592</ele>
        <time>2022-09-14T05:05:08.453Z</time>
      </trkpt>
      <trkpt lat="47.75257" lon="8.92241">
        <ele>407.166474</ele>
        <time>2022-09-14T05:05:17.096Z</time>
      </trkpt>
      <trkpt lat="47.75258" lon="8.92219">
        <ele>407.500068</ele>
        <time>2022-09-14T05:05:22.864Z</time>
      </trkpt>
      <trkpt lat="47.75268" lon="8.92025">
        <ele>410.381351</ele>
        <time>2022-09-14T05:06:14.942Z</time>
      </trkpt>
      <trkpt lat="47.75273" lon="8.91956">
        <ele>411.411224</ele>
        <time>2022-09-14T05:06:33.067Z</time>
      </trkpt>
      <trkpt lat="47.75285" lon="8.91881">
        <ele>412.524626</ele>
        <time>2022-09-14T05:06:51.569Z</time>
      </trkpt>
      <trkpt lat="47.75321" lon="8.9175">
        <ele>413.981775</ele>
        <time>2022-09-14T05:07:21.148Z</time>
      </trkpt>
      <trkpt lat="47.75337" lon="8.9171">
        <ele>414.406682</ele>
        <time>2022-09-14T05:07:30.971Z</time>
      </trkpt>
      <trkpt lat="47.75354" lon="8.91671">
        <ele>414.833536</ele>
        <time>2022-09-14T05:07:41.330Z</time>
      </trkpt>
      <trkpt lat="47.75412" lon="8.91568">
        <ele>416.673585</ele>
        <time>2022-09-14T05:08:14.354Z</time>
      </trkpt>
      <trkpt lat="47.75544" lon="8.91365">
        <ele>421.060584</ele>
        <time>2022-09-14T05:09:30.669Z</time>
      </trkpt>
      <trkpt lat="47.75596" lon="8.91261">
        <ele>422.661831</ele>
        <time>2022-09-14T05:10:01.888Z</time>
      </trkpt>
      <trkpt lat="47.75652" lon="8.91123">
        <ele>423.901235</ele>
        <time>2022-09-14T05:10:31.918Z</time>
      </trkpt>
      <trkpt lat="47.75727" lon="8.90912">
        <ele>425.747108</ele>
        <time>2022-09-14T05:11:23.604Z</time>
      </trkpt>
      <trkpt lat="47.75769" lon="8.9079">
        <ele>427.309237</ele>
        <time>2022-09-14T05:11:57.104Z</time>
      </trkpt>
      <trkpt lat="47.75809" lon="8.90705">
        <ele>428.223257</ele>
        <time>2022-09-14T05:12:22.029Z</time>
      </trkpt>
      <trkpt lat="47.75811" lon="8.90692">
        <ele>428.317072</ele>
        <time>2022-09-14T05:12:25.303Z</time>
      </trkpt>
      <trkpt lat="47.75817" lon="8.90672">
        <ele>428.465529</ele>
        <time>2022-09-14T05:12:30.183Z</time>
      </trkpt>
      <trkpt lat="47.75842" lon="8.90595">
        <ele>429.054769</ele>
        <time>2022-09-14T05:12:47.733Z</time>
      </trkpt>
      <trkpt lat="47.75869" lon="8.90505">
        <ele>429.745337</ele>
        <time>2022-09-14T05:13:06.366Z</time>
      </trkpt>
      <trkpt lat="47.7589" lon="8.9043">
        <ele>430.41866</ele>
        <time>2022-09-14T05:13:22.694Z</time>
      </trkpt>
      <trkpt lat="47.75923" lon="8.90296">
        <ele>431.594175</ele>
        <time>2022-09-14T05:13:54.650Z</time>
      </trkpt>
      <trkpt lat="47.75975" lon="8.90016">
        <ele>435.30714</ele>
        <time>2022-09-14T05:15:06.313Z</time>
      </trkpt>
      <trkpt lat="47.76025" lon="8.89822">
        <ele>437.166909</ele>
        <time>2022-09-14T05:15:55.032Z</time>
      </trkpt>
      <trkpt lat="47.76025" lon="8.89815">
        <ele>437.22965</ele>
        <time>2022-09-14T05:15:56.549Z</time>
      </trkpt>
      <trkpt lat="47.76026" lon="8.89758">
        <ele>437.72039</ele>
        <time>2022-09-14T05:16:08.244Z</time>
      </trkpt>
      <trkpt lat="47.76053" lon="8.89606">
        <ele>436.369185</ele>
        <time>2022-09-14T05:16:34.361Z</time>
      </trkpt>
      <trkpt lat="47.76067" lon="8.89461">
        <ele>434.591094</ele>
        <time>2022-09-14T05:16:53.994Z</time>
      </trkpt>
      <trkpt lat="47.76066" lon="8.89328">
        <ele>431.454906</ele>
        <time>2022-09-14T05:17:11.010Z</time>
      </trkpt>
      <trkpt lat="47.76063" lon="8.89227">
        <ele>429.083405</ele>
        <time>2022-09-14T05:17:23.907Z</time>
      </trkpt>
      <trkpt lat="47.76061" lon="8.89142">
        <ele>428.006598</ele>
        <time>2022-09-14T05:17:35.237Z</time>
      </trkpt>
      <trkpt lat="47.76066" lon="8.89124">
        <ele>427.784369</ele>
        <time>2022-09-14T05:17:37.722Z</time>
      </trkpt>
      <trkpt lat="47.76075" lon="8.89101">
        <ele>427.456606</ele>
        <time>2022-09-14T05:17:41.682Z</time>
      </trkpt>
      <trkpt lat="47.76075" lon="8.89091">
        <ele>427.335817</ele>
        <time>2022-09-14T05:17:43.138Z</time>
      </trkpt>
      <trkpt lat="47.76075" lon="8.89083">
        <ele>427.235342</ele>
        <time>2022-09-14T05:17:44.318Z</time>
      </trkpt>
      <trkpt lat="47.76075" lon="8.89072">
        <ele>427.104985</ele>
        <time>2022-09-14T05:17:45.877Z</time>
      </trkpt>
      <trkpt lat="47.76064" lon="8.89048">
        <ele>426.759288</ele>
        <time>2022-09-14T05:17:50.255Z</time>
      </trkpt>
      <trkpt lat="47.76061" lon="8.89027">
        <ele>426.493165</ele>
        <time>2022-09-14T05:17:53.525Z</time>
      </trkpt>
      <trkpt lat="47.76078" lon="8.88823">
        <ele>426.470045</ele>
        <time>2022-09-14T05:18:31.394Z</time>
      </trkpt>
      <trkpt lat="47.76111" lon="8.88507">
        <ele>429.016954</ele>
        <time>2022-09-14T05:19:44.456Z</time>
      </trkpt>
      <trkpt lat="47.76114" lon="8.88485">
        <ele>429.230685</ele>
        <time>2022-09-14T05:19:49.804Z</time>
      </trkpt>
      <trkpt lat="47.7611" lon="8.88459">
        <ele>429.493595</ele>
        <time>2022-09-14T05:19:55.335Z</time>
      </trkpt>
      <trkpt lat="47.76119" lon="8.88127">
        <ele>432.901018</ele>
        <time>2022-09-14T05:21:09.013Z</time>
      </trkpt>
      <trkpt lat="47.76116" lon="8.88096">
        <ele>433.373759</ele>
        <time>2022-09-14T05:21:17.529Z</time>
      </trkpt>
      <trkpt lat="47.76119" lon="8.87957">
        <ele>435.468809</ele>
        <time>2022-09-14T05:21:53.993Z</time>
      </trkpt>
      <trkpt lat="47.76124" lon="8.87884">
        <ele>436.412887</ele>
        <time>2022-09-14T05:22:13.498Z</time>
      </trkpt>
      <trkpt lat="47.76145" lon="8.87857">
        <ele>436.672687</ele>
        <time>2022-09-14T05:22:23.013Z</time>
      </trkpt>
      <trkpt lat="47.76146" lon="8.87841">
        <ele>436.772936</ele>
        <time>2022-09-14T05:22:26.976Z</time>
      </trkpt>
      <trkpt lat="47.76146" lon="8.87831">
        <ele>436.837885</ele>
        <time>2022-09-14T05:22:29.216Z</time>
      </trkpt>
      <trkpt lat="47.76147" lon="8.87822">
        <ele>436.894587</ele>
        <time>2022-09-14T05:22:31.046Z</time>
      </trkpt>
      <trkpt lat="47.76127" lon="8.87792">
        <ele>437.158174</ele>
        <time>2022-09-14T05:22:40.349Z</time>
      </trkpt>
      <trkpt lat="47.76131" lon="8.87629">
        <ele>437.845929</ele>
        <time>2022-09-14T05:23:10.593Z</time>
      </trkpt>
      <trkpt lat="47.76142" lon="8.87592">
        <ele>437.666728</ele>
        <time>2022-09-14T05:23:16.906Z</time>
      </trkpt>
      <trkpt lat="47.76134" lon="8.87544">
        <ele>437.448156</ele>
        <time>2022-09-14T05:23:24.489Z</time>
      </trkpt>
      <trkpt lat="47.76143" lon="8.87415">
        <ele>436.870108</ele>
        <time>2022-09-14T05:23:45.070Z</time>
      </trkpt>
      <trkpt lat="47.76155" lon="8.8735">
        <ele>436.698439</ele>
        <time>2022-09-14T05:23:56.173Z</time>
      </trkpt>
      <trkpt lat="47.76191" lon="8.87225">
        <ele>436.427207</ele>
        <time>2022-09-14T05:24:19.752Z</time>
      </trkpt>
      <trkpt lat="47.76241" lon="8.87111">
        <ele>436.150023</ele>
        <time>2022-09-14T05:24:43.286Z</time>
      </trkpt>
      <trkpt lat="47.76262" lon="8.87035">
        <ele>435.978164</ele>
        <time>2022-09-14T05:24:57.419Z</time>
      </trkpt>
      <trkpt lat="47.76382" lon="8.8673">
        <ele>435.036359</ele>
        <time>2022-09-14T05:25:57.278Z</time>
      </trkpt>
      <trkpt lat="47.76411" lon="8.86627">
        <ele>434.500334</ele>
        <time>2022-09-14T05:26:15.021Z</time>
      </trkpt>
      <trkpt lat="47.76439" lon="8.86507">
        <ele>433.748924</ele>
        <time>2022-09-14T05:26:34.748Z</time>
      </trkpt>
      <trkpt lat="47.76459" lon="8.86375">
        <ele>433.232577</ele>
        <time>2022-09-14T05:26:56.180Z</time>
      </trkpt>
      <trkpt lat="47.7647" lon="8.86252">
        <ele>433.055509</ele>
        <time>2022-09-14T05:27:17.581Z</time>
      </trkpt>
      <trkpt lat="47.76472" lon="8.86162">
        <ele>432.970205</ele>
        <time>2022-09-14T05:27:34.736Z</time>
      </trkpt>
      <trkpt lat="47.76473" lon="8.85922">
        <ele>433.627851</ele>
        <time>2022-09-14T05:28:21.806Z</time>
      </trkpt>
      <trkpt lat="47.76479" lon="8.85474">
        <ele>433.27737</ele>
        <time>2022-09-14T05:29:40.955Z</time>
      </trkpt>
      <trkpt lat="47.76481" lon="8.85431">
        <ele>433.189624</ele>
        <time>2022-09-14T05:29:48.167Z</time>
      </trkpt>
      <trkpt lat="47.76476" lon="8.85171">
        <ele>432.051938</ele>
        <time>2022-09-14T05:30:30.138Z</time>
      </trkpt>
      <trkpt lat="47.7647" lon="8.85106">
        <ele>431.722055</ele>
        <time>2022-09-14T05:30:40.200Z</time>
      </trkpt>
      <trkpt lat="47.76461" lon="8.85011">
        <ele>431.293165</ele>
        <time>2022-09-14T05:30:55.697Z</time>
      </trkpt>
      <trkpt lat="47.76453" lon="8.84933">
        <ele>430.946013</ele>
        <time>2022-09-14T05:31:08.408Z</time>
      </trkpt>
      <trkpt lat="47.76451" lon="8.84913">
        <ele>430.856888</ele>
        <time>2022-09-14T05:31:11.712Z</time>
      </trkpt>
      <trkpt lat="47.76454" lon="8.84907">
        <ele>430.824062</ele>
        <time>2022-09-14T05:31:12.919Z</time>
      </trkpt>
      <trkpt lat="47.76451" lon="8.84878">
        <ele>430.694942</ele>
        <time>2022-09-14T05:31:17.646Z</time>
      </trkpt>
      <trkpt lat="47.76447" lon="8.84849">
        <ele>430.565187</ele>
        <time>2022-09-14T05:31:22.485Z</time>
      </trkpt>
      <trkpt lat="47.76445" lon="8.84832">
        <ele>430.533167</ele>
        <time>2022-09-14T05:31:25.387Z</time>
      </trkpt>
      <trkpt lat="47.76433" lon="8.8482">
        <ele>430.554626</ele>
        <time>2022-09-14T05:31:29.074Z</time>
      </trkpt>
      <trkpt lat="47.76429" lon="8.84814">
        <ele>430.563075</ele>
        <time>2022-09-14T05:31:30.536Z</time>
      </trkpt>
      <trkpt lat="47.76425" lon="8.84788">
        <ele>430.589977</ele>
        <time>2022-09-14T05:31:35.159Z</time>
      </trkpt>
      <trkpt lat="47.76415" lon="8.84714">
        <ele>430.665721</ele>
        <time>2022-09-14T05:31:49.701Z</time>
      </trkpt>
      <trkpt lat="47.76409" lon="8.84702">
        <ele>430.680398</ele>
        <time>2022-09-14T05:31:52.608Z</time>
      </trkpt>
      <trkpt lat="47.76402" lon="8.84634">
        <ele>430.749388</ele>
        <time>2022-09-14T05:32:05.931Z</time>
      </trkpt>
      <trkpt lat="47.76387" lon="8.84497">
        <ele>430.748129</ele>
        <time>2022-09-14T05:32:31.462Z</time>
      </trkpt>
      <trkpt lat="47.76386" lon="8.84486">
        <ele>430.742749</ele>
        <time>2022-09-14T05:32:33.436Z</time>
      </trkpt>
      <trkpt lat="47.76384" lon="8.84466">
        <ele>430.732913</ele>
        <time>2022-09-14T05:32:37.142Z</time>
      </trkpt>
      <trkpt lat="47.76381" lon="8.84448">
        <ele>430.724128</ele>
        <time>2022-09-14T05:32:40.532Z</time>
      </trkpt>
      <trkpt lat="47.76365" lon="8.84306">
        <ele>430.656904</ele>
        <time>2022-09-14T05:33:05.159Z</time>
      </trkpt>
      <trkpt lat="47.76343" lon="8.84138">
        <ele>430.584113</ele>
        <time>2022-09-14T05:33:34.522Z</time>
      </trkpt>
      <trkpt lat="47.7633" lon="8.84055">
        <ele>430.5746</ele>
        <time>2022-09-14T05:33:50.394Z</time>
      </trkpt>
      <trkpt lat="47.76325" lon="8.84017">
        <ele>430.660853</ele>
        <time>2022-09-14T05:33:57.877Z</time>
      </trkpt>
      <trkpt lat="47.7632" lon="8.83978">
        <ele>430.750237</ele>
        <time>2022-09-14T05:34:05.754Z</time>
      </trkpt>
      <trkpt lat="47.76309" lon="8.8392">
        <ele>430.883678</ele>
        <time>2022-09-14T05:34:17.678Z</time>
      </trkpt>
      <trkpt lat="47.76282" lon="8.83808">
        <ele>431.149478</ele>
        <time>2022-09-14T05:34:40.667Z</time>
      </trkpt>
      <trkpt lat="47.76279" lon="8.83798">
        <ele>431.087472</ele>
        <time>2022-09-14T05:34:42.904Z</time>
      </trkpt>
      <trkpt lat="47.76277" lon="8.8379">
        <ele>431.040854</ele>
        <time>2022-09-14T05:34:44.456Z</time>
      </trkpt>
      <trkpt lat="47.76256" lon="8.83723">
        <ele>430.646932</ele>
        <time>2022-09-14T05:34:56.476Z</time>
      </trkpt>
      <trkpt lat="47.76244" lon="8.83682">
        <ele>430.409468</ele>
        <time>2022-09-14T05:35:03.207Z</time>
      </trkpt>
      <trkpt lat="47.76239" lon="8.83668">
        <ele>430.3249</ele>
        <time>2022-09-14T05:35:05.672Z</time>
      </trkpt>
      <trkpt lat="47.76251" lon="8.83661">
        <ele>430.218743</ele>
        <time>2022-09-14T05:35:08.750Z</time>
      </trkpt>
      <trkpt lat="47.76271" lon="8.83649">
        <ele>430.04616</ele>
        <time>2022-09-14T05:35:13.637Z</time>
      </trkpt>
      <trkpt lat="47.76283" lon="8.83642">
        <ele>429.9443</ele>
        <time>2022-09-14T05:35:16.633Z</time>
      </trkpt>
      <trkpt lat="47.76307" lon="8.83627">
        <ele>429.734508</ele>
        <time>2022-09-14T05:35:22.602Z</time>
      </trkpt>
      <trkpt lat="47.76305" lon="8.83617">
        <ele>429.680698</ele>
        <time>2022-09-14T05:35:24.140Z</time>
      </trkpt>
      <trkpt lat="47.76291" lon="8.83557">
        <ele>429.348702</ele>
        <time>2022-09-14T05:35:33.667Z</time>
      </trkpt>
      <trkpt lat="47.7629" lon="8.83551">
        <ele>429.312162</ele>
        <time>2022-09-14T05:35:34.686Z</time>
      </trkpt>
      <trkpt lat="47.76289" lon="8.83546">
        <ele>429.284892</ele>
        <time>2022-09-14T05:35:35.441Z</time>
      </trkpt>
      <trkpt lat="47.76275" lon="8.83485">
        <ele>428.94514</ele>
        <time>2022-09-14T05:35:45.757Z</time>
      </trkpt>
      <trkpt lat="47.76264" lon="8.83437">
        <ele>428.674935</ele>
        <time>2022-09-14T05:35:53.948Z</time>
      </trkpt>
      <trkpt lat="47.76262" lon="8.83428">
        <ele>428.627713</ele>
        <time>2022-09-14T05:35:55.558Z</time>
      </trkpt>
      <trkpt lat="47.76291" lon="8.83416">
        <ele>428.390436</ele>
        <time>2022-09-14T05:36:02.791Z</time>
      </trkpt>
      <trkpt lat="47.76312" lon="8.83408">
        <ele>428.254877</ele>
        <time>2022-09-14T05:36:08.218Z</time>
      </trkpt>
      <trkpt lat="47.76319" lon="8.83405">
        <ele>428.217619</ele>
        <time>2022-09-14T05:36:10.131Z</time>
      </trkpt>
      <trkpt lat="47.76328" lon="8.834">
        <ele>428.170923</ele>
        <time>2022-09-14T05:36:12.859Z</time>
      </trkpt>
      <trkpt lat="47.76324" lon="8.83385">
        <ele>428.117894</ele>
        <time>2022-09-14T05:36:16.013Z</time>
      </trkpt>
      <trkpt lat="47.7632" lon="8.83366">
        <ele>428.054409</ele>
        <time>2022-09-14T05:36:19.491Z</time>
      </trkpt>
      <trkpt lat="47.76324" lon="8.83364">
        <ele>428.035402</ele>
        <time>2022-09-14T05:36:20.493Z</time>
      </trkpt>
      <trkpt lat="47.76306" lon="8.83286">
        <ele>427.764486</ele>
        <time>2022-09-14T05:36:34.515Z</time>
      </trkpt>
      <trkpt lat="47.76275" lon="8.83182">
        <ele>427.386472</ele>
        <time>2022-09-14T05:36:52.367Z</time>
      </trkpt>
      <trkpt lat="47.76226" lon="8.83034">
        <ele>426.784331</ele>
        <time>2022-09-14T05:37:18.884Z</time>
      </trkpt>
      <trkpt lat="47.76208" lon="8.8297">
        <ele>426.531007</ele>
        <time>2022-09-14T05:37:30.455Z</time>
      </trkpt>
      <trkpt lat="47.76206" lon="8.82964">
        <ele>426.506891</ele>
        <time>2022-09-14T05:37:31.560Z</time>
      </trkpt>
      <trkpt lat="47.76201" lon="8.8295">
        <ele>426.446451</ele>
        <time>2022-09-14T05:37:34.352Z</time>
      </trkpt>
      <trkpt lat="47.762" lon="8.82948">
        <ele>426.473705</ele>
        <time>2022-09-14T05:37:34.742Z</time>
      </trkpt>
      <trkpt lat="47.76197" lon="8.82938">
        <ele>426.616439</ele>
        <time>2022-09-14T05:37:36.625Z</time>
      </trkpt>
      <trkpt lat="47.76196" lon="8.82919">
        <ele>426.864316</ele>
        <time>2022-09-14T05:37:40.202Z</time>
      </trkpt>
      <trkpt lat="47.76188" lon="8.82898">
        <ele>427.188264</ele>
        <time>2022-09-14T05:37:44.770Z</time>
      </trkpt>
      <trkpt lat="47.76176" lon="8.82886">
        <ele>427.459207</ele>
        <time>2022-09-14T05:37:49.012Z</time>
      </trkpt>
      <trkpt lat="47.76172" lon="8.8288">
        <ele>427.572748</ele>
        <time>2022-09-14T05:37:50.817Z</time>
      </trkpt>
      <trkpt lat="47.76163" lon="8.82856">
        <ele>427.930353</ele>
        <time>2022-09-14T05:37:56.500Z</time>
      </trkpt>
      <trkpt lat="47.76143" lon="8.82812">
        <ele>428.629582</ele>
        <time>2022-09-14T05:38:09.249Z</time>
      </trkpt>
      <trkpt lat="47.76112" lon="8.82736">
        <ele>429.804461</ele>
        <time>2022-09-14T05:38:34.810Z</time>
      </trkpt>
      <trkpt lat="47.76107" lon="8.82722">
        <ele>430.07391</ele>
        <time>2022-09-14T05:38:39.838Z</time>
      </trkpt>
      <trkpt lat="47.76096" lon="8.82692">
        <ele>431.081617</ele>
        <time>2022-09-14T05:38:50.883Z</time>
      </trkpt>
      <trkpt lat="47.76093" lon="8.82684">
        <ele>431.368719</ele>
        <time>2022-09-14T05:38:54.223Z</time>
      </trkpt>
      <trkpt lat="47.7608" lon="8.82644">
        <ele>432.680074</ele>
        <time>2022-09-14T05:39:08.903Z</time>
      </trkpt>
      <trkpt lat="47.76059" lon="8.82575">
        <ele>434.945297</ele>
        <time>2022-09-14T05:39:34.592Z</time>
      </trkpt>
      <trkpt lat="47.76044" lon="8.82524">
        <ele>436.599281</ele>
        <time>2022-09-14T05:39:52.656Z</time>
      </trkpt>
      <trkpt lat="47.7603" lon="8.82495">
        <ele>437.684354</ele>
        <time>2022-09-14T05:40:04.164Z</time>
      </trkpt>
      <trkpt lat="47.76022" lon="8.82485">
        <ele>438.075698</ele>
        <time>2022-09-14T05:40:09.351Z</time>
      </trkpt>
      <trkpt lat="47.75997" lon="8.82464">
        <ele>438.76161</ele>
        <time>2022-09-14T05:40:22.566Z</time>
      </trkpt>
      <trkpt lat="47.75972" lon="8.82452">
        <ele>439.380574</ele>
        <time>2022-09-14T05:40:34.127Z</time>
      </trkpt>
      <trkpt lat="47.75965" lon="8.82449">
        <ele>439.561563</ele>
        <time>2022-09-14T05:40:37.434Z</time>
      </trkpt>
      <trkpt lat="47.75944" lon="8.82441">
        <ele>440.07769</ele>
        <time>2022-09-14T05:40:46.356Z</time>
      </trkpt>
      <trkpt lat="47.75914" lon="8.82418">
        <ele>440.874043</ele>
        <time>2022-09-14T05:40:58.775Z</time>
      </trkpt>
      <trkpt lat="47.75869" lon="8.82398">
        <ele>441.993151</ele>
        <time>2022-09-14T05:41:13.065Z</time>
      </trkpt>
      <trkpt lat="47.75832" lon="8.82375">
        <ele>442.323943</ele>
        <time>2022-09-14T05:41:23.841Z</time>
      </trkpt>
      <trkpt lat="47.75828" lon="8.82382">
        <ele>442.339366</ele>
        <time>2022-09-14T05:41:26.109Z</time>
      </trkpt>
      <trkpt lat="47.75825" lon="8.82389">
        <ele>442.352643</ele>
        <time>2022-09-14T05:41:27.623Z</time>
      </trkpt>
      <trkpt lat="47.75819" lon="8.82382">
        <ele>442.371137</ele>
        <time>2022-09-14T05:41:29.496Z</time>
      </trkpt>
      <trkpt lat="47.75798" lon="8.82363">
        <ele>442.433447</ele>
        <time>2022-09-14T05:41:36.127Z</time>
      </trkpt>
      <trkpt lat="47.75739" lon="8.82289">
        <ele>442.630823</ele>
        <time>2022-09-14T05:41:57.953Z</time>
      </trkpt>
      <trkpt lat="47.75714" lon="8.82259">
        <ele>442.700183</ele>
        <time>2022-09-14T05:42:06.784Z</time>
      </trkpt>
      <trkpt lat="47.75701" lon="8.82242">
        <ele>442.659413</ele>
        <time>2022-09-14T05:42:11.470Z</time>
      </trkpt>
      <trkpt lat="47.75618" lon="8.82144">
        <ele>442.410118</ele>
        <time>2022-09-14T05:42:38.953Z</time>
      </trkpt>
      <trkpt lat="47.75464" lon="8.81964">
        <ele>441.597395</ele>
        <time>2022-09-14T05:43:26.769Z</time>
      </trkpt>
      <trkpt lat="47.75446" lon="8.81952">
        <ele>441.505177</ele>
        <time>2022-09-14T05:43:31.499Z</time>
      </trkpt>
      <trkpt lat="47.75434" lon="8.81941">
        <ele>441.436621</ele>
        <time>2022-09-14T05:43:34.917Z</time>
      </trkpt>
      <trkpt lat="47.75424" lon="8.81932">
        <ele>441.468121</ele>
        <time>2022-09-14T05:43:38.049Z</time>
      </trkpt>
      <trkpt lat="47.75415" lon="8.81929">
        <ele>441.538902</ele>
        <time>2022-09-14T05:43:40.463Z</time>
      </trkpt>
      <trkpt lat="47.75416" lon="8.81924">
        <ele>441.567337</ele>
        <time>2022-09-14T05:43:41.475Z</time>
      </trkpt>
      <trkpt lat="47.75413" lon="8.81912">
        <ele>441.632375</ele>
        <time>2022-09-14T05:43:43.544Z</time>
      </trkpt>
      <trkpt lat="47.75384" lon="8.81875">
        <ele>441.920569</ele>
        <time>2022-09-14T05:43:54.377Z</time>
      </trkpt>
      <trkpt lat="47.75327" lon="8.81819">
        <ele>442.431308</ele>
        <time>2022-09-14T05:44:16.031Z</time>
      </trkpt>
      <trkpt lat="47.75285" lon="8.81793">
        <ele>442.788295</ele>
        <time>2022-09-14T05:44:31.532Z</time>
      </trkpt>
      <trkpt lat="47.75231" lon="8.81772">
        <ele>443.650955</ele>
        <time>2022-09-14T05:44:51.065Z</time>
      </trkpt>
      <trkpt lat="47.75182" lon="8.81754">
        <ele>444.438527</ele>
        <time>2022-09-14T05:45:09.099Z</time>
      </trkpt>
      <trkpt lat="47.75056" lon="8.81694">
        <ele>445.896393</ele>
        <time>2022-09-14T05:45:53.088Z</time>
      </trkpt>
      <trkpt lat="47.75047" lon="8.81689">
        <ele>445.951177</ele>
        <time>2022-09-14T05:45:55.886Z</time>
      </trkpt>
      <trkpt lat="47.74984" lon="8.81654">
        <ele>446.325782</ele>
        <time>2022-09-14T05:46:14.168Z</time>
      </trkpt>
      <trkpt lat="47.74966" lon="8.81655">
        <ele>446.423094</ele>
        <time>2022-09-14T05:46:19.117Z</time>
      </trkpt>
      <trkpt lat="47.74944" lon="8.81647">
        <ele>446.551732</ele>
        <time>2022-09-14T05:46:25.120Z</time>
      </trkpt>
      <trkpt lat="47.74917" lon="8.81614">
        <ele>446.464571</ele>
        <time>2022-09-14T05:46:34.328Z</time>
      </trkpt>
      <trkpt lat="47.74879" lon="8.81596">
        <ele>446.338009</ele>
        <time>2022-09-14T05:46:44.743Z</time>
      </trkpt>
      <trkpt lat="47.74809" lon="8.81551">
        <ele>446.10075</ele>
        <time>2022-09-14T05:47:03.213Z</time>
      </trkpt>
      <trkpt lat="47.74636" lon="8.81423">
        <ele>445.494478</ele>
        <time>2022-09-14T05:47:51.923Z</time>
      </trkpt>
      <trkpt lat="47.74636" lon="8.81413">
        <ele>445.473043</ele>
        <time>2022-09-14T05:47:53.628Z</time>
      </trkpt>
      <trkpt lat="47.74642" lon="8.81395">
        <ele>445.454867</ele>
        <time>2022-09-14T05:47:57.087Z</time>
      </trkpt>
      <trkpt lat="47.7464" lon="8.81382">
        <ele>445.499257</ele>
        <time>2022-09-14T05:47:59.571Z</time>
      </trkpt>
      <trkpt lat="47.74614" lon="8.81352">
        <ele>445.673536</ele>
        <time>2022-09-14T05:48:08.381Z</time>
      </trkpt>
      <trkpt lat="47.74569" lon="8.81261">
        <ele>446.073614</ele>
        <time>2022-09-14T05:48:31.487Z</time>
      </trkpt>
      <trkpt lat="47.74536" lon="8.81145">
        <ele>446.347878</ele>
        <time>2022-09-14T05:48:58.135Z</time>
      </trkpt>
      <trkpt lat="47.74511" lon="8.81129">
        <ele>446.310187</ele>
        <time>2022-09-14T05:49:05.130Z</time>
      </trkpt>
      <trkpt lat="47.7449" lon="8.81133">
        <ele>446.280302</ele>
        <time>2022-09-14T05:49:10.741Z</time>
      </trkpt>
      <trkpt lat="47.74464" lon="8.81149">
        <ele>446.241649</ele>
        <time>2022-09-14T05:49:18.043Z</time>
      </trkpt>
      <trkpt lat="47.74398" lon="8.81187">
        <ele>446.143927</ele>
        <time>2022-09-14T05:49:35.497Z</time>
      </trkpt>
      <trkpt lat="47.74388" lon="8.81187">
        <ele>446.10814</ele>
        <time>2022-09-14T05:49:37.779Z</time>
      </trkpt>
      <trkpt lat="47.74367" lon="8.81194">
        <ele>445.931852</ele>
        <time>2022-09-14T05:49:42.962Z</time>
      </trkpt>
      <trkpt lat="47.74355" lon="8.81191">
        <ele>445.831653</ele>
        <time>2022-09-14T05:49:45.745Z</time>
      </trkpt>
      <trkpt lat="47.74157" lon="8.81059">
        <ele>444.53144</ele>
        <time>2022-09-14T05:50:36.782Z</time>
      </trkpt>
      <trkpt lat="47.74018" lon="8.8093">
        <ele>444.059877</ele>
        <time>2022-09-14T05:51:23.402Z</time>
      </trkpt>
      <trkpt lat="47.73938" lon="8.80822">
        <ele>443.505857</ele>
        <time>2022-09-14T05:51:48.712Z</time>
      </trkpt>
      <trkpt lat="47.73893" lon="8.80731">
        <ele>442.669941</ele>
        <time>2022-09-14T05:52:05.770Z</time>
      </trkpt>
      <trkpt lat="47.73863" lon="8.80637">
        <ele>441.810175</ele>
        <time>2022-09-14T05:52:21.214Z</time>
      </trkpt>
      <trkpt lat="47.73846" lon="8.80546">
        <ele>441.102082</ele>
        <time>2022-09-14T05:52:35.565Z</time>
      </trkpt>
      <trkpt lat="47.73832" lon="8.80379">
        <ele>440.275934</ele>
        <time>2022-09-14T05:53:03.439Z</time>
      </trkpt>
      <trkpt lat="47.73813" lon="8.80144">
        <ele>439.058684</ele>
        <time>2022-09-14T05:53:41.285Z</time>
      </trkpt>
      <trkpt lat="47.73787" lon="8.79846">
        <ele>437.450033</ele>
        <time>2022-09-14T05:54:29.015Z</time>
      </trkpt>
      <trkpt lat="47.73781" lon="8.79704">
        <ele>436.888597</ele>
        <time>2022-09-14T05:54:52.014Z</time>
      </trkpt>
      <trkpt lat="47.73783" lon="8.7968">
        <ele>436.831397</ele>
        <time>2022-09-14T05:54:56.005Z</time>
      </trkpt>
      <trkpt lat="47.73791" lon="8.79661">
        <ele>436.77982</ele>
        <time>2022-09-14T05:54:59.705Z</time>
      </trkpt>
      <trkpt lat="47.73789" lon="8.79641">
        <ele>436.732519</ele>
        <time>2022-09-14T05:55:03.070Z</time>
      </trkpt>
      <trkpt lat="47.73788" lon="8.7962">
        <ele>436.684104</ele>
        <time>2022-09-14T05:55:06.533Z</time>
      </trkpt>
      <trkpt lat="47.73777" lon="8.79619">
        <ele>436.64784</ele>
        <time>2022-09-14T05:55:09.229Z</time>
      </trkpt>
      <trkpt lat="47.73772" lon="8.79608">
        <ele>436.616446</ele>
        <time>2022-09-14T05:55:11.481Z</time>
      </trkpt>
      <trkpt lat="47.73712" lon="8.78934">
        <ele>437.122148</ele>
        <time>2022-09-14T05:57:17.207Z</time>
      </trkpt>
      <trkpt lat="47.73707" lon="8.78884">
        <ele>437.186341</ele>
        <time>2022-09-14T05:57:26.924Z</time>
      </trkpt>
      <trkpt lat="47.73703" lon="8.78876">
        <ele>437.199375</ele>
        <time>2022-09-14T05:57:29.328Z</time>
      </trkpt>
      <trkpt lat="47.73698" lon="8.78854">
        <ele>437.228016</ele>
        <time>2022-09-14T05:57:33.448Z</time>
      </trkpt>
      <trkpt lat="47.7369" lon="8.7882">
        <ele>437.273108</ele>
        <time>2022-09-14T05:57:40.377Z</time>
      </trkpt>
      <trkpt lat="47.73611" lon="8.78425">
        <ele>436.977068</ele>
        <time>2022-09-14T05:58:52.360Z</time>
      </trkpt>
      <trkpt lat="47.73609" lon="8.78416">
        <ele>436.962283</ele>
        <time>2022-09-14T05:58:53.955Z</time>
      </trkpt>
      <trkpt lat="47.7357" lon="8.78235">
        <ele>436.659211</ele>
        <time>2022-09-14T05:59:26.834Z</time>
      </trkpt>
      <trkpt lat="47.73534" lon="8.78169">
        <ele>436.201383</ele>
        <time>2022-09-14T05:59:41.082Z</time>
      </trkpt>
      <trkpt lat="47.73512" lon="8.78138">
        <ele>435.935316</ele>
        <time>2022-09-14T05:59:48.501Z</time>
      </trkpt>
      <trkpt lat="47.73505" lon="8.78139">
        <ele>435.876876</ele>
        <time>2022-09-14T05:59:50.090Z</time>
      </trkpt>
      <trkpt lat="47.73535" lon="8.78058">
        <ele>435.334937</ele>
        <time>2022-09-14T06:00:04.621Z</time>
      </trkpt>
      <trkpt lat="47.73549" lon="8.7802">
        <ele>435.079801</ele>
        <time>2022-09-14T06:00:11.081Z</time>
      </trkpt>
      <trkpt lat="47.73573" lon="8.77951">
        <ele>433.912122</ele>
        <time>2022-09-14T06:00:22.213Z</time>
      </trkpt>
      <trkpt lat="47.73586" lon="8.77913">
        <ele>433.277894</ele>
        <time>2022-09-14T06:00:28.023Z</time>
      </trkpt>
      <trkpt lat="47.73588" lon="8.77903">
        <ele>433.125591</ele>
        <time>2022-09-14T06:00:29.386Z</time>
      </trkpt>
      <trkpt lat="47.73554" lon="8.7786">
        <ele>432.127363</ele>
        <time>2022-09-14T06:00:38.363Z</time>
      </trkpt>
      <trkpt lat="47.73538" lon="8.77828">
        <ele>431.527791</ele>
        <time>2022-09-14T06:00:43.819Z</time>
      </trkpt>
      <trkpt lat="47.73514" lon="8.77777">
        <ele>430.78288</ele>
        <time>2022-09-14T06:00:52.663Z</time>
      </trkpt>
      <trkpt lat="47.73487" lon="8.77736">
        <ele>430.269075</ele>
        <time>2022-09-14T06:01:00.825Z</time>
      </trkpt>
      <trkpt lat="47.73502" lon="8.77705">
        <ele>429.913934</ele>
        <time>2022-09-14T06:01:06.519Z</time>
      </trkpt>
      <trkpt lat="47.73508" lon="8.77688">
        <ele>429.738474</ele>
        <time>2022-09-14T06:01:09.465Z</time>
      </trkpt>
      <trkpt lat="47.73505" lon="8.77667">
        <ele>429.544464</ele>
        <time>2022-09-14T06:01:12.631Z</time>
      </trkpt>
      <trkpt lat="47.73498" lon="8.77652">
        <ele>429.374887</ele>
        <time>2022-09-14T06:01:15.383Z</time>
      </trkpt>
      <trkpt lat="47.73493" lon="8.7764">
        <ele>429.242575</ele>
        <time>2022-09-14T06:01:17.664Z</time>
      </trkpt>
      <trkpt lat="47.73484" lon="8.77621">
        <ele>429.029691</ele>
        <time>2022-09-14T06:01:21.267Z</time>
      </trkpt>
      <trkpt lat="47.73476" lon="8.77596">
        <ele>428.776045</ele>
        <time>2022-09-14T06:01:25.664Z</time>
      </trkpt>
      <trkpt lat="47.73475" lon="8.77582">
        <ele>428.649349</ele>
        <time>2022-09-14T06:01:27.959Z</time>
      </trkpt>
      <trkpt lat="47.73488" lon="8.77528">
        <ele>428.813367</ele>
        <time>2022-09-14T06:01:37.628Z</time>
      </trkpt>
      <trkpt lat="47.73489" lon="8.77525">
        <ele>428.82431</ele>
        <time>2022-09-14T06:01:38.236Z</time>
      </trkpt>
      <trkpt lat="47.73513" lon="8.77443">
        <ele>429.10963</ele>
        <time>2022-09-14T06:01:56.068Z</time>
      </trkpt>
      <trkpt lat="47.73525" lon="8.77404">
        <ele>429.245065</ele>
        <time>2022-09-14T06:02:05.200Z</time>
      </trkpt>
      <trkpt lat="47.73543" lon="8.77349">
        <ele>429.44193</ele>
        <time>2022-09-14T06:02:18.481Z</time>
      </trkpt>
      <trkpt lat="47.73545" lon="8.77343">
        <ele>429.462392</ele>
        <time>2022-09-14T06:02:19.822Z</time>
      </trkpt>
      <trkpt lat="47.73563" lon="8.77306">
        <ele>429.833936</ele>
        <time>2022-09-14T06:02:29.196Z</time>
      </trkpt>
      <trkpt lat="47.73567" lon="8.77298">
        <ele>429.928656</ele>
        <time>2022-09-14T06:02:31.307Z</time>
      </trkpt>
      <trkpt lat="47.73572" lon="8.77289">
        <ele>430.033645</ele>
        <time>2022-09-14T06:02:33.689Z</time>
      </trkpt>
      <trkpt lat="47.73582" lon="8.7727">
        <ele>430.247959</ele>
        <time>2022-09-14T06:02:38.530Z</time>
      </trkpt>
      <trkpt lat="47.73596" lon="8.77245">
        <ele>430.55122</ele>
        <time>2022-09-14T06:02:45.573Z</time>
      </trkpt>
      <trkpt lat="47.73618" lon="8.77206">
        <ele>431.023041</ele>
        <time>2022-09-14T06:02:57.194Z</time>
      </trkpt>
      <trkpt lat="47.73629" lon="8.77186">
        <ele>431.260968</ele>
        <time>2022-09-14T06:03:03.344Z</time>
      </trkpt>
      <trkpt lat="47.73642" lon="8.77163">
        <ele>431.530966</ele>
        <time>2022-09-14T06:03:10.558Z</time>
      </trkpt>
      <trkpt lat="47.73665" lon="8.77121">
        <ele>432.001738</ele>
        <time>2022-09-14T06:03:23.604Z</time>
      </trkpt>
      <trkpt lat="47.73673" lon="8.7709">
        <ele>432.208275</ele>
        <time>2022-09-14T06:03:31.651Z</time>
      </trkpt>
      <trkpt lat="47.73675" lon="8.77072">
        <ele>432.319186</ele>
        <time>2022-09-14T06:03:35.984Z</time>
      </trkpt>
      <trkpt lat="47.73677" lon="8.76962">
        <ele>432.982979</ele>
        <time>2022-09-14T06:03:58.923Z</time>
      </trkpt>
      <trkpt lat="47.73653" lon="8.76963">
        <ele>433.201746</ele>
        <time>2022-09-14T06:04:06.097Z</time>
      </trkpt>
      <trkpt lat="47.73665" lon="8.76916">
        <ele>433.51253</ele>
        <time>2022-09-14T06:04:16.179Z</time>
      </trkpt>
      <trkpt lat="47.73663" lon="8.76823">
        <ele>432.97991</ele>
        <time>2022-09-14T06:04:32.289Z</time>
      </trkpt>
      <trkpt lat="47.73662" lon="8.76791">
        <ele>432.7593</ele>
        <time>2022-09-14T06:04:37.198Z</time>
      </trkpt>
      <trkpt lat="47.73663" lon="8.76772">
        <ele>432.6299</ele>
        <time>2022-09-14T06:04:39.926Z</time>
      </trkpt>
      <trkpt lat="47.73664" lon="8.76755">
        <ele>432.508848</ele>
        <time>2022-09-14T06:04:42.436Z</time>
      </trkpt>
      <trkpt lat="47.73665" lon="8.76733">
        <ele>432.351537</ele>
        <time>2022-09-14T06:04:45.696Z</time>
      </trkpt>
      <trkpt lat="47.73667" lon="8.76699">
        <ele>432.11383</ele>
        <time>2022-09-14T06:04:50.543Z</time>
      </trkpt>
      <trkpt lat="47.73683" lon="8.76489">
        <ele>430.643842</ele>
        <time>2022-09-14T06:05:21.765Z</time>
      </trkpt>
      <trkpt lat="47.73693" lon="8.76352">
        <ele>429.965154</ele>
        <time>2022-09-14T06:05:44.217Z</time>
      </trkpt>
      <trkpt lat="47.73696" lon="8.76337">
        <ele>430.054553</ele>
        <time>2022-09-14T06:05:47.132Z</time>
      </trkpt>
      <trkpt lat="47.73692" lon="8.76309">
        <ele>430.218492</ele>
        <time>2022-09-14T06:05:52.664Z</time>
      </trkpt>
      <trkpt lat="47.73704" lon="8.7625">
        <ele>430.568159</ele>
        <time>2022-09-14T06:06:05.477Z</time>
      </trkpt>
      <trkpt lat="47.73719" lon="8.76106">
        <ele>431.422918</ele>
        <time>2022-09-14T06:06:37.996Z</time>
      </trkpt>
      <trkpt lat="47.73746" lon="8.75936">
        <ele>433.160111</ele>
        <time>2022-09-14T06:07:18.182Z</time>
      </trkpt>
      <trkpt lat="47.73769" lon="8.75857">
        <ele>434.017735</ele>
        <time>2022-09-14T06:07:37.824Z</time>
      </trkpt>
      <trkpt lat="47.73784" lon="8.7576">
        <ele>434.563039</ele>
        <time>2022-09-14T06:07:59.707Z</time>
      </trkpt>
      <trkpt lat="47.73787" lon="8.75664">
        <ele>435.092405</ele>
        <time>2022-09-14T06:08:19.786Z</time>
      </trkpt>
      <trkpt lat="47.73769" lon="8.75538">
        <ele>435.408636</ele>
        <time>2022-09-14T06:08:43.232Z</time>
      </trkpt>
      <trkpt lat="47.73753" lon="8.75483">
        <ele>435.320435</ele>
        <time>2022-09-14T06:08:53.629Z</time>
      </trkpt>
      <trkpt lat="47.73716" lon="8.75394">
        <ele>435.16919</ele>
        <time>2022-09-14T06:09:11.071Z</time>
      </trkpt>
      <trkpt lat="47.7367" lon="8.75313">
        <ele>435.75123</ele>
        <time>2022-09-14T06:09:28.701Z</time>
      </trkpt>
      <trkpt lat="47.7364" lon="8.75246">
        <ele>436.622289</ele>
        <time>2022-09-14T06:09:44.910Z</time>
      </trkpt>
      <trkpt lat="47.73613" lon="8.75168">
        <ele>437.575424</ele>
        <time>2022-09-14T06:10:08.106Z</time>
      </trkpt>
      <trkpt lat="47.73595" lon="8.75102">
        <ele>438.899213</ele>
        <time>2022-09-14T06:10:29.415Z</time>
      </trkpt>
      <trkpt lat="47.73592" lon="8.75084">
        <ele>439.439432</ele>
        <time>2022-09-14T06:10:35.761Z</time>
      </trkpt>
      <trkpt lat="47.7358" lon="8.74952">
        <ele>443.216393</ele>
        <time>2022-09-14T06:11:19.913Z</time>
      </trkpt>
      <trkpt lat="47.73582" lon="8.74875">
        <ele>445.429224</ele>
        <time>2022-09-14T06:11:44.935Z</time>
      </trkpt>
      <trkpt lat="47.73596" lon="8.74802">
        <ele>446.546823</ele>
        <time>2022-09-14T06:12:07.723Z</time>
      </trkpt>
      <trkpt lat="47.73634" lon="8.74676">
        <ele>448.408696</ele>
        <time>2022-09-14T06:12:40.817Z</time>
      </trkpt>
      <trkpt lat="47.73638" lon="8.74644">
        <ele>448.848963</ele>
        <time>2022-09-14T06:12:47.570Z</time>
      </trkpt>
      <trkpt lat="47.73649" lon="8.74617">
        <ele>449.18304</ele>
        <time>2022-09-14T06:12:53.963Z</time>
      </trkpt>
      <trkpt lat="47.73665" lon="8.74598">
        <ele>448.84773</ele>
        <time>2022-09-14T06:12:59.477Z</time>
      </trkpt>
      <trkpt lat="47.73736" lon="8.74432">
        <ele>446.734851</ele>
        <time>2022-09-14T06:13:28.337Z</time>
      </trkpt>
      <trkpt lat="47.73739" lon="8.74406">
        <ele>446.450363</ele>
        <time>2022-09-14T06:13:31.779Z</time>
      </trkpt>
      <trkpt lat="47.73757" lon="8.74373">
        <ele>445.421944</ele>
        <time>2022-09-14T06:13:37.246Z</time>
      </trkpt>
      <trkpt lat="47.7384" lon="8.74169">
        <ele>438.749291</ele>
        <time>2022-09-14T06:14:06.785Z</time>
      </trkpt>
      <trkpt lat="47.73869" lon="8.74074">
        <ele>436.936684</ele>
        <time>2022-09-14T06:14:20.076Z</time>
      </trkpt>
      <trkpt lat="47.73869" lon="8.74059">
        <ele>436.673306</ele>
        <time>2022-09-14T06:14:22.088Z</time>
      </trkpt>
      <trkpt lat="47.73856" lon="8.7403">
        <ele>436.070614</ele>
        <time>2022-09-14T06:14:26.897Z</time>
      </trkpt>
      <trkpt lat="47.73855" lon="8.74005">
        <ele>435.625856</ele>
        <time>2022-09-14T06:14:30.529Z</time>
      </trkpt>
      <trkpt lat="47.7386" lon="8.74004">
        <ele>435.503375</ele>
        <time>2022-09-14T06:14:31.570Z</time>
      </trkpt>
      <trkpt lat="47.73872" lon="8.74002">
        <ele>435.182623</ele>
        <time>2022-09-14T06:14:34.277Z</time>
      </trkpt>
      <trkpt lat="47.73872" lon="8.73983">
        <ele>434.85115</ele>
        <time>2022-09-14T06:14:37.133Z</time>
      </trkpt>
      <trkpt lat="47.73889" lon="8.73904">
        <ele>433.989051</ele>
        <time>2022-09-14T06:14:50.516Z</time>
      </trkpt>
      <trkpt lat="47.73903" lon="8.73858">
        <ele>433.790006</ele>
        <time>2022-09-14T06:14:58.657Z</time>
      </trkpt>
      <trkpt lat="47.73913" lon="8.73837">
        <ele>433.68827</ele>
        <time>2022-09-14T06:15:02.825Z</time>
      </trkpt>
      <trkpt lat="47.7395" lon="8.73767">
        <ele>433.340186</ele>
        <time>2022-09-14T06:15:17.671Z</time>
      </trkpt>
      <trkpt lat="47.73964" lon="8.73698">
        <ele>433.030714</ele>
        <time>2022-09-14T06:15:30.189Z</time>
      </trkpt>
      <trkpt lat="47.73981" lon="8.73594">
        <ele>432.374935</ele>
        <time>2022-09-14T06:15:47.763Z</time>
      </trkpt>
      <trkpt lat="47.73989" lon="8.73552">
        <ele>432.109006</ele>
        <time>2022-09-14T06:15:54.500Z</time>
      </trkpt>
      <trkpt lat="47.74" lon="8.73515">
        <ele>431.861351</ele>
        <time>2022-09-14T06:16:00.661Z</time>
      </trkpt>
      <trkpt lat="47.74006" lon="8.73508">
        <ele>431.790862</ele>
        <time>2022-09-14T06:16:02.382Z</time>
      </trkpt>
      <trkpt lat="47.74017" lon="8.73506">
        <ele>431.695008</ele>
        <time>2022-09-14T06:16:04.715Z</time>
      </trkpt>
      <trkpt lat="47.74021" lon="8.73438">
        <ele>431.248468</ele>
        <time>2022-09-14T06:16:14.940Z</time>
      </trkpt>
      <trkpt lat="47.7403" lon="8.73336">
        <ele>430.513128</ele>
        <time>2022-09-14T06:16:30.673Z</time>
      </trkpt>
      <trkpt lat="47.74057" lon="8.73162">
        <ele>429.53907</ele>
        <time>2022-09-14T06:16:58.731Z</time>
      </trkpt>
      <trkpt lat="47.74105" lon="8.7302">
        <ele>429.417747</ele>
        <time>2022-09-14T06:17:27.179Z</time>
      </trkpt>
      <trkpt lat="47.74131" lon="8.72895">
        <ele>429.48674</ele>
        <time>2022-09-14T06:17:51.975Z</time>
      </trkpt>
      <trkpt lat="47.74132" lon="8.7288">
        <ele>429.514306</ele>
        <time>2022-09-14T06:17:54.993Z</time>
      </trkpt>
      <trkpt lat="47.74137" lon="8.72849">
        <ele>429.56865</ele>
        <time>2022-09-14T06:18:00.888Z</time>
      </trkpt>
      <trkpt lat="47.74144" lon="8.72807">
        <ele>429.642596</ele>
        <time>2022-09-14T06:18:08.975Z</time>
      </trkpt>
      <trkpt lat="47.74163" lon="8.72774">
        <ele>429.716129</ele>
        <time>2022-09-14T06:18:17.059Z</time>
      </trkpt>
      <trkpt lat="47.7419" lon="8.72724">
        <ele>429.827642</ele>
        <time>2022-09-14T06:18:29.124Z</time>
      </trkpt>
      <trkpt lat="47.74202" lon="8.72657">
        <ele>429.921592</ele>
        <time>2022-09-14T06:18:41.704Z</time>
      </trkpt>
      <trkpt lat="47.74228" lon="8.7225">
        <ele>430.605685</ele>
        <time>2022-09-14T06:19:58.103Z</time>
      </trkpt>
      <trkpt lat="47.74224" lon="8.72204">
        <ele>430.697362</ele>
        <time>2022-09-14T06:20:07.254Z</time>
      </trkpt>
      <trkpt lat="47.74209" lon="8.72134">
        <ele>430.870198</ele>
        <time>2022-09-14T06:20:21.566Z</time>
      </trkpt>
      <trkpt lat="47.74208" lon="8.72104">
        <ele>430.940591</ele>
        <time>2022-09-14T06:20:27.232Z</time>
      </trkpt>
      <trkpt lat="47.74215" lon="8.72062">
        <ele>431.047551</ele>
        <time>2022-09-14T06:20:35.867Z</time>
      </trkpt>
      <trkpt lat="47.74208" lon="8.7203">
        <ele>431.128747</ele>
        <time>2022-09-14T06:20:42.182Z</time>
      </trkpt>
      <trkpt lat="47.74218" lon="8.71983">
        <ele>431.250192</ele>
        <time>2022-09-14T06:20:51.821Z</time>
      </trkpt>
      <trkpt lat="47.74222" lon="8.71931">
        <ele>431.362005</ele>
        <time>2022-09-14T06:21:01.791Z</time>
      </trkpt>
      <trkpt lat="47.74208" lon="8.71784">
        <ele>431.246716</ele>
        <time>2022-09-14T06:21:28.405Z</time>
      </trkpt>
      <trkpt lat="47.74213" lon="8.7169">
        <ele>431.173669</ele>
        <time>2022-09-14T06:21:44.273Z</time>
      </trkpt>
      <trkpt lat="47.74224" lon="8.7168">
        <ele>431.159578</ele>
        <time>2022-09-14T06:21:47.517Z</time>
      </trkpt>
      <trkpt lat="47.74226" lon="8.71671">
        <ele>431.151475</ele>
        <time>2022-09-14T06:21:49.024Z</time>
      </trkpt>
      <trkpt lat="47.74243" lon="8.71604">
        <ele>431.092321</ele>
        <time>2022-09-14T06:22:01.231Z</time>
      </trkpt>
      <trkpt lat="47.74262" lon="8.71552">
        <ele>431.042249</ele>
        <time>2022-09-14T06:22:11.650Z</time>
      </trkpt>
      <trkpt lat="47.7432" lon="8.71465">
        <ele>430.939557</ele>
        <time>2022-09-14T06:22:33.167Z</time>
      </trkpt>
      <trkpt lat="47.74454" lon="8.71288">
        <ele>431.965775</ele>
        <time>2022-09-14T06:23:24.832Z</time>
      </trkpt>
      <trkpt lat="47.74504" lon="8.71163">
        <ele>433.687113</ele>
        <time>2022-09-14T06:23:59.975Z</time>
      </trkpt>
      <trkpt lat="47.74511" lon="8.71165">
        <ele>433.813074</ele>
        <time>2022-09-14T06:24:02.610Z</time>
      </trkpt>
      <trkpt lat="47.74522" lon="8.71173">
        <ele>434.041655</ele>
        <time>2022-09-14T06:24:07.294Z</time>
      </trkpt>
      <trkpt lat="47.74528" lon="8.71175">
        <ele>434.148873</ele>
        <time>2022-09-14T06:24:09.472Z</time>
      </trkpt>
      <trkpt lat="47.74552" lon="8.71165">
        <ele>434.601695</ele>
        <time>2022-09-14T06:24:18.936Z</time>
      </trkpt>
      <trkpt lat="47.74562" lon="8.71164">
        <ele>434.781845</ele>
        <time>2022-09-14T06:24:22.641Z</time>
      </trkpt>
      <trkpt lat="47.7458" lon="8.71161">
        <ele>435.101071</ele>
        <time>2022-09-14T06:24:29.238Z</time>
      </trkpt>
      <trkpt lat="47.7459" lon="8.71154">
        <ele>435.280801</ele>
        <time>2022-09-14T06:24:33.052Z</time>
      </trkpt>
      <trkpt lat="47.74635" lon="8.71093">
        <ele>435.851509</ele>
        <time>2022-09-14T06:24:53.779Z</time>
      </trkpt>
      <trkpt lat="47.74665" lon="8.71048">
        <ele>436.253857</ele>
        <time>2022-09-14T06:25:07.611Z</time>
      </trkpt>
      <trkpt lat="47.74681" lon="8.71021">
        <ele>436.480172</ele>
        <time>2022-09-14T06:25:15.245Z</time>
      </trkpt>
      <trkpt lat="47.747" lon="8.70963">
        <ele>436.887229</ele>
        <time>2022-09-14T06:25:27.134Z</time>
      </trkpt>
      <trkpt lat="47.74712" lon="8.70887">
        <ele>437.027464</ele>
        <time>2022-09-14T06:25:40.056Z</time>
      </trkpt>
      <trkpt lat="47.74721" lon="8.7083">
        <ele>437.100737</ele>
        <time>2022-09-14T06:25:49.776Z</time>
      </trkpt>
      <trkpt lat="47.74741" lon="8.70794">
        <ele>437.158489</ele>
        <time>2022-09-14T06:25:58.029Z</time>
      </trkpt>
      <trkpt lat="47.74747" lon="8.70789">
        <ele>437.17177</ele>
        <time>2022-09-14T06:26:00.329Z</time>
      </trkpt>
      <trkpt lat="47.74745" lon="8.70781">
        <ele>437.182509</ele>
        <time>2022-09-14T06:26:02.013Z</time>
      </trkpt>
      <trkpt lat="47.7474" lon="8.70767">
        <ele>437.20202</ele>
        <time>2022-09-14T06:26:05.150Z</time>
      </trkpt>
      <trkpt lat="47.74735" lon="8.70752">
        <ele>437.222138</ele>
        <time>2022-09-14T06:26:08.876Z</time>
      </trkpt>
      <trkpt lat="47.74728" lon="8.70733">
        <ele>437.249415</ele>
        <time>2022-09-14T06:26:13.816Z</time>
      </trkpt>
      <trkpt lat="47.74725" lon="8.70721">
        <ele>437.265459</ele>
        <time>2022-09-14T06:26:16.278Z</time>
      </trkpt>
      <trkpt lat="47.74731" lon="8.70708">
        <ele>437.280889</ele>
        <time>2022-09-14T06:26:19.569Z</time>
      </trkpt>
      <trkpt lat="47.74725" lon="8.70697">
        <ele>437.292802</ele>
        <time>2022-09-14T06:26:22.902Z</time>
      </trkpt>
      <trkpt lat="47.74716" lon="8.70701">
        <ele>437.304429</ele>
        <time>2022-09-14T06:26:25.724Z</time>
      </trkpt>
      <trkpt lat="47.74714" lon="8.70712">
        <ele>437.313431</ele>
        <time>2022-09-14T06:26:27.724Z</time>
      </trkpt>
      <trkpt lat="47.74701" lon="8.70713">
        <ele>437.329303</ele>
        <time>2022-09-14T06:26:31.846Z</time>
      </trkpt>
      <trkpt lat="47.74632" lon="8.70678">
        <ele>437.418067</ele>
        <time>2022-09-14T06:26:52.308Z</time>
      </trkpt>
      <trkpt lat="47.74621" lon="8.70671">
        <ele>437.431523</ele>
        <time>2022-09-14T06:26:55.267Z</time>
      </trkpt>
      <trkpt lat="47.74613" lon="8.70664">
        <ele>437.443155</ele>
        <time>2022-09-14T06:26:57.484Z</time>
      </trkpt>
      <trkpt lat="47.74562" lon="8.70608">
        <ele>437.123973</ele>
        <time>2022-09-14T06:27:13.256Z</time>
      </trkpt>
      <trkpt lat="47.74558" lon="8.70604">
        <ele>437.058516</ele>
        <time>2022-09-14T06:27:14.154Z</time>
      </trkpt>
      <trkpt lat="47.74538" lon="8.70582">
        <ele>436.656444</ele>
        <time>2022-09-14T06:27:20.367Z</time>
      </trkpt>
      <trkpt lat="47.74522" lon="8.70565">
        <ele>436.347975</ele>
        <time>2022-09-14T06:27:24.582Z</time>
      </trkpt>
      <trkpt lat="47.74527" lon="8.70547">
        <ele>436.144104</ele>
        <time>2022-09-14T06:27:27.571Z</time>
      </trkpt>
      <trkpt lat="47.74523" lon="8.70493">
        <ele>435.577274</ele>
        <time>2022-09-14T06:27:35.302Z</time>
      </trkpt>
      <trkpt lat="47.74522" lon="8.7047">
        <ele>435.334874</ele>
        <time>2022-09-14T06:27:38.608Z</time>
      </trkpt>
      <trkpt lat="47.7452" lon="8.7038">
        <ele>434.766622</ele>
        <time>2022-09-14T06:27:51.950Z</time>
      </trkpt>
      <trkpt lat="47.74525" lon="8.70328">
        <ele>434.945415</ele>
        <time>2022-09-14T06:28:00.519Z</time>
      </trkpt>
      <trkpt lat="47.74531" lon="8.70173">
        <ele>435.466472</ele>
        <time>2022-09-14T06:28:31.448Z</time>
      </trkpt>
      <trkpt lat="47.74524" lon="8.6974">
        <ele>448.873216</ele>
        <time>2022-09-14T06:30:53.790Z</time>
      </trkpt>
      <trkpt lat="47.74514" lon="8.69736">
        <ele>449.587376</ele>
        <time>2022-09-14T06:31:02.300Z</time>
      </trkpt>
      <trkpt lat="47.74509" lon="8.69512">
        <ele>458.595599</ele>
        <time>2022-09-14T06:32:44.977Z</time>
      </trkpt>
      <trkpt lat="47.74505" lon="8.69495">
        <ele>459.23139</ele>
        <time>2022-09-14T06:32:51.382Z</time>
      </trkpt>
      <trkpt lat="47.74497" lon="8.69483">
        <ele>459.851425</ele>
        <time>2022-09-14T06:32:58.073Z</time>
      </trkpt>
      <trkpt lat="47.74476" lon="8.69453">
        <ele>461.404221</ele>
        <time>2022-09-14T06:33:12.606Z</time>
      </trkpt>
      <trkpt lat="47.7447" lon="8.69445">
        <ele>461.82026</ele>
        <time>2022-09-14T06:33:16.296Z</time>
      </trkpt>
      <trkpt lat="47.74416" lon="8.69368">
        <ele>463.076569</ele>
        <time>2022-09-14T06:33:43.630Z</time>
      </trkpt>
      <trkpt lat="47.74398" lon="8.69336">
        <ele>461.758203</ele>
        <time>2022-09-14T06:33:49.058Z</time>
      </trkpt>
      <trkpt lat="47.7438" lon="8.6929">
        <ele>460.073371</ele>
        <time>2022-09-14T06:33:55.311Z</time>
      </trkpt>
      <trkpt lat="47.74366" lon="8.6923">
        <ele>458.015207</ele>
        <time>2022-09-14T06:34:02.671Z</time>
      </trkpt>
      <trkpt lat="47.74359" lon="8.6916">
        <ele>455.724987</ele>
        <time>2022-09-14T06:34:10.783Z</time>
      </trkpt>
      <trkpt lat="47.74365" lon="8.6914">
        <ele>454.729206</ele>
        <time>2022-09-14T06:34:13.150Z</time>
      </trkpt>
      <trkpt lat="47.74371" lon="8.69128">
        <ele>454.024288</ele>
        <time>2022-09-14T06:34:15.105Z</time>
      </trkpt>
      <trkpt lat="47.74377" lon="8.69114">
        <ele>453.316578</ele>
        <time>2022-09-14T06:34:16.955Z</time>
      </trkpt>
      <trkpt lat="47.74381" lon="8.69099">
        <ele>452.552139</ele>
        <time>2022-09-14T06:34:18.749Z</time>
      </trkpt>
      <trkpt lat="47.74379" lon="8.69087">
        <ele>451.959963</ele>
        <time>2022-09-14T06:34:20.320Z</time>
      </trkpt>
      <trkpt lat="47.74351" lon="8.69062">
        <ele>449.80393</ele>
        <time>2022-09-14T06:34:25.670Z</time>
      </trkpt>
      <trkpt lat="47.74309" lon="8.69032">
        <ele>446.622644</ele>
        <time>2022-09-14T06:34:33.775Z</time>
      </trkpt>
      <trkpt lat="47.74229" lon="8.69007">
        <ele>442.666157</ele>
        <time>2022-09-14T06:34:48.459Z</time>
      </trkpt>
      <trkpt lat="47.74207" lon="8.68988">
        <ele>442.013371</ele>
        <time>2022-09-14T06:34:53.676Z</time>
      </trkpt>
      <trkpt lat="47.74194" lon="8.68976">
        <ele>441.618661</ele>
        <time>2022-09-14T06:34:56.976Z</time>
      </trkpt>
      <trkpt lat="47.74186" lon="8.68966">
        <ele>441.364323</ele>
        <time>2022-09-14T06:34:59.103Z</time>
      </trkpt>
      <trkpt lat="47.74159" lon="8.68955">
        <ele>440.64365</ele>
        <time>2022-09-14T06:35:05.310Z</time>
      </trkpt>
      <trkpt lat="47.74112" lon="8.68976">
        <ele>439.402877</ele>
        <time>2022-09-14T06:35:16.400Z</time>
      </trkpt>
      <trkpt lat="47.74072" lon="8.68976">
        <ele>438.783071</ele>
        <time>2022-09-14T06:35:25.679Z</time>
      </trkpt>
      <trkpt lat="47.74003" lon="8.68969">
        <ele>438.081492</ele>
        <time>2022-09-14T06:35:42.330Z</time>
      </trkpt>
      <trkpt lat="47.73961" lon="8.68978">
        <ele>437.654211</ele>
        <time>2022-09-14T06:35:52.299Z</time>
      </trkpt>
      <trkpt lat="47.73922" lon="8.69007">
        <ele>437.197331</ele>
        <time>2022-09-14T06:36:02.136Z</time>
      </trkpt>
      <trkpt lat="47.73854" lon="8.69108">
        <ele>435.156981</ele>
        <time>2022-09-14T06:36:22.677Z</time>
      </trkpt>
      <trkpt lat="47.73833" lon="8.69113">
        <ele>434.718295</ele>
        <time>2022-09-14T06:36:26.822Z</time>
      </trkpt>
      <trkpt lat="47.73798" lon="8.691">
        <ele>433.951373</ele>
        <time>2022-09-14T06:36:34.126Z</time>
      </trkpt>
      <trkpt lat="47.73748" lon="8.69067">
        <ele>433.142033</ele>
        <time>2022-09-14T06:36:45.345Z</time>
      </trkpt>
      <trkpt lat="47.73719" lon="8.69031">
        <ele>432.78285</ele>
        <time>2022-09-14T06:36:53.359Z</time>
      </trkpt>
      <trkpt lat="47.7366" lon="8.68861">
        <ele>431.780368</ele>
        <time>2022-09-14T06:37:26.021Z</time>
      </trkpt>
      <trkpt lat="47.73649" lon="8.68818">
        <ele>431.923178</ele>
        <time>2022-09-14T06:37:34.917Z</time>
      </trkpt>
      <trkpt lat="47.73647" lon="8.68785">
        <ele>432.028187</ele>
        <time>2022-09-14T06:37:41.725Z</time>
      </trkpt>
      <trkpt lat="47.7365" lon="8.68608">
        <ele>432.596004</ele>
        <time>2022-09-14T06:38:16.990Z</time>
      </trkpt>
      <trkpt lat="47.73618" lon="8.68455">
        <ele>433.246053</ele>
        <time>2022-09-14T06:38:48.561Z</time>
      </trkpt>
      <trkpt lat="47.73617" lon="8.68259">
        <ele>433.664063</ele>
        <time>2022-09-14T06:39:28.441Z</time>
      </trkpt>
      <trkpt lat="47.73607" lon="8.68176">
        <ele>433.693117</ele>
        <time>2022-09-14T06:39:43.957Z</time>
      </trkpt>
      <trkpt lat="47.73588" lon="8.681">
        <ele>433.721073</ele>
        <time>2022-09-14T06:39:57.141Z</time>
      </trkpt>
      <trkpt lat="47.73551" lon="8.68004">
        <ele>432.895688</ele>
        <time>2022-09-14T06:40:14.157Z</time>
      </trkpt>
      <trkpt lat="47.73511" lon="8.67937">
        <ele>432.224764</ele>
        <time>2022-09-14T06:40:27.407Z</time>
      </trkpt>
      <trkpt lat="47.73282" lon="8.67656">
        <ele>429.507461</ele>
        <time>2022-09-14T06:41:36.793Z</time>
      </trkpt>
      <trkpt lat="47.73146" lon="8.67485">
        <ele>428.762646</ele>
        <time>2022-09-14T06:42:19.801Z</time>
      </trkpt>
      <trkpt lat="47.72843" lon="8.67055">
        <ele>429.462288</ele>
        <time>2022-09-14T06:44:17.882Z</time>
      </trkpt>
      <trkpt lat="47.72804" lon="8.67018">
        <ele>429.591191</ele>
        <time>2022-09-14T06:44:30.078Z</time>
      </trkpt>
      <trkpt lat="47.72748" lon="8.66975">
        <ele>429.758341</ele>
        <time>2022-09-14T06:44:48.291Z</time>
      </trkpt>
      <trkpt lat="47.72686" lon="8.6694">
        <ele>429.932641</ele>
        <time>2022-09-14T06:45:07.210Z</time>
      </trkpt>
      <trkpt lat="47.72602" lon="8.66905">
        <ele>429.910426</ele>
        <time>2022-09-14T06:45:31.214Z</time>
      </trkpt>
      <trkpt lat="47.72486" lon="8.66874">
        <ele>429.297674</ele>
        <time>2022-09-14T06:45:59.702Z</time>
      </trkpt>
      <trkpt lat="47.72292" lon="8.66835">
        <ele>428.7551</ele>
        <time>2022-09-14T06:46:45.988Z</time>
      </trkpt>
      <trkpt lat="47.72274" lon="8.66814">
        <ele>429.019227</ele>
        <time>2022-09-14T06:46:54.621Z</time>
      </trkpt>
      <trkpt lat="47.72258" lon="8.66772">
        <ele>430.067234</ele>
        <time>2022-09-14T06:47:07.441Z</time>
      </trkpt>
      <trkpt lat="47.72253" lon="8.66767">
        <ele>430.251723</ele>
        <time>2022-09-14T06:47:09.492Z</time>
      </trkpt>
      <trkpt lat="47.72253" lon="8.66754">
        <ele>430.553693</ele>
        <time>2022-09-14T06:47:13.486Z</time>
      </trkpt>
      <trkpt lat="47.72261" lon="8.66619">
        <ele>433.486655</ele>
        <time>2022-09-14T06:47:55.333Z</time>
      </trkpt>
      <trkpt lat="47.72275" lon="8.66553">
        <ele>434.894273</ele>
        <time>2022-09-14T06:48:16.707Z</time>
      </trkpt>
      <trkpt lat="47.72283" lon="8.66533">
        <ele>435.304759</ele>
        <time>2022-09-14T06:48:24.065Z</time>
      </trkpt>
      <trkpt lat="47.72289" lon="8.66518">
        <ele>435.622853</ele>
        <time>2022-09-14T06:48:29.432Z</time>
      </trkpt>
      <trkpt lat="47.72316" lon="8.66469">
        <ele>436.747366</ele>
        <time>2022-09-14T06:48:47.019Z</time>
      </trkpt>
      <trkpt lat="47.72332" lon="8.66437">
        <ele>437.443503</ele>
        <time>2022-09-14T06:48:57.262Z</time>
      </trkpt>
      <trkpt lat="47.72339" lon="8.6641">
        <ele>437.94499</ele>
        <time>2022-09-14T06:49:04.022Z</time>
      </trkpt>
      <trkpt lat="47.72306" lon="8.66388">
        <ele>438.90681</ele>
        <time>2022-09-14T06:49:16.947Z</time>
      </trkpt>
      <trkpt lat="47.72266" lon="8.66343">
        <ele>439.480039</ele>
        <time>2022-09-14T06:49:33.476Z</time>
      </trkpt>
      <trkpt lat="47.7222" lon="8.66256">
        <ele>439.963063</ele>
        <time>2022-09-14T06:49:55.779Z</time>
      </trkpt>
      <trkpt lat="47.72213" lon="8.66242">
        <ele>440.037561</ele>
        <time>2022-09-14T06:49:59.156Z</time>
      </trkpt>
      <trkpt lat="47.72202" lon="8.6622">
        <ele>440.158199</ele>
        <time>2022-09-14T06:50:04.635Z</time>
      </trkpt>
      <trkpt lat="47.7216" lon="8.66137">
        <ele>440.250987</ele>
        <time>2022-09-14T06:50:22.913Z</time>
      </trkpt>
      <trkpt lat="47.7212" lon="8.66021">
        <ele>439.833439</ele>
        <time>2022-09-14T06:50:44.168Z</time>
      </trkpt>
      <trkpt lat="47.72096" lon="8.65971">
        <ele>439.637411</ele>
        <time>2022-09-14T06:50:54.051Z</time>
      </trkpt>
      <trkpt lat="47.72071" lon="8.65926">
        <ele>439.397327</ele>
        <time>2022-09-14T06:51:03.890Z</time>
      </trkpt>
      <trkpt lat="47.72058" lon="8.65903">
        <ele>439.249301</ele>
        <time>2022-09-14T06:51:08.848Z</time>
      </trkpt>
      <trkpt lat="47.72043" lon="8.65871">
        <ele>439.054063</ele>
        <time>2022-09-14T06:51:15.177Z</time>
      </trkpt>
      <trkpt lat="47.72008" lon="8.65728">
        <ele>438.303814</ele>
        <time>2022-09-14T06:51:39.472Z</time>
      </trkpt>
      <trkpt lat="47.71993" lon="8.65677">
        <ele>437.857165</ele>
        <time>2022-09-14T06:51:48.470Z</time>
      </trkpt>
      <trkpt lat="47.71977" lon="8.65637">
        <ele>437.410967</ele>
        <time>2022-09-14T06:51:55.871Z</time>
      </trkpt>
      <trkpt lat="47.7196" lon="8.65603">
        <ele>437.012635</ele>
        <time>2022-09-14T06:52:02.210Z</time>
      </trkpt>
      <trkpt lat="47.7194" lon="8.65568">
        <ele>436.581102</ele>
        <time>2022-09-14T06:52:08.942Z</time>
      </trkpt>
      <trkpt lat="47.71921" lon="8.65538">
        <ele>436.194398</ele>
        <time>2022-09-14T06:52:14.860Z</time>
      </trkpt>
      <trkpt lat="47.71903" lon="8.65515">
        <ele>435.85457</ele>
        <time>2022-09-14T06:52:19.977Z</time>
      </trkpt>
      <trkpt lat="47.71895" lon="8.65505">
        <ele>435.713115</ele>
        <time>2022-09-14T06:52:22.124Z</time>
      </trkpt>
      <trkpt lat="47.71879" lon="8.65484">
        <ele>435.159905</ele>
        <time>2022-09-14T06:52:26.686Z</time>
      </trkpt>
      <trkpt lat="47.71863" lon="8.65467">
        <ele>434.661038</ele>
        <time>2022-09-14T06:52:30.713Z</time>
      </trkpt>
      <trkpt lat="47.71822" lon="8.65424">
        <ele>433.361055</ele>
        <time>2022-09-14T06:52:41.141Z</time>
      </trkpt>
      <trkpt lat="47.71769" lon="8.65378">
        <ele>431.781735</ele>
        <time>2022-09-14T06:52:53.393Z</time>
      </trkpt>
      <trkpt lat="47.71733" lon="8.65356">
        <ele>430.663225</ele>
        <time>2022-09-14T06:53:00.904Z</time>
      </trkpt>
      <trkpt lat="47.71732" lon="8.65344">
        <ele>430.356446</ele>
        <time>2022-09-14T06:53:02.577Z</time>
      </trkpt>
      <trkpt lat="47.71726" lon="8.65337">
        <ele>430.051152</ele>
        <time>2022-09-14T06:53:04.191Z</time>
      </trkpt>
      <trkpt lat="47.71713" lon="8.65345">
        <ele>429.540267</ele>
        <time>2022-09-14T06:53:06.759Z</time>
      </trkpt>
      <trkpt lat="47.71707" lon="8.65342">
        <ele>429.283772</ele>
        <time>2022-09-14T06:53:08.095Z</time>
      </trkpt>
      <trkpt lat="47.71631" lon="8.6532">
        <ele>426.432952</ele>
        <time>2022-09-14T06:53:22.633Z</time>
      </trkpt>
      <trkpt lat="47.71605" lon="8.65305">
        <ele>425.380887</ele>
        <time>2022-09-14T06:53:27.934Z</time>
      </trkpt>
      <trkpt lat="47.71575" lon="8.65269">
        <ele>423.985521</ele>
        <time>2022-09-14T06:53:35.230Z</time>
      </trkpt>
      <trkpt lat="47.71567" lon="8.65257">
        <ele>423.585268</ele>
        <time>2022-09-14T06:53:37.422Z</time>
      </trkpt>
      <trkpt lat="47.71559" lon="8.65244">
        <ele>423.148511</ele>
        <time>2022-09-14T06:53:39.789Z</time>
      </trkpt>
      <trkpt lat="47.714" lon="8.64944">
        <ele>414.83496</ele>
        <time>2022-09-14T06:54:29.378Z</time>
      </trkpt>
      <trkpt lat="47.71342" lon="8.64833">
        <ele>412.526084</ele>
        <time>2022-09-14T06:54:48.865Z</time>
      </trkpt>
      <trkpt lat="47.71309" lon="8.64768">
        <ele>411.851801</ele>
        <time>2022-09-14T06:55:01.101Z</time>
      </trkpt>
      <trkpt lat="47.71283" lon="8.6471">
        <ele>411.280315</ele>
        <time>2022-09-14T06:55:11.935Z</time>
      </trkpt>
      <trkpt lat="47.71258" lon="8.64636">
        <ele>410.640292</ele>
        <time>2022-09-14T06:55:25.304Z</time>
      </trkpt>
      <trkpt lat="47.71175" lon="8.6436">
        <ele>410.184409</ele>
        <time>2022-09-14T06:56:17.773Z</time>
      </trkpt>
      <trkpt lat="47.71134" lon="8.64224">
        <ele>410.216407</ele>
        <time>2022-09-14T06:56:44.463Z</time>
      </trkpt>
      <trkpt lat="47.71105" lon="8.64164">
        <ele>410.232191</ele>
        <time>2022-09-14T06:56:58.256Z</time>
      </trkpt>
      <trkpt lat="47.71093" lon="8.64149">
        <ele>410.240285</ele>
        <time>2022-09-14T06:57:02.852Z</time>
      </trkpt>
      <trkpt lat="47.71082" lon="8.64146">
        <ele>410.246076</ele>
        <time>2022-09-14T06:57:06.022Z</time>
      </trkpt>
      <trkpt lat="47.7108" lon="8.64125">
        <ele>410.253788</ele>
        <time>2022-09-14T06:57:09.894Z</time>
      </trkpt>
      <trkpt lat="47.71071" lon="8.64092">
        <ele>410.266395</ele>
        <time>2022-09-14T06:57:16.752Z</time>
      </trkpt>
      <trkpt lat="47.71054" lon="8.64071">
        <ele>410.277944</ele>
        <time>2022-09-14T06:57:22.773Z</time>
      </trkpt>
      <trkpt lat="47.70919" lon="8.6398">
        <ele>410.200153</ele>
        <time>2022-09-14T06:58:01.722Z</time>
      </trkpt>
      <trkpt lat="47.70751" lon="8.63858">
        <ele>409.886948</ele>
        <time>2022-09-14T06:58:48.987Z</time>
      </trkpt>
      <trkpt lat="47.70743" lon="8.63842">
        <ele>409.883063</ele>
        <time>2022-09-14T06:58:52.959Z</time>
      </trkpt>
      <trkpt lat="47.7065" lon="8.63771">
        <ele>409.854044</ele>
        <time>2022-09-14T06:59:21.222Z</time>
      </trkpt>
      <trkpt lat="47.70637" lon="8.63755">
        <ele>409.908134</ele>
        <time>2022-09-14T06:59:25.710Z</time>
      </trkpt>
      <trkpt lat="47.70615" lon="8.63738">
        <ele>409.988486</ele>
        <time>2022-09-14T06:59:32.978Z</time>
      </trkpt>
      <trkpt lat="47.70532" lon="8.6368">
        <ele>410.290939</ele>
        <time>2022-09-14T06:59:58.277Z</time>
      </trkpt>
      <trkpt lat="47.70488" lon="8.63645">
        <ele>410.434219</ele>
        <time>2022-09-14T07:00:13.771Z</time>
      </trkpt>
      <trkpt lat="47.70459" lon="8.63642">
        <ele>410.310042</ele>
        <time>2022-09-14T07:00:22.235Z</time>
      </trkpt>
      <trkpt lat="47.70429" lon="8.63631">
        <ele>410.175591</ele>
        <time>2022-09-14T07:00:30.625Z</time>
      </trkpt>
      <trkpt lat="47.70404" lon="8.63602">
        <ele>410.039502</ele>
        <time>2022-09-14T07:00:38.818Z</time>
      </trkpt>
      <trkpt lat="47.70401" lon="8.6359">
        <ele>410.000857</ele>
        <time>2022-09-14T07:00:41.656Z</time>
      </trkpt>
      <trkpt lat="47.70361" lon="8.63573">
        <ele>409.825244</ele>
        <time>2022-09-14T07:00:51.610Z</time>
      </trkpt>
      <trkpt lat="47.70246" lon="8.63504">
        <ele>407.467028</ele>
        <time>2022-09-14T07:01:17.771Z</time>
      </trkpt>
      <trkpt lat="47.70243" lon="8.63503">
        <ele>407.383114</ele>
        <time>2022-09-14T07:01:18.412Z</time>
      </trkpt>
      <trkpt lat="47.70202" lon="8.63492">
        <ele>406.354964</ele>
        <time>2022-09-14T07:01:26.333Z</time>
      </trkpt>
      <trkpt lat="47.70169" lon="8.63485">
        <ele>405.529852</ele>
        <time>2022-09-14T07:01:32.782Z</time>
      </trkpt>
      <trkpt lat="47.70106" lon="8.63475">
        <ele>404.706161</ele>
        <time>2022-09-14T07:01:45.996Z</time>
      </trkpt>
      <trkpt lat="47.70075" lon="8.63459">
        <ele>404.391221</ele>
        <time>2022-09-14T07:01:52.983Z</time>
      </trkpt>
      <trkpt lat="47.7005" lon="8.63437">
        <ele>404.110508</ele>
        <time>2022-09-14T07:01:59.793Z</time>
      </trkpt>
      <trkpt lat="47.70045" lon="8.63439">
        <ele>404.053369</ele>
        <time>2022-09-14T07:02:01.586Z</time>
      </trkpt>
      <trkpt lat="47.70009" lon="8.63389">
        <ele>403.572816</ele>
        <time>2022-09-14T07:02:15.378Z</time>
      </trkpt>
      <trkpt lat="47.69999" lon="8.63386">
        <ele>403.473947</ele>
        <time>2022-09-14T07:02:18.395Z</time>
      </trkpt>
      <trkpt lat="47.69998" lon="8.63392">
        <ele>403.489352</ele>
        <time>2022-09-14T07:02:19.577Z</time>
      </trkpt>
      <trkpt lat="47.6999" lon="8.63432">
        <ele>404.111192</ele>
        <time>2022-09-14T07:02:28.911Z</time>
      </trkpt>
      <trkpt lat="47.6999" lon="8.63439">
        <ele>404.212359</ele>
        <time>2022-09-14T07:02:30.369Z</time>
      </trkpt>
      <trkpt lat="47.69981" lon="8.63438">
        <ele>404.406982</ele>
        <time>2022-09-14T07:02:33.269Z</time>
      </trkpt>
      <trkpt lat="47.69975" lon="8.63437">
        <ele>404.531546</ele>
        <time>2022-09-14T07:02:35.326Z</time>
      </trkpt>
      <trkpt lat="47.69973" lon="8.63433">
        <ele>404.617919</ele>
        <time>2022-09-14T07:02:36.920Z</time>
      </trkpt>
      <trkpt lat="47.69949" lon="8.63416">
        <ele>405.205098</ele>
        <time>2022-09-14T07:02:47.024Z</time>
      </trkpt>
      <trkpt lat="47.69939" lon="8.6342">
        <ele>405.436287</ele>
        <time>2022-09-14T07:02:51.426Z</time>
      </trkpt>
      <trkpt lat="47.69921" lon="8.63405">
        <ele>405.902255</ele>
        <time>2022-09-14T07:02:59.997Z</time>
      </trkpt>
      <trkpt lat="47.69871" lon="8.63359">
        <ele>407.18604</ele>
        <time>2022-09-14T07:03:28.245Z</time>
      </trkpt>
      <trkpt lat="47.69858" lon="8.63347">
        <ele>407.522851</ele>
        <time>2022-09-14T07:03:35.884Z</time>
      </trkpt>
      <trkpt lat="47.69844" lon="8.63333">
        <ele>407.862332</ele>
        <time>2022-09-14T07:03:44.542Z</time>
      </trkpt>
      <trkpt lat="47.69837" lon="8.63326">
        <ele>408.033561</ele>
        <time>2022-09-14T07:03:48.774Z</time>
      </trkpt>
      <trkpt lat="47.69794" lon="8.63284">
        <ele>409.063328</ele>
        <time>2022-09-14T07:04:12.539Z</time>
      </trkpt>
      <trkpt lat="47.69788" lon="8.63278">
        <ele>409.20955</ele>
        <time>2022-09-14T07:04:15.740Z</time>
      </trkpt>
      <trkpt lat="47.69751" lon="8.63239">
        <ele>410.111769</ele>
        <time>2022-09-14T07:04:35.983Z</time>
      </trkpt>
      <trkpt lat="47.69744" lon="8.63232">
        <ele>410.274872</ele>
        <time>2022-09-14T07:04:38.860Z</time>
      </trkpt>
      <trkpt lat="47.69739" lon="8.63227">
        <ele>410.401059</ele>
        <time>2022-09-14T07:04:40.992Z</time>
      </trkpt>
      <trkpt lat="47.6972" lon="8.63204">
        <ele>410.894386</ele>
        <time>2022-09-14T07:04:49.378Z</time>
      </trkpt>
      <trkpt lat="47.69715" lon="8.63198">
        <ele>411.019039</ele>
        <time>2022-09-14T07:04:51.557Z</time>
      </trkpt>
      <trkpt lat="47.69695" lon="8.63174">
        <ele>410.606784</ele>
        <time>2022-09-14T07:04:59.412Z</time>
      </trkpt>
      <trkpt lat="47.6967" lon="8.63165">
        <ele>410.203869</ele>
        <time>2022-09-14T07:05:06.188Z</time>
      </trkpt>
      <trkpt lat="47.69664" lon="8.63166">
        <ele>410.106317</ele>
        <time>2022-09-14T07:05:08.235Z</time>
      </trkpt>
      <trkpt lat="47.69666" lon="8.63176">
        <ele>409.9998</ele>
        <time>2022-09-14T07:05:10.096Z</time>
      </trkpt>
      <trkpt lat="47.6966" lon="8.63229">
        <ele>409.418353</ele>
        <time>2022-09-14T07:05:18.335Z</time>
      </trkpt>
      <trkpt lat="47.69613" lon="8.63223">
        <ele>408.667954</ele>
        <time>2022-09-14T07:05:27.757Z</time>
      </trkpt>
      <trkpt lat="47.69602" lon="8.63229">
        <ele>408.475254</ele>
        <time>2022-09-14T07:05:30.017Z</time>
      </trkpt>
      <trkpt lat="47.69588" lon="8.63228">
        <ele>408.248093</ele>
        <time>2022-09-14T07:05:32.672Z</time>
      </trkpt>
      <trkpt lat="47.69531" lon="8.63223">
        <ele>405.4947</ele>
        <time>2022-09-14T07:05:43.002Z</time>
      </trkpt>
      <trkpt lat="47.69528" lon="8.63223">
        <ele>405.345662</ele>
        <time>2022-09-14T07:05:43.477Z</time>
      </trkpt>
      <trkpt lat="47.69397" lon="8.63225">
        <ele>398.405008</ele>
        <time>2022-09-14T07:06:06.767Z</time>
      </trkpt>
      <trkpt lat="47.69374" lon="8.63232">
        <ele>397.464615</ele>
        <time>2022-09-14T07:06:10.746Z</time>
      </trkpt>
      <trkpt lat="47.69376" lon="8.63247">
        <ele>397.045632</ele>
        <time>2022-09-14T07:06:12.714Z</time>
      </trkpt>
      <trkpt lat="47.69369" lon="8.63249">
        <ele>396.735799</ele>
        <time>2022-09-14T07:06:14.104Z</time>
      </trkpt>
      <trkpt lat="47.69363" lon="8.63205">
        <ele>395.52352</ele>
        <time>2022-09-14T07:06:19.415Z</time>
      </trkpt>
      <trkpt lat="47.69364" lon="8.63192">
        <ele>395.158887</ele>
        <time>2022-09-14T07:06:21.065Z</time>
      </trkpt>
      <trkpt lat="47.69365" lon="8.63177">
        <ele>394.750152</ele>
        <time>2022-09-14T07:06:22.828Z</time>
      </trkpt>
      <trkpt lat="47.69342" lon="8.63177">
        <ele>393.79978</ele>
        <time>2022-09-14T07:06:27.357Z</time>
      </trkpt>
      <trkpt lat="47.69341" lon="8.63177">
        <ele>393.742619</ele>
        <time>2022-09-14T07:06:27.627Z</time>
      </trkpt>
      <trkpt lat="47.69336" lon="8.63173">
        <ele>393.511911</ele>
        <time>2022-09-14T07:06:28.657Z</time>
      </trkpt>
      <trkpt lat="47.69337" lon="8.63136">
        <ele>392.495063</ele>
        <time>2022-09-14T07:06:33.618Z</time>
      </trkpt>
      <trkpt lat="47.6934" lon="8.63134">
        <ele>392.353481</ele>
        <time>2022-09-14T07:06:34.311Z</time>
      </trkpt>
      <trkpt lat="47.69356" lon="8.63124">
        <ele>391.662738</ele>
        <time>2022-09-14T07:06:37.545Z</time>
      </trkpt>
      <trkpt lat="47.69365" lon="8.63047">
        <ele>390.472137</ele>
        <time>2022-09-14T07:06:49.715Z</time>
      </trkpt>
      <trkpt lat="47.69361" lon="8.62978">
        <ele>389.62704</ele>
        <time>2022-09-14T07:07:00.536Z</time>
      </trkpt>
      <trkpt lat="47.69334" lon="8.62916">
        <ele>388.732904</ele>
        <time>2022-09-14T07:07:10.771Z</time>
      </trkpt>
      <trkpt lat="47.69314" lon="8.62867">
        <ele>388.024125</ele>
        <time>2022-09-14T07:07:18.880Z</time>
      </trkpt>
      <trkpt lat="47.69304" lon="8.62859">
        <ele>387.852661</ele>
        <time>2022-09-14T07:07:21.149Z</time>
      </trkpt>
      <trkpt lat="47.69287" lon="8.62763">
        <ele>386.830878</ele>
        <time>2022-09-14T07:07:35.709Z</time>
      </trkpt>
      <trkpt lat="47.69291" lon="8.62705">
        <ele>386.23094</ele>
        <time>2022-09-14T07:07:43.989Z</time>
      </trkpt>
      <trkpt lat="47.69293" lon="8.62697">
        <ele>386.154915</ele>
        <time>2022-09-14T07:07:45.258Z</time>
      </trkpt>
      <trkpt lat="47.69292" lon="8.62673">
        <ele>385.901382</ele>
        <time>2022-09-14T07:07:48.846Z</time>
      </trkpt>
      <trkpt lat="47.69281" lon="8.62611">
        <ele>385.248562</ele>
        <time>2022-09-14T07:07:59.080Z</time>
      </trkpt>
      <trkpt lat="47.6927" lon="8.62594">
        <ele>385.329911</ele>
        <time>2022-09-14T07:08:02.853Z</time>
      </trkpt>
      <trkpt lat="47.69258" lon="8.62573">
        <ele>385.450902</ele>
        <time>2022-09-14T07:08:07.112Z</time>
      </trkpt>
      <trkpt lat="47.69248" lon="8.62545">
        <ele>385.594533</ele>
        <time>2022-09-14T07:08:12.342Z</time>
      </trkpt>
      <trkpt lat="47.69242" lon="8.62526">
        <ele>385.685345</ele>
        <time>2022-09-14T07:08:15.678Z</time>
      </trkpt>
      <trkpt lat="47.6924" lon="8.62519">
        <ele>385.72419</ele>
        <time>2022-09-14T07:08:17.127Z</time>
      </trkpt>
      <trkpt lat="47.69208" lon="8.62447">
        <ele>386.105185</ele>
        <time>2022-09-14T07:08:34.887Z</time>
      </trkpt>
      <trkpt lat="47.69174" lon="8.62399">
        <ele>386.414206</ele>
        <time>2022-09-14T07:08:52.045Z</time>
      </trkpt>
      <trkpt lat="47.69151" lon="8.62376">
        <ele>387.272524</ele>
        <time>2022-09-14T07:09:03.481Z</time>
      </trkpt>
      <trkpt lat="47.69104" lon="8.62346">
        <ele>388.882293</ele>
        <time>2022-09-14T07:09:25.853Z</time>
      </trkpt>
      <trkpt lat="47.69128" lon="8.62273">
        <ele>390.613191</ele>
        <time>2022-09-14T07:09:49.088Z</time>
      </trkpt>
      <trkpt lat="47.69117" lon="8.62266">
        <ele>390.987149</ele>
        <time>2022-09-14T07:09:53.747Z</time>
      </trkpt>
      <trkpt lat="47.69118" lon="8.62255">
        <ele>391.221153</ele>
        <time>2022-09-14T07:09:57.188Z</time>
      </trkpt>
      <trkpt lat="47.69132" lon="8.62249">
        <ele>391.664022</ele>
        <time>2022-09-14T07:10:03.106Z</time>
      </trkpt>
      <trkpt lat="47.69144" lon="8.62253">
        <ele>392.062932</ele>
        <time>2022-09-14T07:10:08.285Z</time>
      </trkpt>
      <trkpt lat="47.69142" lon="8.62263">
        <ele>392.330334</ele>
        <time>2022-09-14T07:10:11.648Z</time>
      </trkpt>
      <trkpt lat="47.69131" lon="8.6226">
        <ele>392.741422</ele>
        <time>2022-09-14T07:10:16.671Z</time>
      </trkpt>
      <trkpt lat="47.69129" lon="8.62253">
        <ele>392.932595</ele>
        <time>2022-09-14T07:10:18.919Z</time>
      </trkpt>
      <trkpt lat="47.69126" lon="8.62239">
        <ele>393.279819</ele>
        <time>2022-09-14T07:10:23.104Z</time>
      </trkpt>
      <trkpt lat="47.69124" lon="8.62233">
        <ele>393.450976</ele>
        <time>2022-09-14T07:10:25.224Z</time>
      </trkpt>
      <trkpt lat="47.69118" lon="8.62219">
        <ele>393.838189</ele>
        <time>2022-09-14T07:10:30.478Z</time>
      </trkpt>
      <trkpt lat="47.69115" lon="8.62213">
        <ele>394.024919</ele>
        <time>2022-09-14T07:10:32.809Z</time>
      </trkpt>
      <trkpt lat="47.69107" lon="8.62213">
        <ele>394.305248</ele>
        <time>2022-09-14T07:10:36.314Z</time>
      </trkpt>
      <trkpt lat="47.69066" lon="8.62224">
        <ele>395.826467</ele>
        <time>2022-09-14T07:10:55.413Z</time>
      </trkpt>
      <trkpt lat="47.69" lon="8.62239">
        <ele>398.206901</ele>
        <time>2022-09-14T07:11:24.029Z</time>
      </trkpt>
      <trkpt lat="47.6886" lon="8.62257">
        <ele>403.825476</ele>
        <time>2022-09-14T07:12:25.858Z</time>
      </trkpt>
      <trkpt lat="47.68763" lon="8.62249">
        <ele>407.976222</ele>
        <time>2022-09-14T07:13:15.399Z</time>
      </trkpt>
      <trkpt lat="47.68738" lon="8.62257">
        <ele>409.164076</ele>
        <time>2022-09-14T07:13:28.260Z</time>
      </trkpt>
      <trkpt lat="47.68737" lon="8.62254">
        <ele>409.263881</ele>
        <time>2022-09-14T07:13:29.498Z</time>
      </trkpt>
      <trkpt lat="47.68735" lon="8.62245">
        <ele>409.565859</ele>
        <time>2022-09-14T07:13:32.969Z</time>
      </trkpt>
      <trkpt lat="47.68733" lon="8.62239">
        <ele>409.763825</ele>
        <time>2022-09-14T07:13:35.121Z</time>
      </trkpt>
      <trkpt lat="47.68735" lon="8.62218">
        <ele>410.415322</ele>
        <time>2022-09-14T07:13:42.035Z</time>
      </trkpt>
      <trkpt lat="47.68725" lon="8.62209">
        <ele>410.933026</ele>
        <time>2022-09-14T07:13:47.374Z</time>
      </trkpt>
      <trkpt lat="47.68664" lon="8.62167">
        <ele>414.006842</ele>
        <time>2022-09-14T07:14:18.786Z</time>
      </trkpt>
      <trkpt lat="47.6863" lon="8.6214">
        <ele>415.022499</ele>
        <time>2022-09-14T07:14:36.262Z</time>
      </trkpt>
      <trkpt lat="47.68624" lon="8.62136">
        <ele>415.202825</ele>
        <time>2022-09-14T07:14:39.625Z</time>
      </trkpt>
      <trkpt lat="47.68605" lon="8.62123">
        <ele>415.748958</ele>
        <time>2022-09-14T07:14:49.016Z</time>
      </trkpt>
      <trkpt lat="47.68578" lon="8.62104">
        <ele>416.511763</ele>
        <time>2022-09-14T07:15:00.264Z</time>
      </trkpt>
      <trkpt lat="47.68567" lon="8.62097">
        <ele>416.842367</ele>
        <time>2022-09-14T07:15:04.869Z</time>
      </trkpt>
      <trkpt lat="47.68547" lon="8.62083">
        <ele>417.406068</ele>
        <time>2022-09-14T07:15:12.523Z</time>
      </trkpt>
      <trkpt lat="47.68495" lon="8.6204">
        <ele>418.86629</ele>
        <time>2022-09-14T07:15:33.261Z</time>
      </trkpt>
      <trkpt lat="47.68412" lon="8.61962">
        <ele>420.326376</ele>
        <time>2022-09-14T07:16:04.016Z</time>
      </trkpt>
      <trkpt lat="47.68383" lon="8.61935">
        <ele>420.843457</ele>
        <time>2022-09-14T07:16:15.383Z</time>
      </trkpt>
      <trkpt lat="47.68301" lon="8.61849">
        <ele>423.394368</ele>
        <time>2022-09-14T07:16:52.930Z</time>
      </trkpt>
      <trkpt lat="47.68284" lon="8.61831">
        <ele>424.049705</ele>
        <time>2022-09-14T07:17:02.023Z</time>
      </trkpt>
      <trkpt lat="47.68232" lon="8.61755">
        <ele>426.34143</ele>
        <time>2022-09-14T07:17:35.529Z</time>
      </trkpt>
      <trkpt lat="47.68228" lon="8.61743">
        <ele>426.637965</ele>
        <time>2022-09-14T07:17:39.706Z</time>
      </trkpt>
      <trkpt lat="47.68224" lon="8.61722">
        <ele>427.101889</ele>
        <time>2022-09-14T07:17:46.473Z</time>
      </trkpt>
      <trkpt lat="47.68225" lon="8.61716">
        <ele>427.203617</ele>
        <time>2022-09-14T07:17:48.033Z</time>
      </trkpt>
      <trkpt lat="47.68232" lon="8.61694">
        <ele>427.648943</ele>
        <time>2022-09-14T07:17:54.970Z</time>
      </trkpt>
      <trkpt lat="47.68251" lon="8.61632">
        <ele>428.870266</ele>
        <time>2022-09-14T07:18:14.442Z</time>
      </trkpt>
      <trkpt lat="47.68267" lon="8.61578">
        <ele>429.914495</ele>
        <time>2022-09-14T07:18:30.607Z</time>
      </trkpt>
      <trkpt lat="47.68253" lon="8.61559">
        <ele>430.429135</ele>
        <time>2022-09-14T07:18:36.761Z</time>
      </trkpt>
      <trkpt lat="47.68238" lon="8.61492">
        <ele>431.681448</ele>
        <time>2022-09-14T07:18:53.919Z</time>
      </trkpt>
      <trkpt lat="47.68227" lon="8.6144">
        <ele>432.447577</ele>
        <time>2022-09-14T07:19:07.122Z</time>
      </trkpt>
      <trkpt lat="47.68211" lon="8.61374">
        <ele>433.376194</ele>
        <time>2022-09-14T07:19:23.293Z</time>
      </trkpt>
      <trkpt lat="47.68199" lon="8.61357">
        <ele>433.703603</ele>
        <time>2022-09-14T07:19:27.454Z</time>
      </trkpt>
      <trkpt lat="47.68193" lon="8.61329">
        <ele>434.092616</ele>
        <time>2022-09-14T07:19:34.904Z</time>
      </trkpt>
      <trkpt lat="47.68207" lon="8.61262">
        <ele>435.022262</ele>
        <time>2022-09-14T07:19:51.738Z</time>
      </trkpt>
      <trkpt lat="47.68216" lon="8.6124">
        <ele>435.357366</ele>
        <time>2022-09-14T07:19:59.025Z</time>
      </trkpt>
      <trkpt lat="47.68245" lon="8.61198">
        <ele>437.373957</ele>
        <time>2022-09-14T07:20:17.375Z</time>
      </trkpt>
      <trkpt lat="47.68257" lon="8.61183">
        <ele>438.161817</ele>
        <time>2022-09-14T07:20:24.007Z</time>
      </trkpt>
      <trkpt lat="47.68317" lon="8.6111">
        <ele>442.012018</ele>
        <time>2022-09-14T07:21:06.387Z</time>
      </trkpt>
      <trkpt lat="47.6832" lon="8.61108">
        <ele>442.171746</ele>
        <time>2022-09-14T07:21:08.064Z</time>
      </trkpt>
      <trkpt lat="47.68336" lon="8.61101">
        <ele>442.988234</ele>
        <time>2022-09-14T07:21:17.801Z</time>
      </trkpt>
      <trkpt lat="47.68354" lon="8.6109">
        <ele>443.975728</ele>
        <time>2022-09-14T07:21:27.350Z</time>
      </trkpt>
      <trkpt lat="47.68358" lon="8.61087">
        <ele>444.192524</ele>
        <time>2022-09-14T07:21:29.680Z</time>
      </trkpt>
      <trkpt lat="47.68372" lon="8.61078">
        <ele>445.041901</ele>
        <time>2022-09-14T07:21:38.613Z</time>
      </trkpt>
      <trkpt lat="47.68384" lon="8.61055">
        <ele>446.199577</ele>
        <time>2022-09-14T07:21:48.424Z</time>
      </trkpt>
      <trkpt lat="47.68393" lon="8.61058">
        <ele>446.722386</ele>
        <time>2022-09-14T07:21:54.705Z</time>
      </trkpt>
      <trkpt lat="47.6848" lon="8.61016">
        <ele>452.058606</ele>
        <time>2022-09-14T07:22:47.062Z</time>
      </trkpt>
      <trkpt lat="47.6851" lon="8.61012">
        <ele>453.796072</ele>
        <time>2022-09-14T07:23:04.176Z</time>
      </trkpt>
      <trkpt lat="47.68556" lon="8.61011">
        <ele>455.964908</ele>
        <time>2022-09-14T07:23:27.649Z</time>
      </trkpt>
      <trkpt lat="47.68592" lon="8.61021">
        <ele>457.470466</ele>
        <time>2022-09-14T07:23:44.845Z</time>
      </trkpt>
      <trkpt lat="47.68701" lon="8.61072">
        <ele>462.112141</ele>
        <time>2022-09-14T07:24:35.380Z</time>
      </trkpt>
      <trkpt lat="47.68743" lon="8.61076">
        <ele>463.330491</ele>
        <time>2022-09-14T07:24:53.133Z</time>
      </trkpt>
      <trkpt lat="47.68803" lon="8.61067">
        <ele>465.073357</ele>
        <time>2022-09-14T07:25:17.921Z</time>
      </trkpt>
      <trkpt lat="47.6889" lon="8.61028">
        <ele>467.394593</ele>
        <time>2022-09-14T07:25:53.728Z</time>
      </trkpt>
      <trkpt lat="47.68927" lon="8.60995">
        <ele>467.69272</ele>
        <time>2022-09-14T07:26:08.913Z</time>
      </trkpt>
      <trkpt lat="47.68942" lon="8.60959">
        <ele>467.892853</ele>
        <time>2022-09-14T07:26:18.259Z</time>
      </trkpt>
      <trkpt lat="47.68979" lon="8.60772">
        <ele>468.679717</ele>
        <time>2022-09-14T07:26:51.351Z</time>
      </trkpt>
      <trkpt lat="47.6899" lon="8.60754">
        <ele>468.736145</ele>
        <time>2022-09-14T07:26:54.992Z</time>
      </trkpt>
      <trkpt lat="47.6905" lon="8.60743">
        <ele>468.949736</ele>
        <time>2022-09-14T07:27:09.530Z</time>
      </trkpt>
      <trkpt lat="47.69134" lon="8.60748">
        <ele>469.55803</ele>
        <time>2022-09-14T07:27:37.481Z</time>
      </trkpt>
      <trkpt lat="47.69171" lon="8.60743">
        <ele>470.433709</ele>
        <time>2022-09-14T07:27:54.352Z</time>
      </trkpt>
      <trkpt lat="47.69209" lon="8.60718">
        <ele>471.424591</ele>
        <time>2022-09-14T07:28:11.606Z</time>
      </trkpt>
      <trkpt lat="47.69261" lon="8.60675">
        <ele>472.815041</ele>
        <time>2022-09-14T07:28:34.401Z</time>
      </trkpt>
      <trkpt lat="47.69278" lon="8.60636">
        <ele>473.320141</ele>
        <time>2022-09-14T07:28:45.852Z</time>
      </trkpt>
      <trkpt lat="47.69286" lon="8.606">
        <ele>472.909801</ele>
        <time>2022-09-14T07:28:54.503Z</time>
      </trkpt>
      <trkpt lat="47.69322" lon="8.60586">
        <ele>472.323398</ele>
        <time>2022-09-14T07:29:05.658Z</time>
      </trkpt>
      <trkpt lat="47.69356" lon="8.60459">
        <ele>470.849741</ele>
        <time>2022-09-14T07:29:24.468Z</time>
      </trkpt>
      <trkpt lat="47.69435" lon="8.59884">
        <ele>450.650948</ele>
        <time>2022-09-14T07:30:34.446Z</time>
      </trkpt>
      <trkpt lat="47.69526" lon="8.59202">
        <ele>441.424747</ele>
        <time>2022-09-14T07:32:14.609Z</time>
      </trkpt>
      <trkpt lat="47.69536" lon="8.59156">
        <ele>440.95609</ele>
        <time>2022-09-14T07:32:22.341Z</time>
      </trkpt>
      <trkpt lat="47.69558" lon="8.58969">
        <ele>440.735674</ele>
        <time>2022-09-14T07:32:54.655Z</time>
      </trkpt>
      <trkpt lat="47.69561" lon="8.58872">
        <ele>440.801228</ele>
        <time>2022-09-14T07:33:14.410Z</time>
      </trkpt>
      <trkpt lat="47.69565" lon="8.58736">
        <ele>441.088653</ele>
        <time>2022-09-14T07:33:42.699Z</time>
      </trkpt>
      <trkpt lat="47.69558" lon="8.58611">
        <ele>441.375695</ele>
        <time>2022-09-14T07:34:06.503Z</time>
      </trkpt>
      <trkpt lat="47.6954" lon="8.58349">
        <ele>439.813618</ele>
        <time>2022-09-14T07:34:47.200Z</time>
      </trkpt>
      <trkpt lat="47.69533" lon="8.58292">
        <ele>439.573997</ele>
        <time>2022-09-14T07:34:55.867Z</time>
      </trkpt>
      <trkpt lat="47.69533" lon="8.58274">
        <ele>439.531216</ele>
        <time>2022-09-14T07:34:58.706Z</time>
      </trkpt>
      <trkpt lat="47.69534" lon="8.58202">
        <ele>439.364299</ele>
        <time>2022-09-14T07:35:10.022Z</time>
      </trkpt>
      <trkpt lat="47.69522" lon="8.58017">
        <ele>439.306246</ele>
        <time>2022-09-14T07:35:44.398Z</time>
      </trkpt>
      <trkpt lat="47.69488" lon="8.57603">
        <ele>441.835935</ele>
        <time>2022-09-14T07:37:15.328Z</time>
      </trkpt>
      <trkpt lat="47.69483" lon="8.57604">
        <ele>441.873547</ele>
        <time>2022-09-14T07:37:16.710Z</time>
      </trkpt>
      <trkpt lat="47.69466" lon="8.57348">
        <ele>441.828494</ele>
        <time>2022-09-14T07:38:02.701Z</time>
      </trkpt>
      <trkpt lat="47.69456" lon="8.57178">
        <ele>440.900194</ele>
        <time>2022-09-14T07:38:28.834Z</time>
      </trkpt>
      <trkpt lat="47.69453" lon="8.57108">
        <ele>440.325284</ele>
        <time>2022-09-14T07:38:39.360Z</time>
      </trkpt>
      <trkpt lat="47.69444" lon="8.56935">
        <ele>438.99954</ele>
        <time>2022-09-14T07:39:05.509Z</time>
      </trkpt>
      <trkpt lat="47.69436" lon="8.56824">
        <ele>438.244653</ele>
        <time>2022-09-14T07:39:23.293Z</time>
      </trkpt>
      <trkpt lat="47.6942" lon="8.56799">
        <ele>438.017695</ele>
        <time>2022-09-14T07:39:28.814Z</time>
      </trkpt>
      <trkpt lat="47.69423" lon="8.56777">
        <ele>437.868777</ele>
        <time>2022-09-14T07:39:32.163Z</time>
      </trkpt>
      <trkpt lat="47.69434" lon="8.56791">
        <ele>437.724294</ele>
        <time>2022-09-14T07:39:35.699Z</time>
      </trkpt>
      <trkpt lat="47.69457" lon="8.56818">
        <ele>437.411368</ele>
        <time>2022-09-14T07:39:42.415Z</time>
      </trkpt>
      <trkpt lat="47.69458" lon="8.56795">
        <ele>437.239295</ele>
        <time>2022-09-14T07:39:46.040Z</time>
      </trkpt>
      <trkpt lat="47.69456" lon="8.56546">
        <ele>435.409199</ele>
        <time>2022-09-14T07:40:24.128Z</time>
      </trkpt>
      <trkpt lat="47.69459" lon="8.56496">
        <ele>435.03366</ele>
        <time>2022-09-14T07:40:31.890Z</time>
      </trkpt>
      <trkpt lat="47.69455" lon="8.56318">
        <ele>433.725137</ele>
        <time>2022-09-14T07:40:59.362Z</time>
      </trkpt>
      <trkpt lat="47.69428" lon="8.56314">
        <ele>433.483485</ele>
        <time>2022-09-14T07:41:05.779Z</time>
      </trkpt>
      <trkpt lat="47.6941" lon="8.56056">
        <ele>432.05831</ele>
        <time>2022-09-14T07:41:46.855Z</time>
      </trkpt>
      <trkpt lat="47.69381" lon="8.55807">
        <ele>431.341244</ele>
        <time>2022-09-14T07:42:29.819Z</time>
      </trkpt>
      <trkpt lat="47.69348" lon="8.55564">
        <ele>430.92123</ele>
        <time>2022-09-14T07:43:12.900Z</time>
      </trkpt>
      <trkpt lat="47.69335" lon="8.55567">
        <ele>430.862042</ele>
        <time>2022-09-14T07:43:16.064Z</time>
      </trkpt>
      <trkpt lat="47.69308" lon="8.55473">
        <ele>430.540549</ele>
        <time>2022-09-14T07:43:33.147Z</time>
      </trkpt>
      <trkpt lat="47.69274" lon="8.55322">
        <ele>430.045265</ele>
        <time>2022-09-14T07:43:59.333Z</time>
      </trkpt>
      <trkpt lat="47.69216" lon="8.55071">
        <ele>429.361372</ele>
        <time>2022-09-14T07:44:44.227Z</time>
      </trkpt>
      <trkpt lat="47.69168" lon="8.54869">
        <ele>429.05945</ele>
        <time>2022-09-14T07:45:21.664Z</time>
      </trkpt>
      <trkpt lat="47.69102" lon="8.54583">
        <ele>428.454895</ele>
        <time>2022-09-14T07:46:13.105Z</time>
      </trkpt>
      <trkpt lat="47.69048" lon="8.54348">
        <ele>427.761111</ele>
        <time>2022-09-14T07:46:54.407Z</time>
      </trkpt>
      <trkpt lat="47.69027" lon="8.54253">
        <ele>427.692564</ele>
        <time>2022-09-14T07:47:11.800Z</time>
      </trkpt>
      <trkpt lat="47.68994" lon="8.54113">
        <ele>427.701636</ele>
        <time>2022-09-14T07:47:38.564Z</time>
      </trkpt>
      <trkpt lat="47.68882" lon="8.53617">
        <ele>429.647361</ele>
        <time>2022-09-14T07:49:21.127Z</time>
      </trkpt>
      <trkpt lat="47.68884" lon="8.53594">
        <ele>429.767993</ele>
        <time>2022-09-14T07:49:26.228Z</time>
      </trkpt>
      <trkpt lat="47.68878" lon="8.53581">
        <ele>429.849142</ele>
        <time>2022-09-14T07:49:29.621Z</time>
      </trkpt>
      <trkpt lat="47.68871" lon="8.53574">
        <ele>429.91125</ele>
        <time>2022-09-14T07:49:32.415Z</time>
      </trkpt>
      <trkpt lat="47.68863" lon="8.53552">
        <ele>430.167551</ele>
        <time>2022-09-14T07:49:38.140Z</time>
      </trkpt>
      <trkpt lat="47.68767" lon="8.53141">
        <ele>434.134039</ele>
        <time>2022-09-14T07:51:20.733Z</time>
      </trkpt>
      <trkpt lat="47.68558" lon="8.52247">
        <ele>431.12065</ele>
        <time>2022-09-14T07:53:54.311Z</time>
      </trkpt>
      <trkpt lat="47.68522" lon="8.52073">
        <ele>430.831174</ele>
        <time>2022-09-14T07:54:26.673Z</time>
      </trkpt>
      <trkpt lat="47.685" lon="8.51992">
        <ele>430.708015</ele>
        <time>2022-09-14T07:54:42.308Z</time>
      </trkpt>
      <trkpt lat="47.68461" lon="8.51804">
        <ele>430.439458</ele>
        <time>2022-09-14T07:55:16.282Z</time>
      </trkpt>
      <trkpt lat="47.68434" lon="8.51689">
        <ele>430.205319</ele>
        <time>2022-09-14T07:55:36.678Z</time>
      </trkpt>
      <trkpt lat="47.68424" lon="8.51612">
        <ele>430.053269</ele>
        <time>2022-09-14T07:55:50.126Z</time>
      </trkpt>
      <trkpt lat="47.68417" lon="8.51448">
        <ele>429.819147</ele>
        <time>2022-09-14T07:56:19.070Z</time>
      </trkpt>
      <trkpt lat="47.6842" lon="8.51375">
        <ele>429.741852</ele>
        <time>2022-09-14T07:56:31.989Z</time>
      </trkpt>
      <trkpt lat="47.68432" lon="8.51277">
        <ele>429.633551</ele>
        <time>2022-09-14T07:56:49.483Z</time>
      </trkpt>
      <trkpt lat="47.68468" lon="8.51076">
        <ele>429.005158</ele>
        <time>2022-09-14T07:57:24.208Z</time>
      </trkpt>
      <trkpt lat="47.68477" lon="8.51067">
        <ele>428.957343</ele>
        <time>2022-09-14T07:57:26.803Z</time>
      </trkpt>
      <trkpt lat="47.68501" lon="8.50968">
        <ele>428.51018</ele>
        <time>2022-09-14T07:57:44.122Z</time>
      </trkpt>
      <trkpt lat="47.68514" lon="8.50933">
        <ele>428.308194</ele>
        <time>2022-09-14T07:57:50.543Z</time>
      </trkpt>
      <trkpt lat="47.68534" lon="8.50887">
        <ele>428.032174</ele>
        <time>2022-09-14T07:57:59.225Z</time>
      </trkpt>
      <trkpt lat="47.68567" lon="8.50855">
        <ele>427.729894</ele>
        <time>2022-09-14T07:58:08.660Z</time>
      </trkpt>
      <trkpt lat="47.68787" lon="8.50616">
        <ele>425.845803</ele>
        <time>2022-09-14T07:59:12.513Z</time>
      </trkpt>
      <trkpt lat="47.68841" lon="8.50577">
        <ele>425.825845</ele>
        <time>2022-09-14T07:59:28.557Z</time>
      </trkpt>
      <trkpt lat="47.68918" lon="8.5054">
        <ele>426.000589</ele>
        <time>2022-09-14T07:59:52.985Z</time>
      </trkpt>
      <trkpt lat="47.68938" lon="8.50521">
        <ele>426.243419</ele>
        <time>2022-09-14T08:00:00.847Z</time>
      </trkpt>
      <trkpt lat="47.68964" lon="8.50493">
        <ele>426.577648</ele>
        <time>2022-09-14T08:00:11.981Z</time>
      </trkpt>
      <trkpt lat="47.68992" lon="8.50452">
        <ele>426.98599</ele>
        <time>2022-09-14T08:00:25.629Z</time>
      </trkpt>
      <trkpt lat="47.69021" lon="8.50389">
        <ele>427.516093</ele>
        <time>2022-09-14T08:00:42.616Z</time>
      </trkpt>
      <trkpt lat="47.69027" lon="8.50356">
        <ele>427.712842</ele>
        <time>2022-09-14T08:00:49.656Z</time>
      </trkpt>
      <trkpt lat="47.69031" lon="8.5033">
        <ele>427.818089</ele>
        <time>2022-09-14T08:00:55.394Z</time>
      </trkpt>
      <trkpt lat="47.69033" lon="8.5028">
        <ele>428.012935</ele>
        <time>2022-09-14T08:01:05.491Z</time>
      </trkpt>
      <trkpt lat="47.69034" lon="8.50169">
        <ele>428.443621</ele>
        <time>2022-09-14T08:01:27.551Z</time>
      </trkpt>
      <trkpt lat="47.69029" lon="8.50146">
        <ele>428.537189</ele>
        <time>2022-09-14T08:01:32.070Z</time>
      </trkpt>
      <trkpt lat="47.69035" lon="8.50125">
        <ele>428.628468</ele>
        <time>2022-09-14T08:01:38.166Z</time>
      </trkpt>
      <trkpt lat="47.69034" lon="8.50103">
        <ele>428.696018</ele>
        <time>2022-09-14T08:01:42.170Z</time>
      </trkpt>
      <trkpt lat="47.69034" lon="8.50094">
        <ele>428.679168</ele>
        <time>2022-09-14T08:01:43.840Z</time>
      </trkpt>
      <trkpt lat="47.69033" lon="8.50067">
        <ele>428.629197</ele>
        <time>2022-09-14T08:01:49.028Z</time>
      </trkpt>
      <trkpt lat="47.69025" lon="8.49912">
        <ele>428.342074</ele>
        <time>2022-09-14T08:02:16.868Z</time>
      </trkpt>
      <trkpt lat="47.6902" lon="8.49791">
        <ele>427.974677</ele>
        <time>2022-09-14T08:02:37.437Z</time>
      </trkpt>
      <trkpt lat="47.69018" lon="8.49701">
        <ele>427.547174</ele>
        <time>2022-09-14T08:02:52.566Z</time>
      </trkpt>
      <trkpt lat="47.68972" lon="8.49693">
        <ele>427.221843</ele>
        <time>2022-09-14T08:03:03.653Z</time>
      </trkpt>
      <trkpt lat="47.68961" lon="8.49691">
        <ele>427.141248</ele>
        <time>2022-09-14T08:03:06.328Z</time>
      </trkpt>
      <trkpt lat="47.68966" lon="8.49565">
        <ele>426.587677</ele>
        <time>2022-09-14T08:03:26.980Z</time>
      </trkpt>
      <trkpt lat="47.68963" lon="8.49551">
        <ele>426.525312</ele>
        <time>2022-09-14T08:03:29.315Z</time>
      </trkpt>
      <trkpt lat="47.68951" lon="8.49537">
        <ele>426.429818</ele>
        <time>2022-09-14T08:03:32.863Z</time>
      </trkpt>
      <trkpt lat="47.68949" lon="8.49518">
        <ele>426.348022</ele>
        <time>2022-09-14T08:03:36.166Z</time>
      </trkpt>
      <trkpt lat="47.68951" lon="8.49413">
        <ele>425.906763</ele>
        <time>2022-09-14T08:03:54.272Z</time>
      </trkpt>
      <trkpt lat="47.68977" lon="8.49235">
        <ele>424.578769</ele>
        <time>2022-09-14T08:04:24.214Z</time>
      </trkpt>
      <trkpt lat="47.68987" lon="8.49067">
        <ele>423.067351</ele>
        <time>2022-09-14T08:04:50.374Z</time>
      </trkpt>
      <trkpt lat="47.68992" lon="8.48994">
        <ele>422.252839</ele>
        <time>2022-09-14T08:05:01.656Z</time>
      </trkpt>
      <trkpt lat="47.68995" lon="8.48896">
        <ele>421.170719</ele>
        <time>2022-09-14T08:05:16.559Z</time>
      </trkpt>
      <trkpt lat="47.68981" lon="8.48717">
        <ele>419.326697</ele>
        <time>2022-09-14T08:05:44.074Z</time>
      </trkpt>
      <trkpt lat="47.68969" lon="8.48651">
        <ele>418.638686</ele>
        <time>2022-09-14T08:05:54.779Z</time>
      </trkpt>
      <trkpt lat="47.68926" lon="8.48481">
        <ele>417.276913</ele>
        <time>2022-09-14T08:06:23.905Z</time>
      </trkpt>
      <trkpt lat="47.68913" lon="8.48445">
        <ele>417.014234</ele>
        <time>2022-09-14T08:06:30.626Z</time>
      </trkpt>
      <trkpt lat="47.68854" lon="8.48288">
        <ele>416.148854</ele>
        <time>2022-09-14T08:07:01.300Z</time>
      </trkpt>
      <trkpt lat="47.68827" lon="8.48153">
        <ele>415.747566</ele>
        <time>2022-09-14T08:07:26.173Z</time>
      </trkpt>
      <trkpt lat="47.68797" lon="8.47996">
        <ele>415.184151</ele>
        <time>2022-09-14T08:07:55.535Z</time>
      </trkpt>
      <trkpt lat="47.68735" lon="8.47739">
        <ele>413.507035</ele>
        <time>2022-09-14T08:08:41.301Z</time>
      </trkpt>
      <trkpt lat="47.68725" lon="8.47715">
        <ele>413.243338</ele>
        <time>2022-09-14T08:08:45.759Z</time>
      </trkpt>
      <trkpt lat="47.68557" lon="8.47456">
        <ele>409.722562</ele>
        <time>2022-09-14T08:09:39.435Z</time>
      </trkpt>
      <trkpt lat="47.68502" lon="8.47373">
        <ele>410.440561</ele>
        <time>2022-09-14T08:10:03.016Z</time>
      </trkpt>
      <trkpt lat="47.68416" lon="8.47167">
        <ele>412.776761</ele>
        <time>2022-09-14T08:11:07.449Z</time>
      </trkpt>
      <trkpt lat="47.68408" lon="8.4716">
        <ele>412.893936</ele>
        <time>2022-09-14T08:11:11.074Z</time>
      </trkpt>
      <trkpt lat="47.68399" lon="8.47164">
        <ele>413.010623</ele>
        <time>2022-09-14T08:11:14.625Z</time>
      </trkpt>
      <trkpt lat="47.68316" lon="8.47232">
        <ele>414.222072</ele>
        <time>2022-09-14T08:11:46.122Z</time>
      </trkpt>
      <trkpt lat="47.68305" lon="8.47224">
        <ele>414.381773</ele>
        <time>2022-09-14T08:11:49.686Z</time>
      </trkpt>
      <trkpt lat="47.68246" lon="8.47081">
        <ele>413.680391</ele>
        <time>2022-09-14T08:12:17.164Z</time>
      </trkpt>
      <trkpt lat="47.68215" lon="8.46988">
        <ele>413.144065</ele>
        <time>2022-09-14T08:12:33.756Z</time>
      </trkpt>
      <trkpt lat="47.68206" lon="8.46977">
        <ele>413.096426</ele>
        <time>2022-09-14T08:12:36.362Z</time>
      </trkpt>
      <trkpt lat="47.67972" lon="8.46444">
        <ele>412.636078</ele>
        <time>2022-09-14T08:14:35.364Z</time>
      </trkpt>
      <trkpt lat="47.67967" lon="8.46429">
        <ele>412.610817</ele>
        <time>2022-09-14T08:14:38.528Z</time>
      </trkpt>
      <trkpt lat="47.67971" lon="8.46412">
        <ele>412.583762</ele>
        <time>2022-09-14T08:14:41.558Z</time>
      </trkpt>
      <trkpt lat="47.67963" lon="8.46394">
        <ele>412.553597</ele>
        <time>2022-09-14T08:14:45.164Z</time>
      </trkpt>
      <trkpt lat="47.67954" lon="8.46381">
        <ele>412.525644</ele>
        <time>2022-09-14T08:14:48.416Z</time>
      </trkpt>
      <trkpt lat="47.67949" lon="8.46378">
        <ele>412.514368</ele>
        <time>2022-09-14T08:14:49.642Z</time>
      </trkpt>
      <trkpt lat="47.67938" lon="8.46352">
        <ele>412.468946</ele>
        <time>2022-09-14T08:14:54.741Z</time>
      </trkpt>
      <trkpt lat="47.67935" lon="8.46355">
        <ele>412.460132</ele>
        <time>2022-09-14T08:14:55.752Z</time>
      </trkpt>
      <trkpt lat="47.67948" lon="8.46386">
        <ele>412.407227</ele>
        <time>2022-09-14T08:15:01.793Z</time>
      </trkpt>
      <trkpt lat="47.67935" lon="8.46397">
        <ele>412.450917</ele>
        <time>2022-09-14T08:15:05.675Z</time>
      </trkpt>
      <trkpt lat="47.67949" lon="8.46431">
        <ele>412.52642</ele>
        <time>2022-09-14T08:15:12.448Z</time>
      </trkpt>
      <trkpt lat="47.67944" lon="8.46439">
        <ele>412.54664</ele>
        <time>2022-09-14T08:15:14.315Z</time>
      </trkpt>
      <trkpt lat="47.67947" lon="8.46444">
        <ele>412.558849</ele>
        <time>2022-09-14T08:15:15.387Z</time>
      </trkpt>
      <trkpt lat="47.67909" lon="8.46476">
        <ele>412.683416</ele>
        <time>2022-09-14T08:15:26.772Z</time>
      </trkpt>
      <trkpt lat="47.67882" lon="8.46482">
        <ele>412.759741</ele>
        <time>2022-09-14T08:15:33.715Z</time>
      </trkpt>
      <trkpt lat="47.67883" lon="8.46489">
        <ele>412.774433</ele>
        <time>2022-09-14T08:15:35.153Z</time>
      </trkpt>
      <trkpt lat="47.67885" lon="8.46502">
        <ele>412.7993</ele>
        <time>2022-09-14T08:15:37.567Z</time>
      </trkpt>
      <trkpt lat="47.67886" lon="8.46506">
        <ele>412.806701</ele>
        <time>2022-09-14T08:15:38.272Z</time>
      </trkpt>
      <trkpt lat="47.67718" lon="8.46645">
        <ele>416.037225</ele>
        <time>2022-09-14T08:16:45.838Z</time>
      </trkpt>
      <trkpt lat="47.67661" lon="8.46641">
        <ele>417.553269</ele>
        <time>2022-09-14T08:17:09.918Z</time>
      </trkpt>
      <trkpt lat="47.67637" lon="8.4665">
        <ele>418.358167</ele>
        <time>2022-09-14T08:17:20.566Z</time>
      </trkpt>
      <trkpt lat="47.67564" lon="8.46694">
        <ele>420.895398</ele>
        <time>2022-09-14T08:17:56.614Z</time>
      </trkpt>
      <trkpt lat="47.67544" lon="8.46692">
        <ele>421.547501</ele>
        <time>2022-09-14T08:18:05.539Z</time>
      </trkpt>
      <trkpt lat="47.67415" lon="8.46659">
        <ele>423.615616</ele>
        <time>2022-09-14T08:18:53.209Z</time>
      </trkpt>
      <trkpt lat="47.67412" lon="8.46656">
        <ele>423.657579</ele>
        <time>2022-09-14T08:18:54.375Z</time>
      </trkpt>
      <trkpt lat="47.67353" lon="8.46597">
        <ele>424.479366</ele>
        <time>2022-09-14T08:19:14.167Z</time>
      </trkpt>
      <trkpt lat="47.67322" lon="8.46574">
        <ele>424.083419</ele>
        <time>2022-09-14T08:19:22.544Z</time>
      </trkpt>
      <trkpt lat="47.67166" lon="8.46513">
        <ele>422.488246</ele>
        <time>2022-09-14T08:19:59.502Z</time>
      </trkpt>
      <trkpt lat="47.67168" lon="8.46466">
        <ele>422.646989</ele>
        <time>2022-09-14T08:20:08.143Z</time>
      </trkpt>
      <trkpt lat="47.67132" lon="8.46469">
        <ele>422.827927</ele>
        <time>2022-09-14T08:20:18.620Z</time>
      </trkpt>
      <trkpt lat="47.67039" lon="8.46445">
        <ele>423.300545</ele>
        <time>2022-09-14T08:20:49.401Z</time>
      </trkpt>
      <trkpt lat="47.67022" lon="8.4644">
        <ele>423.460739</ele>
        <time>2022-09-14T08:20:55.635Z</time>
      </trkpt>
      <trkpt lat="47.66975" lon="8.46426">
        <ele>423.905635</ele>
        <time>2022-09-14T08:21:11.592Z</time>
      </trkpt>
      <trkpt lat="47.66969" lon="8.46425">
        <ele>423.965434</ele>
        <time>2022-09-14T08:21:13.585Z</time>
      </trkpt>
      <trkpt lat="47.6696" lon="8.46422">
        <ele>424.053219</ele>
        <time>2022-09-14T08:21:16.575Z</time>
      </trkpt>
      <trkpt lat="47.66945" lon="8.46417">
        <ele>424.197898</ele>
        <time>2022-09-14T08:21:21.296Z</time>
      </trkpt>
      <trkpt lat="47.66909" lon="8.46406">
        <ele>424.544153</ele>
        <time>2022-09-14T08:21:32.319Z</time>
      </trkpt>
      <trkpt lat="47.66879" lon="8.46397">
        <ele>424.836162</ele>
        <time>2022-09-14T08:21:41.535Z</time>
      </trkpt>
      <trkpt lat="47.66881" lon="8.46387">
        <ele>424.905807</ele>
        <time>2022-09-14T08:21:43.612Z</time>
      </trkpt>
      <trkpt lat="47.66884" lon="8.46371">
        <ele>425.007596</ele>
        <time>2022-09-14T08:21:46.673Z</time>
      </trkpt>
      <trkpt lat="47.66878" lon="8.46254">
        <ele>425.30015</ele>
        <time>2022-09-14T08:22:09.158Z</time>
      </trkpt>
      <trkpt lat="47.66866" lon="8.45931">
        <ele>425.543895</ele>
        <time>2022-09-14T08:23:10.841Z</time>
      </trkpt>
      <trkpt lat="47.66865" lon="8.45916">
        <ele>425.532237</ele>
        <time>2022-09-14T08:23:13.343Z</time>
      </trkpt>
      <trkpt lat="47.66838" lon="8.45731">
        <ele>424.703184</ele>
        <time>2022-09-14T08:23:42.995Z</time>
      </trkpt>
      <trkpt lat="47.66838" lon="8.45599">
        <ele>423.782289</ele>
        <time>2022-09-14T08:24:03.165Z</time>
      </trkpt>
      <trkpt lat="47.66838" lon="8.45588">
        <ele>423.701938</ele>
        <time>2022-09-14T08:24:04.983Z</time>
      </trkpt>
      <trkpt lat="47.66838" lon="8.45441">
        <ele>422.42921</ele>
        <time>2022-09-14T08:24:27.651Z</time>
      </trkpt>
      <trkpt lat="47.66831" lon="8.45346">
        <ele>421.591311</ele>
        <time>2022-09-14T08:24:41.877Z</time>
      </trkpt>
      <trkpt lat="47.66796" lon="8.45097">
        <ele>419.152249</ele>
        <time>2022-09-14T08:25:19.308Z</time>
      </trkpt>
      <trkpt lat="47.66794" lon="8.45088">
        <ele>419.061056</ele>
        <time>2022-09-14T08:25:20.768Z</time>
      </trkpt>
      <trkpt lat="47.66769" lon="8.44941">
        <ele>417.594785</ele>
        <time>2022-09-14T08:25:44.468Z</time>
      </trkpt>
      <trkpt lat="47.66772" lon="8.44866">
        <ele>416.867615</ele>
        <time>2022-09-14T08:25:55.947Z</time>
      </trkpt>
      <trkpt lat="47.66777" lon="8.44771">
        <ele>415.826017</ele>
        <time>2022-09-14T08:26:09.699Z</time>
      </trkpt>
      <trkpt lat="47.6677" lon="8.44525">
        <ele>411.443901</ele>
        <time>2022-09-14T08:26:42.648Z</time>
      </trkpt>
      <trkpt lat="47.66769" lon="8.4439">
        <ele>409.334455</ele>
        <time>2022-09-14T08:27:01.078Z</time>
      </trkpt>
      <trkpt lat="47.66773" lon="8.4434">
        <ele>408.559953</ele>
        <time>2022-09-14T08:27:08.143Z</time>
      </trkpt>
      <trkpt lat="47.66794" lon="8.44246">
        <ele>407.077289</ele>
        <time>2022-09-14T08:27:22.522Z</time>
      </trkpt>
      <trkpt lat="47.66796" lon="8.44217">
        <ele>406.777828</ele>
        <time>2022-09-14T08:27:26.630Z</time>
      </trkpt>
      <trkpt lat="47.66793" lon="8.44186">
        <ele>406.448652</ele>
        <time>2022-09-14T08:27:31.146Z</time>
      </trkpt>
      <trkpt lat="47.66749" lon="8.44032">
        <ele>404.699469</ele>
        <time>2022-09-14T08:27:55.806Z</time>
      </trkpt>
      <trkpt lat="47.66639" lon="8.43873">
        <ele>403.300801</ele>
        <time>2022-09-14T08:28:31.565Z</time>
      </trkpt>
      <trkpt lat="47.66492" lon="8.4366">
        <ele>402.54372</ele>
        <time>2022-09-14T08:29:24.015Z</time>
      </trkpt>
      <trkpt lat="47.66467" lon="8.43637">
        <ele>402.470107</ele>
        <time>2022-09-14T08:29:31.624Z</time>
      </trkpt>
      <trkpt lat="47.66459" lon="8.4362">
        <ele>402.432106</ele>
        <time>2022-09-14T08:29:35.321Z</time>
      </trkpt>
      <trkpt lat="47.66462" lon="8.43616">
        <ele>402.421747</ele>
        <time>2022-09-14T08:29:36.259Z</time>
      </trkpt>
      <trkpt lat="47.66476" lon="8.43592">
        <ele>402.361483</ele>
        <time>2022-09-14T08:29:41.968Z</time>
      </trkpt>
      <trkpt lat="47.6652" lon="8.43548">
        <ele>402.216251</ele>
        <time>2022-09-14T08:29:55.487Z</time>
      </trkpt>
      <trkpt lat="47.66535" lon="8.43525">
        <ele>402.158274</ele>
        <time>2022-09-14T08:30:00.856Z</time>
      </trkpt>
      <trkpt lat="47.66471" lon="8.43461">
        <ele>401.916562</ele>
        <time>2022-09-14T08:30:19.945Z</time>
      </trkpt>
      <trkpt lat="47.66371" lon="8.43366">
        <ele>401.4121</ele>
        <time>2022-09-14T08:30:49.452Z</time>
      </trkpt>
      <trkpt lat="47.66357" lon="8.43353">
        <ele>401.337074</ele>
        <time>2022-09-14T08:30:53.846Z</time>
      </trkpt>
      <trkpt lat="47.66312" lon="8.43309">
        <ele>401.13968</ele>
        <time>2022-09-14T08:31:07.219Z</time>
      </trkpt>
      <trkpt lat="47.66252" lon="8.43248">
        <ele>400.906609</ele>
        <time>2022-09-14T08:31:25.517Z</time>
      </trkpt>
      <trkpt lat="47.66245" lon="8.43236">
        <ele>400.871031</ele>
        <time>2022-09-14T08:31:28.350Z</time>
      </trkpt>
      <trkpt lat="47.66212" lon="8.43202">
        <ele>400.74256</ele>
        <time>2022-09-14T08:31:38.463Z</time>
      </trkpt>
      <trkpt lat="47.66192" lon="8.43182">
        <ele>400.665397</ele>
        <time>2022-09-14T08:31:44.536Z</time>
      </trkpt>
      <trkpt lat="47.66182" lon="8.43173">
        <ele>400.638292</ele>
        <time>2022-09-14T08:31:47.368Z</time>
      </trkpt>
      <trkpt lat="47.66151" lon="8.43143">
        <ele>400.562973</ele>
        <time>2022-09-14T08:31:56.922Z</time>
      </trkpt>
      <trkpt lat="47.66119" lon="8.43113">
        <ele>400.48529</ele>
        <time>2022-09-14T08:32:06.863Z</time>
      </trkpt>
      <trkpt lat="47.66115" lon="8.43109">
        <ele>400.476272</ele>
        <time>2022-09-14T08:32:08.011Z</time>
      </trkpt>
      <trkpt lat="47.66105" lon="8.43098">
        <ele>400.451341</ele>
        <time>2022-09-14T08:32:11.220Z</time>
      </trkpt>
      <trkpt lat="47.66065" lon="8.43055">
        <ele>400.352253</ele>
        <time>2022-09-14T08:32:23.830Z</time>
      </trkpt>
      <trkpt lat="47.66024" lon="8.43012">
        <ele>400.314108</ele>
        <time>2022-09-14T08:32:36.835Z</time>
      </trkpt>
      <trkpt lat="47.66008" lon="8.42995">
        <ele>400.340673</ele>
        <time>2022-09-14T08:32:42.133Z</time>
      </trkpt>
      <trkpt lat="47.65928" lon="8.42907">
        <ele>400.470996</ele>
        <time>2022-09-14T08:33:10.013Z</time>
      </trkpt>
      <trkpt lat="47.6589" lon="8.42869">
        <ele>400.517628</ele>
        <time>2022-09-14T08:33:22.660Z</time>
      </trkpt>
      <trkpt lat="47.65878" lon="8.42856">
        <ele>400.496975</ele>
        <time>2022-09-14T08:33:26.682Z</time>
      </trkpt>
      <trkpt lat="47.65861" lon="8.4289">
        <ele>400.457325</ele>
        <time>2022-09-14T08:33:34.019Z</time>
      </trkpt>
      <trkpt lat="47.65843" lon="8.42924">
        <ele>400.416312</ele>
        <time>2022-09-14T08:33:41.629Z</time>
      </trkpt>
      <trkpt lat="47.65835" lon="8.42941">
        <ele>400.395909</ele>
        <time>2022-09-14T08:33:45.432Z</time>
      </trkpt>
      <trkpt lat="47.65825" lon="8.42928">
        <ele>400.378275</ele>
        <time>2022-09-14T08:33:48.654Z</time>
      </trkpt>
      <trkpt lat="47.65817" lon="8.42898">
        <ele>400.346876</ele>
        <time>2022-09-14T08:33:54.359Z</time>
      </trkpt>
      <trkpt lat="47.65756" lon="8.4284">
        <ele>400.176525</ele>
        <time>2022-09-14T08:34:12.884Z</time>
      </trkpt>
      <trkpt lat="47.65483" lon="8.42581">
        <ele>398.585902</ele>
        <time>2022-09-14T08:35:32.149Z</time>
      </trkpt>
      <trkpt lat="47.6547" lon="8.42558">
        <ele>398.506292</ele>
        <time>2022-09-14T08:35:37.141Z</time>
      </trkpt>
      <trkpt lat="47.65284" lon="8.42381">
        <ele>398.351978</ele>
        <time>2022-09-14T08:36:37.134Z</time>
      </trkpt>
      <trkpt lat="47.65336" lon="8.42296">
        <ele>398.036083</ele>
        <time>2022-09-14T08:36:57.450Z</time>
      </trkpt>
      <trkpt lat="47.6526" lon="8.4222">
        <ele>397.471036</ele>
        <time>2022-09-14T08:37:19.112Z</time>
      </trkpt>
      <trkpt lat="47.65277" lon="8.422">
        <ele>397.256538</ele>
        <time>2022-09-14T08:37:24.169Z</time>
      </trkpt>
      <trkpt lat="47.65251" lon="8.42191">
        <ele>396.996266</ele>
        <time>2022-09-14T08:37:30.143Z</time>
      </trkpt>
      <trkpt lat="47.6512" lon="8.42051">
        <ele>395.530203</ele>
        <time>2022-09-14T08:38:07.572Z</time>
      </trkpt>
      <trkpt lat="47.65039" lon="8.41973">
        <ele>394.767817</ele>
        <time>2022-09-14T08:38:30.626Z</time>
      </trkpt>
      <trkpt lat="47.65025" lon="8.41951">
        <ele>394.610153</ele>
        <time>2022-09-14T08:38:35.711Z</time>
      </trkpt>
      <trkpt lat="47.65024" lon="8.41939">
        <ele>394.58938</ele>
        <time>2022-09-14T08:38:37.585Z</time>
      </trkpt>
      <trkpt lat="47.65016" lon="8.41892">
        <ele>394.505054</ele>
        <time>2022-09-14T08:38:45.847Z</time>
      </trkpt>
      <trkpt lat="47.64944" lon="8.41765">
        <ele>394.215996</ele>
        <time>2022-09-14T08:39:14.431Z</time>
      </trkpt>
      <trkpt lat="47.64794" lon="8.41506">
        <ele>394.099527</ele>
        <time>2022-09-14T08:40:16.215Z</time>
      </trkpt>
      <trkpt lat="47.64731" lon="8.4136">
        <ele>393.827385</ele>
        <time>2022-09-14T08:40:46.063Z</time>
      </trkpt>
      <trkpt lat="47.64607" lon="8.41168">
        <ele>393.279596</ele>
        <time>2022-09-14T08:41:31.088Z</time>
      </trkpt>
      <trkpt lat="47.64603" lon="8.4118">
        <ele>393.252195</ele>
        <time>2022-09-14T08:41:33.249Z</time>
      </trkpt>
      <trkpt lat="47.64596" lon="8.41196">
        <ele>393.209588</ele>
        <time>2022-09-14T08:41:36.600Z</time>
      </trkpt>
      <trkpt lat="47.6459" lon="8.41211">
        <ele>393.171987</ele>
        <time>2022-09-14T08:41:39.561Z</time>
      </trkpt>
      <trkpt lat="47.64575" lon="8.41183">
        <ele>393.116809</ele>
        <time>2022-09-14T08:41:45.636Z</time>
      </trkpt>
      <trkpt lat="47.64533" lon="8.41156">
        <ele>393.02868</ele>
        <time>2022-09-14T08:41:57.696Z</time>
      </trkpt>
      <trkpt lat="47.64296" lon="8.41079">
        <ele>392.648642</ele>
        <time>2022-09-14T08:43:00.444Z</time>
      </trkpt>
      <trkpt lat="47.6426" lon="8.4106">
        <ele>392.60057</ele>
        <time>2022-09-14T08:43:10.364Z</time>
      </trkpt>
      <trkpt lat="47.6393" lon="8.40849">
        <ele>392.179773</ele>
        <time>2022-09-14T08:44:44.818Z</time>
      </trkpt>
      <trkpt lat="47.63914" lon="8.40834">
        <ele>392.144166</ele>
        <time>2022-09-14T08:44:49.546Z</time>
      </trkpt>
      <trkpt lat="47.63815" lon="8.40791">
        <ele>391.658639</ele>
        <time>2022-09-14T08:45:15.019Z</time>
      </trkpt>
      <trkpt lat="47.63776" lon="8.40762">
        <ele>391.449592</ele>
        <time>2022-09-14T08:45:25.800Z</time>
      </trkpt>
      <trkpt lat="47.63564" lon="8.40498">
        <ele>390.264209</ele>
        <time>2022-09-14T08:46:34.949Z</time>
      </trkpt>
      <trkpt lat="47.63417" lon="8.40281">
        <ele>389.347355</ele>
        <time>2022-09-14T08:47:26.140Z</time>
      </trkpt>
      <trkpt lat="47.63395" lon="8.40233">
        <ele>389.180593</ele>
        <time>2022-09-14T08:47:35.821Z</time>
      </trkpt>
      <trkpt lat="47.6319" lon="8.3988">
        <ele>388.204707</ele>
        <time>2022-09-14T08:48:55.689Z</time>
      </trkpt>
      <trkpt lat="47.63175" lon="8.39863">
        <ele>388.151883</ele>
        <time>2022-09-14T08:49:00.479Z</time>
      </trkpt>
      <trkpt lat="47.63158" lon="8.39824">
        <ele>388.064347</ele>
        <time>2022-09-14T08:49:08.433Z</time>
      </trkpt>
      <trkpt lat="47.62964" lon="8.39519">
        <ele>386.958185</ele>
        <time>2022-09-14T08:50:19.814Z</time>
      </trkpt>
      <trkpt lat="47.62889" lon="8.39341">
        <ele>386.164979</ele>
        <time>2022-09-14T08:50:53.749Z</time>
      </trkpt>
      <trkpt lat="47.6284" lon="8.39241">
        <ele>385.784652</ele>
        <time>2022-09-14T08:51:13.782Z</time>
      </trkpt>
      <trkpt lat="47.62815" lon="8.39205">
        <ele>385.622261</ele>
        <time>2022-09-14T08:51:22.590Z</time>
      </trkpt>
      <trkpt lat="47.62799" lon="8.3916">
        <ele>385.46364</ele>
        <time>2022-09-14T08:51:31.360Z</time>
      </trkpt>
      <trkpt lat="47.62735" lon="8.39026">
        <ele>385.396893</ele>
        <time>2022-09-14T08:52:00.519Z</time>
      </trkpt>
      <trkpt lat="47.62698" lon="8.38921">
        <ele>385.368613</ele>
        <time>2022-09-14T08:52:22.334Z</time>
      </trkpt>
      <trkpt lat="47.62679" lon="8.38828">
        <ele>385.347167</ele>
        <time>2022-09-14T08:52:39.963Z</time>
      </trkpt>
      <trkpt lat="47.62656" lon="8.38605">
        <ele>385.188633</ele>
        <time>2022-09-14T08:53:20.004Z</time>
      </trkpt>
      <trkpt lat="47.62646" lon="8.38573">
        <ele>385.117572</ele>
        <time>2022-09-14T08:53:26.024Z</time>
      </trkpt>
      <trkpt lat="47.62622" lon="8.38574">
        <ele>385.047</ele>
        <time>2022-09-14T08:53:32.219Z</time>
      </trkpt>
      <trkpt lat="47.62609" lon="8.38385">
        <ele>384.639687</ele>
        <time>2022-09-14T08:54:04.162Z</time>
      </trkpt>
      <trkpt lat="47.62584" lon="8.3825">
        <ele>384.289742</ele>
        <time>2022-09-14T08:54:27.647Z</time>
      </trkpt>
      <trkpt lat="47.62545" lon="8.38149">
        <ele>384.035335</ele>
        <time>2022-09-14T08:54:47.834Z</time>
      </trkpt>
      <trkpt lat="47.62502" lon="8.38081">
        <ele>383.882233</ele>
        <time>2022-09-14T08:55:04.120Z</time>
      </trkpt>
      <trkpt lat="47.62454" lon="8.37977">
        <ele>383.674349</ele>
        <time>2022-09-14T08:55:25.616Z</time>
      </trkpt>
      <trkpt lat="47.62445" lon="8.37879">
        <ele>383.37816</ele>
        <time>2022-09-14T08:55:42.113Z</time>
      </trkpt>
      <trkpt lat="47.62447" lon="8.37822">
        <ele>383.204326</ele>
        <time>2022-09-14T08:55:51.676Z</time>
      </trkpt>
      <trkpt lat="47.62441" lon="8.37808">
        <ele>383.153972</ele>
        <time>2022-09-14T08:55:54.121Z</time>
      </trkpt>
      <trkpt lat="47.62455" lon="8.37623">
        <ele>383.00068</ele>
        <time>2022-09-14T08:56:26.236Z</time>
      </trkpt>
      <trkpt lat="47.62457" lon="8.37591">
        <ele>383.050331</ele>
        <time>2022-09-14T08:56:31.448Z</time>
      </trkpt>
      <trkpt lat="47.62473" lon="8.37489">
        <ele>383.214023</ele>
        <time>2022-09-14T08:56:51.874Z</time>
      </trkpt>
      <trkpt lat="47.6244" lon="8.37395">
        <ele>384.280817</ele>
        <time>2022-09-14T08:57:13.538Z</time>
      </trkpt>
      <trkpt lat="47.62401" lon="8.3716">
        <ele>388.802692</ele>
        <time>2022-09-14T08:58:18.231Z</time>
      </trkpt>
      <trkpt lat="47.62352" lon="8.37052">
        <ele>393.323428</ele>
        <time>2022-09-14T08:59:03.891Z</time>
      </trkpt>
      <trkpt lat="47.6235" lon="8.37021">
        <ele>394.423265</ele>
        <time>2022-09-14T08:59:17.134Z</time>
      </trkpt>
      <trkpt lat="47.62355" lon="8.36948">
        <ele>396.964572</ele>
        <time>2022-09-14T08:59:44.453Z</time>
      </trkpt>
      <trkpt lat="47.62347" lon="8.368">
        <ele>401.994114</ele>
        <time>2022-09-14T09:00:42.026Z</time>
      </trkpt>
      <trkpt lat="47.62318" lon="8.36691">
        <ele>405.709616</ele>
        <time>2022-09-14T09:01:16.578Z</time>
      </trkpt>
      <trkpt lat="47.62297" lon="8.36593">
        <ele>406.223914</ele>
        <time>2022-09-14T09:01:41.814Z</time>
      </trkpt>
      <trkpt lat="47.62276" lon="8.36497">
        <ele>406.723226</ele>
        <time>2022-09-14T09:02:01.757Z</time>
      </trkpt>
      <trkpt lat="47.6222" lon="8.36328">
        <ele>404.758477</ele>
        <time>2022-09-14T09:02:28.348Z</time>
      </trkpt>
      <trkpt lat="47.62218" lon="8.36258">
        <ele>403.579364</ele>
        <time>2022-09-14T09:02:37.628Z</time>
      </trkpt>
      <trkpt lat="47.62202" lon="8.36161">
        <ele>401.808893</ele>
        <time>2022-09-14T09:02:50.849Z</time>
      </trkpt>
      <trkpt lat="47.62196" lon="8.36108">
        <ele>400.781729</ele>
        <time>2022-09-14T09:02:58.033Z</time>
      </trkpt>
      <trkpt lat="47.62184" lon="8.36057">
        <ele>399.742534</ele>
        <time>2022-09-14T09:03:05.377Z</time>
      </trkpt>
      <trkpt lat="47.62168" lon="8.35985">
        <ele>398.283464</ele>
        <time>2022-09-14T09:03:15.321Z</time>
      </trkpt>
      <trkpt lat="47.62169" lon="8.35853">
        <ele>395.762547</ele>
        <time>2022-09-14T09:03:33.572Z</time>
      </trkpt>
      <trkpt lat="47.62163" lon="8.35816">
        <ele>395.019399</ele>
        <time>2022-09-14T09:03:39.034Z</time>
      </trkpt>
      <trkpt lat="47.62127" lon="8.35777">
        <ele>393.757683</ele>
        <time>2022-09-14T09:03:48.168Z</time>
      </trkpt>
      <trkpt lat="47.62129" lon="8.35747">
        <ele>393.179068</ele>
        <time>2022-09-14T09:03:52.236Z</time>
      </trkpt>
      <trkpt lat="47.62142" lon="8.35697">
        <ele>392.0935</ele>
        <time>2022-09-14T09:03:59.116Z</time>
      </trkpt>
      <trkpt lat="47.62187" lon="8.35604">
        <ele>388.874175</ele>
        <time>2022-09-14T09:04:13.274Z</time>
      </trkpt>
      <trkpt lat="47.62201" lon="8.35562">
        <ele>387.570392</ele>
        <time>2022-09-14T09:04:19.181Z</time>
      </trkpt>
      <trkpt lat="47.62201" lon="8.35517">
        <ele>386.325553</ele>
        <time>2022-09-14T09:04:24.888Z</time>
      </trkpt>
      <trkpt lat="47.62192" lon="8.35435">
        <ele>384.145152</ele>
        <time>2022-09-14T09:04:35.410Z</time>
      </trkpt>
      <trkpt lat="47.62147" lon="8.35405">
        <ele>382.461202</ele>
        <time>2022-09-14T09:04:44.973Z</time>
      </trkpt>
      <trkpt lat="47.62032" lon="8.35332">
        <ele>378.40878</ele>
        <time>2022-09-14T09:05:10.767Z</time>
      </trkpt>
      <trkpt lat="47.62046" lon="8.35203">
        <ele>376.835904</ele>
        <time>2022-09-14T09:05:36.735Z</time>
      </trkpt>
      <trkpt lat="47.62078" lon="8.35014">
        <ele>374.779868</ele>
        <time>2022-09-14T09:06:16.893Z</time>
      </trkpt>
      <trkpt lat="47.62096" lon="8.34876">
        <ele>373.626399</ele>
        <time>2022-09-14T09:06:45.628Z</time>
      </trkpt>
      <trkpt lat="47.62117" lon="8.34655">
        <ele>372.347361</ele>
        <time>2022-09-14T09:07:33.156Z</time>
      </trkpt>
      <trkpt lat="47.62125" lon="8.34497">
        <ele>371.741394</ele>
        <time>2022-09-14T09:08:08.854Z</time>
      </trkpt>
      <trkpt lat="47.62139" lon="8.3434">
        <ele>371.396927</ele>
        <time>2022-09-14T09:08:45.344Z</time>
      </trkpt>
      <trkpt lat="47.62146" lon="8.34312">
        <ele>371.334088</ele>
        <time>2022-09-14T09:08:51.803Z</time>
      </trkpt>
      <trkpt lat="47.6219" lon="8.34203">
        <ele>371.108846</ele>
        <time>2022-09-14T09:09:21.027Z</time>
      </trkpt>
      <trkpt lat="47.6222" lon="8.34155">
        <ele>370.996327</ele>
        <time>2022-09-14T09:09:35.848Z</time>
      </trkpt>
      <trkpt lat="47.62159" lon="8.34088">
        <ele>370.816435</ele>
        <time>2022-09-14T09:09:54.931Z</time>
      </trkpt>
      <trkpt lat="47.62149" lon="8.3407">
        <ele>370.786283</ele>
        <time>2022-09-14T09:09:59.169Z</time>
      </trkpt>
      <trkpt lat="47.62131" lon="8.34022">
        <ele>370.719688</ele>
        <time>2022-09-14T09:10:08.547Z</time>
      </trkpt>
      <trkpt lat="47.62127" lon="8.33997">
        <ele>370.68775</ele>
        <time>2022-09-14T09:10:13.121Z</time>
      </trkpt>
      <trkpt lat="47.62127" lon="8.33867">
        <ele>370.527331</ele>
        <time>2022-09-14T09:10:36.214Z</time>
      </trkpt>
      <trkpt lat="47.6213" lon="8.33789">
        <ele>370.360073</ele>
        <time>2022-09-14T09:10:49.341Z</time>
      </trkpt>
      <trkpt lat="47.6215" lon="8.33719">
        <ele>370.191019</ele>
        <time>2022-09-14T09:11:02.109Z</time>
      </trkpt>
      <trkpt lat="47.62165" lon="8.33669">
        <ele>370.068725</ele>
        <time>2022-09-14T09:11:11.502Z</time>
      </trkpt>
      <trkpt lat="47.62165" lon="8.3365">
        <ele>370.027816</ele>
        <time>2022-09-14T09:11:14.601Z</time>
      </trkpt>
      <trkpt lat="47.62161" lon="8.33644">
        <ele>370.007258</ele>
        <time>2022-09-14T09:11:16.249Z</time>
      </trkpt>
      <trkpt lat="47.62123" lon="8.33633">
        <ele>369.891145</ele>
        <time>2022-09-14T09:11:26.120Z</time>
      </trkpt>
      <trkpt lat="47.6211" lon="8.33623">
        <ele>369.853432</ele>
        <time>2022-09-14T09:11:29.975Z</time>
      </trkpt>
      <trkpt lat="47.62096" lon="8.33601">
        <ele>369.802328</ele>
        <time>2022-09-14T09:11:35.035Z</time>
      </trkpt>
      <trkpt lat="47.62029" lon="8.33416">
        <ele>369.374521</ele>
        <time>2022-09-14T09:12:11.698Z</time>
      </trkpt>
      <trkpt lat="47.62001" lon="8.33245">
        <ele>368.339188</ele>
        <time>2022-09-14T09:12:40.979Z</time>
      </trkpt>
      <trkpt lat="47.61966" lon="8.331">
        <ele>366.656481</ele>
        <time>2022-09-14T09:13:03.144Z</time>
      </trkpt>
      <trkpt lat="47.61938" lon="8.33026">
        <ele>365.334312</ele>
        <time>2022-09-14T09:13:14.867Z</time>
      </trkpt>
      <trkpt lat="47.61931" lon="8.33009">
        <ele>365.024029</ele>
        <time>2022-09-14T09:13:17.510Z</time>
      </trkpt>
      <trkpt lat="47.61948" lon="8.32985">
        <ele>364.47701</ele>
        <time>2022-09-14T09:13:22.261Z</time>
      </trkpt>
      <trkpt lat="47.61994" lon="8.32914">
        <ele>363.019542</ele>
        <time>2022-09-14T09:13:35.612Z</time>
      </trkpt>
      <trkpt lat="47.6201" lon="8.32868">
        <ele>362.287743</ele>
        <time>2022-09-14T09:13:42.719Z</time>
      </trkpt>
      <trkpt lat="47.62011" lon="8.32862">
        <ele>362.20537</ele>
        <time>2022-09-14T09:13:43.528Z</time>
      </trkpt>
      <trkpt lat="47.62012" lon="8.32844">
        <ele>361.951303</ele>
        <time>2022-09-14T09:13:46.003Z</time>
      </trkpt>
      <trkpt lat="47.62013" lon="8.32819">
        <ele>361.596112</ele>
        <time>2022-09-14T09:13:49.505Z</time>
      </trkpt>
      <trkpt lat="47.62014" lon="8.32813">
        <ele>361.520017</ele>
        <time>2022-09-14T09:13:50.264Z</time>
      </trkpt>
      <trkpt lat="47.62013" lon="8.32808">
        <ele>361.443921</ele>
        <time>2022-09-14T09:13:51.022Z</time>
      </trkpt>
      <trkpt lat="47.62018" lon="8.32759">
        <ele>360.754779</ele>
        <time>2022-09-14T09:13:58.196Z</time>
      </trkpt>
      <trkpt lat="47.62021" lon="8.32743">
        <ele>360.512009</ele>
        <time>2022-09-14T09:14:00.744Z</time>
      </trkpt>
      <trkpt lat="47.62035" lon="8.32684">
        <ele>359.774527</ele>
        <time>2022-09-14T09:14:10.113Z</time>
      </trkpt>
      <trkpt lat="47.62043" lon="8.32675">
        <ele>359.654627</ele>
        <time>2022-09-14T09:14:12.357Z</time>
      </trkpt>
      <trkpt lat="47.62063" lon="8.32666">
        <ele>359.396717</ele>
        <time>2022-09-14T09:14:17.325Z</time>
      </trkpt>
      <trkpt lat="47.62105" lon="8.32644">
        <ele>358.862132</ele>
        <time>2022-09-14T09:14:27.751Z</time>
      </trkpt>
      <trkpt lat="47.62133" lon="8.32616">
        <ele>358.457434</ele>
        <time>2022-09-14T09:14:35.526Z</time>
      </trkpt>
      <trkpt lat="47.6214" lon="8.32608">
        <ele>358.348726</ele>
        <time>2022-09-14T09:14:37.582Z</time>
      </trkpt>
      <trkpt lat="47.62181" lon="8.32593">
        <ele>357.836247</ele>
        <time>2022-09-14T09:14:47.014Z</time>
      </trkpt>
      <trkpt lat="47.62221" lon="8.32586">
        <ele>357.132882</ele>
        <time>2022-09-14T09:14:55.836Z</time>
      </trkpt>
      <trkpt lat="47.62236" lon="8.32581">
        <ele>356.866966</ele>
        <time>2022-09-14T09:14:58.978Z</time>
      </trkpt>
      <trkpt lat="47.62237" lon="8.32581">
        <ele>356.843441</ele>
        <time>2022-09-14T09:14:59.253Z</time>
      </trkpt>
      <trkpt lat="47.62254" lon="8.32576">
        <ele>356.533311</ele>
        <time>2022-09-14T09:15:03.064Z</time>
      </trkpt>
      <trkpt lat="47.62257" lon="8.32575">
        <ele>356.475285</ele>
        <time>2022-09-14T09:15:03.756Z</time>
      </trkpt>
      <trkpt lat="47.62263" lon="8.32573">
        <ele>356.375153</ele>
        <time>2022-09-14T09:15:04.936Z</time>
      </trkpt>
      <trkpt lat="47.62289" lon="8.32562">
        <ele>355.886112</ele>
        <time>2022-09-14T09:15:10.822Z</time>
      </trkpt>
      <trkpt lat="47.62294" lon="8.3256">
        <ele>355.795552</ele>
        <time>2022-09-14T09:15:11.911Z</time>
      </trkpt>
      <trkpt lat="47.62302" lon="8.32555">
        <ele>355.640793</ele>
        <time>2022-09-14T09:15:13.732Z</time>
      </trkpt>
      <trkpt lat="47.62339" lon="8.32535">
        <ele>354.93918</ele>
        <time>2022-09-14T09:15:22.051Z</time>
      </trkpt>
      <trkpt lat="47.62336" lon="8.32527">
        <ele>354.831609</ele>
        <time>2022-09-14T09:15:24.328Z</time>
      </trkpt>
      <trkpt lat="47.62326" lon="8.32488">
        <ele>354.333758</ele>
        <time>2022-09-14T09:15:34.917Z</time>
      </trkpt>
      <trkpt lat="47.62324" lon="8.32412">
        <ele>353.465003</ele>
        <time>2022-09-14T09:15:53.986Z</time>
      </trkpt>
      <trkpt lat="47.62331" lon="8.32353">
        <ele>352.772295</ele>
        <time>2022-09-14T09:16:09.486Z</time>
      </trkpt>
      <trkpt lat="47.62353" lon="8.32244">
        <ele>351.48072</ele>
        <time>2022-09-14T09:16:39.581Z</time>
      </trkpt>
      <trkpt lat="47.62365" lon="8.32201">
        <ele>351.18551</ele>
        <time>2022-09-14T09:16:52.453Z</time>
      </trkpt>
      <trkpt lat="47.62399" lon="8.3212">
        <ele>350.593392</ele>
        <time>2022-09-14T09:17:18.481Z</time>
      </trkpt>
      <trkpt lat="47.62521" lon="8.31904">
        <ele>349.277598</ele>
        <time>2022-09-14T09:18:37.119Z</time>
      </trkpt>
      <trkpt lat="47.62536" lon="8.31866">
        <ele>349.119838</ele>
        <time>2022-09-14T09:18:50.130Z</time>
      </trkpt>
      <trkpt lat="47.62549" lon="8.31812">
        <ele>348.918618</ele>
        <time>2022-09-14T09:19:06.883Z</time>
      </trkpt>
      <trkpt lat="47.62555" lon="8.31755">
        <ele>348.778446</ele>
        <time>2022-09-14T09:19:23.813Z</time>
      </trkpt>
      <trkpt lat="47.62553" lon="8.31691">
        <ele>348.631047</ele>
        <time>2022-09-14T09:19:42.345Z</time>
      </trkpt>
      <trkpt lat="47.62544" lon="8.31611">
        <ele>348.44341</ele>
        <time>2022-09-14T09:20:05.871Z</time>
      </trkpt>
      <trkpt lat="47.62524" lon="8.31503">
        <ele>348.136784</ele>
        <time>2022-09-14T09:20:38.092Z</time>
      </trkpt>
      <trkpt lat="47.62489" lon="8.3134">
        <ele>347.55593</ele>
        <time>2022-09-14T09:21:26.063Z</time>
      </trkpt>
      <trkpt lat="47.62387" lon="8.30874">
        <ele>347.072743</ele>
        <time>2022-09-14T09:23:50.362Z</time>
      </trkpt>
      <trkpt lat="47.62391" lon="8.3086">
        <ele>347.078226</ele>
        <time>2022-09-14T09:23:55.305Z</time>
      </trkpt>
      <trkpt lat="47.62375" lon="8.30811">
        <ele>347.098723</ele>
        <time>2022-09-14T09:24:07.673Z</time>
      </trkpt>
      <trkpt lat="47.62351" lon="8.30707">
        <ele>347.211271</ele>
        <time>2022-09-14T09:24:29.501Z</time>
      </trkpt>
      <trkpt lat="47.62346" lon="8.30666">
        <ele>347.262036</ele>
        <time>2022-09-14T09:24:39.581Z</time>
      </trkpt>
      <trkpt lat="47.62363" lon="8.30621">
        <ele>347.326284</ele>
        <time>2022-09-14T09:24:52.684Z</time>
      </trkpt>
      <trkpt lat="47.62387" lon="8.30582">
        <ele>347.391261</ele>
        <time>2022-09-14T09:25:03.039Z</time>
      </trkpt>
      <trkpt lat="47.62397" lon="8.30568">
        <ele>347.415855</ele>
        <time>2022-09-14T09:25:06.738Z</time>
      </trkpt>
      <trkpt lat="47.6241" lon="8.30549">
        <ele>347.474419</ele>
        <time>2022-09-14T09:25:11.612Z</time>
      </trkpt>
      <trkpt lat="47.62435" lon="8.3053">
        <ele>347.63823</ele>
        <time>2022-09-14T09:25:18.662Z</time>
      </trkpt>
      <trkpt lat="47.62467" lon="8.30524">
        <ele>347.823471</ele>
        <time>2022-09-14T09:25:26.222Z</time>
      </trkpt>
      <trkpt lat="47.62513" lon="8.30518">
        <ele>348.085993</ele>
        <time>2022-09-14T09:25:38.020Z</time>
      </trkpt>
      <trkpt lat="47.62517" lon="8.30517">
        <ele>348.109704</ele>
        <time>2022-09-14T09:25:39.219Z</time>
      </trkpt>
      <trkpt lat="47.62567" lon="8.30535">
        <ele>348.406808</ele>
        <time>2022-09-14T09:25:58.062Z</time>
      </trkpt>
      <trkpt lat="47.62603" lon="8.30527">
        <ele>348.832015</ele>
        <time>2022-09-14T09:26:11.442Z</time>
      </trkpt>
      <trkpt lat="47.62625" lon="8.30511">
        <ele>349.18765</ele>
        <time>2022-09-14T09:26:20.212Z</time>
      </trkpt>
      <trkpt lat="47.62669" lon="8.30485">
        <ele>349.86674</ele>
        <time>2022-09-14T09:26:36.387Z</time>
      </trkpt>
      <trkpt lat="47.62695" lon="8.30471">
        <ele>350.272034</ele>
        <time>2022-09-14T09:26:45.647Z</time>
      </trkpt>
      <trkpt lat="47.62734" lon="8.30459">
        <ele>350.842494</ele>
        <time>2022-09-14T09:26:58.423Z</time>
      </trkpt>
      <trkpt lat="47.62786" lon="8.3043">
        <ele>351.071436</ele>
        <time>2022-09-14T09:27:15.683Z</time>
      </trkpt>
      <trkpt lat="47.62796" lon="8.30423">
        <ele>351.072716</ele>
        <time>2022-09-14T09:27:18.996Z</time>
      </trkpt>
      <trkpt lat="47.62804" lon="8.30416">
        <ele>351.073741</ele>
        <time>2022-09-14T09:27:21.447Z</time>
      </trkpt>
      <trkpt lat="47.62851" lon="8.30377">
        <ele>351.079999</ele>
        <time>2022-09-14T09:27:35.422Z</time>
      </trkpt>
      <trkpt lat="47.62853" lon="8.30375">
        <ele>351.08027</ele>
        <time>2022-09-14T09:27:36.024Z</time>
      </trkpt>
      <trkpt lat="47.62879" lon="8.30339">
        <ele>351.084441</ele>
        <time>2022-09-14T09:27:44.881Z</time>
      </trkpt>
      <trkpt lat="47.62904" lon="8.30297">
        <ele>351.004513</ele>
        <time>2022-09-14T09:27:53.934Z</time>
      </trkpt>
      <trkpt lat="47.62906" lon="8.30279">
        <ele>350.899364</ele>
        <time>2022-09-14T09:27:56.911Z</time>
      </trkpt>
      <trkpt lat="47.62946" lon="8.3022">
        <ele>350.421135</ele>
        <time>2022-09-14T09:28:10.103Z</time>
      </trkpt>
      <trkpt lat="47.62957" lon="8.30206">
        <ele>350.30219</ele>
        <time>2022-09-14T09:28:13.340Z</time>
      </trkpt>
      <trkpt lat="47.62986" lon="8.30168">
        <ele>349.975317</ele>
        <time>2022-09-14T09:28:22.294Z</time>
      </trkpt>
      <trkpt lat="47.63031" lon="8.30102">
        <ele>349.475336</ele>
        <time>2022-09-14T09:28:37.499Z</time>
      </trkpt>
      <trkpt lat="47.63056" lon="8.30065">
        <ele>349.259338</ele>
        <time>2022-09-14T09:28:46.043Z</time>
      </trkpt>
      <trkpt lat="47.63062" lon="8.30054">
        <ele>349.200966</ele>
        <time>2022-09-14T09:28:48.353Z</time>
      </trkpt>
      <trkpt lat="47.63077" lon="8.30031">
        <ele>349.065445</ele>
        <time>2022-09-14T09:28:53.598Z</time>
      </trkpt>
      <trkpt lat="47.63084" lon="8.3002">
        <ele>349.00676</ele>
        <time>2022-09-14T09:28:55.873Z</time>
      </trkpt>
      <trkpt lat="47.63091" lon="8.30009">
        <ele>348.943344</ele>
        <time>2022-09-14T09:28:58.378Z</time>
      </trkpt>
      <trkpt lat="47.63099" lon="8.29995">
        <ele>348.863012</ele>
        <time>2022-09-14T09:29:01.509Z</time>
      </trkpt>
      <trkpt lat="47.63147" lon="8.29922">
        <ele>348.445147</ele>
        <time>2022-09-14T09:29:18.196Z</time>
      </trkpt>
      <trkpt lat="47.63161" lon="8.29901">
        <ele>348.337095</ele>
        <time>2022-09-14T09:29:23.030Z</time>
      </trkpt>
      <trkpt lat="47.6318" lon="8.29867">
        <ele>348.1774</ele>
        <time>2022-09-14T09:29:30.375Z</time>
      </trkpt>
      <trkpt lat="47.632" lon="8.29831">
        <ele>348.005016</ele>
        <time>2022-09-14T09:29:38.665Z</time>
      </trkpt>
      <trkpt lat="47.63203" lon="8.29826">
        <ele>347.981159</ele>
        <time>2022-09-14T09:29:39.758Z</time>
      </trkpt>
      <trkpt lat="47.63236" lon="8.29766">
        <ele>347.702606</ele>
        <time>2022-09-14T09:29:52.835Z</time>
      </trkpt>
      <trkpt lat="47.63242" lon="8.29755">
        <ele>347.652124</ele>
        <time>2022-09-14T09:29:55.051Z</time>
      </trkpt>
      <trkpt lat="47.63233" lon="8.29746">
        <ele>347.596315</ele>
        <time>2022-09-14T09:29:57.404Z</time>
      </trkpt>
      <trkpt lat="47.63253" lon="8.29702">
        <ele>347.190018</ele>
        <time>2022-09-14T09:30:05.788Z</time>
      </trkpt>
      <trkpt lat="47.6327" lon="8.29693">
        <ele>346.849471</ele>
        <time>2022-09-14T09:30:10.543Z</time>
      </trkpt>
      <trkpt lat="47.63301" lon="8.29678">
        <ele>346.273273</ele>
        <time>2022-09-14T09:30:17.825Z</time>
      </trkpt>
      <trkpt lat="47.63367" lon="8.29574">
        <ele>344.511899</ele>
        <time>2022-09-14T09:30:38.203Z</time>
      </trkpt>
      <trkpt lat="47.63369" lon="8.29563">
        <ele>344.37181</ele>
        <time>2022-09-14T09:30:39.775Z</time>
      </trkpt>
      <trkpt lat="47.6337" lon="8.29516">
        <ele>343.364533</ele>
        <time>2022-09-14T09:30:45.936Z</time>
      </trkpt>
      <trkpt lat="47.63335" lon="8.29259">
        <ele>337.063256</ele>
        <time>2022-09-14T09:31:19.151Z</time>
      </trkpt>
      <trkpt lat="47.63329" lon="8.29223">
        <ele>336.445437</ele>
        <time>2022-09-14T09:31:24.027Z</time>
      </trkpt>
      <trkpt lat="47.63324" lon="8.29198">
        <ele>336.012742</ele>
        <time>2022-09-14T09:31:27.528Z</time>
      </trkpt>
      <trkpt lat="47.63323" lon="8.29191">
        <ele>335.903789</ele>
        <time>2022-09-14T09:31:28.427Z</time>
      </trkpt>
      <trkpt lat="47.63312" lon="8.29139">
        <ele>334.989043</ele>
        <time>2022-09-14T09:31:36.042Z</time>
      </trkpt>
      <trkpt lat="47.63313" lon="8.29123">
        <ele>334.723696</ele>
        <time>2022-09-14T09:31:38.289Z</time>
      </trkpt>
      <trkpt lat="47.63326" lon="8.29104">
        <ele>334.283158</ele>
        <time>2022-09-14T09:31:42.101Z</time>
      </trkpt>
      <trkpt lat="47.6335" lon="8.29071">
        <ele>333.487616</ele>
        <time>2022-09-14T09:31:49.148Z</time>
      </trkpt>
      <trkpt lat="47.63363" lon="8.2908">
        <ele>333.13545</ele>
        <time>2022-09-14T09:31:52.289Z</time>
      </trkpt>
      <trkpt lat="47.63388" lon="8.29128">
        <ele>332.676701</ele>
        <time>2022-09-14T09:32:01.806Z</time>
      </trkpt>
      <trkpt lat="47.63403" lon="8.29128">
        <ele>332.509536</ele>
        <time>2022-09-14T09:32:05.502Z</time>
      </trkpt>
      <trkpt lat="47.63418" lon="8.29117">
        <ele>332.323226</ele>
        <time>2022-09-14T09:32:12.286Z</time>
      </trkpt>
      <trkpt lat="47.63422" lon="8.29115">
        <ele>332.27928</ele>
        <time>2022-09-14T09:32:13.910Z</time>
      </trkpt>
      <trkpt lat="47.63416" lon="8.29087">
        <ele>332.056207</ele>
        <time>2022-09-14T09:32:19.303Z</time>
      </trkpt>
      <trkpt lat="47.63388" lon="8.28961">
        <ele>331.057427</ele>
        <time>2022-09-14T09:32:42.285Z</time>
      </trkpt>
      <trkpt lat="47.63415" lon="8.28868">
        <ele>330.2655</ele>
        <time>2022-09-14T09:32:59.410Z</time>
      </trkpt>
      <trkpt lat="47.63431" lon="8.2879">
        <ele>329.621183</ele>
        <time>2022-09-14T09:33:13.513Z</time>
      </trkpt>
      <trkpt lat="47.63429" lon="8.28698">
        <ele>328.946395</ele>
        <time>2022-09-14T09:33:29.492Z</time>
      </trkpt>
      <trkpt lat="47.63393" lon="8.28561">
        <ele>328.180041</ele>
        <time>2022-09-14T09:33:55.506Z</time>
      </trkpt>
      <trkpt lat="47.63338" lon="8.28403">
        <ele>327.850334</ele>
        <time>2022-09-14T09:34:28.165Z</time>
      </trkpt>
      <trkpt lat="47.63279" lon="8.28278">
        <ele>328.270302</ele>
        <time>2022-09-14T09:35:01.165Z</time>
      </trkpt>
      <trkpt lat="47.63256" lon="8.2823">
        <ele>328.649235</ele>
        <time>2022-09-14T09:35:15.213Z</time>
      </trkpt>
      <trkpt lat="47.63188" lon="8.28074">
        <ele>331.180019</ele>
        <time>2022-09-14T09:36:05.894Z</time>
      </trkpt>
      <trkpt lat="47.62977" lon="8.276">
        <ele>337.697586</ele>
        <time>2022-09-14T09:38:40.269Z</time>
      </trkpt>
      <trkpt lat="47.62973" lon="8.27578">
        <ele>337.853246</ele>
        <time>2022-09-14T09:38:43.292Z</time>
      </trkpt>
      <trkpt lat="47.62931" lon="8.27512">
        <ele>335.892575</ele>
        <time>2022-09-14T09:38:56.470Z</time>
      </trkpt>
      <trkpt lat="47.62892" lon="8.27468">
        <ele>334.20773</ele>
        <time>2022-09-14T09:39:06.408Z</time>
      </trkpt>
      <trkpt lat="47.62835" lon="8.27427">
        <ele>332.038009</ele>
        <time>2022-09-14T09:39:19.682Z</time>
      </trkpt>
      <trkpt lat="47.62764" lon="8.27386">
        <ele>331.49909</ele>
        <time>2022-09-14T09:39:39.915Z</time>
      </trkpt>
      <trkpt lat="47.62709" lon="8.27338">
        <ele>331.297815</ele>
        <time>2022-09-14T09:40:01.041Z</time>
      </trkpt>
      <trkpt lat="47.62651" lon="8.27263">
        <ele>330.689856</ele>
        <time>2022-09-14T09:40:26.693Z</time>
      </trkpt>
      <trkpt lat="47.62608" lon="8.27176">
        <ele>329.508338</ele>
        <time>2022-09-14T09:40:45.672Z</time>
      </trkpt>
      <trkpt lat="47.62561" lon="8.27065">
        <ele>328.023752</ele>
        <time>2022-09-14T09:41:05.278Z</time>
      </trkpt>
      <trkpt lat="47.62501" lon="8.2693">
        <ele>325.653648</ele>
        <time>2022-09-14T09:41:28.587Z</time>
      </trkpt>
      <trkpt lat="47.62409" lon="8.26694">
        <ele>326.759652</ele>
        <time>2022-09-14T09:42:27.498Z</time>
      </trkpt>
      <trkpt lat="47.62401" lon="8.26672">
        <ele>327.10556</ele>
        <time>2022-09-14T09:42:36.745Z</time>
      </trkpt>
      <trkpt lat="47.62376" lon="8.26633">
        <ele>327.835758</ele>
        <time>2022-09-14T09:42:56.146Z</time>
      </trkpt>
      <trkpt lat="47.62375" lon="8.26623">
        <ele>328.012947</ele>
        <time>2022-09-14T09:42:59.581Z</time>
      </trkpt>
      <trkpt lat="47.62376" lon="8.26605">
        <ele>328.589364</ele>
        <time>2022-09-14T09:43:07.949Z</time>
      </trkpt>
      <trkpt lat="47.6237" lon="8.26591">
        <ele>329.093635</ele>
        <time>2022-09-14T09:43:14.677Z</time>
      </trkpt>
      <trkpt lat="47.6235" lon="8.26571">
        <ele>330.218092</ele>
        <time>2022-09-14T09:43:27.971Z</time>
      </trkpt>
      <trkpt lat="47.62333" lon="8.26557">
        <ele>331.129923</ele>
        <time>2022-09-14T09:43:39.476Z</time>
      </trkpt>
      <trkpt lat="47.6232" lon="8.26544">
        <ele>331.844149</ele>
        <time>2022-09-14T09:43:47.155Z</time>
      </trkpt>
      <trkpt lat="47.62282" lon="8.26497">
        <ele>334.133723</ele>
        <time>2022-09-14T09:44:14.714Z</time>
      </trkpt>
      <trkpt lat="47.62227" lon="8.26401">
        <ele>335.714326</ele>
        <time>2022-09-14T09:44:55.531Z</time>
      </trkpt>
      <trkpt lat="47.62111" lon="8.26126">
        <ele>330.06787</ele>
        <time>2022-09-14T09:45:43.483Z</time>
      </trkpt>
      <trkpt lat="47.62211" lon="8.2603">
        <ele>324.943377</ele>
        <time>2022-09-14T09:46:04.635Z</time>
      </trkpt>
      <trkpt lat="47.62198" lon="8.25996">
        <ele>324.269125</ele>
        <time>2022-09-14T09:46:09.560Z</time>
      </trkpt>
      <trkpt lat="47.6218" lon="8.25948">
        <ele>323.318955</ele>
        <time>2022-09-14T09:46:22.383Z</time>
      </trkpt>
      <trkpt lat="47.62178" lon="8.25942">
        <ele>323.212891</ele>
        <time>2022-09-14T09:46:23.191Z</time>
      </trkpt>
      <trkpt lat="47.62188" lon="8.25925">
        <ele>322.824731</ele>
        <time>2022-09-14T09:46:26.335Z</time>
      </trkpt>
      <trkpt lat="47.62189" lon="8.25911">
        <ele>322.577728</ele>
        <time>2022-09-14T09:46:28.437Z</time>
      </trkpt>
      <trkpt lat="47.62153" lon="8.25812">
        <ele>320.791547</ele>
        <time>2022-09-14T09:46:47.175Z</time>
      </trkpt>
      <trkpt lat="47.62117" lon="8.25748">
        <ele>320.869865</ele>
        <time>2022-09-14T09:47:03.683Z</time>
      </trkpt>
      <trkpt lat="47.62072" lon="8.25651">
        <ele>320.9812</ele>
        <time>2022-09-14T09:47:26.445Z</time>
      </trkpt>
      <trkpt lat="47.62049" lon="8.25599">
        <ele>321.014277</ele>
        <time>2022-09-14T09:47:37.582Z</time>
      </trkpt>
      <trkpt lat="47.62051" lon="8.2558">
        <ele>320.887242</ele>
        <time>2022-09-14T09:47:40.686Z</time>
      </trkpt>
      <trkpt lat="47.62056" lon="8.25576">
        <ele>320.833835</ele>
        <time>2022-09-14T09:47:42.131Z</time>
      </trkpt>
      <trkpt lat="47.62072" lon="8.25561">
        <ele>320.65736</ele>
        <time>2022-09-14T09:47:46.686Z</time>
      </trkpt>
      <trkpt lat="47.62074" lon="8.25557">
        <ele>320.623603</ele>
        <time>2022-09-14T09:47:47.435Z</time>
      </trkpt>
      <trkpt lat="47.62061" lon="8.25527">
        <ele>320.38715</ele>
        <time>2022-09-14T09:47:53.222Z</time>
      </trkpt>
      <trkpt lat="47.62038" lon="8.2548">
        <ele>320.011768</ele>
        <time>2022-09-14T09:48:02.048Z</time>
      </trkpt>
      <trkpt lat="47.61807" lon="8.25128">
        <ele>316.242949</ele>
        <time>2022-09-14T09:49:15.891Z</time>
      </trkpt>
      <trkpt lat="47.61648" lon="8.24895">
        <ele>314.924356</ele>
        <time>2022-09-14T09:50:11.818Z</time>
      </trkpt>
      <trkpt lat="47.61632" lon="8.24861">
        <ele>314.804411</ele>
        <time>2022-09-14T09:50:18.893Z</time>
      </trkpt>
      <trkpt lat="47.61625" lon="8.24825">
        <ele>314.698647</ele>
        <time>2022-09-14T09:50:25.147Z</time>
      </trkpt>
      <trkpt lat="47.61623" lon="8.24765">
        <ele>314.606549</ele>
        <time>2022-09-14T09:50:35.145Z</time>
      </trkpt>
      <trkpt lat="47.61614" lon="8.24737">
        <ele>314.566128</ele>
        <time>2022-09-14T09:50:40.258Z</time>
      </trkpt>
      <trkpt lat="47.61564" lon="8.2468">
        <ele>314.444348</ele>
        <time>2022-09-14T09:50:55.792Z</time>
      </trkpt>
      <trkpt lat="47.61542" lon="8.24633">
        <ele>314.368069</ele>
        <time>2022-09-14T09:51:06.229Z</time>
      </trkpt>
      <trkpt lat="47.6152" lon="8.24531">
        <ele>315.028121</ele>
        <time>2022-09-14T09:51:26.684Z</time>
      </trkpt>
      <trkpt lat="47.61473" lon="8.24195">
        <ele>318.381445</ele>
        <time>2022-09-14T09:52:49.850Z</time>
      </trkpt>
      <trkpt lat="47.61468" lon="8.24133">
        <ele>319.005697</ele>
        <time>2022-09-14T09:53:04.225Z</time>
      </trkpt>
      <trkpt lat="47.61458" lon="8.24088">
        <ele>319.480984</ele>
        <time>2022-09-14T09:53:14.446Z</time>
      </trkpt>
      <trkpt lat="47.61425" lon="8.23863">
        <ele>319.275221</ele>
        <time>2022-09-14T09:53:55.416Z</time>
      </trkpt>
      <trkpt lat="47.6143" lon="8.23844">
        <ele>319.249818</ele>
        <time>2022-09-14T09:53:58.688Z</time>
      </trkpt>
      <trkpt lat="47.61428" lon="8.23835">
        <ele>319.237513</ele>
        <time>2022-09-14T09:54:00.282Z</time>
      </trkpt>
      <trkpt lat="47.61427" lon="8.23825">
        <ele>319.224765</ele>
        <time>2022-09-14T09:54:01.662Z</time>
      </trkpt>
      <trkpt lat="47.61408" lon="8.23819">
        <ele>318.968469</ele>
        <time>2022-09-14T09:54:05.986Z</time>
      </trkpt>
      <trkpt lat="47.61349" lon="8.23713">
        <ele>317.574046</ele>
        <time>2022-09-14T09:54:26.145Z</time>
      </trkpt>
      <trkpt lat="47.61306" lon="8.2365">
        <ele>316.671574</ele>
        <time>2022-09-14T09:54:39.156Z</time>
      </trkpt>
      <trkpt lat="47.61237" lon="8.23566">
        <ele>315.552134</ele>
        <time>2022-09-14T09:54:59.010Z</time>
      </trkpt>
      <trkpt lat="47.61193" lon="8.23521">
        <ele>314.899874</ele>
        <time>2022-09-14T09:55:10.750Z</time>
      </trkpt>
      <trkpt lat="47.61162" lon="8.2349">
        <ele>314.43954</ele>
        <time>2022-09-14T09:55:19.398Z</time>
      </trkpt>
      <trkpt lat="47.6109" lon="8.23426">
        <ele>314.240703</ele>
        <time>2022-09-14T09:55:40.688Z</time>
      </trkpt>
      <trkpt lat="47.61063" lon="8.23385">
        <ele>314.201921</ele>
        <time>2022-09-14T09:55:51.513Z</time>
      </trkpt>
      <trkpt lat="47.61046" lon="8.23328">
        <ele>314.159182</ele>
        <time>2022-09-14T09:56:03.376Z</time>
      </trkpt>
      <trkpt lat="47.61026" lon="8.23268">
        <ele>314.121171</ele>
        <time>2022-09-14T09:56:15.380Z</time>
      </trkpt>
      <trkpt lat="47.61012" lon="8.23231">
        <ele>314.102445</ele>
        <time>2022-09-14T09:56:22.961Z</time>
      </trkpt>
      <trkpt lat="47.61008" lon="8.23189">
        <ele>314.083521</ele>
        <time>2022-09-14T09:56:30.698Z</time>
      </trkpt>
      <trkpt lat="47.61018" lon="8.23162">
        <ele>314.070144</ele>
        <time>2022-09-14T09:56:36.276Z</time>
      </trkpt>
      <trkpt lat="47.61006" lon="8.23155">
        <ele>314.061477</ele>
        <time>2022-09-14T09:56:39.689Z</time>
      </trkpt>
      <trkpt lat="47.60996" lon="8.23151">
        <ele>314.054802</ele>
        <time>2022-09-14T09:56:42.520Z</time>
      </trkpt>
      <trkpt lat="47.6099" lon="8.23148">
        <ele>314.05056</ele>
        <time>2022-09-14T09:56:44.362Z</time>
      </trkpt>
      <trkpt lat="47.6098" lon="8.2314">
        <ele>314.043731</ele>
        <time>2022-09-14T09:56:47.181Z</time>
      </trkpt>
      <trkpt lat="47.60978" lon="8.23132">
        <ele>314.039964</ele>
        <time>2022-09-14T09:56:48.710Z</time>
      </trkpt>
      <trkpt lat="47.60973" lon="8.23118">
        <ele>314.033043</ele>
        <time>2022-09-14T09:56:51.527Z</time>
      </trkpt>
      <trkpt lat="47.60972" lon="8.23114">
        <ele>314.031174</ele>
        <time>2022-09-14T09:56:52.287Z</time>
      </trkpt>
      <trkpt lat="47.60954" lon="8.23112">
        <ele>314.019433</ele>
        <time>2022-09-14T09:56:56.964Z</time>
      </trkpt>
      <trkpt lat="47.60954" lon="8.231">
        <ele>313.990055</ele>
        <time>2022-09-14T09:56:59.015Z</time>
      </trkpt>
      <trkpt lat="47.60954" lon="8.22997">
        <ele>313.594662</ele>
        <time>2022-09-14T09:57:15.883Z</time>
      </trkpt>
      <trkpt lat="47.60988" lon="8.22991">
        <ele>313.403149</ele>
        <time>2022-09-14T09:57:23.799Z</time>
      </trkpt>
      <trkpt lat="47.60994" lon="8.22882">
        <ele>312.98259</ele>
        <time>2022-09-14T09:57:41.932Z</time>
      </trkpt>
      <trkpt lat="47.61019" lon="8.22746">
        <ele>312.374025</ele>
        <time>2022-09-14T09:58:05.020Z</time>
      </trkpt>
      <trkpt lat="47.6107" lon="8.2261">
        <ele>311.776981</ele>
        <time>2022-09-14T09:58:30.282Z</time>
      </trkpt>
      <trkpt lat="47.61069" lon="8.22579">
        <ele>311.715747</ele>
        <time>2022-09-14T09:58:35.255Z</time>
      </trkpt>
      <trkpt lat="47.61077" lon="8.2255">
        <ele>311.652928</ele>
        <time>2022-09-14T09:58:40.307Z</time>
      </trkpt>
      <trkpt lat="47.61104" lon="8.22526">
        <ele>311.560778</ele>
        <time>2022-09-14T09:58:48.157Z</time>
      </trkpt>
      <trkpt lat="47.61111" lon="8.22521">
        <ele>311.535763</ele>
        <time>2022-09-14T09:58:50.156Z</time>
      </trkpt>
      <trkpt lat="47.6112" lon="8.22515">
        <ele>311.50721</ele>
        <time>2022-09-14T09:58:52.736Z</time>
      </trkpt>
      <trkpt lat="47.61133" lon="8.22506">
        <ele>311.465926</ele>
        <time>2022-09-14T09:58:56.431Z</time>
      </trkpt>
      <trkpt lat="47.61185" lon="8.22464">
        <ele>311.347644</ele>
        <time>2022-09-14T09:59:12.146Z</time>
      </trkpt>
      <trkpt lat="47.61206" lon="8.22444">
        <ele>311.490278</ele>
        <time>2022-09-14T09:59:19.384Z</time>
      </trkpt>
      <trkpt lat="47.61282" lon="8.22388">
        <ele>311.96106</ele>
        <time>2022-09-14T09:59:44.617Z</time>
      </trkpt>
      <trkpt lat="47.61308" lon="8.22378">
        <ele>312.114297</ele>
        <time>2022-09-14T09:59:52.377Z</time>
      </trkpt>
      <trkpt lat="47.61377" lon="8.22353">
        <ele>312.92079</ele>
        <time>2022-09-14T10:00:13.696Z</time>
      </trkpt>
      <trkpt lat="47.61435" lon="8.22333">
        <ele>313.967828</ele>
        <time>2022-09-14T10:00:34.354Z</time>
      </trkpt>
      <trkpt lat="47.61457" lon="8.22328">
        <ele>314.345849</ele>
        <time>2022-09-14T10:00:42.656Z</time>
      </trkpt>
      <trkpt lat="47.61467" lon="8.22334">
        <ele>314.536125</ele>
        <time>2022-09-14T10:00:46.740Z</time>
      </trkpt>
      <trkpt lat="47.61508" lon="8.22433">
        <ele>315.947521</ele>
        <time>2022-09-14T10:01:16.665Z</time>
      </trkpt>
      <trkpt lat="47.61518" lon="8.22456">
        <ele>316.298475</ele>
        <time>2022-09-14T10:01:23.875Z</time>
      </trkpt>
      <trkpt lat="47.61528" lon="8.22464">
        <ele>316.503625</ele>
        <time>2022-09-14T10:01:28.005Z</time>
      </trkpt>
      <trkpt lat="47.61555" lon="8.22455">
        <ele>317.022099</ele>
        <time>2022-09-14T10:01:38.415Z</time>
      </trkpt>
      <trkpt lat="47.61618" lon="8.22402">
        <ele>318.405256</ele>
        <time>2022-09-14T10:02:05.401Z</time>
      </trkpt>
      <trkpt lat="47.61709" lon="8.223">
        <ele>319.065204</ele>
        <time>2022-09-14T10:02:37.686Z</time>
      </trkpt>
      <trkpt lat="47.61762" lon="8.22225">
        <ele>319.231601</ele>
        <time>2022-09-14T10:02:58.511Z</time>
      </trkpt>
      <trkpt lat="47.61774" lon="8.22215">
        <ele>319.262775</ele>
        <time>2022-09-14T10:03:02.109Z</time>
      </trkpt>
      <trkpt lat="47.61785" lon="8.22172">
        <ele>319.480839</ele>
        <time>2022-09-14T10:03:11.833Z</time>
      </trkpt>
      <trkpt lat="47.61826" lon="8.22116">
        <ele>319.898355</ele>
        <time>2022-09-14T10:03:30.277Z</time>
      </trkpt>
      <trkpt lat="47.61864" lon="8.22042">
        <ele>320.37354</ele>
        <time>2022-09-14T10:03:51.574Z</time>
      </trkpt>
      <trkpt lat="47.61918" lon="8.2196">
        <ele>320.620526</ele>
        <time>2022-09-14T10:04:20.951Z</time>
      </trkpt>
      <trkpt lat="47.61981" lon="8.21796">
        <ele>320.59386</ele>
        <time>2022-09-14T10:04:57.216Z</time>
      </trkpt>
      <trkpt lat="47.62009" lon="8.21695">
        <ele>319.220725</ele>
        <time>2022-09-14T10:05:14.719Z</time>
      </trkpt>
      <trkpt lat="47.62041" lon="8.21605">
        <ele>317.786683</ele>
        <time>2022-09-14T10:05:30.917Z</time>
      </trkpt>
      <trkpt lat="47.62044" lon="8.21591">
        <ele>317.570853</ele>
        <time>2022-09-14T10:05:32.885Z</time>
      </trkpt>
      <trkpt lat="47.62047" lon="8.21581">
        <ele>317.414538</ele>
        <time>2022-09-14T10:05:34.336Z</time>
      </trkpt>
      <trkpt lat="47.62049" lon="8.21574">
        <ele>317.308314</ele>
        <time>2022-09-14T10:05:35.434Z</time>
      </trkpt>
      <trkpt lat="47.62091" lon="8.21429">
        <ele>315.817739</ele>
        <time>2022-09-14T10:05:59.688Z</time>
      </trkpt>
      <trkpt lat="47.62125" lon="8.21302">
        <ele>314.72077</ele>
        <time>2022-09-14T10:06:23.594Z</time>
      </trkpt>
      <trkpt lat="47.62146" lon="8.21223">
        <ele>315.28261</ele>
        <time>2022-09-14T10:06:41.936Z</time>
      </trkpt>
      <trkpt lat="47.62166" lon="8.21087">
        <ele>316.42966</ele>
        <time>2022-09-14T10:07:16.008Z</time>
      </trkpt>
      <trkpt lat="47.6218" lon="8.21001">
        <ele>317.060075</ele>
        <time>2022-09-14T10:07:40.625Z</time>
      </trkpt>
      <trkpt lat="47.62193" lon="8.20917">
        <ele>317.552921</ele>
        <time>2022-09-14T10:08:02.159Z</time>
      </trkpt>
      <trkpt lat="47.62207" lon="8.20732">
        <ele>318.15533</ele>
        <time>2022-09-14T10:08:40.163Z</time>
      </trkpt>
      <trkpt lat="47.62202" lon="8.20378">
        <ele>316.462856</ele>
        <time>2022-09-14T10:09:42.506Z</time>
      </trkpt>
      <trkpt lat="47.62202" lon="8.20305">
        <ele>316.134784</ele>
        <time>2022-09-14T10:09:56.431Z</time>
      </trkpt>
      <trkpt lat="47.62183" lon="8.20208">
        <ele>315.605725</ele>
        <time>2022-09-14T10:10:15.304Z</time>
      </trkpt>
      <trkpt lat="47.62177" lon="8.20181">
        <ele>315.421281</ele>
        <time>2022-09-14T10:10:20.284Z</time>
      </trkpt>
      <trkpt lat="47.62178" lon="8.20161">
        <ele>315.292218</ele>
        <time>2022-09-14T10:10:23.775Z</time>
      </trkpt>
      <trkpt lat="47.62103" lon="8.19893">
        <ele>313.529004</ele>
        <time>2022-09-14T10:11:10.071Z</time>
      </trkpt>
      <trkpt lat="47.62027" lon="8.19682">
        <ele>312.578978</ele>
        <time>2022-09-14T10:11:51.821Z</time>
      </trkpt>
      <trkpt lat="47.61998" lon="8.19589">
        <ele>312.432984</ele>
        <time>2022-09-14T10:12:11.140Z</time>
      </trkpt>
      <trkpt lat="47.61986" lon="8.19539">
        <ele>312.357741</ele>
        <time>2022-09-14T10:12:21.025Z</time>
      </trkpt>
      <trkpt lat="47.6195" lon="8.19363">
        <ele>311.871426</ele>
        <time>2022-09-14T10:12:53.583Z</time>
      </trkpt>
      <trkpt lat="47.61945" lon="8.1934">
        <ele>311.801666</ele>
        <time>2022-09-14T10:12:57.691Z</time>
      </trkpt>
      <trkpt lat="47.61918" lon="8.19251">
        <ele>311.516919</ele>
        <time>2022-09-14T10:13:14.511Z</time>
      </trkpt>
      <trkpt lat="47.61897" lon="8.19204">
        <ele>311.355067</ele>
        <time>2022-09-14T10:13:24.200Z</time>
      </trkpt>
      <trkpt lat="47.61888" lon="8.19206">
        <ele>311.316801</ele>
        <time>2022-09-14T10:13:26.297Z</time>
      </trkpt>
      <trkpt lat="47.61881" lon="8.19199">
        <ele>311.280194</ele>
        <time>2022-09-14T10:13:28.441Z</time>
      </trkpt>
      <trkpt lat="47.61861" lon="8.19169">
        <ele>311.157877</ele>
        <time>2022-09-14T10:13:35.527Z</time>
      </trkpt>
      <trkpt lat="47.61785" lon="8.19094">
        <ele>310.776278</ele>
        <time>2022-09-14T10:13:58.487Z</time>
      </trkpt>
      <trkpt lat="47.6177" lon="8.1909">
        <ele>310.769579</ele>
        <time>2022-09-14T10:14:02.408Z</time>
      </trkpt>
      <trkpt lat="47.61758" lon="8.19102">
        <ele>310.763386</ele>
        <time>2022-09-14T10:14:06.390Z</time>
      </trkpt>
      <trkpt lat="47.61729" lon="8.19144">
        <ele>310.746024</ele>
        <time>2022-09-14T10:14:17.317Z</time>
      </trkpt>
      <trkpt lat="47.61721" lon="8.19149">
        <ele>310.74208</ele>
        <time>2022-09-14T10:14:19.675Z</time>
      </trkpt>
      <trkpt lat="47.61702" lon="8.19136">
        <ele>310.733214</ele>
        <time>2022-09-14T10:14:25.326Z</time>
      </trkpt>
      <trkpt lat="47.61627" lon="8.19033">
        <ele>310.696909</ele>
        <time>2022-09-14T10:14:52.841Z</time>
      </trkpt>
      <trkpt lat="47.61575" lon="8.1895">
        <ele>310.687617</ele>
        <time>2022-09-14T10:15:12.935Z</time>
      </trkpt>
      <trkpt lat="47.61561" lon="8.18924">
        <ele>310.68483</ele>
        <time>2022-09-14T10:15:18.896Z</time>
      </trkpt>
      <trkpt lat="47.61546" lon="8.18894">
        <ele>310.681773</ele>
        <time>2022-09-14T10:15:25.474Z</time>
      </trkpt>
      <trkpt lat="47.6152" lon="8.18836">
        <ele>310.614539</ele>
        <time>2022-09-14T10:15:37.981Z</time>
      </trkpt>
      <trkpt lat="47.61466" lon="8.18769">
        <ele>310.324795</ele>
        <time>2022-09-14T10:15:56.261Z</time>
      </trkpt>
      <trkpt lat="47.61454" lon="8.18742">
        <ele>310.233556</ele>
        <time>2022-09-14T10:16:01.787Z</time>
      </trkpt>
      <trkpt lat="47.61441" lon="8.18702">
        <ele>310.111341</ele>
        <time>2022-09-14T10:16:08.932Z</time>
      </trkpt>
      <trkpt lat="47.61436" lon="8.18689">
        <ele>310.069446</ele>
        <time>2022-09-14T10:16:11.330Z</time>
      </trkpt>
      <trkpt lat="47.61424" lon="8.18662">
        <ele>309.979819</ele>
        <time>2022-09-14T10:16:16.587Z</time>
      </trkpt>
      <trkpt lat="47.61396" lon="8.18613">
        <ele>309.67009</ele>
        <time>2022-09-14T10:16:26.787Z</time>
      </trkpt>
      <trkpt lat="47.61355" lon="8.18509">
        <ele>309.015286</ele>
        <time>2022-09-14T10:16:45.871Z</time>
      </trkpt>
      <trkpt lat="47.61322" lon="8.18491">
        <ele>308.728649</ele>
        <time>2022-09-14T10:16:54.041Z</time>
      </trkpt>
      <trkpt lat="47.61317" lon="8.18474">
        <ele>308.625307</ele>
        <time>2022-09-14T10:16:56.975Z</time>
      </trkpt>
      <trkpt lat="47.61217" lon="8.1833">
        <ele>308.112339</ele>
        <time>2022-09-14T10:17:31.437Z</time>
      </trkpt>
      <trkpt lat="47.61181" lon="8.18267">
        <ele>307.942833</ele>
        <time>2022-09-14T10:17:46.336Z</time>
      </trkpt>
      <trkpt lat="47.61089" lon="8.18159">
        <ele>308.490565</ele>
        <time>2022-09-14T10:18:20.483Z</time>
      </trkpt>
      <trkpt lat="47.61022" lon="8.18071">
        <ele>308.876298</ele>
        <time>2022-09-14T10:18:47.091Z</time>
      </trkpt>
      <trkpt lat="47.60981" lon="8.18032">
        <ele>309.019332</ele>
        <time>2022-09-14T10:19:01.259Z</time>
      </trkpt>
      <trkpt lat="47.60844" lon="8.17911">
        <ele>309.299846</ele>
        <time>2022-09-14T10:19:44.565Z</time>
      </trkpt>
      <trkpt lat="47.60824" lon="8.17891">
        <ele>309.287183</ele>
        <time>2022-09-14T10:19:50.900Z</time>
      </trkpt>
      <trkpt lat="47.60774" lon="8.17839">
        <ele>309.255182</ele>
        <time>2022-09-14T10:20:06.723Z</time>
      </trkpt>
      <trkpt lat="47.60731" lon="8.17793">
        <ele>309.202625</ele>
        <time>2022-09-14T10:20:20.705Z</time>
      </trkpt>
      <trkpt lat="47.60711" lon="8.17772">
        <ele>309.138682</ele>
        <time>2022-09-14T10:20:27.114Z</time>
      </trkpt>
      <trkpt lat="47.60617" lon="8.17645">
        <ele>308.806138</ele>
        <time>2022-09-14T10:20:59.662Z</time>
      </trkpt>
      <trkpt lat="47.60585" lon="8.17589">
        <ele>308.708522</ele>
        <time>2022-09-14T10:21:11.923Z</time>
      </trkpt>
      <trkpt lat="47.60567" lon="8.17597">
        <ele>308.676879</ele>
        <time>2022-09-14T10:21:16.593Z</time>
      </trkpt>
      <trkpt lat="47.60527" lon="8.17578">
        <ele>308.608128</ele>
        <time>2022-09-14T10:21:27.022Z</time>
      </trkpt>
      <trkpt lat="47.60478" lon="8.1752">
        <ele>308.503391</ele>
        <time>2022-09-14T10:21:43.617Z</time>
      </trkpt>
      <trkpt lat="47.60395" lon="8.17441">
        <ele>308.771897</ele>
        <time>2022-09-14T10:22:11.704Z</time>
      </trkpt>
      <trkpt lat="47.60297" lon="8.17325">
        <ele>309.146435</ele>
        <time>2022-09-14T10:22:48.491Z</time>
      </trkpt>
      <trkpt lat="47.60259" lon="8.17292">
        <ele>309.02853</ele>
        <time>2022-09-14T10:23:00.392Z</time>
      </trkpt>
      <trkpt lat="47.60243" lon="8.17286">
        <ele>308.98476</ele>
        <time>2022-09-14T10:23:04.286Z</time>
      </trkpt>
      <trkpt lat="47.60221" lon="8.1726">
        <ele>308.912487</ele>
        <time>2022-09-14T10:23:11.289Z</time>
      </trkpt>
      <trkpt lat="47.60131" lon="8.17147">
        <ele>308.566429</ele>
        <time>2022-09-14T10:23:39.855Z</time>
      </trkpt>
      <trkpt lat="47.60065" lon="8.17051">
        <ele>308.260775</ele>
        <time>2022-09-14T10:24:02.416Z</time>
      </trkpt>
      <trkpt lat="47.60026" lon="8.16976">
        <ele>308.173524</ele>
        <time>2022-09-14T10:24:20.283Z</time>
      </trkpt>
      <trkpt lat="47.59989" lon="8.16878">
        <ele>308.325084</ele>
        <time>2022-09-14T10:24:42.948Z</time>
      </trkpt>
      <trkpt lat="47.59961" lon="8.16767">
        <ele>308.483665</ele>
        <time>2022-09-14T10:25:04.766Z</time>
      </trkpt>
      <trkpt lat="47.59966" lon="8.16748">
        <ele>308.375705</ele>
        <time>2022-09-14T10:25:08.286Z</time>
      </trkpt>
      <trkpt lat="47.59993" lon="8.1672">
        <ele>308.115001</ele>
        <time>2022-09-14T10:25:16.218Z</time>
      </trkpt>
      <trkpt lat="47.59998" lon="8.16713">
        <ele>308.062428</ele>
        <time>2022-09-14T10:25:17.753Z</time>
      </trkpt>
      <trkpt lat="47.59996" lon="8.16707">
        <ele>308.027988</ele>
        <time>2022-09-14T10:25:18.799Z</time>
      </trkpt>
      <trkpt lat="47.59941" lon="8.16744">
        <ele>307.55043</ele>
        <time>2022-09-14T10:25:33.330Z</time>
      </trkpt>
      <trkpt lat="47.5986" lon="8.16769">
        <ele>306.908629</ele>
        <time>2022-09-14T10:25:52.219Z</time>
      </trkpt>
      <trkpt lat="47.59839" lon="8.16779">
        <ele>306.735975</ele>
        <time>2022-09-14T10:25:57.290Z</time>
      </trkpt>
      <trkpt lat="47.59824" lon="8.16796">
        <ele>306.591779</ele>
        <time>2022-09-14T10:26:01.495Z</time>
      </trkpt>
      <trkpt lat="47.59801" lon="8.16825">
        <ele>306.353539</ele>
        <time>2022-09-14T10:26:08.544Z</time>
      </trkpt>
      <trkpt lat="47.59788" lon="8.16835">
        <ele>306.241594</ele>
        <time>2022-09-14T10:26:11.983Z</time>
      </trkpt>
      <trkpt lat="47.59779" lon="8.16834">
        <ele>306.173073</ele>
        <time>2022-09-14T10:26:14.063Z</time>
      </trkpt>
      <trkpt lat="47.59751" lon="8.16813">
        <ele>305.92678</ele>
        <time>2022-09-14T10:26:22.775Z</time>
      </trkpt>
      <trkpt lat="47.59728" lon="8.16784">
        <ele>305.696328</ele>
        <time>2022-09-14T10:26:31.346Z</time>
      </trkpt>
      <trkpt lat="47.59534" lon="8.16514">
        <ele>305.524915</ele>
        <time>2022-09-14T10:27:49.346Z</time>
      </trkpt>
      <trkpt lat="47.59476" lon="8.16369">
        <ele>305.644149</ele>
        <time>2022-09-14T10:28:24.173Z</time>
      </trkpt>
      <trkpt lat="47.59458" lon="8.16295">
        <ele>305.785076</ele>
        <time>2022-09-14T10:28:40.324Z</time>
      </trkpt>
      <trkpt lat="47.59444" lon="8.16197">
        <ele>305.967252</ele>
        <time>2022-09-14T10:29:01.157Z</time>
      </trkpt>
      <trkpt lat="47.59443" lon="8.16097">
        <ele>306.177156</ele>
        <time>2022-09-14T10:29:22.359Z</time>
      </trkpt>
      <trkpt lat="47.59447" lon="8.16027">
        <ele>306.354123</ele>
        <time>2022-09-14T10:29:37.209Z</time>
      </trkpt>
      <trkpt lat="47.59457" lon="8.1596">
        <ele>306.527283</ele>
        <time>2022-09-14T10:29:51.747Z</time>
      </trkpt>
      <trkpt lat="47.5948" lon="8.15868">
        <ele>306.773138</ele>
        <time>2022-09-14T10:30:12.681Z</time>
      </trkpt>
      <trkpt lat="47.59582" lon="8.15561">
        <ele>307.360114</ele>
        <time>2022-09-14T10:31:25.219Z</time>
      </trkpt>
      <trkpt lat="47.59592" lon="8.15541">
        <ele>307.351498</ele>
        <time>2022-09-14T10:31:30.219Z</time>
      </trkpt>
      <trkpt lat="47.59642" lon="8.15509">
        <ele>307.323999</ele>
        <time>2022-09-14T10:31:46.037Z</time>
      </trkpt>
      <trkpt lat="47.59665" lon="8.15418">
        <ele>307.193273</ele>
        <time>2022-09-14T10:32:04.349Z</time>
      </trkpt>
      <trkpt lat="47.59668" lon="8.15381">
        <ele>307.014264</ele>
        <time>2022-09-14T10:32:11.269Z</time>
      </trkpt>
      <trkpt lat="47.5967" lon="8.14955">
        <ele>305.131214</ele>
        <time>2022-09-14T10:33:27.689Z</time>
      </trkpt>
      <trkpt lat="47.5965" lon="8.14796">
        <ele>305.033924</ele>
        <time>2022-09-14T10:33:59.486Z</time>
      </trkpt>
      <trkpt lat="47.59629" lon="8.14705">
        <ele>305.118897</ele>
        <time>2022-09-14T10:34:19.621Z</time>
      </trkpt>
      <trkpt lat="47.59612" lon="8.14658">
        <ele>305.166421</ele>
        <time>2022-09-14T10:34:31.207Z</time>
      </trkpt>
      <trkpt lat="47.59559" lon="8.1458">
        <ele>305.65598</ele>
        <time>2022-09-14T10:34:55.533Z</time>
      </trkpt>
      <trkpt lat="47.59382" lon="8.14163">
        <ele>307.813907</ele>
        <time>2022-09-14T10:36:45.730Z</time>
      </trkpt>
      <trkpt lat="47.59331" lon="8.14058">
        <ele>308.136831</ele>
        <time>2022-09-14T10:37:12.671Z</time>
      </trkpt>
      <trkpt lat="47.59279" lon="8.13963">
        <ele>308.375235</ele>
        <time>2022-09-14T10:37:37.891Z</time>
      </trkpt>
      <trkpt lat="47.59179" lon="8.13813">
        <ele>308.626402</ele>
        <time>2022-09-14T10:38:21.372Z</time>
      </trkpt>
      <trkpt lat="47.59166" lon="8.1378">
        <ele>308.58446</ele>
        <time>2022-09-14T10:38:29.166Z</time>
      </trkpt>
      <trkpt lat="47.59158" lon="8.13699">
        <ele>308.471144</ele>
        <time>2022-09-14T10:38:44.915Z</time>
      </trkpt>
      <trkpt lat="47.59122" lon="8.13661">
        <ele>308.378569</ele>
        <time>2022-09-14T10:38:57.388Z</time>
      </trkpt>
      <trkpt lat="47.59089" lon="8.1364">
        <ele>308.304263</ele>
        <time>2022-09-14T10:39:07.253Z</time>
      </trkpt>
      <trkpt lat="47.59031" lon="8.13619">
        <ele>308.526649</ele>
        <time>2022-09-14T10:39:24.581Z</time>
      </trkpt>
      <trkpt lat="47.58929" lon="8.13602">
        <ele>309.24308</ele>
        <time>2022-09-14T10:39:57.259Z</time>
      </trkpt>
      <trkpt lat="47.58913" lon="8.13586">
        <ele>309.377479</ele>
        <time>2022-09-14T10:40:05.963Z</time>
      </trkpt>
      <trkpt lat="47.5897" lon="8.13588">
        <ele>310.108251</ele>
        <time>2022-09-14T10:40:25.856Z</time>
      </trkpt>
      <trkpt lat="47.58974" lon="8.13579">
        <ele>310.219562</ele>
        <time>2022-09-14T10:40:28.562Z</time>
      </trkpt>
      <trkpt lat="47.58986" lon="8.13467">
        <ele>311.4184</ele>
        <time>2022-09-14T10:40:55.248Z</time>
      </trkpt>
      <trkpt lat="47.58988" lon="8.13461">
        <ele>311.493824</ele>
        <time>2022-09-14T10:40:57.120Z</time>
      </trkpt>
      <trkpt lat="47.59068" lon="8.13471">
        <ele>312.619502</ele>
        <time>2022-09-14T10:41:23.192Z</time>
      </trkpt>
      <trkpt lat="47.59073" lon="8.13478">
        <ele>312.68758</ele>
        <time>2022-09-14T10:41:25.049Z</time>
      </trkpt>
      <trkpt lat="47.59131" lon="8.13495">
        <ele>313.333721</ele>
        <time>2022-09-14T10:41:44.632Z</time>
      </trkpt>
      <trkpt lat="47.59137" lon="8.13493">
        <ele>313.403508</ele>
        <time>2022-09-14T10:41:46.246Z</time>
      </trkpt>
      <trkpt lat="47.59141" lon="8.13481">
        <ele>313.499246</ele>
        <time>2022-09-14T10:41:48.452Z</time>
      </trkpt>
      <trkpt lat="47.59147" lon="8.1345">
        <ele>313.738157</ele>
        <time>2022-09-14T10:41:55.199Z</time>
      </trkpt>
      <trkpt lat="47.59157" lon="8.13405">
        <ele>314.086482</ele>
        <time>2022-09-14T10:42:05.183Z</time>
      </trkpt>
      <trkpt lat="47.59203" lon="8.13351">
        <ele>314.910143</ele>
        <time>2022-09-14T10:42:24.403Z</time>
      </trkpt>
      <trkpt lat="47.59206" lon="8.1334">
        <ele>315.0385</ele>
        <time>2022-09-14T10:42:27.974Z</time>
      </trkpt>
      <trkpt lat="47.59201" lon="8.13334">
        <ele>315.142385</ele>
        <time>2022-09-14T10:42:30.032Z</time>
      </trkpt>
      <trkpt lat="47.59196" lon="8.13328">
        <ele>315.244408</ele>
        <time>2022-09-14T10:42:32.073Z</time>
      </trkpt>
      <trkpt lat="47.59207" lon="8.13302">
        <ele>315.571672</ele>
        <time>2022-09-14T10:42:40.061Z</time>
      </trkpt>
      <trkpt lat="47.59209" lon="8.13276">
        <ele>315.841823</ele>
        <time>2022-09-14T10:42:45.712Z</time>
      </trkpt>
      <trkpt lat="47.5914" lon="8.13159">
        <ele>317.257463</ele>
        <time>2022-09-14T10:43:22.975Z</time>
      </trkpt>
      <trkpt lat="47.59125" lon="8.13123">
        <ele>317.466234</ele>
        <time>2022-09-14T10:43:31.479Z</time>
      </trkpt>
      <trkpt lat="47.59135" lon="8.13098">
        <ele>317.609483</ele>
        <time>2022-09-14T10:43:36.347Z</time>
      </trkpt>
      <trkpt lat="47.59168" lon="8.13071">
        <ele>317.884378</ele>
        <time>2022-09-14T10:43:49.923Z</time>
      </trkpt>
      <trkpt lat="47.59171" lon="8.13047">
        <ele>318.005761</ele>
        <time>2022-09-14T10:43:56.446Z</time>
      </trkpt>
      <trkpt lat="47.59154" lon="8.12998">
        <ele>318.277289</ele>
        <time>2022-09-14T10:44:10.475Z</time>
      </trkpt>
      <trkpt lat="47.59146" lon="8.12992">
        <ele>318.340466</ele>
        <time>2022-09-14T10:44:13.485Z</time>
      </trkpt>
      <trkpt lat="47.59137" lon="8.12963">
        <ele>318.638478</ele>
        <time>2022-09-14T10:44:20.635Z</time>
      </trkpt>
      <trkpt lat="47.59121" lon="8.12928">
        <ele>319.079858</ele>
        <time>2022-09-14T10:44:30.036Z</time>
      </trkpt>
      <trkpt lat="47.59065" lon="8.12792">
        <ele>320.754297</ele>
        <time>2022-09-14T10:45:07.357Z</time>
      </trkpt>
      <trkpt lat="47.59063" lon="8.12786">
        <ele>320.826756</ele>
        <time>2022-09-14T10:45:09.232Z</time>
      </trkpt>
      <trkpt lat="47.59041" lon="8.1274">
        <ele>321.554306</ele>
        <time>2022-09-14T10:45:24.703Z</time>
      </trkpt>
      <trkpt lat="47.58967" lon="8.12637">
        <ele>324.003357</ele>
        <time>2022-09-14T10:46:07.022Z</time>
      </trkpt>
      <trkpt lat="47.58959" lon="8.12626">
        <ele>324.271915</ele>
        <time>2022-09-14T10:46:11.406Z</time>
      </trkpt>
      <trkpt lat="47.58909" lon="8.12546">
        <ele>325.722015</ele>
        <time>2022-09-14T10:46:39.012Z</time>
      </trkpt>
      <trkpt lat="47.58908" lon="8.12532">
        <ele>325.800987</ele>
        <time>2022-09-14T10:46:42.535Z</time>
      </trkpt>
      <trkpt lat="47.58892" lon="8.12516">
        <ele>325.956794</ele>
        <time>2022-09-14T10:46:48.581Z</time>
      </trkpt>
      <trkpt lat="47.58867" lon="8.12466">
        <ele>326.305236</ele>
        <time>2022-09-14T10:47:01.845Z</time>
      </trkpt>
      <trkpt lat="47.58847" lon="8.12411">
        <ele>326.658346</ele>
        <time>2022-09-14T10:47:14.651Z</time>
      </trkpt>
      <trkpt lat="47.58831" lon="8.12364">
        <ele>326.952216</ele>
        <time>2022-09-14T10:47:24.878Z</time>
      </trkpt>
      <trkpt lat="47.58808" lon="8.12298">
        <ele>327.01693</ele>
        <time>2022-09-14T10:47:38.813Z</time>
      </trkpt>
      <trkpt lat="47.58793" lon="8.12256">
        <ele>327.001781</ele>
        <time>2022-09-14T10:47:47.590Z</time>
      </trkpt>
      <trkpt lat="47.58782" lon="8.12227">
        <ele>326.991295</ele>
        <time>2022-09-14T10:47:53.636Z</time>
      </trkpt>
      <trkpt lat="47.58772" lon="8.12198">
        <ele>326.981165</ele>
        <time>2022-09-14T10:47:59.347Z</time>
      </trkpt>
      <trkpt lat="47.58761" lon="8.12166">
        <ele>326.969766</ele>
        <time>2022-09-14T10:48:05.993Z</time>
      </trkpt>
      <trkpt lat="47.58755" lon="8.12145">
        <ele>326.962638</ele>
        <time>2022-09-14T10:48:10.145Z</time>
      </trkpt>
      <trkpt lat="47.58746" lon="8.12116">
        <ele>326.952189</ele>
        <time>2022-09-14T10:48:16.319Z</time>
      </trkpt>
      <trkpt lat="47.58737" lon="8.12089">
        <ele>326.987993</ele>
        <time>2022-09-14T10:48:21.997Z</time>
      </trkpt>
      <trkpt lat="47.58728" lon="8.12059">
        <ele>327.032143</ele>
        <time>2022-09-14T10:48:28.222Z</time>
      </trkpt>
      <trkpt lat="47.58727" lon="8.12057">
        <ele>327.035708</ele>
        <time>2022-09-14T10:48:28.717Z</time>
      </trkpt>
      <trkpt lat="47.58713" lon="8.12008">
        <ele>327.107348</ele>
        <time>2022-09-14T10:48:38.988Z</time>
      </trkpt>
      <trkpt lat="47.58701" lon="8.11957">
        <ele>327.180869</ele>
        <time>2022-09-14T10:48:49.645Z</time>
      </trkpt>
      <trkpt lat="47.58681" lon="8.11862">
        <ele>327.31393</ele>
        <time>2022-09-14T10:49:09.134Z</time>
      </trkpt>
      <trkpt lat="47.58679" lon="8.11847">
        <ele>327.307456</ele>
        <time>2022-09-14T10:49:12.059Z</time>
      </trkpt>
      <trkpt lat="47.5867" lon="8.11768">
        <ele>327.273785</ele>
        <time>2022-09-14T10:49:27.927Z</time>
      </trkpt>
      <trkpt lat="47.58666" lon="8.11619">
        <ele>327.210252</ele>
        <time>2022-09-14T10:49:55.767Z</time>
      </trkpt>
      <trkpt lat="47.58662" lon="8.11588">
        <ele>327.06834</ele>
        <time>2022-09-14T10:50:01.183Z</time>
      </trkpt>
      <trkpt lat="47.5865" lon="8.11547">
        <ele>326.55171</ele>
        <time>2022-09-14T10:50:08.703Z</time>
      </trkpt>
      <trkpt lat="47.58631" lon="8.11503">
        <ele>325.952075</ele>
        <time>2022-09-14T10:50:17.064Z</time>
      </trkpt>
      <trkpt lat="47.58612" lon="8.11462">
        <ele>325.382419</ele>
        <time>2022-09-14T10:50:24.674Z</time>
      </trkpt>
      <trkpt lat="47.58604" lon="8.11442">
        <ele>325.113724</ele>
        <time>2022-09-14T10:50:28.184Z</time>
      </trkpt>
      <trkpt lat="47.58598" lon="8.11428">
        <ele>324.917739</ele>
        <time>2022-09-14T10:50:30.720Z</time>
      </trkpt>
      <trkpt lat="47.58586" lon="8.11401">
        <ele>324.552454</ele>
        <time>2022-09-14T10:50:35.347Z</time>
      </trkpt>
      <trkpt lat="47.58581" lon="8.11388">
        <ele>324.37849</ele>
        <time>2022-09-14T10:50:37.497Z</time>
      </trkpt>
      <trkpt lat="47.58569" lon="8.11362">
        <ele>323.866653</ele>
        <time>2022-09-14T10:50:41.908Z</time>
      </trkpt>
      <trkpt lat="47.58556" lon="8.11332">
        <ele>322.88157</ele>
        <time>2022-09-14T10:50:46.771Z</time>
      </trkpt>
      <trkpt lat="47.58549" lon="8.11316">
        <ele>322.352858</ele>
        <time>2022-09-14T10:50:49.374Z</time>
      </trkpt>
      <trkpt lat="47.58535" lon="8.11287">
        <ele>321.397157</ele>
        <time>2022-09-14T10:50:53.997Z</time>
      </trkpt>
      <trkpt lat="47.58522" lon="8.11257">
        <ele>320.432346</ele>
        <time>2022-09-14T10:50:58.469Z</time>
      </trkpt>
      <trkpt lat="47.58516" lon="8.11243">
        <ele>319.969183</ele>
        <time>2022-09-14T10:51:00.589Z</time>
      </trkpt>
      <trkpt lat="47.58503" lon="8.11213">
        <ele>319.006373</ele>
        <time>2022-09-14T10:51:05.008Z</time>
      </trkpt>
      <trkpt lat="47.58488" lon="8.1118">
        <ele>317.912853</ele>
        <time>2022-09-14T10:51:10.001Z</time>
      </trkpt>
      <trkpt lat="47.58481" lon="8.11165">
        <ele>317.411121</ele>
        <time>2022-09-14T10:51:12.301Z</time>
      </trkpt>
      <trkpt lat="47.58472" lon="8.1115">
        <ele>316.857809</ele>
        <time>2022-09-14T10:51:14.797Z</time>
      </trkpt>
      <trkpt lat="47.58405" lon="8.11069">
        <ele>313.304732</ele>
        <time>2022-09-14T10:51:30.581Z</time>
      </trkpt>
      <trkpt lat="47.58372" lon="8.11021">
        <ele>311.389278</ele>
        <time>2022-09-14T10:51:39.111Z</time>
      </trkpt>
      <trkpt lat="47.5835" lon="8.10966">
        <ele>309.610552</ele>
        <time>2022-09-14T10:51:47.374Z</time>
      </trkpt>
      <trkpt lat="47.58345" lon="8.10951">
        <ele>309.321774</ele>
        <time>2022-09-14T10:51:49.615Z</time>
      </trkpt>
      <trkpt lat="47.58341" lon="8.10941">
        <ele>309.197525</ele>
        <time>2022-09-14T10:51:51.312Z</time>
      </trkpt>
      <trkpt lat="47.58335" lon="8.10931">
        <ele>309.069937</ele>
        <time>2022-09-14T10:51:53.081Z</time>
      </trkpt>
      <trkpt lat="47.58331" lon="8.10925">
        <ele>308.991932</ele>
        <time>2022-09-14T10:51:54.167Z</time>
      </trkpt>
      <trkpt lat="47.58316" lon="8.1091">
        <ele>308.72239</ele>
        <time>2022-09-14T10:51:57.996Z</time>
      </trkpt>
      <trkpt lat="47.58305" lon="8.10896">
        <ele>308.521789</ele>
        <time>2022-09-14T10:52:00.901Z</time>
      </trkpt>
      <trkpt lat="47.58301" lon="8.10892">
        <ele>308.440005</ele>
        <time>2022-09-14T10:52:02.087Z</time>
      </trkpt>
      <trkpt lat="47.58286" lon="8.10871">
        <ele>308.145784</ele>
        <time>2022-09-14T10:52:06.495Z</time>
      </trkpt>
      <trkpt lat="47.5828" lon="8.10872">
        <ele>308.056999</ele>
        <time>2022-09-14T10:52:07.818Z</time>
      </trkpt>
      <trkpt lat="47.58262" lon="8.10844">
        <ele>307.665681</ele>
        <time>2022-09-14T10:52:13.915Z</time>
      </trkpt>
      <trkpt lat="47.58145" lon="8.10673">
        <ele>306.669455</ele>
        <time>2022-09-14T10:52:56.981Z</time>
      </trkpt>
      <trkpt lat="47.58079" lon="8.10572">
        <ele>306.529668</ele>
        <time>2022-09-14T10:53:22.005Z</time>
      </trkpt>
      <trkpt lat="47.57973" lon="8.10451">
        <ele>306.155519</ele>
        <time>2022-09-14T10:53:55.455Z</time>
      </trkpt>
      <trkpt lat="47.57871" lon="8.10346">
        <ele>306.147717</ele>
        <time>2022-09-14T10:54:27.662Z</time>
      </trkpt>
      <trkpt lat="47.57768" lon="8.10249">
        <ele>306.47253</ele>
        <time>2022-09-14T10:55:02.156Z</time>
      </trkpt>
      <trkpt lat="47.57622" lon="8.10077">
        <ele>307.786882</ele>
        <time>2022-09-14T10:55:59.291Z</time>
      </trkpt>
      <trkpt lat="47.57601" lon="8.10055">
        <ele>307.982605</ele>
        <time>2022-09-14T10:56:07.091Z</time>
      </trkpt>
      <trkpt lat="47.57537" lon="8.10022">
        <ele>308.512896</ele>
        <time>2022-09-14T10:56:27.858Z</time>
      </trkpt>
      <trkpt lat="47.5751" lon="8.10014">
        <ele>308.727764</ele>
        <time>2022-09-14T10:56:36.250Z</time>
      </trkpt>
      <trkpt lat="47.57494" lon="8.1001">
        <ele>308.857066</ele>
        <time>2022-09-14T10:56:41.269Z</time>
      </trkpt>
      <trkpt lat="47.57416" lon="8.09982">
        <ele>309.49823</ele>
        <time>2022-09-14T10:57:04.868Z</time>
      </trkpt>
      <trkpt lat="47.57363" lon="8.09954">
        <ele>309.952875</ele>
        <time>2022-09-14T10:57:21.809Z</time>
      </trkpt>
      <trkpt lat="47.57264" lon="8.09894">
        <ele>310.906953</ele>
        <time>2022-09-14T10:57:56.022Z</time>
      </trkpt>
      <trkpt lat="47.57228" lon="8.09863">
        <ele>311.299289</ele>
        <time>2022-09-14T10:58:09.262Z</time>
      </trkpt>
      <trkpt lat="47.57204" lon="8.09816">
        <ele>311.678765</ele>
        <time>2022-09-14T10:58:21.849Z</time>
      </trkpt>
      <trkpt lat="47.57176" lon="8.09746">
        <ele>312.045049</ele>
        <time>2022-09-14T10:58:38.601Z</time>
      </trkpt>
      <trkpt lat="47.57155" lon="8.09629">
        <ele>312.293642</ele>
        <time>2022-09-14T10:59:02.082Z</time>
      </trkpt>
      <trkpt lat="47.57148" lon="8.09583">
        <ele>312.391648</ele>
        <time>2022-09-14T10:59:10.649Z</time>
      </trkpt>
      <trkpt lat="47.57125" lon="8.09455">
        <ele>312.839344</ele>
        <time>2022-09-14T10:59:33.737Z</time>
      </trkpt>
      <trkpt lat="47.57109" lon="8.09389">
        <ele>313.164889</ele>
        <time>2022-09-14T10:59:47.267Z</time>
      </trkpt>
      <trkpt lat="47.57065" lon="8.09278">
        <ele>313.771547</ele>
        <time>2022-09-14T11:00:14.976Z</time>
      </trkpt>
      <trkpt lat="47.57016" lon="8.09157">
        <ele>315.517006</ele>
        <time>2022-09-14T11:00:49.359Z</time>
      </trkpt>
      <trkpt lat="47.56953" lon="8.09004">
        <ele>317.440279</ele>
        <time>2022-09-14T11:01:33.649Z</time>
      </trkpt>
      <trkpt lat="47.56912" lon="8.08906">
        <ele>318.226169</ele>
        <time>2022-09-14T11:01:58.277Z</time>
      </trkpt>
      <trkpt lat="47.56861" lon="8.08791">
        <ele>318.708868</ele>
        <time>2022-09-14T11:02:24.555Z</time>
      </trkpt>
      <trkpt lat="47.5681" lon="8.08663">
        <ele>318.063659</ele>
        <time>2022-09-14T11:02:48.844Z</time>
      </trkpt>
      <trkpt lat="47.56781" lon="8.08591">
        <ele>317.667082</ele>
        <time>2022-09-14T11:03:01.692Z</time>
      </trkpt>
      <trkpt lat="47.56684" lon="8.08348">
        <ele>315.165802</ele>
        <time>2022-09-14T11:03:43.495Z</time>
      </trkpt>
      <trkpt lat="47.56642" lon="8.08228">
        <ele>314.950907</ele>
        <time>2022-09-14T11:04:05.836Z</time>
      </trkpt>
      <trkpt lat="47.56601" lon="8.08061">
        <ele>315.203435</ele>
        <time>2022-09-14T11:04:41.326Z</time>
      </trkpt>
      <trkpt lat="47.56584" lon="8.07961">
        <ele>315.834635</ele>
        <time>2022-09-14T11:05:04.543Z</time>
      </trkpt>
      <trkpt lat="47.5656" lon="8.07675">
        <ele>316.102975</ele>
        <time>2022-09-14T11:06:02.451Z</time>
      </trkpt>
      <trkpt lat="47.56553" lon="8.07659">
        <ele>316.072593</ele>
        <time>2022-09-14T11:06:05.485Z</time>
      </trkpt>
      <trkpt lat="47.56554" lon="8.07654">
        <ele>316.064603</ele>
        <time>2022-09-14T11:06:06.472Z</time>
      </trkpt>
      <trkpt lat="47.56552" lon="8.07639">
        <ele>316.040088</ele>
        <time>2022-09-14T11:06:09.467Z</time>
      </trkpt>
      <trkpt lat="47.56532" lon="8.07643">
        <ele>315.992029</ele>
        <time>2022-09-14T11:06:13.816Z</time>
      </trkpt>
      <trkpt lat="47.56511" lon="8.07648">
        <ele>315.365461</ele>
        <time>2022-09-14T11:06:17.948Z</time>
      </trkpt>
      <trkpt lat="47.5648" lon="8.07651">
        <ele>314.407857</ele>
        <time>2022-09-14T11:06:24.007Z</time>
      </trkpt>
      <trkpt lat="47.5647" lon="8.0765">
        <ele>314.065171</ele>
        <time>2022-09-14T11:06:26.127Z</time>
      </trkpt>
      <trkpt lat="47.56466" lon="8.07644">
        <ele>313.9135</ele>
        <time>2022-09-14T11:06:27.141Z</time>
      </trkpt>
      <trkpt lat="47.56454" lon="8.07643">
        <ele>313.524031</ele>
        <time>2022-09-14T11:06:29.584Z</time>
      </trkpt>
      <trkpt lat="47.56448" lon="8.07651">
        <ele>313.283891</ele>
        <time>2022-09-14T11:06:31.047Z</time>
      </trkpt>
      <trkpt lat="47.56437" lon="8.0766">
        <ele>312.888207</ele>
        <time>2022-09-14T11:06:33.497Z</time>
      </trkpt>
      <trkpt lat="47.56423" lon="8.07669">
        <ele>312.416763</ele>
        <time>2022-09-14T11:06:36.430Z</time>
      </trkpt>
      <trkpt lat="47.56369" lon="8.07681">
        <ele>310.695176</ele>
        <time>2022-09-14T11:06:46.758Z</time>
      </trkpt>
      <trkpt lat="47.56341" lon="8.07679">
        <ele>310.054877</ele>
        <time>2022-09-14T11:06:52.166Z</time>
      </trkpt>
      <trkpt lat="47.56323" lon="8.07673">
        <ele>309.743143</ele>
        <time>2022-09-14T11:06:55.731Z</time>
      </trkpt>
      <trkpt lat="47.56295" lon="8.07645">
        <ele>309.167956</ele>
        <time>2022-09-14T11:07:02.405Z</time>
      </trkpt>
      <trkpt lat="47.56277" lon="8.07616">
        <ele>308.703983</ele>
        <time>2022-09-14T11:07:08.301Z</time>
      </trkpt>
      <trkpt lat="47.56256" lon="8.07594">
        <ele>308.263486</ele>
        <time>2022-09-14T11:07:14.007Z</time>
      </trkpt>
      <trkpt lat="47.56251" lon="8.07586">
        <ele>308.142036</ele>
        <time>2022-09-14T11:07:15.614Z</time>
      </trkpt>
      <trkpt lat="47.56245" lon="8.07577">
        <ele>307.994761</ele>
        <time>2022-09-14T11:07:17.617Z</time>
      </trkpt>
      <trkpt lat="47.56173" lon="8.07463">
        <ele>308.76388</ele>
        <time>2022-09-14T11:07:48.201Z</time>
      </trkpt>
      <trkpt lat="47.56105" lon="8.07356">
        <ele>311.119679</ele>
        <time>2022-09-14T11:08:30.696Z</time>
      </trkpt>
      <trkpt lat="47.5608" lon="8.0732">
        <ele>312.260183</ele>
        <time>2022-09-14T11:08:45.249Z</time>
      </trkpt>
      <trkpt lat="47.56084" lon="8.07314">
        <ele>312.486462</ele>
        <time>2022-09-14T11:08:48.989Z</time>
      </trkpt>
      <trkpt lat="47.56065" lon="8.07279">
        <ele>313.740879</ele>
        <time>2022-09-14T11:09:05.484Z</time>
      </trkpt>
      <trkpt lat="47.56063" lon="8.07246">
        <ele>314.686646</ele>
        <time>2022-09-14T11:09:18.342Z</time>
      </trkpt>
      <trkpt lat="47.56096" lon="8.07112">
        <ele>318.748431</ele>
        <time>2022-09-14T11:10:05.438Z</time>
      </trkpt>
      <trkpt lat="47.5608" lon="8.07106">
        <ele>319.202068</ele>
        <time>2022-09-14T11:10:13.543Z</time>
      </trkpt>
      <trkpt lat="47.56055" lon="8.0711">
        <ele>319.461178</ele>
        <time>2022-09-14T11:10:22.262Z</time>
      </trkpt>
      <trkpt lat="47.5608" lon="8.07034">
        <ele>320.061422</ele>
        <time>2022-09-14T11:10:38.839Z</time>
      </trkpt>
      <trkpt lat="47.5609" lon="8.06978">
        <ele>320.473497</ele>
        <time>2022-09-14T11:10:50.601Z</time>
      </trkpt>
      <trkpt lat="47.561" lon="8.06924">
        <ele>320.872265</ele>
        <time>2022-09-14T11:11:02.717Z</time>
      </trkpt>
      <trkpt lat="47.56113" lon="8.06865">
        <ele>320.898961</ele>
        <time>2022-09-14T11:11:12.236Z</time>
      </trkpt>
      <trkpt lat="47.56123" lon="8.0679">
        <ele>320.699811</ele>
        <time>2022-09-14T11:11:24.002Z</time>
      </trkpt>
      <trkpt lat="47.56128" lon="8.06702">
        <ele>320.468738</ele>
        <time>2022-09-14T11:11:38.818Z</time>
      </trkpt>
      <trkpt lat="47.5612" lon="8.06583">
        <ele>320.365836</ele>
        <time>2022-09-14T11:12:01.161Z</time>
      </trkpt>
      <trkpt lat="47.56102" lon="8.06482">
        <ele>320.457018</ele>
        <time>2022-09-14T11:12:20.982Z</time>
      </trkpt>
      <trkpt lat="47.56081" lon="8.06404">
        <ele>320.530667</ele>
        <time>2022-09-14T11:12:36.324Z</time>
      </trkpt>
      <trkpt lat="47.5605" lon="8.06354">
        <ele>320.477712</ele>
        <time>2022-09-14T11:12:48.264Z</time>
      </trkpt>
      <trkpt lat="47.56034" lon="8.06317">
        <ele>320.417565</ele>
        <time>2022-09-14T11:12:55.925Z</time>
      </trkpt>
      <trkpt lat="47.5599" lon="8.06219">
        <ele>320.257739</ele>
        <time>2022-09-14T11:13:16.282Z</time>
      </trkpt>
      <trkpt lat="47.55962" lon="8.06181">
        <ele>320.182432</ele>
        <time>2022-09-14T11:13:25.971Z</time>
      </trkpt>
      <trkpt lat="47.55945" lon="8.06144">
        <ele>320.136584</ele>
        <time>2022-09-14T11:13:33.735Z</time>
      </trkpt>
      <trkpt lat="47.55913" lon="8.06078">
        <ele>320.053582</ele>
        <time>2022-09-14T11:13:47.599Z</time>
      </trkpt>
      <trkpt lat="47.55871" lon="8.05994">
        <ele>319.9467</ele>
        <time>2022-09-14T11:14:05.485Z</time>
      </trkpt>
      <trkpt lat="47.55786" lon="8.05828">
        <ele>320.756657</ele>
        <time>2022-09-14T11:14:46.039Z</time>
      </trkpt>
      <trkpt lat="47.5575" lon="8.05838">
        <ele>321.022763</ele>
        <time>2022-09-14T11:14:58.043Z</time>
      </trkpt>
      <trkpt lat="47.55698" lon="8.05843">
        <ele>321.547913</ele>
        <time>2022-09-14T11:15:15.267Z</time>
      </trkpt>
      <trkpt lat="47.55665" lon="8.05835">
        <ele>321.977636</ele>
        <time>2022-09-14T11:15:26.518Z</time>
      </trkpt>
      <trkpt lat="47.55604" lon="8.05809">
        <ele>322.79873</ele>
        <time>2022-09-14T11:15:48.265Z</time>
      </trkpt>
      <trkpt lat="47.55571" lon="8.05785">
        <ele>323.277264</ele>
        <time>2022-09-14T11:16:00.480Z</time>
      </trkpt>
      <trkpt lat="47.55408" lon="8.05631">
        <ele>324.685085</ele>
        <time>2022-09-14T11:16:58.388Z</time>
      </trkpt>
      <trkpt lat="47.55395" lon="8.05657">
        <ele>324.750985</ele>
        <time>2022-09-14T11:17:04.569Z</time>
      </trkpt>
      <trkpt lat="47.55392" lon="8.05653">
        <ele>324.757307</ele>
        <time>2022-09-14T11:17:05.667Z</time>
      </trkpt>
      <trkpt lat="47.55396" lon="8.05642">
        <ele>324.770324</ele>
        <time>2022-09-14T11:17:08.017Z</time>
      </trkpt>
      <trkpt lat="47.55393" lon="8.05629">
        <ele>324.78448</ele>
        <time>2022-09-14T11:17:10.568Z</time>
      </trkpt>
      <trkpt lat="47.55262" lon="8.05511">
        <ele>324.980995</ele>
        <time>2022-09-14T11:17:52.502Z</time>
      </trkpt>
      <trkpt lat="47.55212" lon="8.05454">
        <ele>324.824022</ele>
        <time>2022-09-14T11:18:08.259Z</time>
      </trkpt>
      <trkpt lat="47.55131" lon="8.05347">
        <ele>324.558283</ele>
        <time>2022-09-14T11:18:35.730Z</time>
      </trkpt>
      <trkpt lat="47.55074" lon="8.053">
        <ele>324.548159</ele>
        <time>2022-09-14T11:18:52.519Z</time>
      </trkpt>
      <trkpt lat="47.54915" lon="8.05206">
        <ele>324.655987</ele>
        <time>2022-09-14T11:19:39.329Z</time>
      </trkpt>
      <trkpt lat="47.54819" lon="8.05168">
        <ele>324.868522</ele>
        <time>2022-09-14T11:20:06.403Z</time>
      </trkpt>
      <trkpt lat="47.54713" lon="8.05148">
        <ele>327.676617</ele>
        <time>2022-09-14T11:20:38.009Z</time>
      </trkpt>
      <trkpt lat="47.54593" lon="8.05145">
        <ele>333.329575</ele>
        <time>2022-09-14T11:21:39.323Z</time>
      </trkpt>
      <trkpt lat="47.54527" lon="8.0513">
        <ele>340.189105</ele>
        <time>2022-09-14T11:22:27.497Z</time>
      </trkpt>
      <trkpt lat="47.54456" lon="8.05099">
        <ele>347.811788</ele>
        <time>2022-09-14T11:23:35.047Z</time>
      </trkpt>
      <trkpt lat="47.54402" lon="8.05061">
        <ele>353.448554</ele>
        <time>2022-09-14T11:24:28.268Z</time>
      </trkpt>
      <trkpt lat="47.54373" lon="8.05031">
        <ele>356.648269</ele>
        <time>2022-09-14T11:24:55.336Z</time>
      </trkpt>
      <trkpt lat="47.54371" lon="8.05019">
        <ele>357.391089</ele>
        <time>2022-09-14T11:24:59.896Z</time>
      </trkpt>
      <trkpt lat="47.54329" lon="8.04953">
        <ele>362.89932</ele>
        <time>2022-09-14T11:25:42.190Z</time>
      </trkpt>
      <trkpt lat="47.54303" lon="8.04897">
        <ele>365.409132</ele>
        <time>2022-09-14T11:26:08.595Z</time>
      </trkpt>
      <trkpt lat="47.54217" lon="8.047">
        <ele>364.304555</ele>
        <time>2022-09-14T11:26:44.944Z</time>
      </trkpt>
      <trkpt lat="47.54203" lon="8.04668">
        <ele>362.237503</ele>
        <time>2022-09-14T11:26:49.399Z</time>
      </trkpt>
      <trkpt lat="47.54165" lon="8.04594">
        <ele>356.321813</ele>
        <time>2022-09-14T11:26:59.546Z</time>
      </trkpt>
      <trkpt lat="47.54138" lon="8.04529">
        <ele>351.428505</ele>
        <time>2022-09-14T11:27:07.870Z</time>
      </trkpt>
      <trkpt lat="47.54108" lon="8.04458">
        <ele>346.506453</ele>
        <time>2022-09-14T11:27:16.909Z</time>
      </trkpt>
      <trkpt lat="47.5408" lon="8.04439">
        <ele>344.733804</ele>
        <time>2022-09-14T11:27:21.897Z</time>
      </trkpt>
      <trkpt lat="47.54032" lon="8.04442">
        <ele>341.933889</ele>
        <time>2022-09-14T11:27:30.036Z</time>
      </trkpt>
      <trkpt lat="47.54039" lon="8.04363">
        <ele>338.820229</ele>
        <time>2022-09-14T11:27:40.138Z</time>
      </trkpt>
      <trkpt lat="47.54031" lon="8.0431">
        <ele>336.837934</ele>
        <time>2022-09-14T11:27:50.934Z</time>
      </trkpt>
      <trkpt lat="47.54009" lon="8.04245">
        <ele>336.858045</ele>
        <time>2022-09-14T11:28:08.231Z</time>
      </trkpt>
      <trkpt lat="47.54007" lon="8.04239">
        <ele>336.859811</ele>
        <time>2022-09-14T11:28:09.765Z</time>
      </trkpt>
      <trkpt lat="47.54004" lon="8.0423">
        <ele>336.862676</ele>
        <time>2022-09-14T11:28:13.548Z</time>
      </trkpt>
      <trkpt lat="47.54002" lon="8.04227">
        <ele>336.863755</ele>
        <time>2022-09-14T11:28:14.959Z</time>
      </trkpt>
      <trkpt lat="47.53998" lon="8.04187">
        <ele>336.875004</ele>
        <time>2022-09-14T11:28:28.446Z</time>
      </trkpt>
      <trkpt lat="47.54003" lon="8.04148">
        <ele>336.885931</ele>
        <time>2022-09-14T11:28:36.557Z</time>
      </trkpt>
      <trkpt lat="47.54008" lon="8.04135">
        <ele>336.889953</ele>
        <time>2022-09-14T11:28:39.390Z</time>
      </trkpt>
      <trkpt lat="47.54012" lon="8.04125">
        <ele>336.893051</ele>
        <time>2022-09-14T11:28:41.593Z</time>
      </trkpt>
      <trkpt lat="47.54056" lon="8.04036">
        <ele>335.822145</ele>
        <time>2022-09-14T11:28:58.544Z</time>
      </trkpt>
      <trkpt lat="47.54061" lon="8.04024">
        <ele>335.514713</ele>
        <time>2022-09-14T11:29:00.306Z</time>
      </trkpt>
      <trkpt lat="47.54097" lon="8.03933">
        <ele>333.083766</ele>
        <time>2022-09-14T11:29:13.568Z</time>
      </trkpt>
      <trkpt lat="47.54102" lon="8.03909">
        <ele>332.515596</ele>
        <time>2022-09-14T11:29:16.577Z</time>
      </trkpt>
      <trkpt lat="47.54102" lon="8.03851">
        <ele>331.202191</ele>
        <time>2022-09-14T11:29:23.520Z</time>
      </trkpt>
      <trkpt lat="47.54032" lon="8.03059">
        <ele>321.353252</ele>
        <time>2022-09-14T11:31:19.705Z</time>
      </trkpt>
      <trkpt lat="47.54026" lon="8.02926">
        <ele>320.979351</ele>
        <time>2022-09-14T11:31:42.093Z</time>
      </trkpt>
      <trkpt lat="47.54031" lon="8.02676">
        <ele>321.261007</ele>
        <time>2022-09-14T11:32:28.125Z</time>
      </trkpt>
      <trkpt lat="47.54054" lon="8.02354">
        <ele>324.78991</ele>
        <time>2022-09-14T11:33:38.920Z</time>
      </trkpt>
      <trkpt lat="47.54035" lon="8.02233">
        <ele>327.265767</ele>
        <time>2022-09-14T11:34:16.021Z</time>
      </trkpt>
      <trkpt lat="47.5402" lon="8.02098">
        <ele>333.365059</ele>
        <time>2022-09-14T11:35:09.360Z</time>
      </trkpt>
      <trkpt lat="47.54013" lon="8.02059">
        <ele>335.155054</ele>
        <time>2022-09-14T11:35:26.754Z</time>
      </trkpt>
      <trkpt lat="47.54003" lon="8.01946">
        <ele>340.091276</ele>
        <time>2022-09-14T11:36:16.361Z</time>
      </trkpt>
      <trkpt lat="47.54001" lon="8.01866">
        <ele>343.401075</ele>
        <time>2022-09-14T11:36:50.691Z</time>
      </trkpt>
      <trkpt lat="47.53994" lon="8.01636">
        <ele>350.541281</ele>
        <time>2022-09-14T11:38:08.917Z</time>
      </trkpt>
      <trkpt lat="47.53988" lon="8.01452">
        <ele>352.8697</ele>
        <time>2022-09-14T11:38:46.268Z</time>
      </trkpt>
      <trkpt lat="47.5398" lon="8.01237">
        <ele>351.386962</ele>
        <time>2022-09-14T11:39:19.446Z</time>
      </trkpt>
      <trkpt lat="47.5397" lon="8.01111">
        <ele>350.547019</ele>
        <time>2022-09-14T11:39:38.145Z</time>
      </trkpt>
      <trkpt lat="47.53958" lon="8.00856">
        <ele>349.461559</ele>
        <time>2022-09-14T11:40:19.158Z</time>
      </trkpt>
      <trkpt lat="47.53959" lon="8.00589">
        <ele>349.370797</ele>
        <time>2022-09-14T11:41:14.205Z</time>
      </trkpt>
      <trkpt lat="47.53943" lon="8.00316">
        <ele>345.180985</ele>
        <time>2022-09-14T11:41:53.987Z</time>
      </trkpt>
      <trkpt lat="47.53944" lon="8.00296">
        <ele>344.491074</ele>
        <time>2022-09-14T11:41:56.347Z</time>
      </trkpt>
      <trkpt lat="47.53944" lon="8.00253">
        <ele>342.925782</ele>
        <time>2022-09-14T11:42:01.609Z</time>
      </trkpt>
      <trkpt lat="47.53937" lon="8.00115">
        <ele>337.854757</ele>
        <time>2022-09-14T11:42:17.529Z</time>
      </trkpt>
      <trkpt lat="47.53959" lon="7.99812">
        <ele>323.026301</ele>
        <time>2022-09-14T11:42:52.181Z</time>
      </trkpt>
      <trkpt lat="47.53973" lon="7.99727">
        <ele>320.292054</ele>
        <time>2022-09-14T11:43:02.939Z</time>
      </trkpt>
      <trkpt lat="47.53988" lon="7.9958">
        <ele>316.047226</ele>
        <time>2022-09-14T11:43:22.643Z</time>
      </trkpt>
      <trkpt lat="47.54001" lon="7.99514">
        <ele>315.390876</ele>
        <time>2022-09-14T11:43:32.681Z</time>
      </trkpt>
      <trkpt lat="47.54032" lon="7.99362">
        <ele>313.877355</ele>
        <time>2022-09-14T11:43:57.300Z</time>
      </trkpt>
      <trkpt lat="47.54026" lon="7.99224">
        <ele>313.539762</ele>
        <time>2022-09-14T11:44:19.905Z</time>
      </trkpt>
      <trkpt lat="47.54019" lon="7.99177">
        <ele>313.486574</ele>
        <time>2022-09-14T11:44:28.542Z</time>
      </trkpt>
      <trkpt lat="47.54014" lon="7.9915">
        <ele>313.456417</ele>
        <time>2022-09-14T11:44:33.559Z</time>
      </trkpt>
      <trkpt lat="47.5401" lon="7.99129">
        <ele>313.431989</ele>
        <time>2022-09-14T11:44:39.089Z</time>
      </trkpt>
      <trkpt lat="47.54002" lon="7.99055">
        <ele>313.467132</ele>
        <time>2022-09-14T11:44:53.711Z</time>
      </trkpt>
      <trkpt lat="47.54001" lon="7.99013">
        <ele>313.640872</ele>
        <time>2022-09-14T11:45:02.289Z</time>
      </trkpt>
      <trkpt lat="47.53998" lon="7.98819">
        <ele>314.440417</ele>
        <time>2022-09-14T11:45:41.640Z</time>
      </trkpt>
      <trkpt lat="47.54028" lon="7.98727">
        <ele>314.607035</ele>
        <time>2022-09-14T11:46:01.384Z</time>
      </trkpt>
      <trkpt lat="47.54034" lon="7.98693">
        <ele>314.656261</ele>
        <time>2022-09-14T11:46:08.092Z</time>
      </trkpt>
      <trkpt lat="47.54035" lon="7.98674">
        <ele>314.684382</ele>
        <time>2022-09-14T11:46:11.846Z</time>
      </trkpt>
      <trkpt lat="47.53995" lon="7.98663">
        <ele>314.769377</ele>
        <time>2022-09-14T11:46:22.985Z</time>
      </trkpt>
      <trkpt lat="47.53955" lon="7.98654">
        <ele>314.863583</ele>
        <time>2022-09-14T11:46:33.218Z</time>
      </trkpt>
      <trkpt lat="47.53927" lon="7.98649">
        <ele>315.05623</ele>
        <time>2022-09-14T11:46:39.893Z</time>
      </trkpt>
      <trkpt lat="47.53863" lon="7.98644">
        <ele>315.504991</ele>
        <time>2022-09-14T11:46:58.308Z</time>
      </trkpt>
      <trkpt lat="47.53851" lon="7.98643">
        <ele>315.585883</ele>
        <time>2022-09-14T11:47:01.359Z</time>
      </trkpt>
      <trkpt lat="47.53782" lon="7.98643">
        <ele>316.06816</ele>
        <time>2022-09-14T11:47:24.815Z</time>
      </trkpt>
      <trkpt lat="47.53782" lon="7.98619">
        <ele>316.349739</ele>
        <time>2022-09-14T11:47:30.724Z</time>
      </trkpt>
      <trkpt lat="47.53782" lon="7.98606">
        <ele>316.547029</ele>
        <time>2022-09-14T11:47:34.346Z</time>
      </trkpt>
      <trkpt lat="47.53788" lon="7.98594">
        <ele>316.773869</ele>
        <time>2022-09-14T11:47:37.321Z</time>
      </trkpt>
      <trkpt lat="47.53821" lon="7.98559">
        <ele>317.651503</ele>
        <time>2022-09-14T11:47:51.482Z</time>
      </trkpt>
      <trkpt lat="47.53777" lon="7.98499">
        <ele>318.956242</ele>
        <time>2022-09-14T11:48:13.971Z</time>
      </trkpt>
      <trkpt lat="47.53773" lon="7.98494">
        <ele>319.073765</ele>
        <time>2022-09-14T11:48:15.841Z</time>
      </trkpt>
      <trkpt lat="47.53685" lon="7.98381">
        <ele>322.326054</ele>
        <time>2022-09-14T11:49:02.386Z</time>
      </trkpt>
      <trkpt lat="47.53641" lon="7.98324">
        <ele>324.154994</ele>
        <time>2022-09-14T11:49:26.668Z</time>
      </trkpt>
      <trkpt lat="47.53676" lon="7.98223">
        <ele>326.594787</ele>
        <time>2022-09-14T11:50:01.412Z</time>
      </trkpt>
      <trkpt lat="47.53684" lon="7.98188">
        <ele>327.37986</ele>
        <time>2022-09-14T11:50:13.241Z</time>
      </trkpt>
      <trkpt lat="47.53746" lon="7.98012">
        <ele>331.435929</ele>
        <time>2022-09-14T11:51:09.779Z</time>
      </trkpt>
      <trkpt lat="47.53784" lon="7.97871">
        <ele>331.722089</ele>
        <time>2022-09-14T11:51:41.023Z</time>
      </trkpt>
      <trkpt lat="47.53811" lon="7.97724">
        <ele>331.342273</ele>
        <time>2022-09-14T11:52:03.999Z</time>
      </trkpt>
      <trkpt lat="47.53824" lon="7.97635">
        <ele>330.223316</ele>
        <time>2022-09-14T11:52:17.119Z</time>
      </trkpt>
      <trkpt lat="47.53871" lon="7.97446">
        <ele>327.5092</ele>
        <time>2022-09-14T11:52:45.737Z</time>
      </trkpt>
      <trkpt lat="47.53926" lon="7.97177">
        <ele>322.951895</ele>
        <time>2022-09-14T11:53:24.579Z</time>
      </trkpt>
      <trkpt lat="47.53978" lon="7.96959">
        <ele>319.341675</ele>
        <time>2022-09-14T11:53:55.954Z</time>
      </trkpt>
      <trkpt lat="47.5409" lon="7.96471">
        <ele>314.965892</ele>
        <time>2022-09-14T11:55:15.105Z</time>
      </trkpt>
      <trkpt lat="47.5411" lon="7.9642">
        <ele>314.674742</ele>
        <time>2022-09-14T11:55:25.049Z</time>
      </trkpt>
      <trkpt lat="47.54117" lon="7.96412">
        <ele>314.607077</ele>
        <time>2022-09-14T11:55:26.959Z</time>
      </trkpt>
      <trkpt lat="47.54102" lon="7.96382">
        <ele>314.418534</ele>
        <time>2022-09-14T11:55:34.078Z</time>
      </trkpt>
      <trkpt lat="47.54112" lon="7.96352">
        <ele>314.253315</ele>
        <time>2022-09-14T11:55:39.311Z</time>
      </trkpt>
      <trkpt lat="47.54122" lon="7.96319">
        <ele>314.074128</ele>
        <time>2022-09-14T11:55:45.053Z</time>
      </trkpt>
      <trkpt lat="47.54131" lon="7.96251">
        <ele>313.568254</ele>
        <time>2022-09-14T11:55:56.494Z</time>
      </trkpt>
      <trkpt lat="47.54131" lon="7.96238">
        <ele>313.367839</ele>
        <time>2022-09-14T11:55:58.964Z</time>
      </trkpt>
      <trkpt lat="47.54124" lon="7.96129">
        <ele>311.767577</ele>
        <time>2022-09-14T11:56:15.241Z</time>
      </trkpt>
      <trkpt lat="47.54106" lon="7.96032">
        <ele>310.28286</ele>
        <time>2022-09-14T11:56:28.671Z</time>
      </trkpt>
      <trkpt lat="47.54103" lon="7.95994">
        <ele>309.60183</ele>
        <time>2022-09-14T11:56:33.565Z</time>
      </trkpt>
      <trkpt lat="47.54101" lon="7.95958">
        <ele>308.689045</ele>
        <time>2022-09-14T11:56:38.282Z</time>
      </trkpt>
      <trkpt lat="47.54108" lon="7.95883">
        <ele>306.797147</ele>
        <time>2022-09-14T11:56:47.847Z</time>
      </trkpt>
      <trkpt lat="47.54131" lon="7.95779">
        <ele>304.072216</ele>
        <time>2022-09-14T11:57:01.807Z</time>
      </trkpt>
      <trkpt lat="47.54146" lon="7.9567">
        <ele>302.36331</ele>
        <time>2022-09-14T11:57:16.506Z</time>
      </trkpt>
      <trkpt lat="47.54153" lon="7.95553">
        <ele>301.037426</ele>
        <time>2022-09-14T11:57:33.997Z</time>
      </trkpt>
      <trkpt lat="47.54155" lon="7.95531">
        <ele>300.793708</ele>
        <time>2022-09-14T11:57:37.580Z</time>
      </trkpt>
      <trkpt lat="47.54174" lon="7.95389">
        <ele>300.35862</ele>
        <time>2022-09-14T11:58:03.370Z</time>
      </trkpt>
      <trkpt lat="47.54177" lon="7.9537">
        <ele>300.382893</ele>
        <time>2022-09-14T11:58:07.303Z</time>
      </trkpt>
      <trkpt lat="47.54179" lon="7.9536">
        <ele>300.394355</ele>
        <time>2022-09-14T11:58:09.139Z</time>
      </trkpt>
      <trkpt lat="47.54199" lon="7.95267">
        <ele>300.510554</ele>
        <time>2022-09-14T11:58:28.101Z</time>
      </trkpt>
      <trkpt lat="47.54217" lon="7.95182">
        <ele>300.620871</ele>
        <time>2022-09-14T11:58:45.211Z</time>
      </trkpt>
      <trkpt lat="47.54219" lon="7.95171">
        <ele>300.634608</ele>
        <time>2022-09-14T11:58:47.350Z</time>
      </trkpt>
      <trkpt lat="47.54244" lon="7.95069">
        <ele>300.774681</ele>
        <time>2022-09-14T11:59:07.513Z</time>
      </trkpt>
      <trkpt lat="47.54255" lon="7.95027">
        <ele>300.831102</ele>
        <time>2022-09-14T11:59:15.375Z</time>
      </trkpt>
      <trkpt lat="47.54256" lon="7.9502">
        <ele>300.840715</ele>
        <time>2022-09-14T11:59:16.797Z</time>
      </trkpt>
      <trkpt lat="47.54272" lon="7.94918">
        <ele>301.237009</ele>
        <time>2022-09-14T11:59:36.239Z</time>
      </trkpt>
      <trkpt lat="47.54284" lon="7.94823">
        <ele>301.802519</ele>
        <time>2022-09-14T11:59:55.891Z</time>
      </trkpt>
      <trkpt lat="47.54288" lon="7.948">
        <ele>301.93749</ele>
        <time>2022-09-14T12:00:00.927Z</time>
      </trkpt>
      <trkpt lat="47.54293" lon="7.9478">
        <ele>302.064879</ele>
        <time>2022-09-14T12:00:05.466Z</time>
      </trkpt>
      <trkpt lat="47.54309" lon="7.94732">
        <ele>302.378341</ele>
        <time>2022-09-14T12:00:17.398Z</time>
      </trkpt>
      <trkpt lat="47.54309" lon="7.94705">
        <ele>302.598257</ele>
        <time>2022-09-14T12:00:23.556Z</time>
      </trkpt>
      <trkpt lat="47.54306" lon="7.94694">
        <ele>302.738034</ele>
        <time>2022-09-14T12:00:26.554Z</time>
      </trkpt>
      <trkpt lat="47.54297" lon="7.9465">
        <ele>303.247818</ele>
        <time>2022-09-14T12:00:37.493Z</time>
      </trkpt>
      <trkpt lat="47.54291" lon="7.94527">
        <ele>304.622983</ele>
        <time>2022-09-14T12:01:07.537Z</time>
      </trkpt>
      <trkpt lat="47.54316" lon="7.94221">
        <ele>306.904143</ele>
        <time>2022-09-14T12:02:16.146Z</time>
      </trkpt>
      <trkpt lat="47.54344" lon="7.94067">
        <ele>305.978152</ele>
        <time>2022-09-14T12:02:41.419Z</time>
      </trkpt>
      <trkpt lat="47.54383" lon="7.93943">
        <ele>304.774624</ele>
        <time>2022-09-14T12:03:00.993Z</time>
      </trkpt>
      <trkpt lat="47.54471" lon="7.9374">
        <ele>301.599288</ele>
        <time>2022-09-14T12:03:35.427Z</time>
      </trkpt>
      <trkpt lat="47.54507" lon="7.93648">
        <ele>300.444031</ele>
        <time>2022-09-14T12:03:50.861Z</time>
      </trkpt>
      <trkpt lat="47.54546" lon="7.93511">
        <ele>298.942287</ele>
        <time>2022-09-14T12:04:12.565Z</time>
      </trkpt>
      <trkpt lat="47.5457" lon="7.93329">
        <ele>298.704449</ele>
        <time>2022-09-14T12:04:43.022Z</time>
      </trkpt>
      <trkpt lat="47.5457" lon="7.9315">
        <ele>299.583046</ele>
        <time>2022-09-14T12:05:21.742Z</time>
      </trkpt>
      <trkpt lat="47.54558" lon="7.92996">
        <ele>301.535819</ele>
        <time>2022-09-14T12:06:02.243Z</time>
      </trkpt>
      <trkpt lat="47.54548" lon="7.92842">
        <ele>301.879271</ele>
        <time>2022-09-14T12:06:37.222Z</time>
      </trkpt>
      <trkpt lat="47.54542" lon="7.92769">
        <ele>301.661147</ele>
        <time>2022-09-14T12:06:49.054Z</time>
      </trkpt>
      <trkpt lat="47.54541" lon="7.92677">
        <ele>301.35216</ele>
        <time>2022-09-14T12:07:02.193Z</time>
      </trkpt>
      <trkpt lat="47.54542" lon="7.92585">
        <ele>299.058844</ele>
        <time>2022-09-14T12:07:14.330Z</time>
      </trkpt>
      <trkpt lat="47.54548" lon="7.9244">
        <ele>295.451349</ele>
        <time>2022-09-14T12:07:32.508Z</time>
      </trkpt>
      <trkpt lat="47.54554" lon="7.92341">
        <ele>293.668813</ele>
        <time>2022-09-14T12:07:45.248Z</time>
      </trkpt>
      <trkpt lat="47.54559" lon="7.9229">
        <ele>292.868818</ele>
        <time>2022-09-14T12:07:52.372Z</time>
      </trkpt>
      <trkpt lat="47.5457" lon="7.92233">
        <ele>291.95117</ele>
        <time>2022-09-14T12:08:00.890Z</time>
      </trkpt>
      <trkpt lat="47.54581" lon="7.92176">
        <ele>291.034162</ele>
        <time>2022-09-14T12:08:09.922Z</time>
      </trkpt>
      <trkpt lat="47.54591" lon="7.92077">
        <ele>290.511096</ele>
        <time>2022-09-14T12:08:25.976Z</time>
      </trkpt>
      <trkpt lat="47.54613" lon="7.91962">
        <ele>290.2618</ele>
        <time>2022-09-14T12:08:47.640Z</time>
      </trkpt>
      <trkpt lat="47.54657" lon="7.91777">
        <ele>290.039622</ele>
        <time>2022-09-14T12:09:22.295Z</time>
      </trkpt>
      <trkpt lat="47.54703" lon="7.91622">
        <ele>290.601163</ele>
        <time>2022-09-14T12:09:50.829Z</time>
      </trkpt>
      <trkpt lat="47.54709" lon="7.91604">
        <ele>291.049258</ele>
        <time>2022-09-14T12:09:54.879Z</time>
      </trkpt>
      <trkpt lat="47.54742" lon="7.91508">
        <ele>293.47954</ele>
        <time>2022-09-14T12:10:24.675Z</time>
      </trkpt>
      <trkpt lat="47.54706" lon="7.91473">
        <ele>294.932355</ele>
        <time>2022-09-14T12:10:48.332Z</time>
      </trkpt>
      <trkpt lat="47.5467" lon="7.91434">
        <ele>296.683664</ele>
        <time>2022-09-14T12:11:12.996Z</time>
      </trkpt>
      <trkpt lat="47.54643" lon="7.91405">
        <ele>298.343081</ele>
        <time>2022-09-14T12:11:30.726Z</time>
      </trkpt>
      <trkpt lat="47.54606" lon="7.91366">
        <ele>300.635705</ele>
        <time>2022-09-14T12:11:56.770Z</time>
      </trkpt>
      <trkpt lat="47.54653" lon="7.91251">
        <ele>305.142854</ele>
        <time>2022-09-14T12:12:42.562Z</time>
      </trkpt>
      <trkpt lat="47.54726" lon="7.91121">
        <ele>306.95635</ele>
        <time>2022-09-14T12:13:23.783Z</time>
      </trkpt>
      <trkpt lat="47.54765" lon="7.91027">
        <ele>307.861776</ele>
        <time>2022-09-14T12:13:43.787Z</time>
      </trkpt>
      <trkpt lat="47.54786" lon="7.90985">
        <ele>307.559075</ele>
        <time>2022-09-14T12:13:52.834Z</time>
      </trkpt>
      <trkpt lat="47.54822" lon="7.90915">
        <ele>307.054384</ele>
        <time>2022-09-14T12:14:07.607Z</time>
      </trkpt>
      <trkpt lat="47.54881" lon="7.90829">
        <ele>306.338168</ele>
        <time>2022-09-14T12:14:26.761Z</time>
      </trkpt>
      <trkpt lat="47.54952" lon="7.90638">
        <ele>304.962025</ele>
        <time>2022-09-14T12:15:01.958Z</time>
      </trkpt>
      <trkpt lat="47.54967" lon="7.90534">
        <ele>305.116325</ele>
        <time>2022-09-14T12:15:21.921Z</time>
      </trkpt>
      <trkpt lat="47.54987" lon="7.90516">
        <ele>305.292904</ele>
        <time>2022-09-14T12:15:28.494Z</time>
      </trkpt>
      <trkpt lat="47.54987" lon="7.90501">
        <ele>305.368565</ele>
        <time>2022-09-14T12:15:31.685Z</time>
      </trkpt>
      <trkpt lat="47.55003" lon="7.90477">
        <ele>305.541464</ele>
        <time>2022-09-14T12:15:38.508Z</time>
      </trkpt>
      <trkpt lat="47.5503" lon="7.90416">
        <ele>305.925076</ele>
        <time>2022-09-14T12:15:55.369Z</time>
      </trkpt>
      <trkpt lat="47.5505" lon="7.90345">
        <ele>306.995219</ele>
        <time>2022-09-14T12:16:14.337Z</time>
      </trkpt>
      <trkpt lat="47.55069" lon="7.90245">
        <ele>309.350807</ele>
        <time>2022-09-14T12:16:43.143Z</time>
      </trkpt>
      <trkpt lat="47.55077" lon="7.90136">
        <ele>311.848895</ele>
        <time>2022-09-14T12:17:18.313Z</time>
      </trkpt>
      <trkpt lat="47.5508" lon="7.90024">
        <ele>315.307423</ele>
        <time>2022-09-14T12:17:58.161Z</time>
      </trkpt>
      <trkpt lat="47.55082" lon="7.89811">
        <ele>321.4482</ele>
        <time>2022-09-14T12:19:10.397Z</time>
      </trkpt>
      <trkpt lat="47.55064" lon="7.89635">
        <ele>324.129212</ele>
        <time>2022-09-14T12:19:54.378Z</time>
      </trkpt>
      <trkpt lat="47.55076" lon="7.89591">
        <ele>324.818496</ele>
        <time>2022-09-14T12:20:03.282Z</time>
      </trkpt>
      <trkpt lat="47.55088" lon="7.89516">
        <ele>325.249182</ele>
        <time>2022-09-14T12:20:16.425Z</time>
      </trkpt>
      <trkpt lat="47.55089" lon="7.89318">
        <ele>326.613668</ele>
        <time>2022-09-14T12:20:56.051Z</time>
      </trkpt>
      <trkpt lat="47.5509" lon="7.89173">
        <ele>330.799015</ele>
        <time>2022-09-14T12:21:40.731Z</time>
      </trkpt>
      <trkpt lat="47.55092" lon="7.8906">
        <ele>334.070934</ele>
        <time>2022-09-14T12:22:21.903Z</time>
      </trkpt>
      <trkpt lat="47.55083" lon="7.88907">
        <ele>340.399119</ele>
        <time>2022-09-14T12:23:21.012Z</time>
      </trkpt>
      <trkpt lat="47.55079" lon="7.88782">
        <ele>345.508206</ele>
        <time>2022-09-14T12:24:08.376Z</time>
      </trkpt>
      <trkpt lat="47.55068" lon="7.88648">
        <ele>350.511692</ele>
        <time>2022-09-14T12:24:57.902Z</time>
      </trkpt>
      <trkpt lat="47.55039" lon="7.88511">
        <ele>355.59362</ele>
        <time>2022-09-14T12:25:48.097Z</time>
      </trkpt>
      <trkpt lat="47.55015" lon="7.88261">
        <ele>362.728486</ele>
        <time>2022-09-14T12:27:07.808Z</time>
      </trkpt>
      <trkpt lat="47.54993" lon="7.88149">
        <ele>365.028325</ele>
        <time>2022-09-14T12:27:39.741Z</time>
      </trkpt>
      <trkpt lat="47.54973" lon="7.88079">
        <ele>366.537661</ele>
        <time>2022-09-14T12:28:00.728Z</time>
      </trkpt>
      <trkpt lat="47.54933" lon="7.87955">
        <ele>368.155419</ele>
        <time>2022-09-14T12:28:35.883Z</time>
      </trkpt>
      <trkpt lat="47.54932" lon="7.8794">
        <ele>368.236091</ele>
        <time>2022-09-14T12:28:40.114Z</time>
      </trkpt>
      <trkpt lat="47.54927" lon="7.87904">
        <ele>368.435151</ele>
        <time>2022-09-14T12:28:49.145Z</time>
      </trkpt>
      <trkpt lat="47.5488" lon="7.87716">
        <ele>367.954032</ele>
        <time>2022-09-14T12:29:22.172Z</time>
      </trkpt>
      <trkpt lat="47.54873" lon="7.87706">
        <ele>367.666607</ele>
        <time>2022-09-14T12:29:24.388Z</time>
      </trkpt>
      <trkpt lat="47.54871" lon="7.87678">
        <ele>367.1296</ele>
        <time>2022-09-14T12:29:27.992Z</time>
      </trkpt>
      <trkpt lat="47.54828" lon="7.8753">
        <ele>363.947194</ele>
        <time>2022-09-14T12:29:48.717Z</time>
      </trkpt>
      <trkpt lat="47.54772" lon="7.87334">
        <ele>356.893689</ele>
        <time>2022-09-14T12:30:14.834Z</time>
      </trkpt>
      <trkpt lat="47.54756" lon="7.87278">
        <ele>354.855063</ele>
        <time>2022-09-14T12:30:22.201Z</time>
      </trkpt>
      <trkpt lat="47.54716" lon="7.87074">
        <ele>346.716156</ele>
        <time>2022-09-14T12:30:47.642Z</time>
      </trkpt>
      <trkpt lat="47.547" lon="7.86982">
        <ele>343.386917</ele>
        <time>2022-09-14T12:30:58.886Z</time>
      </trkpt>
      <trkpt lat="47.54702" lon="7.86916">
        <ele>341.313397</ele>
        <time>2022-09-14T12:31:06.769Z</time>
      </trkpt>
      <trkpt lat="47.54695" lon="7.86882">
        <ele>340.189742</ele>
        <time>2022-09-14T12:31:11.114Z</time>
      </trkpt>
      <trkpt lat="47.54698" lon="7.8688">
        <ele>340.014057</ele>
        <time>2022-09-14T12:31:11.806Z</time>
      </trkpt>
      <trkpt lat="47.54692" lon="7.86852">
        <ele>339.097597</ele>
        <time>2022-09-14T12:31:15.402Z</time>
      </trkpt>
      <trkpt lat="47.54678" lon="7.86766">
        <ele>336.510835</ele>
        <time>2022-09-14T12:31:26.927Z</time>
      </trkpt>
      <trkpt lat="47.5467" lon="7.86714">
        <ele>336.654913</ele>
        <time>2022-09-14T12:31:34.471Z</time>
      </trkpt>
      <trkpt lat="47.54663" lon="7.86679">
        <ele>336.755332</ele>
        <time>2022-09-14T12:31:40.414Z</time>
      </trkpt>
      <trkpt lat="47.54659" lon="7.86662">
        <ele>336.804852</ele>
        <time>2022-09-14T12:31:43.878Z</time>
      </trkpt>
      <trkpt lat="47.54633" lon="7.86596">
        <ele>337.013148</ele>
        <time>2022-09-14T12:32:01.405Z</time>
      </trkpt>
      <trkpt lat="47.54682" lon="7.86549">
        <ele>337.363436</ele>
        <time>2022-09-14T12:32:25.029Z</time>
      </trkpt>
      <trkpt lat="47.54689" lon="7.86523">
        <ele>337.757269</ele>
        <time>2022-09-14T12:32:32.697Z</time>
      </trkpt>
      <trkpt lat="47.54689" lon="7.8645">
        <ele>338.763966</ele>
        <time>2022-09-14T12:32:52.971Z</time>
      </trkpt>
      <trkpt lat="47.54682" lon="7.86397">
        <ele>339.50537</ele>
        <time>2022-09-14T12:33:07.068Z</time>
      </trkpt>
      <trkpt lat="47.54659" lon="7.86301">
        <ele>340.922874</ele>
        <time>2022-09-14T12:33:32.189Z</time>
      </trkpt>
      <trkpt lat="47.54649" lon="7.86031">
        <ele>341.387583</ele>
        <time>2022-09-14T12:34:24.032Z</time>
      </trkpt>
      <trkpt lat="47.54654" lon="7.8575">
        <ele>340.869441</ele>
        <time>2022-09-14T12:35:13.816Z</time>
      </trkpt>
      <trkpt lat="47.54662" lon="7.85576">
        <ele>340.642307</ele>
        <time>2022-09-14T12:35:45.706Z</time>
      </trkpt>
      <trkpt lat="47.54695" lon="7.85172">
        <ele>339.440516</ele>
        <time>2022-09-14T12:36:58.663Z</time>
      </trkpt>
      <trkpt lat="47.54714" lon="7.85036">
        <ele>338.324859</ele>
        <time>2022-09-14T12:37:20.811Z</time>
      </trkpt>
      <trkpt lat="47.54712" lon="7.8488">
        <ele>336.582846</ele>
        <time>2022-09-14T12:37:44.202Z</time>
      </trkpt>
      <trkpt lat="47.5473" lon="7.84472">
        <ele>331.532601</ele>
        <time>2022-09-14T12:38:45.362Z</time>
      </trkpt>
      <trkpt lat="47.54731" lon="7.84374">
        <ele>330.500096</ele>
        <time>2022-09-14T12:39:01.724Z</time>
      </trkpt>
      <trkpt lat="47.54736" lon="7.84284">
        <ele>329.61121</ele>
        <time>2022-09-14T12:39:15.970Z</time>
      </trkpt>
      <trkpt lat="47.54745" lon="7.84226">
        <ele>329.024112</ele>
        <time>2022-09-14T12:39:25.227Z</time>
      </trkpt>
      <trkpt lat="47.54755" lon="7.84227">
        <ele>328.875904</ele>
        <time>2022-09-14T12:39:27.517Z</time>
      </trkpt>
      <trkpt lat="47.54767" lon="7.84227">
        <ele>328.692615</ele>
        <time>2022-09-14T12:39:30.351Z</time>
      </trkpt>
      <trkpt lat="47.54811" lon="7.84229">
        <ele>327.852535</ele>
        <time>2022-09-14T12:39:39.754Z</time>
      </trkpt>
      <trkpt lat="47.54958" lon="7.8427">
        <ele>324.787088</ele>
        <time>2022-09-14T12:40:12.170Z</time>
      </trkpt>
      <trkpt lat="47.55073" lon="7.84283">
        <ele>323.994118</ele>
        <time>2022-09-14T12:40:40.778Z</time>
      </trkpt>
      <trkpt lat="47.55145" lon="7.84282">
        <ele>323.53532</ele>
        <time>2022-09-14T12:41:01.295Z</time>
      </trkpt>
      <trkpt lat="47.55192" lon="7.8427">
        <ele>323.349028</ele>
        <time>2022-09-14T12:41:14.807Z</time>
      </trkpt>
      <trkpt lat="47.55238" lon="7.84259">
        <ele>323.166613</ele>
        <time>2022-09-14T12:41:27.744Z</time>
      </trkpt>
      <trkpt lat="47.55283" lon="7.8425">
        <ele>322.986749</ele>
        <time>2022-09-14T12:41:39.396Z</time>
      </trkpt>
      <trkpt lat="47.55313" lon="7.84243">
        <ele>322.840383</ele>
        <time>2022-09-14T12:41:46.614Z</time>
      </trkpt>
      <trkpt lat="47.55313" lon="7.84214">
        <ele>322.512203</ele>
        <time>2022-09-14T12:41:50.868Z</time>
      </trkpt>
      <trkpt lat="47.55322" lon="7.84185">
        <ele>322.147508</ele>
        <time>2022-09-14T12:41:55.594Z</time>
      </trkpt>
      <trkpt lat="47.55323" lon="7.84153">
        <ele>321.783422</ele>
        <time>2022-09-14T12:42:00.226Z</time>
      </trkpt>
      <trkpt lat="47.55294" lon="7.83953">
        <ele>319.471721</ele>
        <time>2022-09-14T12:42:29.797Z</time>
      </trkpt>
      <trkpt lat="47.55274" lon="7.83858">
        <ele>318.382124</ele>
        <time>2022-09-14T12:42:44.255Z</time>
      </trkpt>
      <trkpt lat="47.5527" lon="7.83807">
        <ele>317.820254</ele>
        <time>2022-09-14T12:42:51.897Z</time>
      </trkpt>
      <trkpt lat="47.55271" lon="7.83501">
        <ele>314.371849</ele>
        <time>2022-09-14T12:43:37.672Z</time>
      </trkpt>
      <trkpt lat="47.5527" lon="7.83379">
        <ele>312.235559</ele>
        <time>2022-09-14T12:43:54.242Z</time>
      </trkpt>
      <trkpt lat="47.55248" lon="7.83339">
        <ele>311.174033</ele>
        <time>2022-09-14T12:44:01.026Z</time>
      </trkpt>
      <trkpt lat="47.55247" lon="7.8332">
        <ele>310.77045</ele>
        <time>2022-09-14T12:44:03.617Z</time>
      </trkpt>
      <trkpt lat="47.55256" lon="7.83298">
        <ele>310.2388</ele>
        <time>2022-09-14T12:44:06.907Z</time>
      </trkpt>
      <trkpt lat="47.55268" lon="7.83272">
        <ele>309.582445</ele>
        <time>2022-09-14T12:44:11.090Z</time>
      </trkpt>
      <trkpt lat="47.55269" lon="7.8326">
        <ele>309.327446</ele>
        <time>2022-09-14T12:44:12.626Z</time>
      </trkpt>
      <trkpt lat="47.55265" lon="7.83069">
        <ele>305.716477</ele>
        <time>2022-09-14T12:44:37.909Z</time>
      </trkpt>
      <trkpt lat="47.55255" lon="7.82927">
        <ele>303.331669</ele>
        <time>2022-09-14T12:44:57.840Z</time>
      </trkpt>
      <trkpt lat="47.55242" lon="7.82882">
        <ele>302.9409</ele>
        <time>2022-09-14T12:45:05.124Z</time>
      </trkpt>
      <trkpt lat="47.55242" lon="7.82848">
        <ele>302.668236</ele>
        <time>2022-09-14T12:45:10.292Z</time>
      </trkpt>
      <trkpt lat="47.55252" lon="7.82809">
        <ele>302.339437</ele>
        <time>2022-09-14T12:45:16.759Z</time>
      </trkpt>
      <trkpt lat="47.55249" lon="7.82723">
        <ele>301.645763</ele>
        <time>2022-09-14T12:45:30.628Z</time>
      </trkpt>
      <trkpt lat="47.55257" lon="7.82451">
        <ele>300.238685</ele>
        <time>2022-09-14T12:46:14.861Z</time>
      </trkpt>
      <trkpt lat="47.55292" lon="7.82029">
        <ele>298.007927</ele>
        <time>2022-09-14T12:47:22.259Z</time>
      </trkpt>
      <trkpt lat="47.55295" lon="7.81936">
        <ele>297.609522</ele>
        <time>2022-09-14T12:47:37.499Z</time>
      </trkpt>
      <trkpt lat="47.55285" lon="7.81643">
        <ele>297.399326</ele>
        <time>2022-09-14T12:48:29.291Z</time>
      </trkpt>
      <trkpt lat="47.55271" lon="7.81296">
        <ele>298.640085</ele>
        <time>2022-09-14T12:49:39.395Z</time>
      </trkpt>
      <trkpt lat="47.55257" lon="7.81039">
        <ele>299.627852</ele>
        <time>2022-09-14T12:50:29.758Z</time>
      </trkpt>
      <trkpt lat="47.5524" lon="7.80888">
        <ele>300.362199</ele>
        <time>2022-09-14T12:51:01.360Z</time>
      </trkpt>
      <trkpt lat="47.55207" lon="7.80645">
        <ele>300.9834</ele>
        <time>2022-09-14T12:51:51.717Z</time>
      </trkpt>
      <trkpt lat="47.55202" lon="7.80631">
        <ele>301.012244</ele>
        <time>2022-09-14T12:51:54.400Z</time>
      </trkpt>
      <trkpt lat="47.55165" lon="7.80625">
        <ele>301.110843</ele>
        <time>2022-09-14T12:52:03.440Z</time>
      </trkpt>
      <trkpt lat="47.55172" lon="7.805">
        <ele>300.371586</ele>
        <time>2022-09-14T12:52:24.015Z</time>
      </trkpt>
      <trkpt lat="47.55173" lon="7.80467">
        <ele>300.16567</ele>
        <time>2022-09-14T12:52:29.536Z</time>
      </trkpt>
      <trkpt lat="47.55174" lon="7.80447">
        <ele>300.044594</ele>
        <time>2022-09-14T12:52:32.538Z</time>
      </trkpt>
      <trkpt lat="47.55169" lon="7.80351">
        <ele>299.444963</ele>
        <time>2022-09-14T12:52:47.954Z</time>
      </trkpt>
      <trkpt lat="47.55175" lon="7.80337">
        <ele>299.343768</ele>
        <time>2022-09-14T12:52:50.584Z</time>
      </trkpt>
      <trkpt lat="47.55174" lon="7.80328">
        <ele>299.287295</ele>
        <time>2022-09-14T12:52:52.137Z</time>
      </trkpt>
      <trkpt lat="47.55173" lon="7.80313">
        <ele>299.193947</ele>
        <time>2022-09-14T12:52:54.684Z</time>
      </trkpt>
      <trkpt lat="47.55169" lon="7.80239">
        <ele>298.746287</ele>
        <time>2022-09-14T12:53:07.087Z</time>
      </trkpt>
      <trkpt lat="47.55167" lon="7.80185">
        <ele>298.415844</ele>
        <time>2022-09-14T12:53:16.260Z</time>
      </trkpt>
      <trkpt lat="47.55167" lon="7.80144">
        <ele>298.162705</ele>
        <time>2022-09-14T12:53:23.063Z</time>
      </trkpt>
      <trkpt lat="47.55171" lon="7.80025">
        <ele>296.510188</ele>
        <time>2022-09-14T12:53:40.595Z</time>
      </trkpt>
      <trkpt lat="47.55179" lon="7.79943">
        <ele>294.8513</ele>
        <time>2022-09-14T12:53:51.576Z</time>
      </trkpt>
      <trkpt lat="47.55208" lon="7.79808">
        <ele>291.740267</ele>
        <time>2022-09-14T12:54:09.866Z</time>
      </trkpt>
      <trkpt lat="47.55217" lon="7.79803">
        <ele>291.30447</ele>
        <time>2022-09-14T12:54:11.577Z</time>
      </trkpt>
      <trkpt lat="47.55231" lon="7.79764">
        <ele>289.954437</ele>
        <time>2022-09-14T12:54:16.975Z</time>
      </trkpt>
      <trkpt lat="47.55239" lon="7.79745">
        <ele>289.25149</ele>
        <time>2022-09-14T12:54:19.681Z</time>
      </trkpt>
      <trkpt lat="47.55292" lon="7.79623">
        <ele>284.76789</ele>
        <time>2022-09-14T12:54:37.601Z</time>
      </trkpt>
      <trkpt lat="47.55296" lon="7.79622">
        <ele>284.581509</ele>
        <time>2022-09-14T12:54:38.275Z</time>
      </trkpt>
      <trkpt lat="47.55306" lon="7.79601">
        <ele>283.841207</ele>
        <time>2022-09-14T12:54:41.797Z</time>
      </trkpt>
      <trkpt lat="47.55329" lon="7.79577">
        <ele>282.780186</ele>
        <time>2022-09-14T12:54:47.141Z</time>
      </trkpt>
      <trkpt lat="47.55326" lon="7.7957">
        <ele>282.564904</ele>
        <time>2022-09-14T12:54:48.211Z</time>
      </trkpt>
      <trkpt lat="47.55358" lon="7.79546">
        <ele>281.161645</ele>
        <time>2022-09-14T12:54:55.346Z</time>
      </trkpt>
      <trkpt lat="47.55363" lon="7.79541">
        <ele>280.936371</ele>
        <time>2022-09-14T12:54:56.511Z</time>
      </trkpt>
      <trkpt lat="47.5537" lon="7.79531">
        <ele>280.54849</ele>
        <time>2022-09-14T12:54:58.542Z</time>
      </trkpt>
      <trkpt lat="47.55373" lon="7.79528">
        <ele>280.425962</ele>
        <time>2022-09-14T12:54:59.109Z</time>
      </trkpt>
      <trkpt lat="47.55377" lon="7.7952">
        <ele>280.137951</ele>
        <time>2022-09-14T12:55:00.505Z</time>
      </trkpt>
      <trkpt lat="47.55385" lon="7.79504">
        <ele>279.623817</ele>
        <time>2022-09-14T12:55:03.133Z</time>
      </trkpt>
      <trkpt lat="47.55388" lon="7.79495">
        <ele>279.350534</ele>
        <time>2022-09-14T12:55:04.533Z</time>
      </trkpt>
      <trkpt lat="47.55393" lon="7.79481">
        <ele>278.950062</ele>
        <time>2022-09-14T12:55:06.478Z</time>
      </trkpt>
      <trkpt lat="47.554" lon="7.79482">
        <ele>278.660665</ele>
        <time>2022-09-14T12:55:07.975Z</time>
      </trkpt>
      <trkpt lat="47.55425" lon="7.79482">
        <ele>277.689767</ele>
        <time>2022-09-14T12:55:13.075Z</time>
      </trkpt>
      <trkpt lat="47.5545" lon="7.79472">
        <ele>276.96894</ele>
        <time>2022-09-14T12:55:18.395Z</time>
      </trkpt>
      <trkpt lat="47.55486" lon="7.7946">
        <ele>276.204028</ele>
        <time>2022-09-14T12:55:26.575Z</time>
      </trkpt>
      <trkpt lat="47.55501" lon="7.79455">
        <ele>275.899794</ele>
        <time>2022-09-14T12:55:29.961Z</time>
      </trkpt>
      <trkpt lat="47.55529" lon="7.7945">
        <ele>275.332787</ele>
        <time>2022-09-14T12:55:36.313Z</time>
      </trkpt>
      <trkpt lat="47.55529" lon="7.79432">
        <ele>275.089309</ele>
        <time>2022-09-14T12:55:39.144Z</time>
      </trkpt>
      <trkpt lat="47.55528" lon="7.79403">
        <ele>274.700648</ele>
        <time>2022-09-14T12:55:43.525Z</time>
      </trkpt>
      <trkpt lat="47.55528" lon="7.79396">
        <ele>274.592568</ele>
        <time>2022-09-14T12:55:44.705Z</time>
      </trkpt>
      <trkpt lat="47.55527" lon="7.79342">
        <ele>273.86473</ele>
        <time>2022-09-14T12:55:52.974Z</time>
      </trkpt>
      <trkpt lat="47.55524" lon="7.79273">
        <ele>272.809736</ele>
        <time>2022-09-14T12:56:03.439Z</time>
      </trkpt>
      <trkpt lat="47.55513" lon="7.79231">
        <ele>272.08417</ele>
        <time>2022-09-14T12:56:10.240Z</time>
      </trkpt>
      <trkpt lat="47.55509" lon="7.79216">
        <ele>271.835135</ele>
        <time>2022-09-14T12:56:12.582Z</time>
      </trkpt>
      <trkpt lat="47.55491" lon="7.79146">
        <ele>270.644943</ele>
        <time>2022-09-14T12:56:23.598Z</time>
      </trkpt>
      <trkpt lat="47.55476" lon="7.7909">
        <ele>269.681139</ele>
        <time>2022-09-14T12:56:32.164Z</time>
      </trkpt>
      <trkpt lat="47.55487" lon="7.79068">
        <ele>269.295737</ele>
        <time>2022-09-14T12:56:35.939Z</time>
      </trkpt>
      <trkpt lat="47.55503" lon="7.78989">
        <ele>268.491108</ele>
        <time>2022-09-14T12:56:47.166Z</time>
      </trkpt>
      <trkpt lat="47.55505" lon="7.78977">
        <ele>268.366866</ele>
        <time>2022-09-14T12:56:48.905Z</time>
      </trkpt>
      <trkpt lat="47.55509" lon="7.78969">
        <ele>268.26999</ele>
        <time>2022-09-14T12:56:50.287Z</time>
      </trkpt>
      <trkpt lat="47.55594" lon="7.78883">
        <ele>266.77701</ele>
        <time>2022-09-14T12:57:15.381Z</time>
      </trkpt>
      <trkpt lat="47.55611" lon="7.78854">
        <ele>267.587247</ele>
        <time>2022-09-14T12:57:24.857Z</time>
      </trkpt>
      <trkpt lat="47.55614" lon="7.78849">
        <ele>267.723478</ele>
        <time>2022-09-14T12:57:26.587Z</time>
      </trkpt>
      <trkpt lat="47.55625" lon="7.78827">
        <ele>268.331667</ele>
        <time>2022-09-14T12:57:34.151Z</time>
      </trkpt>
      <trkpt lat="47.55636" lon="7.78806">
        <ele>268.919584</ele>
        <time>2022-09-14T12:57:41.787Z</time>
      </trkpt>
      <trkpt lat="47.55666" lon="7.78747">
        <ele>270.556622</ele>
        <time>2022-09-14T12:58:04.332Z</time>
      </trkpt>
      <trkpt lat="47.55678" lon="7.78721">
        <ele>271.264995</ele>
        <time>2022-09-14T12:58:14.558Z</time>
      </trkpt>
      <trkpt lat="47.55692" lon="7.78694">
        <ele>271.996144</ele>
        <time>2022-09-14T12:58:25.475Z</time>
      </trkpt>
      <trkpt lat="47.55702" lon="7.7868">
        <ele>272.454549</ele>
        <time>2022-09-14T12:58:32.481Z</time>
      </trkpt>
      <trkpt lat="47.55712" lon="7.78664">
        <ele>272.935939</ele>
        <time>2022-09-14T12:58:40.110Z</time>
      </trkpt>
      <trkpt lat="47.55718" lon="7.78664">
        <ele>273.135588</ele>
        <time>2022-09-14T12:58:43.154Z</time>
      </trkpt>
      <trkpt lat="47.55749" lon="7.78659">
        <ele>274.140207</ele>
        <time>2022-09-14T12:58:59.040Z</time>
      </trkpt>
      <trkpt lat="47.55756" lon="7.78658">
        <ele>274.373287</ele>
        <time>2022-09-14T12:59:02.450Z</time>
      </trkpt>
      <trkpt lat="47.55782" lon="7.78649">
        <ele>275.238849</ele>
        <time>2022-09-14T12:59:14.805Z</time>
      </trkpt>
      <trkpt lat="47.5579" lon="7.78643">
        <ele>275.516996</ele>
        <time>2022-09-14T12:59:18.447Z</time>
      </trkpt>
      <trkpt lat="47.55801" lon="7.78635">
        <ele>275.896197</ele>
        <time>2022-09-14T12:59:23.337Z</time>
      </trkpt>
      <trkpt lat="47.55817" lon="7.78617">
        <ele>276.547043</ele>
        <time>2022-09-14T12:59:31.434Z</time>
      </trkpt>
      <trkpt lat="47.55858" lon="7.7856">
        <ele>278.35677</ele>
        <time>2022-09-14T12:59:51.988Z</time>
      </trkpt>
      <trkpt lat="47.55866" lon="7.78543">
        <ele>278.495721</ele>
        <time>2022-09-14T12:59:56.493Z</time>
      </trkpt>
      <trkpt lat="47.55875" lon="7.78522">
        <ele>278.564857</ele>
        <time>2022-09-14T13:00:02.072Z</time>
      </trkpt>
      <trkpt lat="47.55878" lon="7.78513">
        <ele>278.592412</ele>
        <time>2022-09-14T13:00:04.072Z</time>
      </trkpt>
      <trkpt lat="47.55892" lon="7.78482">
        <ele>278.693672</ele>
        <time>2022-09-14T13:00:11.650Z</time>
      </trkpt>
      <trkpt lat="47.55899" lon="7.78467">
        <ele>278.740804</ele>
        <time>2022-09-14T13:00:14.896Z</time>
      </trkpt>
      <trkpt lat="47.5589" lon="7.78447">
        <ele>278.8074</ele>
        <time>2022-09-14T13:00:19.447Z</time>
      </trkpt>
      <trkpt lat="47.55888" lon="7.78435">
        <ele>278.839395</ele>
        <time>2022-09-14T13:00:21.673Z</time>
      </trkpt>
      <trkpt lat="47.55884" lon="7.78408">
        <ele>278.914867</ele>
        <time>2022-09-14T13:00:26.494Z</time>
      </trkpt>
      <trkpt lat="47.55879" lon="7.78378">
        <ele>278.998388</ele>
        <time>2022-09-14T13:00:32.123Z</time>
      </trkpt>
      <trkpt lat="47.55861" lon="7.78269">
        <ele>279.020082</ele>
        <time>2022-09-14T13:00:51.548Z</time>
      </trkpt>
      <trkpt lat="47.55854" lon="7.78209">
        <ele>278.814716</ele>
        <time>2022-09-14T13:01:02.068Z</time>
      </trkpt>
      <trkpt lat="47.55853" lon="7.782">
        <ele>278.785234</ele>
        <time>2022-09-14T13:01:03.550Z</time>
      </trkpt>
      <trkpt lat="47.55849" lon="7.78158">
        <ele>278.642089</ele>
        <time>2022-09-14T13:01:10.560Z</time>
      </trkpt>
      <trkpt lat="47.55848" lon="7.78146">
        <ele>278.602701</ele>
        <time>2022-09-14T13:01:12.418Z</time>
      </trkpt>
      <trkpt lat="47.55842" lon="7.78096">
        <ele>278.431931</ele>
        <time>2022-09-14T13:01:20.512Z</time>
      </trkpt>
      <trkpt lat="47.55841" lon="7.78088">
        <ele>278.406744</ele>
        <time>2022-09-14T13:01:21.742Z</time>
      </trkpt>
      <trkpt lat="47.55837" lon="7.78053">
        <ele>278.287422</ele>
        <time>2022-09-14T13:01:27.486Z</time>
      </trkpt>
      <trkpt lat="47.55809" lon="7.7779">
        <ele>277.187963</ele>
        <time>2022-09-14T13:02:13.567Z</time>
      </trkpt>
      <trkpt lat="47.5578" lon="7.77526">
        <ele>275.442463</ele>
        <time>2022-09-14T13:02:57.587Z</time>
      </trkpt>
      <trkpt lat="47.55772" lon="7.77468">
        <ele>275.074377</ele>
        <time>2022-09-14T13:03:06.943Z</time>
      </trkpt>
      <trkpt lat="47.5575" lon="7.77352">
        <ele>274.3167</ele>
        <time>2022-09-14T13:03:26.163Z</time>
      </trkpt>
      <trkpt lat="47.557" lon="7.77157">
        <ele>273.831714</ele>
        <time>2022-09-14T13:04:02.425Z</time>
      </trkpt>
      <trkpt lat="47.55697" lon="7.77149">
        <ele>273.836314</ele>
        <time>2022-09-14T13:04:04.392Z</time>
      </trkpt>
      <trkpt lat="47.55664" lon="7.77025">
        <ele>273.90121</ele>
        <time>2022-09-14T13:04:31.149Z</time>
      </trkpt>
      <trkpt lat="47.55659" lon="7.77002">
        <ele>274.037637</ele>
        <time>2022-09-14T13:04:36.117Z</time>
      </trkpt>
      <trkpt lat="47.55633" lon="7.76902">
        <ele>274.724024</ele>
        <time>2022-09-14T13:04:59.975Z</time>
      </trkpt>
      <trkpt lat="47.55618" lon="7.76845">
        <ele>275.111176</ele>
        <time>2022-09-14T13:05:13.819Z</time>
      </trkpt>
      <trkpt lat="47.55578" lon="7.76691">
        <ele>276.047372</ele>
        <time>2022-09-14T13:05:49.994Z</time>
      </trkpt>
      <trkpt lat="47.55571" lon="7.76656">
        <ele>276.230906</ele>
        <time>2022-09-14T13:05:57.720Z</time>
      </trkpt>
      <trkpt lat="47.55568" lon="7.76646">
        <ele>276.286942</ele>
        <time>2022-09-14T13:06:00.010Z</time>
      </trkpt>
      <trkpt lat="47.55563" lon="7.76621">
        <ele>276.418328</ele>
        <time>2022-09-14T13:06:05.295Z</time>
      </trkpt>
      <trkpt lat="47.5555" lon="7.76546">
        <ele>276.814933</ele>
        <time>2022-09-14T13:06:20.583Z</time>
      </trkpt>
      <trkpt lat="47.55543" lon="7.765">
        <ele>276.977367</ele>
        <time>2022-09-14T13:06:30.081Z</time>
      </trkpt>
      <trkpt lat="47.55526" lon="7.76354">
        <ele>277.153515</ele>
        <time>2022-09-14T13:06:58.174Z</time>
      </trkpt>
      <trkpt lat="47.55522" lon="7.76305">
        <ele>277.211983</ele>
        <time>2022-09-14T13:07:07.056Z</time>
      </trkpt>
      <trkpt lat="47.55518" lon="7.76251">
        <ele>277.257063</ele>
        <time>2022-09-14T13:07:16.659Z</time>
      </trkpt>
      <trkpt lat="47.55515" lon="7.76214">
        <ele>277.162805</ele>
        <time>2022-09-14T13:07:23.236Z</time>
      </trkpt>
      <trkpt lat="47.55514" lon="7.76195">
        <ele>277.113641</ele>
        <time>2022-09-14T13:07:26.646Z</time>
      </trkpt>
      <trkpt lat="47.55503" lon="7.76019">
        <ele>276.664387</ele>
        <time>2022-09-14T13:07:56.449Z</time>
      </trkpt>
      <trkpt lat="47.55506" lon="7.7578">
        <ele>275.471465</ele>
        <time>2022-09-14T13:08:34.739Z</time>
      </trkpt>
      <trkpt lat="47.55507" lon="7.75702">
        <ele>275.054696</ele>
        <time>2022-09-14T13:08:47.068Z</time>
      </trkpt>
      <trkpt lat="47.55507" lon="7.75663">
        <ele>274.840028</ele>
        <time>2022-09-14T13:08:53.326Z</time>
      </trkpt>
      <trkpt lat="47.55491" lon="7.75568">
        <ele>274.314575</ele>
        <time>2022-09-14T13:09:08.720Z</time>
      </trkpt>
      <trkpt lat="47.55445" lon="7.75459">
        <ele>273.682813</ele>
        <time>2022-09-14T13:09:29.663Z</time>
      </trkpt>
      <trkpt lat="47.55418" lon="7.7538">
        <ele>273.473517</ele>
        <time>2022-09-14T13:09:44.334Z</time>
      </trkpt>
      <trkpt lat="47.55408" lon="7.752">
        <ele>273.131999</ele>
        <time>2022-09-14T13:10:15.629Z</time>
      </trkpt>
      <trkpt lat="47.5543" lon="7.75041">
        <ele>273.313237</ele>
        <time>2022-09-14T13:10:45.521Z</time>
      </trkpt>
      <trkpt lat="47.55436" lon="7.74966">
        <ele>273.397165</ele>
        <time>2022-09-14T13:10:59.701Z</time>
      </trkpt>
      <trkpt lat="47.55479" lon="7.74726">
        <ele>274.348092</ele>
        <time>2022-09-14T13:11:49.112Z</time>
      </trkpt>
      <trkpt lat="47.55487" lon="7.74567">
        <ele>274.891591</ele>
        <time>2022-09-14T13:12:21.743Z</time>
      </trkpt>
      <trkpt lat="47.55509" lon="7.74494">
        <ele>275.158093</ele>
        <time>2022-09-14T13:12:37.213Z</time>
      </trkpt>
      <trkpt lat="47.55523" lon="7.74466">
        <ele>275.271503</ele>
        <time>2022-09-14T13:12:43.734Z</time>
      </trkpt>
      <trkpt lat="47.5555" lon="7.74427">
        <ele>275.294181</ele>
        <time>2022-09-14T13:12:53.939Z</time>
      </trkpt>
      <trkpt lat="47.55566" lon="7.74392">
        <ele>275.266236</ele>
        <time>2022-09-14T13:13:01.469Z</time>
      </trkpt>
      <trkpt lat="47.55611" lon="7.74153">
        <ele>275.302818</ele>
        <time>2022-09-14T13:13:44.484Z</time>
      </trkpt>
      <trkpt lat="47.5562" lon="7.74023">
        <ele>275.617435</ele>
        <time>2022-09-14T13:14:10.053Z</time>
      </trkpt>
      <trkpt lat="47.55649" lon="7.73941">
        <ele>275.927008</ele>
        <time>2022-09-14T13:14:28.804Z</time>
      </trkpt>
      <trkpt lat="47.55643" lon="7.73856">
        <ele>276.470713</ele>
        <time>2022-09-14T13:14:46.580Z</time>
      </trkpt>
      <trkpt lat="47.55642" lon="7.73836">
        <ele>276.594768</ele>
        <time>2022-09-14T13:14:50.745Z</time>
      </trkpt>
      <trkpt lat="47.55642" lon="7.73788">
        <ele>276.899073</ele>
        <time>2022-09-14T13:15:01.375Z</time>
      </trkpt>
      <trkpt lat="47.55645" lon="7.73756">
        <ele>277.102871</ele>
        <time>2022-09-14T13:15:08.517Z</time>
      </trkpt>
      <trkpt lat="47.55649" lon="7.73723">
        <ele>277.314198</ele>
        <time>2022-09-14T13:15:15.574Z</time>
      </trkpt>
      <trkpt lat="47.55658" lon="7.73676">
        <ele>277.600121</ele>
        <time>2022-09-14T13:15:25.698Z</time>
      </trkpt>
      <trkpt lat="47.55666" lon="7.73653">
        <ele>277.741106</ele>
        <time>2022-09-14T13:15:31.252Z</time>
      </trkpt>
      <trkpt lat="47.55687" lon="7.73555">
        <ele>278.283351</ele>
        <time>2022-09-14T13:15:51.997Z</time>
      </trkpt>
      <trkpt lat="47.55694" lon="7.735">
        <ele>278.581574</ele>
        <time>2022-09-14T13:16:03.574Z</time>
      </trkpt>
      <trkpt lat="47.55696" lon="7.73464">
        <ele>278.774692</ele>
        <time>2022-09-14T13:16:11.133Z</time>
      </trkpt>
      <trkpt lat="47.55691" lon="7.73398">
        <ele>279.058821</ele>
        <time>2022-09-14T13:16:24.847Z</time>
      </trkpt>
      <trkpt lat="47.55678" lon="7.73315">
        <ele>279.378804</ele>
        <time>2022-09-14T13:16:41.215Z</time>
      </trkpt>
      <trkpt lat="47.55677" lon="7.73307">
        <ele>279.408373</ele>
        <time>2022-09-14T13:16:42.739Z</time>
      </trkpt>
      <trkpt lat="47.5567" lon="7.7326">
        <ele>279.59165</ele>
        <time>2022-09-14T13:16:52.445Z</time>
      </trkpt>
      <trkpt lat="47.5567" lon="7.73253">
        <ele>279.61879</ele>
        <time>2022-09-14T13:16:53.904Z</time>
      </trkpt>
      <trkpt lat="47.5566" lon="7.7312">
        <ele>279.905173</ele>
        <time>2022-09-14T13:17:20.147Z</time>
      </trkpt>
      <trkpt lat="47.55643" lon="7.73048">
        <ele>279.91934</ele>
        <time>2022-09-14T13:17:34.815Z</time>
      </trkpt>
      <trkpt lat="47.55636" lon="7.73017">
        <ele>279.925229</ele>
        <time>2022-09-14T13:17:40.404Z</time>
      </trkpt>
      <trkpt lat="47.55623" lon="7.72985">
        <ele>279.932197</ele>
        <time>2022-09-14T13:17:47.009Z</time>
      </trkpt>
      <trkpt lat="47.55598" lon="7.72964">
        <ele>279.939903</ele>
        <time>2022-09-14T13:17:54.095Z</time>
      </trkpt>
      <trkpt lat="47.55531" lon="7.72926">
        <ele>279.371002</ele>
        <time>2022-09-14T13:18:11.511Z</time>
      </trkpt>
      <trkpt lat="47.5545" lon="7.72879">
        <ele>278.543172</ele>
        <time>2022-09-14T13:18:31.127Z</time>
      </trkpt>
      <trkpt lat="47.55455" lon="7.72862">
        <ele>278.423575</ele>
        <time>2022-09-14T13:18:34.013Z</time>
      </trkpt>
      <trkpt lat="47.5543" lon="7.72854">
        <ele>278.184375</ele>
        <time>2022-09-14T13:18:39.840Z</time>
      </trkpt>
      <trkpt lat="47.55384" lon="7.72812">
        <ele>277.737691</ele>
        <time>2022-09-14T13:18:52.233Z</time>
      </trkpt>
      <trkpt lat="47.55325" lon="7.72755">
        <ele>277.156433</ele>
        <time>2022-09-14T13:19:08.951Z</time>
      </trkpt>
      <trkpt lat="47.55303" lon="7.72711">
        <ele>276.848957</ele>
        <time>2022-09-14T13:19:18.019Z</time>
      </trkpt>
      <trkpt lat="47.55233" lon="7.72524">
        <ele>276.069124</ele>
        <time>2022-09-14T13:19:53.444Z</time>
      </trkpt>
      <trkpt lat="47.55209" lon="7.72449">
        <ele>275.811512</ele>
        <time>2022-09-14T13:20:07.273Z</time>
      </trkpt>
      <trkpt lat="47.55182" lon="7.72327">
        <ele>275.726943</ele>
        <time>2022-09-14T13:20:29.595Z</time>
      </trkpt>
      <trkpt lat="47.55162" lon="7.72264">
        <ele>275.681079</ele>
        <time>2022-09-14T13:20:42.131Z</time>
      </trkpt>
      <trkpt lat="47.55106" lon="7.72116">
        <ele>275.791716</ele>
        <time>2022-09-14T13:21:13.530Z</time>
      </trkpt>
      <trkpt lat="47.55091" lon="7.72057">
        <ele>275.874704</ele>
        <time>2022-09-14T13:21:25.299Z</time>
      </trkpt>
      <trkpt lat="47.55095" lon="7.71959">
        <ele>276.013388</ele>
        <time>2022-09-14T13:21:43.965Z</time>
      </trkpt>
      <trkpt lat="47.5509" lon="7.71926">
        <ele>276.091088</ele>
        <time>2022-09-14T13:21:50.130Z</time>
      </trkpt>
      <trkpt lat="47.55026" lon="7.71713">
        <ele>276.626232</ele>
        <time>2022-09-14T13:22:34.601Z</time>
      </trkpt>
      <trkpt lat="47.55007" lon="7.71611">
        <ele>276.789471</ele>
        <time>2022-09-14T13:22:55.817Z</time>
      </trkpt>
      <trkpt lat="47.54991" lon="7.7151">
        <ele>276.947802</ele>
        <time>2022-09-14T13:23:15.057Z</time>
      </trkpt>
      <trkpt lat="47.54964" lon="7.71416">
        <ele>276.804496</ele>
        <time>2022-09-14T13:23:33.114Z</time>
      </trkpt>
      <trkpt lat="47.54949" lon="7.71361">
        <ele>276.550911</ele>
        <time>2022-09-14T13:23:42.982Z</time>
      </trkpt>
      <trkpt lat="47.54896" lon="7.71247">
        <ele>275.965127</ele>
        <time>2022-09-14T13:24:04.686Z</time>
      </trkpt>
      <trkpt lat="47.54872" lon="7.71168">
        <ele>275.660035</ele>
        <time>2022-09-14T13:24:18.360Z</time>
      </trkpt>
      <trkpt lat="47.54797" lon="7.70829">
        <ele>274.533775</ele>
        <time>2022-09-14T13:25:19.700Z</time>
      </trkpt>
      <trkpt lat="47.54777" lon="7.70649">
        <ele>273.75629</ele>
        <time>2022-09-14T13:25:49.382Z</time>
      </trkpt>
      <trkpt lat="47.54778" lon="7.70639">
        <ele>273.690632</ele>
        <time>2022-09-14T13:25:51.065Z</time>
      </trkpt>
      <trkpt lat="47.54778" lon="7.70628">
        <ele>273.627451</ele>
        <time>2022-09-14T13:25:52.688Z</time>
      </trkpt>
      <trkpt lat="47.54772" lon="7.70608">
        <ele>273.495812</ele>
        <time>2022-09-14T13:25:55.990Z</time>
      </trkpt>
      <trkpt lat="47.54765" lon="7.70617">
        <ele>273.411299</ele>
        <time>2022-09-14T13:25:58.350Z</time>
      </trkpt>
      <trkpt lat="47.54728" lon="7.70576">
        <ele>273.000807</ele>
        <time>2022-09-14T13:26:08.791Z</time>
      </trkpt>
      <trkpt lat="47.54718" lon="7.70534">
        <ele>272.729261</ele>
        <time>2022-09-14T13:26:15.634Z</time>
      </trkpt>
      <trkpt lat="47.54713" lon="7.70532">
        <ele>272.680261</ele>
        <time>2022-09-14T13:26:16.852Z</time>
      </trkpt>
      <trkpt lat="47.54707" lon="7.7053">
        <ele>272.623548</ele>
        <time>2022-09-14T13:26:18.273Z</time>
      </trkpt>
      <trkpt lat="47.54704" lon="7.70529">
        <ele>272.60035</ele>
        <time>2022-09-14T13:26:18.900Z</time>
      </trkpt>
      <trkpt lat="47.54698" lon="7.70527">
        <ele>272.599041</ele>
        <time>2022-09-14T13:26:20.354Z</time>
      </trkpt>
      <trkpt lat="47.54706" lon="7.70471">
        <ele>272.591142</ele>
        <time>2022-09-14T13:26:29.465Z</time>
      </trkpt>
      <trkpt lat="47.54739" lon="7.70339">
        <ele>272.571524</ele>
        <time>2022-09-14T13:26:55.839Z</time>
      </trkpt>
      <trkpt lat="47.54761" lon="7.70199">
        <ele>272.767382</ele>
        <time>2022-09-14T13:27:24.849Z</time>
      </trkpt>
      <trkpt lat="47.54773" lon="7.69952">
        <ele>273.456795</ele>
        <time>2022-09-14T13:28:10.815Z</time>
      </trkpt>
      <trkpt lat="47.54781" lon="7.69876">
        <ele>273.756511</ele>
        <time>2022-09-14T13:28:25.676Z</time>
      </trkpt>
      <trkpt lat="47.54785" lon="7.69815">
        <ele>273.996577</ele>
        <time>2022-09-14T13:28:38.182Z</time>
      </trkpt>
      <trkpt lat="47.54807" lon="7.69825">
        <ele>274.128622</ele>
        <time>2022-09-14T13:28:45.689Z</time>
      </trkpt>
      <trkpt lat="47.54822" lon="7.69742">
        <ele>274.510146</ele>
        <time>2022-09-14T13:29:04.305Z</time>
      </trkpt>
      <trkpt lat="47.54831" lon="7.69683">
        <ele>274.793598</ele>
        <time>2022-09-14T13:29:17.860Z</time>
      </trkpt>
      <trkpt lat="47.54842" lon="7.69562">
        <ele>275.362354</ele>
        <time>2022-09-14T13:29:42.383Z</time>
      </trkpt>
      <trkpt lat="47.54843" lon="7.69543">
        <ele>275.447511</ele>
        <time>2022-09-14T13:29:45.759Z</time>
      </trkpt>
      <trkpt lat="47.54845" lon="7.69515">
        <ele>275.458868</ele>
        <time>2022-09-14T13:29:50.645Z</time>
      </trkpt>
      <trkpt lat="47.54859" lon="7.69432">
        <ele>275.373067</ele>
        <time>2022-09-14T13:30:04.696Z</time>
      </trkpt>
      <trkpt lat="47.54864" lon="7.69404">
        <ele>275.34382</ele>
        <time>2022-09-14T13:30:09.319Z</time>
      </trkpt>
      <trkpt lat="47.54878" lon="7.69347">
        <ele>275.281272</ele>
        <time>2022-09-14T13:30:19.951Z</time>
      </trkpt>
      <trkpt lat="47.54898" lon="7.693">
        <ele>275.22611</ele>
        <time>2022-09-14T13:30:29.806Z</time>
      </trkpt>
      <trkpt lat="47.54925" lon="7.69247">
        <ele>275.378729</ele>
        <time>2022-09-14T13:30:42.719Z</time>
      </trkpt>
      <trkpt lat="47.54933" lon="7.69232">
        <ele>275.440451</ele>
        <time>2022-09-14T13:30:46.185Z</time>
      </trkpt>
      <trkpt lat="47.54969" lon="7.69146">
        <ele>275.765571</ele>
        <time>2022-09-14T13:31:06.538Z</time>
      </trkpt>
      <trkpt lat="47.5497" lon="7.69144">
        <ele>275.774663</ele>
        <time>2022-09-14T13:31:07.076Z</time>
      </trkpt>
      <trkpt lat="47.5498" lon="7.69119">
        <ele>275.866634</ele>
        <time>2022-09-14T13:31:12.887Z</time>
      </trkpt>
      <trkpt lat="47.55011" lon="7.69071">
        <ele>276.071146</ele>
        <time>2022-09-14T13:31:26.280Z</time>
      </trkpt>
      <trkpt lat="47.55048" lon="7.69032">
        <ele>276.091139</ele>
        <time>2022-09-14T13:31:39.409Z</time>
      </trkpt>
      <trkpt lat="47.55058" lon="7.69021">
        <ele>276.09688</ele>
        <time>2022-09-14T13:31:43.064Z</time>
      </trkpt>
      <trkpt lat="47.55075" lon="7.69003">
        <ele>276.106297</ele>
        <time>2022-09-14T13:31:49.043Z</time>
      </trkpt>
      <trkpt lat="47.5509" lon="7.68983">
        <ele>276.115258</ele>
        <time>2022-09-14T13:31:54.516Z</time>
      </trkpt>
      <trkpt lat="47.55107" lon="7.68947">
        <ele>276.12853</ele>
        <time>2022-09-14T13:32:02.342Z</time>
      </trkpt>
      <trkpt lat="47.55123" lon="7.68847">
        <ele>275.954832</ele>
        <time>2022-09-14T13:32:19.304Z</time>
      </trkpt>
      <trkpt lat="47.55136" lon="7.68749">
        <ele>275.319526</ele>
        <time>2022-09-14T13:32:34.961Z</time>
      </trkpt>
      <trkpt lat="47.55145" lon="7.68704">
        <ele>275.01957</ele>
        <time>2022-09-14T13:32:42.282Z</time>
      </trkpt>
      <trkpt lat="47.55151" lon="7.68665">
        <ele>274.760703</ele>
        <time>2022-09-14T13:32:48.502Z</time>
      </trkpt>
      <trkpt lat="47.55156" lon="7.68637">
        <ele>274.575666</ele>
        <time>2022-09-14T13:32:52.958Z</time>
      </trkpt>
      <trkpt lat="47.55161" lon="7.68604">
        <ele>274.33275</ele>
        <time>2022-09-14T13:32:58.292Z</time>
      </trkpt>
      <trkpt lat="47.55172" lon="7.68521">
        <ele>273.631904</ele>
        <time>2022-09-14T13:33:11.120Z</time>
      </trkpt>
      <trkpt lat="47.55173" lon="7.68454">
        <ele>273.075254</ele>
        <time>2022-09-14T13:33:21.088Z</time>
      </trkpt>
      <trkpt lat="47.55178" lon="7.68451">
        <ele>273.009769</ele>
        <time>2022-09-14T13:33:22.328Z</time>
      </trkpt>
      <trkpt lat="47.55141" lon="7.68278">
        <ele>271.498521</ele>
        <time>2022-09-14T13:33:50.371Z</time>
      </trkpt>
      <trkpt lat="47.55114" lon="7.68105">
        <ele>270.005008</ele>
        <time>2022-09-14T13:34:17.309Z</time>
      </trkpt>
      <trkpt lat="47.55115" lon="7.68073">
        <ele>269.585822</ele>
        <time>2022-09-14T13:34:22.118Z</time>
      </trkpt>
      <trkpt lat="47.55121" lon="7.68044">
        <ele>269.194715</ele>
        <time>2022-09-14T13:34:26.456Z</time>
      </trkpt>
      <trkpt lat="47.55128" lon="7.68031">
        <ele>268.967349</ele>
        <time>2022-09-14T13:34:29.006Z</time>
      </trkpt>
      <trkpt lat="47.55127" lon="7.68014">
        <ele>268.749139</ele>
        <time>2022-09-14T13:34:31.420Z</time>
      </trkpt>
      <trkpt lat="47.55127" lon="7.68">
        <ele>268.560367</ele>
        <time>2022-09-14T13:34:33.478Z</time>
      </trkpt>
      <trkpt lat="47.55116" lon="7.67992">
        <ele>268.333437</ele>
        <time>2022-09-14T13:34:35.973Z</time>
      </trkpt>
      <trkpt lat="47.55144" lon="7.67736">
        <ele>265.034544</ele>
        <time>2022-09-14T13:35:12.374Z</time>
      </trkpt>
      <trkpt lat="47.5515" lon="7.67657">
        <ele>264.061448</ele>
        <time>2022-09-14T13:35:23.899Z</time>
      </trkpt>
      <trkpt lat="47.55147" lon="7.67553">
        <ele>263.080331</ele>
        <time>2022-09-14T13:35:39.455Z</time>
      </trkpt>
      <trkpt lat="47.55114" lon="7.67296">
        <ele>262.026528</ele>
        <time>2022-09-14T13:36:23.043Z</time>
      </trkpt>
      <trkpt lat="47.55129" lon="7.66996">
        <ele>261.70238</ele>
        <time>2022-09-14T13:37:16.519Z</time>
      </trkpt>
      <trkpt lat="47.5513" lon="7.66965">
        <ele>261.677317</ele>
        <time>2022-09-14T13:37:22.281Z</time>
      </trkpt>
      <trkpt lat="47.55127" lon="7.66954">
        <ele>261.666983</ele>
        <time>2022-09-14T13:37:24.284Z</time>
      </trkpt>
      <trkpt lat="47.55127" lon="7.66862">
        <ele>261.591838</ele>
        <time>2022-09-14T13:37:40.489Z</time>
      </trkpt>
      <trkpt lat="47.55121" lon="7.66861">
        <ele>261.585247</ele>
        <time>2022-09-14T13:37:41.659Z</time>
      </trkpt>
      <trkpt lat="47.55121" lon="7.66822">
        <ele>261.553732</ele>
        <time>2022-09-14T13:37:48.650Z</time>
      </trkpt>
      <trkpt lat="47.55121" lon="7.66799">
        <ele>261.536086</ele>
        <time>2022-09-14T13:37:52.488Z</time>
      </trkpt>
      <trkpt lat="47.55125" lon="7.66697">
        <ele>261.480304</ele>
        <time>2022-09-14T13:38:11.081Z</time>
      </trkpt>
      <trkpt lat="47.55132" lon="7.66634">
        <ele>261.445474</ele>
        <time>2022-09-14T13:38:22.981Z</time>
      </trkpt>
      <trkpt lat="47.55137" lon="7.66607">
        <ele>261.430472</ele>
        <time>2022-09-14T13:38:28.067Z</time>
      </trkpt>
      <trkpt lat="47.55149" lon="7.66555">
        <ele>261.400035</ele>
        <time>2022-09-14T13:38:37.572Z</time>
      </trkpt>
      <trkpt lat="47.55151" lon="7.66547">
        <ele>261.395339</ele>
        <time>2022-09-14T13:38:39.002Z</time>
      </trkpt>
      <trkpt lat="47.55164" lon="7.66504">
        <ele>261.360132</ele>
        <time>2022-09-14T13:38:46.808Z</time>
      </trkpt>
      <trkpt lat="47.55186" lon="7.66444">
        <ele>261.308974</ele>
        <time>2022-09-14T13:38:58.302Z</time>
      </trkpt>
      <trkpt lat="47.55201" lon="7.66407">
        <ele>261.275798</ele>
        <time>2022-09-14T13:39:06.044Z</time>
      </trkpt>
      <trkpt lat="47.55228" lon="7.6633">
        <ele>261.209236</ele>
        <time>2022-09-14T13:39:22.162Z</time>
      </trkpt>
      <trkpt lat="47.55234" lon="7.66302">
        <ele>261.197201</ele>
        <time>2022-09-14T13:39:27.450Z</time>
      </trkpt>
      <trkpt lat="47.55248" lon="7.66249">
        <ele>261.281807</ele>
        <time>2022-09-14T13:39:37.639Z</time>
      </trkpt>
      <trkpt lat="47.55251" lon="7.66238">
        <ele>261.299729</ele>
        <time>2022-09-14T13:39:39.879Z</time>
      </trkpt>
      <trkpt lat="47.55263" lon="7.66195">
        <ele>261.371222</ele>
        <time>2022-09-14T13:39:48.559Z</time>
      </trkpt>
      <trkpt lat="47.55274" lon="7.66143">
        <ele>261.453814</ele>
        <time>2022-09-14T13:39:58.831Z</time>
      </trkpt>
      <trkpt lat="47.55276" lon="7.66126">
        <ele>261.479397</ele>
        <time>2022-09-14T13:40:02.216Z</time>
      </trkpt>
      <trkpt lat="47.55278" lon="7.6611">
        <ele>261.503371</ele>
        <time>2022-09-14T13:40:05.178Z</time>
      </trkpt>
      <trkpt lat="47.55285" lon="7.66059">
        <ele>261.582516</ele>
        <time>2022-09-14T13:40:15.322Z</time>
      </trkpt>
      <trkpt lat="47.55294" lon="7.65977">
        <ele>261.59357</ele>
        <time>2022-09-14T13:40:31.216Z</time>
      </trkpt>
      <trkpt lat="47.55302" lon="7.65908">
        <ele>261.594263</ele>
        <time>2022-09-14T13:40:43.962Z</time>
      </trkpt>
      <trkpt lat="47.55303" lon="7.65902">
        <ele>261.594325</ele>
        <time>2022-09-14T13:40:45.028Z</time>
      </trkpt>
      <trkpt lat="47.55305" lon="7.65884">
        <ele>261.594508</ele>
        <time>2022-09-14T13:40:48.243Z</time>
      </trkpt>
      <trkpt lat="47.55311" lon="7.65846">
        <ele>261.594891</ele>
        <time>2022-09-14T13:40:54.905Z</time>
      </trkpt>
      <trkpt lat="47.55318" lon="7.65791">
        <ele>261.595442</ele>
        <time>2022-09-14T13:41:04.567Z</time>
      </trkpt>
      <trkpt lat="47.55327" lon="7.65728">
        <ele>261.412742</ele>
        <time>2022-09-14T13:41:15.577Z</time>
      </trkpt>
      <trkpt lat="47.55342" lon="7.6563">
        <ele>261.125103</ele>
        <time>2022-09-14T13:41:32.388Z</time>
      </trkpt>
      <trkpt lat="47.55343" lon="7.65618">
        <ele>261.089998</ele>
        <time>2022-09-14T13:41:34.443Z</time>
      </trkpt>
      <trkpt lat="47.55355" lon="7.65515">
        <ele>260.794444</ele>
        <time>2022-09-14T13:41:51.734Z</time>
      </trkpt>
      <trkpt lat="47.55379" lon="7.65379">
        <ele>260.421141</ele>
        <time>2022-09-14T13:42:15.373Z</time>
      </trkpt>
      <trkpt lat="47.55394" lon="7.65308">
        <ele>260.223508</ele>
        <time>2022-09-14T13:42:28.183Z</time>
      </trkpt>
      <trkpt lat="47.55408" lon="7.65242">
        <ele>260.036828</ele>
        <time>2022-09-14T13:42:39.875Z</time>
      </trkpt>
      <trkpt lat="47.55422" lon="7.65164">
        <ele>259.809695</ele>
        <time>2022-09-14T13:42:53.789Z</time>
      </trkpt>
      <trkpt lat="47.55446" lon="7.65033">
        <ele>259.429415</ele>
        <time>2022-09-14T13:43:16.200Z</time>
      </trkpt>
      <trkpt lat="47.55464" lon="7.64986">
        <ele>259.39836</ele>
        <time>2022-09-14T13:43:25.361Z</time>
      </trkpt>
      <trkpt lat="47.55496" lon="7.64925">
        <ele>259.445311</ele>
        <time>2022-09-14T13:43:38.424Z</time>
      </trkpt>
      <trkpt lat="47.55517" lon="7.64883">
        <ele>259.47693</ele>
        <time>2022-09-14T13:43:47.614Z</time>
      </trkpt>
      <trkpt lat="47.55535" lon="7.64847">
        <ele>259.504</ele>
        <time>2022-09-14T13:43:55.887Z</time>
      </trkpt>
      <trkpt lat="47.55615" lon="7.64685">
        <ele>261.196381</ele>
        <time>2022-09-14T13:44:39.642Z</time>
      </trkpt>
      <trkpt lat="47.55636" lon="7.64643">
        <ele>261.797068</ele>
        <time>2022-09-14T13:44:52.855Z</time>
      </trkpt>
      <trkpt lat="47.55639" lon="7.64623">
        <ele>262.035251</ele>
        <time>2022-09-14T13:44:57.870Z</time>
      </trkpt>
      <trkpt lat="47.55648" lon="7.64619">
        <ele>262.189038</ele>
        <time>2022-09-14T13:45:01.813Z</time>
      </trkpt>
      <trkpt lat="47.55762" lon="7.64451">
        <ele>265.110333</ele>
        <time>2022-09-14T13:46:03.998Z</time>
      </trkpt>
      <trkpt lat="47.55834" lon="7.64336">
        <ele>265.14015</ele>
        <time>2022-09-14T13:46:33.377Z</time>
      </trkpt>
      <trkpt lat="47.55849" lon="7.64301">
        <ele>264.797386</ele>
        <time>2022-09-14T13:46:39.422Z</time>
      </trkpt>
      <trkpt lat="47.55859" lon="7.64292">
        <ele>264.653704</ele>
        <time>2022-09-14T13:46:42.593Z</time>
      </trkpt>
      <trkpt lat="47.55858" lon="7.64282">
        <ele>264.576454</ele>
        <time>2022-09-14T13:46:43.808Z</time>
      </trkpt>
      <trkpt lat="47.55915" lon="7.64221">
        <ele>263.724774</ele>
        <time>2022-09-14T13:46:58.295Z</time>
      </trkpt>
      <trkpt lat="47.55912" lon="7.64213">
        <ele>263.596457</ele>
        <time>2022-09-14T13:46:59.429Z</time>
      </trkpt>
      <trkpt lat="47.55905" lon="7.64201">
        <ele>263.362793</ele>
        <time>2022-09-14T13:47:01.556Z</time>
      </trkpt>
      <trkpt lat="47.55903" lon="7.64194">
        <ele>263.245305</ele>
        <time>2022-09-14T13:47:02.514Z</time>
      </trkpt>
      <trkpt lat="47.55917" lon="7.64177">
        <ele>262.835363</ele>
        <time>2022-09-14T13:47:06.368Z</time>
      </trkpt>
      <trkpt lat="47.55915" lon="7.64167">
        <ele>262.693592</ele>
        <time>2022-09-14T13:47:07.578Z</time>
      </trkpt>
      <trkpt lat="47.55909" lon="7.64167">
        <ele>262.550741</ele>
        <time>2022-09-14T13:47:08.902Z</time>
      </trkpt>
      <trkpt lat="47.55897" lon="7.6419">
        <ele>262.116423</ele>
        <time>2022-09-14T13:47:12.914Z</time>
      </trkpt>
      <trkpt lat="47.55889" lon="7.64183">
        <ele>261.899068</ele>
        <time>2022-09-14T13:47:14.756Z</time>
      </trkpt>
      <trkpt lat="47.55984" lon="7.64026">
        <ele>259.293905</ele>
        <time>2022-09-14T13:47:45.156Z</time>
      </trkpt>
      <trkpt lat="47.56025" lon="7.63959">
        <ele>258.723139</ele>
        <time>2022-09-14T13:47:59.769Z</time>
      </trkpt>
      <trkpt lat="47.5609" lon="7.63844">
        <ele>257.887586</ele>
        <time>2022-09-14T13:48:24.418Z</time>
      </trkpt>
      <trkpt lat="47.56118" lon="7.63786">
        <ele>257.646295</ele>
        <time>2022-09-14T13:48:37.025Z</time>
      </trkpt>
      <trkpt lat="47.56182" lon="7.63651">
        <ele>257.057315</ele>
        <time>2022-09-14T13:49:04.459Z</time>
      </trkpt>
      <trkpt lat="47.56201" lon="7.63601">
        <ele>256.695622</ele>
        <time>2022-09-14T13:49:13.229Z</time>
      </trkpt>
      <trkpt lat="47.56219" lon="7.63527">
        <ele>256.196338</ele>
        <time>2022-09-14T13:49:25.747Z</time>
      </trkpt>
      <trkpt lat="47.56221" lon="7.63516">
        <ele>256.121451</ele>
        <time>2022-09-14T13:49:27.571Z</time>
      </trkpt>
      <trkpt lat="47.56228" lon="7.63487">
        <ele>255.925062</ele>
        <time>2022-09-14T13:49:32.575Z</time>
      </trkpt>
      <trkpt lat="47.56229" lon="7.63481">
        <ele>255.889573</ele>
        <time>2022-09-14T13:49:33.522Z</time>
      </trkpt>
      <trkpt lat="47.5623" lon="7.63477">
        <ele>255.861599</ele>
        <time>2022-09-14T13:49:34.280Z</time>
      </trkpt>
      <trkpt lat="47.56236" lon="7.63447">
        <ele>255.661917</ele>
        <time>2022-09-14T13:49:39.156Z</time>
      </trkpt>
      <trkpt lat="47.56256" lon="7.63335">
        <ele>255.137916</ele>
        <time>2022-09-14T13:49:56.788Z</time>
      </trkpt>
      <trkpt lat="47.56263" lon="7.63291">
        <ele>254.975017</ele>
        <time>2022-09-14T13:50:03.456Z</time>
      </trkpt>
      <trkpt lat="47.56268" lon="7.63244">
        <ele>254.800884</ele>
        <time>2022-09-14T13:50:11.380Z</time>
      </trkpt>
      <trkpt lat="47.56273" lon="7.63182">
        <ele>254.573963</ele>
        <time>2022-09-14T13:50:23.725Z</time>
      </trkpt>
      <trkpt lat="47.56276" lon="7.63114">
        <ele>254.417601</ele>
        <time>2022-09-14T13:50:37.016Z</time>
      </trkpt>
      <trkpt lat="47.56279" lon="7.63055">
        <ele>254.360415</ele>
        <time>2022-09-14T13:50:47.400Z</time>
      </trkpt>
      <trkpt lat="47.56281" lon="7.63014">
        <ele>254.321041</ele>
        <time>2022-09-14T13:50:54.309Z</time>
      </trkpt>
      <trkpt lat="47.56284" lon="7.62938">
        <ele>254.246855</ele>
        <time>2022-09-14T13:51:08.046Z</time>
      </trkpt>
      <trkpt lat="47.56284" lon="7.62923">
        <ele>254.232197</ele>
        <time>2022-09-14T13:51:10.800Z</time>
      </trkpt>
      <trkpt lat="47.56278" lon="7.62818">
        <ele>253.487039</ele>
        <time>2022-09-14T13:51:28.172Z</time>
      </trkpt>
      <trkpt lat="47.56263" lon="7.6271">
        <ele>252.290098</ele>
        <time>2022-09-14T13:51:44.610Z</time>
      </trkpt>
      <trkpt lat="47.56249" lon="7.62661">
        <ele>251.722807</ele>
        <time>2022-09-14T13:51:51.892Z</time>
      </trkpt>
      <trkpt lat="47.56244" lon="7.62644">
        <ele>251.524741</ele>
        <time>2022-09-14T13:51:54.564Z</time>
      </trkpt>
      <trkpt lat="47.56229" lon="7.62583">
        <ele>250.91705</ele>
        <time>2022-09-14T13:52:04.066Z</time>
      </trkpt>
      <trkpt lat="47.56209" lon="7.62509">
        <ele>250.223975</ele>
        <time>2022-09-14T13:52:15.668Z</time>
      </trkpt>
      <trkpt lat="47.56205" lon="7.62493">
        <ele>250.073438</ele>
        <time>2022-09-14T13:52:18.201Z</time>
      </trkpt>
      <trkpt lat="47.56204" lon="7.62489">
        <ele>250.038972</ele>
        <time>2022-09-14T13:52:18.795Z</time>
      </trkpt>
      <trkpt lat="47.56187" lon="7.62428">
        <ele>249.467313</ele>
        <time>2022-09-14T13:52:28.919Z</time>
      </trkpt>
      <trkpt lat="47.56119" lon="7.62185">
        <ele>249.213083</ele>
        <time>2022-09-14T13:53:19.569Z</time>
      </trkpt>
      <trkpt lat="47.56105" lon="7.62138">
        <ele>249.26453</ele>
        <time>2022-09-14T13:53:29.947Z</time>
      </trkpt>
      <trkpt lat="47.56099" lon="7.62118">
        <ele>249.299012</ele>
        <time>2022-09-14T13:53:34.352Z</time>
      </trkpt>
      <trkpt lat="47.56036" lon="7.61884">
        <ele>249.76778</ele>
        <time>2022-09-14T13:54:25.041Z</time>
      </trkpt>
      <trkpt lat="47.56028" lon="7.61878">
        <ele>249.726851</ele>
        <time>2022-09-14T13:54:27.306Z</time>
      </trkpt>
      <trkpt lat="47.55986" lon="7.61715">
        <ele>249.191189</ele>
        <time>2022-09-14T13:54:55.401Z</time>
      </trkpt>
      <trkpt lat="47.55962" lon="7.61577">
        <ele>248.795775</ele>
        <time>2022-09-14T13:55:19.770Z</time>
      </trkpt>
      <trkpt lat="47.55962" lon="7.61564">
        <ele>248.762238</ele>
        <time>2022-09-14T13:55:22.199Z</time>
      </trkpt>
      <trkpt lat="47.55938" lon="7.61413">
        <ele>248.381537</ele>
        <time>2022-09-14T13:55:48.001Z</time>
      </trkpt>
      <trkpt lat="47.55932" lon="7.61392">
        <ele>248.325553</ele>
        <time>2022-09-14T13:55:51.951Z</time>
      </trkpt>
      <trkpt lat="47.55923" lon="7.6136">
        <ele>248.297379</ele>
        <time>2022-09-14T13:55:57.983Z</time>
      </trkpt>
      <trkpt lat="47.55922" lon="7.61356">
        <ele>248.297197</ele>
        <time>2022-09-14T13:55:58.736Z</time>
      </trkpt>
      <trkpt lat="47.55921" lon="7.61354">
        <ele>248.297093</ele>
        <time>2022-09-14T13:55:59.159Z</time>
      </trkpt>
      <trkpt lat="47.55921" lon="7.61352">
        <ele>248.297024</ele>
        <time>2022-09-14T13:55:59.454Z</time>
      </trkpt>
      <trkpt lat="47.55899" lon="7.61283">
        <ele>248.29359</ele>
        <time>2022-09-14T13:56:13.266Z</time>
      </trkpt>
      <trkpt lat="47.55896" lon="7.61275">
        <ele>248.293159</ele>
        <time>2022-09-14T13:56:14.956Z</time>
      </trkpt>
      <trkpt lat="47.55887" lon="7.6127">
        <ele>248.292556</ele>
        <time>2022-09-14T13:56:17.340Z</time>
      </trkpt>
      <trkpt lat="47.55877" lon="7.6125">
        <ele>248.291442</ele>
        <time>2022-09-14T13:56:21.757Z</time>
      </trkpt>
      <trkpt lat="47.55873" lon="7.61231">
        <ele>248.290571</ele>
        <time>2022-09-14T13:56:25.318Z</time>
      </trkpt>
      <trkpt lat="47.55872" lon="7.61217">
        <ele>248.289948</ele>
        <time>2022-09-14T13:56:27.967Z</time>
      </trkpt>
      <trkpt lat="47.55874" lon="7.61199">
        <ele>248.289091</ele>
        <time>2022-09-14T13:56:31.390Z</time>
      </trkpt>
      <trkpt lat="47.55865" lon="7.61179">
        <ele>248.287999</ele>
        <time>2022-09-14T13:56:35.955Z</time>
      </trkpt>
      <trkpt lat="47.55857" lon="7.61131">
        <ele>248.481757</ele>
        <time>2022-09-14T13:56:44.563Z</time>
      </trkpt>
      <trkpt lat="47.55852" lon="7.61099">
        <ele>248.87408</ele>
        <time>2022-09-14T13:56:51.290Z</time>
      </trkpt>
      <trkpt lat="47.55837" lon="7.61037">
        <ele>249.67281</ele>
        <time>2022-09-14T13:57:06.165Z</time>
      </trkpt>
      <trkpt lat="47.55827" lon="7.60972">
        <ele>250.482767</ele>
        <time>2022-09-14T13:57:24.131Z</time>
      </trkpt>
      <trkpt lat="47.55825" lon="7.60957">
        <ele>250.668947</ele>
        <time>2022-09-14T13:57:28.936Z</time>
      </trkpt>
      <trkpt lat="47.55823" lon="7.60935">
        <ele>250.940761</ele>
        <time>2022-09-14T13:57:35.641Z</time>
      </trkpt>
      <trkpt lat="47.55815" lon="7.60936">
        <ele>251.092777</ele>
        <time>2022-09-14T13:57:39.073Z</time>
      </trkpt>
      <trkpt lat="47.55773" lon="7.60712">
        <ele>252.827974</ele>
        <time>2022-09-14T13:58:33.774Z</time>
      </trkpt>
      <trkpt lat="47.55751" lon="7.60595">
        <ele>252.481727</ele>
        <time>2022-09-14T13:58:53.015Z</time>
      </trkpt>
      <trkpt lat="47.55752" lon="7.60583">
        <ele>252.301507</ele>
        <time>2022-09-14T13:58:54.469Z</time>
      </trkpt>
      <trkpt lat="47.55745" lon="7.60529">
        <ele>251.456382</ele>
        <time>2022-09-14T13:59:02.072Z</time>
      </trkpt>
      <trkpt lat="47.55744" lon="7.60521">
        <ele>251.333758</ele>
        <time>2022-09-14T13:59:03.251Z</time>
      </trkpt>
      <trkpt lat="47.55735" lon="7.60516">
        <ele>251.11692</ele>
        <time>2022-09-14T13:59:05.219Z</time>
      </trkpt>
      <trkpt lat="47.55732" lon="7.60485">
        <ele>250.639641</ele>
        <time>2022-09-14T13:59:09.127Z</time>
      </trkpt>
      <trkpt lat="47.55722" lon="7.60386">
        <ele>249.1643</ele>
        <time>2022-09-14T13:59:22.541Z</time>
      </trkpt>
      <trkpt lat="47.55719" lon="7.6036">
        <ele>248.980106</ele>
        <time>2022-09-14T13:59:26.313Z</time>
      </trkpt>
      <trkpt lat="47.55707" lon="7.60234">
        <ele>248.081284</ele>
        <time>2022-09-14T13:59:46.366Z</time>
      </trkpt>
      <trkpt lat="47.55703" lon="7.60082">
        <ele>247.377618</ele>
        <time>2022-09-14T14:00:11.735Z</time>
      </trkpt>
      <trkpt lat="47.55701" lon="7.59904">
        <ele>247.580808</ele>
        <time>2022-09-14T14:00:45.383Z</time>
      </trkpt>
      <trkpt lat="47.55716" lon="7.59746">
        <ele>248.224065</ele>
        <time>2022-09-14T14:01:17.271Z</time>
      </trkpt>
      <trkpt lat="47.5572" lon="7.59726">
        <ele>248.329677</ele>
        <time>2022-09-14T14:01:21.431Z</time>
      </trkpt>
      <trkpt lat="47.55727" lon="7.59701">
        <ele>248.472304</ele>
        <time>2022-09-14T14:01:27.109Z</time>
      </trkpt>
      <trkpt lat="47.55741" lon="7.59663">
        <ele>248.689841</ele>
        <time>2022-09-14T14:01:35.871Z</time>
      </trkpt>
      <trkpt lat="47.55744" lon="7.59656">
        <ele>248.735755</ele>
        <time>2022-09-14T14:01:37.806Z</time>
      </trkpt>
      <trkpt lat="47.55777" lon="7.59564">
        <ele>249.338019</ele>
        <time>2022-09-14T14:02:00.165Z</time>
      </trkpt>
      <trkpt lat="47.55813" lon="7.5948">
        <ele>249.989024</ele>
        <time>2022-09-14T14:02:21.263Z</time>
      </trkpt>
      <trkpt lat="47.55834" lon="7.59436">
        <ele>250.339644</ele>
        <time>2022-09-14T14:02:32.497Z</time>
      </trkpt>
      <trkpt lat="47.55896" lon="7.59319">
        <ele>251.532416</ele>
        <time>2022-09-14T14:03:05.162Z</time>
      </trkpt>
      <trkpt lat="47.55952" lon="7.59231">
        <ele>252.616673</ele>
        <time>2022-09-14T14:03:34.848Z</time>
      </trkpt>
      <trkpt lat="47.55998" lon="7.59173">
        <ele>253.338105</ele>
        <time>2022-09-14T14:03:55.865Z</time>
      </trkpt>
      <trkpt lat="47.55998" lon="7.59162">
        <ele>253.407036</ele>
        <time>2022-09-14T14:03:58.089Z</time>
      </trkpt>
      <trkpt lat="47.56036" lon="7.59117">
        <ele>253.881458</ele>
        <time>2022-09-14T14:04:11.984Z</time>
      </trkpt>
      <trkpt lat="47.56041" lon="7.59128">
        <ele>253.973166</ele>
        <time>2022-09-14T14:04:15.103Z</time>
      </trkpt>
      <trkpt lat="47.56052" lon="7.59149">
        <ele>254.145053</ele>
        <time>2022-09-14T14:04:20.659Z</time>
      </trkpt>
      <trkpt lat="47.56055" lon="7.59155">
        <ele>254.197827</ele>
        <time>2022-09-14T14:04:22.136Z</time>
      </trkpt>
      <trkpt lat="47.56077" lon="7.59128">
        <ele>254.481728</ele>
        <time>2022-09-14T14:04:31.852Z</time>
      </trkpt>
      <trkpt lat="47.56079" lon="7.59126">
        <ele>254.501833</ele>
        <time>2022-09-14T14:04:32.519Z</time>
      </trkpt>
      <trkpt lat="47.56086" lon="7.59118">
        <ele>254.59446</ele>
        <time>2022-09-14T14:04:35.229Z</time>
      </trkpt>
      <trkpt lat="47.5607" lon="7.59082">
        <ele>254.879137</ele>
        <time>2022-09-14T14:04:45.329Z</time>
      </trkpt>
      <trkpt lat="47.56065" lon="7.59072">
        <ele>254.948847</ele>
        <time>2022-09-14T14:04:47.956Z</time>
      </trkpt>
      <trkpt lat="47.56064" lon="7.59069">
        <ele>254.964346</ele>
        <time>2022-09-14T14:04:48.583Z</time>
      </trkpt>
      <trkpt lat="47.55965" lon="7.58871">
        <ele>256.278915</ele>
        <time>2022-09-14T14:05:37.728Z</time>
      </trkpt>
      <trkpt lat="47.55963" lon="7.58856">
        <ele>256.379725</ele>
        <time>2022-09-14T14:05:41.195Z</time>
      </trkpt>
      <trkpt lat="47.55963" lon="7.58852">
        <ele>256.410566</ele>
        <time>2022-09-14T14:05:42.216Z</time>
      </trkpt>
      <trkpt lat="47.55965" lon="7.58844">
        <ele>256.463933</ele>
        <time>2022-09-14T14:05:44.020Z</time>
      </trkpt>
      <trkpt lat="47.55995" lon="7.58785">
        <ele>256.98281</ele>
        <time>2022-09-14T14:06:00.339Z</time>
      </trkpt>
      <trkpt lat="47.55996" lon="7.58783">
        <ele>257.000784</ele>
        <time>2022-09-14T14:06:00.862Z</time>
      </trkpt>
      <trkpt lat="47.56008" lon="7.58765">
        <ele>257.175759</ele>
        <time>2022-09-14T14:06:06.423Z</time>
      </trkpt>
      <trkpt lat="47.56034" lon="7.58743">
        <ele>257.492024</ele>
        <time>2022-09-14T14:06:15.832Z</time>
      </trkpt>
      <trkpt lat="47.56055" lon="7.58729">
        <ele>257.730845</ele>
        <time>2022-09-14T14:06:23.566Z</time>
      </trkpt>
      <trkpt lat="47.56066" lon="7.58721">
        <ele>257.859449</ele>
        <time>2022-09-14T14:06:27.151Z</time>
      </trkpt>
      <trkpt lat="47.56101" lon="7.58679">
        <ele>258.388281</ele>
        <time>2022-09-14T14:06:40.353Z</time>
      </trkpt>
      <trkpt lat="47.56143" lon="7.58623">
        <ele>259.210717</ele>
        <time>2022-09-14T14:06:58.617Z</time>
      </trkpt>
      <trkpt lat="47.56155" lon="7.58613">
        <ele>259.413754</ele>
        <time>2022-09-14T14:07:03.271Z</time>
      </trkpt>
      <trkpt lat="47.56154" lon="7.58591">
        <ele>259.6352</ele>
        <time>2022-09-14T14:07:09.626Z</time>
      </trkpt>
      <trkpt lat="47.56186" lon="7.58502">
        <ele>260.636391</ele>
        <time>2022-09-14T14:07:35.406Z</time>
      </trkpt>
      <trkpt lat="47.56188" lon="7.58489">
        <ele>260.77105</ele>
        <time>2022-09-14T14:07:38.534Z</time>
      </trkpt>
      <trkpt lat="47.56203" lon="7.58452">
        <ele>260.720614</ele>
        <time>2022-09-14T14:07:47.207Z</time>
      </trkpt>
      <trkpt lat="47.56259" lon="7.5837">
        <ele>260.458734</ele>
        <time>2022-09-14T14:08:06.690Z</time>
      </trkpt>
      <trkpt lat="47.56293" lon="7.5833">
        <ele>260.313124</ele>
        <time>2022-09-14T14:08:17.147Z</time>
      </trkpt>
      <trkpt lat="47.5634" lon="7.58277">
        <ele>260.040071</ele>
        <time>2022-09-14T14:08:30.142Z</time>
      </trkpt>
      <trkpt lat="47.56347" lon="7.58269">
        <ele>259.982463</ele>
        <time>2022-09-14T14:08:32.203Z</time>
      </trkpt>
      <trkpt lat="47.56356" lon="7.58257">
        <ele>259.910888</ele>
        <time>2022-09-14T14:08:34.582Z</time>
      </trkpt>
      <trkpt lat="47.56389" lon="7.58216">
        <ele>259.645921</ele>
        <time>2022-09-14T14:08:43.603Z</time>
      </trkpt>
      <trkpt lat="47.56402" lon="7.582">
        <ele>259.539667</ele>
        <time>2022-09-14T14:08:47.742Z</time>
      </trkpt>
      <trkpt lat="47.56428" lon="7.58167">
        <ele>259.332451</ele>
        <time>2022-09-14T14:08:56.082Z</time>
      </trkpt>
      <trkpt lat="47.56455" lon="7.58132">
        <ele>259.108322</ele>
        <time>2022-09-14T14:09:07.447Z</time>
      </trkpt>
      <trkpt lat="47.56494" lon="7.58076">
        <ele>260.319306</ele>
        <time>2022-09-14T14:09:27.129Z</time>
      </trkpt>
      <trkpt lat="47.56489" lon="7.58058">
        <ele>260.623343</ele>
        <time>2022-09-14T14:09:32.527Z</time>
      </trkpt>
      <trkpt lat="47.56448" lon="7.57991">
        <ele>262.044022</ele>
        <time>2022-09-14T14:09:54.300Z</time>
      </trkpt>
      <trkpt lat="47.56445" lon="7.57985">
        <ele>262.16212</ele>
        <time>2022-09-14T14:09:56.542Z</time>
      </trkpt>
      <trkpt lat="47.5641" lon="7.57925">
        <ele>263.438156</ele>
        <time>2022-09-14T14:10:19.447Z</time>
      </trkpt>
      <trkpt lat="47.56405" lon="7.57916">
        <ele>263.671597</ele>
        <time>2022-09-14T14:10:22.765Z</time>
      </trkpt>
      <trkpt lat="47.56397" lon="7.57886">
        <ele>264.310738</ele>
        <time>2022-09-14T14:10:33.278Z</time>
      </trkpt>
      <trkpt lat="47.564" lon="7.57874">
        <ele>264.564802</ele>
        <time>2022-09-14T14:10:37.079Z</time>
      </trkpt>
      <trkpt lat="47.56432" lon="7.57769">
        <ele>266.861321</ele>
        <time>2022-09-14T14:11:10.055Z</time>
      </trkpt>
      <trkpt lat="47.56436" lon="7.57758">
        <ele>267.108387</ele>
        <time>2022-09-14T14:11:13.376Z</time>
      </trkpt>
      <trkpt lat="47.56384" lon="7.57694">
        <ele>268.952846</ele>
        <time>2022-09-14T14:11:37.307Z</time>
      </trkpt>
      <trkpt lat="47.56328" lon="7.57626">
        <ele>270.511131</ele>
        <time>2022-09-14T14:12:04.712Z</time>
      </trkpt>
      <trkpt lat="47.56284" lon="7.57561">
        <ele>271.835264</ele>
        <time>2022-09-14T14:12:28.065Z</time>
      </trkpt>
      <trkpt lat="47.56194" lon="7.57421">
        <ele>274.251195</ele>
        <time>2022-09-14T14:13:14.147Z</time>
      </trkpt>
      <trkpt lat="47.56194" lon="7.57402">
        <ele>274.474858</ele>
        <time>2022-09-14T14:13:18.543Z</time>
      </trkpt>
      <trkpt lat="47.56188" lon="7.57388">
        <ele>274.668986</ele>
        <time>2022-09-14T14:13:22.581Z</time>
      </trkpt>
      <trkpt lat="47.56183" lon="7.57377">
        <ele>274.833571</ele>
        <time>2022-09-14T14:13:25.997Z</time>
      </trkpt>
      <trkpt lat="47.56143" lon="7.57321">
        <ele>275.678981</ele>
        <time>2022-09-14T14:13:45.306Z</time>
      </trkpt>
      <trkpt lat="47.5611" lon="7.57277">
        <ele>275.943737</ele>
        <time>2022-09-14T14:14:00.132Z</time>
      </trkpt>
      <trkpt lat="47.56174" lon="7.57145">
        <ele>276.596777</ele>
        <time>2022-09-14T14:14:31.759Z</time>
      </trkpt>
      <trkpt lat="47.5624" lon="7.57006">
        <ele>275.898435</ele>
        <time>2022-09-14T14:14:58.941Z</time>
      </trkpt>
      <trkpt lat="47.56246" lon="7.56994">
        <ele>275.819093</ele>
        <time>2022-09-14T14:15:01.167Z</time>
      </trkpt>
      <trkpt lat="47.56252" lon="7.56984">
        <ele>275.749061</ele>
        <time>2022-09-14T14:15:03.232Z</time>
      </trkpt>
      <trkpt lat="47.56253" lon="7.5698">
        <ele>275.727778</ele>
        <time>2022-09-14T14:15:03.864Z</time>
      </trkpt>
      <trkpt lat="47.56288" lon="7.56912">
        <ele>275.271716</ele>
        <time>2022-09-14T14:15:17.031Z</time>
      </trkpt>
      <trkpt lat="47.5629" lon="7.56909">
        <ele>275.261522</ele>
        <time>2022-09-14T14:15:17.750Z</time>
      </trkpt>
      <trkpt lat="47.56321" lon="7.56837">
        <ele>275.193523</ele>
        <time>2022-09-14T14:15:31.469Z</time>
      </trkpt>
      <trkpt lat="47.56359" lon="7.56763">
        <ele>275.119587</ele>
        <time>2022-09-14T14:15:47.104Z</time>
      </trkpt>
      <trkpt lat="47.5639" lon="7.56702">
        <ele>275.058412</ele>
        <time>2022-09-14T14:16:02.617Z</time>
      </trkpt>
      <trkpt lat="47.56386" lon="7.56695">
        <ele>275.056241</ele>
        <time>2022-09-14T14:16:04.624Z</time>
      </trkpt>
      <trkpt lat="47.56335" lon="7.56596">
        <ele>275.853082</ele>
        <time>2022-09-14T14:16:32.446Z</time>
      </trkpt>
      <trkpt lat="47.56331" lon="7.56589">
        <ele>275.907964</ele>
        <time>2022-09-14T14:16:34.321Z</time>
      </trkpt>
      <trkpt lat="47.5634" lon="7.56575">
        <ele>276.033081</ele>
        <time>2022-09-14T14:16:38.863Z</time>
      </trkpt>
      <trkpt lat="47.56369" lon="7.56478">
        <ele>276.708219</ele>
        <time>2022-09-14T14:17:01.224Z</time>
      </trkpt>
      <trkpt lat="47.56372" lon="7.56468">
        <ele>276.739629</ele>
        <time>2022-09-14T14:17:03.291Z</time>
      </trkpt>
      <trkpt lat="47.56387" lon="7.56415">
        <ele>276.64907</ele>
        <time>2022-09-14T14:17:13.888Z</time>
      </trkpt>
      <trkpt lat="47.56398" lon="7.56418">
        <ele>276.62374</ele>
        <time>2022-09-14T14:17:16.741Z</time>
      </trkpt>
      <trkpt lat="47.56415" lon="7.56397">
        <ele>276.571693</ele>
        <time>2022-09-14T14:17:26.486Z</time>
      </trkpt>
      <trkpt lat="47.56416" lon="7.56378">
        <ele>276.540929</ele>
        <time>2022-09-14T14:17:32.266Z</time>
      </trkpt>
      <trkpt lat="47.56416" lon="7.56376">
        <ele>276.537274</ele>
        <time>2022-09-14T14:17:32.964Z</time>
      </trkpt>
      <trkpt lat="47.56408" lon="7.56346">
        <ele>276.487055</ele>
        <time>2022-09-14T14:17:38.550Z</time>
      </trkpt>
      <trkpt lat="47.56406" lon="7.56336">
        <ele>276.470932</ele>
        <time>2022-09-14T14:17:41.505Z</time>
      </trkpt>
      <trkpt lat="47.56403" lon="7.56322">
        <ele>276.448251</ele>
        <time>2022-09-14T14:17:43.999Z</time>
      </trkpt>
      <trkpt lat="47.56395" lon="7.56309">
        <ele>276.420113</ele>
        <time>2022-09-14T14:17:47.034Z</time>
      </trkpt>
      <trkpt lat="47.56394" lon="7.56307">
        <ele>276.41711</ele>
        <time>2022-09-14T14:17:47.566Z</time>
      </trkpt>
      <trkpt lat="47.56381" lon="7.56264">
        <ele>276.342146</ele>
        <time>2022-09-14T14:18:00.815Z</time>
      </trkpt>
      <trkpt lat="47.56379" lon="7.56258">
        <ele>276.331222</ele>
        <time>2022-09-14T14:18:02.716Z</time>
      </trkpt>
      <trkpt lat="47.56369" lon="7.56228">
        <ele>276.162663</ele>
        <time>2022-09-14T14:18:11.951Z</time>
      </trkpt>
      <trkpt lat="47.56365" lon="7.56199">
        <ele>276.000987</ele>
        <time>2022-09-14T14:18:16.576Z</time>
      </trkpt>
      <trkpt lat="47.56354" lon="7.56159">
        <ele>275.766039</ele>
        <time>2022-09-14T14:18:23.247Z</time>
      </trkpt>
      <trkpt lat="47.56311" lon="7.56062">
        <ele>275.139981</ele>
        <time>2022-09-14T14:18:41.586Z</time>
      </trkpt>
      <trkpt lat="47.563" lon="7.56027">
        <ele>274.929976</ele>
        <time>2022-09-14T14:18:48.236Z</time>
      </trkpt>
      <trkpt lat="47.56291" lon="7.56003">
        <ele>274.812613</ele>
        <time>2022-09-14T14:18:52.957Z</time>
      </trkpt>
      <trkpt lat="47.56371" lon="7.55765">
        <ele>273.864607</ele>
        <time>2022-09-14T14:19:36.891Z</time>
      </trkpt>
      <trkpt lat="47.56367" lon="7.55762">
        <ele>273.852466</ele>
        <time>2022-09-14T14:19:37.981Z</time>
      </trkpt>
      <trkpt lat="47.56345" lon="7.55739">
        <ele>273.776617</ele>
        <time>2022-09-14T14:19:44.761Z</time>
      </trkpt>
      <trkpt lat="47.56315" lon="7.557">
        <ele>273.662345</ele>
        <time>2022-09-14T14:19:55.142Z</time>
      </trkpt>
      <trkpt lat="47.56232" lon="7.5556">
        <ele>273.440611</ele>
        <time>2022-09-14T14:20:29.477Z</time>
      </trkpt>
      <trkpt lat="47.56236" lon="7.55555">
        <ele>273.44879</ele>
        <time>2022-09-14T14:20:30.898Z</time>
      </trkpt>
      <trkpt lat="47.56283" lon="7.55491">
        <ele>273.557123</ele>
        <time>2022-09-14T14:20:48.956Z</time>
      </trkpt>
      <trkpt lat="47.56286" lon="7.55488">
        <ele>273.563351</ele>
        <time>2022-09-14T14:20:49.997Z</time>
      </trkpt>
      <trkpt lat="47.56324" lon="7.55435">
        <ele>273.651642</ele>
        <time>2022-09-14T14:21:04.501Z</time>
      </trkpt>
      <trkpt lat="47.56395" lon="7.55347">
        <ele>273.709561</ele>
        <time>2022-09-14T14:21:29.864Z</time>
      </trkpt>
      <trkpt lat="47.5639" lon="7.55334">
        <ele>273.711749</ele>
        <time>2022-09-14T14:21:32.419Z</time>
      </trkpt>
      <trkpt lat="47.56315" lon="7.5514">
        <ele>273.63271</ele>
        <time>2022-09-14T14:22:12.324Z</time>
      </trkpt>
      <trkpt lat="47.56294" lon="7.55087">
        <ele>273.543652</ele>
        <time>2022-09-14T14:22:23.387Z</time>
      </trkpt>
      <trkpt lat="47.56275" lon="7.55039">
        <ele>273.464283</ele>
        <time>2022-09-14T14:22:33.178Z</time>
      </trkpt>
      <trkpt lat="47.56158" lon="7.54694">
        <ele>271.968404</ele>
        <time>2022-09-14T14:23:36.425Z</time>
      </trkpt>
      <trkpt lat="47.56157" lon="7.5468">
        <ele>271.881314</ele>
        <time>2022-09-14T14:23:38.700Z</time>
      </trkpt>
      <trkpt lat="47.56156" lon="7.54672">
        <ele>271.83096</ele>
        <time>2022-09-14T14:23:39.995Z</time>
      </trkpt>
      <trkpt lat="47.56158" lon="7.54642">
        <ele>271.653124</ele>
        <time>2022-09-14T14:23:44.608Z</time>
      </trkpt>
      <trkpt lat="47.56168" lon="7.54521">
        <ele>270.914773</ele>
        <time>2022-09-14T14:24:03.614Z</time>
      </trkpt>
      <trkpt lat="47.56181" lon="7.54372">
        <ele>270.422983</ele>
        <time>2022-09-14T14:24:27.484Z</time>
      </trkpt>
      <trkpt lat="47.56187" lon="7.54344">
        <ele>270.367837</ele>
        <time>2022-09-14T14:24:32.535Z</time>
      </trkpt>
      <trkpt lat="47.56228" lon="7.54282">
        <ele>270.206462</ele>
        <time>2022-09-14T14:24:48.053Z</time>
      </trkpt>
      <trkpt lat="47.56234" lon="7.54268">
        <ele>270.17539</ele>
        <time>2022-09-14T14:24:51.028Z</time>
      </trkpt>
      <trkpt lat="47.56235" lon="7.54243">
        <ele>270.130081</ele>
        <time>2022-09-14T14:24:55.691Z</time>
      </trkpt>
      <trkpt lat="47.56237" lon="7.54093">
        <ele>270.926444</ele>
        <time>2022-09-14T14:25:25.957Z</time>
      </trkpt>
      <trkpt lat="47.56228" lon="7.53957">
        <ele>271.701548</ele>
        <time>2022-09-14T14:25:55.993Z</time>
      </trkpt>
      <trkpt lat="47.56229" lon="7.53933">
        <ele>271.805439</ele>
        <time>2022-09-14T14:26:01.306Z</time>
      </trkpt>
      <trkpt lat="47.5623" lon="7.53853">
        <ele>272.153853</ele>
        <time>2022-09-14T14:26:18.406Z</time>
      </trkpt>
      <trkpt lat="47.56231" lon="7.53812">
        <ele>272.331754</ele>
        <time>2022-09-14T14:26:26.635Z</time>
      </trkpt>
      <trkpt lat="47.56233" lon="7.53691">
        <ele>272.818624</ele>
        <time>2022-09-14T14:26:49.320Z</time>
      </trkpt>
      <trkpt lat="47.56229" lon="7.5356">
        <ele>272.91071</ele>
        <time>2022-09-14T14:27:12.643Z</time>
      </trkpt>
      <trkpt lat="47.56226" lon="7.53514">
        <ele>272.943789</ele>
        <time>2022-09-14T14:27:21.288Z</time>
      </trkpt>
      <trkpt lat="47.56218" lon="7.53393">
        <ele>273.221193</ele>
        <time>2022-09-14T14:27:43.784Z</time>
      </trkpt>
      <trkpt lat="47.56214" lon="7.53307">
        <ele>273.669987</ele>
        <time>2022-09-14T14:28:00.849Z</time>
      </trkpt>
      <trkpt lat="47.56214" lon="7.53269">
        <ele>273.871618</ele>
        <time>2022-09-14T14:28:08.875Z</time>
      </trkpt>
      <trkpt lat="47.56212" lon="7.53133">
        <ele>274.899361</ele>
        <time>2022-09-14T14:28:38.201Z</time>
      </trkpt>
      <trkpt lat="47.56222" lon="7.52974">
        <ele>277.142972</ele>
        <time>2022-09-14T14:29:15.226Z</time>
      </trkpt>
      <trkpt lat="47.56238" lon="7.5295">
        <ele>277.616443</ele>
        <time>2022-09-14T14:29:24.658Z</time>
      </trkpt>
      <trkpt lat="47.56224" lon="7.52931">
        <ele>278.016302</ele>
        <time>2022-09-14T14:29:32.868Z</time>
      </trkpt>
      <trkpt lat="47.56204" lon="7.52899">
        <ele>278.88151</ele>
        <time>2022-09-14T14:29:46.580Z</time>
      </trkpt>
      <trkpt lat="47.56182" lon="7.5287">
        <ele>279.78176</ele>
        <time>2022-09-14T14:29:59.655Z</time>
      </trkpt>
      <trkpt lat="47.56158" lon="7.52821">
        <ele>281.059154</ele>
        <time>2022-09-14T14:30:17.969Z</time>
      </trkpt>
      <trkpt lat="47.56155" lon="7.52809">
        <ele>281.341666</ele>
        <time>2022-09-14T14:30:21.799Z</time>
      </trkpt>
      <trkpt lat="47.56152" lon="7.52718">
        <ele>283.273449</ele>
        <time>2022-09-14T14:30:46.930Z</time>
      </trkpt>
      <trkpt lat="47.56152" lon="7.52663">
        <ele>283.886193</ele>
        <time>2022-09-14T14:31:00.652Z</time>
      </trkpt>
      <trkpt lat="47.56133" lon="7.52607">
        <ele>284.06764</ele>
        <time>2022-09-14T14:31:14.618Z</time>
      </trkpt>
      <trkpt lat="47.56124" lon="7.52555">
        <ele>284.225157</ele>
        <time>2022-09-14T14:31:25.126Z</time>
      </trkpt>
      <trkpt lat="47.56141" lon="7.52529">
        <ele>284.330862</ele>
        <time>2022-09-14T14:31:31.329Z</time>
      </trkpt>
      <trkpt lat="47.56149" lon="7.52517">
        <ele>284.37955</ele>
        <time>2022-09-14T14:31:34.139Z</time>
      </trkpt>
      <trkpt lat="47.56162" lon="7.52481">
        <ele>284.497414</ele>
        <time>2022-09-14T14:31:40.421Z</time>
      </trkpt>
      <trkpt lat="47.56156" lon="7.52435">
        <ele>284.703006</ele>
        <time>2022-09-14T14:31:47.674Z</time>
      </trkpt>
      <trkpt lat="47.56136" lon="7.52387">
        <ele>285.043784</ele>
        <time>2022-09-14T14:31:56.379Z</time>
      </trkpt>
      <trkpt lat="47.56086" lon="7.52306">
        <ele>285.709617</ele>
        <time>2022-09-14T14:32:17.958Z</time>
      </trkpt>
      <trkpt lat="47.56095" lon="7.52249">
        <ele>286.067015</ele>
        <time>2022-09-14T14:32:33.438Z</time>
      </trkpt>
      <trkpt lat="47.56098" lon="7.52184">
        <ele>287.648193</ele>
        <time>2022-09-14T14:32:52.658Z</time>
      </trkpt>
      <trkpt lat="47.56106" lon="7.52016">
        <ele>293.019194</ele>
        <time>2022-09-14T14:33:49.042Z</time>
      </trkpt>
      <trkpt lat="47.56077" lon="7.51884">
        <ele>298.294378</ele>
        <time>2022-09-14T14:34:42.154Z</time>
      </trkpt>
      <trkpt lat="47.56043" lon="7.51791">
        <ele>302.658606</ele>
        <time>2022-09-14T14:35:22.094Z</time>
      </trkpt>
      <trkpt lat="47.56037" lon="7.51778">
        <ele>303.31226</ele>
        <time>2022-09-14T14:35:28.068Z</time>
      </trkpt>
      <trkpt lat="47.55992" lon="7.51672">
        <ele>308.198187</ele>
        <time>2022-09-14T14:36:16.737Z</time>
      </trkpt>
      <trkpt lat="47.55982" lon="7.51615">
        <ele>310.374355</ele>
        <time>2022-09-14T14:36:39.405Z</time>
      </trkpt>
      <trkpt lat="47.55982" lon="7.51601">
        <ele>310.895171</ele>
        <time>2022-09-14T14:36:44.851Z</time>
      </trkpt>
      <trkpt lat="47.55988" lon="7.51552">
        <ele>312.711757</ele>
        <time>2022-09-14T14:37:02.924Z</time>
      </trkpt>
      <trkpt lat="47.56004" lon="7.51503">
        <ele>314.719511</ele>
        <time>2022-09-14T14:37:22.785Z</time>
      </trkpt>
      <trkpt lat="47.56076" lon="7.51365">
        <ele>316.739107</ele>
        <time>2022-09-14T14:38:07.359Z</time>
      </trkpt>
      <trkpt lat="47.56088" lon="7.51331">
        <ele>317.039034</ele>
        <time>2022-09-14T14:38:14.120Z</time>
      </trkpt>
      <trkpt lat="47.56096" lon="7.51289">
        <ele>317.383557</ele>
        <time>2022-09-14T14:38:21.105Z</time>
      </trkpt>
      <trkpt lat="47.56101" lon="7.51256">
        <ele>317.633043</ele>
        <time>2022-09-14T14:38:26.071Z</time>
      </trkpt>
      <trkpt lat="47.56104" lon="7.51236">
        <ele>317.221024</ele>
        <time>2022-09-14T14:38:29.231Z</time>
      </trkpt>
      <trkpt lat="47.56104" lon="7.51232">
        <ele>317.134104</ele>
        <time>2022-09-14T14:38:29.870Z</time>
      </trkpt>
      <trkpt lat="47.56105" lon="7.51225">
        <ele>316.986782</ele>
        <time>2022-09-14T14:38:30.920Z</time>
      </trkpt>
      <trkpt lat="47.56106" lon="7.5121">
        <ele>316.691018</ele>
        <time>2022-09-14T14:38:33.008Z</time>
      </trkpt>
      <trkpt lat="47.56097" lon="7.51168">
        <ele>315.81877</ele>
        <time>2022-09-14T14:38:39.191Z</time>
      </trkpt>
      <trkpt lat="47.56067" lon="7.51112">
        <ele>314.397283</ele>
        <time>2022-09-14T14:38:48.645Z</time>
      </trkpt>
      <trkpt lat="47.56034" lon="7.51077">
        <ele>313.193006</ele>
        <time>2022-09-14T14:38:56.140Z</time>
      </trkpt>
      <trkpt lat="47.55962" lon="7.51027">
        <ele>311.030859</ele>
        <time>2022-09-14T14:39:11.307Z</time>
      </trkpt>
      <trkpt lat="47.55955" lon="7.51016">
        <ele>310.774997</ele>
        <time>2022-09-14T14:39:13.397Z</time>
      </trkpt>
      <trkpt lat="47.55952" lon="7.50985">
        <ele>310.233353</ele>
        <time>2022-09-14T14:39:17.544Z</time>
      </trkpt>
      <trkpt lat="47.5595" lon="7.50943">
        <ele>309.500076</ele>
        <time>2022-09-14T14:39:23.403Z</time>
      </trkpt>
      <trkpt lat="47.55949" lon="7.50932">
        <ele>309.301619</ele>
        <time>2022-09-14T14:39:25.015Z</time>
      </trkpt>
      <trkpt lat="47.55946" lon="7.50916">
        <ele>309.022701</ele>
        <time>2022-09-14T14:39:27.354Z</time>
      </trkpt>
      <trkpt lat="47.55933" lon="7.50868">
        <ele>308.109131</ele>
        <time>2022-09-14T14:39:34.851Z</time>
      </trkpt>
      <trkpt lat="47.55903" lon="7.50825">
        <ele>307.974222</ele>
        <time>2022-09-14T14:39:43.714Z</time>
      </trkpt>
      <trkpt lat="47.55893" lon="7.50814">
        <ele>308.109685</ele>
        <time>2022-09-14T14:39:46.392Z</time>
      </trkpt>
      <trkpt lat="47.5584" lon="7.50776">
        <ele>308.764569</ele>
        <time>2022-09-14T14:40:03.870Z</time>
      </trkpt>
      <trkpt lat="47.55802" lon="7.50734">
        <ele>309.284802</ele>
        <time>2022-09-14T14:40:22.986Z</time>
      </trkpt>
      <trkpt lat="47.55779" lon="7.50722">
        <ele>309.551092</ele>
        <time>2022-09-14T14:40:33.196Z</time>
      </trkpt>
      <trkpt lat="47.55729" lon="7.50686">
        <ele>311.044113</ele>
        <time>2022-09-14T14:40:56.310Z</time>
      </trkpt>
      <trkpt lat="47.55678" lon="7.5067">
        <ele>312.662643</ele>
        <time>2022-09-14T14:41:18.619Z</time>
      </trkpt>
      <trkpt lat="47.55642" lon="7.50637">
        <ele>313.979519</ele>
        <time>2022-09-14T14:41:37.499Z</time>
      </trkpt>
      <trkpt lat="47.55621" lon="7.50608">
        <ele>314.857821</ele>
        <time>2022-09-14T14:41:49.604Z</time>
      </trkpt>
      <trkpt lat="47.55606" lon="7.50575">
        <ele>315.388548</ele>
        <time>2022-09-14T14:42:00.131Z</time>
      </trkpt>
      <trkpt lat="47.55579" lon="7.50487">
        <ele>316.010102</ele>
        <time>2022-09-14T14:42:21.650Z</time>
      </trkpt>
      <trkpt lat="47.55552" lon="7.50361">
        <ele>316.851521</ele>
        <time>2022-09-14T14:42:46.667Z</time>
      </trkpt>
      <trkpt lat="47.5554" lon="7.50293">
        <ele>317.009207</ele>
        <time>2022-09-14T14:42:59.008Z</time>
      </trkpt>
      <trkpt lat="47.55538" lon="7.50282">
        <ele>317.02104</ele>
        <time>2022-09-14T14:43:01.188Z</time>
      </trkpt>
      <trkpt lat="47.55529" lon="7.50243">
        <ele>317.061725</ele>
        <time>2022-09-14T14:43:07.623Z</time>
      </trkpt>
      <trkpt lat="47.55524" lon="7.5023">
        <ele>317.076247</ele>
        <time>2022-09-14T14:43:10.063Z</time>
      </trkpt>
      <trkpt lat="47.55506" lon="7.50149">
        <ele>317.161337</ele>
        <time>2022-09-14T14:43:24.754Z</time>
      </trkpt>
      <trkpt lat="47.55495" lon="7.4998">
        <ele>320.075303</ele>
        <time>2022-09-14T14:44:02.352Z</time>
      </trkpt>
      <trkpt lat="47.55489" lon="7.49629">
        <ele>333.44188</ele>
        <time>2022-09-14T14:46:12.079Z</time>
      </trkpt>
      <trkpt lat="47.55488" lon="7.49606">
        <ele>334.509741</ele>
        <time>2022-09-14T14:46:25.625Z</time>
      </trkpt>
      <trkpt lat="47.5546" lon="7.49385">
        <ele>344.692645</ele>
        <time>2022-09-14T14:48:13.694Z</time>
      </trkpt>
      <trkpt lat="47.55307" lon="7.48823">
        <ele>353.29479</ele>
        <time>2022-09-14T14:50:37.386Z</time>
      </trkpt>
      <trkpt lat="47.55256" lon="7.48609">
        <ele>347.97648</ele>
        <time>2022-09-14T14:51:05.335Z</time>
      </trkpt>
      <trkpt lat="47.55254" lon="7.48605">
        <ele>347.841275</ele>
        <time>2022-09-14T14:51:05.901Z</time>
      </trkpt>
      <trkpt lat="47.55135" lon="7.48303">
        <ele>341.491302</ele>
        <time>2022-09-14T14:51:53.366Z</time>
      </trkpt>
      <trkpt lat="47.55133" lon="7.48299">
        <ele>341.458341</ele>
        <time>2022-09-14T14:51:54.310Z</time>
      </trkpt>
      <trkpt lat="47.55088" lon="7.48133">
        <ele>340.38877</ele>
        <time>2022-09-14T14:52:24.359Z</time>
      </trkpt>
      <trkpt lat="47.55062" lon="7.48065">
        <ele>340.02417</ele>
        <time>2022-09-14T14:52:37.260Z</time>
      </trkpt>
      <trkpt lat="47.55033" lon="7.48023">
        <ele>339.900615</ele>
        <time>2022-09-14T14:52:46.948Z</time>
      </trkpt>
      <trkpt lat="47.55026" lon="7.48002">
        <ele>339.849147</ele>
        <time>2022-09-14T14:52:51.103Z</time>
      </trkpt>
      <trkpt lat="47.55028" lon="7.47978">
        <ele>339.798924</ele>
        <time>2022-09-14T14:52:55.026Z</time>
      </trkpt>
      <trkpt lat="47.5503" lon="7.47974">
        <ele>339.787371</ele>
        <time>2022-09-14T14:52:55.888Z</time>
      </trkpt>
      <trkpt lat="47.55038" lon="7.4796">
        <ele>339.749979</ele>
        <time>2022-09-14T14:52:58.833Z</time>
      </trkpt>
      <trkpt lat="47.55079" lon="7.47887">
        <ele>339.550209</ele>
        <time>2022-09-14T14:53:14.625Z</time>
      </trkpt>
      <trkpt lat="47.55122" lon="7.47839">
        <ele>340.961411</ele>
        <time>2022-09-14T14:53:30.503Z</time>
      </trkpt>
      <trkpt lat="47.55136" lon="7.47849">
        <ele>341.46895</ele>
        <time>2022-09-14T14:53:35.652Z</time>
      </trkpt>
      <trkpt lat="47.55182" lon="7.47918">
        <ele>343.582538</ele>
        <time>2022-09-14T14:54:03.138Z</time>
      </trkpt>
      <trkpt lat="47.55228" lon="7.4789">
        <ele>345.17258</ele>
        <time>2022-09-14T14:54:28.840Z</time>
      </trkpt>
      <trkpt lat="47.55348" lon="7.47805">
        <ele>355.281275</ele>
        <time>2022-09-14T14:55:56.000Z</time>
      </trkpt>
      <trkpt lat="47.55445" lon="7.47727">
        <ele>362.922333</ele>
        <time>2022-09-14T14:57:08.887Z</time>
      </trkpt>
      <trkpt lat="47.55439" lon="7.47686">
        <ele>364.702746</ele>
        <time>2022-09-14T14:57:26.287Z</time>
      </trkpt>
      <trkpt lat="47.55406" lon="7.47552">
        <ele>370.534081</ele>
        <time>2022-09-14T14:58:17.223Z</time>
      </trkpt>
      <trkpt lat="47.55383" lon="7.47453">
        <ele>372.435432</ele>
        <time>2022-09-14T14:58:46.854Z</time>
      </trkpt>
      <trkpt lat="47.55371" lon="7.47364">
        <ele>374.083206</ele>
        <time>2022-09-14T14:59:10.349Z</time>
      </trkpt>
      <trkpt lat="47.55336" lon="7.47196">
        <ele>376.69338</ele>
        <time>2022-09-14T14:59:52.969Z</time>
      </trkpt>
      <trkpt lat="47.55321" lon="7.47061">
        <ele>378.467413</ele>
        <time>2022-09-14T15:00:27.512Z</time>
      </trkpt>
      <trkpt lat="47.55386" lon="7.47015">
        <ele>380.272055</ele>
        <time>2022-09-14T15:00:54.874Z</time>
      </trkpt>
      <trkpt lat="47.55351" lon="7.46847">
        <ele>383.3974</ele>
        <time>2022-09-14T15:01:44.825Z</time>
      </trkpt>
      <trkpt lat="47.55354" lon="7.46837">
        <ele>383.561289</ele>
        <time>2022-09-14T15:01:47.736Z</time>
      </trkpt>
      <trkpt lat="47.55382" lon="7.46808">
        <ele>384.344502</ele>
        <time>2022-09-14T15:02:01.784Z</time>
      </trkpt>
      <trkpt lat="47.55403" lon="7.46745">
        <ele>385.432507</ele>
        <time>2022-09-14T15:02:20.237Z</time>
      </trkpt>
      <trkpt lat="47.55447" lon="7.46684">
        <ele>386.788751</ele>
        <time>2022-09-14T15:02:42.877Z</time>
      </trkpt>
      <trkpt lat="47.55496" lon="7.46651">
        <ele>387.82648</ele>
        <time>2022-09-14T15:03:02.950Z</time>
      </trkpt>
      <trkpt lat="47.55488" lon="7.46599">
        <ele>388.305608</ele>
        <time>2022-09-14T15:03:15.258Z</time>
      </trkpt>
      <trkpt lat="47.55475" lon="7.46554">
        <ele>388.755385</ele>
        <time>2022-09-14T15:03:26.092Z</time>
      </trkpt>
      <trkpt lat="47.55439" lon="7.4648">
        <ele>389.572031</ele>
        <time>2022-09-14T15:03:44.830Z</time>
      </trkpt>
      <trkpt lat="47.5542" lon="7.46408">
        <ele>390.48565</ele>
        <time>2022-09-14T15:04:01.735Z</time>
      </trkpt>
      <trkpt lat="47.55413" lon="7.46315">
        <ele>391.887808</ele>
        <time>2022-09-14T15:04:24.142Z</time>
      </trkpt>
      <trkpt lat="47.55412" lon="7.46213">
        <ele>393.424438</ele>
        <time>2022-09-14T15:04:51.115Z</time>
      </trkpt>
      <trkpt lat="47.55424" lon="7.45933">
        <ele>399.608819</ele>
        <time>2022-09-14T15:06:13.133Z</time>
      </trkpt>
      <trkpt lat="47.55423" lon="7.45775">
        <ele>403.319443</ele>
        <time>2022-09-14T15:06:59.333Z</time>
      </trkpt>
      <trkpt lat="47.55415" lon="7.45684">
        <ele>405.504687</ele>
        <time>2022-09-14T15:07:25.754Z</time>
      </trkpt>
      <trkpt lat="47.55372" lon="7.4538">
        <ele>413.766299</ele>
        <time>2022-09-14T15:09:01.578Z</time>
      </trkpt>
      <trkpt lat="47.55354" lon="7.45288">
        <ele>416.669278</ele>
        <time>2022-09-14T15:09:32.979Z</time>
      </trkpt>
      <trkpt lat="47.55342" lon="7.45233">
        <ele>418.442324</ele>
        <time>2022-09-14T15:09:52.112Z</time>
      </trkpt>
      <trkpt lat="47.55319" lon="7.45157">
        <ele>420.984986</ele>
        <time>2022-09-14T15:10:19.738Z</time>
      </trkpt>
      <trkpt lat="47.55281" lon="7.45079">
        <ele>423.791583</ele>
        <time>2022-09-14T15:10:51.261Z</time>
      </trkpt>
      <trkpt lat="47.55184" lon="7.44914">
        <ele>430.222641</ele>
        <time>2022-09-14T15:11:58.682Z</time>
      </trkpt>
      <trkpt lat="47.55174" lon="7.4486">
        <ele>432.244453</ele>
        <time>2022-09-14T15:12:18.362Z</time>
      </trkpt>
      <trkpt lat="47.55156" lon="7.4477">
        <ele>435.575163</ele>
        <time>2022-09-14T15:12:52.261Z</time>
      </trkpt>
      <trkpt lat="47.55138" lon="7.44687">
        <ele>438.645047</ele>
        <time>2022-09-14T15:13:22.335Z</time>
      </trkpt>
      <trkpt lat="47.55117" lon="7.44614">
        <ele>441.960336</ele>
        <time>2022-09-14T15:13:52.582Z</time>
      </trkpt>
      <trkpt lat="47.55067" lon="7.44487">
        <ele>448.144525</ele>
        <time>2022-09-14T15:14:50.925Z</time>
      </trkpt>
      <trkpt lat="47.5505" lon="7.44403">
        <ele>451.632363</ele>
        <time>2022-09-14T15:15:23.615Z</time>
      </trkpt>
      <trkpt lat="47.55048" lon="7.4435">
        <ele>453.667346</ele>
        <time>2022-09-14T15:15:43.003Z</time>
      </trkpt>
      <trkpt lat="47.55024" lon="7.44212">
        <ele>459.10606</ele>
        <time>2022-09-14T15:16:36.094Z</time>
      </trkpt>
      <trkpt lat="47.54991" lon="7.44103">
        <ele>462.0472</ele>
        <time>2022-09-14T15:17:14.473Z</time>
      </trkpt>
      <trkpt lat="47.5498" lon="7.4406">
        <ele>462.995374</ele>
        <time>2022-09-14T15:17:27.821Z</time>
      </trkpt>
      <trkpt lat="47.54969" lon="7.44036">
        <ele>463.587994</ele>
        <time>2022-09-14T15:17:35.736Z</time>
      </trkpt>
      <trkpt lat="47.54972" lon="7.44022">
        <ele>463.880959</ele>
        <time>2022-09-14T15:17:39.630Z</time>
      </trkpt>
      <trkpt lat="47.5497" lon="7.43994">
        <ele>464.472265</ele>
        <time>2022-09-14T15:17:47.075Z</time>
      </trkpt>
      <trkpt lat="47.54952" lon="7.43881">
        <ele>465.557538</ele>
        <time>2022-09-14T15:18:12.089Z</time>
      </trkpt>
      <trkpt lat="47.54943" lon="7.43831">
        <ele>465.476065</ele>
        <time>2022-09-14T15:18:21.096Z</time>
      </trkpt>
      <trkpt lat="47.54938" lon="7.43784">
        <ele>465.400977</ele>
        <time>2022-09-14T15:18:29.033Z</time>
      </trkpt>
      <trkpt lat="47.54925" lon="7.43742">
        <ele>465.328798</ele>
        <time>2022-09-14T15:18:36.166Z</time>
      </trkpt>
      <trkpt lat="47.54897" lon="7.43614">
        <ele>464.734643</ele>
        <time>2022-09-14T15:18:56.556Z</time>
      </trkpt>
      <trkpt lat="47.55059" lon="7.4345">
        <ele>462.162019</ele>
        <time>2022-09-14T15:19:42.395Z</time>
      </trkpt>
      <trkpt lat="47.55118" lon="7.43345">
        <ele>460.433132</ele>
        <time>2022-09-14T15:20:01.954Z</time>
      </trkpt>
      <trkpt lat="47.55253" lon="7.43167">
        <ele>454.895572</ele>
        <time>2022-09-14T15:20:36.639Z</time>
      </trkpt>
      <trkpt lat="47.55257" lon="7.43159">
        <ele>454.671667</ele>
        <time>2022-09-14T15:20:37.977Z</time>
      </trkpt>
      <trkpt lat="47.55312" lon="7.43048">
        <ele>452.835138</ele>
        <time>2022-09-14T15:20:56.538Z</time>
      </trkpt>
      <trkpt lat="47.55403" lon="7.4283">
        <ele>450.534674</ele>
        <time>2022-09-14T15:21:37.572Z</time>
      </trkpt>
      <trkpt lat="47.55443" lon="7.42729">
        <ele>449.9309</ele>
        <time>2022-09-14T15:21:57.331Z</time>
      </trkpt>
      <trkpt lat="47.55489" lon="7.42644">
        <ele>448.82399</ele>
        <time>2022-09-14T15:22:14.286Z</time>
      </trkpt>
      <trkpt lat="47.55495" lon="7.42635">
        <ele>448.663326</ele>
        <time>2022-09-14T15:22:16.000Z</time>
      </trkpt>
      <trkpt lat="47.55484" lon="7.42618">
        <ele>448.333279</ele>
        <time>2022-09-14T15:22:19.544Z</time>
      </trkpt>
      <trkpt lat="47.55463" lon="7.42557">
        <ele>447.405322</ele>
        <time>2022-09-14T15:22:29.153Z</time>
      </trkpt>
      <trkpt lat="47.55462" lon="7.4252">
        <ele>446.895503</ele>
        <time>2022-09-14T15:22:34.232Z</time>
      </trkpt>
      <trkpt lat="47.55467" lon="7.42484">
        <ele>446.398104</ele>
        <time>2022-09-14T15:22:39.135Z</time>
      </trkpt>
      <trkpt lat="47.55485" lon="7.42411">
        <ele>445.146629</ele>
        <time>2022-09-14T15:22:49.410Z</time>
      </trkpt>
      <trkpt lat="47.55535" lon="7.42255">
        <ele>442.155221</ele>
        <time>2022-09-14T15:23:12.776Z</time>
      </trkpt>
      <trkpt lat="47.55556" lon="7.42213">
        <ele>441.403517</ele>
        <time>2022-09-14T15:23:19.951Z</time>
      </trkpt>
      <trkpt lat="47.55647" lon="7.4206">
        <ele>440.465208</ele>
        <time>2022-09-14T15:23:53.613Z</time>
      </trkpt>
      <trkpt lat="47.55683" lon="7.41947">
        <ele>439.196464</ele>
        <time>2022-09-14T15:24:17.989Z</time>
      </trkpt>
      <trkpt lat="47.55745" lon="7.41779">
        <ele>436.527627</ele>
        <time>2022-09-14T15:24:44.685Z</time>
      </trkpt>
      <trkpt lat="47.55816" lon="7.41491">
        <ele>423.827692</ele>
        <time>2022-09-14T15:25:20.345Z</time>
      </trkpt>
      <trkpt lat="47.55828" lon="7.41463">
        <ele>422.718129</ele>
        <time>2022-09-14T15:25:24.097Z</time>
      </trkpt>
      <trkpt lat="47.55946" lon="7.41273">
        <ele>414.72355</ele>
        <time>2022-09-14T15:25:56.251Z</time>
      </trkpt>
      <trkpt lat="47.55944" lon="7.41247">
        <ele>414.220778</ele>
        <time>2022-09-14T15:25:59.703Z</time>
      </trkpt>
      <trkpt lat="47.55925" lon="7.4119">
        <ele>412.995257</ele>
        <time>2022-09-14T15:26:08.351Z</time>
      </trkpt>
      <trkpt lat="47.55925" lon="7.41174">
        <ele>412.682646</ele>
        <time>2022-09-14T15:26:10.628Z</time>
      </trkpt>
      <trkpt lat="47.55994" lon="7.41079">
        <ele>410.410398</ele>
        <time>2022-09-14T15:26:30.678Z</time>
      </trkpt>
      <trkpt lat="47.56051" lon="7.40958">
        <ele>408.996243</ele>
        <time>2022-09-14T15:26:53.141Z</time>
      </trkpt>
      <trkpt lat="47.56108" lon="7.40856">
        <ele>407.886837</ele>
        <time>2022-09-14T15:27:13.062Z</time>
      </trkpt>
      <trkpt lat="47.56118" lon="7.40836">
        <ele>407.709685</ele>
        <time>2022-09-14T15:27:16.987Z</time>
      </trkpt>
      <trkpt lat="47.56142" lon="7.40783">
        <ele>407.260873</ele>
        <time>2022-09-14T15:27:26.833Z</time>
      </trkpt>
      <trkpt lat="47.56164" lon="7.40706">
        <ele>406.678973</ele>
        <time>2022-09-14T15:27:39.833Z</time>
      </trkpt>
      <trkpt lat="47.56176" lon="7.40653">
        <ele>406.408024</ele>
        <time>2022-09-14T15:27:48.834Z</time>
      </trkpt>
      <trkpt lat="47.56187" lon="7.40574">
        <ele>406.390472</ele>
        <time>2022-09-14T15:28:02.535Z</time>
      </trkpt>
      <trkpt lat="47.56193" lon="7.40548">
        <ele>406.384675</ele>
        <time>2022-09-14T15:28:07.580Z</time>
      </trkpt>
      <trkpt lat="47.5621" lon="7.40507">
        <ele>406.374151</ele>
        <time>2022-09-14T15:28:16.573Z</time>
      </trkpt>
      <trkpt lat="47.5627" lon="7.40338">
        <ele>406.353296</ele>
        <time>2022-09-14T15:28:53.420Z</time>
      </trkpt>
      <trkpt lat="47.56284" lon="7.4034">
        <ele>406.353131</ele>
        <time>2022-09-14T15:28:57.367Z</time>
      </trkpt>
      <trkpt lat="47.56297" lon="7.40351">
        <ele>406.35294</ele>
        <time>2022-09-14T15:29:01.316Z</time>
      </trkpt>
      <trkpt lat="47.56303" lon="7.40307">
        <ele>406.352568</ele>
        <time>2022-09-14T15:29:09.853Z</time>
      </trkpt>
      <trkpt lat="47.563" lon="7.40293">
        <ele>406.35244</ele>
        <time>2022-09-14T15:29:12.431Z</time>
      </trkpt>
      <trkpt lat="47.56291" lon="7.40283">
        <ele>406.352307</ele>
        <time>2022-09-14T15:29:15.591Z</time>
      </trkpt>
      <trkpt lat="47.56332" lon="7.40204">
        <ele>406.023012</ele>
        <time>2022-09-14T15:29:32.334Z</time>
      </trkpt>
      <trkpt lat="47.56322" lon="7.40184">
        <ele>405.85888</ele>
        <time>2022-09-14T15:29:36.420Z</time>
      </trkpt>
      <trkpt lat="47.56325" lon="7.40173">
        <ele>405.779737</ele>
        <time>2022-09-14T15:29:38.217Z</time>
      </trkpt>
      <trkpt lat="47.56333" lon="7.40153">
        <ele>405.625648</ele>
        <time>2022-09-14T15:29:42.169Z</time>
      </trkpt>
      <trkpt lat="47.56389" lon="7.40028">
        <ele>404.62857</ele>
        <time>2022-09-14T15:30:05.922Z</time>
      </trkpt>
      <trkpt lat="47.56475" lon="7.3984">
        <ele>404.097668</ele>
        <time>2022-09-14T15:30:45.998Z</time>
      </trkpt>
      <trkpt lat="47.56522" lon="7.39745">
        <ele>404.143769</ele>
        <time>2022-09-14T15:31:09.608Z</time>
      </trkpt>
      <trkpt lat="47.56531" lon="7.39718">
        <ele>404.20542</ele>
        <time>2022-09-14T15:31:15.468Z</time>
      </trkpt>
      <trkpt lat="47.56535" lon="7.39679">
        <ele>404.286654</ele>
        <time>2022-09-14T15:31:23.286Z</time>
      </trkpt>
      <trkpt lat="47.56534" lon="7.39646">
        <ele>404.354091</ele>
        <time>2022-09-14T15:31:30.036Z</time>
      </trkpt>
      <trkpt lat="47.56526" lon="7.39554">
        <ele>404.546572</ele>
        <time>2022-09-14T15:31:48.527Z</time>
      </trkpt>
      <trkpt lat="47.56532" lon="7.39501">
        <ele>404.656318</ele>
        <time>2022-09-14T15:31:58.861Z</time>
      </trkpt>
      <trkpt lat="47.5654" lon="7.39471">
        <ele>404.721765</ele>
        <time>2022-09-14T15:32:04.871Z</time>
      </trkpt>
      <trkpt lat="47.56579" lon="7.394">
        <ele>404.90692</ele>
        <time>2022-09-14T15:32:22.256Z</time>
      </trkpt>
      <trkpt lat="47.56629" lon="7.39258">
        <ele>405.67881</ele>
        <time>2022-09-14T15:32:55.030Z</time>
      </trkpt>
      <trkpt lat="47.56673" lon="7.39086">
        <ele>407.219567</ele>
        <time>2022-09-14T15:33:38.449Z</time>
      </trkpt>
      <trkpt lat="47.56684" lon="7.39025">
        <ele>407.807114</ele>
        <time>2022-09-14T15:33:53.777Z</time>
      </trkpt>
      <trkpt lat="47.56692" lon="7.38949">
        <ele>408.536826</ele>
        <time>2022-09-14T15:34:12.451Z</time>
      </trkpt>
      <trkpt lat="47.56722" lon="7.38865">
        <ele>409.446356</ele>
        <time>2022-09-14T15:34:34.960Z</time>
      </trkpt>
      <trkpt lat="47.56763" lon="7.38702">
        <ele>410.222688</ele>
        <time>2022-09-14T15:35:11.902Z</time>
      </trkpt>
      <trkpt lat="47.56802" lon="7.38569">
        <ele>410.661057</ele>
        <time>2022-09-14T15:35:38.881Z</time>
      </trkpt>
      <trkpt lat="47.56846" lon="7.38464">
        <ele>411.495995</ele>
        <time>2022-09-14T15:36:02.074Z</time>
      </trkpt>
      <trkpt lat="47.56899" lon="7.38297">
        <ele>413.671039</ele>
        <time>2022-09-14T15:36:47.679Z</time>
      </trkpt>
      <trkpt lat="47.56953" lon="7.38106">
        <ele>418.793293</ele>
        <time>2022-09-14T15:37:54.537Z</time>
      </trkpt>
      <trkpt lat="47.56968" lon="7.38044">
        <ele>420.389837</ele>
        <time>2022-09-14T15:38:17.322Z</time>
      </trkpt>
      <trkpt lat="47.57051" lon="7.37618">
        <ele>430.145988</ele>
        <time>2022-09-14T15:40:27.534Z</time>
      </trkpt>
      <trkpt lat="47.57093" lon="7.3745">
        <ele>431.812398</ele>
        <time>2022-09-14T15:41:11.134Z</time>
      </trkpt>
      <trkpt lat="47.57121" lon="7.37279">
        <ele>432.170965</ele>
        <time>2022-09-14T15:41:44.205Z</time>
      </trkpt>
      <trkpt lat="47.57126" lon="7.37252">
        <ele>431.929558</ele>
        <time>2022-09-14T15:41:48.814Z</time>
      </trkpt>
      <trkpt lat="47.57191" lon="7.36976">
        <ele>429.53873</ele>
        <time>2022-09-14T15:42:31.021Z</time>
      </trkpt>
      <trkpt lat="47.573" lon="7.3659">
        <ele>427.509828</ele>
        <time>2022-09-14T15:43:39.490Z</time>
      </trkpt>
      <trkpt lat="47.57337" lon="7.36441">
        <ele>427.766079</ele>
        <time>2022-09-14T15:44:09.831Z</time>
      </trkpt>
      <trkpt lat="47.57357" lon="7.3628">
        <ele>428.215434</ele>
        <time>2022-09-14T15:44:41.820Z</time>
      </trkpt>
      <trkpt lat="47.57373" lon="7.36111">
        <ele>429.047695</ele>
        <time>2022-09-14T15:45:16.256Z</time>
      </trkpt>
      <trkpt lat="47.57511" lon="7.35619">
        <ele>431.342851</ele>
        <time>2022-09-14T15:47:10.745Z</time>
      </trkpt>
      <trkpt lat="47.57529" lon="7.35569">
        <ele>431.092645</ele>
        <time>2022-09-14T15:47:18.574Z</time>
      </trkpt>
      <trkpt lat="47.57581" lon="7.35359">
        <ele>425.407415</ele>
        <time>2022-09-14T15:47:46.755Z</time>
      </trkpt>
      <trkpt lat="47.57631" lon="7.35126">
        <ele>419.846542</ele>
        <time>2022-09-14T15:48:17.844Z</time>
      </trkpt>
      <trkpt lat="47.57652" lon="7.35056">
        <ele>418.565397</ele>
        <time>2022-09-14T15:48:29.108Z</time>
      </trkpt>
      <trkpt lat="47.57664" lon="7.3499">
        <ele>418.292575</ele>
        <time>2022-09-14T15:48:40.020Z</time>
      </trkpt>
      <trkpt lat="47.57687" lon="7.34929">
        <ele>418.018445</ele>
        <time>2022-09-14T15:48:52.097Z</time>
      </trkpt>
      <trkpt lat="47.57763" lon="7.34658">
        <ele>417.039744</ele>
        <time>2022-09-14T15:49:45.034Z</time>
      </trkpt>
      <trkpt lat="47.57876" lon="7.34401">
        <ele>414.740495</ele>
        <time>2022-09-14T15:50:30.979Z</time>
      </trkpt>
      <trkpt lat="47.57882" lon="7.34389">
        <ele>414.605395</ele>
        <time>2022-09-14T15:50:33.109Z</time>
      </trkpt>
      <trkpt lat="47.5801" lon="7.34128">
        <ele>412.237292</ele>
        <time>2022-09-14T15:51:22.895Z</time>
      </trkpt>
      <trkpt lat="47.58143" lon="7.33874">
        <ele>410.314832</ele>
        <time>2022-09-14T15:52:15.185Z</time>
      </trkpt>
      <trkpt lat="47.58064" lon="7.33773">
        <ele>409.006625</ele>
        <time>2022-09-14T15:52:39.277Z</time>
      </trkpt>
      <trkpt lat="47.58054" lon="7.33748">
        <ele>408.741343</ele>
        <time>2022-09-14T15:52:43.702Z</time>
      </trkpt>
      <trkpt lat="47.58065" lon="7.33649">
        <ele>407.407603</ele>
        <time>2022-09-14T15:52:58.702Z</time>
      </trkpt>
      <trkpt lat="47.58086" lon="7.33603">
        <ele>406.676139</ele>
        <time>2022-09-14T15:53:07.019Z</time>
      </trkpt>
      <trkpt lat="47.58091" lon="7.33526">
        <ele>405.645934</ele>
        <time>2022-09-14T15:53:18.729Z</time>
      </trkpt>
      <trkpt lat="47.58108" lon="7.3346">
        <ele>404.531241</ele>
        <time>2022-09-14T15:53:29.045Z</time>
      </trkpt>
      <trkpt lat="47.58148" lon="7.33367">
        <ele>402.577556</ele>
        <time>2022-09-14T15:53:44.774Z</time>
      </trkpt>
      <trkpt lat="47.58158" lon="7.33311">
        <ele>401.533191</ele>
        <time>2022-09-14T15:53:53.089Z</time>
      </trkpt>
      <trkpt lat="47.58169" lon="7.33239">
        <ele>400.250974</ele>
        <time>2022-09-14T15:54:03.311Z</time>
      </trkpt>
      <trkpt lat="47.58194" lon="7.33162">
        <ele>398.827641</ele>
        <time>2022-09-14T15:54:15.272Z</time>
      </trkpt>
      <trkpt lat="47.58205" lon="7.33141">
        <ele>398.385836</ele>
        <time>2022-09-14T15:54:18.966Z</time>
      </trkpt>
      <trkpt lat="47.58208" lon="7.33098">
        <ele>397.66037</ele>
        <time>2022-09-14T15:54:25.260Z</time>
      </trkpt>
      <trkpt lat="47.58216" lon="7.33084">
        <ele>397.356618</ele>
        <time>2022-09-14T15:54:27.898Z</time>
      </trkpt>
      <trkpt lat="47.58204" lon="7.33027">
        <ele>396.355385</ele>
        <time>2022-09-14T15:54:36.892Z</time>
      </trkpt>
      <trkpt lat="47.58204" lon="7.32908">
        <ele>395.459451</ele>
        <time>2022-09-14T15:54:55.507Z</time>
      </trkpt>
      <trkpt lat="47.58238" lon="7.32816">
        <ele>394.830451</ele>
        <time>2022-09-14T15:55:13.022Z</time>
      </trkpt>
      <trkpt lat="47.58297" lon="7.3269">
        <ele>394.857457</ele>
        <time>2022-09-14T15:55:41.900Z</time>
      </trkpt>
      <trkpt lat="47.58346" lon="7.32538">
        <ele>395.540843</ele>
        <time>2022-09-14T15:56:18.533Z</time>
      </trkpt>
      <trkpt lat="47.58356" lon="7.32479">
        <ele>396.085982</ele>
        <time>2022-09-14T15:56:32.669Z</time>
      </trkpt>
      <trkpt lat="47.58385" lon="7.32406">
        <ele>396.873739</ele>
        <time>2022-09-14T15:56:52.630Z</time>
      </trkpt>
      <trkpt lat="47.58452" lon="7.32263">
        <ele>398.181636</ele>
        <time>2022-09-14T15:57:33.375Z</time>
      </trkpt>
      <trkpt lat="47.58481" lon="7.32179">
        <ele>398.485168</ele>
        <time>2022-09-14T15:57:54.082Z</time>
      </trkpt>
      <trkpt lat="47.58512" lon="7.32041">
        <ele>398.621463</ele>
        <time>2022-09-14T15:58:21.286Z</time>
      </trkpt>
      <trkpt lat="47.58553" lon="7.31908">
        <ele>396.93049</ele>
        <time>2022-09-14T15:58:44.043Z</time>
      </trkpt>
      <trkpt lat="47.58591" lon="7.31946">
        <ele>396.147933</ele>
        <time>2022-09-14T15:58:53.466Z</time>
      </trkpt>
      <trkpt lat="47.586" lon="7.3193">
        <ele>395.912533</ele>
        <time>2022-09-14T15:58:56.404Z</time>
      </trkpt>
      <trkpt lat="47.58689" lon="7.31674">
        <ele>389.043109</ele>
        <time>2022-09-14T15:59:35.521Z</time>
      </trkpt>
      <trkpt lat="47.58736" lon="7.31561">
        <ele>385.235727</ele>
        <time>2022-09-14T15:59:52.754Z</time>
      </trkpt>
      <trkpt lat="47.58758" lon="7.31504">
        <ele>383.364187</ele>
        <time>2022-09-14T16:00:00.861Z</time>
      </trkpt>
      <trkpt lat="47.58775" lon="7.31358">
        <ele>380.281327</ele>
        <time>2022-09-14T16:00:19.832Z</time>
      </trkpt>
      <trkpt lat="47.58776" lon="7.31353">
        <ele>380.202896</ele>
        <time>2022-09-14T16:00:20.508Z</time>
      </trkpt>
      <trkpt lat="47.58778" lon="7.31342">
        <ele>380.027171</ele>
        <time>2022-09-14T16:00:22.017Z</time>
      </trkpt>
      <trkpt lat="47.58786" lon="7.31302">
        <ele>379.368266</ele>
        <time>2022-09-14T16:00:27.889Z</time>
      </trkpt>
      <trkpt lat="47.58799" lon="7.31264">
        <ele>378.705894</ele>
        <time>2022-09-14T16:00:34.176Z</time>
      </trkpt>
      <trkpt lat="47.58839" lon="7.3122">
        <ele>377.562508</ele>
        <time>2022-09-14T16:00:45.825Z</time>
      </trkpt>
      <trkpt lat="47.58863" lon="7.3117">
        <ele>377.432863</ele>
        <time>2022-09-14T16:00:56.068Z</time>
      </trkpt>
      <trkpt lat="47.58895" lon="7.31027">
        <ele>377.17861</ele>
        <time>2022-09-14T16:01:22.450Z</time>
      </trkpt>
      <trkpt lat="47.58917" lon="7.30963">
        <ele>377.11016</ele>
        <time>2022-09-14T16:01:35.313Z</time>
      </trkpt>
      <trkpt lat="47.58928" lon="7.30885">
        <ele>377.249113</ele>
        <time>2022-09-14T16:01:49.672Z</time>
      </trkpt>
      <trkpt lat="47.58942" lon="7.30782">
        <ele>377.432791</ele>
        <time>2022-09-14T16:02:09.519Z</time>
      </trkpt>
      <trkpt lat="47.58941" lon="7.30536">
        <ele>377.910087</ele>
        <time>2022-09-14T16:02:59.469Z</time>
      </trkpt>
      <trkpt lat="47.5895" lon="7.30379">
        <ele>376.983569</ele>
        <time>2022-09-14T16:03:25.925Z</time>
      </trkpt>
      <trkpt lat="47.58957" lon="7.30352">
        <ele>376.518984</ele>
        <time>2022-09-14T16:03:30.385Z</time>
      </trkpt>
      <trkpt lat="47.58967" lon="7.30309">
        <ele>375.810549</ele>
        <time>2022-09-14T16:03:36.765Z</time>
      </trkpt>
      <trkpt lat="47.58982" lon="7.30204">
        <ele>374.124369</ele>
        <time>2022-09-14T16:03:51.031Z</time>
      </trkpt>
      <trkpt lat="47.5899" lon="7.30112">
        <ele>371.127335</ele>
        <time>2022-09-14T16:04:02.249Z</time>
      </trkpt>
      <trkpt lat="47.59011" lon="7.30033">
        <ele>368.137157</ele>
        <time>2022-09-14T16:04:12.401Z</time>
      </trkpt>
      <trkpt lat="47.59017" lon="7.29992">
        <ele>366.641363</ele>
        <time>2022-09-14T16:04:17.433Z</time>
      </trkpt>
      <trkpt lat="47.59027" lon="7.29888">
        <ele>363.131258</ele>
        <time>2022-09-14T16:04:30.130Z</time>
      </trkpt>
      <trkpt lat="47.59045" lon="7.29851">
        <ele>361.73552</ele>
        <time>2022-09-14T16:04:35.677Z</time>
      </trkpt>
      <trkpt lat="47.59051" lon="7.29826">
        <ele>360.936595</ele>
        <time>2022-09-14T16:04:38.911Z</time>
      </trkpt>
      <trkpt lat="47.59066" lon="7.2968">
        <ele>356.388365</ele>
        <time>2022-09-14T16:04:57.461Z</time>
      </trkpt>
      <trkpt lat="47.59067" lon="7.29533">
        <ele>353.374455</ele>
        <time>2022-09-14T16:05:16.493Z</time>
      </trkpt>
      <trkpt lat="47.59083" lon="7.29466">
        <ele>351.9189</ele>
        <time>2022-09-14T16:05:26.146Z</time>
      </trkpt>
      <trkpt lat="47.59093" lon="7.29434">
        <ele>351.205738</ele>
        <time>2022-09-14T16:05:31.157Z</time>
      </trkpt>
      <trkpt lat="47.59096" lon="7.29423">
        <ele>350.96721</ele>
        <time>2022-09-14T16:05:32.818Z</time>
      </trkpt>
      <trkpt lat="47.59116" lon="7.29351">
        <ele>350.896802</ele>
        <time>2022-09-14T16:05:44.534Z</time>
      </trkpt>
      <trkpt lat="47.59117" lon="7.29306">
        <ele>350.909402</ele>
        <time>2022-09-14T16:05:52.178Z</time>
      </trkpt>
      <trkpt lat="47.59053" lon="7.28971">
        <ele>351.38308</ele>
        <time>2022-09-14T16:07:07.834Z</time>
      </trkpt>
      <trkpt lat="47.59037" lon="7.28871">
        <ele>350.746204</ele>
        <time>2022-09-14T16:07:23.547Z</time>
      </trkpt>
      <trkpt lat="47.58988" lon="7.28747">
        <ele>347.566614</ele>
        <time>2022-09-14T16:07:42.031Z</time>
      </trkpt>
      <trkpt lat="47.58958" lon="7.2862">
        <ele>344.625144</ele>
        <time>2022-09-14T16:07:59.016Z</time>
      </trkpt>
      <trkpt lat="47.58955" lon="7.28562">
        <ele>343.376436</ele>
        <time>2022-09-14T16:08:06.527Z</time>
      </trkpt>
      <trkpt lat="47.58948" lon="7.28531">
        <ele>342.657533</ele>
        <time>2022-09-14T16:08:10.911Z</time>
      </trkpt>
      <trkpt lat="47.58933" lon="7.28504">
        <ele>341.916345</ele>
        <time>2022-09-14T16:08:15.369Z</time>
      </trkpt>
      <trkpt lat="47.58845" lon="7.28391">
        <ele>338.504281</ele>
        <time>2022-09-14T16:08:39.367Z</time>
      </trkpt>
      <trkpt lat="47.58766" lon="7.28223">
        <ele>335.003684</ele>
        <time>2022-09-14T16:09:07.217Z</time>
      </trkpt>
      <trkpt lat="47.58739" lon="7.28152">
        <ele>333.994137</ele>
        <time>2022-09-14T16:09:18.219Z</time>
      </trkpt>
      <trkpt lat="47.58709" lon="7.28063">
        <ele>332.765896</ele>
        <time>2022-09-14T16:09:32.484Z</time>
      </trkpt>
      <trkpt lat="47.5869" lon="7.28004">
        <ele>331.948564</ele>
        <time>2022-09-14T16:09:42.682Z</time>
      </trkpt>
      <trkpt lat="47.58677" lon="7.27938">
        <ele>332.040463</ele>
        <time>2022-09-14T16:09:54.186Z</time>
      </trkpt>
      <trkpt lat="47.58668" lon="7.27856">
        <ele>332.202628</ele>
        <time>2022-09-14T16:10:09.594Z</time>
      </trkpt>
      <trkpt lat="47.58617" lon="7.27692">
        <ele>332.445778</ele>
        <time>2022-09-14T16:10:48.214Z</time>
      </trkpt>
      <trkpt lat="47.58607" lon="7.27647">
        <ele>332.4551</ele>
        <time>2022-09-14T16:10:58.265Z</time>
      </trkpt>
      <trkpt lat="47.58576" lon="7.27515">
        <ele>332.482942</ele>
        <time>2022-09-14T16:11:22.600Z</time>
      </trkpt>
      <trkpt lat="47.58552" lon="7.2746">
        <ele>331.636965</ele>
        <time>2022-09-14T16:11:32.728Z</time>
      </trkpt>
      <trkpt lat="47.58497" lon="7.2733">
        <ele>328.994318</ele>
        <time>2022-09-14T16:11:54.436Z</time>
      </trkpt>
      <trkpt lat="47.58472" lon="7.27296">
        <ele>328.1293</ele>
        <time>2022-09-14T16:12:00.906Z</time>
      </trkpt>
      <trkpt lat="47.58443" lon="7.27255">
        <ele>327.05005</ele>
        <time>2022-09-14T16:12:08.599Z</time>
      </trkpt>
      <trkpt lat="47.58442" lon="7.27236">
        <ele>326.713197</ele>
        <time>2022-09-14T16:12:10.990Z</time>
      </trkpt>
      <trkpt lat="47.58539" lon="7.26942">
        <ele>321.594947</ele>
        <time>2022-09-14T16:12:56.702Z</time>
      </trkpt>
      <trkpt lat="47.58537" lon="7.26936">
        <ele>321.509228</ele>
        <time>2022-09-14T16:12:57.815Z</time>
      </trkpt>
      <trkpt lat="47.58486" lon="7.2688">
        <ele>320.428097</ele>
        <time>2022-09-14T16:13:11.873Z</time>
      </trkpt>
      <trkpt lat="47.58482" lon="7.2686">
        <ele>320.179357</ele>
        <time>2022-09-14T16:13:15.156Z</time>
      </trkpt>
      <trkpt lat="47.58638" lon="7.26548">
        <ele>317.90635</ele>
        <time>2022-09-14T16:14:16.530Z</time>
      </trkpt>
      <trkpt lat="47.58661" lon="7.26476">
        <ele>317.59359</ele>
        <time>2022-09-14T16:14:29.651Z</time>
      </trkpt>
      <trkpt lat="47.58676" lon="7.26405">
        <ele>317.29907</ele>
        <time>2022-09-14T16:14:42.203Z</time>
      </trkpt>
      <trkpt lat="47.58678" lon="7.26399">
        <ele>317.270613</ele>
        <time>2022-09-14T16:14:43.431Z</time>
      </trkpt>
      <trkpt lat="47.58702" lon="7.26245">
        <ele>317.222034</ele>
        <time>2022-09-14T16:15:11.260Z</time>
      </trkpt>
      <trkpt lat="47.58697" lon="7.26172">
        <ele>317.204336</ele>
        <time>2022-09-14T16:15:24.822Z</time>
      </trkpt>
      <trkpt lat="47.58745" lon="7.26094">
        <ele>317.211399</ele>
        <time>2022-09-14T16:15:44.842Z</time>
      </trkpt>
      <trkpt lat="47.58795" lon="7.25969">
        <ele>317.246339</ele>
        <time>2022-09-14T16:16:11.092Z</time>
      </trkpt>
      <trkpt lat="47.58797" lon="7.25946">
        <ele>317.251983</ele>
        <time>2022-09-14T16:16:15.283Z</time>
      </trkpt>
      <trkpt lat="47.58794" lon="7.2594">
        <ele>317.253732</ele>
        <time>2022-09-14T16:16:16.478Z</time>
      </trkpt>
      <trkpt lat="47.58777" lon="7.25932">
        <ele>317.253596</ele>
        <time>2022-09-14T16:16:21.218Z</time>
      </trkpt>
      <trkpt lat="47.58774" lon="7.25931">
        <ele>317.237975</ele>
        <time>2022-09-14T16:16:22.251Z</time>
      </trkpt>
      <trkpt lat="47.58785" lon="7.25889">
        <ele>317.108096</ele>
        <time>2022-09-14T16:16:29.942Z</time>
      </trkpt>
      <trkpt lat="47.58811" lon="7.25827">
        <ele>316.898037</ele>
        <time>2022-09-14T16:16:42.216Z</time>
      </trkpt>
      <trkpt lat="47.58833" lon="7.25783">
        <ele>316.740656</ele>
        <time>2022-09-14T16:16:51.227Z</time>
      </trkpt>
      <trkpt lat="47.58889" lon="7.25702">
        <ele>316.431913</ele>
        <time>2022-09-14T16:17:10.280Z</time>
      </trkpt>
      <trkpt lat="47.5893" lon="7.25621">
        <ele>316.225053</ele>
        <time>2022-09-14T16:17:28.026Z</time>
      </trkpt>
      <trkpt lat="47.58964" lon="7.25538">
        <ele>316.02949</ele>
        <time>2022-09-14T16:17:44.763Z</time>
      </trkpt>
      <trkpt lat="47.58982" lon="7.25445">
        <ele>315.805073</ele>
        <time>2022-09-14T16:18:01.136Z</time>
      </trkpt>
      <trkpt lat="47.58957" lon="7.25427">
        <ele>315.701763</ele>
        <time>2022-09-14T16:18:08.022Z</time>
      </trkpt>
      <trkpt lat="47.5896" lon="7.25421">
        <ele>315.682814</ele>
        <time>2022-09-14T16:18:09.342Z</time>
      </trkpt>
      <trkpt lat="47.58961" lon="7.25419">
        <ele>315.677521</ele>
        <time>2022-09-14T16:18:09.714Z</time>
      </trkpt>
      <trkpt lat="47.58967" lon="7.25408">
        <ele>315.642903</ele>
        <time>2022-09-14T16:18:12.130Z</time>
      </trkpt>
      <trkpt lat="47.59027" lon="7.25326">
        <ele>315.337772</ele>
        <time>2022-09-14T16:18:33.987Z</time>
      </trkpt>
      <trkpt lat="47.59034" lon="7.253">
        <ele>315.271935</ele>
        <time>2022-09-14T16:18:38.731Z</time>
      </trkpt>
      <trkpt lat="47.59028" lon="7.25267">
        <ele>315.201382</ele>
        <time>2022-09-14T16:18:44.711Z</time>
      </trkpt>
      <trkpt lat="47.59013" lon="7.2522">
        <ele>315.095403</ele>
        <time>2022-09-14T16:18:53.596Z</time>
      </trkpt>
      <trkpt lat="47.58971" lon="7.25237">
        <ele>314.964625</ele>
        <time>2022-09-14T16:19:04.851Z</time>
      </trkpt>
      <trkpt lat="47.58971" lon="7.25223">
        <ele>314.935257</ele>
        <time>2022-09-14T16:19:07.347Z</time>
      </trkpt>
      <trkpt lat="47.59005" lon="7.25099">
        <ele>314.728367</ele>
        <time>2022-09-14T16:19:32.263Z</time>
      </trkpt>
      <trkpt lat="47.59014" lon="7.25067">
        <ele>314.719531</ele>
        <time>2022-09-14T16:19:38.721Z</time>
      </trkpt>
      <trkpt lat="47.5906" lon="7.24888">
        <ele>314.67046</ele>
        <time>2022-09-14T16:20:13.955Z</time>
      </trkpt>
      <trkpt lat="47.59056" lon="7.24882">
        <ele>314.667003</ele>
        <time>2022-09-14T16:20:15.748Z</time>
      </trkpt>
      <trkpt lat="47.59073" lon="7.24771">
        <ele>314.61091</ele>
        <time>2022-09-14T16:20:37.202Z</time>
      </trkpt>
      <trkpt lat="47.5908" lon="7.2457">
        <ele>314.320613</ele>
        <time>2022-09-14T16:21:11.875Z</time>
      </trkpt>
      <trkpt lat="47.59133" lon="7.24407">
        <ele>313.582627</ele>
        <time>2022-09-14T16:21:41.206Z</time>
      </trkpt>
      <trkpt lat="47.59275" lon="7.24017">
        <ele>311.264163</ele>
        <time>2022-09-14T16:22:53.019Z</time>
      </trkpt>
      <trkpt lat="47.59364" lon="7.23773">
        <ele>309.206935</ele>
        <time>2022-09-14T16:23:35.096Z</time>
      </trkpt>
      <trkpt lat="47.5947" lon="7.23541">
        <ele>307.148457</ele>
        <time>2022-09-14T16:24:18.092Z</time>
      </trkpt>
      <trkpt lat="47.59572" lon="7.23429">
        <ele>306.097484</ele>
        <time>2022-09-14T16:24:48.530Z</time>
      </trkpt>
      <trkpt lat="47.59693" lon="7.23251">
        <ele>304.86764</ele>
        <time>2022-09-14T16:25:29.956Z</time>
      </trkpt>
      <trkpt lat="47.59849" lon="7.23053">
        <ele>303.283994</ele>
        <time>2022-09-14T16:26:17.445Z</time>
      </trkpt>
      <trkpt lat="47.59893" lon="7.22966">
        <ele>302.836257</ele>
        <time>2022-09-14T16:26:35.414Z</time>
      </trkpt>
      <trkpt lat="47.60121" lon="7.22443">
        <ele>302.485902</ele>
        <time>2022-09-14T16:28:27.611Z</time>
      </trkpt>
      <trkpt lat="47.60127" lon="7.2243">
        <ele>302.463893</ele>
        <time>2022-09-14T16:28:30.109Z</time>
      </trkpt>
      <trkpt lat="47.60362" lon="7.219">
        <ele>301.601554</ele>
        <time>2022-09-14T16:30:19.698Z</time>
      </trkpt>
      <trkpt lat="47.60407" lon="7.21793">
        <ele>301.489904</ele>
        <time>2022-09-14T16:30:42.651Z</time>
      </trkpt>
      <trkpt lat="47.60444" lon="7.21698">
        <ele>301.42685</ele>
        <time>2022-09-14T16:31:03.039Z</time>
      </trkpt>
      <trkpt lat="47.60497" lon="7.21441">
        <ele>301.409586</ele>
        <time>2022-09-14T16:31:52.295Z</time>
      </trkpt>
      <trkpt lat="47.60516" lon="7.21367">
        <ele>301.446387</ele>
        <time>2022-09-14T16:32:07.464Z</time>
      </trkpt>
      <trkpt lat="47.60542" lon="7.21306">
        <ele>301.50899</ele>
        <time>2022-09-14T16:32:21.884Z</time>
      </trkpt>
      <trkpt lat="47.60573" lon="7.21263">
        <ele>301.643367</ele>
        <time>2022-09-14T16:32:34.720Z</time>
      </trkpt>
      <trkpt lat="47.60829" lon="7.21037">
        <ele>302.348615</ele>
        <time>2022-09-14T16:34:01.294Z</time>
      </trkpt>
      <trkpt lat="47.60865" lon="7.21016">
        <ele>302.263524</ele>
        <time>2022-09-14T16:34:11.573Z</time>
      </trkpt>
      <trkpt lat="47.60907" lon="7.21002">
        <ele>302.127948</ele>
        <time>2022-09-14T16:34:22.849Z</time>
      </trkpt>
      <trkpt lat="47.60936" lon="7.21001">
        <ele>302.038775</ele>
        <time>2022-09-14T16:34:30.148Z</time>
      </trkpt>
      <trkpt lat="47.61087" lon="7.21037">
        <ele>301.010706</ele>
        <time>2022-09-14T16:35:10.274Z</time>
      </trkpt>
      <trkpt lat="47.6112" lon="7.21051">
        <ele>300.654251</ele>
        <time>2022-09-14T16:35:18.858Z</time>
      </trkpt>
      <trkpt lat="47.61219" lon="7.21124">
        <ele>299.056418</ele>
        <time>2022-09-14T16:35:43.777Z</time>
      </trkpt>
      <trkpt lat="47.61293" lon="7.21268">
        <ele>296.419762</ele>
        <time>2022-09-14T16:36:09.743Z</time>
      </trkpt>
      <trkpt lat="47.61333" lon="7.21332">
        <ele>295.915438</ele>
        <time>2022-09-14T16:36:22.947Z</time>
      </trkpt>
      <trkpt lat="47.61336" lon="7.21315">
        <ele>295.875732</ele>
        <time>2022-09-14T16:36:25.712Z</time>
      </trkpt>
      <trkpt lat="47.61333" lon="7.21299">
        <ele>295.83785</ele>
        <time>2022-09-14T16:36:28.417Z</time>
      </trkpt>
      <trkpt lat="47.61339" lon="7.2128">
        <ele>295.790828</ele>
        <time>2022-09-14T16:36:31.929Z</time>
      </trkpt>
      <trkpt lat="47.61348" lon="7.21276">
        <ele>295.759284</ele>
        <time>2022-09-14T16:36:34.471Z</time>
      </trkpt>
      <trkpt lat="47.61375" lon="7.21279">
        <ele>295.666762</ele>
        <time>2022-09-14T16:36:42.460Z</time>
      </trkpt>
      <trkpt lat="47.61392" lon="7.21177">
        <ele>295.498885</ele>
        <time>2022-09-14T16:37:04.689Z</time>
      </trkpt>
      <trkpt lat="47.61424" lon="7.21075">
        <ele>295.908308</ele>
        <time>2022-09-14T16:37:29.225Z</time>
      </trkpt>
      <trkpt lat="47.61436" lon="7.21083">
        <ele>295.980084</ele>
        <time>2022-09-14T16:37:33.367Z</time>
      </trkpt>
      <trkpt lat="47.61482" lon="7.2107">
        <ele>296.234377</ele>
        <time>2022-09-14T16:37:47.830Z</time>
      </trkpt>
      <trkpt lat="47.61521" lon="7.21068">
        <ele>296.420395</ele>
        <time>2022-09-14T16:37:58.807Z</time>
      </trkpt>
      <trkpt lat="47.6159" lon="7.21078">
        <ele>296.300263</ele>
        <time>2022-09-14T16:38:16.482Z</time>
      </trkpt>
      <trkpt lat="47.61604" lon="7.21076">
        <ele>296.275739</ele>
        <time>2022-09-14T16:38:19.963Z</time>
      </trkpt>
      <trkpt lat="47.61611" lon="7.21081">
        <ele>296.261979</ele>
        <time>2022-09-14T16:38:21.954Z</time>
      </trkpt>
      <trkpt lat="47.61625" lon="7.21051">
        <ele>296.22017</ele>
        <time>2022-09-14T16:38:28.419Z</time>
      </trkpt>
      <trkpt lat="47.61624" lon="7.21003">
        <ele>296.164748</ele>
        <time>2022-09-14T16:38:37.146Z</time>
      </trkpt>
      <trkpt lat="47.61647" lon="7.20997">
        <ele>296.124295</ele>
        <time>2022-09-14T16:38:43.707Z</time>
      </trkpt>
      <trkpt lat="47.61657" lon="7.20988">
        <ele>296.187895</ele>
        <time>2022-09-14T16:38:46.974Z</time>
      </trkpt>
      <trkpt lat="47.61679" lon="7.20917">
        <ele>296.835461</ele>
        <time>2022-09-14T16:39:03.981Z</time>
      </trkpt>
      <trkpt lat="47.61694" lon="7.20891">
        <ele>297.114989</ele>
        <time>2022-09-14T16:39:12.104Z</time>
      </trkpt>
      <trkpt lat="47.61717" lon="7.20843">
        <ele>297.603932</ele>
        <time>2022-09-14T16:39:25.976Z</time>
      </trkpt>
      <trkpt lat="47.61718" lon="7.20799">
        <ele>297.959557</ele>
        <time>2022-09-14T16:39:36.281Z</time>
      </trkpt>
      <trkpt lat="47.61725" lon="7.20775">
        <ele>298.179115</ele>
        <time>2022-09-14T16:39:42.503Z</time>
      </trkpt>
      <trkpt lat="47.61753" lon="7.20777">
        <ele>298.607503</ele>
        <time>2022-09-14T16:39:53.157Z</time>
      </trkpt>
      <trkpt lat="47.61813" lon="7.20764">
        <ele>299.631361</ele>
        <time>2022-09-14T16:40:14.923Z</time>
      </trkpt>
      <trkpt lat="47.61849" lon="7.20792">
        <ele>300.332703</ele>
        <time>2022-09-14T16:40:29.971Z</time>
      </trkpt>
      <trkpt lat="47.61853" lon="7.20787">
        <ele>300.420316</ele>
        <time>2022-09-14T16:40:31.984Z</time>
      </trkpt>
      <trkpt lat="47.61875" lon="7.20765">
        <ele>300.876907</ele>
        <time>2022-09-14T16:40:41.285Z</time>
      </trkpt>
      <trkpt lat="47.61886" lon="7.20755">
        <ele>301.09213</ele>
        <time>2022-09-14T16:40:46.068Z</time>
      </trkpt>
      <trkpt lat="47.61881" lon="7.20738">
        <ele>301.309648</ele>
        <time>2022-09-14T16:40:50.134Z</time>
      </trkpt>
      <trkpt lat="47.61877" lon="7.20719">
        <ele>301.509348</ele>
        <time>2022-09-14T16:40:54.417Z</time>
      </trkpt>
      <trkpt lat="47.61885" lon="7.20707">
        <ele>301.676592</ele>
        <time>2022-09-14T16:40:58.701Z</time>
      </trkpt>
      <trkpt lat="47.61924" lon="7.20572">
        <ele>303.080663</ele>
        <time>2022-09-14T16:41:32.739Z</time>
      </trkpt>
      <trkpt lat="47.61938" lon="7.20526">
        <ele>303.558985</ele>
        <time>2022-09-14T16:41:44.408Z</time>
      </trkpt>
      <trkpt lat="47.61997" lon="7.20332">
        <ele>305.846423</ele>
        <time>2022-09-14T16:42:33.456Z</time>
      </trkpt>
      <trkpt lat="47.62062" lon="7.2012">
        <ele>309.529928</ele>
        <time>2022-09-14T16:43:33.298Z</time>
      </trkpt>
      <trkpt lat="47.62074" lon="7.20055">
        <ele>310.79848</ele>
        <time>2022-09-14T16:43:52.799Z</time>
      </trkpt>
      <trkpt lat="47.62081" lon="7.19897">
        <ele>314.454049</ele>
        <time>2022-09-14T16:44:42.836Z</time>
      </trkpt>
      <trkpt lat="47.62096" lon="7.19568">
        <ele>321.472256</ele>
        <time>2022-09-14T16:46:24.394Z</time>
      </trkpt>
      <trkpt lat="47.62103" lon="7.19433">
        <ele>323.017455</ele>
        <time>2022-09-14T16:46:54.822Z</time>
      </trkpt>
      <trkpt lat="47.62128" lon="7.19212">
        <ele>321.534087</ele>
        <time>2022-09-14T16:47:30.435Z</time>
      </trkpt>
      <trkpt lat="47.62135" lon="7.19025">
        <ele>318.511448</ele>
        <time>2022-09-14T16:47:56.673Z</time>
      </trkpt>
      <trkpt lat="47.62157" lon="7.18916">
        <ele>316.902408</ele>
        <time>2022-09-14T16:48:13.296Z</time>
      </trkpt>
      <trkpt lat="47.62178" lon="7.1883">
        <ele>316.489528</ele>
        <time>2022-09-14T16:48:27.292Z</time>
      </trkpt>
      <trkpt lat="47.62249" lon="7.18664">
        <ele>316.396134</ele>
        <time>2022-09-14T16:49:04.744Z</time>
      </trkpt>
      <trkpt lat="47.62288" lon="7.18533">
        <ele>318.265208</ele>
        <time>2022-09-14T16:49:42.647Z</time>
      </trkpt>
      <trkpt lat="47.62327" lon="7.18267">
        <ele>321.612014</ele>
        <time>2022-09-14T16:50:56.865Z</time>
      </trkpt>
      <trkpt lat="47.62332" lon="7.18227">
        <ele>322.097744</ele>
        <time>2022-09-14T16:51:05.466Z</time>
      </trkpt>
      <trkpt lat="47.62332" lon="7.18176">
        <ele>322.268916</ele>
        <time>2022-09-14T16:51:15.238Z</time>
      </trkpt>
      <trkpt lat="47.62323" lon="7.18021">
        <ele>320.42041</ele>
        <time>2022-09-14T16:51:39.161Z</time>
      </trkpt>
      <trkpt lat="47.62308" lon="7.17919">
        <ele>319.114861</ele>
        <time>2022-09-14T16:51:53.627Z</time>
      </trkpt>
      <trkpt lat="47.62288" lon="7.17815">
        <ele>317.039244</ele>
        <time>2022-09-14T16:52:08.965Z</time>
      </trkpt>
      <trkpt lat="47.62249" lon="7.17599">
        <ele>313.01703</ele>
        <time>2022-09-14T16:52:40.390Z</time>
      </trkpt>
      <trkpt lat="47.62241" lon="7.17543">
        <ele>312.079401</ele>
        <time>2022-09-14T16:52:48.750Z</time>
      </trkpt>
      <trkpt lat="47.62224" lon="7.17417">
        <ele>310.006341</ele>
        <time>2022-09-14T16:53:07.506Z</time>
      </trkpt>
      <trkpt lat="47.62207" lon="7.17194">
        <ele>307.920463</ele>
        <time>2022-09-14T16:53:42.577Z</time>
      </trkpt>
      <trkpt lat="47.62192" lon="7.17022">
        <ele>306.811162</ele>
        <time>2022-09-14T16:54:12.288Z</time>
      </trkpt>
      <trkpt lat="47.62191" lon="7.16895">
        <ele>306.130713</ele>
        <time>2022-09-14T16:54:33.587Z</time>
      </trkpt>
      <trkpt lat="47.62196" lon="7.16785">
        <ele>305.109392</ele>
        <time>2022-09-14T16:54:51.017Z</time>
      </trkpt>
      <trkpt lat="47.6223" lon="7.16576">
        <ele>303.21298</ele>
        <time>2022-09-14T16:55:24.096Z</time>
      </trkpt>
      <trkpt lat="47.62235" lon="7.16543">
        <ele>303.033694</ele>
        <time>2022-09-14T16:55:29.345Z</time>
      </trkpt>
      <trkpt lat="47.6227" lon="7.16463">
        <ele>302.513531</ele>
        <time>2022-09-14T16:55:45.193Z</time>
      </trkpt>
      <trkpt lat="47.6232" lon="7.16299">
        <ele>301.922415</ele>
        <time>2022-09-14T16:56:17.873Z</time>
      </trkpt>
      <trkpt lat="47.62365" lon="7.16155">
        <ele>301.758589</ele>
        <time>2022-09-14T16:56:47.686Z</time>
      </trkpt>
      <trkpt lat="47.62328" lon="7.16137">
        <ele>301.616171</ele>
        <time>2022-09-14T16:56:57.542Z</time>
      </trkpt>
      <trkpt lat="47.62315" lon="7.1612">
        <ele>301.530176</ele>
        <time>2022-09-14T16:57:01.902Z</time>
      </trkpt>
      <trkpt lat="47.62315" lon="7.16099">
        <ele>301.462116</ele>
        <time>2022-09-14T16:57:05.477Z</time>
      </trkpt>
      <trkpt lat="47.6233" lon="7.16043">
        <ele>301.262685</ele>
        <time>2022-09-14T16:57:15.627Z</time>
      </trkpt>
      <trkpt lat="47.62329" lon="7.16025">
        <ele>301.203166</ele>
        <time>2022-09-14T16:57:18.486Z</time>
      </trkpt>
      <trkpt lat="47.62283" lon="7.15943">
        <ele>300.850689</ele>
        <time>2022-09-14T16:57:35.641Z</time>
      </trkpt>
      <trkpt lat="47.6228" lon="7.1593">
        <ele>300.764534</ele>
        <time>2022-09-14T16:57:37.933Z</time>
      </trkpt>
      <trkpt lat="47.62281" lon="7.15915">
        <ele>300.671845</ele>
        <time>2022-09-14T16:57:40.398Z</time>
      </trkpt>
      <trkpt lat="47.62344" lon="7.15814">
        <ele>299.828613</ele>
        <time>2022-09-14T16:58:02.231Z</time>
      </trkpt>
      <trkpt lat="47.62412" lon="7.15671">
        <ele>298.80254</ele>
        <time>2022-09-14T16:58:29.415Z</time>
      </trkpt>
      <trkpt lat="47.62459" lon="7.15563">
        <ele>298.076468</ele>
        <time>2022-09-14T16:58:50.086Z</time>
      </trkpt>
      <trkpt lat="47.62524" lon="7.15415">
        <ele>297.388082</ele>
        <time>2022-09-14T16:59:18.761Z</time>
      </trkpt>
      <trkpt lat="47.62535" lon="7.1539">
        <ele>297.300243</ele>
        <time>2022-09-14T16:59:23.639Z</time>
      </trkpt>
      <trkpt lat="47.62563" lon="7.15332">
        <ele>297.088207</ele>
        <time>2022-09-14T16:59:35.592Z</time>
      </trkpt>
      <trkpt lat="47.62787" lon="7.14874">
        <ele>297.150626</ele>
        <time>2022-09-14T17:01:17.407Z</time>
      </trkpt>
      <trkpt lat="47.62781" lon="7.14866">
        <ele>297.162583</ele>
        <time>2022-09-14T17:01:21.662Z</time>
      </trkpt>
      <trkpt lat="47.62783" lon="7.14849">
        <ele>297.217802</ele>
        <time>2022-09-14T17:01:26.974Z</time>
      </trkpt>
      <trkpt lat="47.62818" lon="7.14793">
        <ele>297.600531</ele>
        <time>2022-09-14T17:01:52.072Z</time>
      </trkpt>
      <trkpt lat="47.62826" lon="7.14769">
        <ele>297.732206</ele>
        <time>2022-09-14T17:02:00.965Z</time>
      </trkpt>
      <trkpt lat="47.6283" lon="7.14736">
        <ele>297.896947</ele>
        <time>2022-09-14T17:02:12.075Z</time>
      </trkpt>
      <trkpt lat="47.62836" lon="7.14657">
        <ele>298.291898</ele>
        <time>2022-09-14T17:02:38.490Z</time>
      </trkpt>
      <trkpt lat="47.62838" lon="7.14423">
        <ele>298.597195</ele>
        <time>2022-09-14T17:03:50.554Z</time>
      </trkpt>
      <trkpt lat="47.62848" lon="7.14364">
        <ele>298.629097</ele>
        <time>2022-09-14T17:04:08.053Z</time>
      </trkpt>
      <trkpt lat="47.62917" lon="7.14233">
        <ele>298.650823</ele>
        <time>2022-09-14T17:04:55.599Z</time>
      </trkpt>
      <trkpt lat="47.62995" lon="7.141">
        <ele>299.214774</ele>
        <time>2022-09-14T17:05:51.687Z</time>
      </trkpt>
      <trkpt lat="47.63011" lon="7.14102">
        <ele>299.427771</ele>
        <time>2022-09-14T17:06:00.023Z</time>
      </trkpt>
      <trkpt lat="47.63028" lon="7.14024">
        <ele>300.150291</ele>
        <time>2022-09-14T17:06:18.909Z</time>
      </trkpt>
      <trkpt lat="47.6303" lon="7.14016">
        <ele>300.224618</ele>
        <time>2022-09-14T17:06:20.940Z</time>
      </trkpt>
      <trkpt lat="47.63132" lon="7.14053">
        <ele>301.732474</ele>
        <time>2022-09-14T17:06:58.655Z</time>
      </trkpt>
      <trkpt lat="47.63184" lon="7.14014">
        <ele>302.682066</ele>
        <time>2022-09-14T17:07:18.240Z</time>
      </trkpt>
      <trkpt lat="47.63228" lon="7.13963">
        <ele>303.593581</ele>
        <time>2022-09-14T17:07:37.397Z</time>
      </trkpt>
      <trkpt lat="47.6332" lon="7.1391">
        <ele>306.573143</ele>
        <time>2022-09-14T17:08:17.040Z</time>
      </trkpt>
      <trkpt lat="47.63349" lon="7.13871">
        <ele>307.891791</ele>
        <time>2022-09-14T17:08:35.010Z</time>
      </trkpt>
      <trkpt lat="47.63406" lon="7.13735">
        <ele>311.298694</ele>
        <time>2022-09-14T17:09:28.488Z</time>
      </trkpt>
      <trkpt lat="47.63444" lon="7.13609">
        <ele>313.989695</ele>
        <time>2022-09-14T17:10:09.547Z</time>
      </trkpt>
      <trkpt lat="47.63507" lon="7.13469">
        <ele>314.120016</ele>
        <time>2022-09-14T17:10:42.395Z</time>
      </trkpt>
      <trkpt lat="47.63507" lon="7.13443">
        <ele>313.860348</ele>
        <time>2022-09-14T17:10:46.248Z</time>
      </trkpt>
      <trkpt lat="47.63528" lon="7.13348">
        <ele>312.880031</ele>
        <time>2022-09-14T17:11:00.519Z</time>
      </trkpt>
      <trkpt lat="47.63555" lon="7.13272">
        <ele>311.640219</ele>
        <time>2022-09-14T17:11:12.406Z</time>
      </trkpt>
      <trkpt lat="47.6359" lon="7.13179">
        <ele>309.800997</ele>
        <time>2022-09-14T17:11:27.126Z</time>
      </trkpt>
      <trkpt lat="47.63632" lon="7.12962">
        <ele>307.349337</ele>
        <time>2022-09-14T17:12:01.149Z</time>
      </trkpt>
      <trkpt lat="47.63668" lon="7.12821">
        <ele>306.619389</ele>
        <time>2022-09-14T17:12:29.276Z</time>
      </trkpt>
      <trkpt lat="47.63701" lon="7.12728">
        <ele>306.815904</ele>
        <time>2022-09-14T17:12:52.111Z</time>
      </trkpt>
      <trkpt lat="47.63718" lon="7.12693">
        <ele>306.896202</ele>
        <time>2022-09-14T17:13:01.650Z</time>
      </trkpt>
      <trkpt lat="47.63724" lon="7.127">
        <ele>306.917845</ele>
        <time>2022-09-14T17:13:03.825Z</time>
      </trkpt>
      <trkpt lat="47.63733" lon="7.12679">
        <ele>306.964425</ele>
        <time>2022-09-14T17:13:09.089Z</time>
      </trkpt>
      <trkpt lat="47.63734" lon="7.12659">
        <ele>307.00127</ele>
        <time>2022-09-14T17:13:13.005Z</time>
      </trkpt>
      <trkpt lat="47.63747" lon="7.12628">
        <ele>307.069427</ele>
        <time>2022-09-14T17:13:19.710Z</time>
      </trkpt>
      <trkpt lat="47.63818" lon="7.12523">
        <ele>305.195962</ele>
        <time>2022-09-14T17:13:43.486Z</time>
      </trkpt>
      <trkpt lat="47.63923" lon="7.12402">
        <ele>301.805554</ele>
        <time>2022-09-14T17:14:10.479Z</time>
      </trkpt>
      <trkpt lat="47.63961" lon="7.12393">
        <ele>300.579128</ele>
        <time>2022-09-14T17:14:17.971Z</time>
      </trkpt>
      <trkpt lat="47.63973" lon="7.12383">
        <ele>300.13179</ele>
        <time>2022-09-14T17:14:20.632Z</time>
      </trkpt>
      <trkpt lat="47.64059" lon="7.1224">
        <ele>296.738663</ele>
        <time>2022-09-14T17:14:47.875Z</time>
      </trkpt>
      <trkpt lat="47.64077" lon="7.12227">
        <ele>296.500048</ele>
        <time>2022-09-14T17:14:52.234Z</time>
      </trkpt>
      <trkpt lat="47.64105" lon="7.12226">
        <ele>296.175083</ele>
        <time>2022-09-14T17:14:58.842Z</time>
      </trkpt>
      <trkpt lat="47.64118" lon="7.12219">
        <ele>296.005257</ele>
        <time>2022-09-14T17:15:02.392Z</time>
      </trkpt>
      <trkpt lat="47.64097" lon="7.12182">
        <ele>295.616629</ele>
        <time>2022-09-14T17:15:10.279Z</time>
      </trkpt>
      <trkpt lat="47.64045" lon="7.12129">
        <ele>295.137496</ele>
        <time>2022-09-14T17:15:26.485Z</time>
      </trkpt>
      <trkpt lat="47.6357" lon="7.11575">
        <ele>298.337479</ele>
        <time>2022-09-14T17:18:23.948Z</time>
      </trkpt>
      <trkpt lat="47.63557" lon="7.11545">
        <ele>298.482084</ele>
        <time>2022-09-14T17:18:31.264Z</time>
      </trkpt>
      <trkpt lat="47.63557" lon="7.11441">
        <ele>298.907549</ele>
        <time>2022-09-14T17:18:52.171Z</time>
      </trkpt>
      <trkpt lat="47.63563" lon="7.11378">
        <ele>299.085801</ele>
        <time>2022-09-14T17:19:05.019Z</time>
      </trkpt>
      <trkpt lat="47.63561" lon="7.1131">
        <ele>299.258916</ele>
        <time>2022-09-14T17:19:18.104Z</time>
      </trkpt>
      <trkpt lat="47.63566" lon="7.11231">
        <ele>299.465161</ele>
        <time>2022-09-14T17:19:32.873Z</time>
      </trkpt>
      <trkpt lat="47.63566" lon="7.11187">
        <ele>299.579071</ele>
        <time>2022-09-14T17:19:41.010Z</time>
      </trkpt>
      <trkpt lat="47.63562" lon="7.11144">
        <ele>299.75032</ele>
        <time>2022-09-14T17:19:49.067Z</time>
      </trkpt>
      <trkpt lat="47.63563" lon="7.10995">
        <ele>300.511143</ele>
        <time>2022-09-14T17:20:18.595Z</time>
      </trkpt>
      <trkpt lat="47.63549" lon="7.10885">
        <ele>301.196126</ele>
        <time>2022-09-14T17:20:43.084Z</time>
      </trkpt>
      <trkpt lat="47.63507" lon="7.10783">
        <ele>302.528104</ele>
        <time>2022-09-14T17:21:11.075Z</time>
      </trkpt>
      <trkpt lat="47.63468" lon="7.10718">
        <ele>303.496352</ele>
        <time>2022-09-14T17:21:32.013Z</time>
      </trkpt>
      <trkpt lat="47.63459" lon="7.10693">
        <ele>303.806587</ele>
        <time>2022-09-14T17:21:38.616Z</time>
      </trkpt>
      <trkpt lat="47.63419" lon="7.10635">
        <ele>304.746069</ele>
        <time>2022-09-14T17:21:58.372Z</time>
      </trkpt>
      <trkpt lat="47.63296" lon="7.10433">
        <ele>307.508619</ele>
        <time>2022-09-14T17:23:01.567Z</time>
      </trkpt>
      <trkpt lat="47.63258" lon="7.10354">
        <ele>308.223945</ele>
        <time>2022-09-14T17:23:22.822Z</time>
      </trkpt>
      <trkpt lat="47.63215" lon="7.10214">
        <ele>308.989808</ele>
        <time>2022-09-14T17:23:53.478Z</time>
      </trkpt>
      <trkpt lat="47.6319" lon="7.10117">
        <ele>309.094483</ele>
        <time>2022-09-14T17:24:12.624Z</time>
      </trkpt>
      <trkpt lat="47.63183" lon="7.10071">
        <ele>309.143072</ele>
        <time>2022-09-14T17:24:21.181Z</time>
      </trkpt>
      <trkpt lat="47.63179" lon="7.09982">
        <ele>309.14727</ele>
        <time>2022-09-14T17:24:36.535Z</time>
      </trkpt>
      <trkpt lat="47.63183" lon="7.0989">
        <ele>308.986262</ele>
        <time>2022-09-14T17:24:52.468Z</time>
      </trkpt>
      <trkpt lat="47.63197" lon="7.0982">
        <ele>308.859688</ele>
        <time>2022-09-14T17:25:05.138Z</time>
      </trkpt>
      <trkpt lat="47.63211" lon="7.09782">
        <ele>308.786088</ele>
        <time>2022-09-14T17:25:12.497Z</time>
      </trkpt>
      <trkpt lat="47.63404" lon="7.09355">
        <ele>307.719567</ele>
        <time>2022-09-14T17:26:40.143Z</time>
      </trkpt>
      <trkpt lat="47.63441" lon="7.09267">
        <ele>307.597785</ele>
        <time>2022-09-14T17:26:57.913Z</time>
      </trkpt>
      <trkpt lat="47.6347" lon="7.0917">
        <ele>307.549217</ele>
        <time>2022-09-14T17:27:16.641Z</time>
      </trkpt>
      <trkpt lat="47.63482" lon="7.09145">
        <ele>307.535254</ele>
        <time>2022-09-14T17:27:22.122Z</time>
      </trkpt>
      <trkpt lat="47.63492" lon="7.09094">
        <ele>307.511113</ele>
        <time>2022-09-14T17:27:31.856Z</time>
      </trkpt>
      <trkpt lat="47.63538" lon="7.08886">
        <ele>307.983245</ele>
        <time>2022-09-14T17:28:13.436Z</time>
      </trkpt>
      <trkpt lat="47.63546" lon="7.08833">
        <ele>308.115804</ele>
        <time>2022-09-14T17:28:24.153Z</time>
      </trkpt>
      <trkpt lat="47.63554" lon="7.08714">
        <ele>308.675404</ele>
        <time>2022-09-14T17:28:47.421Z</time>
      </trkpt>
      <trkpt lat="47.63553" lon="7.08662">
        <ele>308.935611</ele>
        <time>2022-09-14T17:28:57.827Z</time>
      </trkpt>
      <trkpt lat="47.63547" lon="7.08539">
        <ele>309.617815</ele>
        <time>2022-09-14T17:29:23.806Z</time>
      </trkpt>
      <trkpt lat="47.63535" lon="7.08472">
        <ele>310.282989</ele>
        <time>2022-09-14T17:29:39.333Z</time>
      </trkpt>
      <trkpt lat="47.63511" lon="7.08275">
        <ele>312.190726</ele>
        <time>2022-09-14T17:30:25.998Z</time>
      </trkpt>
      <trkpt lat="47.63488" lon="7.08041">
        <ele>314.145579</ele>
        <time>2022-09-14T17:31:17.977Z</time>
      </trkpt>
      <trkpt lat="47.63475" lon="7.07958">
        <ele>314.601403</ele>
        <time>2022-09-14T17:31:35.217Z</time>
      </trkpt>
      <trkpt lat="47.63424" lon="7.07496">
        <ele>316.704067</ele>
        <time>2022-09-14T17:33:08.787Z</time>
      </trkpt>
      <trkpt lat="47.63408" lon="7.07401">
        <ele>317.224742</ele>
        <time>2022-09-14T17:33:28.701Z</time>
      </trkpt>
      <trkpt lat="47.63389" lon="7.07237">
        <ele>318.133204</ele>
        <time>2022-09-14T17:34:03.037Z</time>
      </trkpt>
      <trkpt lat="47.63389" lon="7.07214">
        <ele>318.398711</ele>
        <time>2022-09-14T17:34:07.809Z</time>
      </trkpt>
      <trkpt lat="47.63377" lon="7.07153">
        <ele>319.118514</ele>
        <time>2022-09-14T17:34:21.337Z</time>
      </trkpt>
      <trkpt lat="47.6336" lon="7.06978">
        <ele>321.157225</ele>
        <time>2022-09-14T17:35:04.335Z</time>
      </trkpt>
      <trkpt lat="47.63348" lon="7.06913">
        <ele>322.535363</ele>
        <time>2022-09-14T17:35:22.367Z</time>
      </trkpt>
      <trkpt lat="47.63331" lon="7.06746">
        <ele>326.046333</ele>
        <time>2022-09-14T17:36:11.857Z</time>
      </trkpt>
      <trkpt lat="47.63304" lon="7.06554">
        <ele>329.260408</ele>
        <time>2022-09-14T17:37:04.901Z</time>
      </trkpt>
      <trkpt lat="47.63277" lon="7.06323">
        <ele>332.235991</ele>
        <time>2022-09-14T17:37:57.970Z</time>
      </trkpt>
      <trkpt lat="47.63278" lon="7.06306">
        <ele>332.422465</ele>
        <time>2022-09-14T17:38:01.688Z</time>
      </trkpt>
      <trkpt lat="47.63236" lon="7.05984">
        <ele>336.317532</ele>
        <time>2022-09-14T17:39:19.177Z</time>
      </trkpt>
      <trkpt lat="47.63224" lon="7.05927">
        <ele>337.090033</ele>
        <time>2022-09-14T17:39:34.593Z</time>
      </trkpt>
      <trkpt lat="47.63206" lon="7.05877">
        <ele>337.998011</ele>
        <time>2022-09-14T17:39:48.931Z</time>
      </trkpt>
      <trkpt lat="47.63175" lon="7.05826">
        <ele>339.071467</ele>
        <time>2022-09-14T17:40:06.161Z</time>
      </trkpt>
      <trkpt lat="47.63141" lon="7.05762">
        <ele>340.361901</ele>
        <time>2022-09-14T17:40:26.717Z</time>
      </trkpt>
      <trkpt lat="47.6314" lon="7.05739">
        <ele>340.733653</ele>
        <time>2022-09-14T17:40:32.582Z</time>
      </trkpt>
      <trkpt lat="47.63127" lon="7.05714">
        <ele>341.229395</ele>
        <time>2022-09-14T17:40:41.125Z</time>
      </trkpt>
      <trkpt lat="47.63118" lon="7.057">
        <ele>341.573002</ele>
        <time>2022-09-14T17:40:46.066Z</time>
      </trkpt>
      <trkpt lat="47.63098" lon="7.05687">
        <ele>342.167697</ele>
        <time>2022-09-14T17:40:55.397Z</time>
      </trkpt>
      <trkpt lat="47.63086" lon="7.0567">
        <ele>342.614992</ele>
        <time>2022-09-14T17:41:02.099Z</time>
      </trkpt>
      <trkpt lat="47.63081" lon="7.05654">
        <ele>342.932916</ele>
        <time>2022-09-14T17:41:07.092Z</time>
      </trkpt>
      <trkpt lat="47.63078" lon="7.05648">
        <ele>343.071124</ele>
        <time>2022-09-14T17:41:09.297Z</time>
      </trkpt>
      <trkpt lat="47.62873" lon="7.05269">
        <ele>351.149316</ele>
        <time>2022-09-14T17:43:45.801Z</time>
      </trkpt>
      <trkpt lat="47.62747" lon="7.05046">
        <ele>352.450565</ele>
        <time>2022-09-14T17:45:02.654Z</time>
      </trkpt>
      <trkpt lat="47.62455" lon="7.05244">
        <ele>347.968649</ele>
        <time>2022-09-14T17:46:11.765Z</time>
      </trkpt>
      <trkpt lat="47.62419" lon="7.05266">
        <ele>347.564154</ele>
        <time>2022-09-14T17:46:20.521Z</time>
      </trkpt>
      <trkpt lat="47.62394" lon="7.05259">
        <ele>347.311793</ele>
        <time>2022-09-14T17:46:26.242Z</time>
      </trkpt>
      <trkpt lat="47.62423" lon="7.05143">
        <ele>346.459112</ele>
        <time>2022-09-14T17:46:46.802Z</time>
      </trkpt>
      <trkpt lat="47.62425" lon="7.05109">
        <ele>346.247728</ele>
        <time>2022-09-14T17:46:52.841Z</time>
      </trkpt>
      <trkpt lat="47.6236" lon="7.04776">
        <ele>345.231372</ele>
        <time>2022-09-14T17:47:53.308Z</time>
      </trkpt>
      <trkpt lat="47.62336" lon="7.04652">
        <ele>345.01444</ele>
        <time>2022-09-14T17:48:15.322Z</time>
      </trkpt>
      <trkpt lat="47.62308" lon="7.04551">
        <ele>345.121325</ele>
        <time>2022-09-14T17:48:35.353Z</time>
      </trkpt>
      <trkpt lat="47.62307" lon="7.04532">
        <ele>345.188164</ele>
        <time>2022-09-14T17:48:39.172Z</time>
      </trkpt>
      <trkpt lat="47.62316" lon="7.04507">
        <ele>345.286963</ele>
        <time>2022-09-14T17:48:44.765Z</time>
      </trkpt>
      <trkpt lat="47.62375" lon="7.04448">
        <ele>345.64948</ele>
        <time>2022-09-14T17:49:06.192Z</time>
      </trkpt>
      <trkpt lat="47.62387" lon="7.04415">
        <ele>345.778711</ele>
        <time>2022-09-14T17:49:13.843Z</time>
      </trkpt>
      <trkpt lat="47.62385" lon="7.04398">
        <ele>345.83779</ele>
        <time>2022-09-14T17:49:18.229Z</time>
      </trkpt>
      <trkpt lat="47.6234" lon="7.04308">
        <ele>345.588355</ele>
        <time>2022-09-14T17:49:46.598Z</time>
      </trkpt>
      <trkpt lat="47.62055" lon="7.03797">
        <ele>343.735552</ele>
        <time>2022-09-14T17:52:12.452Z</time>
      </trkpt>
      <trkpt lat="47.62049" lon="7.03785">
        <ele>343.68428</ele>
        <time>2022-09-14T17:52:15.007Z</time>
      </trkpt>
      <trkpt lat="47.6204" lon="7.03769">
        <ele>343.636046</ele>
        <time>2022-09-14T17:52:19.578Z</time>
      </trkpt>
      <trkpt lat="47.61912" lon="7.03539">
        <ele>343.691501</ele>
        <time>2022-09-14T17:53:30.970Z</time>
      </trkpt>
      <trkpt lat="47.61863" lon="7.03448">
        <ele>343.896217</ele>
        <time>2022-09-14T17:54:00.205Z</time>
      </trkpt>
      <trkpt lat="47.61858" lon="7.03439">
        <ele>343.915459</ele>
        <time>2022-09-14T17:54:02.921Z</time>
      </trkpt>
      <trkpt lat="47.61854" lon="7.03432">
        <ele>343.931632</ele>
        <time>2022-09-14T17:54:05.224Z</time>
      </trkpt>
      <trkpt lat="47.61628" lon="7.03021">
        <ele>344.505447</ele>
        <time>2022-09-14T17:56:13.928Z</time>
      </trkpt>
      <trkpt lat="47.61554" lon="7.02905">
        <ele>344.353061</ele>
        <time>2022-09-14T17:56:42.422Z</time>
      </trkpt>
      <trkpt lat="47.61418" lon="7.02782">
        <ele>343.540288</ele>
        <time>2022-09-14T17:57:21.140Z</time>
      </trkpt>
      <trkpt lat="47.61302" lon="7.02678">
        <ele>342.530014</ele>
        <time>2022-09-14T17:57:52.856Z</time>
      </trkpt>
      <trkpt lat="47.61049" lon="7.02471">
        <ele>341.514184</ele>
        <time>2022-09-14T17:59:05.119Z</time>
      </trkpt>
      <trkpt lat="47.6097" lon="7.02378">
        <ele>341.507871</ele>
        <time>2022-09-14T17:59:32.837Z</time>
      </trkpt>
      <trkpt lat="47.60935" lon="7.02329">
        <ele>341.770469</ele>
        <time>2022-09-14T17:59:46.985Z</time>
      </trkpt>
      <trkpt lat="47.60886" lon="7.02236">
        <ele>342.203811</ele>
        <time>2022-09-14T18:00:10.677Z</time>
      </trkpt>
      <trkpt lat="47.60859" lon="7.02189">
        <ele>342.429329</ele>
        <time>2022-09-14T18:00:23.163Z</time>
      </trkpt>
      <trkpt lat="47.60403" lon="7.01191">
        <ele>345.393345</ele>
        <time>2022-09-14T18:04:15.206Z</time>
      </trkpt>
      <trkpt lat="47.60352" lon="7.01097">
        <ele>345.52137</ele>
        <time>2022-09-14T18:04:36.872Z</time>
      </trkpt>
      <trkpt lat="47.60194" lon="7.0086">
        <ele>344.767365</ele>
        <time>2022-09-14T18:05:34.330Z</time>
      </trkpt>
      <trkpt lat="47.60124" lon="7.00738">
        <ele>343.91917</ele>
        <time>2022-09-14T18:05:59.970Z</time>
      </trkpt>
      <trkpt lat="47.60114" lon="7.00707">
        <ele>343.743696</ele>
        <time>2022-09-14T18:06:05.047Z</time>
      </trkpt>
      <trkpt lat="47.60095" lon="7.00601">
        <ele>342.747346</ele>
        <time>2022-09-14T18:06:21.490Z</time>
      </trkpt>
      <trkpt lat="47.60089" lon="7.00462">
        <ele>341.39693</ele>
        <time>2022-09-14T18:06:41.914Z</time>
      </trkpt>
      <trkpt lat="47.60094" lon="7.00365">
        <ele>340.567748</ele>
        <time>2022-09-14T18:06:56.808Z</time>
      </trkpt>
      <trkpt lat="47.6012" lon="7.00241">
        <ele>339.555348</ele>
        <time>2022-09-14T18:07:16.581Z</time>
      </trkpt>
      <trkpt lat="47.60138" lon="7.00173">
        <ele>338.981621</ele>
        <time>2022-09-14T18:07:28.138Z</time>
      </trkpt>
      <trkpt lat="47.60142" lon="7.00159">
        <ele>338.892555</ele>
        <time>2022-09-14T18:07:30.539Z</time>
      </trkpt>
      <trkpt lat="47.60141" lon="7.00128">
        <ele>338.708107</ele>
        <time>2022-09-14T18:07:35.401Z</time>
      </trkpt>
      <trkpt lat="47.6014" lon="7.00083">
        <ele>338.434323</ele>
        <time>2022-09-14T18:07:42.454Z</time>
      </trkpt>
      <trkpt lat="47.60125" lon="7.00013">
        <ele>337.988005</ele>
        <time>2022-09-14T18:07:54.090Z</time>
      </trkpt>
      <trkpt lat="47.60098" lon="6.99946">
        <ele>337.522714</ele>
        <time>2022-09-14T18:08:06.206Z</time>
      </trkpt>
      <trkpt lat="47.60076" lon="6.99907">
        <ele>337.412937</ele>
        <time>2022-09-14T18:08:14.268Z</time>
      </trkpt>
      <trkpt lat="47.60048" lon="6.99864">
        <ele>337.492762</ele>
        <time>2022-09-14T18:08:24.599Z</time>
      </trkpt>
      <trkpt lat="47.59693" lon="6.99464">
        <ele>338.601535</ele>
        <time>2022-09-14T18:10:31.495Z</time>
      </trkpt>
      <trkpt lat="47.59646" lon="6.99381">
        <ele>338.753365</ele>
        <time>2022-09-14T18:10:52.155Z</time>
      </trkpt>
      <trkpt lat="47.59612" lon="6.99286">
        <ele>338.802218</ele>
        <time>2022-09-14T18:11:12.132Z</time>
      </trkpt>
      <trkpt lat="47.59589" lon="6.9918">
        <ele>338.811612</ele>
        <time>2022-09-14T18:11:31.772Z</time>
      </trkpt>
      <trkpt lat="47.59582" lon="6.99096">
        <ele>338.414425</ele>
        <time>2022-09-14T18:11:46.012Z</time>
      </trkpt>
      <trkpt lat="47.59572" lon="6.98841">
        <ele>337.116319</ele>
        <time>2022-09-14T18:12:26.227Z</time>
      </trkpt>
      <trkpt lat="47.59565" lon="6.98792">
        <ele>336.822473</ele>
        <time>2022-09-14T18:12:33.869Z</time>
      </trkpt>
      <trkpt lat="47.59541" lon="6.98702">
        <ele>336.243097</ele>
        <time>2022-09-14T18:12:49.252Z</time>
      </trkpt>
      <trkpt lat="47.59504" lon="6.98619">
        <ele>335.91438</ele>
        <time>2022-09-14T18:13:05.500Z</time>
      </trkpt>
      <trkpt lat="47.59283" lon="6.98258">
        <ele>335.439318</ele>
        <time>2022-09-14T18:14:31.863Z</time>
      </trkpt>
      <trkpt lat="47.59272" lon="6.98235">
        <ele>335.421819</ele>
        <time>2022-09-14T18:14:37.086Z</time>
      </trkpt>
      <trkpt lat="47.59252" lon="6.98219">
        <ele>335.401107</ele>
        <time>2022-09-14T18:14:43.291Z</time>
      </trkpt>
      <trkpt lat="47.58276" lon="6.96714">
        <ele>334.187825</ele>
        <time>2022-09-14T18:20:52.900Z</time>
      </trkpt>
      <trkpt lat="47.5827" lon="6.96705">
        <ele>334.184944</ele>
        <time>2022-09-14T18:20:55.562Z</time>
      </trkpt>
      <trkpt lat="47.58249" lon="6.96673">
        <ele>334.175446</ele>
        <time>2022-09-14T18:21:04.171Z</time>
      </trkpt>
      <trkpt lat="47.58221" lon="6.96625">
        <ele>334.161674</ele>
        <time>2022-09-14T18:21:16.492Z</time>
      </trkpt>
      <trkpt lat="47.58178" lon="6.96565">
        <ele>334.142579</ele>
        <time>2022-09-14T18:21:33.180Z</time>
      </trkpt>
      <trkpt lat="47.57899" lon="6.96134">
        <ele>331.570978</ele>
        <time>2022-09-14T18:23:13.668Z</time>
      </trkpt>
      <trkpt lat="47.57848" lon="6.96069">
        <ele>331.431126</ele>
        <time>2022-09-14T18:23:31.066Z</time>
      </trkpt>
      <trkpt lat="47.57598" lon="6.95693">
        <ele>331.681661</ele>
        <time>2022-09-14T18:25:13.095Z</time>
      </trkpt>
      <trkpt lat="47.57556" lon="6.95635">
        <ele>331.767139</ele>
        <time>2022-09-14T18:25:29.698Z</time>
      </trkpt>
      <trkpt lat="47.57347" lon="6.95396">
        <ele>331.758899</ele>
        <time>2022-09-14T18:26:43.885Z</time>
      </trkpt>
      <trkpt lat="47.57341" lon="6.9539">
        <ele>331.733158</ele>
        <time>2022-09-14T18:26:45.861Z</time>
      </trkpt>
      <trkpt lat="47.57027" lon="6.95031">
        <ele>330.470118</ele>
        <time>2022-09-14T18:28:28.554Z</time>
      </trkpt>
      <trkpt lat="47.56915" lon="6.94894">
        <ele>330.537059</ele>
        <time>2022-09-14T18:29:09.722Z</time>
      </trkpt>
      <trkpt lat="47.56664" lon="6.94502">
        <ele>332.078981</ele>
        <time>2022-09-14T18:30:59.114Z</time>
      </trkpt>
      <trkpt lat="47.56647" lon="6.94463">
        <ele>332.218981</ele>
        <time>2022-09-14T18:31:08.626Z</time>
      </trkpt>
      <trkpt lat="47.56639" lon="6.94451">
        <ele>332.26628</ele>
        <time>2022-09-14T18:31:11.808Z</time>
      </trkpt>
      <trkpt lat="47.56599" lon="6.94398">
        <ele>332.50505</ele>
        <time>2022-09-14T18:31:28.272Z</time>
      </trkpt>
      <trkpt lat="47.56405" lon="6.94086">
        <ele>333.140583</ele>
        <time>2022-09-14T18:32:54.409Z</time>
      </trkpt>
      <trkpt lat="47.56335" lon="6.93949">
        <ele>332.570357</ele>
        <time>2022-09-14T18:33:21.994Z</time>
      </trkpt>
      <trkpt lat="47.56318" lon="6.93918">
        <ele>332.321984</ele>
        <time>2022-09-14T18:33:28.483Z</time>
      </trkpt>
      <trkpt lat="47.56309" lon="6.93911">
        <ele>332.230277</ele>
        <time>2022-09-14T18:33:30.612Z</time>
      </trkpt>
      <trkpt lat="47.56141" lon="6.93615">
        <ele>330.397063</ele>
        <time>2022-09-14T18:34:36.161Z</time>
      </trkpt>
      <trkpt lat="47.56098" lon="6.93522">
        <ele>330.184352</ele>
        <time>2022-09-14T18:34:57.381Z</time>
      </trkpt>
      <trkpt lat="47.55999" lon="6.93275">
        <ele>330.057072</ele>
        <time>2022-09-14T18:35:51.187Z</time>
      </trkpt>
      <trkpt lat="47.5591" lon="6.93037">
        <ele>329.947161</ele>
        <time>2022-09-14T18:36:40.584Z</time>
      </trkpt>
      <trkpt lat="47.55904" lon="6.93001">
        <ele>329.969335</ele>
        <time>2022-09-14T18:36:47.569Z</time>
      </trkpt>
      <trkpt lat="47.55828" lon="6.92797">
        <ele>330.266061</ele>
        <time>2022-09-14T18:37:33.285Z</time>
      </trkpt>
      <trkpt lat="47.55821" lon="6.92765">
        <ele>330.348134</ele>
        <time>2022-09-14T18:37:40.201Z</time>
      </trkpt>
      <trkpt lat="47.55806" lon="6.92743">
        <ele>330.424447</ele>
        <time>2022-09-14T18:37:46.706Z</time>
      </trkpt>
      <trkpt lat="47.55782" lon="6.92678">
        <ele>330.602869</ele>
        <time>2022-09-14T18:38:01.888Z</time>
      </trkpt>
      <trkpt lat="47.55716" lon="6.92538">
        <ele>330.651669</ele>
        <time>2022-09-14T18:38:34.662Z</time>
      </trkpt>
      <trkpt lat="47.5571" lon="6.92533">
        <ele>330.647517</ele>
        <time>2022-09-14T18:38:36.920Z</time>
      </trkpt>
      <trkpt lat="47.55713" lon="6.92527">
        <ele>330.644605</ele>
        <time>2022-09-14T18:38:38.175Z</time>
      </trkpt>
      <trkpt lat="47.55724" lon="6.92502">
        <ele>330.632501</ele>
        <time>2022-09-14T18:38:43.343Z</time>
      </trkpt>
      <trkpt lat="47.55729" lon="6.92493">
        <ele>330.627699</ele>
        <time>2022-09-14T18:38:45.511Z</time>
      </trkpt>
      <trkpt lat="47.55726" lon="6.9249">
        <ele>330.625751</ele>
        <time>2022-09-14T18:38:46.519Z</time>
      </trkpt>
      <trkpt lat="47.55705" lon="6.92463">
        <ele>330.609025</ele>
        <time>2022-09-14T18:38:53.357Z</time>
      </trkpt>
      <trkpt lat="47.55644" lon="6.92341">
        <ele>330.254127</ele>
        <time>2022-09-14T18:39:18.392Z</time>
      </trkpt>
      <trkpt lat="47.55638" lon="6.92321">
        <ele>330.192969</ele>
        <time>2022-09-14T18:39:21.860Z</time>
      </trkpt>
      <trkpt lat="47.55614" lon="6.92285">
        <ele>330.048285</ele>
        <time>2022-09-14T18:39:30.151Z</time>
      </trkpt>
      <trkpt lat="47.55385" lon="6.91851">
        <ele>329.864262</ele>
        <time>2022-09-14T18:41:09.789Z</time>
      </trkpt>
      <trkpt lat="47.54794" lon="6.90745">
        <ele>330.02939</ele>
        <time>2022-09-14T18:45:20.375Z</time>
      </trkpt>
      <trkpt lat="47.54765" lon="6.90682">
        <ele>331.061304</ele>
        <time>2022-09-14T18:45:42.673Z</time>
      </trkpt>
      <trkpt lat="47.54739" lon="6.90641">
        <ele>331.81569</ele>
        <time>2022-09-14T18:45:58.102Z</time>
      </trkpt>
      <trkpt lat="47.547" lon="6.90621">
        <ele>332.618201</ele>
        <time>2022-09-14T18:46:13.732Z</time>
      </trkpt>
      <trkpt lat="47.54683" lon="6.90583">
        <ele>333.236466</ele>
        <time>2022-09-14T18:46:25.203Z</time>
      </trkpt>
      <trkpt lat="47.5468" lon="6.9058">
        <ele>333.301349</ele>
        <time>2022-09-14T18:46:26.779Z</time>
      </trkpt>
      <trkpt lat="47.54475" lon="6.90669">
        <ele>334.208396</ele>
        <time>2022-09-14T18:47:25.528Z</time>
      </trkpt>
      <trkpt lat="47.54442" lon="6.90677">
        <ele>334.355509</ele>
        <time>2022-09-14T18:47:33.456Z</time>
      </trkpt>
      <trkpt lat="47.54414" lon="6.90675">
        <ele>334.476391</ele>
        <time>2022-09-14T18:47:40.749Z</time>
      </trkpt>
      <trkpt lat="47.5438" lon="6.90662">
        <ele>334.632108</ele>
        <time>2022-09-14T18:47:51.121Z</time>
      </trkpt>
      <trkpt lat="47.54345" lon="6.90659">
        <ele>334.789197</ele>
        <time>2022-09-14T18:48:02.331Z</time>
      </trkpt>
      <trkpt lat="47.54243" lon="6.90687">
        <ele>336.291668</ele>
        <time>2022-09-14T18:48:39.309Z</time>
      </trkpt>
      <trkpt lat="47.54186" lon="6.90708">
        <ele>337.227309</ele>
        <time>2022-09-14T18:49:00.890Z</time>
      </trkpt>
      <trkpt lat="47.54138" lon="6.90735">
        <ele>337.508576</ele>
        <time>2022-09-14T18:49:17.844Z</time>
      </trkpt>
      <trkpt lat="47.54095" lon="6.90764">
        <ele>336.988162</ele>
        <time>2022-09-14T18:49:29.913Z</time>
      </trkpt>
      <trkpt lat="47.54045" lon="6.90825">
        <ele>336.282519</ele>
        <time>2022-09-14T18:49:43.961Z</time>
      </trkpt>
      <trkpt lat="47.53974" lon="6.90998">
        <ele>333.46159</ele>
        <time>2022-09-14T18:50:11.467Z</time>
      </trkpt>
      <trkpt lat="47.53958" lon="6.91025">
        <ele>332.849976</ele>
        <time>2022-09-14T18:50:16.098Z</time>
      </trkpt>
      <trkpt lat="47.53926" lon="6.91052">
        <ele>331.897864</ele>
        <time>2022-09-14T18:50:23.408Z</time>
      </trkpt>
      <trkpt lat="47.53892" lon="6.91054">
        <ele>331.073511</ele>
        <time>2022-09-14T18:50:30.505Z</time>
      </trkpt>
      <trkpt lat="47.53778" lon="6.91">
        <ele>329.713204</ele>
        <time>2022-09-14T18:50:57.698Z</time>
      </trkpt>
      <trkpt lat="47.53456" lon="6.9072">
        <ele>327.048691</ele>
        <time>2022-09-14T18:52:28.302Z</time>
      </trkpt>
      <trkpt lat="47.53406" lon="6.90662">
        <ele>326.625599</ele>
        <time>2022-09-14T18:52:43.629Z</time>
      </trkpt>
      <trkpt lat="47.53253" lon="6.90452">
        <ele>325.354771</ele>
        <time>2022-09-14T18:53:33.746Z</time>
      </trkpt>
      <trkpt lat="47.53236" lon="6.90443">
        <ele>325.289403</ele>
        <time>2022-09-14T18:53:38.096Z</time>
      </trkpt>
      <trkpt lat="47.5321" lon="6.90413">
        <ele>325.168375</ele>
        <time>2022-09-14T18:53:46.263Z</time>
      </trkpt>
      <trkpt lat="47.53202" lon="6.90387">
        <ele>325.097029</ele>
        <time>2022-09-14T18:53:51.139Z</time>
      </trkpt>
      <trkpt lat="47.52853" lon="6.89914">
        <ele>324.818691</ele>
        <time>2022-09-14T18:55:56.472Z</time>
      </trkpt>
      <trkpt lat="47.52811" lon="6.89813">
        <ele>324.946755</ele>
        <time>2022-09-14T18:56:18.721Z</time>
      </trkpt>
      <trkpt lat="47.5279" lon="6.89701">
        <ele>325.064268</ele>
        <time>2022-09-14T18:56:40.739Z</time>
      </trkpt>
      <trkpt lat="47.52788" lon="6.8965">
        <ele>325.111416</ele>
        <time>2022-09-14T18:56:50.427Z</time>
      </trkpt>
      <trkpt lat="47.52783" lon="6.8964">
        <ele>325.123241</ele>
        <time>2022-09-14T18:56:52.907Z</time>
      </trkpt>
      <trkpt lat="47.52784" lon="6.89614">
        <ele>325.146905</ele>
        <time>2022-09-14T18:56:57.692Z</time>
      </trkpt>
      <trkpt lat="47.5279" lon="6.89592">
        <ele>325.169082</ele>
        <time>2022-09-14T18:57:02.267Z</time>
      </trkpt>
      <trkpt lat="47.52813" lon="6.8897">
        <ele>325.046218</ele>
        <time>2022-09-14T18:58:53.374Z</time>
      </trkpt>
      <trkpt lat="47.528" lon="6.88863">
        <ele>324.989235</ele>
        <time>2022-09-14T18:59:12.369Z</time>
      </trkpt>
      <trkpt lat="47.52802" lon="6.88847">
        <ele>324.981097</ele>
        <time>2022-09-14T18:59:15.084Z</time>
      </trkpt>
      <trkpt lat="47.52817" lon="6.88835">
        <ele>324.967751</ele>
        <time>2022-09-14T18:59:19.837Z</time>
      </trkpt>
      <trkpt lat="47.52798" lon="6.88827">
        <ele>324.952354</ele>
        <time>2022-09-14T18:59:25.305Z</time>
      </trkpt>
      <trkpt lat="47.52795" lon="6.88828">
        <ele>324.949944</ele>
        <time>2022-09-14T18:59:26.153Z</time>
      </trkpt>
      <trkpt lat="47.52774" lon="6.88836">
        <ele>324.933361</ele>
        <time>2022-09-14T18:59:32.273Z</time>
      </trkpt>
      <trkpt lat="47.52771" lon="6.88836">
        <ele>324.931199</ele>
        <time>2022-09-14T18:59:33.062Z</time>
      </trkpt>
      <trkpt lat="47.52763" lon="6.88828">
        <ele>324.923716</ele>
        <time>2022-09-14T18:59:35.695Z</time>
      </trkpt>
      <trkpt lat="47.52746" lon="6.88778">
        <ele>324.896023</ele>
        <time>2022-09-14T18:59:46.217Z</time>
      </trkpt>
      <trkpt lat="47.52743" lon="6.88766">
        <ele>324.89125</ele>
        <time>2022-09-14T18:59:48.642Z</time>
      </trkpt>
      <trkpt lat="47.5274" lon="6.88728">
        <ele>324.876617</ele>
        <time>2022-09-14T18:59:55.400Z</time>
      </trkpt>
      <trkpt lat="47.52731" lon="6.887">
        <ele>324.864609</ele>
        <time>2022-09-14T19:00:01.102Z</time>
      </trkpt>
      <trkpt lat="47.5269" lon="6.88613">
        <ele>324.824079</ele>
        <time>2022-09-14T19:00:20.229Z</time>
      </trkpt>
      <trkpt lat="47.52475" lon="6.88299">
        <ele>324.293286</ele>
        <time>2022-09-14T19:01:38.393Z</time>
      </trkpt>
      <trkpt lat="47.52442" lon="6.88243">
        <ele>324.188221</ele>
        <time>2022-09-14T19:01:51.477Z</time>
      </trkpt>
      <trkpt lat="47.52425" lon="6.882">
        <ele>324.117795</ele>
        <time>2022-09-14T19:02:00.002Z</time>
      </trkpt>
      <trkpt lat="47.52385" lon="6.88049">
        <ele>323.889356</ele>
        <time>2022-09-14T19:02:27.330Z</time>
      </trkpt>
      <trkpt lat="47.52364" lon="6.88033">
        <ele>323.839282</ele>
        <time>2022-09-14T19:02:33.586Z</time>
      </trkpt>
      <trkpt lat="47.52327" lon="6.88043">
        <ele>323.761419</ele>
        <time>2022-09-14T19:02:43.345Z</time>
      </trkpt>
      <trkpt lat="47.52294" lon="6.8808">
        <ele>323.717496</ele>
        <time>2022-09-14T19:03:12.234Z</time>
      </trkpt>
      <trkpt lat="47.52259" lon="6.88142">
        <ele>323.795014</ele>
        <time>2022-09-14T19:03:26.857Z</time>
      </trkpt>
      <trkpt lat="47.52251" lon="6.88131">
        <ele>323.809751</ele>
        <time>2022-09-14T19:03:29.597Z</time>
      </trkpt>
      <trkpt lat="47.52245" lon="6.88119">
        <ele>323.824924</ele>
        <time>2022-09-14T19:03:32.405Z</time>
      </trkpt>
      <trkpt lat="47.52241" lon="6.8811">
        <ele>323.835047</ele>
        <time>2022-09-14T19:03:34.293Z</time>
      </trkpt>
      <trkpt lat="47.52208" lon="6.88145">
        <ele>323.892513</ele>
        <time>2022-09-14T19:03:45.645Z</time>
      </trkpt>
      <trkpt lat="47.5218" lon="6.8818">
        <ele>323.944634</ele>
        <time>2022-09-14T19:03:56.029Z</time>
      </trkpt>
      <trkpt lat="47.52145" lon="6.88203">
        <ele>323.87689</ele>
        <time>2022-09-14T19:04:06.653Z</time>
      </trkpt>
      <trkpt lat="47.52103" lon="6.88213">
        <ele>323.765122</ele>
        <time>2022-09-14T19:04:17.452Z</time>
      </trkpt>
      <trkpt lat="47.52071" lon="6.88202">
        <ele>323.675313</ele>
        <time>2022-09-14T19:04:25.972Z</time>
      </trkpt>
      <trkpt lat="47.52036" lon="6.88176">
        <ele>323.571387</ele>
        <time>2022-09-14T19:04:35.479Z</time>
      </trkpt>
      <trkpt lat="47.52009" lon="6.88136">
        <ele>323.467518</ele>
        <time>2022-09-14T19:04:44.809Z</time>
      </trkpt>
      <trkpt lat="47.51983" lon="6.88067">
        <ele>323.291195</ele>
        <time>2022-09-14T19:04:57.902Z</time>
      </trkpt>
      <trkpt lat="47.51974" lon="6.88027">
        <ele>323.199866</ele>
        <time>2022-09-14T19:05:04.634Z</time>
      </trkpt>
      <trkpt lat="47.51707" lon="6.87176">
        <ele>321.27478</ele>
        <time>2022-09-14T19:07:46.013Z</time>
      </trkpt>
      <trkpt lat="47.51303" lon="6.85873">
        <ele>321.501685</ele>
        <time>2022-09-14T19:12:06.396Z</time>
      </trkpt>
      <trkpt lat="47.51301" lon="6.85848">
        <ele>321.484054</ele>
        <time>2022-09-14T19:12:10.844Z</time>
      </trkpt>
      <trkpt lat="47.51294" lon="6.8585">
        <ele>321.4769</ele>
        <time>2022-09-14T19:12:12.680Z</time>
      </trkpt>
      <trkpt lat="47.51274" lon="6.85863">
        <ele>321.453838</ele>
        <time>2022-09-14T19:12:18.475Z</time>
      </trkpt>
      <trkpt lat="47.51271" lon="6.85866">
        <ele>321.450061</ele>
        <time>2022-09-14T19:12:19.420Z</time>
      </trkpt>
      <trkpt lat="47.51248" lon="6.85879">
        <ele>321.42427</ele>
        <time>2022-09-14T19:12:25.910Z</time>
      </trkpt>
      <trkpt lat="47.51266" lon="6.85851">
        <ele>321.396455</ele>
        <time>2022-09-14T19:12:32.903Z</time>
      </trkpt>
      <trkpt lat="47.51265" lon="6.85837">
        <ele>321.387056</ele>
        <time>2022-09-14T19:12:35.227Z</time>
      </trkpt>
      <trkpt lat="47.5103" lon="6.85083">
        <ele>320.195089</ele>
        <time>2022-09-14T19:14:58.876Z</time>
      </trkpt>
      <trkpt lat="47.51015" lon="6.85089">
        <ele>320.255655</ele>
        <time>2022-09-14T19:15:02.987Z</time>
      </trkpt>
      <trkpt lat="47.50974" lon="6.8496">
        <ele>320.629893</ele>
        <time>2022-09-14T19:15:30.584Z</time>
      </trkpt>
      <trkpt lat="47.50972" lon="6.84894">
        <ele>320.802001</ele>
        <time>2022-09-14T19:15:44.134Z</time>
      </trkpt>
      <trkpt lat="47.5093" lon="6.8476">
        <ele>321.494044</ele>
        <time>2022-09-14T19:16:15.396Z</time>
      </trkpt>
      <trkpt lat="47.50898" lon="6.84652">
        <ele>322.05486</ele>
        <time>2022-09-14T19:16:39.852Z</time>
      </trkpt>
      <trkpt lat="47.50798" lon="6.84472">
        <ele>321.795308</ele>
        <time>2022-09-14T19:17:20.151Z</time>
      </trkpt>
      <trkpt lat="47.50688" lon="6.84216">
        <ele>320.888601</ele>
        <time>2022-09-14T19:18:10.596Z</time>
      </trkpt>
      <trkpt lat="47.50686" lon="6.84203">
        <ele>320.836703</ele>
        <time>2022-09-14T19:18:12.774Z</time>
      </trkpt>
      <trkpt lat="47.50692" lon="6.8417">
        <ele>320.690932</ele>
        <time>2022-09-14T19:18:18.416Z</time>
      </trkpt>
      <trkpt lat="47.50679" lon="6.84134">
        <ele>320.517658</ele>
        <time>2022-09-14T19:18:25.199Z</time>
      </trkpt>
      <trkpt lat="47.50653" lon="6.8412">
        <ele>320.343545</ele>
        <time>2022-09-14T19:18:31.947Z</time>
      </trkpt>
      <trkpt lat="47.50594" lon="6.83901">
        <ele>319.423639</ele>
        <time>2022-09-14T19:19:10.436Z</time>
      </trkpt>
      <trkpt lat="47.50548" lon="6.83693">
        <ele>318.740428</ele>
        <time>2022-09-14T19:19:47.086Z</time>
      </trkpt>
      <trkpt lat="47.50496" lon="6.83533">
        <ele>318.371948</ele>
        <time>2022-09-14T19:20:17.517Z</time>
      </trkpt>
      <trkpt lat="47.5047" lon="6.83439">
        <ele>318.263978</ele>
        <time>2022-09-14T19:20:35.304Z</time>
      </trkpt>
      <trkpt lat="47.50459" lon="6.83382">
        <ele>318.237225</ele>
        <time>2022-09-14T19:20:45.968Z</time>
      </trkpt>
      <trkpt lat="47.50472" lon="6.83322">
        <ele>318.208851</ele>
        <time>2022-09-14T19:20:57.335Z</time>
      </trkpt>
      <trkpt lat="47.50468" lon="6.83304">
        <ele>318.200141</ele>
        <time>2022-09-14T19:21:00.848Z</time>
      </trkpt>
      <trkpt lat="47.50449" lon="6.83289">
        <ele>318.186187</ele>
        <time>2022-09-14T19:21:06.396Z</time>
      </trkpt>
      <trkpt lat="47.50436" lon="6.83253">
        <ele>318.173879</ele>
        <time>2022-09-14T19:21:13.851Z</time>
      </trkpt>
      <trkpt lat="47.50415" lon="6.83168">
        <ele>318.188561</ele>
        <time>2022-09-14T19:21:29.822Z</time>
      </trkpt>
      <trkpt lat="47.50374" lon="6.82889">
        <ele>318.411518</ele>
        <time>2022-09-14T19:22:22.153Z</time>
      </trkpt>
      <trkpt lat="47.5037" lon="6.82864">
        <ele>318.453275</ele>
        <time>2022-09-14T19:22:27.082Z</time>
      </trkpt>
      <trkpt lat="47.50362" lon="6.82831">
        <ele>318.509734</ele>
        <time>2022-09-14T19:22:34.021Z</time>
      </trkpt>
      <trkpt lat="47.50348" lon="6.82728">
        <ele>318.633258</ele>
        <time>2022-09-14T19:22:54.261Z</time>
      </trkpt>
      <trkpt lat="47.50348" lon="6.82573">
        <ele>318.516567</ele>
        <time>2022-09-14T19:23:22.074Z</time>
      </trkpt>
      <trkpt lat="47.50367" lon="6.82533">
        <ele>318.478954</ele>
        <time>2022-09-14T19:23:30.479Z</time>
      </trkpt>
      <trkpt lat="47.50365" lon="6.82435">
        <ele>318.405948</ele>
        <time>2022-09-14T19:23:46.844Z</time>
      </trkpt>
      <trkpt lat="47.50351" lon="6.82403">
        <ele>318.378277</ele>
        <time>2022-09-14T19:23:53.146Z</time>
      </trkpt>
      <trkpt lat="47.50346" lon="6.82368">
        <ele>318.35188</ele>
        <time>2022-09-14T19:23:59.174Z</time>
      </trkpt>
      <trkpt lat="47.50346" lon="6.82305">
        <ele>318.306009</ele>
        <time>2022-09-14T19:24:10.024Z</time>
      </trkpt>
      <trkpt lat="47.50398" lon="6.81637">
        <ele>320.060591</ele>
        <time>2022-09-14T19:26:21.634Z</time>
      </trkpt>
      <trkpt lat="47.50412" lon="6.81348">
        <ele>320.709388</ele>
        <time>2022-09-14T19:27:17.217Z</time>
      </trkpt>
      <trkpt lat="47.5042" lon="6.8125">
        <ele>320.844548</ele>
        <time>2022-09-14T19:27:36.337Z</time>
      </trkpt>
      <trkpt lat="47.50433" lon="6.8119">
        <ele>320.931861</ele>
        <time>2022-09-14T19:27:47.781Z</time>
      </trkpt>
      <trkpt lat="47.50435" lon="6.81171">
        <ele>320.925996</ele>
        <time>2022-09-14T19:27:51.125Z</time>
      </trkpt>
      <trkpt lat="47.50437" lon="6.81141">
        <ele>320.742896</ele>
        <time>2022-09-14T19:27:56.310Z</time>
      </trkpt>
      <trkpt lat="47.50438" lon="6.81106">
        <ele>320.528907</ele>
        <time>2022-09-14T19:28:02.174Z</time>
      </trkpt>
      <trkpt lat="47.5045" lon="6.8087">
        <ele>319.044076</ele>
        <time>2022-09-14T19:28:38.751Z</time>
      </trkpt>
      <trkpt lat="47.50446" lon="6.80813">
        <ele>318.626301</ele>
        <time>2022-09-14T19:28:47.086Z</time>
      </trkpt>
      <trkpt lat="47.50455" lon="6.80752">
        <ele>318.170966</ele>
        <time>2022-09-14T19:28:56.278Z</time>
      </trkpt>
      <trkpt lat="47.50467" lon="6.8052">
        <ele>317.06374</ele>
        <time>2022-09-14T19:29:34.731Z</time>
      </trkpt>
      <trkpt lat="47.50469" lon="6.80474">
        <ele>316.942137</ele>
        <time>2022-09-14T19:29:42.444Z</time>
      </trkpt>
      <trkpt lat="47.50466" lon="6.8045">
        <ele>316.877157</ele>
        <time>2022-09-14T19:29:46.492Z</time>
      </trkpt>
      <trkpt lat="47.50467" lon="6.80438">
        <ele>316.845987</ele>
        <time>2022-09-14T19:29:48.481Z</time>
      </trkpt>
      <trkpt lat="47.50454" lon="6.80422">
        <ele>316.778742</ele>
        <time>2022-09-14T19:29:52.947Z</time>
      </trkpt>
      <trkpt lat="47.50444" lon="6.80425">
        <ele>316.740363</ele>
        <time>2022-09-14T19:29:55.452Z</time>
      </trkpt>
      <trkpt lat="47.5044" lon="6.80448">
        <ele>316.705613</ele>
        <time>2022-09-14T19:29:59.880Z</time>
      </trkpt>
      <trkpt lat="47.50453" lon="6.80459">
        <ele>316.743643</ele>
        <time>2022-09-14T19:30:03.951Z</time>
      </trkpt>
      <trkpt lat="47.5046" lon="6.80458">
        <ele>316.761644</ele>
        <time>2022-09-14T19:30:05.865Z</time>
      </trkpt>
      <trkpt lat="47.50509" lon="6.80453">
        <ele>316.881234</ele>
        <time>2022-09-14T19:30:19.916Z</time>
      </trkpt>
      <trkpt lat="47.50537" lon="6.80457">
        <ele>316.950164</ele>
        <time>2022-09-14T19:30:27.659Z</time>
      </trkpt>
      <trkpt lat="47.50536" lon="6.80411">
        <ele>317.026924</ele>
        <time>2022-09-14T19:30:36.145Z</time>
      </trkpt>
      <trkpt lat="47.5053" lon="6.80414">
        <ele>317.042964</ele>
        <time>2022-09-14T19:30:37.923Z</time>
      </trkpt>
      <trkpt lat="47.50531" lon="6.80434">
        <ele>317.076412</ele>
        <time>2022-09-14T19:30:41.598Z</time>
      </trkpt>
      <trkpt lat="47.50526" lon="6.8044">
        <ele>317.092297</ele>
        <time>2022-09-14T19:30:43.267Z</time>
      </trkpt>
      <trkpt lat="47.505" lon="6.80413">
        <ele>317.387826</ele>
        <time>2022-09-14T19:30:52.532Z</time>
      </trkpt>
      <trkpt lat="47.50502" lon="6.80377">
        <ele>317.810724</ele>
        <time>2022-09-14T19:31:00.214Z</time>
      </trkpt>
      <trkpt lat="47.50503" lon="6.80348">
        <ele>318.143767</ele>
        <time>2022-09-14T19:31:06.643Z</time>
      </trkpt>
      <trkpt lat="47.50503" lon="6.80235">
        <ele>319.465561</ele>
        <time>2022-09-14T19:31:35.087Z</time>
      </trkpt>
      <trkpt lat="47.5052" lon="6.7987">
        <ele>323.754872</ele>
        <time>2022-09-14T19:33:08.370Z</time>
      </trkpt>
      <trkpt lat="47.50521" lon="6.79809">
        <ele>323.286464</ele>
        <time>2022-09-14T19:33:18.556Z</time>
      </trkpt>
      <trkpt lat="47.50499" lon="6.79613">
        <ele>321.600099</ele>
        <time>2022-09-14T19:33:46.318Z</time>
      </trkpt>
      <trkpt lat="47.50481" lon="6.79479">
        <ele>319.677223</ele>
        <time>2022-09-14T19:34:05.026Z</time>
      </trkpt>
      <trkpt lat="47.50486" lon="6.79419">
        <ele>318.836542</ele>
        <time>2022-09-14T19:34:13.589Z</time>
      </trkpt>
      <trkpt lat="47.50474" lon="6.79347">
        <ele>318.293713</ele>
        <time>2022-09-14T19:34:28.585Z</time>
      </trkpt>
      <trkpt lat="47.50444" lon="6.79156">
        <ele>318.714931</ele>
        <time>2022-09-14T19:35:17.176Z</time>
      </trkpt>
      <trkpt lat="47.50428" lon="6.79131">
        <ele>318.787868</ele>
        <time>2022-09-14T19:35:27.187Z</time>
      </trkpt>
      <trkpt lat="47.50421" lon="6.7912">
        <ele>318.939036</ele>
        <time>2022-09-14T19:35:31.049Z</time>
      </trkpt>
      <trkpt lat="47.50404" lon="6.79003">
        <ele>320.590466</ele>
        <time>2022-09-14T19:36:01.695Z</time>
      </trkpt>
      <trkpt lat="47.50401" lon="6.78911">
        <ele>321.865463</ele>
        <time>2022-09-14T19:36:25.776Z</time>
      </trkpt>
      <trkpt lat="47.50401" lon="6.78868">
        <ele>322.457918</ele>
        <time>2022-09-14T19:36:35.874Z</time>
      </trkpt>
      <trkpt lat="47.50413" lon="6.78758">
        <ele>323.089936</ele>
        <time>2022-09-14T19:37:01.121Z</time>
      </trkpt>
      <trkpt lat="47.50507" lon="6.78291">
        <ele>323.92753</ele>
        <time>2022-09-14T19:38:32.690Z</time>
      </trkpt>
      <trkpt lat="47.50547" lon="6.78079">
        <ele>322.438822</ele>
        <time>2022-09-14T19:39:06.646Z</time>
      </trkpt>
      <trkpt lat="47.50549" lon="6.78016">
        <ele>321.422691</ele>
        <time>2022-09-14T19:39:15.465Z</time>
      </trkpt>
      <trkpt lat="47.50535" lon="6.77918">
        <ele>319.811485</ele>
        <time>2022-09-14T19:39:29.115Z</time>
      </trkpt>
      <trkpt lat="47.50504" lon="6.77785">
        <ele>317.629482</ele>
        <time>2022-09-14T19:39:48.189Z</time>
      </trkpt>
      <trkpt lat="47.50474" lon="6.77701">
        <ele>316.234833</ele>
        <time>2022-09-14T19:40:01.307Z</time>
      </trkpt>
      <trkpt lat="47.5042" lon="6.77603">
        <ele>314.462573</ele>
        <time>2022-09-14T19:40:19.579Z</time>
      </trkpt>
      <trkpt lat="47.50382" lon="6.77558">
        <ele>313.915086</ele>
        <time>2022-09-14T19:40:30.655Z</time>
      </trkpt>
      <trkpt lat="47.50359" lon="6.77549">
        <ele>313.6414</ele>
        <time>2022-09-14T19:40:36.272Z</time>
      </trkpt>
      <trkpt lat="47.50246" lon="6.77448">
        <ele>312.414921</ele>
        <time>2022-09-14T19:41:07.046Z</time>
      </trkpt>
      <trkpt lat="47.50227" lon="6.77418">
        <ele>312.323552</ele>
        <time>2022-09-14T19:41:13.411Z</time>
      </trkpt>
      <trkpt lat="47.50157" lon="6.77373">
        <ele>312.069908</ele>
        <time>2022-09-14T19:41:31.910Z</time>
      </trkpt>
      <trkpt lat="47.50138" lon="6.77368">
        <ele>312.006597</ele>
        <time>2022-09-14T19:41:37.392Z</time>
      </trkpt>
      <trkpt lat="47.50113" lon="6.77373">
        <ele>311.940097</ele>
        <time>2022-09-14T19:41:44.982Z</time>
      </trkpt>
      <trkpt lat="47.50067" lon="6.77386">
        <ele>312.369168</ele>
        <time>2022-09-14T19:42:00.753Z</time>
      </trkpt>
      <trkpt lat="47.50055" lon="6.77369">
        <ele>312.518249</ele>
        <time>2022-09-14T19:42:06.142Z</time>
      </trkpt>
      <trkpt lat="47.5004" lon="6.77348">
        <ele>312.710949</ele>
        <time>2022-09-14T19:42:12.840Z</time>
      </trkpt>
      <trkpt lat="47.50036" lon="6.77334">
        <ele>312.802084</ele>
        <time>2022-09-14T19:42:16.015Z</time>
      </trkpt>
      <trkpt lat="47.50015" lon="6.7723">
        <ele>313.472437</ele>
        <time>2022-09-14T19:42:38.871Z</time>
      </trkpt>
      <trkpt lat="47.49897" lon="6.77289">
        <ele>313.556535</ele>
        <time>2022-09-14T19:43:15.245Z</time>
      </trkpt>
      <trkpt lat="47.49854" lon="6.773">
        <ele>313.551775</ele>
        <time>2022-09-14T19:43:25.394Z</time>
      </trkpt>
      <trkpt lat="47.49764" lon="6.7731">
        <ele>313.048511</ele>
        <time>2022-09-14T19:43:46.420Z</time>
      </trkpt>
      <trkpt lat="47.49715" lon="6.77332">
        <ele>312.677292</ele>
        <time>2022-09-14T19:43:58.666Z</time>
      </trkpt>
      <trkpt lat="47.49584" lon="6.77361">
        <ele>311.641433</ele>
        <time>2022-09-14T19:44:30.688Z</time>
      </trkpt>
      <trkpt lat="47.49336" lon="6.77345">
        <ele>309.837987</ele>
        <time>2022-09-14T19:45:28.640Z</time>
      </trkpt>
      <trkpt lat="47.4932" lon="6.7733">
        <ele>309.712642</ele>
        <time>2022-09-14T19:45:33.647Z</time>
      </trkpt>
      <trkpt lat="47.49282" lon="6.77326">
        <ele>309.703756</ele>
        <time>2022-09-14T19:45:43.927Z</time>
      </trkpt>
      <trkpt lat="47.49261" lon="6.77326">
        <ele>309.857654</ele>
        <time>2022-09-14T19:45:49.987Z</time>
      </trkpt>
      <trkpt lat="47.49244" lon="6.77339">
        <ele>309.997452</ele>
        <time>2022-09-14T19:45:55.562Z</time>
      </trkpt>
      <trkpt lat="47.49199" lon="6.77335">
        <ele>310.33484</ele>
        <time>2022-09-14T19:46:09.943Z</time>
      </trkpt>
      <trkpt lat="47.49182" lon="6.77322">
        <ele>310.476862</ele>
        <time>2022-09-14T19:46:16.257Z</time>
      </trkpt>
      <trkpt lat="47.49187" lon="6.7725">
        <ele>310.843694</ele>
        <time>2022-09-14T19:46:31.860Z</time>
      </trkpt>
      <trkpt lat="47.49182" lon="6.77238">
        <ele>310.913301</ele>
        <time>2022-09-14T19:46:35.001Z</time>
      </trkpt>
      <trkpt lat="47.49185" lon="6.77194">
        <ele>311.132694</ele>
        <time>2022-09-14T19:46:44.227Z</time>
      </trkpt>
      <trkpt lat="47.49181" lon="6.77133">
        <ele>311.433315</ele>
        <time>2022-09-14T19:46:57.207Z</time>
      </trkpt>
      <trkpt lat="47.49163" lon="6.77028">
        <ele>311.971897</ele>
        <time>2022-09-14T19:47:20.041Z</time>
      </trkpt>
      <trkpt lat="47.49156" lon="6.77015">
        <ele>312.05549</ele>
        <time>2022-09-14T19:47:23.495Z</time>
      </trkpt>
      <trkpt lat="47.49144" lon="6.77012">
        <ele>312.143767</ele>
        <time>2022-09-14T19:47:26.935Z</time>
      </trkpt>
      <trkpt lat="47.49145" lon="6.76976">
        <ele>312.454224</ele>
        <time>2022-09-14T19:47:34.117Z</time>
      </trkpt>
      <trkpt lat="47.49146" lon="6.7694">
        <ele>312.893879</ele>
        <time>2022-09-14T19:47:41.234Z</time>
      </trkpt>
      <trkpt lat="47.49148" lon="6.7679">
        <ele>314.711962</ele>
        <time>2022-09-14T19:48:13.687Z</time>
      </trkpt>
      <trkpt lat="47.49121" lon="6.76523">
        <ele>322.18153</ele>
        <time>2022-09-14T19:49:39.488Z</time>
      </trkpt>
      <trkpt lat="47.49122" lon="6.7643">
        <ele>325.381932</ele>
        <time>2022-09-14T19:50:16.001Z</time>
      </trkpt>
      <trkpt lat="47.49106" lon="6.7643">
        <ele>326.288539</ele>
        <time>2022-09-14T19:50:26.398Z</time>
      </trkpt>
      <trkpt lat="47.49098" lon="6.76433">
        <ele>326.781867</ele>
        <time>2022-09-14T19:50:31.841Z</time>
      </trkpt>
      <trkpt lat="47.49097" lon="6.76327">
        <ele>330.874029</ele>
        <time>2022-09-14T19:51:13.109Z</time>
      </trkpt>
      <trkpt lat="47.4909" lon="6.76226">
        <ele>334.379169</ele>
        <time>2022-09-14T19:51:48.491Z</time>
      </trkpt>
      <trkpt lat="47.49092" lon="6.7608">
        <ele>335.97326</ele>
        <time>2022-09-14T19:52:22.298Z</time>
      </trkpt>
      <trkpt lat="47.49099" lon="6.76045">
        <ele>336.366384</ele>
        <time>2022-09-14T19:52:28.742Z</time>
      </trkpt>
      <trkpt lat="47.49196" lon="6.75741">
        <ele>338.584838</ele>
        <time>2022-09-14T19:53:34.223Z</time>
      </trkpt>
      <trkpt lat="47.49254" lon="6.7551">
        <ele>343.840642</ele>
        <time>2022-09-14T19:54:46.350Z</time>
      </trkpt>
      <trkpt lat="47.49277" lon="6.75399">
        <ele>346.295068</ele>
        <time>2022-09-14T19:55:21.356Z</time>
      </trkpt>
      <trkpt lat="47.49293" lon="6.75315">
        <ele>348.165731</ele>
        <time>2022-09-14T19:55:46.408Z</time>
      </trkpt>
      <trkpt lat="47.4929" lon="6.75199">
        <ele>350.623634</ele>
        <time>2022-09-14T19:56:16.253Z</time>
      </trkpt>
      <trkpt lat="47.49296" lon="6.751">
        <ele>352.716833</ele>
        <time>2022-09-14T19:56:43.319Z</time>
      </trkpt>
      <trkpt lat="47.49304" lon="6.7508">
        <ele>353.203798</ele>
        <time>2022-09-14T19:56:49.842Z</time>
      </trkpt>
      <trkpt lat="47.49321" lon="6.75057">
        <ele>353.949119</ele>
        <time>2022-09-14T19:57:00.143Z</time>
      </trkpt>
      <trkpt lat="47.4933" lon="6.75015">
        <ele>354.866303</ele>
        <time>2022-09-14T19:57:12.819Z</time>
      </trkpt>
      <trkpt lat="47.4933" lon="6.74915">
        <ele>357.328883</ele>
        <time>2022-09-14T19:57:42.804Z</time>
      </trkpt>
      <trkpt lat="47.49338" lon="6.74451">
        <ele>368.772233</ele>
        <time>2022-09-14T20:00:06.783Z</time>
      </trkpt>
      <trkpt lat="47.49348" lon="6.74327">
        <ele>367.223113</ele>
        <time>2022-09-14T20:00:28.989Z</time>
      </trkpt>
      <trkpt lat="47.49369" lon="6.742">
        <ele>365.608686</ele>
        <time>2022-09-14T20:00:45.618Z</time>
      </trkpt>
      <trkpt lat="47.49403" lon="6.74083">
        <ele>360.722177</ele>
        <time>2022-09-14T20:01:01.067Z</time>
      </trkpt>
      <trkpt lat="47.49406" lon="6.74072">
        <ele>360.271169</ele>
        <time>2022-09-14T20:01:02.405Z</time>
      </trkpt>
      <trkpt lat="47.49415" lon="6.74033">
        <ele>358.573343</ele>
        <time>2022-09-14T20:01:07.314Z</time>
      </trkpt>
      <trkpt lat="47.49418" lon="6.73975">
        <ele>356.202353</ele>
        <time>2022-09-14T20:01:14.148Z</time>
      </trkpt>
      <trkpt lat="47.49412" lon="6.73867">
        <ele>351.763844</ele>
        <time>2022-09-14T20:01:26.655Z</time>
      </trkpt>
      <trkpt lat="47.49417" lon="6.73828">
        <ele>350.158595</ele>
        <time>2022-09-14T20:01:31.190Z</time>
      </trkpt>
      <trkpt lat="47.49428" lon="6.7378">
        <ele>348.033763</ele>
        <time>2022-09-14T20:01:37.446Z</time>
      </trkpt>
      <trkpt lat="47.49441" lon="6.73754">
        <ele>346.696411</ele>
        <time>2022-09-14T20:01:41.391Z</time>
      </trkpt>
      <trkpt lat="47.49463" lon="6.7372">
        <ele>344.797456</ele>
        <time>2022-09-14T20:01:46.921Z</time>
      </trkpt>
      <trkpt lat="47.49486" lon="6.73664">
        <ele>342.577692</ele>
        <time>2022-09-14T20:01:54.888Z</time>
      </trkpt>
      <trkpt lat="47.49513" lon="6.73616">
        <ele>340.876321</ele>
        <time>2022-09-14T20:02:02.164Z</time>
      </trkpt>
      <trkpt lat="47.49636" lon="6.73486">
        <ele>336.060879</ele>
        <time>2022-09-14T20:02:31.745Z</time>
      </trkpt>
      <trkpt lat="47.49778" lon="6.73275">
        <ele>336.316565</ele>
        <time>2022-09-14T20:03:29.202Z</time>
      </trkpt>
      <trkpt lat="47.49802" lon="6.73212">
        <ele>337.12581</ele>
        <time>2022-09-14T20:03:47.802Z</time>
      </trkpt>
      <trkpt lat="47.49837" lon="6.73081">
        <ele>338.777071</ele>
        <time>2022-09-14T20:04:25.121Z</time>
      </trkpt>
      <trkpt lat="47.49893" lon="6.72937">
        <ele>340.996716</ele>
        <time>2022-09-14T20:05:07.159Z</time>
      </trkpt>
      <trkpt lat="47.49921" lon="6.72949">
        <ele>341.558365</ele>
        <time>2022-09-14T20:05:17.068Z</time>
      </trkpt>
      <trkpt lat="47.49942" lon="6.72885">
        <ele>342.475351</ele>
        <time>2022-09-14T20:05:34.379Z</time>
      </trkpt>
      <trkpt lat="47.49931" lon="6.72759">
        <ele>344.082383</ele>
        <time>2022-09-14T20:06:04.980Z</time>
      </trkpt>
      <trkpt lat="47.49922" lon="6.72692">
        <ele>344.939929</ele>
        <time>2022-09-14T20:06:22.273Z</time>
      </trkpt>
      <trkpt lat="47.49928" lon="6.72591">
        <ele>346.592277</ele>
        <time>2022-09-14T20:06:48.789Z</time>
      </trkpt>
      <trkpt lat="47.49922" lon="6.72455">
        <ele>348.90989</ele>
        <time>2022-09-14T20:07:24.328Z</time>
      </trkpt>
      <trkpt lat="47.49924" lon="6.72221">
        <ele>353.133094</ele>
        <time>2022-09-14T20:08:27.709Z</time>
      </trkpt>
      <trkpt lat="47.49934" lon="6.72156">
        <ele>354.365035</ele>
        <time>2022-09-14T20:08:45.395Z</time>
      </trkpt>
      <trkpt lat="47.4995" lon="6.72063">
        <ele>356.177142</ele>
        <time>2022-09-14T20:09:11.098Z</time>
      </trkpt>
      <trkpt lat="47.49943" lon="6.71966">
        <ele>358.044952</ele>
        <time>2022-09-14T20:09:38.051Z</time>
      </trkpt>
      <trkpt lat="47.49905" lon="6.71639">
        <ele>364.326208</ele>
        <time>2022-09-14T20:11:09.073Z</time>
      </trkpt>
      <trkpt lat="47.49898" lon="6.71564">
        <ele>365.529129</ele>
        <time>2022-09-14T20:11:28.482Z</time>
      </trkpt>
      <trkpt lat="47.49908" lon="6.71406">
        <ele>367.865165</ele>
        <time>2022-09-14T20:12:07.699Z</time>
      </trkpt>
      <trkpt lat="47.49892" lon="6.71073">
        <ele>372.337637</ele>
        <time>2022-09-14T20:13:30.115Z</time>
      </trkpt>
      <trkpt lat="47.49909" lon="6.70804">
        <ele>374.325894</ele>
        <time>2022-09-14T20:14:28.918Z</time>
      </trkpt>
      <trkpt lat="47.49898" lon="6.70557">
        <ele>374.332806</ele>
        <time>2022-09-14T20:15:12.321Z</time>
      </trkpt>
      <trkpt lat="47.499" lon="6.70497">
        <ele>374.225344</ele>
        <time>2022-09-14T20:15:22.311Z</time>
      </trkpt>
      <trkpt lat="47.49929" lon="6.70448">
        <ele>374.109692</ele>
        <time>2022-09-14T20:15:33.062Z</time>
      </trkpt>
      <trkpt lat="47.49995" lon="6.70369">
        <ele>373.883574</ele>
        <time>2022-09-14T20:15:54.584Z</time>
      </trkpt>
      <trkpt lat="47.50051" lon="6.70269">
        <ele>374.746586</ele>
        <time>2022-09-14T20:16:19.598Z</time>
      </trkpt>
      <trkpt lat="47.50119" lon="6.70208">
        <ele>375.633143</ele>
        <time>2022-09-14T20:16:45.874Z</time>
      </trkpt>
      <trkpt lat="47.50201" lon="6.70111">
        <ele>378.356999</ele>
        <time>2022-09-14T20:17:27.847Z</time>
      </trkpt>
      <trkpt lat="47.50227" lon="6.70057">
        <ele>379.70139</ele>
        <time>2022-09-14T20:17:47.457Z</time>
      </trkpt>
      <trkpt lat="47.50253" lon="6.70035">
        <ele>380.567295</ele>
        <time>2022-09-14T20:18:00.167Z</time>
      </trkpt>
      <trkpt lat="47.50284" lon="6.70019">
        <ele>381.472982</ele>
        <time>2022-09-14T20:18:14.573Z</time>
      </trkpt>
      <trkpt lat="47.50332" lon="6.70009">
        <ele>382.510468</ele>
        <time>2022-09-14T20:18:35.261Z</time>
      </trkpt>
      <trkpt lat="47.50399" lon="6.69981">
        <ele>384.005966</ele>
        <time>2022-09-14T20:19:02.020Z</time>
      </trkpt>
      <trkpt lat="47.50486" lon="6.69947">
        <ele>384.932263</ele>
        <time>2022-09-14T20:19:31.327Z</time>
      </trkpt>
      <trkpt lat="47.50604" lon="6.69834">
        <ele>384.377406</ele>
        <time>2022-09-14T20:20:06.772Z</time>
      </trkpt>
      <trkpt lat="47.50753" lon="6.69689">
        <ele>380.851977</ele>
        <time>2022-09-14T20:20:45.775Z</time>
      </trkpt>
      <trkpt lat="47.50765" lon="6.6968">
        <ele>380.617608</ele>
        <time>2022-09-14T20:20:48.719Z</time>
      </trkpt>
      <trkpt lat="47.50774" lon="6.69655">
        <ele>380.30872</ele>
        <time>2022-09-14T20:20:52.492Z</time>
      </trkpt>
      <trkpt lat="47.50797" lon="6.69625">
        <ele>379.800514</ele>
        <time>2022-09-14T20:20:58.847Z</time>
      </trkpt>
      <trkpt lat="47.50868" lon="6.69542">
        <ele>378.291382</ele>
        <time>2022-09-14T20:21:19.123Z</time>
      </trkpt>
      <trkpt lat="47.50882" lon="6.69513">
        <ele>377.90198</ele>
        <time>2022-09-14T20:21:24.452Z</time>
      </trkpt>
      <trkpt lat="47.50885" lon="6.69489">
        <ele>377.627186</ele>
        <time>2022-09-14T20:21:28.348Z</time>
      </trkpt>
      <trkpt lat="47.50884" lon="6.69469">
        <ele>377.406912</ele>
        <time>2022-09-14T20:21:31.373Z</time>
      </trkpt>
      <trkpt lat="47.50888" lon="6.69413">
        <ele>376.772008</ele>
        <time>2022-09-14T20:21:40.145Z</time>
      </trkpt>
      <trkpt lat="47.50915" lon="6.69363">
        <ele>376.068048</ele>
        <time>2022-09-14T20:21:49.964Z</time>
      </trkpt>
      <trkpt lat="47.50923" lon="6.69323">
        <ele>375.605126</ele>
        <time>2022-09-14T20:21:56.235Z</time>
      </trkpt>
      <trkpt lat="47.50921" lon="6.69312">
        <ele>375.47755</ele>
        <time>2022-09-14T20:21:57.935Z</time>
      </trkpt>
      <trkpt lat="47.50963" lon="6.69234">
        <ele>374.273854</ele>
        <time>2022-09-14T20:22:12.094Z</time>
      </trkpt>
      <trkpt lat="47.51009" lon="6.69115">
        <ele>372.466018</ele>
        <time>2022-09-14T20:22:30.797Z</time>
      </trkpt>
      <trkpt lat="47.5104" lon="6.68912">
        <ele>371.570707</ele>
        <time>2022-09-14T20:23:03.808Z</time>
      </trkpt>
      <trkpt lat="47.51046" lon="6.68871">
        <ele>371.633231</ele>
        <time>2022-09-14T20:23:12.769Z</time>
      </trkpt>
      <trkpt lat="47.51054" lon="6.68807">
        <ele>371.728948</ele>
        <time>2022-09-14T20:23:27.050Z</time>
      </trkpt>
      <trkpt lat="47.51143" lon="6.68382">
        <ele>374.946935</ele>
        <time>2022-09-14T20:25:08.321Z</time>
      </trkpt>
      <trkpt lat="47.51397" lon="6.67169">
        <ele>372.197091</ele>
        <time>2022-09-14T20:28:41.710Z</time>
      </trkpt>
      <trkpt lat="47.514" lon="6.6715">
        <ele>372.181367</ele>
        <time>2022-09-14T20:28:45.101Z</time>
      </trkpt>
      <trkpt lat="47.51416" lon="6.67144">
        <ele>372.161816</ele>
        <time>2022-09-14T20:28:49.677Z</time>
      </trkpt>
      <trkpt lat="47.51496" lon="6.67052">
        <ele>372.068223</ele>
        <time>2022-09-14T20:29:17.686Z</time>
      </trkpt>
      <trkpt lat="47.5164" lon="6.66883">
        <ele>372.487014</ele>
        <time>2022-09-14T20:30:11.359Z</time>
      </trkpt>
      <trkpt lat="47.51704" lon="6.66815">
        <ele>372.63352</ele>
        <time>2022-09-14T20:30:33.988Z</time>
      </trkpt>
      <trkpt lat="47.51771" lon="6.66675">
        <ele>372.891967</ele>
        <time>2022-09-14T20:31:07.055Z</time>
      </trkpt>
      <trkpt lat="47.51857" lon="6.66585">
        <ele>373.2581</ele>
        <time>2022-09-14T20:31:37.625Z</time>
      </trkpt>
      <trkpt lat="47.5191" lon="6.66519">
        <ele>373.617335</ele>
        <time>2022-09-14T20:31:58.889Z</time>
      </trkpt>
      <trkpt lat="47.52026" lon="6.66427">
        <ele>374.796342</ele>
        <time>2022-09-14T20:32:40.574Z</time>
      </trkpt>
      <trkpt lat="47.52105" lon="6.6632">
        <ele>375.807583</ele>
        <time>2022-09-14T20:33:17.424Z</time>
      </trkpt>
      <trkpt lat="47.52145" lon="6.66263">
        <ele>376.336654</ele>
        <time>2022-09-14T20:33:35.867Z</time>
      </trkpt>
      <trkpt lat="47.52201" lon="6.6618">
        <ele>376.296788</ele>
        <time>2022-09-14T20:33:59.938Z</time>
      </trkpt>
      <trkpt lat="47.52179" lon="6.66159">
        <ele>375.941045</ele>
        <time>2022-09-14T20:34:06.415Z</time>
      </trkpt>
      <trkpt lat="47.52134" lon="6.66073">
        <ele>374.949731</ele>
        <time>2022-09-14T20:34:23.024Z</time>
      </trkpt>
      <trkpt lat="47.52125" lon="6.66056">
        <ele>374.755213</ele>
        <time>2022-09-14T20:34:26.249Z</time>
      </trkpt>
      <trkpt lat="47.52146" lon="6.66035">
        <ele>374.418194</ele>
        <time>2022-09-14T20:34:31.422Z</time>
      </trkpt>
      <trkpt lat="47.52186" lon="6.65972">
        <ele>372.736877</ele>
        <time>2022-09-14T20:34:43.454Z</time>
      </trkpt>
      <trkpt lat="47.52149" lon="6.65862">
        <ele>370.189496</ele>
        <time>2022-09-14T20:34:59.323Z</time>
      </trkpt>
      <trkpt lat="47.52138" lon="6.65828">
        <ele>369.385598</ele>
        <time>2022-09-14T20:35:04.320Z</time>
      </trkpt>
      <trkpt lat="47.52059" lon="6.65632">
        <ele>366.417705</ele>
        <time>2022-09-14T20:35:36.939Z</time>
      </trkpt>
      <trkpt lat="47.52117" lon="6.65542">
        <ele>365.57327</ele>
        <time>2022-09-14T20:35:56.427Z</time>
      </trkpt>
      <trkpt lat="47.52144" lon="6.65504">
        <ele>365.534086</ele>
        <time>2022-09-14T20:36:05.449Z</time>
      </trkpt>
      <trkpt lat="47.52155" lon="6.65488">
        <ele>365.517167</ele>
        <time>2022-09-14T20:36:09.429Z</time>
      </trkpt>
      <trkpt lat="47.5224" lon="6.65384">
        <ele>365.759057</ele>
        <time>2022-09-14T20:36:40.962Z</time>
      </trkpt>
      <trkpt lat="47.52482" lon="6.65087">
        <ele>371.738946</ele>
        <time>2022-09-14T20:38:32.796Z</time>
      </trkpt>
      <trkpt lat="47.52545" lon="6.65014">
        <ele>374.795505</ele>
        <time>2022-09-14T20:39:07.662Z</time>
      </trkpt>
      <trkpt lat="47.52638" lon="6.64947">
        <ele>379.497402</ele>
        <time>2022-09-14T20:39:57.868Z</time>
      </trkpt>
      <trkpt lat="47.52676" lon="6.64894">
        <ele>382.596356</ele>
        <time>2022-09-14T20:40:28.017Z</time>
      </trkpt>
      <trkpt lat="47.52715" lon="6.64869">
        <ele>385.579963</ele>
        <time>2022-09-14T20:40:55.359Z</time>
      </trkpt>
      <trkpt lat="47.52859" lon="6.64819">
        <ele>396.228946</ele>
        <time>2022-09-14T20:42:24.646Z</time>
      </trkpt>
      <trkpt lat="47.52908" lon="6.64821">
        <ele>400.164489</ele>
        <time>2022-09-14T20:42:57.737Z</time>
      </trkpt>
      <trkpt lat="47.52957" lon="6.64836">
        <ele>404.098682</ele>
        <time>2022-09-14T20:43:33.132Z</time>
      </trkpt>
      <trkpt lat="47.53009" lon="6.64861">
        <ele>408.033419</ele>
        <time>2022-09-14T20:44:07.778Z</time>
      </trkpt>
      <trkpt lat="47.53057" lon="6.64901">
        <ele>411.049885</ele>
        <time>2022-09-14T20:44:39.358Z</time>
      </trkpt>
      <trkpt lat="47.53089" lon="6.64915">
        <ele>412.887772</ele>
        <time>2022-09-14T20:44:57.899Z</time>
      </trkpt>
      <trkpt lat="47.53121" lon="6.64915">
        <ele>414.648392</ele>
        <time>2022-09-14T20:45:14.461Z</time>
      </trkpt>
      <trkpt lat="47.53157" lon="6.64893">
        <ele>416.810465</ele>
        <time>2022-09-14T20:45:33.014Z</time>
      </trkpt>
      <trkpt lat="47.5318" lon="6.64856">
        <ele>417.07645</ele>
        <time>2022-09-14T20:45:46.519Z</time>
      </trkpt>
      <trkpt lat="47.53192" lon="6.64821">
        <ele>417.114936</ele>
        <time>2022-09-14T20:45:54.428Z</time>
      </trkpt>
      <trkpt lat="47.53196" lon="6.64792">
        <ele>417.14357</ele>
        <time>2022-09-14T20:45:59.447Z</time>
      </trkpt>
      <trkpt lat="47.53197" lon="6.64722">
        <ele>417.212326</ele>
        <time>2022-09-14T20:46:10.015Z</time>
      </trkpt>
      <trkpt lat="47.53203" lon="6.64698">
        <ele>417.236803</ele>
        <time>2022-09-14T20:46:13.616Z</time>
      </trkpt>
      <trkpt lat="47.53216" lon="6.64674">
        <ele>417.266661</ele>
        <time>2022-09-14T20:46:18.228Z</time>
      </trkpt>
      <trkpt lat="47.53239" lon="6.64653">
        <ele>417.248151</ele>
        <time>2022-09-14T20:46:24.463Z</time>
      </trkpt>
      <trkpt lat="47.53362" lon="6.64578">
        <ele>416.590781</ele>
        <time>2022-09-14T20:46:57.874Z</time>
      </trkpt>
      <trkpt lat="47.53416" lon="6.64564">
        <ele>416.235102</ele>
        <time>2022-09-14T20:47:11.955Z</time>
      </trkpt>
      <trkpt lat="47.53465" lon="6.64563">
        <ele>415.74976</ele>
        <time>2022-09-14T20:47:24.293Z</time>
      </trkpt>
      <trkpt lat="47.53473" lon="6.64563">
        <ele>415.66588</ele>
        <time>2022-09-14T20:47:26.473Z</time>
      </trkpt>
      <trkpt lat="47.53471" lon="6.6455">
        <ele>415.579444</ele>
        <time>2022-09-14T20:47:28.305Z</time>
      </trkpt>
      <trkpt lat="47.53332" lon="6.64278">
        <ele>413.085346</ele>
        <time>2022-09-14T20:48:19.419Z</time>
      </trkpt>
      <trkpt lat="47.53306" lon="6.64192">
        <ele>412.549592</ele>
        <time>2022-09-14T20:48:34.868Z</time>
      </trkpt>
      <trkpt lat="47.53299" lon="6.64141">
        <ele>412.540245</ele>
        <time>2022-09-14T20:48:44.414Z</time>
      </trkpt>
      <trkpt lat="47.53297" lon="6.64046">
        <ele>412.523316</ele>
        <time>2022-09-14T20:49:02.496Z</time>
      </trkpt>
      <trkpt lat="47.53314" lon="6.63939">
        <ele>412.423392</ele>
        <time>2022-09-14T20:49:22.438Z</time>
      </trkpt>
      <trkpt lat="47.53336" lon="6.63873">
        <ele>412.036469</ele>
        <time>2022-09-14T20:49:35.307Z</time>
      </trkpt>
      <trkpt lat="47.53401" lon="6.63755">
        <ele>411.231264</ele>
        <time>2022-09-14T20:49:59.627Z</time>
      </trkpt>
      <trkpt lat="47.53436" lon="6.63687">
        <ele>410.047093</ele>
        <time>2022-09-14T20:50:11.769Z</time>
      </trkpt>
      <trkpt lat="47.53452" lon="6.63628">
        <ele>408.953918</ele>
        <time>2022-09-14T20:50:20.575Z</time>
      </trkpt>
      <trkpt lat="47.53472" lon="6.63457">
        <ele>405.394699</ele>
        <time>2022-09-14T20:50:43.960Z</time>
      </trkpt>
      <trkpt lat="47.53478" lon="6.63402">
        <ele>403.421531</ele>
        <time>2022-09-14T20:50:50.808Z</time>
      </trkpt>
      <trkpt lat="47.53499" lon="6.63357">
        <ele>401.471055</ele>
        <time>2022-09-14T20:50:57.359Z</time>
      </trkpt>
      <trkpt lat="47.5352" lon="6.63331">
        <ele>400.007717</ele>
        <time>2022-09-14T20:51:02.146Z</time>
      </trkpt>
      <trkpt lat="47.5353" lon="6.63327">
        <ele>399.48707</ele>
        <time>2022-09-14T20:51:03.857Z</time>
      </trkpt>
      <trkpt lat="47.53673" lon="6.63312">
        <ele>393.674303</ele>
        <time>2022-09-14T20:51:29.330Z</time>
      </trkpt>
      <trkpt lat="47.53744" lon="6.63294">
        <ele>391.16351</ele>
        <time>2022-09-14T20:51:44.527Z</time>
      </trkpt>
      <trkpt lat="47.53769" lon="6.63309">
        <ele>391.244319</ele>
        <time>2022-09-14T20:51:52.566Z</time>
      </trkpt>
      <trkpt lat="47.53788" lon="6.63301">
        <ele>391.827362</ele>
        <time>2022-09-14T20:51:59.552Z</time>
      </trkpt>
      <trkpt lat="47.53807" lon="6.63284">
        <ele>392.44946</ele>
        <time>2022-09-14T20:52:07.856Z</time>
      </trkpt>
      <trkpt lat="47.53871" lon="6.63254">
        <ele>394.350327</ele>
        <time>2022-09-14T20:52:37.644Z</time>
      </trkpt>
      <trkpt lat="47.53911" lon="6.6323">
        <ele>395.591766</ele>
        <time>2022-09-14T20:52:58.383Z</time>
      </trkpt>
      <trkpt lat="47.53962" lon="6.63174">
        <ele>398.254777</ele>
        <time>2022-09-14T20:53:28.514Z</time>
      </trkpt>
      <trkpt lat="47.53988" lon="6.63157">
        <ele>399.578304</ele>
        <time>2022-09-14T20:53:41.482Z</time>
      </trkpt>
      <trkpt lat="47.54017" lon="6.63156">
        <ele>400.868824</ele>
        <time>2022-09-14T20:53:53.514Z</time>
      </trkpt>
      <trkpt lat="47.54215" lon="6.63253">
        <ele>413.705933</ele>
        <time>2022-09-14T20:55:43.878Z</time>
      </trkpt>
      <trkpt lat="47.54335" lon="6.63312">
        <ele>424.707331</ele>
        <time>2022-09-14T20:57:25.071Z</time>
      </trkpt>
      <trkpt lat="47.5441" lon="6.63325">
        <ele>432.049502</ele>
        <time>2022-09-14T20:58:23.887Z</time>
      </trkpt>
      <trkpt lat="47.5443" lon="6.63311">
        <ele>433.998947</ele>
        <time>2022-09-14T20:58:39.110Z</time>
      </trkpt>
      <trkpt lat="47.54515" lon="6.63118">
        <ele>438.064812</ele>
        <time>2022-09-14T20:59:44.807Z</time>
      </trkpt>
      <trkpt lat="47.54542" lon="6.63062">
        <ele>437.058444</ele>
        <time>2022-09-14T20:59:53.670Z</time>
      </trkpt>
      <trkpt lat="47.54553" lon="6.63023">
        <ele>435.215161</ele>
        <time>2022-09-14T20:59:58.900Z</time>
      </trkpt>
      <trkpt lat="47.54639" lon="6.62557">
        <ele>410.980418</ele>
        <time>2022-09-14T21:00:53.507Z</time>
      </trkpt>
      <trkpt lat="47.54687" lon="6.62312">
        <ele>398.411506</ele>
        <time>2022-09-14T21:01:23.151Z</time>
      </trkpt>
      <trkpt lat="47.54762" lon="6.62114">
        <ele>386.264793</ele>
        <time>2022-09-14T21:01:48.959Z</time>
      </trkpt>
      <trkpt lat="47.54772" lon="6.62084">
        <ele>384.453459</ele>
        <time>2022-09-14T21:01:52.702Z</time>
      </trkpt>
      <trkpt lat="47.54776" lon="6.62047">
        <ele>382.365017</ele>
        <time>2022-09-14T21:01:56.998Z</time>
      </trkpt>
      <trkpt lat="47.54774" lon="6.62003">
        <ele>379.988601</ele>
        <time>2022-09-14T21:02:01.796Z</time>
      </trkpt>
      <trkpt lat="47.54761" lon="6.61925">
        <ele>375.56671</ele>
        <time>2022-09-14T21:02:10.732Z</time>
      </trkpt>
      <trkpt lat="47.54775" lon="6.61849">
        <ele>371.255038</ele>
        <time>2022-09-14T21:02:19.759Z</time>
      </trkpt>
      <trkpt lat="47.54769" lon="6.61782">
        <ele>369.205051</ele>
        <time>2022-09-14T21:02:27.849Z</time>
      </trkpt>
      <trkpt lat="47.54743" lon="6.61574">
        <ele>364.293263</ele>
        <time>2022-09-14T21:02:55.960Z</time>
      </trkpt>
      <trkpt lat="47.54735" lon="6.61516">
        <ele>364.334473</ele>
        <time>2022-09-14T21:03:08.465Z</time>
      </trkpt>
      <trkpt lat="47.54735" lon="6.61501">
        <ele>364.355306</ele>
        <time>2022-09-14T21:03:11.908Z</time>
      </trkpt>
      <trkpt lat="47.54783" lon="6.61433">
        <ele>364.490097</ele>
        <time>2022-09-14T21:03:33.379Z</time>
      </trkpt>
      <trkpt lat="47.54797" lon="6.61383">
        <ele>364.563617</ele>
        <time>2022-09-14T21:03:44.529Z</time>
      </trkpt>
      <trkpt lat="47.54786" lon="6.61274">
        <ele>364.388974</ele>
        <time>2022-09-14T21:04:02.721Z</time>
      </trkpt>
      <trkpt lat="47.54787" lon="6.61157">
        <ele>363.996391</ele>
        <time>2022-09-14T21:04:20.567Z</time>
      </trkpt>
      <trkpt lat="47.54795" lon="6.61041">
        <ele>363.967227</ele>
        <time>2022-09-14T21:04:41.121Z</time>
      </trkpt>
      <trkpt lat="47.54813" lon="6.60818">
        <ele>365.490799</ele>
        <time>2022-09-14T21:05:30.496Z</time>
      </trkpt>
      <trkpt lat="47.54827" lon="6.60574">
        <ele>368.166203</ele>
        <time>2022-09-14T21:06:30.027Z</time>
      </trkpt>
      <trkpt lat="47.54818" lon="6.60493">
        <ele>368.639319</ele>
        <time>2022-09-14T21:06:47.100Z</time>
      </trkpt>
      <trkpt lat="47.54756" lon="6.60164">
        <ele>367.703623</ele>
        <time>2022-09-14T21:07:50.757Z</time>
      </trkpt>
      <trkpt lat="47.54741" lon="6.59971">
        <ele>363.860004</ele>
        <time>2022-09-14T21:08:16.000Z</time>
      </trkpt>
      <trkpt lat="47.54706" lon="6.59702">
        <ele>353.795576</ele>
        <time>2022-09-14T21:08:48.384Z</time>
      </trkpt>
      <trkpt lat="47.54677" lon="6.59351">
        <ele>341.826934</ele>
        <time>2022-09-14T21:09:31.816Z</time>
      </trkpt>
      <trkpt lat="47.54662" lon="6.59273">
        <ele>339.272837</ele>
        <time>2022-09-14T21:09:41.883Z</time>
      </trkpt>
      <trkpt lat="47.54635" lon="6.59209">
        <ele>336.945271</ele>
        <time>2022-09-14T21:09:51.302Z</time>
      </trkpt>
      <trkpt lat="47.54595" lon="6.59148">
        <ele>334.31658</ele>
        <time>2022-09-14T21:10:02.053Z</time>
      </trkpt>
      <trkpt lat="47.5458" lon="6.59112">
        <ele>333.052572</ele>
        <time>2022-09-14T21:10:07.079Z</time>
      </trkpt>
      <trkpt lat="47.54571" lon="6.5906">
        <ele>331.41385</ele>
        <time>2022-09-14T21:10:13.688Z</time>
      </trkpt>
      <trkpt lat="47.54573" lon="6.59017">
        <ele>330.091904</ele>
        <time>2022-09-14T21:10:19.110Z</time>
      </trkpt>
      <trkpt lat="47.5458" lon="6.58976">
        <ele>329.127941</ele>
        <time>2022-09-14T21:10:24.636Z</time>
      </trkpt>
      <trkpt lat="47.54607" lon="6.58922">
        <ele>327.626977</ele>
        <time>2022-09-14T21:10:33.266Z</time>
      </trkpt>
      <trkpt lat="47.54676" lon="6.58871">
        <ele>325.022313</ele>
        <time>2022-09-14T21:10:48.601Z</time>
      </trkpt>
      <trkpt lat="47.54691" lon="6.58863">
        <ele>324.493647</ele>
        <time>2022-09-14T21:10:51.967Z</time>
      </trkpt>
      <trkpt lat="47.54729" lon="6.58844">
        <ele>323.201185</ele>
        <time>2022-09-14T21:10:59.754Z</time>
      </trkpt>
      <trkpt lat="47.54852" lon="6.58775">
        <ele>319.042145</ele>
        <time>2022-09-14T21:11:25.834Z</time>
      </trkpt>
      <trkpt lat="47.54948" lon="6.58759">
        <ele>315.607992</ele>
        <time>2022-09-14T21:11:44.073Z</time>
      </trkpt>
      <trkpt lat="47.55009" lon="6.58734">
        <ele>313.310533</ele>
        <time>2022-09-14T21:11:56.193Z</time>
      </trkpt>
      <trkpt lat="47.55024" lon="6.58719">
        <ele>312.668486</ele>
        <time>2022-09-14T21:11:59.557Z</time>
      </trkpt>
      <trkpt lat="47.5503" lon="6.58723">
        <ele>312.419249</ele>
        <time>2022-09-14T21:12:00.959Z</time>
      </trkpt>
      <trkpt lat="47.55037" lon="6.58718">
        <ele>312.160187</ele>
        <time>2022-09-14T21:12:02.386Z</time>
      </trkpt>
      <trkpt lat="47.55035" lon="6.58702">
        <ele>311.795248</ele>
        <time>2022-09-14T21:12:04.453Z</time>
      </trkpt>
      <trkpt lat="47.55081" lon="6.58627">
        <ele>310.022306</ele>
        <time>2022-09-14T21:12:18.231Z</time>
      </trkpt>
      <trkpt lat="47.55139" lon="6.58571">
        <ele>308.229129</ele>
        <time>2022-09-14T21:12:32.256Z</time>
      </trkpt>
      <trkpt lat="47.5519" lon="6.58545">
        <ele>306.96752</ele>
        <time>2022-09-14T21:12:43.555Z</time>
      </trkpt>
      <trkpt lat="47.55218" lon="6.58528">
        <ele>306.450389</ele>
        <time>2022-09-14T21:12:50.189Z</time>
      </trkpt>
      <trkpt lat="47.55206" lon="6.58439">
        <ele>305.432176</ele>
        <time>2022-09-14T21:13:03.385Z</time>
      </trkpt>
      <trkpt lat="47.55214" lon="6.58315">
        <ele>304.073053</ele>
        <time>2022-09-14T21:13:21.998Z</time>
      </trkpt>
      <trkpt lat="47.55222" lon="6.58195">
        <ele>303.132985</ele>
        <time>2022-09-14T21:13:40.189Z</time>
      </trkpt>
      <trkpt lat="47.55226" lon="6.57714">
        <ele>300.1838</ele>
        <time>2022-09-14T21:14:56.236Z</time>
      </trkpt>
      <trkpt lat="47.55242" lon="6.57631">
        <ele>299.848131</ele>
        <time>2022-09-14T21:15:10.331Z</time>
      </trkpt>
      <trkpt lat="47.55268" lon="6.57561">
        <ele>299.532907</ele>
        <time>2022-09-14T21:15:24.019Z</time>
      </trkpt>
      <trkpt lat="47.55287" lon="6.57483">
        <ele>299.548587</ele>
        <time>2022-09-14T21:15:38.422Z</time>
      </trkpt>
      <trkpt lat="47.55323" lon="6.575">
        <ele>299.615762</ele>
        <time>2022-09-14T21:15:48.930Z</time>
      </trkpt>
      <trkpt lat="47.55447" lon="6.57579">
        <ele>299.721972</ele>
        <time>2022-09-14T21:16:27.862Z</time>
      </trkpt>
      <trkpt lat="47.5551" lon="6.57619">
        <ele>299.605854</ele>
        <time>2022-09-14T21:16:45.642Z</time>
      </trkpt>
      <trkpt lat="47.55625" lon="6.57666">
        <ele>299.315838</ele>
        <time>2022-09-14T21:17:14.598Z</time>
      </trkpt>
      <trkpt lat="47.55658" lon="6.57686">
        <ele>299.185038</ele>
        <time>2022-09-14T21:17:23.458Z</time>
      </trkpt>
      <trkpt lat="47.55707" lon="6.5774">
        <ele>298.962911</ele>
        <time>2022-09-14T21:17:38.943Z</time>
      </trkpt>
      <trkpt lat="47.5573" lon="6.57752">
        <ele>298.872196</ele>
        <time>2022-09-14T21:17:45.417Z</time>
      </trkpt>
      <trkpt lat="47.55749" lon="6.57752">
        <ele>298.7993</ele>
        <time>2022-09-14T21:17:50.216Z</time>
      </trkpt>
      <trkpt lat="47.55789" lon="6.57738">
        <ele>298.624465</ele>
        <time>2022-09-14T21:18:00.632Z</time>
      </trkpt>
      <trkpt lat="47.55848" lon="6.577">
        <ele>298.345926</ele>
        <time>2022-09-14T21:18:17.959Z</time>
      </trkpt>
      <trkpt lat="47.56042" lon="6.57425">
        <ele>296.268859</ele>
        <time>2022-09-14T21:19:20.727Z</time>
      </trkpt>
      <trkpt lat="47.56118" lon="6.57252">
        <ele>295.250344</ele>
        <time>2022-09-14T21:19:53.817Z</time>
      </trkpt>
      <trkpt lat="47.56128" lon="6.57219">
        <ele>295.068359</ele>
        <time>2022-09-14T21:19:59.760Z</time>
      </trkpt>
      <trkpt lat="47.56156" lon="6.57173">
        <ele>294.712727</ele>
        <time>2022-09-14T21:20:10.232Z</time>
      </trkpt>
      <trkpt lat="47.56258" lon="6.57058">
        <ele>293.627999</ele>
        <time>2022-09-14T21:20:40.246Z</time>
      </trkpt>
      <trkpt lat="47.56332" lon="6.56979">
        <ele>293.062322</ele>
        <time>2022-09-14T21:21:01.102Z</time>
      </trkpt>
      <trkpt lat="47.5635" lon="6.56968">
        <ele>292.945708</ele>
        <time>2022-09-14T21:21:05.577Z</time>
      </trkpt>
      <trkpt lat="47.56358" lon="6.56968">
        <ele>292.89711</ele>
        <time>2022-09-14T21:21:07.485Z</time>
      </trkpt>
      <trkpt lat="47.56366" lon="6.56973">
        <ele>292.847771</ele>
        <time>2022-09-14T21:21:09.375Z</time>
      </trkpt>
      <trkpt lat="47.56372" lon="6.56983">
        <ele>292.794537</ele>
        <time>2022-09-14T21:21:11.377Z</time>
      </trkpt>
      <trkpt lat="47.56394" lon="6.57013">
        <ele>292.615107</ele>
        <time>2022-09-14T21:21:19.592Z</time>
      </trkpt>
      <trkpt lat="47.5644" lon="6.57051">
        <ele>293.076727</ele>
        <time>2022-09-14T21:21:34.727Z</time>
      </trkpt>
      <trkpt lat="47.56449" lon="6.57051">
        <ele>293.226986</ele>
        <time>2022-09-14T21:21:37.900Z</time>
      </trkpt>
      <trkpt lat="47.56468" lon="6.5703">
        <ele>293.635696</ele>
        <time>2022-09-14T21:21:46.069Z</time>
      </trkpt>
      <trkpt lat="47.56481" lon="6.56988">
        <ele>294.175469</ele>
        <time>2022-09-14T21:21:57.440Z</time>
      </trkpt>
      <trkpt lat="47.56502" lon="6.56956">
        <ele>294.690259</ele>
        <time>2022-09-14T21:22:09.695Z</time>
      </trkpt>
      <trkpt lat="47.56531" lon="6.56931">
        <ele>295.273972</ele>
        <time>2022-09-14T21:22:23.311Z</time>
      </trkpt>
      <trkpt lat="47.5654" lon="6.56933">
        <ele>295.4417</ele>
        <time>2022-09-14T21:22:26.853Z</time>
      </trkpt>
      <trkpt lat="47.56569" lon="6.56959">
        <ele>295.723182</ele>
        <time>2022-09-14T21:22:40.499Z</time>
      </trkpt>
      <trkpt lat="47.56575" lon="6.56945">
        <ele>295.778121</ele>
        <time>2022-09-14T21:22:44.961Z</time>
      </trkpt>
      <trkpt lat="47.56608" lon="6.56885">
        <ele>296.029805</ele>
        <time>2022-09-14T21:23:00.418Z</time>
      </trkpt>
      <trkpt lat="47.56692" lon="6.56827">
        <ele>296.476523</ele>
        <time>2022-09-14T21:23:23.916Z</time>
      </trkpt>
      <trkpt lat="47.56696" lon="6.56819">
        <ele>296.455188</ele>
        <time>2022-09-14T21:23:25.199Z</time>
      </trkpt>
      <trkpt lat="47.56734" lon="6.56797">
        <ele>296.327329</ele>
        <time>2022-09-14T21:23:34.423Z</time>
      </trkpt>
      <trkpt lat="47.56745" lon="6.56782">
        <ele>296.278888</ele>
        <time>2022-09-14T21:23:37.985Z</time>
      </trkpt>
      <trkpt lat="47.56822" lon="6.56629">
        <ele>296.086348</ele>
        <time>2022-09-14T21:24:10.684Z</time>
      </trkpt>
      <trkpt lat="47.56862" lon="6.56586">
        <ele>296.853099</ele>
        <time>2022-09-14T21:24:28.232Z</time>
      </trkpt>
      <trkpt lat="47.56907" lon="6.56552">
        <ele>297.620915</ele>
        <time>2022-09-14T21:24:46.730Z</time>
      </trkpt>
      <trkpt lat="47.57032" lon="6.56399">
        <ele>300.154637</ele>
        <time>2022-09-14T21:25:43.438Z</time>
      </trkpt>
      <trkpt lat="47.57141" lon="6.56327">
        <ele>301.949256</ele>
        <time>2022-09-14T21:26:23.730Z</time>
      </trkpt>
      <trkpt lat="47.57267" lon="6.56256">
        <ele>303.678332</ele>
        <time>2022-09-14T21:27:08.057Z</time>
      </trkpt>
      <trkpt lat="47.57313" lon="6.56251">
        <ele>303.889819</ele>
        <time>2022-09-14T21:27:22.728Z</time>
      </trkpt>
      <trkpt lat="47.57376" lon="6.56262">
        <ele>303.99072</ele>
        <time>2022-09-14T21:27:41.559Z</time>
      </trkpt>
      <trkpt lat="47.57565" lon="6.56263">
        <ele>303.309404</ele>
        <time>2022-09-14T21:28:27.742Z</time>
      </trkpt>
      <trkpt lat="47.57608" lon="6.56237">
        <ele>302.957378</ele>
        <time>2022-09-14T21:28:38.382Z</time>
      </trkpt>
      <trkpt lat="47.57667" lon="6.56191">
        <ele>302.377768</ele>
        <time>2022-09-14T21:28:53.705Z</time>
      </trkpt>
      <trkpt lat="47.57716" lon="6.56171">
        <ele>301.895837</ele>
        <time>2022-09-14T21:29:05.424Z</time>
      </trkpt>
      <trkpt lat="47.57926" lon="6.56114">
        <ele>299.745623</ele>
        <time>2022-09-14T21:29:55.608Z</time>
      </trkpt>
      <trkpt lat="47.58001" lon="6.56126">
        <ele>298.768166</ele>
        <time>2022-09-14T21:30:12.618Z</time>
      </trkpt>
      <trkpt lat="47.58123" lon="6.55997">
        <ele>295.774616</ele>
        <time>2022-09-14T21:30:44.438Z</time>
      </trkpt>
      <trkpt lat="47.58198" lon="6.55887">
        <ele>292.699677</ele>
        <time>2022-09-14T21:31:05.043Z</time>
      </trkpt>
      <trkpt lat="47.58218" lon="6.55833">
        <ele>291.459805</ele>
        <time>2022-09-14T21:31:13.146Z</time>
      </trkpt>
      <trkpt lat="47.58249" lon="6.55693">
        <ele>288.680402</ele>
        <time>2022-09-14T21:31:32.658Z</time>
      </trkpt>
      <trkpt lat="47.58244" lon="6.55649">
        <ele>287.871441</ele>
        <time>2022-09-14T21:31:38.673Z</time>
      </trkpt>
      <trkpt lat="47.58234" lon="6.55599">
        <ele>286.951647</ele>
        <time>2022-09-14T21:31:45.734Z</time>
      </trkpt>
      <trkpt lat="47.58195" lon="6.55489">
        <ele>285.095131</ele>
        <time>2022-09-14T21:32:03.254Z</time>
      </trkpt>
      <trkpt lat="47.58189" lon="6.55458">
        <ele>284.818224</ele>
        <time>2022-09-14T21:32:07.943Z</time>
      </trkpt>
      <trkpt lat="47.58183" lon="6.55347">
        <ele>283.872022</ele>
        <time>2022-09-14T21:32:24.499Z</time>
      </trkpt>
      <trkpt lat="47.58177" lon="6.55329">
        <ele>283.704001</ele>
        <time>2022-09-14T21:32:27.803Z</time>
      </trkpt>
      <trkpt lat="47.5816" lon="6.55306">
        <ele>283.411631</ele>
        <time>2022-09-14T21:32:33.058Z</time>
      </trkpt>
      <trkpt lat="47.58113" lon="6.55242">
        <ele>283.240596</ele>
        <time>2022-09-14T21:32:50.316Z</time>
      </trkpt>
      <trkpt lat="47.58098" lon="6.55222">
        <ele>283.282808</ele>
        <time>2022-09-14T21:32:56.478Z</time>
      </trkpt>
      <trkpt lat="47.58064" lon="6.55147">
        <ele>283.413555</ele>
        <time>2022-09-14T21:33:13.679Z</time>
      </trkpt>
      <trkpt lat="47.58049" lon="6.55124">
        <ele>283.459889</ele>
        <time>2022-09-14T21:33:19.807Z</time>
      </trkpt>
      <trkpt lat="47.58052" lon="6.55044">
        <ele>283.53253</ele>
        <time>2022-09-14T21:33:35.422Z</time>
      </trkpt>
      <trkpt lat="47.58031" lon="6.55033">
        <ele>283.53253</ele>
        <time>2022-09-14T21:33:41.571Z</time>
      </trkpt>
      <trkpt lat="47.58001" lon="6.54998">
        <ele>283.53253</ele>
        <time>2022-09-14T21:33:52.464Z</time>
      </trkpt>
      <trkpt lat="47.57969" lon="6.54945">
        <ele>283.53253</ele>
        <time>2022-09-14T21:34:06.379Z</time>
      </trkpt>
    </trkseg>
  </trk>
</gpx>